<?xml version="1.0" encoding="UTF-8" standalone="yes"?>
<gpx creator="GPSSpeed HD for iPhone"
	 version="1.1"
	 xmlns="http://www.topografix.com/GPX/1/1"
	 xmlns:xsi="http://www.w3.org/2001/XMLSchema-instance"
	 xsi:schemaLocation="http://www.topografix.com/GPX/1/1 http://www.topografix.com/GPX/1/1/gpx.xsd">
<metadata>
	<link href="http://www.mwaysolutions.com">
		<text>Visit M-Way Solutions WebSite</text>
	</link>
	<time>2011-09-11T16:39:56.684Z</time>
	<bounds maxlat="50.729624" maxlon="6.215982" minlat="50.647285" minlon="6.123617"/>
</metadata>
<trk>
<name>Eifelsteig</name>
<trkseg>
	<trkpt lat="50.711385" lon="6.124877">
		<ele>274</ele>
		<time>2011-09-11T07:52:47.833Z</time>
		<geoidheight>228</geoidheight>
	</trkpt>
	<trkpt lat="50.711385" lon="6.124877">
		<ele>274</ele>
		<time>2011-09-11T07:52:48.833Z</time>
		<geoidheight>228</geoidheight>
	</trkpt>
	<trkpt lat="50.711385" lon="6.124877">
		<ele>274</ele>
		<time>2011-09-11T07:52:49.833Z</time>
		<geoidheight>228</geoidheight>
	</trkpt>
	<trkpt lat="50.711385" lon="6.124877">
		<ele>274</ele>
		<time>2011-09-11T07:52:50.840Z</time>
		<geoidheight>228</geoidheight>
	</trkpt>
	<trkpt lat="50.711385" lon="6.124877">
		<ele>274</ele>
		<time>2011-09-11T07:52:51.834Z</time>
		<geoidheight>228</geoidheight>
	</trkpt>
	<trkpt lat="50.711385" lon="6.124877">
		<ele>274</ele>
		<time>2011-09-11T07:52:52.843Z</time>
		<geoidheight>228</geoidheight>
	</trkpt>
	<trkpt lat="50.711385" lon="6.124877">
		<ele>274</ele>
		<time>2011-09-11T07:52:53.837Z</time>
		<geoidheight>228</geoidheight>
	</trkpt>
	<trkpt lat="50.711385" lon="6.124877">
		<ele>274</ele>
		<time>2011-09-11T07:52:54.839Z</time>
		<geoidheight>228</geoidheight>
	</trkpt>
	<trkpt lat="50.711385" lon="6.124877">
		<ele>274</ele>
		<time>2011-09-11T07:52:55.837Z</time>
		<geoidheight>228</geoidheight>
	</trkpt>
	<trkpt lat="50.711385" lon="6.124877">
		<ele>274</ele>
		<time>2011-09-11T07:52:56.839Z</time>
		<geoidheight>228</geoidheight>
	</trkpt>
	<trkpt lat="50.711385" lon="6.124877">
		<ele>274</ele>
		<time>2011-09-11T07:52:57.838Z</time>
		<geoidheight>228</geoidheight>
	</trkpt>
	<trkpt lat="50.711385" lon="6.124877">
		<ele>274</ele>
		<time>2011-09-11T07:52:58.834Z</time>
		<geoidheight>228</geoidheight>
	</trkpt>
	<trkpt lat="50.711385" lon="6.124877">
		<ele>274</ele>
		<time>2011-09-11T07:52:59.836Z</time>
		<geoidheight>228</geoidheight>
	</trkpt>
	<trkpt lat="50.711385" lon="6.124877">
		<ele>274</ele>
		<time>2011-09-11T07:53:00.834Z</time>
		<geoidheight>228</geoidheight>
	</trkpt>
	<trkpt lat="50.711385" lon="6.124877">
		<ele>274</ele>
		<time>2011-09-11T07:53:01.834Z</time>
		<geoidheight>228</geoidheight>
	</trkpt>
	<trkpt lat="50.711385" lon="6.124877">
		<ele>274</ele>
		<time>2011-09-11T07:53:02.834Z</time>
		<geoidheight>228</geoidheight>
	</trkpt>
	<trkpt lat="50.711385" lon="6.124877">
		<ele>274</ele>
		<time>2011-09-11T07:53:03.835Z</time>
		<geoidheight>228</geoidheight>
	</trkpt>
	<trkpt lat="50.711385" lon="6.124877">
		<ele>274</ele>
		<time>2011-09-11T07:53:04.834Z</time>
		<geoidheight>228</geoidheight>
	</trkpt>
	<trkpt lat="50.711385" lon="6.124877">
		<ele>274</ele>
		<time>2011-09-11T07:53:05.835Z</time>
		<geoidheight>228</geoidheight>
	</trkpt>
	<trkpt lat="50.711385" lon="6.124877">
		<ele>274</ele>
		<time>2011-09-11T07:53:06.834Z</time>
		<geoidheight>228</geoidheight>
	</trkpt>
	<trkpt lat="50.711385" lon="6.124877">
		<ele>274</ele>
		<time>2011-09-11T07:53:07.835Z</time>
		<geoidheight>228</geoidheight>
	</trkpt>
	<trkpt lat="50.711385" lon="6.124877">
		<ele>274</ele>
		<time>2011-09-11T07:53:08.834Z</time>
		<geoidheight>228</geoidheight>
	</trkpt>
	<trkpt lat="50.711318" lon="6.124973">
		<ele>279</ele>
		<time>2011-09-11T07:53:09.831Z</time>
		<geoidheight>233</geoidheight>
	</trkpt>
	<trkpt lat="50.711318" lon="6.124973">
		<ele>279</ele>
		<time>2011-09-11T07:53:10.839Z</time>
		<geoidheight>233</geoidheight>
	</trkpt>
	<trkpt lat="50.711310" lon="6.125013">
		<ele>279</ele>
		<time>2011-09-11T07:53:11.836Z</time>
		<geoidheight>233</geoidheight>
	</trkpt>
	<trkpt lat="50.711305" lon="6.125033">
		<ele>279</ele>
		<time>2011-09-11T07:53:12.836Z</time>
		<geoidheight>233</geoidheight>
	</trkpt>
	<trkpt lat="50.711302" lon="6.125053">
		<ele>279</ele>
		<time>2011-09-11T07:53:13.834Z</time>
		<geoidheight>233</geoidheight>
	</trkpt>
	<trkpt lat="50.711302" lon="6.125073">
		<ele>280</ele>
		<time>2011-09-11T07:53:14.836Z</time>
		<geoidheight>234</geoidheight>
	</trkpt>
	<trkpt lat="50.711303" lon="6.125093">
		<ele>280</ele>
		<time>2011-09-11T07:53:15.832Z</time>
		<geoidheight>234</geoidheight>
	</trkpt>
	<trkpt lat="50.711305" lon="6.125112">
		<ele>280</ele>
		<time>2011-09-11T07:53:16.836Z</time>
		<geoidheight>234</geoidheight>
	</trkpt>
	<trkpt lat="50.711304" lon="6.125130">
		<ele>280</ele>
		<time>2011-09-11T07:53:17.835Z</time>
		<geoidheight>234</geoidheight>
	</trkpt>
	<trkpt lat="50.711302" lon="6.125151">
		<ele>280</ele>
		<time>2011-09-11T07:53:18.834Z</time>
		<geoidheight>234</geoidheight>
	</trkpt>
	<trkpt lat="50.711304" lon="6.125170">
		<ele>280</ele>
		<time>2011-09-11T07:53:19.833Z</time>
		<geoidheight>234</geoidheight>
	</trkpt>
	<trkpt lat="50.711304" lon="6.125192">
		<ele>280</ele>
		<time>2011-09-11T07:53:20.836Z</time>
		<geoidheight>234</geoidheight>
	</trkpt>
	<trkpt lat="50.711302" lon="6.125214">
		<ele>280</ele>
		<time>2011-09-11T07:53:21.835Z</time>
		<geoidheight>234</geoidheight>
	</trkpt>
	<trkpt lat="50.711303" lon="6.125236">
		<ele>280</ele>
		<time>2011-09-11T07:53:22.836Z</time>
		<geoidheight>234</geoidheight>
	</trkpt>
	<trkpt lat="50.711302" lon="6.125259">
		<ele>280</ele>
		<time>2011-09-11T07:53:23.836Z</time>
		<geoidheight>234</geoidheight>
	</trkpt>
	<trkpt lat="50.711299" lon="6.125282">
		<ele>280</ele>
		<time>2011-09-11T07:53:24.834Z</time>
		<geoidheight>234</geoidheight>
	</trkpt>
	<trkpt lat="50.711296" lon="6.125305">
		<ele>280</ele>
		<time>2011-09-11T07:53:25.835Z</time>
		<geoidheight>234</geoidheight>
	</trkpt>
	<trkpt lat="50.711293" lon="6.125328">
		<ele>280</ele>
		<time>2011-09-11T07:53:26.835Z</time>
		<geoidheight>234</geoidheight>
	</trkpt>
	<trkpt lat="50.711291" lon="6.125352">
		<ele>280</ele>
		<time>2011-09-11T07:53:27.835Z</time>
		<geoidheight>234</geoidheight>
	</trkpt>
	<trkpt lat="50.711292" lon="6.125377">
		<ele>280</ele>
		<time>2011-09-11T07:53:28.834Z</time>
		<geoidheight>234</geoidheight>
	</trkpt>
	<trkpt lat="50.711291" lon="6.125402">
		<ele>280</ele>
		<time>2011-09-11T07:53:29.834Z</time>
		<geoidheight>234</geoidheight>
	</trkpt>
	<trkpt lat="50.711292" lon="6.125426">
		<ele>280</ele>
		<time>2011-09-11T07:53:30.836Z</time>
		<geoidheight>234</geoidheight>
	</trkpt>
	<trkpt lat="50.711291" lon="6.125449">
		<ele>280</ele>
		<time>2011-09-11T07:53:31.835Z</time>
		<geoidheight>234</geoidheight>
	</trkpt>
	<trkpt lat="50.711288" lon="6.125472">
		<ele>280</ele>
		<time>2011-09-11T07:53:32.835Z</time>
		<geoidheight>234</geoidheight>
	</trkpt>
	<trkpt lat="50.711286" lon="6.125496">
		<ele>280</ele>
		<time>2011-09-11T07:53:33.837Z</time>
		<geoidheight>234</geoidheight>
	</trkpt>
	<trkpt lat="50.711285" lon="6.125519">
		<ele>280</ele>
		<time>2011-09-11T07:53:34.835Z</time>
		<geoidheight>234</geoidheight>
	</trkpt>
	<trkpt lat="50.711282" lon="6.125541">
		<ele>280</ele>
		<time>2011-09-11T07:53:35.834Z</time>
		<geoidheight>234</geoidheight>
	</trkpt>
	<trkpt lat="50.711280" lon="6.125563">
		<ele>280</ele>
		<time>2011-09-11T07:53:36.836Z</time>
		<geoidheight>234</geoidheight>
	</trkpt>
	<trkpt lat="50.711278" lon="6.125586">
		<ele>280</ele>
		<time>2011-09-11T07:53:37.835Z</time>
		<geoidheight>234</geoidheight>
	</trkpt>
	<trkpt lat="50.711282" lon="6.125608">
		<ele>280</ele>
		<time>2011-09-11T07:53:38.835Z</time>
		<geoidheight>234</geoidheight>
	</trkpt>
	<trkpt lat="50.711280" lon="6.125631">
		<ele>280</ele>
		<time>2011-09-11T07:53:39.834Z</time>
		<geoidheight>234</geoidheight>
	</trkpt>
	<trkpt lat="50.711282" lon="6.125654">
		<ele>280</ele>
		<time>2011-09-11T07:53:40.835Z</time>
		<geoidheight>234</geoidheight>
	</trkpt>
	<trkpt lat="50.711285" lon="6.125689">
		<ele>280</ele>
		<time>2011-09-11T07:53:41.834Z</time>
		<geoidheight>234</geoidheight>
	</trkpt>
	<trkpt lat="50.711283" lon="6.125718">
		<ele>280</ele>
		<time>2011-09-11T07:53:42.838Z</time>
		<geoidheight>234</geoidheight>
	</trkpt>
	<trkpt lat="50.711284" lon="6.125747">
		<ele>280</ele>
		<time>2011-09-11T07:53:43.836Z</time>
		<geoidheight>234</geoidheight>
	</trkpt>
	<trkpt lat="50.711285" lon="6.125775">
		<ele>281</ele>
		<time>2011-09-11T07:53:44.837Z</time>
		<geoidheight>235</geoidheight>
	</trkpt>
	<trkpt lat="50.711285" lon="6.125801">
		<ele>281</ele>
		<time>2011-09-11T07:53:45.835Z</time>
		<geoidheight>235</geoidheight>
	</trkpt>
	<trkpt lat="50.711285" lon="6.125826">
		<ele>281</ele>
		<time>2011-09-11T07:53:46.836Z</time>
		<geoidheight>235</geoidheight>
	</trkpt>
	<trkpt lat="50.711285" lon="6.125849">
		<ele>281</ele>
		<time>2011-09-11T07:53:47.834Z</time>
		<geoidheight>235</geoidheight>
	</trkpt>
	<trkpt lat="50.711282" lon="6.125873">
		<ele>281</ele>
		<time>2011-09-11T07:53:48.833Z</time>
		<geoidheight>235</geoidheight>
	</trkpt>
	<trkpt lat="50.711286" lon="6.125894">
		<ele>281</ele>
		<time>2011-09-11T07:53:49.837Z</time>
		<geoidheight>235</geoidheight>
	</trkpt>
	<trkpt lat="50.711286" lon="6.125916">
		<ele>281</ele>
		<time>2011-09-11T07:53:50.834Z</time>
		<geoidheight>235</geoidheight>
	</trkpt>
	<trkpt lat="50.711275" lon="6.125941">
		<ele>281</ele>
		<time>2011-09-11T07:53:51.834Z</time>
		<geoidheight>235</geoidheight>
	</trkpt>
	<trkpt lat="50.711272" lon="6.125965">
		<ele>281</ele>
		<time>2011-09-11T07:53:52.835Z</time>
		<geoidheight>235</geoidheight>
	</trkpt>
	<trkpt lat="50.711269" lon="6.125986">
		<ele>281</ele>
		<time>2011-09-11T07:53:53.832Z</time>
		<geoidheight>235</geoidheight>
	</trkpt>
	<trkpt lat="50.711269" lon="6.126005">
		<ele>281</ele>
		<time>2011-09-11T07:53:54.836Z</time>
		<geoidheight>235</geoidheight>
	</trkpt>
	<trkpt lat="50.711267" lon="6.126024">
		<ele>281</ele>
		<time>2011-09-11T07:53:55.835Z</time>
		<geoidheight>235</geoidheight>
	</trkpt>
	<trkpt lat="50.711266" lon="6.126043">
		<ele>281</ele>
		<time>2011-09-11T07:53:56.837Z</time>
		<geoidheight>235</geoidheight>
	</trkpt>
	<trkpt lat="50.711265" lon="6.126062">
		<ele>281</ele>
		<time>2011-09-11T07:53:57.834Z</time>
		<geoidheight>235</geoidheight>
	</trkpt>
	<trkpt lat="50.711263" lon="6.126081">
		<ele>281</ele>
		<time>2011-09-11T07:53:58.835Z</time>
		<geoidheight>235</geoidheight>
	</trkpt>
	<trkpt lat="50.711260" lon="6.126100">
		<ele>281</ele>
		<time>2011-09-11T07:53:59.837Z</time>
		<geoidheight>235</geoidheight>
	</trkpt>
	<trkpt lat="50.711264" lon="6.126120">
		<ele>281</ele>
		<time>2011-09-11T07:54:00.833Z</time>
		<geoidheight>235</geoidheight>
	</trkpt>
	<trkpt lat="50.711267" lon="6.126140">
		<ele>281</ele>
		<time>2011-09-11T07:54:01.835Z</time>
		<geoidheight>235</geoidheight>
	</trkpt>
	<trkpt lat="50.711265" lon="6.126161">
		<ele>281</ele>
		<time>2011-09-11T07:54:02.836Z</time>
		<geoidheight>235</geoidheight>
	</trkpt>
	<trkpt lat="50.711265" lon="6.126182">
		<ele>282</ele>
		<time>2011-09-11T07:54:03.832Z</time>
		<geoidheight>236</geoidheight>
	</trkpt>
	<trkpt lat="50.711262" lon="6.126203">
		<ele>282</ele>
		<time>2011-09-11T07:54:04.836Z</time>
		<geoidheight>236</geoidheight>
	</trkpt>
	<trkpt lat="50.711259" lon="6.126223">
		<ele>282</ele>
		<time>2011-09-11T07:54:05.836Z</time>
		<geoidheight>236</geoidheight>
	</trkpt>
	<trkpt lat="50.711258" lon="6.126243">
		<ele>282</ele>
		<time>2011-09-11T07:54:06.835Z</time>
		<geoidheight>236</geoidheight>
	</trkpt>
	<trkpt lat="50.711256" lon="6.126262">
		<ele>282</ele>
		<time>2011-09-11T07:54:07.834Z</time>
		<geoidheight>236</geoidheight>
	</trkpt>
	<trkpt lat="50.711257" lon="6.126281">
		<ele>282</ele>
		<time>2011-09-11T07:54:08.834Z</time>
		<geoidheight>236</geoidheight>
	</trkpt>
	<trkpt lat="50.711259" lon="6.126300">
		<ele>282</ele>
		<time>2011-09-11T07:54:09.832Z</time>
		<geoidheight>236</geoidheight>
	</trkpt>
	<trkpt lat="50.711264" lon="6.126317">
		<ele>282</ele>
		<time>2011-09-11T07:54:10.836Z</time>
		<geoidheight>236</geoidheight>
	</trkpt>
	<trkpt lat="50.711263" lon="6.126338">
		<ele>282</ele>
		<time>2011-09-11T07:54:11.836Z</time>
		<geoidheight>236</geoidheight>
	</trkpt>
	<trkpt lat="50.711266" lon="6.126357">
		<ele>282</ele>
		<time>2011-09-11T07:54:12.837Z</time>
		<geoidheight>236</geoidheight>
	</trkpt>
	<trkpt lat="50.711268" lon="6.126376">
		<ele>282</ele>
		<time>2011-09-11T07:54:13.835Z</time>
		<geoidheight>236</geoidheight>
	</trkpt>
	<trkpt lat="50.711274" lon="6.126391">
		<ele>282</ele>
		<time>2011-09-11T07:54:14.835Z</time>
		<geoidheight>236</geoidheight>
	</trkpt>
	<trkpt lat="50.711279" lon="6.126407">
		<ele>282</ele>
		<time>2011-09-11T07:54:15.836Z</time>
		<geoidheight>236</geoidheight>
	</trkpt>
	<trkpt lat="50.711281" lon="6.126428">
		<ele>282</ele>
		<time>2011-09-11T07:54:16.835Z</time>
		<geoidheight>236</geoidheight>
	</trkpt>
	<trkpt lat="50.711284" lon="6.126449">
		<ele>282</ele>
		<time>2011-09-11T07:54:17.835Z</time>
		<geoidheight>236</geoidheight>
	</trkpt>
	<trkpt lat="50.711284" lon="6.126471">
		<ele>282</ele>
		<time>2011-09-11T07:54:18.836Z</time>
		<geoidheight>236</geoidheight>
	</trkpt>
	<trkpt lat="50.711286" lon="6.126493">
		<ele>282</ele>
		<time>2011-09-11T07:54:19.836Z</time>
		<geoidheight>236</geoidheight>
	</trkpt>
	<trkpt lat="50.711287" lon="6.126513">
		<ele>282</ele>
		<time>2011-09-11T07:54:20.832Z</time>
		<geoidheight>236</geoidheight>
	</trkpt>
	<trkpt lat="50.711294" lon="6.126527">
		<ele>282</ele>
		<time>2011-09-11T07:54:21.838Z</time>
		<geoidheight>236</geoidheight>
	</trkpt>
	<trkpt lat="50.711301" lon="6.126540">
		<ele>282</ele>
		<time>2011-09-11T07:54:22.837Z</time>
		<geoidheight>236</geoidheight>
	</trkpt>
	<trkpt lat="50.711309" lon="6.126552">
		<ele>282</ele>
		<time>2011-09-11T07:54:23.834Z</time>
		<geoidheight>236</geoidheight>
	</trkpt>
	<trkpt lat="50.711317" lon="6.126566">
		<ele>282</ele>
		<time>2011-09-11T07:54:24.835Z</time>
		<geoidheight>236</geoidheight>
	</trkpt>
	<trkpt lat="50.711315" lon="6.126588">
		<ele>282</ele>
		<time>2011-09-11T07:54:25.835Z</time>
		<geoidheight>236</geoidheight>
	</trkpt>
	<trkpt lat="50.711311" lon="6.126609">
		<ele>282</ele>
		<time>2011-09-11T07:54:26.834Z</time>
		<geoidheight>236</geoidheight>
	</trkpt>
	<trkpt lat="50.711309" lon="6.126629">
		<ele>282</ele>
		<time>2011-09-11T07:54:27.835Z</time>
		<geoidheight>236</geoidheight>
	</trkpt>
	<trkpt lat="50.711307" lon="6.126648">
		<ele>283</ele>
		<time>2011-09-11T07:54:28.837Z</time>
		<geoidheight>237</geoidheight>
	</trkpt>
	<trkpt lat="50.711308" lon="6.126665">
		<ele>283</ele>
		<time>2011-09-11T07:54:29.835Z</time>
		<geoidheight>237</geoidheight>
	</trkpt>
	<trkpt lat="50.711307" lon="6.126683">
		<ele>283</ele>
		<time>2011-09-11T07:54:30.835Z</time>
		<geoidheight>237</geoidheight>
	</trkpt>
	<trkpt lat="50.711305" lon="6.126700">
		<ele>283</ele>
		<time>2011-09-11T07:54:31.837Z</time>
		<geoidheight>237</geoidheight>
	</trkpt>
	<trkpt lat="50.711303" lon="6.126717">
		<ele>283</ele>
		<time>2011-09-11T07:54:32.834Z</time>
		<geoidheight>237</geoidheight>
	</trkpt>
	<trkpt lat="50.711300" lon="6.126734">
		<ele>283</ele>
		<time>2011-09-11T07:54:33.834Z</time>
		<geoidheight>237</geoidheight>
	</trkpt>
	<trkpt lat="50.711299" lon="6.126750">
		<ele>283</ele>
		<time>2011-09-11T07:54:34.837Z</time>
		<geoidheight>237</geoidheight>
	</trkpt>
	<trkpt lat="50.711298" lon="6.126767">
		<ele>283</ele>
		<time>2011-09-11T07:54:35.837Z</time>
		<geoidheight>237</geoidheight>
	</trkpt>
	<trkpt lat="50.711293" lon="6.126783">
		<ele>283</ele>
		<time>2011-09-11T07:54:36.835Z</time>
		<geoidheight>237</geoidheight>
	</trkpt>
	<trkpt lat="50.711289" lon="6.126800">
		<ele>283</ele>
		<time>2011-09-11T07:54:37.832Z</time>
		<geoidheight>237</geoidheight>
	</trkpt>
	<trkpt lat="50.711289" lon="6.126818">
		<ele>283</ele>
		<time>2011-09-11T07:54:38.836Z</time>
		<geoidheight>237</geoidheight>
	</trkpt>
	<trkpt lat="50.711290" lon="6.126839">
		<ele>283</ele>
		<time>2011-09-11T07:54:39.835Z</time>
		<geoidheight>237</geoidheight>
	</trkpt>
	<trkpt lat="50.711288" lon="6.126861">
		<ele>283</ele>
		<time>2011-09-11T07:54:40.835Z</time>
		<geoidheight>237</geoidheight>
	</trkpt>
	<trkpt lat="50.711287" lon="6.126883">
		<ele>283</ele>
		<time>2011-09-11T07:54:41.836Z</time>
		<geoidheight>237</geoidheight>
	</trkpt>
	<trkpt lat="50.711286" lon="6.126904">
		<ele>283</ele>
		<time>2011-09-11T07:54:42.835Z</time>
		<geoidheight>237</geoidheight>
	</trkpt>
	<trkpt lat="50.711284" lon="6.126924">
		<ele>283</ele>
		<time>2011-09-11T07:54:43.835Z</time>
		<geoidheight>237</geoidheight>
	</trkpt>
	<trkpt lat="50.711287" lon="6.126941">
		<ele>283</ele>
		<time>2011-09-11T07:54:44.837Z</time>
		<geoidheight>237</geoidheight>
	</trkpt>
	<trkpt lat="50.711287" lon="6.126960">
		<ele>284</ele>
		<time>2011-09-11T07:54:45.836Z</time>
		<geoidheight>238</geoidheight>
	</trkpt>
	<trkpt lat="50.711289" lon="6.126978">
		<ele>284</ele>
		<time>2011-09-11T07:54:46.835Z</time>
		<geoidheight>238</geoidheight>
	</trkpt>
	<trkpt lat="50.711301" lon="6.126985">
		<ele>284</ele>
		<time>2011-09-11T07:54:47.837Z</time>
		<geoidheight>238</geoidheight>
	</trkpt>
	<trkpt lat="50.711313" lon="6.126994">
		<ele>284</ele>
		<time>2011-09-11T07:54:48.835Z</time>
		<geoidheight>238</geoidheight>
	</trkpt>
	<trkpt lat="50.711323" lon="6.127008">
		<ele>284</ele>
		<time>2011-09-11T07:54:49.835Z</time>
		<geoidheight>238</geoidheight>
	</trkpt>
	<trkpt lat="50.711332" lon="6.127022">
		<ele>284</ele>
		<time>2011-09-11T07:54:50.837Z</time>
		<geoidheight>238</geoidheight>
	</trkpt>
	<trkpt lat="50.711340" lon="6.127036">
		<ele>284</ele>
		<time>2011-09-11T07:54:51.834Z</time>
		<geoidheight>238</geoidheight>
	</trkpt>
	<trkpt lat="50.711346" lon="6.127053">
		<ele>284</ele>
		<time>2011-09-11T07:54:52.835Z</time>
		<geoidheight>238</geoidheight>
	</trkpt>
	<trkpt lat="50.711353" lon="6.127068">
		<ele>284</ele>
		<time>2011-09-11T07:54:53.838Z</time>
		<geoidheight>238</geoidheight>
	</trkpt>
	<trkpt lat="50.711358" lon="6.127084">
		<ele>284</ele>
		<time>2011-09-11T07:54:54.833Z</time>
		<geoidheight>238</geoidheight>
	</trkpt>
	<trkpt lat="50.711361" lon="6.127101">
		<ele>284</ele>
		<time>2011-09-11T07:54:55.835Z</time>
		<geoidheight>238</geoidheight>
	</trkpt>
	<trkpt lat="50.711363" lon="6.127118">
		<ele>284</ele>
		<time>2011-09-11T07:54:56.835Z</time>
		<geoidheight>238</geoidheight>
	</trkpt>
	<trkpt lat="50.711360" lon="6.127136">
		<ele>285</ele>
		<time>2011-09-11T07:54:57.837Z</time>
		<geoidheight>239</geoidheight>
	</trkpt>
	<trkpt lat="50.711357" lon="6.127155">
		<ele>285</ele>
		<time>2011-09-11T07:54:58.835Z</time>
		<geoidheight>239</geoidheight>
	</trkpt>
	<trkpt lat="50.711357" lon="6.127175">
		<ele>285</ele>
		<time>2011-09-11T07:54:59.837Z</time>
		<geoidheight>239</geoidheight>
	</trkpt>
	<trkpt lat="50.711357" lon="6.127196">
		<ele>285</ele>
		<time>2011-09-11T07:55:00.834Z</time>
		<geoidheight>239</geoidheight>
	</trkpt>
	<trkpt lat="50.711356" lon="6.127217">
		<ele>285</ele>
		<time>2011-09-11T07:55:01.837Z</time>
		<geoidheight>239</geoidheight>
	</trkpt>
	<trkpt lat="50.711356" lon="6.127238">
		<ele>285</ele>
		<time>2011-09-11T07:55:02.835Z</time>
		<geoidheight>239</geoidheight>
	</trkpt>
	<trkpt lat="50.711357" lon="6.127258">
		<ele>285</ele>
		<time>2011-09-11T07:55:03.837Z</time>
		<geoidheight>239</geoidheight>
	</trkpt>
	<trkpt lat="50.711356" lon="6.127278">
		<ele>285</ele>
		<time>2011-09-11T07:55:04.835Z</time>
		<geoidheight>239</geoidheight>
	</trkpt>
	<trkpt lat="50.711355" lon="6.127288">
		<ele>285</ele>
		<time>2011-09-11T07:55:05.835Z</time>
		<geoidheight>239</geoidheight>
	</trkpt>
	<trkpt lat="50.711354" lon="6.127304">
		<ele>285</ele>
		<time>2011-09-11T07:55:06.833Z</time>
		<geoidheight>239</geoidheight>
	</trkpt>
	<trkpt lat="50.711352" lon="6.127323">
		<ele>285</ele>
		<time>2011-09-11T07:55:07.835Z</time>
		<geoidheight>239</geoidheight>
	</trkpt>
	<trkpt lat="50.711350" lon="6.127342">
		<ele>285</ele>
		<time>2011-09-11T07:55:08.835Z</time>
		<geoidheight>239</geoidheight>
	</trkpt>
	<trkpt lat="50.711348" lon="6.127362">
		<ele>286</ele>
		<time>2011-09-11T07:55:09.835Z</time>
		<geoidheight>240</geoidheight>
	</trkpt>
	<trkpt lat="50.711348" lon="6.127381">
		<ele>286</ele>
		<time>2011-09-11T07:55:10.833Z</time>
		<geoidheight>240</geoidheight>
	</trkpt>
	<trkpt lat="50.711348" lon="6.127401">
		<ele>286</ele>
		<time>2011-09-11T07:55:11.836Z</time>
		<geoidheight>240</geoidheight>
	</trkpt>
	<trkpt lat="50.711347" lon="6.127422">
		<ele>286</ele>
		<time>2011-09-11T07:55:12.833Z</time>
		<geoidheight>240</geoidheight>
	</trkpt>
	<trkpt lat="50.711349" lon="6.127441">
		<ele>286</ele>
		<time>2011-09-11T07:55:13.839Z</time>
		<geoidheight>240</geoidheight>
	</trkpt>
	<trkpt lat="50.711351" lon="6.127462">
		<ele>286</ele>
		<time>2011-09-11T07:55:14.838Z</time>
		<geoidheight>240</geoidheight>
	</trkpt>
	<trkpt lat="50.711352" lon="6.127484">
		<ele>286</ele>
		<time>2011-09-11T07:55:15.835Z</time>
		<geoidheight>240</geoidheight>
	</trkpt>
	<trkpt lat="50.711353" lon="6.127506">
		<ele>286</ele>
		<time>2011-09-11T07:55:16.837Z</time>
		<geoidheight>240</geoidheight>
	</trkpt>
	<trkpt lat="50.711355" lon="6.127528">
		<ele>286</ele>
		<time>2011-09-11T07:55:17.835Z</time>
		<geoidheight>240</geoidheight>
	</trkpt>
	<trkpt lat="50.711354" lon="6.127549">
		<ele>286</ele>
		<time>2011-09-11T07:55:18.835Z</time>
		<geoidheight>240</geoidheight>
	</trkpt>
	<trkpt lat="50.711354" lon="6.127571">
		<ele>286</ele>
		<time>2011-09-11T07:55:19.839Z</time>
		<geoidheight>240</geoidheight>
	</trkpt>
	<trkpt lat="50.711355" lon="6.127591">
		<ele>286</ele>
		<time>2011-09-11T07:55:20.840Z</time>
		<geoidheight>240</geoidheight>
	</trkpt>
	<trkpt lat="50.711356" lon="6.127610">
		<ele>286</ele>
		<time>2011-09-11T07:55:21.855Z</time>
		<geoidheight>240</geoidheight>
	</trkpt>
	<trkpt lat="50.711358" lon="6.127628">
		<ele>286</ele>
		<time>2011-09-11T07:55:22.852Z</time>
		<geoidheight>240</geoidheight>
	</trkpt>
	<trkpt lat="50.711358" lon="6.127648">
		<ele>286</ele>
		<time>2011-09-11T07:55:23.846Z</time>
		<geoidheight>240</geoidheight>
	</trkpt>
	<trkpt lat="50.711360" lon="6.127668">
		<ele>286</ele>
		<time>2011-09-11T07:55:24.844Z</time>
		<geoidheight>240</geoidheight>
	</trkpt>
	<trkpt lat="50.711364" lon="6.127688">
		<ele>286</ele>
		<time>2011-09-11T07:55:25.861Z</time>
		<geoidheight>240</geoidheight>
	</trkpt>
	<trkpt lat="50.711367" lon="6.127708">
		<ele>286</ele>
		<time>2011-09-11T07:55:26.855Z</time>
		<geoidheight>240</geoidheight>
	</trkpt>
	<trkpt lat="50.711371" lon="6.127727">
		<ele>286</ele>
		<time>2011-09-11T07:55:27.837Z</time>
		<geoidheight>240</geoidheight>
	</trkpt>
	<trkpt lat="50.711372" lon="6.127746">
		<ele>286</ele>
		<time>2011-09-11T07:55:28.835Z</time>
		<geoidheight>240</geoidheight>
	</trkpt>
	<trkpt lat="50.711372" lon="6.127764">
		<ele>286</ele>
		<time>2011-09-11T07:55:29.838Z</time>
		<geoidheight>240</geoidheight>
	</trkpt>
	<trkpt lat="50.711373" lon="6.127783">
		<ele>286</ele>
		<time>2011-09-11T07:55:30.840Z</time>
		<geoidheight>240</geoidheight>
	</trkpt>
	<trkpt lat="50.711374" lon="6.127800">
		<ele>286</ele>
		<time>2011-09-11T07:55:31.843Z</time>
		<geoidheight>240</geoidheight>
	</trkpt>
	<trkpt lat="50.711376" lon="6.127819">
		<ele>286</ele>
		<time>2011-09-11T07:55:32.837Z</time>
		<geoidheight>240</geoidheight>
	</trkpt>
	<trkpt lat="50.711376" lon="6.127838">
		<ele>286</ele>
		<time>2011-09-11T07:55:33.835Z</time>
		<geoidheight>240</geoidheight>
	</trkpt>
	<trkpt lat="50.711376" lon="6.127859">
		<ele>286</ele>
		<time>2011-09-11T07:55:34.835Z</time>
		<geoidheight>240</geoidheight>
	</trkpt>
	<trkpt lat="50.711376" lon="6.127880">
		<ele>286</ele>
		<time>2011-09-11T07:55:35.836Z</time>
		<geoidheight>240</geoidheight>
	</trkpt>
	<trkpt lat="50.711378" lon="6.127902">
		<ele>286</ele>
		<time>2011-09-11T07:55:36.834Z</time>
		<geoidheight>240</geoidheight>
	</trkpt>
	<trkpt lat="50.711378" lon="6.127925">
		<ele>286</ele>
		<time>2011-09-11T07:55:37.837Z</time>
		<geoidheight>240</geoidheight>
	</trkpt>
	<trkpt lat="50.711378" lon="6.127948">
		<ele>286</ele>
		<time>2011-09-11T07:55:38.838Z</time>
		<geoidheight>240</geoidheight>
	</trkpt>
	<trkpt lat="50.711377" lon="6.127971">
		<ele>287</ele>
		<time>2011-09-11T07:55:39.834Z</time>
		<geoidheight>241</geoidheight>
	</trkpt>
	<trkpt lat="50.711375" lon="6.127993">
		<ele>287</ele>
		<time>2011-09-11T07:55:40.835Z</time>
		<geoidheight>241</geoidheight>
	</trkpt>
	<trkpt lat="50.711373" lon="6.128015">
		<ele>287</ele>
		<time>2011-09-11T07:55:41.834Z</time>
		<geoidheight>241</geoidheight>
	</trkpt>
	<trkpt lat="50.711373" lon="6.128036">
		<ele>287</ele>
		<time>2011-09-11T07:55:42.837Z</time>
		<geoidheight>241</geoidheight>
	</trkpt>
	<trkpt lat="50.711373" lon="6.128056">
		<ele>287</ele>
		<time>2011-09-11T07:55:43.839Z</time>
		<geoidheight>241</geoidheight>
	</trkpt>
	<trkpt lat="50.711370" lon="6.128076">
		<ele>287</ele>
		<time>2011-09-11T07:55:44.835Z</time>
		<geoidheight>241</geoidheight>
	</trkpt>
	<trkpt lat="50.711367" lon="6.128096">
		<ele>287</ele>
		<time>2011-09-11T07:55:45.835Z</time>
		<geoidheight>241</geoidheight>
	</trkpt>
	<trkpt lat="50.711366" lon="6.128117">
		<ele>287</ele>
		<time>2011-09-11T07:55:46.835Z</time>
		<geoidheight>241</geoidheight>
	</trkpt>
	<trkpt lat="50.711366" lon="6.128139">
		<ele>287</ele>
		<time>2011-09-11T07:55:47.836Z</time>
		<geoidheight>241</geoidheight>
	</trkpt>
	<trkpt lat="50.711364" lon="6.128162">
		<ele>287</ele>
		<time>2011-09-11T07:55:48.838Z</time>
		<geoidheight>241</geoidheight>
	</trkpt>
	<trkpt lat="50.711362" lon="6.128185">
		<ele>287</ele>
		<time>2011-09-11T07:55:49.836Z</time>
		<geoidheight>241</geoidheight>
	</trkpt>
	<trkpt lat="50.711359" lon="6.128210">
		<ele>287</ele>
		<time>2011-09-11T07:55:50.835Z</time>
		<geoidheight>241</geoidheight>
	</trkpt>
	<trkpt lat="50.711356" lon="6.128235">
		<ele>287</ele>
		<time>2011-09-11T07:55:51.837Z</time>
		<geoidheight>241</geoidheight>
	</trkpt>
	<trkpt lat="50.711354" lon="6.128260">
		<ele>287</ele>
		<time>2011-09-11T07:55:52.837Z</time>
		<geoidheight>241</geoidheight>
	</trkpt>
	<trkpt lat="50.711352" lon="6.128284">
		<ele>287</ele>
		<time>2011-09-11T07:55:53.837Z</time>
		<geoidheight>241</geoidheight>
	</trkpt>
	<trkpt lat="50.711349" lon="6.128307">
		<ele>288</ele>
		<time>2011-09-11T07:55:54.837Z</time>
		<geoidheight>242</geoidheight>
	</trkpt>
	<trkpt lat="50.711347" lon="6.128330">
		<ele>288</ele>
		<time>2011-09-11T07:55:55.835Z</time>
		<geoidheight>242</geoidheight>
	</trkpt>
	<trkpt lat="50.711346" lon="6.128353">
		<ele>288</ele>
		<time>2011-09-11T07:55:56.835Z</time>
		<geoidheight>242</geoidheight>
	</trkpt>
	<trkpt lat="50.711344" lon="6.128374">
		<ele>288</ele>
		<time>2011-09-11T07:55:57.837Z</time>
		<geoidheight>242</geoidheight>
	</trkpt>
	<trkpt lat="50.711343" lon="6.128395">
		<ele>288</ele>
		<time>2011-09-11T07:55:58.838Z</time>
		<geoidheight>242</geoidheight>
	</trkpt>
	<trkpt lat="50.711342" lon="6.128416">
		<ele>288</ele>
		<time>2011-09-11T07:55:59.836Z</time>
		<geoidheight>242</geoidheight>
	</trkpt>
	<trkpt lat="50.711340" lon="6.128436">
		<ele>288</ele>
		<time>2011-09-11T07:56:00.835Z</time>
		<geoidheight>242</geoidheight>
	</trkpt>
	<trkpt lat="50.711337" lon="6.128455">
		<ele>288</ele>
		<time>2011-09-11T07:56:01.838Z</time>
		<geoidheight>242</geoidheight>
	</trkpt>
	<trkpt lat="50.711332" lon="6.128475">
		<ele>288</ele>
		<time>2011-09-11T07:56:02.835Z</time>
		<geoidheight>242</geoidheight>
	</trkpt>
	<trkpt lat="50.711330" lon="6.128494">
		<ele>288</ele>
		<time>2011-09-11T07:56:03.835Z</time>
		<geoidheight>242</geoidheight>
	</trkpt>
	<trkpt lat="50.711329" lon="6.128514">
		<ele>288</ele>
		<time>2011-09-11T07:56:04.837Z</time>
		<geoidheight>242</geoidheight>
	</trkpt>
	<trkpt lat="50.711329" lon="6.128534">
		<ele>288</ele>
		<time>2011-09-11T07:56:05.835Z</time>
		<geoidheight>242</geoidheight>
	</trkpt>
	<trkpt lat="50.711330" lon="6.128554">
		<ele>288</ele>
		<time>2011-09-11T07:56:06.833Z</time>
		<geoidheight>242</geoidheight>
	</trkpt>
	<trkpt lat="50.711330" lon="6.128574">
		<ele>288</ele>
		<time>2011-09-11T07:56:07.838Z</time>
		<geoidheight>242</geoidheight>
	</trkpt>
	<trkpt lat="50.711332" lon="6.128594">
		<ele>288</ele>
		<time>2011-09-11T07:56:08.835Z</time>
		<geoidheight>242</geoidheight>
	</trkpt>
	<trkpt lat="50.711334" lon="6.128614">
		<ele>288</ele>
		<time>2011-09-11T07:56:09.835Z</time>
		<geoidheight>242</geoidheight>
	</trkpt>
	<trkpt lat="50.711336" lon="6.128634">
		<ele>288</ele>
		<time>2011-09-11T07:56:10.839Z</time>
		<geoidheight>242</geoidheight>
	</trkpt>
	<trkpt lat="50.711339" lon="6.128655">
		<ele>288</ele>
		<time>2011-09-11T07:56:11.836Z</time>
		<geoidheight>242</geoidheight>
	</trkpt>
	<trkpt lat="50.711343" lon="6.128675">
		<ele>288</ele>
		<time>2011-09-11T07:56:12.838Z</time>
		<geoidheight>242</geoidheight>
	</trkpt>
	<trkpt lat="50.711349" lon="6.128694">
		<ele>288</ele>
		<time>2011-09-11T07:56:13.839Z</time>
		<geoidheight>242</geoidheight>
	</trkpt>
	<trkpt lat="50.711358" lon="6.128710">
		<ele>289</ele>
		<time>2011-09-11T07:56:14.840Z</time>
		<geoidheight>243</geoidheight>
	</trkpt>
	<trkpt lat="50.711368" lon="6.128724">
		<ele>289</ele>
		<time>2011-09-11T07:56:15.836Z</time>
		<geoidheight>243</geoidheight>
	</trkpt>
	<trkpt lat="50.711379" lon="6.128739">
		<ele>289</ele>
		<time>2011-09-11T07:56:16.835Z</time>
		<geoidheight>243</geoidheight>
	</trkpt>
	<trkpt lat="50.711389" lon="6.128754">
		<ele>289</ele>
		<time>2011-09-11T07:56:17.837Z</time>
		<geoidheight>243</geoidheight>
	</trkpt>
	<trkpt lat="50.711400" lon="6.128770">
		<ele>289</ele>
		<time>2011-09-11T07:56:18.835Z</time>
		<geoidheight>243</geoidheight>
	</trkpt>
	<trkpt lat="50.711408" lon="6.128791">
		<ele>289</ele>
		<time>2011-09-11T07:56:19.835Z</time>
		<geoidheight>243</geoidheight>
	</trkpt>
	<trkpt lat="50.711413" lon="6.128812">
		<ele>289</ele>
		<time>2011-09-11T07:56:20.838Z</time>
		<geoidheight>243</geoidheight>
	</trkpt>
	<trkpt lat="50.711417" lon="6.128834">
		<ele>289</ele>
		<time>2011-09-11T07:56:21.835Z</time>
		<geoidheight>243</geoidheight>
	</trkpt>
	<trkpt lat="50.711419" lon="6.128855">
		<ele>289</ele>
		<time>2011-09-11T07:56:22.837Z</time>
		<geoidheight>243</geoidheight>
	</trkpt>
	<trkpt lat="50.711422" lon="6.128875">
		<ele>289</ele>
		<time>2011-09-11T07:56:23.837Z</time>
		<geoidheight>243</geoidheight>
	</trkpt>
	<trkpt lat="50.711424" lon="6.128895">
		<ele>289</ele>
		<time>2011-09-11T07:56:24.837Z</time>
		<geoidheight>243</geoidheight>
	</trkpt>
	<trkpt lat="50.711425" lon="6.128918">
		<ele>289</ele>
		<time>2011-09-11T07:56:25.835Z</time>
		<geoidheight>243</geoidheight>
	</trkpt>
	<trkpt lat="50.711426" lon="6.128941">
		<ele>289</ele>
		<time>2011-09-11T07:56:26.838Z</time>
		<geoidheight>243</geoidheight>
	</trkpt>
	<trkpt lat="50.711429" lon="6.128965">
		<ele>289</ele>
		<time>2011-09-11T07:56:27.836Z</time>
		<geoidheight>243</geoidheight>
	</trkpt>
	<trkpt lat="50.711431" lon="6.128988">
		<ele>289</ele>
		<time>2011-09-11T07:56:28.836Z</time>
		<geoidheight>243</geoidheight>
	</trkpt>
	<trkpt lat="50.711432" lon="6.129012">
		<ele>289</ele>
		<time>2011-09-11T07:56:29.836Z</time>
		<geoidheight>243</geoidheight>
	</trkpt>
	<trkpt lat="50.711433" lon="6.129036">
		<ele>289</ele>
		<time>2011-09-11T07:56:30.837Z</time>
		<geoidheight>243</geoidheight>
	</trkpt>
	<trkpt lat="50.711437" lon="6.129058">
		<ele>289</ele>
		<time>2011-09-11T07:56:31.835Z</time>
		<geoidheight>243</geoidheight>
	</trkpt>
	<trkpt lat="50.711439" lon="6.129080">
		<ele>289</ele>
		<time>2011-09-11T07:56:32.836Z</time>
		<geoidheight>243</geoidheight>
	</trkpt>
	<trkpt lat="50.711441" lon="6.129101">
		<ele>289</ele>
		<time>2011-09-11T07:56:33.837Z</time>
		<geoidheight>243</geoidheight>
	</trkpt>
	<trkpt lat="50.711443" lon="6.129121">
		<ele>289</ele>
		<time>2011-09-11T07:56:34.836Z</time>
		<geoidheight>243</geoidheight>
	</trkpt>
	<trkpt lat="50.711446" lon="6.129141">
		<ele>289</ele>
		<time>2011-09-11T07:56:35.837Z</time>
		<geoidheight>243</geoidheight>
	</trkpt>
	<trkpt lat="50.711448" lon="6.129161">
		<ele>289</ele>
		<time>2011-09-11T07:56:36.834Z</time>
		<geoidheight>243</geoidheight>
	</trkpt>
	<trkpt lat="50.711451" lon="6.129180">
		<ele>289</ele>
		<time>2011-09-11T07:56:37.836Z</time>
		<geoidheight>243</geoidheight>
	</trkpt>
	<trkpt lat="50.711455" lon="6.129199">
		<ele>289</ele>
		<time>2011-09-11T07:56:38.836Z</time>
		<geoidheight>243</geoidheight>
	</trkpt>
	<trkpt lat="50.711460" lon="6.129215">
		<ele>289</ele>
		<time>2011-09-11T07:56:39.837Z</time>
		<geoidheight>243</geoidheight>
	</trkpt>
	<trkpt lat="50.711464" lon="6.129232">
		<ele>289</ele>
		<time>2011-09-11T07:56:40.840Z</time>
		<geoidheight>243</geoidheight>
	</trkpt>
	<trkpt lat="50.711467" lon="6.129251">
		<ele>289</ele>
		<time>2011-09-11T07:56:41.836Z</time>
		<geoidheight>243</geoidheight>
	</trkpt>
	<trkpt lat="50.711470" lon="6.129270">
		<ele>289</ele>
		<time>2011-09-11T07:56:42.835Z</time>
		<geoidheight>243</geoidheight>
	</trkpt>
	<trkpt lat="50.711472" lon="6.129290">
		<ele>289</ele>
		<time>2011-09-11T07:56:43.840Z</time>
		<geoidheight>243</geoidheight>
	</trkpt>
	<trkpt lat="50.711474" lon="6.129311">
		<ele>289</ele>
		<time>2011-09-11T07:56:44.836Z</time>
		<geoidheight>243</geoidheight>
	</trkpt>
	<trkpt lat="50.711475" lon="6.129330">
		<ele>289</ele>
		<time>2011-09-11T07:56:45.836Z</time>
		<geoidheight>243</geoidheight>
	</trkpt>
	<trkpt lat="50.711475" lon="6.129350">
		<ele>289</ele>
		<time>2011-09-11T07:56:46.838Z</time>
		<geoidheight>243</geoidheight>
	</trkpt>
	<trkpt lat="50.711472" lon="6.129371">
		<ele>289</ele>
		<time>2011-09-11T07:56:47.836Z</time>
		<geoidheight>243</geoidheight>
	</trkpt>
	<trkpt lat="50.711469" lon="6.129393">
		<ele>289</ele>
		<time>2011-09-11T07:56:48.837Z</time>
		<geoidheight>243</geoidheight>
	</trkpt>
	<trkpt lat="50.711468" lon="6.129417">
		<ele>289</ele>
		<time>2011-09-11T07:56:49.837Z</time>
		<geoidheight>243</geoidheight>
	</trkpt>
	<trkpt lat="50.711468" lon="6.129440">
		<ele>289</ele>
		<time>2011-09-11T07:56:50.835Z</time>
		<geoidheight>243</geoidheight>
	</trkpt>
	<trkpt lat="50.711470" lon="6.129461">
		<ele>289</ele>
		<time>2011-09-11T07:56:51.836Z</time>
		<geoidheight>243</geoidheight>
	</trkpt>
	<trkpt lat="50.711474" lon="6.129478">
		<ele>290</ele>
		<time>2011-09-11T07:56:52.837Z</time>
		<geoidheight>244</geoidheight>
	</trkpt>
	<trkpt lat="50.711478" lon="6.129494">
		<ele>290</ele>
		<time>2011-09-11T07:56:53.838Z</time>
		<geoidheight>244</geoidheight>
	</trkpt>
	<trkpt lat="50.711484" lon="6.129509">
		<ele>290</ele>
		<time>2011-09-11T07:56:54.846Z</time>
		<geoidheight>244</geoidheight>
	</trkpt>
	<trkpt lat="50.711488" lon="6.129526">
		<ele>290</ele>
		<time>2011-09-11T07:56:55.838Z</time>
		<geoidheight>244</geoidheight>
	</trkpt>
	<trkpt lat="50.711492" lon="6.129544">
		<ele>290</ele>
		<time>2011-09-11T07:56:56.836Z</time>
		<geoidheight>244</geoidheight>
	</trkpt>
	<trkpt lat="50.711497" lon="6.129564">
		<ele>290</ele>
		<time>2011-09-11T07:56:57.834Z</time>
		<geoidheight>244</geoidheight>
	</trkpt>
	<trkpt lat="50.711503" lon="6.129585">
		<ele>290</ele>
		<time>2011-09-11T07:56:58.836Z</time>
		<geoidheight>244</geoidheight>
	</trkpt>
	<trkpt lat="50.711509" lon="6.129605">
		<ele>290</ele>
		<time>2011-09-11T07:56:59.836Z</time>
		<geoidheight>244</geoidheight>
	</trkpt>
	<trkpt lat="50.711514" lon="6.129625">
		<ele>290</ele>
		<time>2011-09-11T07:57:00.835Z</time>
		<geoidheight>244</geoidheight>
	</trkpt>
	<trkpt lat="50.711518" lon="6.129644">
		<ele>290</ele>
		<time>2011-09-11T07:57:01.836Z</time>
		<geoidheight>244</geoidheight>
	</trkpt>
	<trkpt lat="50.711522" lon="6.129662">
		<ele>290</ele>
		<time>2011-09-11T07:57:02.838Z</time>
		<geoidheight>244</geoidheight>
	</trkpt>
	<trkpt lat="50.711526" lon="6.129680">
		<ele>290</ele>
		<time>2011-09-11T07:57:03.836Z</time>
		<geoidheight>244</geoidheight>
	</trkpt>
	<trkpt lat="50.711531" lon="6.129696">
		<ele>290</ele>
		<time>2011-09-11T07:57:04.836Z</time>
		<geoidheight>244</geoidheight>
	</trkpt>
	<trkpt lat="50.711537" lon="6.129712">
		<ele>290</ele>
		<time>2011-09-11T07:57:05.838Z</time>
		<geoidheight>244</geoidheight>
	</trkpt>
	<trkpt lat="50.711544" lon="6.129727">
		<ele>290</ele>
		<time>2011-09-11T07:57:06.834Z</time>
		<geoidheight>244</geoidheight>
	</trkpt>
	<trkpt lat="50.711551" lon="6.129745">
		<ele>290</ele>
		<time>2011-09-11T07:57:07.836Z</time>
		<geoidheight>244</geoidheight>
	</trkpt>
	<trkpt lat="50.711558" lon="6.129763">
		<ele>290</ele>
		<time>2011-09-11T07:57:08.840Z</time>
		<geoidheight>244</geoidheight>
	</trkpt>
	<trkpt lat="50.711563" lon="6.129784">
		<ele>290</ele>
		<time>2011-09-11T07:57:09.837Z</time>
		<geoidheight>244</geoidheight>
	</trkpt>
	<trkpt lat="50.711567" lon="6.129804">
		<ele>290</ele>
		<time>2011-09-11T07:57:10.835Z</time>
		<geoidheight>244</geoidheight>
	</trkpt>
	<trkpt lat="50.711573" lon="6.129823">
		<ele>290</ele>
		<time>2011-09-11T07:57:11.840Z</time>
		<geoidheight>244</geoidheight>
	</trkpt>
	<trkpt lat="50.711579" lon="6.129842">
		<ele>290</ele>
		<time>2011-09-11T07:57:12.836Z</time>
		<geoidheight>244</geoidheight>
	</trkpt>
	<trkpt lat="50.711584" lon="6.129861">
		<ele>290</ele>
		<time>2011-09-11T07:57:13.837Z</time>
		<geoidheight>244</geoidheight>
	</trkpt>
	<trkpt lat="50.711589" lon="6.129880">
		<ele>290</ele>
		<time>2011-09-11T07:57:14.835Z</time>
		<geoidheight>244</geoidheight>
	</trkpt>
	<trkpt lat="50.711593" lon="6.129899">
		<ele>290</ele>
		<time>2011-09-11T07:57:15.838Z</time>
		<geoidheight>244</geoidheight>
	</trkpt>
	<trkpt lat="50.711597" lon="6.129919">
		<ele>290</ele>
		<time>2011-09-11T07:57:16.836Z</time>
		<geoidheight>244</geoidheight>
	</trkpt>
	<trkpt lat="50.711601" lon="6.129939">
		<ele>290</ele>
		<time>2011-09-11T07:57:17.835Z</time>
		<geoidheight>244</geoidheight>
	</trkpt>
	<trkpt lat="50.711606" lon="6.129958">
		<ele>290</ele>
		<time>2011-09-11T07:57:18.842Z</time>
		<geoidheight>244</geoidheight>
	</trkpt>
	<trkpt lat="50.711610" lon="6.129979">
		<ele>290</ele>
		<time>2011-09-11T07:57:19.850Z</time>
		<geoidheight>244</geoidheight>
	</trkpt>
	<trkpt lat="50.711617" lon="6.129997">
		<ele>290</ele>
		<time>2011-09-11T07:57:20.845Z</time>
		<geoidheight>244</geoidheight>
	</trkpt>
	<trkpt lat="50.711625" lon="6.130016">
		<ele>290</ele>
		<time>2011-09-11T07:57:21.837Z</time>
		<geoidheight>244</geoidheight>
	</trkpt>
	<trkpt lat="50.711633" lon="6.130035">
		<ele>290</ele>
		<time>2011-09-11T07:57:22.838Z</time>
		<geoidheight>244</geoidheight>
	</trkpt>
	<trkpt lat="50.711639" lon="6.130053">
		<ele>290</ele>
		<time>2011-09-11T07:57:23.835Z</time>
		<geoidheight>244</geoidheight>
	</trkpt>
	<trkpt lat="50.711644" lon="6.130072">
		<ele>290</ele>
		<time>2011-09-11T07:57:24.842Z</time>
		<geoidheight>244</geoidheight>
	</trkpt>
	<trkpt lat="50.711648" lon="6.130091">
		<ele>290</ele>
		<time>2011-09-11T07:57:25.841Z</time>
		<geoidheight>244</geoidheight>
	</trkpt>
	<trkpt lat="50.711651" lon="6.130110">
		<ele>290</ele>
		<time>2011-09-11T07:57:26.837Z</time>
		<geoidheight>244</geoidheight>
	</trkpt>
	<trkpt lat="50.711654" lon="6.130129">
		<ele>290</ele>
		<time>2011-09-11T07:57:27.838Z</time>
		<geoidheight>244</geoidheight>
	</trkpt>
	<trkpt lat="50.711657" lon="6.130148">
		<ele>290</ele>
		<time>2011-09-11T07:57:28.839Z</time>
		<geoidheight>244</geoidheight>
	</trkpt>
	<trkpt lat="50.711661" lon="6.130167">
		<ele>290</ele>
		<time>2011-09-11T07:57:29.837Z</time>
		<geoidheight>244</geoidheight>
	</trkpt>
	<trkpt lat="50.711665" lon="6.130185">
		<ele>290</ele>
		<time>2011-09-11T07:57:30.837Z</time>
		<geoidheight>244</geoidheight>
	</trkpt>
	<trkpt lat="50.711671" lon="6.130200">
		<ele>291</ele>
		<time>2011-09-11T07:57:31.837Z</time>
		<geoidheight>245</geoidheight>
	</trkpt>
	<trkpt lat="50.711677" lon="6.130214">
		<ele>291</ele>
		<time>2011-09-11T07:57:32.837Z</time>
		<geoidheight>245</geoidheight>
	</trkpt>
	<trkpt lat="50.711682" lon="6.130228">
		<ele>291</ele>
		<time>2011-09-11T07:57:33.837Z</time>
		<geoidheight>245</geoidheight>
	</trkpt>
	<trkpt lat="50.711685" lon="6.130242">
		<ele>291</ele>
		<time>2011-09-11T07:57:34.839Z</time>
		<geoidheight>245</geoidheight>
	</trkpt>
	<trkpt lat="50.711689" lon="6.130258">
		<ele>291</ele>
		<time>2011-09-11T07:57:35.836Z</time>
		<geoidheight>245</geoidheight>
	</trkpt>
	<trkpt lat="50.711693" lon="6.130276">
		<ele>291</ele>
		<time>2011-09-11T07:57:36.836Z</time>
		<geoidheight>245</geoidheight>
	</trkpt>
	<trkpt lat="50.711697" lon="6.130297">
		<ele>291</ele>
		<time>2011-09-11T07:57:37.838Z</time>
		<geoidheight>245</geoidheight>
	</trkpt>
	<trkpt lat="50.711701" lon="6.130318">
		<ele>291</ele>
		<time>2011-09-11T07:57:38.839Z</time>
		<geoidheight>245</geoidheight>
	</trkpt>
	<trkpt lat="50.711705" lon="6.130339">
		<ele>291</ele>
		<time>2011-09-11T07:57:39.837Z</time>
		<geoidheight>245</geoidheight>
	</trkpt>
	<trkpt lat="50.711709" lon="6.130360">
		<ele>291</ele>
		<time>2011-09-11T07:57:40.839Z</time>
		<geoidheight>245</geoidheight>
	</trkpt>
	<trkpt lat="50.711712" lon="6.130382">
		<ele>291</ele>
		<time>2011-09-11T07:57:41.836Z</time>
		<geoidheight>245</geoidheight>
	</trkpt>
	<trkpt lat="50.711712" lon="6.130405">
		<ele>291</ele>
		<time>2011-09-11T07:57:42.837Z</time>
		<geoidheight>245</geoidheight>
	</trkpt>
	<trkpt lat="50.711713" lon="6.130428">
		<ele>291</ele>
		<time>2011-09-11T07:57:43.837Z</time>
		<geoidheight>245</geoidheight>
	</trkpt>
	<trkpt lat="50.711716" lon="6.130451">
		<ele>291</ele>
		<time>2011-09-11T07:57:44.839Z</time>
		<geoidheight>245</geoidheight>
	</trkpt>
	<trkpt lat="50.711718" lon="6.130473">
		<ele>291</ele>
		<time>2011-09-11T07:57:45.836Z</time>
		<geoidheight>245</geoidheight>
	</trkpt>
	<trkpt lat="50.711720" lon="6.130494">
		<ele>291</ele>
		<time>2011-09-11T07:57:46.836Z</time>
		<geoidheight>245</geoidheight>
	</trkpt>
	<trkpt lat="50.711723" lon="6.130516">
		<ele>291</ele>
		<time>2011-09-11T07:57:47.837Z</time>
		<geoidheight>245</geoidheight>
	</trkpt>
	<trkpt lat="50.711726" lon="6.130537">
		<ele>291</ele>
		<time>2011-09-11T07:57:48.834Z</time>
		<geoidheight>245</geoidheight>
	</trkpt>
	<trkpt lat="50.711732" lon="6.130556">
		<ele>291</ele>
		<time>2011-09-11T07:57:49.839Z</time>
		<geoidheight>245</geoidheight>
	</trkpt>
	<trkpt lat="50.711739" lon="6.130575">
		<ele>291</ele>
		<time>2011-09-11T07:57:50.839Z</time>
		<geoidheight>245</geoidheight>
	</trkpt>
	<trkpt lat="50.711746" lon="6.130595">
		<ele>291</ele>
		<time>2011-09-11T07:57:51.841Z</time>
		<geoidheight>245</geoidheight>
	</trkpt>
	<trkpt lat="50.711753" lon="6.130618">
		<ele>291</ele>
		<time>2011-09-11T07:57:52.843Z</time>
		<geoidheight>245</geoidheight>
	</trkpt>
	<trkpt lat="50.711759" lon="6.130643">
		<ele>291</ele>
		<time>2011-09-11T07:57:53.841Z</time>
		<geoidheight>245</geoidheight>
	</trkpt>
	<trkpt lat="50.711765" lon="6.130669">
		<ele>292</ele>
		<time>2011-09-11T07:57:54.843Z</time>
		<geoidheight>246</geoidheight>
	</trkpt>
	<trkpt lat="50.711773" lon="6.130693">
		<ele>292</ele>
		<time>2011-09-11T07:57:55.838Z</time>
		<geoidheight>246</geoidheight>
	</trkpt>
	<trkpt lat="50.711780" lon="6.130718">
		<ele>292</ele>
		<time>2011-09-11T07:57:56.838Z</time>
		<geoidheight>246</geoidheight>
	</trkpt>
	<trkpt lat="50.711786" lon="6.130742">
		<ele>292</ele>
		<time>2011-09-11T07:57:57.838Z</time>
		<geoidheight>246</geoidheight>
	</trkpt>
	<trkpt lat="50.711793" lon="6.130765">
		<ele>292</ele>
		<time>2011-09-11T07:57:58.836Z</time>
		<geoidheight>246</geoidheight>
	</trkpt>
	<trkpt lat="50.711800" lon="6.130787">
		<ele>292</ele>
		<time>2011-09-11T07:57:59.837Z</time>
		<geoidheight>246</geoidheight>
	</trkpt>
	<trkpt lat="50.711807" lon="6.130810">
		<ele>292</ele>
		<time>2011-09-11T07:58:00.838Z</time>
		<geoidheight>246</geoidheight>
	</trkpt>
	<trkpt lat="50.711812" lon="6.130832">
		<ele>292</ele>
		<time>2011-09-11T07:58:01.837Z</time>
		<geoidheight>246</geoidheight>
	</trkpt>
	<trkpt lat="50.711817" lon="6.130854">
		<ele>292</ele>
		<time>2011-09-11T07:58:02.837Z</time>
		<geoidheight>246</geoidheight>
	</trkpt>
	<trkpt lat="50.711824" lon="6.130875">
		<ele>292</ele>
		<time>2011-09-11T07:58:03.838Z</time>
		<geoidheight>246</geoidheight>
	</trkpt>
	<trkpt lat="50.711830" lon="6.130895">
		<ele>292</ele>
		<time>2011-09-11T07:58:04.838Z</time>
		<geoidheight>246</geoidheight>
	</trkpt>
	<trkpt lat="50.711837" lon="6.130915">
		<ele>292</ele>
		<time>2011-09-11T07:58:05.838Z</time>
		<geoidheight>246</geoidheight>
	</trkpt>
	<trkpt lat="50.711843" lon="6.130934">
		<ele>292</ele>
		<time>2011-09-11T07:58:06.839Z</time>
		<geoidheight>246</geoidheight>
	</trkpt>
	<trkpt lat="50.711849" lon="6.130952">
		<ele>292</ele>
		<time>2011-09-11T07:58:07.836Z</time>
		<geoidheight>246</geoidheight>
	</trkpt>
	<trkpt lat="50.711855" lon="6.130970">
		<ele>292</ele>
		<time>2011-09-11T07:58:08.837Z</time>
		<geoidheight>246</geoidheight>
	</trkpt>
	<trkpt lat="50.711861" lon="6.130987">
		<ele>292</ele>
		<time>2011-09-11T07:58:09.838Z</time>
		<geoidheight>246</geoidheight>
	</trkpt>
	<trkpt lat="50.711865" lon="6.131004">
		<ele>292</ele>
		<time>2011-09-11T07:58:10.837Z</time>
		<geoidheight>246</geoidheight>
	</trkpt>
	<trkpt lat="50.711871" lon="6.131021">
		<ele>292</ele>
		<time>2011-09-11T07:58:11.837Z</time>
		<geoidheight>246</geoidheight>
	</trkpt>
	<trkpt lat="50.711875" lon="6.131039">
		<ele>292</ele>
		<time>2011-09-11T07:58:12.839Z</time>
		<geoidheight>246</geoidheight>
	</trkpt>
	<trkpt lat="50.711879" lon="6.131057">
		<ele>292</ele>
		<time>2011-09-11T07:58:13.838Z</time>
		<geoidheight>246</geoidheight>
	</trkpt>
	<trkpt lat="50.711884" lon="6.131077">
		<ele>292</ele>
		<time>2011-09-11T07:58:14.836Z</time>
		<geoidheight>246</geoidheight>
	</trkpt>
	<trkpt lat="50.711888" lon="6.131097">
		<ele>292</ele>
		<time>2011-09-11T07:58:15.836Z</time>
		<geoidheight>246</geoidheight>
	</trkpt>
	<trkpt lat="50.711892" lon="6.131117">
		<ele>292</ele>
		<time>2011-09-11T07:58:16.839Z</time>
		<geoidheight>246</geoidheight>
	</trkpt>
	<trkpt lat="50.711898" lon="6.131134">
		<ele>293</ele>
		<time>2011-09-11T07:58:17.842Z</time>
		<geoidheight>247</geoidheight>
	</trkpt>
	<trkpt lat="50.711902" lon="6.131152">
		<ele>293</ele>
		<time>2011-09-11T07:58:18.843Z</time>
		<geoidheight>247</geoidheight>
	</trkpt>
	<trkpt lat="50.711906" lon="6.131169">
		<ele>293</ele>
		<time>2011-09-11T07:58:19.838Z</time>
		<geoidheight>247</geoidheight>
	</trkpt>
	<trkpt lat="50.711913" lon="6.131184">
		<ele>293</ele>
		<time>2011-09-11T07:58:20.840Z</time>
		<geoidheight>247</geoidheight>
	</trkpt>
	<trkpt lat="50.711922" lon="6.131199">
		<ele>293</ele>
		<time>2011-09-11T07:58:21.838Z</time>
		<geoidheight>247</geoidheight>
	</trkpt>
	<trkpt lat="50.711929" lon="6.131216">
		<ele>293</ele>
		<time>2011-09-11T07:58:22.839Z</time>
		<geoidheight>247</geoidheight>
	</trkpt>
	<trkpt lat="50.711937" lon="6.131232">
		<ele>293</ele>
		<time>2011-09-11T07:58:23.836Z</time>
		<geoidheight>247</geoidheight>
	</trkpt>
	<trkpt lat="50.711945" lon="6.131249">
		<ele>293</ele>
		<time>2011-09-11T07:58:24.837Z</time>
		<geoidheight>247</geoidheight>
	</trkpt>
	<trkpt lat="50.711954" lon="6.131264">
		<ele>293</ele>
		<time>2011-09-11T07:58:25.839Z</time>
		<geoidheight>247</geoidheight>
	</trkpt>
	<trkpt lat="50.711966" lon="6.131276">
		<ele>293</ele>
		<time>2011-09-11T07:58:26.839Z</time>
		<geoidheight>247</geoidheight>
	</trkpt>
	<trkpt lat="50.711979" lon="6.131288">
		<ele>293</ele>
		<time>2011-09-11T07:58:27.843Z</time>
		<geoidheight>247</geoidheight>
	</trkpt>
	<trkpt lat="50.711992" lon="6.131300">
		<ele>293</ele>
		<time>2011-09-11T07:58:28.839Z</time>
		<geoidheight>247</geoidheight>
	</trkpt>
	<trkpt lat="50.712005" lon="6.131313">
		<ele>293</ele>
		<time>2011-09-11T07:58:29.845Z</time>
		<geoidheight>247</geoidheight>
	</trkpt>
	<trkpt lat="50.712016" lon="6.131329">
		<ele>293</ele>
		<time>2011-09-11T07:58:30.850Z</time>
		<geoidheight>247</geoidheight>
	</trkpt>
	<trkpt lat="50.712026" lon="6.131344">
		<ele>293</ele>
		<time>2011-09-11T07:58:31.839Z</time>
		<geoidheight>247</geoidheight>
	</trkpt>
	<trkpt lat="50.712038" lon="6.131356">
		<ele>293</ele>
		<time>2011-09-11T07:58:32.839Z</time>
		<geoidheight>247</geoidheight>
	</trkpt>
	<trkpt lat="50.712050" lon="6.131368">
		<ele>293</ele>
		<time>2011-09-11T07:58:33.849Z</time>
		<geoidheight>247</geoidheight>
	</trkpt>
	<trkpt lat="50.712060" lon="6.131382">
		<ele>293</ele>
		<time>2011-09-11T07:58:34.839Z</time>
		<geoidheight>247</geoidheight>
	</trkpt>
	<trkpt lat="50.712069" lon="6.131399">
		<ele>293</ele>
		<time>2011-09-11T07:58:35.838Z</time>
		<geoidheight>247</geoidheight>
	</trkpt>
	<trkpt lat="50.712077" lon="6.131417">
		<ele>294</ele>
		<time>2011-09-11T07:58:36.841Z</time>
		<geoidheight>248</geoidheight>
	</trkpt>
	<trkpt lat="50.712084" lon="6.131437">
		<ele>294</ele>
		<time>2011-09-11T07:58:37.844Z</time>
		<geoidheight>248</geoidheight>
	</trkpt>
	<trkpt lat="50.712090" lon="6.131457">
		<ele>294</ele>
		<time>2011-09-11T07:58:38.845Z</time>
		<geoidheight>248</geoidheight>
	</trkpt>
	<trkpt lat="50.712095" lon="6.131477">
		<ele>294</ele>
		<time>2011-09-11T07:58:39.839Z</time>
		<geoidheight>248</geoidheight>
	</trkpt>
	<trkpt lat="50.712100" lon="6.131497">
		<ele>294</ele>
		<time>2011-09-11T07:58:40.836Z</time>
		<geoidheight>248</geoidheight>
	</trkpt>
	<trkpt lat="50.712104" lon="6.131516">
		<ele>294</ele>
		<time>2011-09-11T07:58:41.837Z</time>
		<geoidheight>248</geoidheight>
	</trkpt>
	<trkpt lat="50.712109" lon="6.131535">
		<ele>294</ele>
		<time>2011-09-11T07:58:42.837Z</time>
		<geoidheight>248</geoidheight>
	</trkpt>
	<trkpt lat="50.712115" lon="6.131551">
		<ele>294</ele>
		<time>2011-09-11T07:58:43.843Z</time>
		<geoidheight>248</geoidheight>
	</trkpt>
	<trkpt lat="50.712123" lon="6.131566">
		<ele>294</ele>
		<time>2011-09-11T07:58:44.836Z</time>
		<geoidheight>248</geoidheight>
	</trkpt>
	<trkpt lat="50.712132" lon="6.131579">
		<ele>294</ele>
		<time>2011-09-11T07:58:45.843Z</time>
		<geoidheight>248</geoidheight>
	</trkpt>
	<trkpt lat="50.712139" lon="6.131596">
		<ele>294</ele>
		<time>2011-09-11T07:58:46.836Z</time>
		<geoidheight>248</geoidheight>
	</trkpt>
	<trkpt lat="50.712145" lon="6.131615">
		<ele>294</ele>
		<time>2011-09-11T07:58:47.838Z</time>
		<geoidheight>248</geoidheight>
	</trkpt>
	<trkpt lat="50.712149" lon="6.131634">
		<ele>294</ele>
		<time>2011-09-11T07:58:48.839Z</time>
		<geoidheight>248</geoidheight>
	</trkpt>
	<trkpt lat="50.712154" lon="6.131653">
		<ele>294</ele>
		<time>2011-09-11T07:58:49.836Z</time>
		<geoidheight>248</geoidheight>
	</trkpt>
	<trkpt lat="50.712160" lon="6.131670">
		<ele>294</ele>
		<time>2011-09-11T07:58:50.836Z</time>
		<geoidheight>248</geoidheight>
	</trkpt>
	<trkpt lat="50.712165" lon="6.131688">
		<ele>294</ele>
		<time>2011-09-11T07:58:51.839Z</time>
		<geoidheight>248</geoidheight>
	</trkpt>
	<trkpt lat="50.712172" lon="6.131703">
		<ele>294</ele>
		<time>2011-09-11T07:58:52.839Z</time>
		<geoidheight>248</geoidheight>
	</trkpt>
	<trkpt lat="50.712179" lon="6.131717">
		<ele>294</ele>
		<time>2011-09-11T07:58:53.837Z</time>
		<geoidheight>248</geoidheight>
	</trkpt>
	<trkpt lat="50.712188" lon="6.131732">
		<ele>294</ele>
		<time>2011-09-11T07:58:54.839Z</time>
		<geoidheight>248</geoidheight>
	</trkpt>
	<trkpt lat="50.712199" lon="6.131750">
		<ele>294</ele>
		<time>2011-09-11T07:58:55.837Z</time>
		<geoidheight>248</geoidheight>
	</trkpt>
	<trkpt lat="50.712210" lon="6.131770">
		<ele>295</ele>
		<time>2011-09-11T07:58:56.836Z</time>
		<geoidheight>249</geoidheight>
	</trkpt>
	<trkpt lat="50.712221" lon="6.131788">
		<ele>295</ele>
		<time>2011-09-11T07:58:57.837Z</time>
		<geoidheight>249</geoidheight>
	</trkpt>
	<trkpt lat="50.712231" lon="6.131808">
		<ele>295</ele>
		<time>2011-09-11T07:58:58.836Z</time>
		<geoidheight>249</geoidheight>
	</trkpt>
	<trkpt lat="50.712244" lon="6.131827">
		<ele>295</ele>
		<time>2011-09-11T07:58:59.838Z</time>
		<geoidheight>249</geoidheight>
	</trkpt>
	<trkpt lat="50.712256" lon="6.131846">
		<ele>295</ele>
		<time>2011-09-11T07:59:00.837Z</time>
		<geoidheight>249</geoidheight>
	</trkpt>
	<trkpt lat="50.712266" lon="6.131865">
		<ele>295</ele>
		<time>2011-09-11T07:59:01.839Z</time>
		<geoidheight>249</geoidheight>
	</trkpt>
	<trkpt lat="50.712276" lon="6.131882">
		<ele>295</ele>
		<time>2011-09-11T07:59:02.839Z</time>
		<geoidheight>249</geoidheight>
	</trkpt>
	<trkpt lat="50.712284" lon="6.131900">
		<ele>295</ele>
		<time>2011-09-11T07:59:03.837Z</time>
		<geoidheight>249</geoidheight>
	</trkpt>
	<trkpt lat="50.712292" lon="6.131916">
		<ele>295</ele>
		<time>2011-09-11T07:59:04.840Z</time>
		<geoidheight>249</geoidheight>
	</trkpt>
	<trkpt lat="50.712300" lon="6.131932">
		<ele>295</ele>
		<time>2011-09-11T07:59:05.838Z</time>
		<geoidheight>249</geoidheight>
	</trkpt>
	<trkpt lat="50.712308" lon="6.131948">
		<ele>295</ele>
		<time>2011-09-11T07:59:06.838Z</time>
		<geoidheight>249</geoidheight>
	</trkpt>
	<trkpt lat="50.712316" lon="6.131965">
		<ele>295</ele>
		<time>2011-09-11T07:59:07.839Z</time>
		<geoidheight>249</geoidheight>
	</trkpt>
	<trkpt lat="50.712325" lon="6.131981">
		<ele>295</ele>
		<time>2011-09-11T07:59:08.838Z</time>
		<geoidheight>249</geoidheight>
	</trkpt>
	<trkpt lat="50.712335" lon="6.131995">
		<ele>295</ele>
		<time>2011-09-11T07:59:09.840Z</time>
		<geoidheight>249</geoidheight>
	</trkpt>
	<trkpt lat="50.712345" lon="6.132009">
		<ele>295</ele>
		<time>2011-09-11T07:59:10.841Z</time>
		<geoidheight>249</geoidheight>
	</trkpt>
	<trkpt lat="50.712357" lon="6.132023">
		<ele>295</ele>
		<time>2011-09-11T07:59:11.836Z</time>
		<geoidheight>249</geoidheight>
	</trkpt>
	<trkpt lat="50.712368" lon="6.132036">
		<ele>295</ele>
		<time>2011-09-11T07:59:12.838Z</time>
		<geoidheight>249</geoidheight>
	</trkpt>
	<trkpt lat="50.712378" lon="6.132049">
		<ele>295</ele>
		<time>2011-09-11T07:59:13.838Z</time>
		<geoidheight>249</geoidheight>
	</trkpt>
	<trkpt lat="50.712385" lon="6.132064">
		<ele>295</ele>
		<time>2011-09-11T07:59:14.838Z</time>
		<geoidheight>249</geoidheight>
	</trkpt>
	<trkpt lat="50.712391" lon="6.132079">
		<ele>295</ele>
		<time>2011-09-11T07:59:15.838Z</time>
		<geoidheight>249</geoidheight>
	</trkpt>
	<trkpt lat="50.712397" lon="6.132095">
		<ele>295</ele>
		<time>2011-09-11T07:59:16.837Z</time>
		<geoidheight>249</geoidheight>
	</trkpt>
	<trkpt lat="50.712403" lon="6.132111">
		<ele>295</ele>
		<time>2011-09-11T07:59:17.840Z</time>
		<geoidheight>249</geoidheight>
	</trkpt>
	<trkpt lat="50.712409" lon="6.132128">
		<ele>295</ele>
		<time>2011-09-11T07:59:18.837Z</time>
		<geoidheight>249</geoidheight>
	</trkpt>
	<trkpt lat="50.712414" lon="6.132148">
		<ele>295</ele>
		<time>2011-09-11T07:59:19.838Z</time>
		<geoidheight>249</geoidheight>
	</trkpt>
	<trkpt lat="50.712420" lon="6.132169">
		<ele>295</ele>
		<time>2011-09-11T07:59:20.839Z</time>
		<geoidheight>249</geoidheight>
	</trkpt>
	<trkpt lat="50.712426" lon="6.132190">
		<ele>295</ele>
		<time>2011-09-11T07:59:21.839Z</time>
		<geoidheight>249</geoidheight>
	</trkpt>
	<trkpt lat="50.712430" lon="6.132211">
		<ele>295</ele>
		<time>2011-09-11T07:59:22.846Z</time>
		<geoidheight>249</geoidheight>
	</trkpt>
	<trkpt lat="50.712436" lon="6.132231">
		<ele>295</ele>
		<time>2011-09-11T07:59:23.843Z</time>
		<geoidheight>249</geoidheight>
	</trkpt>
	<trkpt lat="50.712443" lon="6.132249">
		<ele>295</ele>
		<time>2011-09-11T07:59:24.839Z</time>
		<geoidheight>249</geoidheight>
	</trkpt>
	<trkpt lat="50.712451" lon="6.132265">
		<ele>294</ele>
		<time>2011-09-11T07:59:25.836Z</time>
		<geoidheight>248</geoidheight>
	</trkpt>
	<trkpt lat="50.712459" lon="6.132281">
		<ele>294</ele>
		<time>2011-09-11T07:59:26.840Z</time>
		<geoidheight>248</geoidheight>
	</trkpt>
	<trkpt lat="50.712467" lon="6.132297">
		<ele>294</ele>
		<time>2011-09-11T07:59:27.840Z</time>
		<geoidheight>248</geoidheight>
	</trkpt>
	<trkpt lat="50.712474" lon="6.132314">
		<ele>294</ele>
		<time>2011-09-11T07:59:28.836Z</time>
		<geoidheight>248</geoidheight>
	</trkpt>
	<trkpt lat="50.712482" lon="6.132331">
		<ele>294</ele>
		<time>2011-09-11T07:59:29.842Z</time>
		<geoidheight>248</geoidheight>
	</trkpt>
	<trkpt lat="50.712490" lon="6.132349">
		<ele>294</ele>
		<time>2011-09-11T07:59:30.839Z</time>
		<geoidheight>248</geoidheight>
	</trkpt>
	<trkpt lat="50.712498" lon="6.132367">
		<ele>294</ele>
		<time>2011-09-11T07:59:31.839Z</time>
		<geoidheight>248</geoidheight>
	</trkpt>
	<trkpt lat="50.712507" lon="6.132384">
		<ele>294</ele>
		<time>2011-09-11T07:59:32.836Z</time>
		<geoidheight>248</geoidheight>
	</trkpt>
	<trkpt lat="50.712516" lon="6.132401">
		<ele>294</ele>
		<time>2011-09-11T07:59:33.839Z</time>
		<geoidheight>248</geoidheight>
	</trkpt>
	<trkpt lat="50.712524" lon="6.132421">
		<ele>294</ele>
		<time>2011-09-11T07:59:34.838Z</time>
		<geoidheight>248</geoidheight>
	</trkpt>
	<trkpt lat="50.712532" lon="6.132440">
		<ele>294</ele>
		<time>2011-09-11T07:59:35.837Z</time>
		<geoidheight>248</geoidheight>
	</trkpt>
	<trkpt lat="50.712547" lon="6.132479">
		<ele>294</ele>
		<time>2011-09-11T07:59:36.840Z</time>
		<geoidheight>248</geoidheight>
	</trkpt>
	<trkpt lat="50.712554" lon="6.132498">
		<ele>294</ele>
		<time>2011-09-11T07:59:37.838Z</time>
		<geoidheight>248</geoidheight>
	</trkpt>
	<trkpt lat="50.712563" lon="6.132515">
		<ele>294</ele>
		<time>2011-09-11T07:59:38.836Z</time>
		<geoidheight>248</geoidheight>
	</trkpt>
	<trkpt lat="50.712567" lon="6.132534">
		<ele>294</ele>
		<time>2011-09-11T07:59:39.837Z</time>
		<geoidheight>248</geoidheight>
	</trkpt>
	<trkpt lat="50.712577" lon="6.132552">
		<ele>294</ele>
		<time>2011-09-11T07:59:40.838Z</time>
		<geoidheight>248</geoidheight>
	</trkpt>
	<trkpt lat="50.712587" lon="6.132570">
		<ele>294</ele>
		<time>2011-09-11T07:59:41.837Z</time>
		<geoidheight>248</geoidheight>
	</trkpt>
	<trkpt lat="50.712598" lon="6.132585">
		<ele>294</ele>
		<time>2011-09-11T07:59:42.836Z</time>
		<geoidheight>248</geoidheight>
	</trkpt>
	<trkpt lat="50.712610" lon="6.132597">
		<ele>294</ele>
		<time>2011-09-11T07:59:43.838Z</time>
		<geoidheight>248</geoidheight>
	</trkpt>
	<trkpt lat="50.712618" lon="6.132615">
		<ele>294</ele>
		<time>2011-09-11T07:59:44.836Z</time>
		<geoidheight>248</geoidheight>
	</trkpt>
	<trkpt lat="50.712624" lon="6.132635">
		<ele>294</ele>
		<time>2011-09-11T07:59:45.837Z</time>
		<geoidheight>248</geoidheight>
	</trkpt>
	<trkpt lat="50.712630" lon="6.132653">
		<ele>294</ele>
		<time>2011-09-11T07:59:46.839Z</time>
		<geoidheight>248</geoidheight>
	</trkpt>
	<trkpt lat="50.712641" lon="6.132666">
		<ele>294</ele>
		<time>2011-09-11T07:59:47.837Z</time>
		<geoidheight>248</geoidheight>
	</trkpt>
	<trkpt lat="50.712651" lon="6.132677">
		<ele>294</ele>
		<time>2011-09-11T07:59:48.837Z</time>
		<geoidheight>248</geoidheight>
	</trkpt>
	<trkpt lat="50.712661" lon="6.132688">
		<ele>294</ele>
		<time>2011-09-11T07:59:49.842Z</time>
		<geoidheight>248</geoidheight>
	</trkpt>
	<trkpt lat="50.712670" lon="6.132700">
		<ele>294</ele>
		<time>2011-09-11T07:59:50.842Z</time>
		<geoidheight>248</geoidheight>
	</trkpt>
	<trkpt lat="50.712679" lon="6.132713">
		<ele>294</ele>
		<time>2011-09-11T07:59:51.847Z</time>
		<geoidheight>248</geoidheight>
	</trkpt>
	<trkpt lat="50.712685" lon="6.132729">
		<ele>294</ele>
		<time>2011-09-11T07:59:52.845Z</time>
		<geoidheight>248</geoidheight>
	</trkpt>
	<trkpt lat="50.712690" lon="6.132747">
		<ele>294</ele>
		<time>2011-09-11T07:59:53.840Z</time>
		<geoidheight>248</geoidheight>
	</trkpt>
	<trkpt lat="50.712698" lon="6.132764">
		<ele>294</ele>
		<time>2011-09-11T07:59:54.837Z</time>
		<geoidheight>248</geoidheight>
	</trkpt>
	<trkpt lat="50.712705" lon="6.132784">
		<ele>294</ele>
		<time>2011-09-11T07:59:55.838Z</time>
		<geoidheight>248</geoidheight>
	</trkpt>
	<trkpt lat="50.712714" lon="6.132803">
		<ele>294</ele>
		<time>2011-09-11T07:59:56.840Z</time>
		<geoidheight>248</geoidheight>
	</trkpt>
	<trkpt lat="50.712712" lon="6.132821">
		<ele>294</ele>
		<time>2011-09-11T07:59:57.850Z</time>
		<geoidheight>248</geoidheight>
	</trkpt>
	<trkpt lat="50.712712" lon="6.132838">
		<ele>294</ele>
		<time>2011-09-11T07:59:58.846Z</time>
		<geoidheight>248</geoidheight>
	</trkpt>
	<trkpt lat="50.712726" lon="6.132852">
		<ele>294</ele>
		<time>2011-09-11T07:59:59.840Z</time>
		<geoidheight>248</geoidheight>
	</trkpt>
	<trkpt lat="50.712740" lon="6.132870">
		<ele>294</ele>
		<time>2011-09-11T08:00:00.839Z</time>
		<geoidheight>248</geoidheight>
	</trkpt>
	<trkpt lat="50.712753" lon="6.132889">
		<ele>294</ele>
		<time>2011-09-11T08:00:01.837Z</time>
		<geoidheight>248</geoidheight>
	</trkpt>
	<trkpt lat="50.712766" lon="6.132906">
		<ele>294</ele>
		<time>2011-09-11T08:00:02.839Z</time>
		<geoidheight>248</geoidheight>
	</trkpt>
	<trkpt lat="50.712778" lon="6.132923">
		<ele>294</ele>
		<time>2011-09-11T08:00:03.837Z</time>
		<geoidheight>248</geoidheight>
	</trkpt>
	<trkpt lat="50.712795" lon="6.132932">
		<ele>294</ele>
		<time>2011-09-11T08:00:04.837Z</time>
		<geoidheight>248</geoidheight>
	</trkpt>
	<trkpt lat="50.712809" lon="6.132941">
		<ele>294</ele>
		<time>2011-09-11T08:00:05.840Z</time>
		<geoidheight>248</geoidheight>
	</trkpt>
	<trkpt lat="50.712818" lon="6.132956">
		<ele>294</ele>
		<time>2011-09-11T08:00:06.837Z</time>
		<geoidheight>248</geoidheight>
	</trkpt>
	<trkpt lat="50.712823" lon="6.132976">
		<ele>294</ele>
		<time>2011-09-11T08:00:07.838Z</time>
		<geoidheight>248</geoidheight>
	</trkpt>
	<trkpt lat="50.712829" lon="6.132994">
		<ele>294</ele>
		<time>2011-09-11T08:00:08.839Z</time>
		<geoidheight>248</geoidheight>
	</trkpt>
	<trkpt lat="50.712834" lon="6.133012">
		<ele>294</ele>
		<time>2011-09-11T08:00:09.837Z</time>
		<geoidheight>248</geoidheight>
	</trkpt>
	<trkpt lat="50.712842" lon="6.133030">
		<ele>293</ele>
		<time>2011-09-11T08:00:10.837Z</time>
		<geoidheight>247</geoidheight>
	</trkpt>
	<trkpt lat="50.712850" lon="6.133048">
		<ele>293</ele>
		<time>2011-09-11T08:00:11.838Z</time>
		<geoidheight>247</geoidheight>
	</trkpt>
	<trkpt lat="50.712855" lon="6.133067">
		<ele>293</ele>
		<time>2011-09-11T08:00:12.839Z</time>
		<geoidheight>247</geoidheight>
	</trkpt>
	<trkpt lat="50.712861" lon="6.133084">
		<ele>293</ele>
		<time>2011-09-11T08:00:13.838Z</time>
		<geoidheight>247</geoidheight>
	</trkpt>
	<trkpt lat="50.712867" lon="6.133105">
		<ele>293</ele>
		<time>2011-09-11T08:00:14.837Z</time>
		<geoidheight>247</geoidheight>
	</trkpt>
	<trkpt lat="50.712872" lon="6.133126">
		<ele>293</ele>
		<time>2011-09-11T08:00:15.841Z</time>
		<geoidheight>247</geoidheight>
	</trkpt>
	<trkpt lat="50.712881" lon="6.133143">
		<ele>293</ele>
		<time>2011-09-11T08:00:16.838Z</time>
		<geoidheight>247</geoidheight>
	</trkpt>
	<trkpt lat="50.712892" lon="6.133157">
		<ele>293</ele>
		<time>2011-09-11T08:00:17.837Z</time>
		<geoidheight>247</geoidheight>
	</trkpt>
	<trkpt lat="50.712902" lon="6.133171">
		<ele>293</ele>
		<time>2011-09-11T08:00:18.838Z</time>
		<geoidheight>247</geoidheight>
	</trkpt>
	<trkpt lat="50.712908" lon="6.133190">
		<ele>293</ele>
		<time>2011-09-11T08:00:19.836Z</time>
		<geoidheight>247</geoidheight>
	</trkpt>
	<trkpt lat="50.712914" lon="6.133210">
		<ele>293</ele>
		<time>2011-09-11T08:00:20.840Z</time>
		<geoidheight>247</geoidheight>
	</trkpt>
	<trkpt lat="50.712918" lon="6.133231">
		<ele>293</ele>
		<time>2011-09-11T08:00:21.839Z</time>
		<geoidheight>247</geoidheight>
	</trkpt>
	<trkpt lat="50.712922" lon="6.133252">
		<ele>293</ele>
		<time>2011-09-11T08:00:22.837Z</time>
		<geoidheight>247</geoidheight>
	</trkpt>
	<trkpt lat="50.712931" lon="6.133267">
		<ele>293</ele>
		<time>2011-09-11T08:00:23.837Z</time>
		<geoidheight>247</geoidheight>
	</trkpt>
	<trkpt lat="50.712941" lon="6.133279">
		<ele>293</ele>
		<time>2011-09-11T08:00:24.836Z</time>
		<geoidheight>247</geoidheight>
	</trkpt>
	<trkpt lat="50.712949" lon="6.133295">
		<ele>293</ele>
		<time>2011-09-11T08:00:25.838Z</time>
		<geoidheight>247</geoidheight>
	</trkpt>
	<trkpt lat="50.712954" lon="6.133313">
		<ele>293</ele>
		<time>2011-09-11T08:00:26.839Z</time>
		<geoidheight>247</geoidheight>
	</trkpt>
	<trkpt lat="50.712962" lon="6.133328">
		<ele>293</ele>
		<time>2011-09-11T08:00:27.837Z</time>
		<geoidheight>247</geoidheight>
	</trkpt>
	<trkpt lat="50.712968" lon="6.133344">
		<ele>293</ele>
		<time>2011-09-11T08:00:28.840Z</time>
		<geoidheight>247</geoidheight>
	</trkpt>
	<trkpt lat="50.712975" lon="6.133360">
		<ele>293</ele>
		<time>2011-09-11T08:00:29.838Z</time>
		<geoidheight>247</geoidheight>
	</trkpt>
	<trkpt lat="50.712980" lon="6.133377">
		<ele>292</ele>
		<time>2011-09-11T08:00:30.836Z</time>
		<geoidheight>246</geoidheight>
	</trkpt>
	<trkpt lat="50.712986" lon="6.133392">
		<ele>292</ele>
		<time>2011-09-11T08:00:31.840Z</time>
		<geoidheight>246</geoidheight>
	</trkpt>
	<trkpt lat="50.712995" lon="6.133405">
		<ele>292</ele>
		<time>2011-09-11T08:00:32.836Z</time>
		<geoidheight>246</geoidheight>
	</trkpt>
	<trkpt lat="50.713002" lon="6.133420">
		<ele>292</ele>
		<time>2011-09-11T08:00:33.838Z</time>
		<geoidheight>246</geoidheight>
	</trkpt>
	<trkpt lat="50.713010" lon="6.133434">
		<ele>292</ele>
		<time>2011-09-11T08:00:34.838Z</time>
		<geoidheight>246</geoidheight>
	</trkpt>
	<trkpt lat="50.713019" lon="6.133450">
		<ele>292</ele>
		<time>2011-09-11T08:00:35.837Z</time>
		<geoidheight>246</geoidheight>
	</trkpt>
	<trkpt lat="50.713028" lon="6.133468">
		<ele>292</ele>
		<time>2011-09-11T08:00:36.839Z</time>
		<geoidheight>246</geoidheight>
	</trkpt>
	<trkpt lat="50.713042" lon="6.133481">
		<ele>292</ele>
		<time>2011-09-11T08:00:37.840Z</time>
		<geoidheight>246</geoidheight>
	</trkpt>
	<trkpt lat="50.713053" lon="6.133498">
		<ele>292</ele>
		<time>2011-09-11T08:00:38.837Z</time>
		<geoidheight>246</geoidheight>
	</trkpt>
	<trkpt lat="50.713064" lon="6.133514">
		<ele>292</ele>
		<time>2011-09-11T08:00:39.838Z</time>
		<geoidheight>246</geoidheight>
	</trkpt>
	<trkpt lat="50.713072" lon="6.133534">
		<ele>292</ele>
		<time>2011-09-11T08:00:40.837Z</time>
		<geoidheight>246</geoidheight>
	</trkpt>
	<trkpt lat="50.713080" lon="6.133554">
		<ele>292</ele>
		<time>2011-09-11T08:00:41.839Z</time>
		<geoidheight>246</geoidheight>
	</trkpt>
	<trkpt lat="50.713090" lon="6.133569">
		<ele>292</ele>
		<time>2011-09-11T08:00:42.838Z</time>
		<geoidheight>246</geoidheight>
	</trkpt>
	<trkpt lat="50.713097" lon="6.133589">
		<ele>292</ele>
		<time>2011-09-11T08:00:43.838Z</time>
		<geoidheight>246</geoidheight>
	</trkpt>
	<trkpt lat="50.713104" lon="6.133610">
		<ele>292</ele>
		<time>2011-09-11T08:00:44.839Z</time>
		<geoidheight>246</geoidheight>
	</trkpt>
	<trkpt lat="50.713118" lon="6.133627">
		<ele>292</ele>
		<time>2011-09-11T08:00:45.837Z</time>
		<geoidheight>246</geoidheight>
	</trkpt>
	<trkpt lat="50.713128" lon="6.133645">
		<ele>292</ele>
		<time>2011-09-11T08:00:46.837Z</time>
		<geoidheight>246</geoidheight>
	</trkpt>
	<trkpt lat="50.713135" lon="6.133664">
		<ele>292</ele>
		<time>2011-09-11T08:00:47.838Z</time>
		<geoidheight>246</geoidheight>
	</trkpt>
	<trkpt lat="50.713147" lon="6.133679">
		<ele>292</ele>
		<time>2011-09-11T08:00:48.838Z</time>
		<geoidheight>246</geoidheight>
	</trkpt>
	<trkpt lat="50.713158" lon="6.133694">
		<ele>292</ele>
		<time>2011-09-11T08:00:49.837Z</time>
		<geoidheight>246</geoidheight>
	</trkpt>
	<trkpt lat="50.713166" lon="6.133713">
		<ele>292</ele>
		<time>2011-09-11T08:00:50.842Z</time>
		<geoidheight>246</geoidheight>
	</trkpt>
	<trkpt lat="50.713174" lon="6.133731">
		<ele>292</ele>
		<time>2011-09-11T08:00:51.839Z</time>
		<geoidheight>246</geoidheight>
	</trkpt>
	<trkpt lat="50.713187" lon="6.133744">
		<ele>292</ele>
		<time>2011-09-11T08:00:52.837Z</time>
		<geoidheight>246</geoidheight>
	</trkpt>
	<trkpt lat="50.713197" lon="6.133757">
		<ele>292</ele>
		<time>2011-09-11T08:00:53.840Z</time>
		<geoidheight>246</geoidheight>
	</trkpt>
	<trkpt lat="50.713204" lon="6.133774">
		<ele>292</ele>
		<time>2011-09-11T08:00:54.840Z</time>
		<geoidheight>246</geoidheight>
	</trkpt>
	<trkpt lat="50.713211" lon="6.133789">
		<ele>292</ele>
		<time>2011-09-11T08:00:55.837Z</time>
		<geoidheight>246</geoidheight>
	</trkpt>
	<trkpt lat="50.713220" lon="6.133801">
		<ele>292</ele>
		<time>2011-09-11T08:00:56.837Z</time>
		<geoidheight>246</geoidheight>
	</trkpt>
	<trkpt lat="50.713227" lon="6.133817">
		<ele>292</ele>
		<time>2011-09-11T08:00:57.839Z</time>
		<geoidheight>246</geoidheight>
	</trkpt>
	<trkpt lat="50.713233" lon="6.133831">
		<ele>292</ele>
		<time>2011-09-11T08:00:58.837Z</time>
		<geoidheight>246</geoidheight>
	</trkpt>
	<trkpt lat="50.713236" lon="6.133848">
		<ele>292</ele>
		<time>2011-09-11T08:00:59.837Z</time>
		<geoidheight>246</geoidheight>
	</trkpt>
	<trkpt lat="50.713240" lon="6.133864">
		<ele>292</ele>
		<time>2011-09-11T08:01:00.839Z</time>
		<geoidheight>246</geoidheight>
	</trkpt>
	<trkpt lat="50.713246" lon="6.133882">
		<ele>292</ele>
		<time>2011-09-11T08:01:01.839Z</time>
		<geoidheight>246</geoidheight>
	</trkpt>
	<trkpt lat="50.713254" lon="6.133900">
		<ele>292</ele>
		<time>2011-09-11T08:01:02.838Z</time>
		<geoidheight>246</geoidheight>
	</trkpt>
	<trkpt lat="50.713265" lon="6.133914">
		<ele>292</ele>
		<time>2011-09-11T08:01:03.840Z</time>
		<geoidheight>246</geoidheight>
	</trkpt>
	<trkpt lat="50.713272" lon="6.133933">
		<ele>292</ele>
		<time>2011-09-11T08:01:04.839Z</time>
		<geoidheight>246</geoidheight>
	</trkpt>
	<trkpt lat="50.713279" lon="6.133948">
		<ele>292</ele>
		<time>2011-09-11T08:01:05.839Z</time>
		<geoidheight>246</geoidheight>
	</trkpt>
	<trkpt lat="50.713286" lon="6.133963">
		<ele>292</ele>
		<time>2011-09-11T08:01:06.839Z</time>
		<geoidheight>246</geoidheight>
	</trkpt>
	<trkpt lat="50.713293" lon="6.133977">
		<ele>292</ele>
		<time>2011-09-11T08:01:07.841Z</time>
		<geoidheight>246</geoidheight>
	</trkpt>
	<trkpt lat="50.713297" lon="6.133991">
		<ele>292</ele>
		<time>2011-09-11T08:01:08.837Z</time>
		<geoidheight>246</geoidheight>
	</trkpt>
	<trkpt lat="50.713303" lon="6.134005">
		<ele>292</ele>
		<time>2011-09-11T08:01:09.838Z</time>
		<geoidheight>246</geoidheight>
	</trkpt>
	<trkpt lat="50.713309" lon="6.134021">
		<ele>292</ele>
		<time>2011-09-11T08:01:10.843Z</time>
		<geoidheight>246</geoidheight>
	</trkpt>
	<trkpt lat="50.713319" lon="6.134033">
		<ele>292</ele>
		<time>2011-09-11T08:01:11.837Z</time>
		<geoidheight>246</geoidheight>
	</trkpt>
	<trkpt lat="50.713328" lon="6.134044">
		<ele>292</ele>
		<time>2011-09-11T08:01:12.837Z</time>
		<geoidheight>246</geoidheight>
	</trkpt>
	<trkpt lat="50.713336" lon="6.134057">
		<ele>292</ele>
		<time>2011-09-11T08:01:13.839Z</time>
		<geoidheight>246</geoidheight>
	</trkpt>
	<trkpt lat="50.713343" lon="6.134070">
		<ele>292</ele>
		<time>2011-09-11T08:01:14.839Z</time>
		<geoidheight>246</geoidheight>
	</trkpt>
	<trkpt lat="50.713349" lon="6.134083">
		<ele>292</ele>
		<time>2011-09-11T08:01:15.838Z</time>
		<geoidheight>246</geoidheight>
	</trkpt>
	<trkpt lat="50.713360" lon="6.134085">
		<ele>292</ele>
		<time>2011-09-11T08:01:16.842Z</time>
		<geoidheight>246</geoidheight>
	</trkpt>
	<trkpt lat="50.713373" lon="6.134085">
		<ele>292</ele>
		<time>2011-09-11T08:01:17.838Z</time>
		<geoidheight>246</geoidheight>
	</trkpt>
	<trkpt lat="50.713385" lon="6.134091">
		<ele>292</ele>
		<time>2011-09-11T08:01:18.838Z</time>
		<geoidheight>246</geoidheight>
	</trkpt>
	<trkpt lat="50.713401" lon="6.134089">
		<ele>292</ele>
		<time>2011-09-11T08:01:19.839Z</time>
		<geoidheight>246</geoidheight>
	</trkpt>
	<trkpt lat="50.713417" lon="6.134089">
		<ele>292</ele>
		<time>2011-09-11T08:01:20.838Z</time>
		<geoidheight>246</geoidheight>
	</trkpt>
	<trkpt lat="50.713430" lon="6.134098">
		<ele>292</ele>
		<time>2011-09-11T08:01:21.839Z</time>
		<geoidheight>246</geoidheight>
	</trkpt>
	<trkpt lat="50.713443" lon="6.134101">
		<ele>292</ele>
		<time>2011-09-11T08:01:22.840Z</time>
		<geoidheight>246</geoidheight>
	</trkpt>
	<trkpt lat="50.713452" lon="6.134107">
		<ele>292</ele>
		<time>2011-09-11T08:01:23.838Z</time>
		<geoidheight>246</geoidheight>
	</trkpt>
	<trkpt lat="50.713457" lon="6.134113">
		<ele>292</ele>
		<time>2011-09-11T08:01:24.839Z</time>
		<geoidheight>246</geoidheight>
	</trkpt>
	<trkpt lat="50.713457" lon="6.134113">
		<ele>293</ele>
		<time>2011-09-11T08:01:38.838Z</time>
		<geoidheight>247</geoidheight>
	</trkpt>
	<trkpt lat="50.713489" lon="6.134167">
		<ele>293</ele>
		<time>2011-09-11T08:01:39.838Z</time>
		<geoidheight>247</geoidheight>
	</trkpt>
	<trkpt lat="50.713489" lon="6.134167">
		<ele>293</ele>
		<time>2011-09-11T08:01:41.850Z</time>
		<geoidheight>247</geoidheight>
	</trkpt>
	<trkpt lat="50.713501" lon="6.134182">
		<ele>293</ele>
		<time>2011-09-11T08:01:42.842Z</time>
		<geoidheight>247</geoidheight>
	</trkpt>
	<trkpt lat="50.713507" lon="6.134199">
		<ele>293</ele>
		<time>2011-09-11T08:01:43.837Z</time>
		<geoidheight>247</geoidheight>
	</trkpt>
	<trkpt lat="50.713516" lon="6.134221">
		<ele>293</ele>
		<time>2011-09-11T08:01:44.839Z</time>
		<geoidheight>247</geoidheight>
	</trkpt>
	<trkpt lat="50.713524" lon="6.134241">
		<ele>293</ele>
		<time>2011-09-11T08:01:45.840Z</time>
		<geoidheight>247</geoidheight>
	</trkpt>
	<trkpt lat="50.713529" lon="6.134262">
		<ele>293</ele>
		<time>2011-09-11T08:01:46.847Z</time>
		<geoidheight>247</geoidheight>
	</trkpt>
	<trkpt lat="50.713533" lon="6.134285">
		<ele>293</ele>
		<time>2011-09-11T08:01:47.839Z</time>
		<geoidheight>247</geoidheight>
	</trkpt>
	<trkpt lat="50.713538" lon="6.134310">
		<ele>293</ele>
		<time>2011-09-11T08:01:48.840Z</time>
		<geoidheight>247</geoidheight>
	</trkpt>
	<trkpt lat="50.713542" lon="6.134338">
		<ele>293</ele>
		<time>2011-09-11T08:01:49.838Z</time>
		<geoidheight>247</geoidheight>
	</trkpt>
	<trkpt lat="50.713543" lon="6.134372">
		<ele>293</ele>
		<time>2011-09-11T08:01:50.838Z</time>
		<geoidheight>247</geoidheight>
	</trkpt>
	<trkpt lat="50.713540" lon="6.134407">
		<ele>293</ele>
		<time>2011-09-11T08:01:51.843Z</time>
		<geoidheight>247</geoidheight>
	</trkpt>
	<trkpt lat="50.713539" lon="6.134436">
		<ele>293</ele>
		<time>2011-09-11T08:01:52.851Z</time>
		<geoidheight>247</geoidheight>
	</trkpt>
	<trkpt lat="50.713537" lon="6.134465">
		<ele>293</ele>
		<time>2011-09-11T08:01:53.852Z</time>
		<geoidheight>247</geoidheight>
	</trkpt>
	<trkpt lat="50.713539" lon="6.134491">
		<ele>293</ele>
		<time>2011-09-11T08:01:54.853Z</time>
		<geoidheight>247</geoidheight>
	</trkpt>
	<trkpt lat="50.713539" lon="6.134516">
		<ele>293</ele>
		<time>2011-09-11T08:01:55.855Z</time>
		<geoidheight>247</geoidheight>
	</trkpt>
	<trkpt lat="50.713540" lon="6.134540">
		<ele>293</ele>
		<time>2011-09-11T08:01:56.852Z</time>
		<geoidheight>247</geoidheight>
	</trkpt>
	<trkpt lat="50.713547" lon="6.134560">
		<ele>293</ele>
		<time>2011-09-11T08:01:57.852Z</time>
		<geoidheight>247</geoidheight>
	</trkpt>
	<trkpt lat="50.713553" lon="6.134580">
		<ele>293</ele>
		<time>2011-09-11T08:01:58.855Z</time>
		<geoidheight>247</geoidheight>
	</trkpt>
	<trkpt lat="50.713560" lon="6.134596">
		<ele>293</ele>
		<time>2011-09-11T08:01:59.852Z</time>
		<geoidheight>247</geoidheight>
	</trkpt>
	<trkpt lat="50.713571" lon="6.134609">
		<ele>293</ele>
		<time>2011-09-11T08:02:00.847Z</time>
		<geoidheight>247</geoidheight>
	</trkpt>
	<trkpt lat="50.713580" lon="6.134621">
		<ele>293</ele>
		<time>2011-09-11T08:02:01.850Z</time>
		<geoidheight>247</geoidheight>
	</trkpt>
	<trkpt lat="50.713589" lon="6.134635">
		<ele>293</ele>
		<time>2011-09-11T08:02:02.847Z</time>
		<geoidheight>247</geoidheight>
	</trkpt>
	<trkpt lat="50.713597" lon="6.134650">
		<ele>293</ele>
		<time>2011-09-11T08:02:03.850Z</time>
		<geoidheight>247</geoidheight>
	</trkpt>
	<trkpt lat="50.713606" lon="6.134665">
		<ele>293</ele>
		<time>2011-09-11T08:02:04.848Z</time>
		<geoidheight>247</geoidheight>
	</trkpt>
	<trkpt lat="50.713616" lon="6.134680">
		<ele>293</ele>
		<time>2011-09-11T08:02:05.854Z</time>
		<geoidheight>247</geoidheight>
	</trkpt>
	<trkpt lat="50.713627" lon="6.134696">
		<ele>293</ele>
		<time>2011-09-11T08:02:06.852Z</time>
		<geoidheight>247</geoidheight>
	</trkpt>
	<trkpt lat="50.713635" lon="6.134715">
		<ele>293</ele>
		<time>2011-09-11T08:02:07.847Z</time>
		<geoidheight>247</geoidheight>
	</trkpt>
	<trkpt lat="50.713642" lon="6.134736">
		<ele>293</ele>
		<time>2011-09-11T08:02:08.851Z</time>
		<geoidheight>247</geoidheight>
	</trkpt>
	<trkpt lat="50.713654" lon="6.134750">
		<ele>293</ele>
		<time>2011-09-11T08:02:09.850Z</time>
		<geoidheight>247</geoidheight>
	</trkpt>
	<trkpt lat="50.713665" lon="6.134767">
		<ele>293</ele>
		<time>2011-09-11T08:02:10.855Z</time>
		<geoidheight>247</geoidheight>
	</trkpt>
	<trkpt lat="50.713672" lon="6.134788">
		<ele>293</ele>
		<time>2011-09-11T08:02:11.849Z</time>
		<geoidheight>247</geoidheight>
	</trkpt>
	<trkpt lat="50.713683" lon="6.134807">
		<ele>293</ele>
		<time>2011-09-11T08:02:12.852Z</time>
		<geoidheight>247</geoidheight>
	</trkpt>
	<trkpt lat="50.713693" lon="6.134824">
		<ele>293</ele>
		<time>2011-09-11T08:02:13.853Z</time>
		<geoidheight>247</geoidheight>
	</trkpt>
	<trkpt lat="50.713706" lon="6.134837">
		<ele>293</ele>
		<time>2011-09-11T08:02:14.852Z</time>
		<geoidheight>247</geoidheight>
	</trkpt>
	<trkpt lat="50.713715" lon="6.134856">
		<ele>293</ele>
		<time>2011-09-11T08:02:15.849Z</time>
		<geoidheight>247</geoidheight>
	</trkpt>
	<trkpt lat="50.713724" lon="6.134874">
		<ele>293</ele>
		<time>2011-09-11T08:02:16.842Z</time>
		<geoidheight>247</geoidheight>
	</trkpt>
	<trkpt lat="50.713737" lon="6.134894">
		<ele>293</ele>
		<time>2011-09-11T08:02:17.850Z</time>
		<geoidheight>247</geoidheight>
	</trkpt>
	<trkpt lat="50.713745" lon="6.134915">
		<ele>293</ele>
		<time>2011-09-11T08:02:18.852Z</time>
		<geoidheight>247</geoidheight>
	</trkpt>
	<trkpt lat="50.713756" lon="6.134933">
		<ele>293</ele>
		<time>2011-09-11T08:02:19.853Z</time>
		<geoidheight>247</geoidheight>
	</trkpt>
	<trkpt lat="50.713763" lon="6.134953">
		<ele>292</ele>
		<time>2011-09-11T08:02:20.861Z</time>
		<geoidheight>246</geoidheight>
	</trkpt>
	<trkpt lat="50.713775" lon="6.134968">
		<ele>292</ele>
		<time>2011-09-11T08:02:21.849Z</time>
		<geoidheight>246</geoidheight>
	</trkpt>
	<trkpt lat="50.713786" lon="6.134989">
		<ele>292</ele>
		<time>2011-09-11T08:02:22.852Z</time>
		<geoidheight>246</geoidheight>
	</trkpt>
	<trkpt lat="50.713792" lon="6.135012">
		<ele>292</ele>
		<time>2011-09-11T08:02:23.853Z</time>
		<geoidheight>246</geoidheight>
	</trkpt>
	<trkpt lat="50.713802" lon="6.135029">
		<ele>292</ele>
		<time>2011-09-11T08:02:24.851Z</time>
		<geoidheight>246</geoidheight>
	</trkpt>
	<trkpt lat="50.713814" lon="6.135042">
		<ele>292</ele>
		<time>2011-09-11T08:02:25.850Z</time>
		<geoidheight>246</geoidheight>
	</trkpt>
	<trkpt lat="50.713822" lon="6.135058">
		<ele>292</ele>
		<time>2011-09-11T08:02:26.847Z</time>
		<geoidheight>246</geoidheight>
	</trkpt>
	<trkpt lat="50.713827" lon="6.135078">
		<ele>292</ele>
		<time>2011-09-11T08:02:27.843Z</time>
		<geoidheight>246</geoidheight>
	</trkpt>
	<trkpt lat="50.713831" lon="6.135097">
		<ele>292</ele>
		<time>2011-09-11T08:02:28.838Z</time>
		<geoidheight>246</geoidheight>
	</trkpt>
	<trkpt lat="50.713836" lon="6.135115">
		<ele>292</ele>
		<time>2011-09-11T08:02:29.838Z</time>
		<geoidheight>246</geoidheight>
	</trkpt>
	<trkpt lat="50.713843" lon="6.135133">
		<ele>292</ele>
		<time>2011-09-11T08:02:30.843Z</time>
		<geoidheight>246</geoidheight>
	</trkpt>
	<trkpt lat="50.713849" lon="6.135152">
		<ele>292</ele>
		<time>2011-09-11T08:02:31.843Z</time>
		<geoidheight>246</geoidheight>
	</trkpt>
	<trkpt lat="50.713855" lon="6.135169">
		<ele>292</ele>
		<time>2011-09-11T08:02:32.840Z</time>
		<geoidheight>246</geoidheight>
	</trkpt>
	<trkpt lat="50.713864" lon="6.135180">
		<ele>292</ele>
		<time>2011-09-11T08:02:33.841Z</time>
		<geoidheight>246</geoidheight>
	</trkpt>
	<trkpt lat="50.713872" lon="6.135192">
		<ele>292</ele>
		<time>2011-09-11T08:02:34.841Z</time>
		<geoidheight>246</geoidheight>
	</trkpt>
	<trkpt lat="50.713875" lon="6.135206">
		<ele>292</ele>
		<time>2011-09-11T08:02:35.853Z</time>
		<geoidheight>246</geoidheight>
	</trkpt>
	<trkpt lat="50.713878" lon="6.135219">
		<ele>292</ele>
		<time>2011-09-11T08:02:36.851Z</time>
		<geoidheight>246</geoidheight>
	</trkpt>
	<trkpt lat="50.713881" lon="6.135233">
		<ele>292</ele>
		<time>2011-09-11T08:02:37.851Z</time>
		<geoidheight>246</geoidheight>
	</trkpt>
	<trkpt lat="50.713884" lon="6.135247">
		<ele>292</ele>
		<time>2011-09-11T08:02:38.852Z</time>
		<geoidheight>246</geoidheight>
	</trkpt>
	<trkpt lat="50.713887" lon="6.135264">
		<ele>292</ele>
		<time>2011-09-11T08:02:39.852Z</time>
		<geoidheight>246</geoidheight>
	</trkpt>
	<trkpt lat="50.713890" lon="6.135281">
		<ele>292</ele>
		<time>2011-09-11T08:02:40.853Z</time>
		<geoidheight>246</geoidheight>
	</trkpt>
	<trkpt lat="50.713894" lon="6.135298">
		<ele>291</ele>
		<time>2011-09-11T08:02:41.857Z</time>
		<geoidheight>245</geoidheight>
	</trkpt>
	<trkpt lat="50.713898" lon="6.135314">
		<ele>291</ele>
		<time>2011-09-11T08:02:42.849Z</time>
		<geoidheight>245</geoidheight>
	</trkpt>
	<trkpt lat="50.713903" lon="6.135330">
		<ele>291</ele>
		<time>2011-09-11T08:02:43.841Z</time>
		<geoidheight>245</geoidheight>
	</trkpt>
	<trkpt lat="50.713911" lon="6.135344">
		<ele>291</ele>
		<time>2011-09-11T08:02:44.854Z</time>
		<geoidheight>245</geoidheight>
	</trkpt>
	<trkpt lat="50.713920" lon="6.135359">
		<ele>291</ele>
		<time>2011-09-11T08:02:45.852Z</time>
		<geoidheight>245</geoidheight>
	</trkpt>
	<trkpt lat="50.713929" lon="6.135371">
		<ele>291</ele>
		<time>2011-09-11T08:02:46.845Z</time>
		<geoidheight>245</geoidheight>
	</trkpt>
	<trkpt lat="50.713936" lon="6.135383">
		<ele>291</ele>
		<time>2011-09-11T08:02:47.844Z</time>
		<geoidheight>245</geoidheight>
	</trkpt>
	<trkpt lat="50.713943" lon="6.135396">
		<ele>291</ele>
		<time>2011-09-11T08:02:48.838Z</time>
		<geoidheight>245</geoidheight>
	</trkpt>
	<trkpt lat="50.713949" lon="6.135404">
		<ele>291</ele>
		<time>2011-09-11T08:02:49.843Z</time>
		<geoidheight>245</geoidheight>
	</trkpt>
	<trkpt lat="50.713953" lon="6.135417">
		<ele>291</ele>
		<time>2011-09-11T08:02:50.848Z</time>
		<geoidheight>245</geoidheight>
	</trkpt>
	<trkpt lat="50.713957" lon="6.135430">
		<ele>291</ele>
		<time>2011-09-11T08:02:51.854Z</time>
		<geoidheight>245</geoidheight>
	</trkpt>
	<trkpt lat="50.713964" lon="6.135446">
		<ele>291</ele>
		<time>2011-09-11T08:02:52.839Z</time>
		<geoidheight>245</geoidheight>
	</trkpt>
	<trkpt lat="50.713964" lon="6.135446">
		<ele>291</ele>
		<time>2011-09-11T08:02:53.840Z</time>
		<geoidheight>245</geoidheight>
	</trkpt>
	<trkpt lat="50.713970" lon="6.135458">
		<ele>291</ele>
		<time>2011-09-11T08:02:54.839Z</time>
		<geoidheight>245</geoidheight>
	</trkpt>
	<trkpt lat="50.713976" lon="6.135467">
		<ele>291</ele>
		<time>2011-09-11T08:02:55.839Z</time>
		<geoidheight>245</geoidheight>
	</trkpt>
	<trkpt lat="50.713982" lon="6.135479">
		<ele>291</ele>
		<time>2011-09-11T08:02:56.840Z</time>
		<geoidheight>245</geoidheight>
	</trkpt>
	<trkpt lat="50.713988" lon="6.135493">
		<ele>291</ele>
		<time>2011-09-11T08:02:57.838Z</time>
		<geoidheight>245</geoidheight>
	</trkpt>
	<trkpt lat="50.713993" lon="6.135511">
		<ele>291</ele>
		<time>2011-09-11T08:02:58.848Z</time>
		<geoidheight>245</geoidheight>
	</trkpt>
	<trkpt lat="50.714001" lon="6.135530">
		<ele>291</ele>
		<time>2011-09-11T08:02:59.848Z</time>
		<geoidheight>245</geoidheight>
	</trkpt>
	<trkpt lat="50.714006" lon="6.135552">
		<ele>291</ele>
		<time>2011-09-11T08:03:00.848Z</time>
		<geoidheight>245</geoidheight>
	</trkpt>
	<trkpt lat="50.714010" lon="6.135573">
		<ele>291</ele>
		<time>2011-09-11T08:03:01.850Z</time>
		<geoidheight>245</geoidheight>
	</trkpt>
	<trkpt lat="50.714011" lon="6.135592">
		<ele>291</ele>
		<time>2011-09-11T08:03:02.841Z</time>
		<geoidheight>245</geoidheight>
	</trkpt>
	<trkpt lat="50.714015" lon="6.135614">
		<ele>291</ele>
		<time>2011-09-11T08:03:03.838Z</time>
		<geoidheight>245</geoidheight>
	</trkpt>
	<trkpt lat="50.714025" lon="6.135632">
		<ele>291</ele>
		<time>2011-09-11T08:03:04.838Z</time>
		<geoidheight>245</geoidheight>
	</trkpt>
	<trkpt lat="50.714039" lon="6.135650">
		<ele>291</ele>
		<time>2011-09-11T08:03:05.838Z</time>
		<geoidheight>245</geoidheight>
	</trkpt>
	<trkpt lat="50.714051" lon="6.135669">
		<ele>291</ele>
		<time>2011-09-11T08:03:06.839Z</time>
		<geoidheight>245</geoidheight>
	</trkpt>
	<trkpt lat="50.714062" lon="6.135692">
		<ele>291</ele>
		<time>2011-09-11T08:03:07.837Z</time>
		<geoidheight>245</geoidheight>
	</trkpt>
	<trkpt lat="50.714077" lon="6.135714">
		<ele>291</ele>
		<time>2011-09-11T08:03:08.839Z</time>
		<geoidheight>245</geoidheight>
	</trkpt>
	<trkpt lat="50.714090" lon="6.135736">
		<ele>291</ele>
		<time>2011-09-11T08:03:09.840Z</time>
		<geoidheight>245</geoidheight>
	</trkpt>
	<trkpt lat="50.714103" lon="6.135757">
		<ele>291</ele>
		<time>2011-09-11T08:03:10.839Z</time>
		<geoidheight>245</geoidheight>
	</trkpt>
	<trkpt lat="50.714114" lon="6.135781">
		<ele>291</ele>
		<time>2011-09-11T08:03:11.840Z</time>
		<geoidheight>245</geoidheight>
	</trkpt>
	<trkpt lat="50.714126" lon="6.135802">
		<ele>291</ele>
		<time>2011-09-11T08:03:12.840Z</time>
		<geoidheight>245</geoidheight>
	</trkpt>
	<trkpt lat="50.714134" lon="6.135822">
		<ele>292</ele>
		<time>2011-09-11T08:03:13.838Z</time>
		<geoidheight>246</geoidheight>
	</trkpt>
	<trkpt lat="50.714142" lon="6.135842">
		<ele>292</ele>
		<time>2011-09-11T08:03:14.839Z</time>
		<geoidheight>246</geoidheight>
	</trkpt>
	<trkpt lat="50.714151" lon="6.135862">
		<ele>292</ele>
		<time>2011-09-11T08:03:15.841Z</time>
		<geoidheight>246</geoidheight>
	</trkpt>
	<trkpt lat="50.714159" lon="6.135884">
		<ele>292</ele>
		<time>2011-09-11T08:03:16.840Z</time>
		<geoidheight>246</geoidheight>
	</trkpt>
	<trkpt lat="50.714167" lon="6.135907">
		<ele>292</ele>
		<time>2011-09-11T08:03:17.839Z</time>
		<geoidheight>246</geoidheight>
	</trkpt>
	<trkpt lat="50.714176" lon="6.135930">
		<ele>292</ele>
		<time>2011-09-11T08:03:18.842Z</time>
		<geoidheight>246</geoidheight>
	</trkpt>
	<trkpt lat="50.714185" lon="6.135951">
		<ele>292</ele>
		<time>2011-09-11T08:03:19.839Z</time>
		<geoidheight>246</geoidheight>
	</trkpt>
	<trkpt lat="50.714194" lon="6.135970">
		<ele>292</ele>
		<time>2011-09-11T08:03:20.839Z</time>
		<geoidheight>246</geoidheight>
	</trkpt>
	<trkpt lat="50.714201" lon="6.135988">
		<ele>292</ele>
		<time>2011-09-11T08:03:21.844Z</time>
		<geoidheight>246</geoidheight>
	</trkpt>
	<trkpt lat="50.714209" lon="6.136005">
		<ele>292</ele>
		<time>2011-09-11T08:03:22.846Z</time>
		<geoidheight>246</geoidheight>
	</trkpt>
	<trkpt lat="50.714218" lon="6.136020">
		<ele>292</ele>
		<time>2011-09-11T08:03:23.852Z</time>
		<geoidheight>246</geoidheight>
	</trkpt>
	<trkpt lat="50.714225" lon="6.136038">
		<ele>292</ele>
		<time>2011-09-11T08:03:24.849Z</time>
		<geoidheight>246</geoidheight>
	</trkpt>
	<trkpt lat="50.714229" lon="6.136056">
		<ele>292</ele>
		<time>2011-09-11T08:03:25.840Z</time>
		<geoidheight>246</geoidheight>
	</trkpt>
	<trkpt lat="50.714234" lon="6.136071">
		<ele>292</ele>
		<time>2011-09-11T08:03:26.842Z</time>
		<geoidheight>246</geoidheight>
	</trkpt>
	<trkpt lat="50.714244" lon="6.136078">
		<ele>292</ele>
		<time>2011-09-11T08:03:27.838Z</time>
		<geoidheight>246</geoidheight>
	</trkpt>
	<trkpt lat="50.714255" lon="6.136090">
		<ele>292</ele>
		<time>2011-09-11T08:03:28.840Z</time>
		<geoidheight>246</geoidheight>
	</trkpt>
	<trkpt lat="50.714263" lon="6.136109">
		<ele>292</ele>
		<time>2011-09-11T08:03:29.842Z</time>
		<geoidheight>246</geoidheight>
	</trkpt>
	<trkpt lat="50.714271" lon="6.136127">
		<ele>292</ele>
		<time>2011-09-11T08:03:30.838Z</time>
		<geoidheight>246</geoidheight>
	</trkpt>
	<trkpt lat="50.714284" lon="6.136137">
		<ele>292</ele>
		<time>2011-09-11T08:03:31.841Z</time>
		<geoidheight>246</geoidheight>
	</trkpt>
	<trkpt lat="50.714298" lon="6.136145">
		<ele>292</ele>
		<time>2011-09-11T08:03:32.840Z</time>
		<geoidheight>246</geoidheight>
	</trkpt>
	<trkpt lat="50.714309" lon="6.136161">
		<ele>292</ele>
		<time>2011-09-11T08:03:33.843Z</time>
		<geoidheight>246</geoidheight>
	</trkpt>
	<trkpt lat="50.714318" lon="6.136175">
		<ele>292</ele>
		<time>2011-09-11T08:03:34.840Z</time>
		<geoidheight>246</geoidheight>
	</trkpt>
	<trkpt lat="50.714328" lon="6.136190">
		<ele>292</ele>
		<time>2011-09-11T08:03:35.843Z</time>
		<geoidheight>246</geoidheight>
	</trkpt>
	<trkpt lat="50.714335" lon="6.136208">
		<ele>292</ele>
		<time>2011-09-11T08:03:36.839Z</time>
		<geoidheight>246</geoidheight>
	</trkpt>
	<trkpt lat="50.714344" lon="6.136224">
		<ele>292</ele>
		<time>2011-09-11T08:03:37.838Z</time>
		<geoidheight>246</geoidheight>
	</trkpt>
	<trkpt lat="50.714354" lon="6.136240">
		<ele>292</ele>
		<time>2011-09-11T08:03:38.842Z</time>
		<geoidheight>246</geoidheight>
	</trkpt>
	<trkpt lat="50.714361" lon="6.136259">
		<ele>292</ele>
		<time>2011-09-11T08:03:39.840Z</time>
		<geoidheight>246</geoidheight>
	</trkpt>
	<trkpt lat="50.714373" lon="6.136275">
		<ele>292</ele>
		<time>2011-09-11T08:03:40.847Z</time>
		<geoidheight>246</geoidheight>
	</trkpt>
	<trkpt lat="50.714382" lon="6.136293">
		<ele>292</ele>
		<time>2011-09-11T08:03:41.844Z</time>
		<geoidheight>246</geoidheight>
	</trkpt>
	<trkpt lat="50.714391" lon="6.136311">
		<ele>292</ele>
		<time>2011-09-11T08:03:42.863Z</time>
		<geoidheight>246</geoidheight>
	</trkpt>
	<trkpt lat="50.714401" lon="6.136327">
		<ele>292</ele>
		<time>2011-09-11T08:03:43.851Z</time>
		<geoidheight>246</geoidheight>
	</trkpt>
	<trkpt lat="50.714411" lon="6.136343">
		<ele>292</ele>
		<time>2011-09-11T08:03:44.842Z</time>
		<geoidheight>246</geoidheight>
	</trkpt>
	<trkpt lat="50.714421" lon="6.136357">
		<ele>292</ele>
		<time>2011-09-11T08:03:45.839Z</time>
		<geoidheight>246</geoidheight>
	</trkpt>
	<trkpt lat="50.714433" lon="6.136368">
		<ele>292</ele>
		<time>2011-09-11T08:03:46.843Z</time>
		<geoidheight>246</geoidheight>
	</trkpt>
	<trkpt lat="50.714445" lon="6.136383">
		<ele>292</ele>
		<time>2011-09-11T08:03:47.843Z</time>
		<geoidheight>246</geoidheight>
	</trkpt>
	<trkpt lat="50.714455" lon="6.136399">
		<ele>292</ele>
		<time>2011-09-11T08:03:48.839Z</time>
		<geoidheight>246</geoidheight>
	</trkpt>
	<trkpt lat="50.714465" lon="6.136415">
		<ele>292</ele>
		<time>2011-09-11T08:03:49.838Z</time>
		<geoidheight>246</geoidheight>
	</trkpt>
	<trkpt lat="50.714473" lon="6.136431">
		<ele>292</ele>
		<time>2011-09-11T08:03:50.838Z</time>
		<geoidheight>246</geoidheight>
	</trkpt>
	<trkpt lat="50.714481" lon="6.136447">
		<ele>292</ele>
		<time>2011-09-11T08:03:51.847Z</time>
		<geoidheight>246</geoidheight>
	</trkpt>
	<trkpt lat="50.714487" lon="6.136462">
		<ele>292</ele>
		<time>2011-09-11T08:03:52.842Z</time>
		<geoidheight>246</geoidheight>
	</trkpt>
	<trkpt lat="50.714494" lon="6.136478">
		<ele>292</ele>
		<time>2011-09-11T08:03:53.845Z</time>
		<geoidheight>246</geoidheight>
	</trkpt>
	<trkpt lat="50.714503" lon="6.136492">
		<ele>292</ele>
		<time>2011-09-11T08:03:54.844Z</time>
		<geoidheight>246</geoidheight>
	</trkpt>
	<trkpt lat="50.714510" lon="6.136508">
		<ele>292</ele>
		<time>2011-09-11T08:03:55.845Z</time>
		<geoidheight>246</geoidheight>
	</trkpt>
	<trkpt lat="50.714520" lon="6.136525">
		<ele>292</ele>
		<time>2011-09-11T08:03:56.846Z</time>
		<geoidheight>246</geoidheight>
	</trkpt>
	<trkpt lat="50.714532" lon="6.136541">
		<ele>292</ele>
		<time>2011-09-11T08:03:57.843Z</time>
		<geoidheight>246</geoidheight>
	</trkpt>
	<trkpt lat="50.714545" lon="6.136553">
		<ele>292</ele>
		<time>2011-09-11T08:03:58.839Z</time>
		<geoidheight>246</geoidheight>
	</trkpt>
	<trkpt lat="50.714556" lon="6.136567">
		<ele>292</ele>
		<time>2011-09-11T08:03:59.842Z</time>
		<geoidheight>246</geoidheight>
	</trkpt>
	<trkpt lat="50.714570" lon="6.136576">
		<ele>292</ele>
		<time>2011-09-11T08:04:00.842Z</time>
		<geoidheight>246</geoidheight>
	</trkpt>
	<trkpt lat="50.714582" lon="6.136589">
		<ele>292</ele>
		<time>2011-09-11T08:04:01.842Z</time>
		<geoidheight>246</geoidheight>
	</trkpt>
	<trkpt lat="50.714595" lon="6.136603">
		<ele>292</ele>
		<time>2011-09-11T08:04:02.843Z</time>
		<geoidheight>246</geoidheight>
	</trkpt>
	<trkpt lat="50.714607" lon="6.136617">
		<ele>292</ele>
		<time>2011-09-11T08:04:03.844Z</time>
		<geoidheight>246</geoidheight>
	</trkpt>
	<trkpt lat="50.714617" lon="6.136632">
		<ele>292</ele>
		<time>2011-09-11T08:04:04.845Z</time>
		<geoidheight>246</geoidheight>
	</trkpt>
	<trkpt lat="50.714629" lon="6.136644">
		<ele>292</ele>
		<time>2011-09-11T08:04:05.842Z</time>
		<geoidheight>246</geoidheight>
	</trkpt>
	<trkpt lat="50.714638" lon="6.136658">
		<ele>292</ele>
		<time>2011-09-11T08:04:06.859Z</time>
		<geoidheight>246</geoidheight>
	</trkpt>
	<trkpt lat="50.714647" lon="6.136673">
		<ele>292</ele>
		<time>2011-09-11T08:04:07.840Z</time>
		<geoidheight>246</geoidheight>
	</trkpt>
	<trkpt lat="50.714649" lon="6.136695">
		<ele>292</ele>
		<time>2011-09-11T08:04:08.852Z</time>
		<geoidheight>246</geoidheight>
	</trkpt>
	<trkpt lat="50.714660" lon="6.136715">
		<ele>292</ele>
		<time>2011-09-11T08:04:09.851Z</time>
		<geoidheight>246</geoidheight>
	</trkpt>
	<trkpt lat="50.714669" lon="6.136738">
		<ele>292</ele>
		<time>2011-09-11T08:04:10.848Z</time>
		<geoidheight>246</geoidheight>
	</trkpt>
	<trkpt lat="50.714678" lon="6.136761">
		<ele>292</ele>
		<time>2011-09-11T08:04:11.840Z</time>
		<geoidheight>246</geoidheight>
	</trkpt>
	<trkpt lat="50.714688" lon="6.136786">
		<ele>292</ele>
		<time>2011-09-11T08:04:12.838Z</time>
		<geoidheight>246</geoidheight>
	</trkpt>
	<trkpt lat="50.714699" lon="6.136804">
		<ele>292</ele>
		<time>2011-09-11T08:04:13.841Z</time>
		<geoidheight>246</geoidheight>
	</trkpt>
	<trkpt lat="50.714706" lon="6.136824">
		<ele>292</ele>
		<time>2011-09-11T08:04:14.841Z</time>
		<geoidheight>246</geoidheight>
	</trkpt>
	<trkpt lat="50.714713" lon="6.136844">
		<ele>292</ele>
		<time>2011-09-11T08:04:15.839Z</time>
		<geoidheight>246</geoidheight>
	</trkpt>
	<trkpt lat="50.714718" lon="6.136866">
		<ele>293</ele>
		<time>2011-09-11T08:04:16.841Z</time>
		<geoidheight>247</geoidheight>
	</trkpt>
	<trkpt lat="50.714725" lon="6.136887">
		<ele>293</ele>
		<time>2011-09-11T08:04:17.838Z</time>
		<geoidheight>247</geoidheight>
	</trkpt>
	<trkpt lat="50.714728" lon="6.136909">
		<ele>293</ele>
		<time>2011-09-11T08:04:18.853Z</time>
		<geoidheight>247</geoidheight>
	</trkpt>
	<trkpt lat="50.714731" lon="6.136931">
		<ele>293</ele>
		<time>2011-09-11T08:04:19.839Z</time>
		<geoidheight>247</geoidheight>
	</trkpt>
	<trkpt lat="50.714737" lon="6.136952">
		<ele>293</ele>
		<time>2011-09-11T08:04:20.841Z</time>
		<geoidheight>247</geoidheight>
	</trkpt>
	<trkpt lat="50.714747" lon="6.136971">
		<ele>293</ele>
		<time>2011-09-11T08:04:21.840Z</time>
		<geoidheight>247</geoidheight>
	</trkpt>
	<trkpt lat="50.714759" lon="6.136985">
		<ele>293</ele>
		<time>2011-09-11T08:04:22.840Z</time>
		<geoidheight>247</geoidheight>
	</trkpt>
	<trkpt lat="50.714767" lon="6.137003">
		<ele>293</ele>
		<time>2011-09-11T08:04:23.842Z</time>
		<geoidheight>247</geoidheight>
	</trkpt>
	<trkpt lat="50.714775" lon="6.137020">
		<ele>293</ele>
		<time>2011-09-11T08:04:24.838Z</time>
		<geoidheight>247</geoidheight>
	</trkpt>
	<trkpt lat="50.714782" lon="6.137035">
		<ele>293</ele>
		<time>2011-09-11T08:04:25.840Z</time>
		<geoidheight>247</geoidheight>
	</trkpt>
	<trkpt lat="50.714789" lon="6.137050">
		<ele>293</ele>
		<time>2011-09-11T08:04:26.841Z</time>
		<geoidheight>247</geoidheight>
	</trkpt>
	<trkpt lat="50.714795" lon="6.137065">
		<ele>293</ele>
		<time>2011-09-11T08:04:27.838Z</time>
		<geoidheight>247</geoidheight>
	</trkpt>
	<trkpt lat="50.714800" lon="6.137084">
		<ele>293</ele>
		<time>2011-09-11T08:04:28.840Z</time>
		<geoidheight>247</geoidheight>
	</trkpt>
	<trkpt lat="50.714807" lon="6.137102">
		<ele>293</ele>
		<time>2011-09-11T08:04:29.840Z</time>
		<geoidheight>247</geoidheight>
	</trkpt>
	<trkpt lat="50.714812" lon="6.137121">
		<ele>293</ele>
		<time>2011-09-11T08:04:30.842Z</time>
		<geoidheight>247</geoidheight>
	</trkpt>
	<trkpt lat="50.714819" lon="6.137137">
		<ele>293</ele>
		<time>2011-09-11T08:04:31.858Z</time>
		<geoidheight>247</geoidheight>
	</trkpt>
	<trkpt lat="50.714826" lon="6.137151">
		<ele>293</ele>
		<time>2011-09-11T08:04:32.840Z</time>
		<geoidheight>247</geoidheight>
	</trkpt>
	<trkpt lat="50.714832" lon="6.137164">
		<ele>293</ele>
		<time>2011-09-11T08:04:33.841Z</time>
		<geoidheight>247</geoidheight>
	</trkpt>
	<trkpt lat="50.714838" lon="6.137178">
		<ele>293</ele>
		<time>2011-09-11T08:04:34.840Z</time>
		<geoidheight>247</geoidheight>
	</trkpt>
	<trkpt lat="50.714848" lon="6.137186">
		<ele>293</ele>
		<time>2011-09-11T08:04:35.840Z</time>
		<geoidheight>247</geoidheight>
	</trkpt>
	<trkpt lat="50.714856" lon="6.137189">
		<ele>293</ele>
		<time>2011-09-11T08:04:36.850Z</time>
		<geoidheight>247</geoidheight>
	</trkpt>
	<trkpt lat="50.714860" lon="6.137191">
		<ele>293</ele>
		<time>2011-09-11T08:04:37.854Z</time>
		<geoidheight>247</geoidheight>
	</trkpt>
	<trkpt lat="50.714860" lon="6.137191">
		<ele>293</ele>
		<time>2011-09-11T08:04:40.847Z</time>
		<geoidheight>247</geoidheight>
	</trkpt>
	<trkpt lat="50.714864" lon="6.137207">
		<ele>293</ele>
		<time>2011-09-11T08:04:41.844Z</time>
		<geoidheight>247</geoidheight>
	</trkpt>
	<trkpt lat="50.714868" lon="6.137221">
		<ele>293</ele>
		<time>2011-09-11T08:04:42.846Z</time>
		<geoidheight>247</geoidheight>
	</trkpt>
	<trkpt lat="50.714875" lon="6.137238">
		<ele>293</ele>
		<time>2011-09-11T08:04:43.841Z</time>
		<geoidheight>247</geoidheight>
	</trkpt>
	<trkpt lat="50.714879" lon="6.137256">
		<ele>293</ele>
		<time>2011-09-11T08:04:44.839Z</time>
		<geoidheight>247</geoidheight>
	</trkpt>
	<trkpt lat="50.714888" lon="6.137269">
		<ele>293</ele>
		<time>2011-09-11T08:04:45.841Z</time>
		<geoidheight>247</geoidheight>
	</trkpt>
	<trkpt lat="50.714894" lon="6.137285">
		<ele>293</ele>
		<time>2011-09-11T08:04:46.840Z</time>
		<geoidheight>247</geoidheight>
	</trkpt>
	<trkpt lat="50.714902" lon="6.137297">
		<ele>293</ele>
		<time>2011-09-11T08:04:47.839Z</time>
		<geoidheight>247</geoidheight>
	</trkpt>
	<trkpt lat="50.714908" lon="6.137308">
		<ele>294</ele>
		<time>2011-09-11T08:04:48.839Z</time>
		<geoidheight>248</geoidheight>
	</trkpt>
	<trkpt lat="50.714915" lon="6.137316">
		<ele>294</ele>
		<time>2011-09-11T08:04:49.840Z</time>
		<geoidheight>248</geoidheight>
	</trkpt>
	<trkpt lat="50.714918" lon="6.137327">
		<ele>294</ele>
		<time>2011-09-11T08:04:50.839Z</time>
		<geoidheight>248</geoidheight>
	</trkpt>
	<trkpt lat="50.714925" lon="6.137338">
		<ele>294</ele>
		<time>2011-09-11T08:04:51.844Z</time>
		<geoidheight>248</geoidheight>
	</trkpt>
	<trkpt lat="50.714932" lon="6.137350">
		<ele>294</ele>
		<time>2011-09-11T08:04:52.842Z</time>
		<geoidheight>248</geoidheight>
	</trkpt>
	<trkpt lat="50.714939" lon="6.137363">
		<ele>294</ele>
		<time>2011-09-11T08:04:53.844Z</time>
		<geoidheight>248</geoidheight>
	</trkpt>
	<trkpt lat="50.714949" lon="6.137374">
		<ele>294</ele>
		<time>2011-09-11T08:04:54.844Z</time>
		<geoidheight>248</geoidheight>
	</trkpt>
	<trkpt lat="50.714958" lon="6.137385">
		<ele>294</ele>
		<time>2011-09-11T08:04:55.842Z</time>
		<geoidheight>248</geoidheight>
	</trkpt>
	<trkpt lat="50.714967" lon="6.137398">
		<ele>294</ele>
		<time>2011-09-11T08:04:56.852Z</time>
		<geoidheight>248</geoidheight>
	</trkpt>
	<trkpt lat="50.714974" lon="6.137412">
		<ele>294</ele>
		<time>2011-09-11T08:04:57.841Z</time>
		<geoidheight>248</geoidheight>
	</trkpt>
	<trkpt lat="50.714981" lon="6.137427">
		<ele>294</ele>
		<time>2011-09-11T08:04:58.845Z</time>
		<geoidheight>248</geoidheight>
	</trkpt>
	<trkpt lat="50.714988" lon="6.137443">
		<ele>294</ele>
		<time>2011-09-11T08:04:59.845Z</time>
		<geoidheight>248</geoidheight>
	</trkpt>
	<trkpt lat="50.714995" lon="6.137459">
		<ele>294</ele>
		<time>2011-09-11T08:05:00.842Z</time>
		<geoidheight>248</geoidheight>
	</trkpt>
	<trkpt lat="50.715000" lon="6.137477">
		<ele>294</ele>
		<time>2011-09-11T08:05:01.843Z</time>
		<geoidheight>248</geoidheight>
	</trkpt>
	<trkpt lat="50.715006" lon="6.137490">
		<ele>294</ele>
		<time>2011-09-11T08:05:02.849Z</time>
		<geoidheight>248</geoidheight>
	</trkpt>
	<trkpt lat="50.715011" lon="6.137505">
		<ele>294</ele>
		<time>2011-09-11T08:05:03.846Z</time>
		<geoidheight>248</geoidheight>
	</trkpt>
	<trkpt lat="50.715017" lon="6.137522">
		<ele>294</ele>
		<time>2011-09-11T08:05:04.845Z</time>
		<geoidheight>248</geoidheight>
	</trkpt>
	<trkpt lat="50.715022" lon="6.137536">
		<ele>294</ele>
		<time>2011-09-11T08:05:05.848Z</time>
		<geoidheight>248</geoidheight>
	</trkpt>
	<trkpt lat="50.715027" lon="6.137551">
		<ele>294</ele>
		<time>2011-09-11T08:05:06.839Z</time>
		<geoidheight>248</geoidheight>
	</trkpt>
	<trkpt lat="50.715032" lon="6.137568">
		<ele>294</ele>
		<time>2011-09-11T08:05:07.840Z</time>
		<geoidheight>248</geoidheight>
	</trkpt>
	<trkpt lat="50.715039" lon="6.137583">
		<ele>294</ele>
		<time>2011-09-11T08:05:08.840Z</time>
		<geoidheight>248</geoidheight>
	</trkpt>
	<trkpt lat="50.715047" lon="6.137595">
		<ele>294</ele>
		<time>2011-09-11T08:05:09.840Z</time>
		<geoidheight>248</geoidheight>
	</trkpt>
	<trkpt lat="50.715054" lon="6.137609">
		<ele>294</ele>
		<time>2011-09-11T08:05:10.839Z</time>
		<geoidheight>248</geoidheight>
	</trkpt>
	<trkpt lat="50.715059" lon="6.137627">
		<ele>294</ele>
		<time>2011-09-11T08:05:11.841Z</time>
		<geoidheight>248</geoidheight>
	</trkpt>
	<trkpt lat="50.715068" lon="6.137641">
		<ele>294</ele>
		<time>2011-09-11T08:05:12.839Z</time>
		<geoidheight>248</geoidheight>
	</trkpt>
	<trkpt lat="50.715076" lon="6.137657">
		<ele>294</ele>
		<time>2011-09-11T08:05:13.839Z</time>
		<geoidheight>248</geoidheight>
	</trkpt>
	<trkpt lat="50.715082" lon="6.137676">
		<ele>294</ele>
		<time>2011-09-11T08:05:14.838Z</time>
		<geoidheight>248</geoidheight>
	</trkpt>
	<trkpt lat="50.715088" lon="6.137692">
		<ele>294</ele>
		<time>2011-09-11T08:05:15.842Z</time>
		<geoidheight>248</geoidheight>
	</trkpt>
	<trkpt lat="50.715096" lon="6.137710">
		<ele>294</ele>
		<time>2011-09-11T08:05:16.840Z</time>
		<geoidheight>248</geoidheight>
	</trkpt>
	<trkpt lat="50.715101" lon="6.137729">
		<ele>294</ele>
		<time>2011-09-11T08:05:17.839Z</time>
		<geoidheight>248</geoidheight>
	</trkpt>
	<trkpt lat="50.715110" lon="6.137744">
		<ele>294</ele>
		<time>2011-09-11T08:05:18.840Z</time>
		<geoidheight>248</geoidheight>
	</trkpt>
	<trkpt lat="50.715122" lon="6.137751">
		<ele>294</ele>
		<time>2011-09-11T08:05:19.840Z</time>
		<geoidheight>248</geoidheight>
	</trkpt>
	<trkpt lat="50.715133" lon="6.137758">
		<ele>294</ele>
		<time>2011-09-11T08:05:20.840Z</time>
		<geoidheight>248</geoidheight>
	</trkpt>
	<trkpt lat="50.715140" lon="6.137773">
		<ele>294</ele>
		<time>2011-09-11T08:05:21.840Z</time>
		<geoidheight>248</geoidheight>
	</trkpt>
	<trkpt lat="50.715148" lon="6.137789">
		<ele>294</ele>
		<time>2011-09-11T08:05:22.841Z</time>
		<geoidheight>248</geoidheight>
	</trkpt>
	<trkpt lat="50.715155" lon="6.137803">
		<ele>294</ele>
		<time>2011-09-11T08:05:23.840Z</time>
		<geoidheight>248</geoidheight>
	</trkpt>
	<trkpt lat="50.715161" lon="6.137820">
		<ele>294</ele>
		<time>2011-09-11T08:05:24.841Z</time>
		<geoidheight>248</geoidheight>
	</trkpt>
	<trkpt lat="50.715166" lon="6.137836">
		<ele>294</ele>
		<time>2011-09-11T08:05:25.841Z</time>
		<geoidheight>248</geoidheight>
	</trkpt>
	<trkpt lat="50.715173" lon="6.137847">
		<ele>294</ele>
		<time>2011-09-11T08:05:26.840Z</time>
		<geoidheight>248</geoidheight>
	</trkpt>
	<trkpt lat="50.715180" lon="6.137859">
		<ele>294</ele>
		<time>2011-09-11T08:05:27.841Z</time>
		<geoidheight>248</geoidheight>
	</trkpt>
	<trkpt lat="50.715185" lon="6.137872">
		<ele>294</ele>
		<time>2011-09-11T08:05:28.840Z</time>
		<geoidheight>248</geoidheight>
	</trkpt>
	<trkpt lat="50.715191" lon="6.137886">
		<ele>295</ele>
		<time>2011-09-11T08:05:29.840Z</time>
		<geoidheight>249</geoidheight>
	</trkpt>
	<trkpt lat="50.715197" lon="6.137901">
		<ele>295</ele>
		<time>2011-09-11T08:05:30.842Z</time>
		<geoidheight>249</geoidheight>
	</trkpt>
	<trkpt lat="50.715204" lon="6.137915">
		<ele>295</ele>
		<time>2011-09-11T08:05:31.842Z</time>
		<geoidheight>249</geoidheight>
	</trkpt>
	<trkpt lat="50.715213" lon="6.137930">
		<ele>295</ele>
		<time>2011-09-11T08:05:32.839Z</time>
		<geoidheight>249</geoidheight>
	</trkpt>
	<trkpt lat="50.715223" lon="6.137946">
		<ele>295</ele>
		<time>2011-09-11T08:05:33.840Z</time>
		<geoidheight>249</geoidheight>
	</trkpt>
	<trkpt lat="50.715235" lon="6.137958">
		<ele>295</ele>
		<time>2011-09-11T08:05:34.848Z</time>
		<geoidheight>249</geoidheight>
	</trkpt>
	<trkpt lat="50.715242" lon="6.137975">
		<ele>295</ele>
		<time>2011-09-11T08:05:35.838Z</time>
		<geoidheight>249</geoidheight>
	</trkpt>
	<trkpt lat="50.715250" lon="6.137990">
		<ele>295</ele>
		<time>2011-09-11T08:05:36.841Z</time>
		<geoidheight>249</geoidheight>
	</trkpt>
	<trkpt lat="50.715260" lon="6.138003">
		<ele>295</ele>
		<time>2011-09-11T08:05:37.845Z</time>
		<geoidheight>249</geoidheight>
	</trkpt>
	<trkpt lat="50.715266" lon="6.138017">
		<ele>295</ele>
		<time>2011-09-11T08:05:38.839Z</time>
		<geoidheight>249</geoidheight>
	</trkpt>
	<trkpt lat="50.715277" lon="6.138028">
		<ele>295</ele>
		<time>2011-09-11T08:05:39.839Z</time>
		<geoidheight>249</geoidheight>
	</trkpt>
	<trkpt lat="50.715288" lon="6.138039">
		<ele>295</ele>
		<time>2011-09-11T08:05:40.841Z</time>
		<geoidheight>249</geoidheight>
	</trkpt>
	<trkpt lat="50.715299" lon="6.138049">
		<ele>295</ele>
		<time>2011-09-11T08:05:41.840Z</time>
		<geoidheight>249</geoidheight>
	</trkpt>
	<trkpt lat="50.715311" lon="6.138058">
		<ele>295</ele>
		<time>2011-09-11T08:05:42.841Z</time>
		<geoidheight>249</geoidheight>
	</trkpt>
	<trkpt lat="50.715323" lon="6.138068">
		<ele>295</ele>
		<time>2011-09-11T08:05:43.839Z</time>
		<geoidheight>249</geoidheight>
	</trkpt>
	<trkpt lat="50.715334" lon="6.138079">
		<ele>295</ele>
		<time>2011-09-11T08:05:44.841Z</time>
		<geoidheight>249</geoidheight>
	</trkpt>
	<trkpt lat="50.715344" lon="6.138091">
		<ele>295</ele>
		<time>2011-09-11T08:05:45.850Z</time>
		<geoidheight>249</geoidheight>
	</trkpt>
	<trkpt lat="50.715354" lon="6.138104">
		<ele>295</ele>
		<time>2011-09-11T08:05:46.839Z</time>
		<geoidheight>249</geoidheight>
	</trkpt>
	<trkpt lat="50.715363" lon="6.138116">
		<ele>295</ele>
		<time>2011-09-11T08:05:47.841Z</time>
		<geoidheight>249</geoidheight>
	</trkpt>
	<trkpt lat="50.715374" lon="6.138127">
		<ele>295</ele>
		<time>2011-09-11T08:05:48.841Z</time>
		<geoidheight>249</geoidheight>
	</trkpt>
	<trkpt lat="50.715386" lon="6.138138">
		<ele>295</ele>
		<time>2011-09-11T08:05:49.839Z</time>
		<geoidheight>249</geoidheight>
	</trkpt>
	<trkpt lat="50.715398" lon="6.138149">
		<ele>295</ele>
		<time>2011-09-11T08:05:50.842Z</time>
		<geoidheight>249</geoidheight>
	</trkpt>
	<trkpt lat="50.715410" lon="6.138163">
		<ele>295</ele>
		<time>2011-09-11T08:05:51.838Z</time>
		<geoidheight>249</geoidheight>
	</trkpt>
	<trkpt lat="50.715423" lon="6.138175">
		<ele>295</ele>
		<time>2011-09-11T08:05:52.842Z</time>
		<geoidheight>249</geoidheight>
	</trkpt>
	<trkpt lat="50.715436" lon="6.138188">
		<ele>295</ele>
		<time>2011-09-11T08:05:53.841Z</time>
		<geoidheight>249</geoidheight>
	</trkpt>
	<trkpt lat="50.715444" lon="6.138206">
		<ele>295</ele>
		<time>2011-09-11T08:05:54.841Z</time>
		<geoidheight>249</geoidheight>
	</trkpt>
	<trkpt lat="50.715453" lon="6.138224">
		<ele>295</ele>
		<time>2011-09-11T08:05:55.850Z</time>
		<geoidheight>249</geoidheight>
	</trkpt>
	<trkpt lat="50.715460" lon="6.138244">
		<ele>295</ele>
		<time>2011-09-11T08:05:56.841Z</time>
		<geoidheight>249</geoidheight>
	</trkpt>
	<trkpt lat="50.715471" lon="6.138261">
		<ele>295</ele>
		<time>2011-09-11T08:05:57.839Z</time>
		<geoidheight>249</geoidheight>
	</trkpt>
	<trkpt lat="50.715481" lon="6.138275">
		<ele>295</ele>
		<time>2011-09-11T08:05:58.840Z</time>
		<geoidheight>249</geoidheight>
	</trkpt>
	<trkpt lat="50.715492" lon="6.138290">
		<ele>295</ele>
		<time>2011-09-11T08:05:59.839Z</time>
		<geoidheight>249</geoidheight>
	</trkpt>
	<trkpt lat="50.715502" lon="6.138306">
		<ele>295</ele>
		<time>2011-09-11T08:06:00.844Z</time>
		<geoidheight>249</geoidheight>
	</trkpt>
	<trkpt lat="50.715514" lon="6.138316">
		<ele>295</ele>
		<time>2011-09-11T08:06:01.840Z</time>
		<geoidheight>249</geoidheight>
	</trkpt>
	<trkpt lat="50.715524" lon="6.138329">
		<ele>295</ele>
		<time>2011-09-11T08:06:02.841Z</time>
		<geoidheight>249</geoidheight>
	</trkpt>
	<trkpt lat="50.715534" lon="6.138341">
		<ele>295</ele>
		<time>2011-09-11T08:06:03.844Z</time>
		<geoidheight>249</geoidheight>
	</trkpt>
	<trkpt lat="50.715545" lon="6.138354">
		<ele>295</ele>
		<time>2011-09-11T08:06:04.840Z</time>
		<geoidheight>249</geoidheight>
	</trkpt>
	<trkpt lat="50.715558" lon="6.138364">
		<ele>295</ele>
		<time>2011-09-11T08:06:05.840Z</time>
		<geoidheight>249</geoidheight>
	</trkpt>
	<trkpt lat="50.715571" lon="6.138374">
		<ele>295</ele>
		<time>2011-09-11T08:06:06.842Z</time>
		<geoidheight>249</geoidheight>
	</trkpt>
	<trkpt lat="50.715576" lon="6.138389">
		<ele>295</ele>
		<time>2011-09-11T08:06:07.838Z</time>
		<geoidheight>249</geoidheight>
	</trkpt>
	<trkpt lat="50.715581" lon="6.138404">
		<ele>296</ele>
		<time>2011-09-11T08:06:08.839Z</time>
		<geoidheight>250</geoidheight>
	</trkpt>
	<trkpt lat="50.715589" lon="6.138417">
		<ele>296</ele>
		<time>2011-09-11T08:06:09.843Z</time>
		<geoidheight>250</geoidheight>
	</trkpt>
	<trkpt lat="50.715594" lon="6.138436">
		<ele>296</ele>
		<time>2011-09-11T08:06:10.838Z</time>
		<geoidheight>250</geoidheight>
	</trkpt>
	<trkpt lat="50.715599" lon="6.138455">
		<ele>296</ele>
		<time>2011-09-11T08:06:11.839Z</time>
		<geoidheight>250</geoidheight>
	</trkpt>
	<trkpt lat="50.715609" lon="6.138467">
		<ele>296</ele>
		<time>2011-09-11T08:06:12.840Z</time>
		<geoidheight>250</geoidheight>
	</trkpt>
	<trkpt lat="50.715620" lon="6.138482">
		<ele>296</ele>
		<time>2011-09-11T08:06:13.842Z</time>
		<geoidheight>250</geoidheight>
	</trkpt>
	<trkpt lat="50.715629" lon="6.138499">
		<ele>296</ele>
		<time>2011-09-11T08:06:14.839Z</time>
		<geoidheight>250</geoidheight>
	</trkpt>
	<trkpt lat="50.715642" lon="6.138509">
		<ele>296</ele>
		<time>2011-09-11T08:06:15.841Z</time>
		<geoidheight>250</geoidheight>
	</trkpt>
	<trkpt lat="50.715655" lon="6.138519">
		<ele>296</ele>
		<time>2011-09-11T08:06:16.842Z</time>
		<geoidheight>250</geoidheight>
	</trkpt>
	<trkpt lat="50.715667" lon="6.138529">
		<ele>296</ele>
		<time>2011-09-11T08:06:17.841Z</time>
		<geoidheight>250</geoidheight>
	</trkpt>
	<trkpt lat="50.715679" lon="6.138542">
		<ele>296</ele>
		<time>2011-09-11T08:06:18.842Z</time>
		<geoidheight>250</geoidheight>
	</trkpt>
	<trkpt lat="50.715691" lon="6.138554">
		<ele>296</ele>
		<time>2011-09-11T08:06:19.848Z</time>
		<geoidheight>250</geoidheight>
	</trkpt>
	<trkpt lat="50.715702" lon="6.138567">
		<ele>296</ele>
		<time>2011-09-11T08:06:20.854Z</time>
		<geoidheight>250</geoidheight>
	</trkpt>
	<trkpt lat="50.715711" lon="6.138581">
		<ele>296</ele>
		<time>2011-09-11T08:06:21.841Z</time>
		<geoidheight>250</geoidheight>
	</trkpt>
	<trkpt lat="50.715722" lon="6.138593">
		<ele>296</ele>
		<time>2011-09-11T08:06:22.841Z</time>
		<geoidheight>250</geoidheight>
	</trkpt>
	<trkpt lat="50.715733" lon="6.138605">
		<ele>296</ele>
		<time>2011-09-11T08:06:23.842Z</time>
		<geoidheight>250</geoidheight>
	</trkpt>
	<trkpt lat="50.715742" lon="6.138620">
		<ele>296</ele>
		<time>2011-09-11T08:06:24.839Z</time>
		<geoidheight>250</geoidheight>
	</trkpt>
	<trkpt lat="50.715748" lon="6.138637">
		<ele>296</ele>
		<time>2011-09-11T08:06:25.839Z</time>
		<geoidheight>250</geoidheight>
	</trkpt>
	<trkpt lat="50.715757" lon="6.138651">
		<ele>296</ele>
		<time>2011-09-11T08:06:26.839Z</time>
		<geoidheight>250</geoidheight>
	</trkpt>
	<trkpt lat="50.715768" lon="6.138665">
		<ele>296</ele>
		<time>2011-09-11T08:06:27.840Z</time>
		<geoidheight>250</geoidheight>
	</trkpt>
	<trkpt lat="50.715773" lon="6.138684">
		<ele>296</ele>
		<time>2011-09-11T08:06:28.843Z</time>
		<geoidheight>250</geoidheight>
	</trkpt>
	<trkpt lat="50.715782" lon="6.138699">
		<ele>296</ele>
		<time>2011-09-11T08:06:29.842Z</time>
		<geoidheight>250</geoidheight>
	</trkpt>
	<trkpt lat="50.715792" lon="6.138714">
		<ele>296</ele>
		<time>2011-09-11T08:06:30.842Z</time>
		<geoidheight>250</geoidheight>
	</trkpt>
	<trkpt lat="50.715801" lon="6.138730">
		<ele>296</ele>
		<time>2011-09-11T08:06:31.840Z</time>
		<geoidheight>250</geoidheight>
	</trkpt>
	<trkpt lat="50.715811" lon="6.138745">
		<ele>296</ele>
		<time>2011-09-11T08:06:32.840Z</time>
		<geoidheight>250</geoidheight>
	</trkpt>
	<trkpt lat="50.715825" lon="6.138759">
		<ele>296</ele>
		<time>2011-09-11T08:06:33.840Z</time>
		<geoidheight>250</geoidheight>
	</trkpt>
	<trkpt lat="50.715839" lon="6.138777">
		<ele>297</ele>
		<time>2011-09-11T08:06:34.840Z</time>
		<geoidheight>251</geoidheight>
	</trkpt>
	<trkpt lat="50.715856" lon="6.138798">
		<ele>297</ele>
		<time>2011-09-11T08:06:35.842Z</time>
		<geoidheight>251</geoidheight>
	</trkpt>
	<trkpt lat="50.715879" lon="6.138806">
		<ele>297</ele>
		<time>2011-09-11T08:06:36.841Z</time>
		<geoidheight>251</geoidheight>
	</trkpt>
	<trkpt lat="50.715904" lon="6.138808">
		<ele>297</ele>
		<time>2011-09-11T08:06:37.847Z</time>
		<geoidheight>251</geoidheight>
	</trkpt>
	<trkpt lat="50.715929" lon="6.138812">
		<ele>297</ele>
		<time>2011-09-11T08:06:38.841Z</time>
		<geoidheight>251</geoidheight>
	</trkpt>
	<trkpt lat="50.715949" lon="6.138822">
		<ele>297</ele>
		<time>2011-09-11T08:06:39.845Z</time>
		<geoidheight>251</geoidheight>
	</trkpt>
	<trkpt lat="50.715965" lon="6.138836">
		<ele>297</ele>
		<time>2011-09-11T08:06:40.840Z</time>
		<geoidheight>251</geoidheight>
	</trkpt>
	<trkpt lat="50.715987" lon="6.138850">
		<ele>297</ele>
		<time>2011-09-11T08:06:41.840Z</time>
		<geoidheight>251</geoidheight>
	</trkpt>
	<trkpt lat="50.716006" lon="6.138862">
		<ele>297</ele>
		<time>2011-09-11T08:06:42.844Z</time>
		<geoidheight>251</geoidheight>
	</trkpt>
	<trkpt lat="50.716020" lon="6.138872">
		<ele>297</ele>
		<time>2011-09-11T08:06:43.842Z</time>
		<geoidheight>251</geoidheight>
	</trkpt>
	<trkpt lat="50.716034" lon="6.138884">
		<ele>297</ele>
		<time>2011-09-11T08:06:44.844Z</time>
		<geoidheight>251</geoidheight>
	</trkpt>
	<trkpt lat="50.716048" lon="6.138894">
		<ele>297</ele>
		<time>2011-09-11T08:06:45.843Z</time>
		<geoidheight>251</geoidheight>
	</trkpt>
	<trkpt lat="50.716061" lon="6.138908">
		<ele>297</ele>
		<time>2011-09-11T08:06:46.839Z</time>
		<geoidheight>251</geoidheight>
	</trkpt>
	<trkpt lat="50.716076" lon="6.138922">
		<ele>297</ele>
		<time>2011-09-11T08:06:47.840Z</time>
		<geoidheight>251</geoidheight>
	</trkpt>
	<trkpt lat="50.716088" lon="6.138937">
		<ele>297</ele>
		<time>2011-09-11T08:06:48.841Z</time>
		<geoidheight>251</geoidheight>
	</trkpt>
	<trkpt lat="50.716101" lon="6.138955">
		<ele>297</ele>
		<time>2011-09-11T08:06:49.840Z</time>
		<geoidheight>251</geoidheight>
	</trkpt>
	<trkpt lat="50.716113" lon="6.138973">
		<ele>297</ele>
		<time>2011-09-11T08:06:50.840Z</time>
		<geoidheight>251</geoidheight>
	</trkpt>
	<trkpt lat="50.716124" lon="6.138991">
		<ele>297</ele>
		<time>2011-09-11T08:06:51.843Z</time>
		<geoidheight>251</geoidheight>
	</trkpt>
	<trkpt lat="50.716135" lon="6.139008">
		<ele>297</ele>
		<time>2011-09-11T08:06:52.840Z</time>
		<geoidheight>251</geoidheight>
	</trkpt>
	<trkpt lat="50.716147" lon="6.139020">
		<ele>297</ele>
		<time>2011-09-11T08:06:53.840Z</time>
		<geoidheight>251</geoidheight>
	</trkpt>
	<trkpt lat="50.716160" lon="6.139031">
		<ele>297</ele>
		<time>2011-09-11T08:06:54.845Z</time>
		<geoidheight>251</geoidheight>
	</trkpt>
	<trkpt lat="50.716174" lon="6.139042">
		<ele>297</ele>
		<time>2011-09-11T08:06:55.841Z</time>
		<geoidheight>251</geoidheight>
	</trkpt>
	<trkpt lat="50.716188" lon="6.139052">
		<ele>297</ele>
		<time>2011-09-11T08:06:56.839Z</time>
		<geoidheight>251</geoidheight>
	</trkpt>
	<trkpt lat="50.716202" lon="6.139064">
		<ele>297</ele>
		<time>2011-09-11T08:06:57.841Z</time>
		<geoidheight>251</geoidheight>
	</trkpt>
	<trkpt lat="50.716209" lon="6.139082">
		<ele>297</ele>
		<time>2011-09-11T08:06:58.842Z</time>
		<geoidheight>251</geoidheight>
	</trkpt>
	<trkpt lat="50.716211" lon="6.139102">
		<ele>297</ele>
		<time>2011-09-11T08:06:59.846Z</time>
		<geoidheight>251</geoidheight>
	</trkpt>
	<trkpt lat="50.716221" lon="6.139121">
		<ele>297</ele>
		<time>2011-09-11T08:07:00.842Z</time>
		<geoidheight>251</geoidheight>
	</trkpt>
	<trkpt lat="50.716237" lon="6.139133">
		<ele>297</ele>
		<time>2011-09-11T08:07:01.845Z</time>
		<geoidheight>251</geoidheight>
	</trkpt>
	<trkpt lat="50.716253" lon="6.139143">
		<ele>297</ele>
		<time>2011-09-11T08:07:02.849Z</time>
		<geoidheight>251</geoidheight>
	</trkpt>
	<trkpt lat="50.716266" lon="6.139153">
		<ele>297</ele>
		<time>2011-09-11T08:07:03.846Z</time>
		<geoidheight>251</geoidheight>
	</trkpt>
	<trkpt lat="50.716274" lon="6.139171">
		<ele>297</ele>
		<time>2011-09-11T08:07:04.845Z</time>
		<geoidheight>251</geoidheight>
	</trkpt>
	<trkpt lat="50.716283" lon="6.139189">
		<ele>297</ele>
		<time>2011-09-11T08:07:05.840Z</time>
		<geoidheight>251</geoidheight>
	</trkpt>
	<trkpt lat="50.716289" lon="6.139210">
		<ele>297</ele>
		<time>2011-09-11T08:07:06.854Z</time>
		<geoidheight>251</geoidheight>
	</trkpt>
	<trkpt lat="50.716288" lon="6.139232">
		<ele>297</ele>
		<time>2011-09-11T08:07:07.843Z</time>
		<geoidheight>251</geoidheight>
	</trkpt>
	<trkpt lat="50.716288" lon="6.139253">
		<ele>297</ele>
		<time>2011-09-11T08:07:08.844Z</time>
		<geoidheight>251</geoidheight>
	</trkpt>
	<trkpt lat="50.716286" lon="6.139272">
		<ele>297</ele>
		<time>2011-09-11T08:07:09.841Z</time>
		<geoidheight>251</geoidheight>
	</trkpt>
	<trkpt lat="50.716275" lon="6.139290">
		<ele>297</ele>
		<time>2011-09-11T08:07:10.846Z</time>
		<geoidheight>251</geoidheight>
	</trkpt>
	<trkpt lat="50.716266" lon="6.139309">
		<ele>297</ele>
		<time>2011-09-11T08:07:11.848Z</time>
		<geoidheight>251</geoidheight>
	</trkpt>
	<trkpt lat="50.716262" lon="6.139330">
		<ele>297</ele>
		<time>2011-09-11T08:07:12.844Z</time>
		<geoidheight>251</geoidheight>
	</trkpt>
	<trkpt lat="50.716264" lon="6.139350">
		<ele>297</ele>
		<time>2011-09-11T08:07:13.840Z</time>
		<geoidheight>251</geoidheight>
	</trkpt>
	<trkpt lat="50.716267" lon="6.139366">
		<ele>297</ele>
		<time>2011-09-11T08:07:14.843Z</time>
		<geoidheight>251</geoidheight>
	</trkpt>
	<trkpt lat="50.716266" lon="6.139382">
		<ele>297</ele>
		<time>2011-09-11T08:07:15.840Z</time>
		<geoidheight>251</geoidheight>
	</trkpt>
	<trkpt lat="50.716266" lon="6.139398">
		<ele>297</ele>
		<time>2011-09-11T08:07:16.841Z</time>
		<geoidheight>251</geoidheight>
	</trkpt>
	<trkpt lat="50.716270" lon="6.139416">
		<ele>297</ele>
		<time>2011-09-11T08:07:17.844Z</time>
		<geoidheight>251</geoidheight>
	</trkpt>
	<trkpt lat="50.716277" lon="6.139432">
		<ele>297</ele>
		<time>2011-09-11T08:07:18.850Z</time>
		<geoidheight>251</geoidheight>
	</trkpt>
	<trkpt lat="50.716283" lon="6.139448">
		<ele>297</ele>
		<time>2011-09-11T08:07:19.848Z</time>
		<geoidheight>251</geoidheight>
	</trkpt>
	<trkpt lat="50.716290" lon="6.139463">
		<ele>297</ele>
		<time>2011-09-11T08:07:20.846Z</time>
		<geoidheight>251</geoidheight>
	</trkpt>
	<trkpt lat="50.716290" lon="6.139480">
		<ele>296</ele>
		<time>2011-09-11T08:07:21.846Z</time>
		<geoidheight>250</geoidheight>
	</trkpt>
	<trkpt lat="50.716289" lon="6.139498">
		<ele>296</ele>
		<time>2011-09-11T08:07:22.844Z</time>
		<geoidheight>250</geoidheight>
	</trkpt>
	<trkpt lat="50.716289" lon="6.139516">
		<ele>296</ele>
		<time>2011-09-11T08:07:23.845Z</time>
		<geoidheight>250</geoidheight>
	</trkpt>
	<trkpt lat="50.716288" lon="6.139538">
		<ele>296</ele>
		<time>2011-09-11T08:07:24.843Z</time>
		<geoidheight>250</geoidheight>
	</trkpt>
	<trkpt lat="50.716293" lon="6.139562">
		<ele>296</ele>
		<time>2011-09-11T08:07:25.845Z</time>
		<geoidheight>250</geoidheight>
	</trkpt>
	<trkpt lat="50.716297" lon="6.139586">
		<ele>296</ele>
		<time>2011-09-11T08:07:26.841Z</time>
		<geoidheight>250</geoidheight>
	</trkpt>
	<trkpt lat="50.716302" lon="6.139610">
		<ele>296</ele>
		<time>2011-09-11T08:07:27.842Z</time>
		<geoidheight>250</geoidheight>
	</trkpt>
	<trkpt lat="50.716306" lon="6.139631">
		<ele>296</ele>
		<time>2011-09-11T08:07:28.846Z</time>
		<geoidheight>250</geoidheight>
	</trkpt>
	<trkpt lat="50.716307" lon="6.139652">
		<ele>296</ele>
		<time>2011-09-11T08:07:29.848Z</time>
		<geoidheight>250</geoidheight>
	</trkpt>
	<trkpt lat="50.716307" lon="6.139672">
		<ele>296</ele>
		<time>2011-09-11T08:07:30.844Z</time>
		<geoidheight>250</geoidheight>
	</trkpt>
	<trkpt lat="50.716309" lon="6.139691">
		<ele>296</ele>
		<time>2011-09-11T08:07:31.845Z</time>
		<geoidheight>250</geoidheight>
	</trkpt>
	<trkpt lat="50.716310" lon="6.139712">
		<ele>296</ele>
		<time>2011-09-11T08:07:32.846Z</time>
		<geoidheight>250</geoidheight>
	</trkpt>
	<trkpt lat="50.716305" lon="6.139732">
		<ele>296</ele>
		<time>2011-09-11T08:07:33.847Z</time>
		<geoidheight>250</geoidheight>
	</trkpt>
	<trkpt lat="50.716302" lon="6.139752">
		<ele>296</ele>
		<time>2011-09-11T08:07:34.842Z</time>
		<geoidheight>250</geoidheight>
	</trkpt>
	<trkpt lat="50.716301" lon="6.139770">
		<ele>296</ele>
		<time>2011-09-11T08:07:35.850Z</time>
		<geoidheight>250</geoidheight>
	</trkpt>
	<trkpt lat="50.716301" lon="6.139787">
		<ele>296</ele>
		<time>2011-09-11T08:07:36.846Z</time>
		<geoidheight>250</geoidheight>
	</trkpt>
	<trkpt lat="50.716299" lon="6.139803">
		<ele>296</ele>
		<time>2011-09-11T08:07:37.843Z</time>
		<geoidheight>250</geoidheight>
	</trkpt>
	<trkpt lat="50.716299" lon="6.139821">
		<ele>296</ele>
		<time>2011-09-11T08:07:38.850Z</time>
		<geoidheight>250</geoidheight>
	</trkpt>
	<trkpt lat="50.716299" lon="6.139839">
		<ele>296</ele>
		<time>2011-09-11T08:07:39.846Z</time>
		<geoidheight>250</geoidheight>
	</trkpt>
	<trkpt lat="50.716299" lon="6.139858">
		<ele>296</ele>
		<time>2011-09-11T08:07:40.845Z</time>
		<geoidheight>250</geoidheight>
	</trkpt>
	<trkpt lat="50.716305" lon="6.139873">
		<ele>296</ele>
		<time>2011-09-11T08:07:41.843Z</time>
		<geoidheight>250</geoidheight>
	</trkpt>
	<trkpt lat="50.716309" lon="6.139888">
		<ele>296</ele>
		<time>2011-09-11T08:07:42.846Z</time>
		<geoidheight>250</geoidheight>
	</trkpt>
	<trkpt lat="50.716309" lon="6.139905">
		<ele>296</ele>
		<time>2011-09-11T08:07:43.845Z</time>
		<geoidheight>250</geoidheight>
	</trkpt>
	<trkpt lat="50.716311" lon="6.139923">
		<ele>296</ele>
		<time>2011-09-11T08:07:44.853Z</time>
		<geoidheight>250</geoidheight>
	</trkpt>
	<trkpt lat="50.716311" lon="6.139940">
		<ele>296</ele>
		<time>2011-09-11T08:07:45.853Z</time>
		<geoidheight>250</geoidheight>
	</trkpt>
	<trkpt lat="50.716311" lon="6.139956">
		<ele>296</ele>
		<time>2011-09-11T08:07:46.847Z</time>
		<geoidheight>250</geoidheight>
	</trkpt>
	<trkpt lat="50.716312" lon="6.139973">
		<ele>296</ele>
		<time>2011-09-11T08:07:47.841Z</time>
		<geoidheight>250</geoidheight>
	</trkpt>
	<trkpt lat="50.716311" lon="6.139991">
		<ele>296</ele>
		<time>2011-09-11T08:07:48.848Z</time>
		<geoidheight>250</geoidheight>
	</trkpt>
	<trkpt lat="50.716313" lon="6.140009">
		<ele>296</ele>
		<time>2011-09-11T08:07:49.848Z</time>
		<geoidheight>250</geoidheight>
	</trkpt>
	<trkpt lat="50.716314" lon="6.140027">
		<ele>296</ele>
		<time>2011-09-11T08:07:50.850Z</time>
		<geoidheight>250</geoidheight>
	</trkpt>
	<trkpt lat="50.716315" lon="6.140047">
		<ele>296</ele>
		<time>2011-09-11T08:07:51.840Z</time>
		<geoidheight>250</geoidheight>
	</trkpt>
	<trkpt lat="50.716317" lon="6.140066">
		<ele>296</ele>
		<time>2011-09-11T08:07:52.843Z</time>
		<geoidheight>250</geoidheight>
	</trkpt>
	<trkpt lat="50.716324" lon="6.140088">
		<ele>296</ele>
		<time>2011-09-11T08:07:53.842Z</time>
		<geoidheight>250</geoidheight>
	</trkpt>
	<trkpt lat="50.716328" lon="6.140109">
		<ele>296</ele>
		<time>2011-09-11T08:07:54.840Z</time>
		<geoidheight>250</geoidheight>
	</trkpt>
	<trkpt lat="50.716329" lon="6.140130">
		<ele>296</ele>
		<time>2011-09-11T08:07:55.840Z</time>
		<geoidheight>250</geoidheight>
	</trkpt>
	<trkpt lat="50.716331" lon="6.140149">
		<ele>296</ele>
		<time>2011-09-11T08:07:56.843Z</time>
		<geoidheight>250</geoidheight>
	</trkpt>
	<trkpt lat="50.716341" lon="6.140167">
		<ele>296</ele>
		<time>2011-09-11T08:07:57.845Z</time>
		<geoidheight>250</geoidheight>
	</trkpt>
	<trkpt lat="50.716347" lon="6.140189">
		<ele>296</ele>
		<time>2011-09-11T08:07:58.841Z</time>
		<geoidheight>250</geoidheight>
	</trkpt>
	<trkpt lat="50.716352" lon="6.140214">
		<ele>296</ele>
		<time>2011-09-11T08:07:59.842Z</time>
		<geoidheight>250</geoidheight>
	</trkpt>
	<trkpt lat="50.716359" lon="6.140236">
		<ele>296</ele>
		<time>2011-09-11T08:08:00.840Z</time>
		<geoidheight>250</geoidheight>
	</trkpt>
	<trkpt lat="50.716362" lon="6.140264">
		<ele>296</ele>
		<time>2011-09-11T08:08:01.841Z</time>
		<geoidheight>250</geoidheight>
	</trkpt>
	<trkpt lat="50.716373" lon="6.140290">
		<ele>296</ele>
		<time>2011-09-11T08:08:02.842Z</time>
		<geoidheight>250</geoidheight>
	</trkpt>
	<trkpt lat="50.716382" lon="6.140316">
		<ele>296</ele>
		<time>2011-09-11T08:08:03.842Z</time>
		<geoidheight>250</geoidheight>
	</trkpt>
	<trkpt lat="50.716392" lon="6.140340">
		<ele>296</ele>
		<time>2011-09-11T08:08:04.841Z</time>
		<geoidheight>250</geoidheight>
	</trkpt>
	<trkpt lat="50.716402" lon="6.140366">
		<ele>296</ele>
		<time>2011-09-11T08:08:05.843Z</time>
		<geoidheight>250</geoidheight>
	</trkpt>
	<trkpt lat="50.716408" lon="6.140391">
		<ele>296</ele>
		<time>2011-09-11T08:08:06.840Z</time>
		<geoidheight>250</geoidheight>
	</trkpt>
	<trkpt lat="50.716414" lon="6.140418">
		<ele>296</ele>
		<time>2011-09-11T08:08:07.843Z</time>
		<geoidheight>250</geoidheight>
	</trkpt>
	<trkpt lat="50.716420" lon="6.140442">
		<ele>295</ele>
		<time>2011-09-11T08:08:08.845Z</time>
		<geoidheight>249</geoidheight>
	</trkpt>
	<trkpt lat="50.716422" lon="6.140464">
		<ele>295</ele>
		<time>2011-09-11T08:08:09.841Z</time>
		<geoidheight>249</geoidheight>
	</trkpt>
	<trkpt lat="50.716425" lon="6.140485">
		<ele>295</ele>
		<time>2011-09-11T08:08:10.845Z</time>
		<geoidheight>249</geoidheight>
	</trkpt>
	<trkpt lat="50.716428" lon="6.140506">
		<ele>295</ele>
		<time>2011-09-11T08:08:11.843Z</time>
		<geoidheight>249</geoidheight>
	</trkpt>
	<trkpt lat="50.716432" lon="6.140527">
		<ele>295</ele>
		<time>2011-09-11T08:08:12.847Z</time>
		<geoidheight>249</geoidheight>
	</trkpt>
	<trkpt lat="50.716435" lon="6.140549">
		<ele>295</ele>
		<time>2011-09-11T08:08:13.849Z</time>
		<geoidheight>249</geoidheight>
	</trkpt>
	<trkpt lat="50.716440" lon="6.140570">
		<ele>295</ele>
		<time>2011-09-11T08:08:14.849Z</time>
		<geoidheight>249</geoidheight>
	</trkpt>
	<trkpt lat="50.716442" lon="6.140592">
		<ele>295</ele>
		<time>2011-09-11T08:08:15.842Z</time>
		<geoidheight>249</geoidheight>
	</trkpt>
	<trkpt lat="50.716445" lon="6.140612">
		<ele>295</ele>
		<time>2011-09-11T08:08:16.841Z</time>
		<geoidheight>249</geoidheight>
	</trkpt>
	<trkpt lat="50.716448" lon="6.140632">
		<ele>295</ele>
		<time>2011-09-11T08:08:17.848Z</time>
		<geoidheight>249</geoidheight>
	</trkpt>
	<trkpt lat="50.716448" lon="6.140653">
		<ele>295</ele>
		<time>2011-09-11T08:08:18.843Z</time>
		<geoidheight>249</geoidheight>
	</trkpt>
	<trkpt lat="50.716451" lon="6.140674">
		<ele>295</ele>
		<time>2011-09-11T08:08:19.842Z</time>
		<geoidheight>249</geoidheight>
	</trkpt>
	<trkpt lat="50.716452" lon="6.140693">
		<ele>295</ele>
		<time>2011-09-11T08:08:20.841Z</time>
		<geoidheight>249</geoidheight>
	</trkpt>
	<trkpt lat="50.716453" lon="6.140712">
		<ele>295</ele>
		<time>2011-09-11T08:08:21.842Z</time>
		<geoidheight>249</geoidheight>
	</trkpt>
	<trkpt lat="50.716463" lon="6.140725">
		<ele>295</ele>
		<time>2011-09-11T08:08:22.842Z</time>
		<geoidheight>249</geoidheight>
	</trkpt>
	<trkpt lat="50.716468" lon="6.140744">
		<ele>295</ele>
		<time>2011-09-11T08:08:23.842Z</time>
		<geoidheight>249</geoidheight>
	</trkpt>
	<trkpt lat="50.716468" lon="6.140765">
		<ele>295</ele>
		<time>2011-09-11T08:08:24.851Z</time>
		<geoidheight>249</geoidheight>
	</trkpt>
	<trkpt lat="50.716469" lon="6.140790">
		<ele>295</ele>
		<time>2011-09-11T08:08:25.850Z</time>
		<geoidheight>249</geoidheight>
	</trkpt>
	<trkpt lat="50.716470" lon="6.140813">
		<ele>295</ele>
		<time>2011-09-11T08:08:26.841Z</time>
		<geoidheight>249</geoidheight>
	</trkpt>
	<trkpt lat="50.716472" lon="6.140835">
		<ele>295</ele>
		<time>2011-09-11T08:08:27.842Z</time>
		<geoidheight>249</geoidheight>
	</trkpt>
	<trkpt lat="50.716477" lon="6.140856">
		<ele>295</ele>
		<time>2011-09-11T08:08:28.843Z</time>
		<geoidheight>249</geoidheight>
	</trkpt>
	<trkpt lat="50.716477" lon="6.140876">
		<ele>295</ele>
		<time>2011-09-11T08:08:29.841Z</time>
		<geoidheight>249</geoidheight>
	</trkpt>
	<trkpt lat="50.716477" lon="6.140897">
		<ele>295</ele>
		<time>2011-09-11T08:08:30.841Z</time>
		<geoidheight>249</geoidheight>
	</trkpt>
	<trkpt lat="50.716477" lon="6.140918">
		<ele>295</ele>
		<time>2011-09-11T08:08:31.844Z</time>
		<geoidheight>249</geoidheight>
	</trkpt>
	<trkpt lat="50.716478" lon="6.140938">
		<ele>295</ele>
		<time>2011-09-11T08:08:32.841Z</time>
		<geoidheight>249</geoidheight>
	</trkpt>
	<trkpt lat="50.716481" lon="6.140958">
		<ele>295</ele>
		<time>2011-09-11T08:08:33.841Z</time>
		<geoidheight>249</geoidheight>
	</trkpt>
	<trkpt lat="50.716484" lon="6.140976">
		<ele>294</ele>
		<time>2011-09-11T08:08:34.844Z</time>
		<geoidheight>248</geoidheight>
	</trkpt>
	<trkpt lat="50.716487" lon="6.140995">
		<ele>294</ele>
		<time>2011-09-11T08:08:35.843Z</time>
		<geoidheight>248</geoidheight>
	</trkpt>
	<trkpt lat="50.716487" lon="6.141015">
		<ele>294</ele>
		<time>2011-09-11T08:08:36.846Z</time>
		<geoidheight>248</geoidheight>
	</trkpt>
	<trkpt lat="50.716491" lon="6.141034">
		<ele>294</ele>
		<time>2011-09-11T08:08:37.844Z</time>
		<geoidheight>248</geoidheight>
	</trkpt>
	<trkpt lat="50.716495" lon="6.141053">
		<ele>294</ele>
		<time>2011-09-11T08:08:38.843Z</time>
		<geoidheight>248</geoidheight>
	</trkpt>
	<trkpt lat="50.716496" lon="6.141074">
		<ele>294</ele>
		<time>2011-09-11T08:08:39.844Z</time>
		<geoidheight>248</geoidheight>
	</trkpt>
	<trkpt lat="50.716498" lon="6.141092">
		<ele>294</ele>
		<time>2011-09-11T08:08:40.847Z</time>
		<geoidheight>248</geoidheight>
	</trkpt>
	<trkpt lat="50.716502" lon="6.141112">
		<ele>294</ele>
		<time>2011-09-11T08:08:41.844Z</time>
		<geoidheight>248</geoidheight>
	</trkpt>
	<trkpt lat="50.716506" lon="6.141131">
		<ele>294</ele>
		<time>2011-09-11T08:08:42.848Z</time>
		<geoidheight>248</geoidheight>
	</trkpt>
	<trkpt lat="50.716510" lon="6.141150">
		<ele>294</ele>
		<time>2011-09-11T08:08:43.843Z</time>
		<geoidheight>248</geoidheight>
	</trkpt>
	<trkpt lat="50.716514" lon="6.141168">
		<ele>294</ele>
		<time>2011-09-11T08:08:44.848Z</time>
		<geoidheight>248</geoidheight>
	</trkpt>
	<trkpt lat="50.716515" lon="6.141188">
		<ele>294</ele>
		<time>2011-09-11T08:08:45.844Z</time>
		<geoidheight>248</geoidheight>
	</trkpt>
	<trkpt lat="50.716515" lon="6.141209">
		<ele>294</ele>
		<time>2011-09-11T08:08:46.845Z</time>
		<geoidheight>248</geoidheight>
	</trkpt>
	<trkpt lat="50.716517" lon="6.141229">
		<ele>294</ele>
		<time>2011-09-11T08:08:47.844Z</time>
		<geoidheight>248</geoidheight>
	</trkpt>
	<trkpt lat="50.716521" lon="6.141247">
		<ele>294</ele>
		<time>2011-09-11T08:08:48.841Z</time>
		<geoidheight>248</geoidheight>
	</trkpt>
	<trkpt lat="50.716525" lon="6.141263">
		<ele>294</ele>
		<time>2011-09-11T08:08:49.846Z</time>
		<geoidheight>248</geoidheight>
	</trkpt>
	<trkpt lat="50.716529" lon="6.141277">
		<ele>294</ele>
		<time>2011-09-11T08:08:50.844Z</time>
		<geoidheight>248</geoidheight>
	</trkpt>
	<trkpt lat="50.716529" lon="6.141295">
		<ele>294</ele>
		<time>2011-09-11T08:08:51.846Z</time>
		<geoidheight>248</geoidheight>
	</trkpt>
	<trkpt lat="50.716530" lon="6.141315">
		<ele>294</ele>
		<time>2011-09-11T08:08:52.843Z</time>
		<geoidheight>248</geoidheight>
	</trkpt>
	<trkpt lat="50.716528" lon="6.141335">
		<ele>294</ele>
		<time>2011-09-11T08:08:53.846Z</time>
		<geoidheight>248</geoidheight>
	</trkpt>
	<trkpt lat="50.716534" lon="6.141351">
		<ele>294</ele>
		<time>2011-09-11T08:08:54.843Z</time>
		<geoidheight>248</geoidheight>
	</trkpt>
	<trkpt lat="50.716538" lon="6.141369">
		<ele>294</ele>
		<time>2011-09-11T08:08:55.858Z</time>
		<geoidheight>248</geoidheight>
	</trkpt>
	<trkpt lat="50.716541" lon="6.141389">
		<ele>294</ele>
		<time>2011-09-11T08:08:56.856Z</time>
		<geoidheight>248</geoidheight>
	</trkpt>
	<trkpt lat="50.716539" lon="6.141412">
		<ele>294</ele>
		<time>2011-09-11T08:08:57.852Z</time>
		<geoidheight>248</geoidheight>
	</trkpt>
	<trkpt lat="50.716538" lon="6.141435">
		<ele>294</ele>
		<time>2011-09-11T08:08:58.857Z</time>
		<geoidheight>248</geoidheight>
	</trkpt>
	<trkpt lat="50.716533" lon="6.141457">
		<ele>294</ele>
		<time>2011-09-11T08:08:59.859Z</time>
		<geoidheight>248</geoidheight>
	</trkpt>
	<trkpt lat="50.716533" lon="6.141479">
		<ele>294</ele>
		<time>2011-09-11T08:09:00.855Z</time>
		<geoidheight>248</geoidheight>
	</trkpt>
	<trkpt lat="50.716532" lon="6.141500">
		<ele>294</ele>
		<time>2011-09-11T08:09:01.856Z</time>
		<geoidheight>248</geoidheight>
	</trkpt>
	<trkpt lat="50.716526" lon="6.141524">
		<ele>294</ele>
		<time>2011-09-11T08:09:02.857Z</time>
		<geoidheight>248</geoidheight>
	</trkpt>
	<trkpt lat="50.716523" lon="6.141550">
		<ele>294</ele>
		<time>2011-09-11T08:09:03.853Z</time>
		<geoidheight>248</geoidheight>
	</trkpt>
	<trkpt lat="50.716518" lon="6.141579">
		<ele>294</ele>
		<time>2011-09-11T08:09:04.853Z</time>
		<geoidheight>248</geoidheight>
	</trkpt>
	<trkpt lat="50.716509" lon="6.141604">
		<ele>294</ele>
		<time>2011-09-11T08:09:05.855Z</time>
		<geoidheight>248</geoidheight>
	</trkpt>
	<trkpt lat="50.716499" lon="6.141624">
		<ele>294</ele>
		<time>2011-09-11T08:09:06.855Z</time>
		<geoidheight>248</geoidheight>
	</trkpt>
	<trkpt lat="50.716489" lon="6.141645">
		<ele>293</ele>
		<time>2011-09-11T08:09:07.849Z</time>
		<geoidheight>247</geoidheight>
	</trkpt>
	<trkpt lat="50.716481" lon="6.141665">
		<ele>293</ele>
		<time>2011-09-11T08:09:08.853Z</time>
		<geoidheight>247</geoidheight>
	</trkpt>
	<trkpt lat="50.716473" lon="6.141687">
		<ele>293</ele>
		<time>2011-09-11T08:09:09.857Z</time>
		<geoidheight>247</geoidheight>
	</trkpt>
	<trkpt lat="50.716466" lon="6.141708">
		<ele>293</ele>
		<time>2011-09-11T08:09:10.851Z</time>
		<geoidheight>247</geoidheight>
	</trkpt>
	<trkpt lat="50.716455" lon="6.141731">
		<ele>293</ele>
		<time>2011-09-11T08:09:11.854Z</time>
		<geoidheight>247</geoidheight>
	</trkpt>
	<trkpt lat="50.716448" lon="6.141755">
		<ele>293</ele>
		<time>2011-09-11T08:09:12.854Z</time>
		<geoidheight>247</geoidheight>
	</trkpt>
	<trkpt lat="50.716444" lon="6.141779">
		<ele>293</ele>
		<time>2011-09-11T08:09:13.851Z</time>
		<geoidheight>247</geoidheight>
	</trkpt>
	<trkpt lat="50.716443" lon="6.141801">
		<ele>293</ele>
		<time>2011-09-11T08:09:14.855Z</time>
		<geoidheight>247</geoidheight>
	</trkpt>
	<trkpt lat="50.716440" lon="6.141824">
		<ele>293</ele>
		<time>2011-09-11T08:09:15.859Z</time>
		<geoidheight>247</geoidheight>
	</trkpt>
	<trkpt lat="50.716440" lon="6.141848">
		<ele>293</ele>
		<time>2011-09-11T08:09:16.854Z</time>
		<geoidheight>247</geoidheight>
	</trkpt>
	<trkpt lat="50.716441" lon="6.141873">
		<ele>293</ele>
		<time>2011-09-11T08:09:17.857Z</time>
		<geoidheight>247</geoidheight>
	</trkpt>
	<trkpt lat="50.716448" lon="6.141899">
		<ele>293</ele>
		<time>2011-09-11T08:09:18.857Z</time>
		<geoidheight>247</geoidheight>
	</trkpt>
	<trkpt lat="50.716452" lon="6.141927">
		<ele>293</ele>
		<time>2011-09-11T08:09:19.856Z</time>
		<geoidheight>247</geoidheight>
	</trkpt>
	<trkpt lat="50.716457" lon="6.141955">
		<ele>293</ele>
		<time>2011-09-11T08:09:20.860Z</time>
		<geoidheight>247</geoidheight>
	</trkpt>
	<trkpt lat="50.716468" lon="6.141974">
		<ele>293</ele>
		<time>2011-09-11T08:09:21.852Z</time>
		<geoidheight>247</geoidheight>
	</trkpt>
	<trkpt lat="50.716477" lon="6.141997">
		<ele>293</ele>
		<time>2011-09-11T08:09:22.846Z</time>
		<geoidheight>247</geoidheight>
	</trkpt>
	<trkpt lat="50.716485" lon="6.142018">
		<ele>293</ele>
		<time>2011-09-11T08:09:23.843Z</time>
		<geoidheight>247</geoidheight>
	</trkpt>
	<trkpt lat="50.716493" lon="6.142038">
		<ele>293</ele>
		<time>2011-09-11T08:09:24.843Z</time>
		<geoidheight>247</geoidheight>
	</trkpt>
	<trkpt lat="50.716503" lon="6.142056">
		<ele>293</ele>
		<time>2011-09-11T08:09:25.841Z</time>
		<geoidheight>247</geoidheight>
	</trkpt>
	<trkpt lat="50.716508" lon="6.142074">
		<ele>293</ele>
		<time>2011-09-11T08:09:26.847Z</time>
		<geoidheight>247</geoidheight>
	</trkpt>
	<trkpt lat="50.716516" lon="6.142090">
		<ele>293</ele>
		<time>2011-09-11T08:09:27.841Z</time>
		<geoidheight>247</geoidheight>
	</trkpt>
	<trkpt lat="50.716525" lon="6.142105">
		<ele>293</ele>
		<time>2011-09-11T08:09:28.845Z</time>
		<geoidheight>247</geoidheight>
	</trkpt>
	<trkpt lat="50.716531" lon="6.142125">
		<ele>293</ele>
		<time>2011-09-11T08:09:29.852Z</time>
		<geoidheight>247</geoidheight>
	</trkpt>
	<trkpt lat="50.716536" lon="6.142146">
		<ele>293</ele>
		<time>2011-09-11T08:09:30.864Z</time>
		<geoidheight>247</geoidheight>
	</trkpt>
	<trkpt lat="50.716542" lon="6.142160">
		<ele>293</ele>
		<time>2011-09-11T08:09:31.840Z</time>
		<geoidheight>247</geoidheight>
	</trkpt>
	<trkpt lat="50.716547" lon="6.142176">
		<ele>293</ele>
		<time>2011-09-11T08:09:32.840Z</time>
		<geoidheight>247</geoidheight>
	</trkpt>
	<trkpt lat="50.716547" lon="6.142195">
		<ele>293</ele>
		<time>2011-09-11T08:09:33.847Z</time>
		<geoidheight>247</geoidheight>
	</trkpt>
	<trkpt lat="50.716547" lon="6.142214">
		<ele>293</ele>
		<time>2011-09-11T08:09:34.848Z</time>
		<geoidheight>247</geoidheight>
	</trkpt>
	<trkpt lat="50.716548" lon="6.142230">
		<ele>293</ele>
		<time>2011-09-11T08:09:35.851Z</time>
		<geoidheight>247</geoidheight>
	</trkpt>
	<trkpt lat="50.716547" lon="6.142247">
		<ele>293</ele>
		<time>2011-09-11T08:09:36.846Z</time>
		<geoidheight>247</geoidheight>
	</trkpt>
	<trkpt lat="50.716543" lon="6.142269">
		<ele>293</ele>
		<time>2011-09-11T08:09:37.841Z</time>
		<geoidheight>247</geoidheight>
	</trkpt>
	<trkpt lat="50.716542" lon="6.142293">
		<ele>293</ele>
		<time>2011-09-11T08:09:38.846Z</time>
		<geoidheight>247</geoidheight>
	</trkpt>
	<trkpt lat="50.716540" lon="6.142317">
		<ele>293</ele>
		<time>2011-09-11T08:09:39.846Z</time>
		<geoidheight>247</geoidheight>
	</trkpt>
	<trkpt lat="50.716538" lon="6.142340">
		<ele>293</ele>
		<time>2011-09-11T08:09:40.847Z</time>
		<geoidheight>247</geoidheight>
	</trkpt>
	<trkpt lat="50.716534" lon="6.142361">
		<ele>292</ele>
		<time>2011-09-11T08:09:41.843Z</time>
		<geoidheight>246</geoidheight>
	</trkpt>
	<trkpt lat="50.716531" lon="6.142381">
		<ele>292</ele>
		<time>2011-09-11T08:09:42.849Z</time>
		<geoidheight>246</geoidheight>
	</trkpt>
	<trkpt lat="50.716529" lon="6.142401">
		<ele>292</ele>
		<time>2011-09-11T08:09:43.843Z</time>
		<geoidheight>246</geoidheight>
	</trkpt>
	<trkpt lat="50.716526" lon="6.142424">
		<ele>292</ele>
		<time>2011-09-11T08:09:44.848Z</time>
		<geoidheight>246</geoidheight>
	</trkpt>
	<trkpt lat="50.716523" lon="6.142451">
		<ele>292</ele>
		<time>2011-09-11T08:09:45.842Z</time>
		<geoidheight>246</geoidheight>
	</trkpt>
	<trkpt lat="50.716519" lon="6.142478">
		<ele>292</ele>
		<time>2011-09-11T08:09:46.840Z</time>
		<geoidheight>246</geoidheight>
	</trkpt>
	<trkpt lat="50.716514" lon="6.142504">
		<ele>292</ele>
		<time>2011-09-11T08:09:47.843Z</time>
		<geoidheight>246</geoidheight>
	</trkpt>
	<trkpt lat="50.716515" lon="6.142530">
		<ele>292</ele>
		<time>2011-09-11T08:09:48.845Z</time>
		<geoidheight>246</geoidheight>
	</trkpt>
	<trkpt lat="50.716513" lon="6.142554">
		<ele>292</ele>
		<time>2011-09-11T08:09:49.844Z</time>
		<geoidheight>246</geoidheight>
	</trkpt>
	<trkpt lat="50.716512" lon="6.142578">
		<ele>292</ele>
		<time>2011-09-11T08:09:50.842Z</time>
		<geoidheight>246</geoidheight>
	</trkpt>
	<trkpt lat="50.716510" lon="6.142603">
		<ele>292</ele>
		<time>2011-09-11T08:09:51.846Z</time>
		<geoidheight>246</geoidheight>
	</trkpt>
	<trkpt lat="50.716509" lon="6.142628">
		<ele>292</ele>
		<time>2011-09-11T08:09:52.846Z</time>
		<geoidheight>246</geoidheight>
	</trkpt>
	<trkpt lat="50.716511" lon="6.142655">
		<ele>292</ele>
		<time>2011-09-11T08:09:53.844Z</time>
		<geoidheight>246</geoidheight>
	</trkpt>
	<trkpt lat="50.716511" lon="6.142682">
		<ele>292</ele>
		<time>2011-09-11T08:09:54.845Z</time>
		<geoidheight>246</geoidheight>
	</trkpt>
	<trkpt lat="50.716510" lon="6.142711">
		<ele>292</ele>
		<time>2011-09-11T08:09:55.854Z</time>
		<geoidheight>246</geoidheight>
	</trkpt>
	<trkpt lat="50.716510" lon="6.142741">
		<ele>292</ele>
		<time>2011-09-11T08:09:56.851Z</time>
		<geoidheight>246</geoidheight>
	</trkpt>
	<trkpt lat="50.716511" lon="6.142768">
		<ele>292</ele>
		<time>2011-09-11T08:09:57.858Z</time>
		<geoidheight>246</geoidheight>
	</trkpt>
	<trkpt lat="50.716510" lon="6.142794">
		<ele>292</ele>
		<time>2011-09-11T08:09:58.855Z</time>
		<geoidheight>246</geoidheight>
	</trkpt>
	<trkpt lat="50.716505" lon="6.142820">
		<ele>292</ele>
		<time>2011-09-11T08:09:59.855Z</time>
		<geoidheight>246</geoidheight>
	</trkpt>
	<trkpt lat="50.716505" lon="6.142847">
		<ele>292</ele>
		<time>2011-09-11T08:10:00.853Z</time>
		<geoidheight>246</geoidheight>
	</trkpt>
	<trkpt lat="50.716504" lon="6.142871">
		<ele>292</ele>
		<time>2011-09-11T08:10:01.858Z</time>
		<geoidheight>246</geoidheight>
	</trkpt>
	<trkpt lat="50.716503" lon="6.142894">
		<ele>292</ele>
		<time>2011-09-11T08:10:02.858Z</time>
		<geoidheight>246</geoidheight>
	</trkpt>
	<trkpt lat="50.716502" lon="6.142916">
		<ele>291</ele>
		<time>2011-09-11T08:10:03.855Z</time>
		<geoidheight>245</geoidheight>
	</trkpt>
	<trkpt lat="50.716502" lon="6.142939">
		<ele>291</ele>
		<time>2011-09-11T08:10:04.856Z</time>
		<geoidheight>245</geoidheight>
	</trkpt>
	<trkpt lat="50.716504" lon="6.142962">
		<ele>291</ele>
		<time>2011-09-11T08:10:05.852Z</time>
		<geoidheight>245</geoidheight>
	</trkpt>
	<trkpt lat="50.716504" lon="6.142987">
		<ele>291</ele>
		<time>2011-09-11T08:10:06.857Z</time>
		<geoidheight>245</geoidheight>
	</trkpt>
	<trkpt lat="50.716503" lon="6.143014">
		<ele>291</ele>
		<time>2011-09-11T08:10:07.849Z</time>
		<geoidheight>245</geoidheight>
	</trkpt>
	<trkpt lat="50.716505" lon="6.143038">
		<ele>291</ele>
		<time>2011-09-11T08:10:08.854Z</time>
		<geoidheight>245</geoidheight>
	</trkpt>
	<trkpt lat="50.716502" lon="6.143064">
		<ele>291</ele>
		<time>2011-09-11T08:10:09.855Z</time>
		<geoidheight>245</geoidheight>
	</trkpt>
	<trkpt lat="50.716500" lon="6.143089">
		<ele>291</ele>
		<time>2011-09-11T08:10:10.853Z</time>
		<geoidheight>245</geoidheight>
	</trkpt>
	<trkpt lat="50.716498" lon="6.143113">
		<ele>291</ele>
		<time>2011-09-11T08:10:11.855Z</time>
		<geoidheight>245</geoidheight>
	</trkpt>
	<trkpt lat="50.716500" lon="6.143137">
		<ele>291</ele>
		<time>2011-09-11T08:10:12.853Z</time>
		<geoidheight>245</geoidheight>
	</trkpt>
	<trkpt lat="50.716501" lon="6.143161">
		<ele>290</ele>
		<time>2011-09-11T08:10:13.855Z</time>
		<geoidheight>244</geoidheight>
	</trkpt>
	<trkpt lat="50.716501" lon="6.143185">
		<ele>290</ele>
		<time>2011-09-11T08:10:14.854Z</time>
		<geoidheight>244</geoidheight>
	</trkpt>
	<trkpt lat="50.716501" lon="6.143206">
		<ele>290</ele>
		<time>2011-09-11T08:10:15.854Z</time>
		<geoidheight>244</geoidheight>
	</trkpt>
	<trkpt lat="50.716501" lon="6.143230">
		<ele>290</ele>
		<time>2011-09-11T08:10:16.858Z</time>
		<geoidheight>244</geoidheight>
	</trkpt>
	<trkpt lat="50.716502" lon="6.143256">
		<ele>290</ele>
		<time>2011-09-11T08:10:17.842Z</time>
		<geoidheight>244</geoidheight>
	</trkpt>
	<trkpt lat="50.716500" lon="6.143283">
		<ele>290</ele>
		<time>2011-09-11T08:10:18.845Z</time>
		<geoidheight>244</geoidheight>
	</trkpt>
	<trkpt lat="50.716499" lon="6.143310">
		<ele>290</ele>
		<time>2011-09-11T08:10:19.846Z</time>
		<geoidheight>244</geoidheight>
	</trkpt>
	<trkpt lat="50.716501" lon="6.143336">
		<ele>290</ele>
		<time>2011-09-11T08:10:20.849Z</time>
		<geoidheight>244</geoidheight>
	</trkpt>
	<trkpt lat="50.716502" lon="6.143361">
		<ele>290</ele>
		<time>2011-09-11T08:10:21.843Z</time>
		<geoidheight>244</geoidheight>
	</trkpt>
	<trkpt lat="50.716498" lon="6.143386">
		<ele>290</ele>
		<time>2011-09-11T08:10:22.842Z</time>
		<geoidheight>244</geoidheight>
	</trkpt>
	<trkpt lat="50.716498" lon="6.143410">
		<ele>289</ele>
		<time>2011-09-11T08:10:23.843Z</time>
		<geoidheight>243</geoidheight>
	</trkpt>
	<trkpt lat="50.716497" lon="6.143434">
		<ele>289</ele>
		<time>2011-09-11T08:10:24.843Z</time>
		<geoidheight>243</geoidheight>
	</trkpt>
	<trkpt lat="50.716499" lon="6.143455">
		<ele>289</ele>
		<time>2011-09-11T08:10:25.847Z</time>
		<geoidheight>243</geoidheight>
	</trkpt>
	<trkpt lat="50.716500" lon="6.143476">
		<ele>289</ele>
		<time>2011-09-11T08:10:26.845Z</time>
		<geoidheight>243</geoidheight>
	</trkpt>
	<trkpt lat="50.716503" lon="6.143498">
		<ele>289</ele>
		<time>2011-09-11T08:10:27.841Z</time>
		<geoidheight>243</geoidheight>
	</trkpt>
	<trkpt lat="50.716505" lon="6.143520">
		<ele>289</ele>
		<time>2011-09-11T08:10:28.843Z</time>
		<geoidheight>243</geoidheight>
	</trkpt>
	<trkpt lat="50.716510" lon="6.143540">
		<ele>289</ele>
		<time>2011-09-11T08:10:29.845Z</time>
		<geoidheight>243</geoidheight>
	</trkpt>
	<trkpt lat="50.716513" lon="6.143559">
		<ele>289</ele>
		<time>2011-09-11T08:10:30.844Z</time>
		<geoidheight>243</geoidheight>
	</trkpt>
	<trkpt lat="50.716512" lon="6.143579">
		<ele>289</ele>
		<time>2011-09-11T08:10:31.842Z</time>
		<geoidheight>243</geoidheight>
	</trkpt>
	<trkpt lat="50.716511" lon="6.143600">
		<ele>289</ele>
		<time>2011-09-11T08:10:32.844Z</time>
		<geoidheight>243</geoidheight>
	</trkpt>
	<trkpt lat="50.716511" lon="6.143623">
		<ele>288</ele>
		<time>2011-09-11T08:10:33.842Z</time>
		<geoidheight>242</geoidheight>
	</trkpt>
	<trkpt lat="50.716510" lon="6.143647">
		<ele>288</ele>
		<time>2011-09-11T08:10:34.844Z</time>
		<geoidheight>242</geoidheight>
	</trkpt>
	<trkpt lat="50.716512" lon="6.143671">
		<ele>288</ele>
		<time>2011-09-11T08:10:35.842Z</time>
		<geoidheight>242</geoidheight>
	</trkpt>
	<trkpt lat="50.716512" lon="6.143695">
		<ele>288</ele>
		<time>2011-09-11T08:10:36.844Z</time>
		<geoidheight>242</geoidheight>
	</trkpt>
	<trkpt lat="50.716512" lon="6.143717">
		<ele>288</ele>
		<time>2011-09-11T08:10:37.842Z</time>
		<geoidheight>242</geoidheight>
	</trkpt>
	<trkpt lat="50.716510" lon="6.143740">
		<ele>288</ele>
		<time>2011-09-11T08:10:38.843Z</time>
		<geoidheight>242</geoidheight>
	</trkpt>
	<trkpt lat="50.716514" lon="6.143759">
		<ele>288</ele>
		<time>2011-09-11T08:10:39.843Z</time>
		<geoidheight>242</geoidheight>
	</trkpt>
	<trkpt lat="50.716511" lon="6.143780">
		<ele>288</ele>
		<time>2011-09-11T08:10:40.844Z</time>
		<geoidheight>242</geoidheight>
	</trkpt>
	<trkpt lat="50.716511" lon="6.143801">
		<ele>288</ele>
		<time>2011-09-11T08:10:41.842Z</time>
		<geoidheight>242</geoidheight>
	</trkpt>
	<trkpt lat="50.716510" lon="6.143823">
		<ele>287</ele>
		<time>2011-09-11T08:10:42.844Z</time>
		<geoidheight>241</geoidheight>
	</trkpt>
	<trkpt lat="50.716508" lon="6.143847">
		<ele>287</ele>
		<time>2011-09-11T08:10:43.842Z</time>
		<geoidheight>241</geoidheight>
	</trkpt>
	<trkpt lat="50.716508" lon="6.143871">
		<ele>287</ele>
		<time>2011-09-11T08:10:44.848Z</time>
		<geoidheight>241</geoidheight>
	</trkpt>
	<trkpt lat="50.716507" lon="6.143896">
		<ele>287</ele>
		<time>2011-09-11T08:10:45.846Z</time>
		<geoidheight>241</geoidheight>
	</trkpt>
	<trkpt lat="50.716506" lon="6.143919">
		<ele>287</ele>
		<time>2011-09-11T08:10:46.849Z</time>
		<geoidheight>241</geoidheight>
	</trkpt>
	<trkpt lat="50.716506" lon="6.143941">
		<ele>287</ele>
		<time>2011-09-11T08:10:47.842Z</time>
		<geoidheight>241</geoidheight>
	</trkpt>
	<trkpt lat="50.716513" lon="6.143961">
		<ele>287</ele>
		<time>2011-09-11T08:10:48.846Z</time>
		<geoidheight>241</geoidheight>
	</trkpt>
	<trkpt lat="50.716519" lon="6.143980">
		<ele>287</ele>
		<time>2011-09-11T08:10:49.844Z</time>
		<geoidheight>241</geoidheight>
	</trkpt>
	<trkpt lat="50.716521" lon="6.144001">
		<ele>287</ele>
		<time>2011-09-11T08:10:50.842Z</time>
		<geoidheight>241</geoidheight>
	</trkpt>
	<trkpt lat="50.716521" lon="6.144021">
		<ele>286</ele>
		<time>2011-09-11T08:10:51.845Z</time>
		<geoidheight>240</geoidheight>
	</trkpt>
	<trkpt lat="50.716522" lon="6.144040">
		<ele>286</ele>
		<time>2011-09-11T08:10:52.844Z</time>
		<geoidheight>240</geoidheight>
	</trkpt>
	<trkpt lat="50.716526" lon="6.144061">
		<ele>286</ele>
		<time>2011-09-11T08:10:53.840Z</time>
		<geoidheight>240</geoidheight>
	</trkpt>
	<trkpt lat="50.716529" lon="6.144084">
		<ele>286</ele>
		<time>2011-09-11T08:10:54.853Z</time>
		<geoidheight>240</geoidheight>
	</trkpt>
	<trkpt lat="50.716528" lon="6.144108">
		<ele>286</ele>
		<time>2011-09-11T08:10:55.853Z</time>
		<geoidheight>240</geoidheight>
	</trkpt>
	<trkpt lat="50.716524" lon="6.144132">
		<ele>286</ele>
		<time>2011-09-11T08:10:56.847Z</time>
		<geoidheight>240</geoidheight>
	</trkpt>
	<trkpt lat="50.716524" lon="6.144156">
		<ele>286</ele>
		<time>2011-09-11T08:10:57.849Z</time>
		<geoidheight>240</geoidheight>
	</trkpt>
	<trkpt lat="50.716525" lon="6.144181">
		<ele>286</ele>
		<time>2011-09-11T08:10:58.845Z</time>
		<geoidheight>240</geoidheight>
	</trkpt>
	<trkpt lat="50.716527" lon="6.144206">
		<ele>286</ele>
		<time>2011-09-11T08:10:59.843Z</time>
		<geoidheight>240</geoidheight>
	</trkpt>
	<trkpt lat="50.716526" lon="6.144232">
		<ele>286</ele>
		<time>2011-09-11T08:11:00.842Z</time>
		<geoidheight>240</geoidheight>
	</trkpt>
	<trkpt lat="50.716527" lon="6.144256">
		<ele>286</ele>
		<time>2011-09-11T08:11:01.843Z</time>
		<geoidheight>240</geoidheight>
	</trkpt>
	<trkpt lat="50.716527" lon="6.144279">
		<ele>286</ele>
		<time>2011-09-11T08:11:02.843Z</time>
		<geoidheight>240</geoidheight>
	</trkpt>
	<trkpt lat="50.716527" lon="6.144300">
		<ele>285</ele>
		<time>2011-09-11T08:11:03.842Z</time>
		<geoidheight>239</geoidheight>
	</trkpt>
	<trkpt lat="50.716529" lon="6.144323">
		<ele>285</ele>
		<time>2011-09-11T08:11:04.844Z</time>
		<geoidheight>239</geoidheight>
	</trkpt>
	<trkpt lat="50.716529" lon="6.144347">
		<ele>285</ele>
		<time>2011-09-11T08:11:05.843Z</time>
		<geoidheight>239</geoidheight>
	</trkpt>
	<trkpt lat="50.716530" lon="6.144371">
		<ele>285</ele>
		<time>2011-09-11T08:11:06.844Z</time>
		<geoidheight>239</geoidheight>
	</trkpt>
	<trkpt lat="50.716532" lon="6.144396">
		<ele>285</ele>
		<time>2011-09-11T08:11:07.842Z</time>
		<geoidheight>239</geoidheight>
	</trkpt>
	<trkpt lat="50.716534" lon="6.144419">
		<ele>285</ele>
		<time>2011-09-11T08:11:08.844Z</time>
		<geoidheight>239</geoidheight>
	</trkpt>
	<trkpt lat="50.716536" lon="6.144443">
		<ele>285</ele>
		<time>2011-09-11T08:11:09.841Z</time>
		<geoidheight>239</geoidheight>
	</trkpt>
	<trkpt lat="50.716536" lon="6.144465">
		<ele>285</ele>
		<time>2011-09-11T08:11:10.843Z</time>
		<geoidheight>239</geoidheight>
	</trkpt>
	<trkpt lat="50.716538" lon="6.144488">
		<ele>285</ele>
		<time>2011-09-11T08:11:11.844Z</time>
		<geoidheight>239</geoidheight>
	</trkpt>
	<trkpt lat="50.716541" lon="6.144511">
		<ele>285</ele>
		<time>2011-09-11T08:11:12.844Z</time>
		<geoidheight>239</geoidheight>
	</trkpt>
	<trkpt lat="50.716542" lon="6.144533">
		<ele>285</ele>
		<time>2011-09-11T08:11:13.841Z</time>
		<geoidheight>239</geoidheight>
	</trkpt>
	<trkpt lat="50.716545" lon="6.144554">
		<ele>285</ele>
		<time>2011-09-11T08:11:14.845Z</time>
		<geoidheight>239</geoidheight>
	</trkpt>
	<trkpt lat="50.716548" lon="6.144577">
		<ele>285</ele>
		<time>2011-09-11T08:11:15.842Z</time>
		<geoidheight>239</geoidheight>
	</trkpt>
	<trkpt lat="50.716551" lon="6.144601">
		<ele>284</ele>
		<time>2011-09-11T08:11:16.842Z</time>
		<geoidheight>238</geoidheight>
	</trkpt>
	<trkpt lat="50.716553" lon="6.144625">
		<ele>284</ele>
		<time>2011-09-11T08:11:17.845Z</time>
		<geoidheight>238</geoidheight>
	</trkpt>
	<trkpt lat="50.716553" lon="6.144646">
		<ele>284</ele>
		<time>2011-09-11T08:11:18.844Z</time>
		<geoidheight>238</geoidheight>
	</trkpt>
	<trkpt lat="50.716551" lon="6.144666">
		<ele>284</ele>
		<time>2011-09-11T08:11:19.843Z</time>
		<geoidheight>238</geoidheight>
	</trkpt>
	<trkpt lat="50.716551" lon="6.144685">
		<ele>284</ele>
		<time>2011-09-11T08:11:20.842Z</time>
		<geoidheight>238</geoidheight>
	</trkpt>
	<trkpt lat="50.716550" lon="6.144704">
		<ele>284</ele>
		<time>2011-09-11T08:11:21.845Z</time>
		<geoidheight>238</geoidheight>
	</trkpt>
	<trkpt lat="50.716552" lon="6.144723">
		<ele>284</ele>
		<time>2011-09-11T08:11:22.841Z</time>
		<geoidheight>238</geoidheight>
	</trkpt>
	<trkpt lat="50.716552" lon="6.144742">
		<ele>284</ele>
		<time>2011-09-11T08:11:23.844Z</time>
		<geoidheight>238</geoidheight>
	</trkpt>
	<trkpt lat="50.716553" lon="6.144760">
		<ele>284</ele>
		<time>2011-09-11T08:11:24.844Z</time>
		<geoidheight>238</geoidheight>
	</trkpt>
	<trkpt lat="50.716559" lon="6.144777">
		<ele>284</ele>
		<time>2011-09-11T08:11:25.842Z</time>
		<geoidheight>238</geoidheight>
	</trkpt>
	<trkpt lat="50.716565" lon="6.144795">
		<ele>284</ele>
		<time>2011-09-11T08:11:26.842Z</time>
		<geoidheight>238</geoidheight>
	</trkpt>
	<trkpt lat="50.716568" lon="6.144815">
		<ele>284</ele>
		<time>2011-09-11T08:11:27.844Z</time>
		<geoidheight>238</geoidheight>
	</trkpt>
	<trkpt lat="50.716571" lon="6.144835">
		<ele>284</ele>
		<time>2011-09-11T08:11:28.842Z</time>
		<geoidheight>238</geoidheight>
	</trkpt>
	<trkpt lat="50.716571" lon="6.144856">
		<ele>284</ele>
		<time>2011-09-11T08:11:29.842Z</time>
		<geoidheight>238</geoidheight>
	</trkpt>
	<trkpt lat="50.716571" lon="6.144877">
		<ele>284</ele>
		<time>2011-09-11T08:11:30.844Z</time>
		<geoidheight>238</geoidheight>
	</trkpt>
	<trkpt lat="50.716572" lon="6.144897">
		<ele>284</ele>
		<time>2011-09-11T08:11:31.843Z</time>
		<geoidheight>238</geoidheight>
	</trkpt>
	<trkpt lat="50.716571" lon="6.144919">
		<ele>284</ele>
		<time>2011-09-11T08:11:32.841Z</time>
		<geoidheight>238</geoidheight>
	</trkpt>
	<trkpt lat="50.716570" lon="6.144941">
		<ele>284</ele>
		<time>2011-09-11T08:11:33.842Z</time>
		<geoidheight>238</geoidheight>
	</trkpt>
	<trkpt lat="50.716569" lon="6.144965">
		<ele>284</ele>
		<time>2011-09-11T08:11:34.844Z</time>
		<geoidheight>238</geoidheight>
	</trkpt>
	<trkpt lat="50.716568" lon="6.144990">
		<ele>284</ele>
		<time>2011-09-11T08:11:35.843Z</time>
		<geoidheight>238</geoidheight>
	</trkpt>
	<trkpt lat="50.716567" lon="6.145014">
		<ele>284</ele>
		<time>2011-09-11T08:11:36.843Z</time>
		<geoidheight>238</geoidheight>
	</trkpt>
	<trkpt lat="50.716566" lon="6.145039">
		<ele>284</ele>
		<time>2011-09-11T08:11:37.845Z</time>
		<geoidheight>238</geoidheight>
	</trkpt>
	<trkpt lat="50.716562" lon="6.145063">
		<ele>284</ele>
		<time>2011-09-11T08:11:38.842Z</time>
		<geoidheight>238</geoidheight>
	</trkpt>
	<trkpt lat="50.716561" lon="6.145087">
		<ele>284</ele>
		<time>2011-09-11T08:11:39.843Z</time>
		<geoidheight>238</geoidheight>
	</trkpt>
	<trkpt lat="50.716559" lon="6.145111">
		<ele>284</ele>
		<time>2011-09-11T08:11:40.845Z</time>
		<geoidheight>238</geoidheight>
	</trkpt>
	<trkpt lat="50.716557" lon="6.145132">
		<ele>284</ele>
		<time>2011-09-11T08:11:41.846Z</time>
		<geoidheight>238</geoidheight>
	</trkpt>
	<trkpt lat="50.716558" lon="6.145155">
		<ele>284</ele>
		<time>2011-09-11T08:11:42.843Z</time>
		<geoidheight>238</geoidheight>
	</trkpt>
	<trkpt lat="50.716561" lon="6.145178">
		<ele>284</ele>
		<time>2011-09-11T08:11:43.845Z</time>
		<geoidheight>238</geoidheight>
	</trkpt>
	<trkpt lat="50.716564" lon="6.145202">
		<ele>284</ele>
		<time>2011-09-11T08:11:44.844Z</time>
		<geoidheight>238</geoidheight>
	</trkpt>
	<trkpt lat="50.716566" lon="6.145227">
		<ele>284</ele>
		<time>2011-09-11T08:11:45.845Z</time>
		<geoidheight>238</geoidheight>
	</trkpt>
	<trkpt lat="50.716567" lon="6.145252">
		<ele>284</ele>
		<time>2011-09-11T08:11:46.846Z</time>
		<geoidheight>238</geoidheight>
	</trkpt>
	<trkpt lat="50.716570" lon="6.145276">
		<ele>284</ele>
		<time>2011-09-11T08:11:47.844Z</time>
		<geoidheight>238</geoidheight>
	</trkpt>
	<trkpt lat="50.716570" lon="6.145299">
		<ele>284</ele>
		<time>2011-09-11T08:11:48.842Z</time>
		<geoidheight>238</geoidheight>
	</trkpt>
	<trkpt lat="50.716572" lon="6.145322">
		<ele>284</ele>
		<time>2011-09-11T08:11:49.843Z</time>
		<geoidheight>238</geoidheight>
	</trkpt>
	<trkpt lat="50.716573" lon="6.145341">
		<ele>284</ele>
		<time>2011-09-11T08:11:50.841Z</time>
		<geoidheight>238</geoidheight>
	</trkpt>
	<trkpt lat="50.716574" lon="6.145359">
		<ele>284</ele>
		<time>2011-09-11T08:11:51.857Z</time>
		<geoidheight>238</geoidheight>
	</trkpt>
	<trkpt lat="50.716573" lon="6.145379">
		<ele>284</ele>
		<time>2011-09-11T08:11:52.854Z</time>
		<geoidheight>238</geoidheight>
	</trkpt>
	<trkpt lat="50.716574" lon="6.145400">
		<ele>284</ele>
		<time>2011-09-11T08:11:53.857Z</time>
		<geoidheight>238</geoidheight>
	</trkpt>
	<trkpt lat="50.716575" lon="6.145423">
		<ele>284</ele>
		<time>2011-09-11T08:11:54.863Z</time>
		<geoidheight>238</geoidheight>
	</trkpt>
	<trkpt lat="50.716576" lon="6.145448">
		<ele>284</ele>
		<time>2011-09-11T08:11:55.856Z</time>
		<geoidheight>238</geoidheight>
	</trkpt>
	<trkpt lat="50.716579" lon="6.145472">
		<ele>284</ele>
		<time>2011-09-11T08:11:56.853Z</time>
		<geoidheight>238</geoidheight>
	</trkpt>
	<trkpt lat="50.716583" lon="6.145496">
		<ele>284</ele>
		<time>2011-09-11T08:11:57.859Z</time>
		<geoidheight>238</geoidheight>
	</trkpt>
	<trkpt lat="50.716586" lon="6.145518">
		<ele>284</ele>
		<time>2011-09-11T08:11:58.856Z</time>
		<geoidheight>238</geoidheight>
	</trkpt>
	<trkpt lat="50.716587" lon="6.145539">
		<ele>284</ele>
		<time>2011-09-11T08:11:59.857Z</time>
		<geoidheight>238</geoidheight>
	</trkpt>
	<trkpt lat="50.716585" lon="6.145559">
		<ele>284</ele>
		<time>2011-09-11T08:12:00.862Z</time>
		<geoidheight>238</geoidheight>
	</trkpt>
	<trkpt lat="50.716584" lon="6.145577">
		<ele>284</ele>
		<time>2011-09-11T08:12:01.857Z</time>
		<geoidheight>238</geoidheight>
	</trkpt>
	<trkpt lat="50.716580" lon="6.145595">
		<ele>284</ele>
		<time>2011-09-11T08:12:02.855Z</time>
		<geoidheight>238</geoidheight>
	</trkpt>
	<trkpt lat="50.716580" lon="6.145614">
		<ele>283</ele>
		<time>2011-09-11T08:12:03.861Z</time>
		<geoidheight>237</geoidheight>
	</trkpt>
	<trkpt lat="50.716581" lon="6.145635">
		<ele>283</ele>
		<time>2011-09-11T08:12:04.856Z</time>
		<geoidheight>237</geoidheight>
	</trkpt>
	<trkpt lat="50.716582" lon="6.145655">
		<ele>283</ele>
		<time>2011-09-11T08:12:05.843Z</time>
		<geoidheight>237</geoidheight>
	</trkpt>
	<trkpt lat="50.716581" lon="6.145675">
		<ele>283</ele>
		<time>2011-09-11T08:12:06.847Z</time>
		<geoidheight>237</geoidheight>
	</trkpt>
	<trkpt lat="50.716580" lon="6.145697">
		<ele>283</ele>
		<time>2011-09-11T08:12:07.843Z</time>
		<geoidheight>237</geoidheight>
	</trkpt>
	<trkpt lat="50.716577" lon="6.145715">
		<ele>283</ele>
		<time>2011-09-11T08:12:08.851Z</time>
		<geoidheight>237</geoidheight>
	</trkpt>
	<trkpt lat="50.716575" lon="6.145735">
		<ele>283</ele>
		<time>2011-09-11T08:12:09.845Z</time>
		<geoidheight>237</geoidheight>
	</trkpt>
	<trkpt lat="50.716577" lon="6.145754">
		<ele>283</ele>
		<time>2011-09-11T08:12:10.843Z</time>
		<geoidheight>237</geoidheight>
	</trkpt>
	<trkpt lat="50.716577" lon="6.145775">
		<ele>283</ele>
		<time>2011-09-11T08:12:11.843Z</time>
		<geoidheight>237</geoidheight>
	</trkpt>
	<trkpt lat="50.716578" lon="6.145797">
		<ele>283</ele>
		<time>2011-09-11T08:12:12.847Z</time>
		<geoidheight>237</geoidheight>
	</trkpt>
	<trkpt lat="50.716579" lon="6.145820">
		<ele>283</ele>
		<time>2011-09-11T08:12:13.845Z</time>
		<geoidheight>237</geoidheight>
	</trkpt>
	<trkpt lat="50.716580" lon="6.145842">
		<ele>283</ele>
		<time>2011-09-11T08:12:14.844Z</time>
		<geoidheight>237</geoidheight>
	</trkpt>
	<trkpt lat="50.716583" lon="6.145862">
		<ele>283</ele>
		<time>2011-09-11T08:12:15.848Z</time>
		<geoidheight>237</geoidheight>
	</trkpt>
	<trkpt lat="50.716584" lon="6.145882">
		<ele>283</ele>
		<time>2011-09-11T08:12:16.848Z</time>
		<geoidheight>237</geoidheight>
	</trkpt>
	<trkpt lat="50.716586" lon="6.145903">
		<ele>283</ele>
		<time>2011-09-11T08:12:17.845Z</time>
		<geoidheight>237</geoidheight>
	</trkpt>
	<trkpt lat="50.716584" lon="6.145924">
		<ele>283</ele>
		<time>2011-09-11T08:12:18.852Z</time>
		<geoidheight>237</geoidheight>
	</trkpt>
	<trkpt lat="50.716585" lon="6.145947">
		<ele>283</ele>
		<time>2011-09-11T08:12:19.846Z</time>
		<geoidheight>237</geoidheight>
	</trkpt>
	<trkpt lat="50.716590" lon="6.145970">
		<ele>283</ele>
		<time>2011-09-11T08:12:20.844Z</time>
		<geoidheight>237</geoidheight>
	</trkpt>
	<trkpt lat="50.716590" lon="6.145995">
		<ele>283</ele>
		<time>2011-09-11T08:12:21.843Z</time>
		<geoidheight>237</geoidheight>
	</trkpt>
	<trkpt lat="50.716592" lon="6.146018">
		<ele>283</ele>
		<time>2011-09-11T08:12:22.845Z</time>
		<geoidheight>237</geoidheight>
	</trkpt>
	<trkpt lat="50.716592" lon="6.146038">
		<ele>282</ele>
		<time>2011-09-11T08:12:23.843Z</time>
		<geoidheight>236</geoidheight>
	</trkpt>
	<trkpt lat="50.716592" lon="6.146057">
		<ele>282</ele>
		<time>2011-09-11T08:12:24.844Z</time>
		<geoidheight>236</geoidheight>
	</trkpt>
	<trkpt lat="50.716592" lon="6.146075">
		<ele>282</ele>
		<time>2011-09-11T08:12:25.845Z</time>
		<geoidheight>236</geoidheight>
	</trkpt>
	<trkpt lat="50.716591" lon="6.146094">
		<ele>282</ele>
		<time>2011-09-11T08:12:26.843Z</time>
		<geoidheight>236</geoidheight>
	</trkpt>
	<trkpt lat="50.716589" lon="6.146112">
		<ele>282</ele>
		<time>2011-09-11T08:12:27.843Z</time>
		<geoidheight>236</geoidheight>
	</trkpt>
	<trkpt lat="50.716590" lon="6.146131">
		<ele>282</ele>
		<time>2011-09-11T08:12:28.842Z</time>
		<geoidheight>236</geoidheight>
	</trkpt>
	<trkpt lat="50.716589" lon="6.146151">
		<ele>282</ele>
		<time>2011-09-11T08:12:29.844Z</time>
		<geoidheight>236</geoidheight>
	</trkpt>
	<trkpt lat="50.716588" lon="6.146171">
		<ele>282</ele>
		<time>2011-09-11T08:12:30.842Z</time>
		<geoidheight>236</geoidheight>
	</trkpt>
	<trkpt lat="50.716589" lon="6.146192">
		<ele>282</ele>
		<time>2011-09-11T08:12:31.851Z</time>
		<geoidheight>236</geoidheight>
	</trkpt>
	<trkpt lat="50.716587" lon="6.146212">
		<ele>282</ele>
		<time>2011-09-11T08:12:32.850Z</time>
		<geoidheight>236</geoidheight>
	</trkpt>
	<trkpt lat="50.716588" lon="6.146233">
		<ele>282</ele>
		<time>2011-09-11T08:12:33.850Z</time>
		<geoidheight>236</geoidheight>
	</trkpt>
	<trkpt lat="50.716591" lon="6.146255">
		<ele>282</ele>
		<time>2011-09-11T08:12:34.849Z</time>
		<geoidheight>236</geoidheight>
	</trkpt>
	<trkpt lat="50.716594" lon="6.146275">
		<ele>282</ele>
		<time>2011-09-11T08:12:35.855Z</time>
		<geoidheight>236</geoidheight>
	</trkpt>
	<trkpt lat="50.716598" lon="6.146292">
		<ele>282</ele>
		<time>2011-09-11T08:12:36.842Z</time>
		<geoidheight>236</geoidheight>
	</trkpt>
	<trkpt lat="50.716600" lon="6.146312">
		<ele>282</ele>
		<time>2011-09-11T08:12:37.846Z</time>
		<geoidheight>236</geoidheight>
	</trkpt>
	<trkpt lat="50.716602" lon="6.146332">
		<ele>282</ele>
		<time>2011-09-11T08:12:38.849Z</time>
		<geoidheight>236</geoidheight>
	</trkpt>
	<trkpt lat="50.716604" lon="6.146354">
		<ele>282</ele>
		<time>2011-09-11T08:12:39.850Z</time>
		<geoidheight>236</geoidheight>
	</trkpt>
	<trkpt lat="50.716604" lon="6.146378">
		<ele>282</ele>
		<time>2011-09-11T08:12:40.847Z</time>
		<geoidheight>236</geoidheight>
	</trkpt>
	<trkpt lat="50.716604" lon="6.146401">
		<ele>282</ele>
		<time>2011-09-11T08:12:41.850Z</time>
		<geoidheight>236</geoidheight>
	</trkpt>
	<trkpt lat="50.716606" lon="6.146424">
		<ele>282</ele>
		<time>2011-09-11T08:12:42.849Z</time>
		<geoidheight>236</geoidheight>
	</trkpt>
	<trkpt lat="50.716610" lon="6.146445">
		<ele>282</ele>
		<time>2011-09-11T08:12:43.849Z</time>
		<geoidheight>236</geoidheight>
	</trkpt>
	<trkpt lat="50.716612" lon="6.146467">
		<ele>282</ele>
		<time>2011-09-11T08:12:44.849Z</time>
		<geoidheight>236</geoidheight>
	</trkpt>
	<trkpt lat="50.716614" lon="6.146490">
		<ele>282</ele>
		<time>2011-09-11T08:12:45.842Z</time>
		<geoidheight>236</geoidheight>
	</trkpt>
	<trkpt lat="50.716616" lon="6.146512">
		<ele>282</ele>
		<time>2011-09-11T08:12:46.849Z</time>
		<geoidheight>236</geoidheight>
	</trkpt>
	<trkpt lat="50.716619" lon="6.146535">
		<ele>282</ele>
		<time>2011-09-11T08:12:47.859Z</time>
		<geoidheight>236</geoidheight>
	</trkpt>
	<trkpt lat="50.716617" lon="6.146557">
		<ele>282</ele>
		<time>2011-09-11T08:12:48.846Z</time>
		<geoidheight>236</geoidheight>
	</trkpt>
	<trkpt lat="50.716621" lon="6.146581">
		<ele>282</ele>
		<time>2011-09-11T08:12:49.844Z</time>
		<geoidheight>236</geoidheight>
	</trkpt>
	<trkpt lat="50.716621" lon="6.146604">
		<ele>282</ele>
		<time>2011-09-11T08:12:50.849Z</time>
		<geoidheight>236</geoidheight>
	</trkpt>
	<trkpt lat="50.716621" lon="6.146627">
		<ele>282</ele>
		<time>2011-09-11T08:12:51.852Z</time>
		<geoidheight>236</geoidheight>
	</trkpt>
	<trkpt lat="50.716623" lon="6.146647">
		<ele>282</ele>
		<time>2011-09-11T08:12:52.844Z</time>
		<geoidheight>236</geoidheight>
	</trkpt>
	<trkpt lat="50.716624" lon="6.146665">
		<ele>282</ele>
		<time>2011-09-11T08:12:53.843Z</time>
		<geoidheight>236</geoidheight>
	</trkpt>
	<trkpt lat="50.716627" lon="6.146682">
		<ele>282</ele>
		<time>2011-09-11T08:12:54.842Z</time>
		<geoidheight>236</geoidheight>
	</trkpt>
	<trkpt lat="50.716628" lon="6.146699">
		<ele>282</ele>
		<time>2011-09-11T08:12:55.843Z</time>
		<geoidheight>236</geoidheight>
	</trkpt>
	<trkpt lat="50.716630" lon="6.146716">
		<ele>282</ele>
		<time>2011-09-11T08:12:56.850Z</time>
		<geoidheight>236</geoidheight>
	</trkpt>
	<trkpt lat="50.716634" lon="6.146734">
		<ele>282</ele>
		<time>2011-09-11T08:12:57.850Z</time>
		<geoidheight>236</geoidheight>
	</trkpt>
	<trkpt lat="50.716633" lon="6.146752">
		<ele>282</ele>
		<time>2011-09-11T08:12:58.845Z</time>
		<geoidheight>236</geoidheight>
	</trkpt>
	<trkpt lat="50.716635" lon="6.146771">
		<ele>282</ele>
		<time>2011-09-11T08:12:59.861Z</time>
		<geoidheight>236</geoidheight>
	</trkpt>
	<trkpt lat="50.716634" lon="6.146789">
		<ele>282</ele>
		<time>2011-09-11T08:13:00.862Z</time>
		<geoidheight>236</geoidheight>
	</trkpt>
	<trkpt lat="50.716634" lon="6.146805">
		<ele>282</ele>
		<time>2011-09-11T08:13:01.858Z</time>
		<geoidheight>236</geoidheight>
	</trkpt>
	<trkpt lat="50.716631" lon="6.146823">
		<ele>282</ele>
		<time>2011-09-11T08:13:02.853Z</time>
		<geoidheight>236</geoidheight>
	</trkpt>
	<trkpt lat="50.716632" lon="6.146842">
		<ele>282</ele>
		<time>2011-09-11T08:13:03.855Z</time>
		<geoidheight>236</geoidheight>
	</trkpt>
	<trkpt lat="50.716633" lon="6.146862">
		<ele>282</ele>
		<time>2011-09-11T08:13:04.859Z</time>
		<geoidheight>236</geoidheight>
	</trkpt>
	<trkpt lat="50.716634" lon="6.146883">
		<ele>282</ele>
		<time>2011-09-11T08:13:05.858Z</time>
		<geoidheight>236</geoidheight>
	</trkpt>
	<trkpt lat="50.716635" lon="6.146905">
		<ele>282</ele>
		<time>2011-09-11T08:13:06.858Z</time>
		<geoidheight>236</geoidheight>
	</trkpt>
	<trkpt lat="50.716638" lon="6.146926">
		<ele>282</ele>
		<time>2011-09-11T08:13:07.852Z</time>
		<geoidheight>236</geoidheight>
	</trkpt>
	<trkpt lat="50.716641" lon="6.146948">
		<ele>282</ele>
		<time>2011-09-11T08:13:08.860Z</time>
		<geoidheight>236</geoidheight>
	</trkpt>
	<trkpt lat="50.716639" lon="6.146973">
		<ele>282</ele>
		<time>2011-09-11T08:13:09.858Z</time>
		<geoidheight>236</geoidheight>
	</trkpt>
	<trkpt lat="50.716641" lon="6.147000">
		<ele>282</ele>
		<time>2011-09-11T08:13:10.854Z</time>
		<geoidheight>236</geoidheight>
	</trkpt>
	<trkpt lat="50.716644" lon="6.147024">
		<ele>282</ele>
		<time>2011-09-11T08:13:11.856Z</time>
		<geoidheight>236</geoidheight>
	</trkpt>
	<trkpt lat="50.716648" lon="6.147046">
		<ele>281</ele>
		<time>2011-09-11T08:13:12.850Z</time>
		<geoidheight>235</geoidheight>
	</trkpt>
	<trkpt lat="50.716649" lon="6.147071">
		<ele>281</ele>
		<time>2011-09-11T08:13:13.855Z</time>
		<geoidheight>235</geoidheight>
	</trkpt>
	<trkpt lat="50.716652" lon="6.147097">
		<ele>281</ele>
		<time>2011-09-11T08:13:14.857Z</time>
		<geoidheight>235</geoidheight>
	</trkpt>
	<trkpt lat="50.716654" lon="6.147120">
		<ele>281</ele>
		<time>2011-09-11T08:13:15.854Z</time>
		<geoidheight>235</geoidheight>
	</trkpt>
	<trkpt lat="50.716658" lon="6.147141">
		<ele>281</ele>
		<time>2011-09-11T08:13:16.871Z</time>
		<geoidheight>235</geoidheight>
	</trkpt>
	<trkpt lat="50.716660" lon="6.147161">
		<ele>281</ele>
		<time>2011-09-11T08:13:17.868Z</time>
		<geoidheight>235</geoidheight>
	</trkpt>
	<trkpt lat="50.716663" lon="6.147181">
		<ele>281</ele>
		<time>2011-09-11T08:13:18.870Z</time>
		<geoidheight>235</geoidheight>
	</trkpt>
	<trkpt lat="50.716666" lon="6.147199">
		<ele>281</ele>
		<time>2011-09-11T08:13:19.870Z</time>
		<geoidheight>235</geoidheight>
	</trkpt>
	<trkpt lat="50.716669" lon="6.147219">
		<ele>281</ele>
		<time>2011-09-11T08:13:20.871Z</time>
		<geoidheight>235</geoidheight>
	</trkpt>
	<trkpt lat="50.716669" lon="6.147228">
		<ele>281</ele>
		<time>2011-09-11T08:13:21.868Z</time>
		<geoidheight>235</geoidheight>
	</trkpt>
	<trkpt lat="50.716669" lon="6.147242">
		<ele>281</ele>
		<time>2011-09-11T08:13:22.856Z</time>
		<geoidheight>235</geoidheight>
	</trkpt>
	<trkpt lat="50.716671" lon="6.147260">
		<ele>281</ele>
		<time>2011-09-11T08:13:23.847Z</time>
		<geoidheight>235</geoidheight>
	</trkpt>
	<trkpt lat="50.716671" lon="6.147280">
		<ele>281</ele>
		<time>2011-09-11T08:13:24.859Z</time>
		<geoidheight>235</geoidheight>
	</trkpt>
	<trkpt lat="50.716672" lon="6.147302">
		<ele>281</ele>
		<time>2011-09-11T08:13:25.844Z</time>
		<geoidheight>235</geoidheight>
	</trkpt>
	<trkpt lat="50.716673" lon="6.147325">
		<ele>281</ele>
		<time>2011-09-11T08:13:26.856Z</time>
		<geoidheight>235</geoidheight>
	</trkpt>
	<trkpt lat="50.716674" lon="6.147348">
		<ele>281</ele>
		<time>2011-09-11T08:13:27.851Z</time>
		<geoidheight>235</geoidheight>
	</trkpt>
	<trkpt lat="50.716676" lon="6.147371">
		<ele>281</ele>
		<time>2011-09-11T08:13:28.859Z</time>
		<geoidheight>235</geoidheight>
	</trkpt>
	<trkpt lat="50.716679" lon="6.147393">
		<ele>281</ele>
		<time>2011-09-11T08:13:29.859Z</time>
		<geoidheight>235</geoidheight>
	</trkpt>
	<trkpt lat="50.716681" lon="6.147415">
		<ele>281</ele>
		<time>2011-09-11T08:13:30.856Z</time>
		<geoidheight>235</geoidheight>
	</trkpt>
	<trkpt lat="50.716683" lon="6.147436">
		<ele>281</ele>
		<time>2011-09-11T08:13:31.856Z</time>
		<geoidheight>235</geoidheight>
	</trkpt>
	<trkpt lat="50.716684" lon="6.147456">
		<ele>281</ele>
		<time>2011-09-11T08:13:32.854Z</time>
		<geoidheight>235</geoidheight>
	</trkpt>
	<trkpt lat="50.716685" lon="6.147477">
		<ele>281</ele>
		<time>2011-09-11T08:13:33.858Z</time>
		<geoidheight>235</geoidheight>
	</trkpt>
	<trkpt lat="50.716688" lon="6.147498">
		<ele>281</ele>
		<time>2011-09-11T08:13:34.860Z</time>
		<geoidheight>235</geoidheight>
	</trkpt>
	<trkpt lat="50.716691" lon="6.147519">
		<ele>281</ele>
		<time>2011-09-11T08:13:35.858Z</time>
		<geoidheight>235</geoidheight>
	</trkpt>
	<trkpt lat="50.716695" lon="6.147541">
		<ele>281</ele>
		<time>2011-09-11T08:13:36.859Z</time>
		<geoidheight>235</geoidheight>
	</trkpt>
	<trkpt lat="50.716698" lon="6.147562">
		<ele>281</ele>
		<time>2011-09-11T08:13:37.855Z</time>
		<geoidheight>235</geoidheight>
	</trkpt>
	<trkpt lat="50.716701" lon="6.147583">
		<ele>280</ele>
		<time>2011-09-11T08:13:38.859Z</time>
		<geoidheight>234</geoidheight>
	</trkpt>
	<trkpt lat="50.716703" lon="6.147602">
		<ele>280</ele>
		<time>2011-09-11T08:13:39.857Z</time>
		<geoidheight>234</geoidheight>
	</trkpt>
	<trkpt lat="50.716704" lon="6.147622">
		<ele>280</ele>
		<time>2011-09-11T08:13:40.854Z</time>
		<geoidheight>234</geoidheight>
	</trkpt>
	<trkpt lat="50.716707" lon="6.147641">
		<ele>280</ele>
		<time>2011-09-11T08:13:41.843Z</time>
		<geoidheight>234</geoidheight>
	</trkpt>
	<trkpt lat="50.716711" lon="6.147659">
		<ele>280</ele>
		<time>2011-09-11T08:13:42.848Z</time>
		<geoidheight>234</geoidheight>
	</trkpt>
	<trkpt lat="50.716714" lon="6.147679">
		<ele>280</ele>
		<time>2011-09-11T08:13:43.844Z</time>
		<geoidheight>234</geoidheight>
	</trkpt>
	<trkpt lat="50.716716" lon="6.147699">
		<ele>280</ele>
		<time>2011-09-11T08:13:44.846Z</time>
		<geoidheight>234</geoidheight>
	</trkpt>
	<trkpt lat="50.716719" lon="6.147720">
		<ele>280</ele>
		<time>2011-09-11T08:13:45.850Z</time>
		<geoidheight>234</geoidheight>
	</trkpt>
	<trkpt lat="50.716721" lon="6.147741">
		<ele>280</ele>
		<time>2011-09-11T08:13:46.847Z</time>
		<geoidheight>234</geoidheight>
	</trkpt>
	<trkpt lat="50.716724" lon="6.147761">
		<ele>280</ele>
		<time>2011-09-11T08:13:47.844Z</time>
		<geoidheight>234</geoidheight>
	</trkpt>
	<trkpt lat="50.716727" lon="6.147780">
		<ele>280</ele>
		<time>2011-09-11T08:13:48.853Z</time>
		<geoidheight>234</geoidheight>
	</trkpt>
	<trkpt lat="50.716730" lon="6.147799">
		<ele>280</ele>
		<time>2011-09-11T08:13:49.849Z</time>
		<geoidheight>234</geoidheight>
	</trkpt>
	<trkpt lat="50.716733" lon="6.147817">
		<ele>280</ele>
		<time>2011-09-11T08:13:50.844Z</time>
		<geoidheight>234</geoidheight>
	</trkpt>
	<trkpt lat="50.716734" lon="6.147837">
		<ele>280</ele>
		<time>2011-09-11T08:13:51.843Z</time>
		<geoidheight>234</geoidheight>
	</trkpt>
	<trkpt lat="50.716738" lon="6.147856">
		<ele>280</ele>
		<time>2011-09-11T08:13:52.845Z</time>
		<geoidheight>234</geoidheight>
	</trkpt>
	<trkpt lat="50.716743" lon="6.147876">
		<ele>280</ele>
		<time>2011-09-11T08:13:53.845Z</time>
		<geoidheight>234</geoidheight>
	</trkpt>
	<trkpt lat="50.716745" lon="6.147898">
		<ele>280</ele>
		<time>2011-09-11T08:13:54.843Z</time>
		<geoidheight>234</geoidheight>
	</trkpt>
	<trkpt lat="50.716744" lon="6.147920">
		<ele>280</ele>
		<time>2011-09-11T08:13:55.861Z</time>
		<geoidheight>234</geoidheight>
	</trkpt>
	<trkpt lat="50.716745" lon="6.147945">
		<ele>280</ele>
		<time>2011-09-11T08:13:56.862Z</time>
		<geoidheight>234</geoidheight>
	</trkpt>
	<trkpt lat="50.716745" lon="6.147969">
		<ele>280</ele>
		<time>2011-09-11T08:13:57.862Z</time>
		<geoidheight>234</geoidheight>
	</trkpt>
	<trkpt lat="50.716743" lon="6.147993">
		<ele>280</ele>
		<time>2011-09-11T08:13:58.857Z</time>
		<geoidheight>234</geoidheight>
	</trkpt>
	<trkpt lat="50.716741" lon="6.148016">
		<ele>280</ele>
		<time>2011-09-11T08:13:59.858Z</time>
		<geoidheight>234</geoidheight>
	</trkpt>
	<trkpt lat="50.716738" lon="6.148037">
		<ele>280</ele>
		<time>2011-09-11T08:14:00.857Z</time>
		<geoidheight>234</geoidheight>
	</trkpt>
	<trkpt lat="50.716735" lon="6.148055">
		<ele>280</ele>
		<time>2011-09-11T08:14:01.871Z</time>
		<geoidheight>234</geoidheight>
	</trkpt>
	<trkpt lat="50.716732" lon="6.148071">
		<ele>280</ele>
		<time>2011-09-11T08:14:02.858Z</time>
		<geoidheight>234</geoidheight>
	</trkpt>
	<trkpt lat="50.716730" lon="6.148087">
		<ele>280</ele>
		<time>2011-09-11T08:14:03.864Z</time>
		<geoidheight>234</geoidheight>
	</trkpt>
	<trkpt lat="50.716730" lon="6.148102">
		<ele>280</ele>
		<time>2011-09-11T08:14:04.859Z</time>
		<geoidheight>234</geoidheight>
	</trkpt>
	<trkpt lat="50.716736" lon="6.148116">
		<ele>280</ele>
		<time>2011-09-11T08:14:05.861Z</time>
		<geoidheight>234</geoidheight>
	</trkpt>
	<trkpt lat="50.716746" lon="6.148129">
		<ele>280</ele>
		<time>2011-09-11T08:14:06.856Z</time>
		<geoidheight>234</geoidheight>
	</trkpt>
	<trkpt lat="50.716756" lon="6.148141">
		<ele>280</ele>
		<time>2011-09-11T08:14:07.842Z</time>
		<geoidheight>234</geoidheight>
	</trkpt>
	<trkpt lat="50.716767" lon="6.148151">
		<ele>280</ele>
		<time>2011-09-11T08:14:08.853Z</time>
		<geoidheight>234</geoidheight>
	</trkpt>
	<trkpt lat="50.716777" lon="6.148161">
		<ele>280</ele>
		<time>2011-09-11T08:14:09.857Z</time>
		<geoidheight>234</geoidheight>
	</trkpt>
	<trkpt lat="50.716789" lon="6.148171">
		<ele>280</ele>
		<time>2011-09-11T08:14:10.855Z</time>
		<geoidheight>234</geoidheight>
	</trkpt>
	<trkpt lat="50.716800" lon="6.148183">
		<ele>280</ele>
		<time>2011-09-11T08:14:11.854Z</time>
		<geoidheight>234</geoidheight>
	</trkpt>
	<trkpt lat="50.716810" lon="6.148198">
		<ele>280</ele>
		<time>2011-09-11T08:14:12.846Z</time>
		<geoidheight>234</geoidheight>
	</trkpt>
	<trkpt lat="50.716819" lon="6.148215">
		<ele>280</ele>
		<time>2011-09-11T08:14:13.845Z</time>
		<geoidheight>234</geoidheight>
	</trkpt>
	<trkpt lat="50.716829" lon="6.148232">
		<ele>280</ele>
		<time>2011-09-11T08:14:14.849Z</time>
		<geoidheight>234</geoidheight>
	</trkpt>
	<trkpt lat="50.716837" lon="6.148250">
		<ele>280</ele>
		<time>2011-09-11T08:14:15.855Z</time>
		<geoidheight>234</geoidheight>
	</trkpt>
	<trkpt lat="50.716848" lon="6.148266">
		<ele>280</ele>
		<time>2011-09-11T08:14:16.859Z</time>
		<geoidheight>234</geoidheight>
	</trkpt>
	<trkpt lat="50.716858" lon="6.148283">
		<ele>280</ele>
		<time>2011-09-11T08:14:17.867Z</time>
		<geoidheight>234</geoidheight>
	</trkpt>
	<trkpt lat="50.716867" lon="6.148300">
		<ele>280</ele>
		<time>2011-09-11T08:14:18.870Z</time>
		<geoidheight>234</geoidheight>
	</trkpt>
	<trkpt lat="50.716877" lon="6.148315">
		<ele>280</ele>
		<time>2011-09-11T08:14:19.865Z</time>
		<geoidheight>234</geoidheight>
	</trkpt>
	<trkpt lat="50.716888" lon="6.148329">
		<ele>280</ele>
		<time>2011-09-11T08:14:20.869Z</time>
		<geoidheight>234</geoidheight>
	</trkpt>
	<trkpt lat="50.716899" lon="6.148343">
		<ele>280</ele>
		<time>2011-09-11T08:14:21.867Z</time>
		<geoidheight>234</geoidheight>
	</trkpt>
	<trkpt lat="50.716909" lon="6.148357">
		<ele>281</ele>
		<time>2011-09-11T08:14:22.855Z</time>
		<geoidheight>235</geoidheight>
	</trkpt>
	<trkpt lat="50.716919" lon="6.148371">
		<ele>281</ele>
		<time>2011-09-11T08:14:23.860Z</time>
		<geoidheight>235</geoidheight>
	</trkpt>
	<trkpt lat="50.716929" lon="6.148385">
		<ele>281</ele>
		<time>2011-09-11T08:14:24.855Z</time>
		<geoidheight>235</geoidheight>
	</trkpt>
	<trkpt lat="50.716937" lon="6.148400">
		<ele>281</ele>
		<time>2011-09-11T08:14:25.868Z</time>
		<geoidheight>235</geoidheight>
	</trkpt>
	<trkpt lat="50.716946" lon="6.148415">
		<ele>281</ele>
		<time>2011-09-11T08:14:26.870Z</time>
		<geoidheight>235</geoidheight>
	</trkpt>
	<trkpt lat="50.716955" lon="6.148431">
		<ele>281</ele>
		<time>2011-09-11T08:14:27.863Z</time>
		<geoidheight>235</geoidheight>
	</trkpt>
	<trkpt lat="50.716962" lon="6.148450">
		<ele>281</ele>
		<time>2011-09-11T08:14:28.849Z</time>
		<geoidheight>235</geoidheight>
	</trkpt>
	<trkpt lat="50.716970" lon="6.148469">
		<ele>281</ele>
		<time>2011-09-11T08:14:29.861Z</time>
		<geoidheight>235</geoidheight>
	</trkpt>
	<trkpt lat="50.716975" lon="6.148489">
		<ele>281</ele>
		<time>2011-09-11T08:14:30.860Z</time>
		<geoidheight>235</geoidheight>
	</trkpt>
	<trkpt lat="50.716981" lon="6.148510">
		<ele>281</ele>
		<time>2011-09-11T08:14:31.860Z</time>
		<geoidheight>235</geoidheight>
	</trkpt>
	<trkpt lat="50.716987" lon="6.148531">
		<ele>281</ele>
		<time>2011-09-11T08:14:32.862Z</time>
		<geoidheight>235</geoidheight>
	</trkpt>
	<trkpt lat="50.716994" lon="6.148551">
		<ele>281</ele>
		<time>2011-09-11T08:14:33.857Z</time>
		<geoidheight>235</geoidheight>
	</trkpt>
	<trkpt lat="50.717001" lon="6.148573">
		<ele>281</ele>
		<time>2011-09-11T08:14:34.872Z</time>
		<geoidheight>235</geoidheight>
	</trkpt>
	<trkpt lat="50.717009" lon="6.148591">
		<ele>281</ele>
		<time>2011-09-11T08:14:35.861Z</time>
		<geoidheight>235</geoidheight>
	</trkpt>
	<trkpt lat="50.717018" lon="6.148608">
		<ele>281</ele>
		<time>2011-09-11T08:14:36.863Z</time>
		<geoidheight>235</geoidheight>
	</trkpt>
	<trkpt lat="50.717027" lon="6.148625">
		<ele>281</ele>
		<time>2011-09-11T08:14:37.846Z</time>
		<geoidheight>235</geoidheight>
	</trkpt>
	<trkpt lat="50.717037" lon="6.148642">
		<ele>281</ele>
		<time>2011-09-11T08:14:38.875Z</time>
		<geoidheight>235</geoidheight>
	</trkpt>
	<trkpt lat="50.717044" lon="6.148660">
		<ele>281</ele>
		<time>2011-09-11T08:14:39.871Z</time>
		<geoidheight>235</geoidheight>
	</trkpt>
	<trkpt lat="50.717051" lon="6.148678">
		<ele>281</ele>
		<time>2011-09-11T08:14:40.876Z</time>
		<geoidheight>235</geoidheight>
	</trkpt>
	<trkpt lat="50.717057" lon="6.148695">
		<ele>281</ele>
		<time>2011-09-11T08:14:41.865Z</time>
		<geoidheight>235</geoidheight>
	</trkpt>
	<trkpt lat="50.717064" lon="6.148711">
		<ele>281</ele>
		<time>2011-09-11T08:14:42.867Z</time>
		<geoidheight>235</geoidheight>
	</trkpt>
	<trkpt lat="50.717071" lon="6.148725">
		<ele>281</ele>
		<time>2011-09-11T08:14:43.869Z</time>
		<geoidheight>235</geoidheight>
	</trkpt>
	<trkpt lat="50.717079" lon="6.148739">
		<ele>281</ele>
		<time>2011-09-11T08:14:44.865Z</time>
		<geoidheight>235</geoidheight>
	</trkpt>
	<trkpt lat="50.717086" lon="6.148755">
		<ele>282</ele>
		<time>2011-09-11T08:14:45.873Z</time>
		<geoidheight>236</geoidheight>
	</trkpt>
	<trkpt lat="50.717093" lon="6.148774">
		<ele>282</ele>
		<time>2011-09-11T08:14:46.868Z</time>
		<geoidheight>236</geoidheight>
	</trkpt>
	<trkpt lat="50.717100" lon="6.148794">
		<ele>282</ele>
		<time>2011-09-11T08:14:47.862Z</time>
		<geoidheight>236</geoidheight>
	</trkpt>
	<trkpt lat="50.717109" lon="6.148815">
		<ele>282</ele>
		<time>2011-09-11T08:14:48.875Z</time>
		<geoidheight>236</geoidheight>
	</trkpt>
	<trkpt lat="50.717119" lon="6.148831">
		<ele>282</ele>
		<time>2011-09-11T08:14:49.871Z</time>
		<geoidheight>236</geoidheight>
	</trkpt>
	<trkpt lat="50.717127" lon="6.148851">
		<ele>282</ele>
		<time>2011-09-11T08:14:50.868Z</time>
		<geoidheight>236</geoidheight>
	</trkpt>
	<trkpt lat="50.717134" lon="6.148871">
		<ele>282</ele>
		<time>2011-09-11T08:14:51.864Z</time>
		<geoidheight>236</geoidheight>
	</trkpt>
	<trkpt lat="50.717142" lon="6.148890">
		<ele>282</ele>
		<time>2011-09-11T08:14:52.868Z</time>
		<geoidheight>236</geoidheight>
	</trkpt>
	<trkpt lat="50.717148" lon="6.148909">
		<ele>282</ele>
		<time>2011-09-11T08:14:53.866Z</time>
		<geoidheight>236</geoidheight>
	</trkpt>
	<trkpt lat="50.717154" lon="6.148928">
		<ele>282</ele>
		<time>2011-09-11T08:14:54.866Z</time>
		<geoidheight>236</geoidheight>
	</trkpt>
	<trkpt lat="50.717161" lon="6.148946">
		<ele>282</ele>
		<time>2011-09-11T08:14:55.877Z</time>
		<geoidheight>236</geoidheight>
	</trkpt>
	<trkpt lat="50.717167" lon="6.148963">
		<ele>282</ele>
		<time>2011-09-11T08:14:56.867Z</time>
		<geoidheight>236</geoidheight>
	</trkpt>
	<trkpt lat="50.717171" lon="6.148982">
		<ele>282</ele>
		<time>2011-09-11T08:14:57.863Z</time>
		<geoidheight>236</geoidheight>
	</trkpt>
	<trkpt lat="50.717178" lon="6.148999">
		<ele>282</ele>
		<time>2011-09-11T08:14:58.869Z</time>
		<geoidheight>236</geoidheight>
	</trkpt>
	<trkpt lat="50.717184" lon="6.149016">
		<ele>282</ele>
		<time>2011-09-11T08:14:59.852Z</time>
		<geoidheight>236</geoidheight>
	</trkpt>
	<trkpt lat="50.717190" lon="6.149033">
		<ele>282</ele>
		<time>2011-09-11T08:15:00.859Z</time>
		<geoidheight>236</geoidheight>
	</trkpt>
	<trkpt lat="50.717197" lon="6.149049">
		<ele>282</ele>
		<time>2011-09-11T08:15:01.857Z</time>
		<geoidheight>236</geoidheight>
	</trkpt>
	<trkpt lat="50.717205" lon="6.149064">
		<ele>282</ele>
		<time>2011-09-11T08:15:02.853Z</time>
		<geoidheight>236</geoidheight>
	</trkpt>
	<trkpt lat="50.717214" lon="6.149080">
		<ele>283</ele>
		<time>2011-09-11T08:15:03.853Z</time>
		<geoidheight>237</geoidheight>
	</trkpt>
	<trkpt lat="50.717222" lon="6.149098">
		<ele>283</ele>
		<time>2011-09-11T08:15:04.859Z</time>
		<geoidheight>237</geoidheight>
	</trkpt>
	<trkpt lat="50.717231" lon="6.149116">
		<ele>283</ele>
		<time>2011-09-11T08:15:05.863Z</time>
		<geoidheight>237</geoidheight>
	</trkpt>
	<trkpt lat="50.717239" lon="6.149134">
		<ele>283</ele>
		<time>2011-09-11T08:15:06.861Z</time>
		<geoidheight>237</geoidheight>
	</trkpt>
	<trkpt lat="50.717247" lon="6.149152">
		<ele>283</ele>
		<time>2011-09-11T08:15:07.842Z</time>
		<geoidheight>237</geoidheight>
	</trkpt>
	<trkpt lat="50.717254" lon="6.149170">
		<ele>283</ele>
		<time>2011-09-11T08:15:08.868Z</time>
		<geoidheight>237</geoidheight>
	</trkpt>
	<trkpt lat="50.717262" lon="6.149189">
		<ele>283</ele>
		<time>2011-09-11T08:15:09.856Z</time>
		<geoidheight>237</geoidheight>
	</trkpt>
	<trkpt lat="50.717270" lon="6.149209">
		<ele>283</ele>
		<time>2011-09-11T08:15:10.860Z</time>
		<geoidheight>237</geoidheight>
	</trkpt>
	<trkpt lat="50.717278" lon="6.149229">
		<ele>283</ele>
		<time>2011-09-11T08:15:11.852Z</time>
		<geoidheight>237</geoidheight>
	</trkpt>
	<trkpt lat="50.717285" lon="6.149248">
		<ele>283</ele>
		<time>2011-09-11T08:15:12.856Z</time>
		<geoidheight>237</geoidheight>
	</trkpt>
	<trkpt lat="50.717293" lon="6.149265">
		<ele>283</ele>
		<time>2011-09-11T08:15:13.857Z</time>
		<geoidheight>237</geoidheight>
	</trkpt>
	<trkpt lat="50.717300" lon="6.149283">
		<ele>283</ele>
		<time>2011-09-11T08:15:14.860Z</time>
		<geoidheight>237</geoidheight>
	</trkpt>
	<trkpt lat="50.717307" lon="6.149302">
		<ele>283</ele>
		<time>2011-09-11T08:15:15.862Z</time>
		<geoidheight>237</geoidheight>
	</trkpt>
	<trkpt lat="50.717321" lon="6.149341">
		<ele>283</ele>
		<time>2011-09-11T08:15:16.859Z</time>
		<geoidheight>237</geoidheight>
	</trkpt>
	<trkpt lat="50.717330" lon="6.149361">
		<ele>283</ele>
		<time>2011-09-11T08:15:17.859Z</time>
		<geoidheight>237</geoidheight>
	</trkpt>
	<trkpt lat="50.717336" lon="6.149380">
		<ele>284</ele>
		<time>2011-09-11T08:15:18.855Z</time>
		<geoidheight>238</geoidheight>
	</trkpt>
	<trkpt lat="50.717339" lon="6.149399">
		<ele>284</ele>
		<time>2011-09-11T08:15:19.862Z</time>
		<geoidheight>238</geoidheight>
	</trkpt>
	<trkpt lat="50.717339" lon="6.149416">
		<ele>284</ele>
		<time>2011-09-11T08:15:20.854Z</time>
		<geoidheight>238</geoidheight>
	</trkpt>
	<trkpt lat="50.717341" lon="6.149431">
		<ele>284</ele>
		<time>2011-09-11T08:15:21.854Z</time>
		<geoidheight>238</geoidheight>
	</trkpt>
	<trkpt lat="50.717347" lon="6.149444">
		<ele>284</ele>
		<time>2011-09-11T08:15:22.857Z</time>
		<geoidheight>238</geoidheight>
	</trkpt>
	<trkpt lat="50.717355" lon="6.149456">
		<ele>284</ele>
		<time>2011-09-11T08:15:23.858Z</time>
		<geoidheight>238</geoidheight>
	</trkpt>
	<trkpt lat="50.717362" lon="6.149470">
		<ele>284</ele>
		<time>2011-09-11T08:15:24.866Z</time>
		<geoidheight>238</geoidheight>
	</trkpt>
	<trkpt lat="50.717369" lon="6.149485">
		<ele>284</ele>
		<time>2011-09-11T08:15:25.865Z</time>
		<geoidheight>238</geoidheight>
	</trkpt>
	<trkpt lat="50.717377" lon="6.149498">
		<ele>284</ele>
		<time>2011-09-11T08:15:26.861Z</time>
		<geoidheight>238</geoidheight>
	</trkpt>
	<trkpt lat="50.717380" lon="6.149517">
		<ele>284</ele>
		<time>2011-09-11T08:15:27.859Z</time>
		<geoidheight>238</geoidheight>
	</trkpt>
	<trkpt lat="50.717383" lon="6.149537">
		<ele>284</ele>
		<time>2011-09-11T08:15:28.847Z</time>
		<geoidheight>238</geoidheight>
	</trkpt>
	<trkpt lat="50.717389" lon="6.149558">
		<ele>284</ele>
		<time>2011-09-11T08:15:29.847Z</time>
		<geoidheight>238</geoidheight>
	</trkpt>
	<trkpt lat="50.717392" lon="6.149578">
		<ele>285</ele>
		<time>2011-09-11T08:15:30.848Z</time>
		<geoidheight>239</geoidheight>
	</trkpt>
	<trkpt lat="50.717397" lon="6.149596">
		<ele>285</ele>
		<time>2011-09-11T08:15:31.848Z</time>
		<geoidheight>239</geoidheight>
	</trkpt>
	<trkpt lat="50.717402" lon="6.149614">
		<ele>285</ele>
		<time>2011-09-11T08:15:32.851Z</time>
		<geoidheight>239</geoidheight>
	</trkpt>
	<trkpt lat="50.717409" lon="6.149633">
		<ele>285</ele>
		<time>2011-09-11T08:15:33.845Z</time>
		<geoidheight>239</geoidheight>
	</trkpt>
	<trkpt lat="50.717418" lon="6.149652">
		<ele>285</ele>
		<time>2011-09-11T08:15:34.849Z</time>
		<geoidheight>239</geoidheight>
	</trkpt>
	<trkpt lat="50.717426" lon="6.149674">
		<ele>285</ele>
		<time>2011-09-11T08:15:35.850Z</time>
		<geoidheight>239</geoidheight>
	</trkpt>
	<trkpt lat="50.717435" lon="6.149695">
		<ele>285</ele>
		<time>2011-09-11T08:15:36.846Z</time>
		<geoidheight>239</geoidheight>
	</trkpt>
	<trkpt lat="50.717442" lon="6.149718">
		<ele>285</ele>
		<time>2011-09-11T08:15:37.842Z</time>
		<geoidheight>239</geoidheight>
	</trkpt>
	<trkpt lat="50.717448" lon="6.149742">
		<ele>285</ele>
		<time>2011-09-11T08:15:38.847Z</time>
		<geoidheight>239</geoidheight>
	</trkpt>
	<trkpt lat="50.717455" lon="6.149761">
		<ele>285</ele>
		<time>2011-09-11T08:15:39.845Z</time>
		<geoidheight>239</geoidheight>
	</trkpt>
	<trkpt lat="50.717464" lon="6.149776">
		<ele>286</ele>
		<time>2011-09-11T08:15:40.847Z</time>
		<geoidheight>240</geoidheight>
	</trkpt>
	<trkpt lat="50.717471" lon="6.149793">
		<ele>286</ele>
		<time>2011-09-11T08:15:41.844Z</time>
		<geoidheight>240</geoidheight>
	</trkpt>
	<trkpt lat="50.717477" lon="6.149809">
		<ele>286</ele>
		<time>2011-09-11T08:15:42.846Z</time>
		<geoidheight>240</geoidheight>
	</trkpt>
	<trkpt lat="50.717481" lon="6.149828">
		<ele>286</ele>
		<time>2011-09-11T08:15:43.853Z</time>
		<geoidheight>240</geoidheight>
	</trkpt>
	<trkpt lat="50.717484" lon="6.149847">
		<ele>286</ele>
		<time>2011-09-11T08:15:44.851Z</time>
		<geoidheight>240</geoidheight>
	</trkpt>
	<trkpt lat="50.717490" lon="6.149864">
		<ele>286</ele>
		<time>2011-09-11T08:15:45.847Z</time>
		<geoidheight>240</geoidheight>
	</trkpt>
	<trkpt lat="50.717493" lon="6.149884">
		<ele>286</ele>
		<time>2011-09-11T08:15:46.845Z</time>
		<geoidheight>240</geoidheight>
	</trkpt>
	<trkpt lat="50.717497" lon="6.149903">
		<ele>286</ele>
		<time>2011-09-11T08:15:47.847Z</time>
		<geoidheight>240</geoidheight>
	</trkpt>
	<trkpt lat="50.717502" lon="6.149924">
		<ele>286</ele>
		<time>2011-09-11T08:15:48.847Z</time>
		<geoidheight>240</geoidheight>
	</trkpt>
	<trkpt lat="50.717506" lon="6.149946">
		<ele>286</ele>
		<time>2011-09-11T08:15:49.850Z</time>
		<geoidheight>240</geoidheight>
	</trkpt>
	<trkpt lat="50.717513" lon="6.149965">
		<ele>286</ele>
		<time>2011-09-11T08:15:50.849Z</time>
		<geoidheight>240</geoidheight>
	</trkpt>
	<trkpt lat="50.717520" lon="6.149983">
		<ele>286</ele>
		<time>2011-09-11T08:15:51.850Z</time>
		<geoidheight>240</geoidheight>
	</trkpt>
	<trkpt lat="50.717524" lon="6.150002">
		<ele>287</ele>
		<time>2011-09-11T08:15:52.847Z</time>
		<geoidheight>241</geoidheight>
	</trkpt>
	<trkpt lat="50.717528" lon="6.150021">
		<ele>287</ele>
		<time>2011-09-11T08:15:53.853Z</time>
		<geoidheight>241</geoidheight>
	</trkpt>
	<trkpt lat="50.717536" lon="6.150036">
		<ele>287</ele>
		<time>2011-09-11T08:15:54.846Z</time>
		<geoidheight>241</geoidheight>
	</trkpt>
	<trkpt lat="50.717544" lon="6.150052">
		<ele>287</ele>
		<time>2011-09-11T08:15:55.845Z</time>
		<geoidheight>241</geoidheight>
	</trkpt>
	<trkpt lat="50.717549" lon="6.150067">
		<ele>287</ele>
		<time>2011-09-11T08:15:56.844Z</time>
		<geoidheight>241</geoidheight>
	</trkpt>
	<trkpt lat="50.717557" lon="6.150083">
		<ele>287</ele>
		<time>2011-09-11T08:15:57.846Z</time>
		<geoidheight>241</geoidheight>
	</trkpt>
	<trkpt lat="50.717568" lon="6.150097">
		<ele>287</ele>
		<time>2011-09-11T08:15:58.843Z</time>
		<geoidheight>241</geoidheight>
	</trkpt>
	<trkpt lat="50.717579" lon="6.150109">
		<ele>287</ele>
		<time>2011-09-11T08:15:59.844Z</time>
		<geoidheight>241</geoidheight>
	</trkpt>
	<trkpt lat="50.717589" lon="6.150123">
		<ele>287</ele>
		<time>2011-09-11T08:16:00.846Z</time>
		<geoidheight>241</geoidheight>
	</trkpt>
	<trkpt lat="50.717598" lon="6.150136">
		<ele>287</ele>
		<time>2011-09-11T08:16:01.844Z</time>
		<geoidheight>241</geoidheight>
	</trkpt>
	<trkpt lat="50.717608" lon="6.150151">
		<ele>287</ele>
		<time>2011-09-11T08:16:02.856Z</time>
		<geoidheight>241</geoidheight>
	</trkpt>
	<trkpt lat="50.717618" lon="6.150167">
		<ele>288</ele>
		<time>2011-09-11T08:16:03.860Z</time>
		<geoidheight>242</geoidheight>
	</trkpt>
	<trkpt lat="50.717627" lon="6.150184">
		<ele>288</ele>
		<time>2011-09-11T08:16:04.864Z</time>
		<geoidheight>242</geoidheight>
	</trkpt>
	<trkpt lat="50.717636" lon="6.150201">
		<ele>288</ele>
		<time>2011-09-11T08:16:05.859Z</time>
		<geoidheight>242</geoidheight>
	</trkpt>
	<trkpt lat="50.717641" lon="6.150222">
		<ele>288</ele>
		<time>2011-09-11T08:16:06.857Z</time>
		<geoidheight>242</geoidheight>
	</trkpt>
	<trkpt lat="50.717650" lon="6.150239">
		<ele>288</ele>
		<time>2011-09-11T08:16:07.842Z</time>
		<geoidheight>242</geoidheight>
	</trkpt>
	<trkpt lat="50.717658" lon="6.150256">
		<ele>288</ele>
		<time>2011-09-11T08:16:08.860Z</time>
		<geoidheight>242</geoidheight>
	</trkpt>
	<trkpt lat="50.717666" lon="6.150271">
		<ele>288</ele>
		<time>2011-09-11T08:16:09.850Z</time>
		<geoidheight>242</geoidheight>
	</trkpt>
	<trkpt lat="50.717672" lon="6.150288">
		<ele>288</ele>
		<time>2011-09-11T08:16:10.848Z</time>
		<geoidheight>242</geoidheight>
	</trkpt>
	<trkpt lat="50.717680" lon="6.150303">
		<ele>288</ele>
		<time>2011-09-11T08:16:11.849Z</time>
		<geoidheight>242</geoidheight>
	</trkpt>
	<trkpt lat="50.717684" lon="6.150321">
		<ele>288</ele>
		<time>2011-09-11T08:16:12.845Z</time>
		<geoidheight>242</geoidheight>
	</trkpt>
	<trkpt lat="50.717688" lon="6.150342">
		<ele>288</ele>
		<time>2011-09-11T08:16:13.847Z</time>
		<geoidheight>242</geoidheight>
	</trkpt>
	<trkpt lat="50.717695" lon="6.150365">
		<ele>288</ele>
		<time>2011-09-11T08:16:14.849Z</time>
		<geoidheight>242</geoidheight>
	</trkpt>
	<trkpt lat="50.717704" lon="6.150390">
		<ele>289</ele>
		<time>2011-09-11T08:16:15.846Z</time>
		<geoidheight>243</geoidheight>
	</trkpt>
	<trkpt lat="50.717713" lon="6.150416">
		<ele>289</ele>
		<time>2011-09-11T08:16:16.847Z</time>
		<geoidheight>243</geoidheight>
	</trkpt>
	<trkpt lat="50.717720" lon="6.150440">
		<ele>289</ele>
		<time>2011-09-11T08:16:17.857Z</time>
		<geoidheight>243</geoidheight>
	</trkpt>
	<trkpt lat="50.717728" lon="6.150460">
		<ele>289</ele>
		<time>2011-09-11T08:16:18.856Z</time>
		<geoidheight>243</geoidheight>
	</trkpt>
	<trkpt lat="50.717737" lon="6.150476">
		<ele>289</ele>
		<time>2011-09-11T08:16:19.858Z</time>
		<geoidheight>243</geoidheight>
	</trkpt>
	<trkpt lat="50.717745" lon="6.150493">
		<ele>289</ele>
		<time>2011-09-11T08:16:20.855Z</time>
		<geoidheight>243</geoidheight>
	</trkpt>
	<trkpt lat="50.717751" lon="6.150513">
		<ele>289</ele>
		<time>2011-09-11T08:16:21.857Z</time>
		<geoidheight>243</geoidheight>
	</trkpt>
	<trkpt lat="50.717759" lon="6.150526">
		<ele>289</ele>
		<time>2011-09-11T08:16:22.853Z</time>
		<geoidheight>243</geoidheight>
	</trkpt>
	<trkpt lat="50.717766" lon="6.150540">
		<ele>289</ele>
		<time>2011-09-11T08:16:23.861Z</time>
		<geoidheight>243</geoidheight>
	</trkpt>
	<trkpt lat="50.717775" lon="6.150550">
		<ele>289</ele>
		<time>2011-09-11T08:16:24.861Z</time>
		<geoidheight>243</geoidheight>
	</trkpt>
	<trkpt lat="50.717782" lon="6.150567">
		<ele>289</ele>
		<time>2011-09-11T08:16:25.854Z</time>
		<geoidheight>243</geoidheight>
	</trkpt>
	<trkpt lat="50.717786" lon="6.150586">
		<ele>289</ele>
		<time>2011-09-11T08:16:26.855Z</time>
		<geoidheight>243</geoidheight>
	</trkpt>
	<trkpt lat="50.717789" lon="6.150608">
		<ele>289</ele>
		<time>2011-09-11T08:16:27.851Z</time>
		<geoidheight>243</geoidheight>
	</trkpt>
	<trkpt lat="50.717795" lon="6.150632">
		<ele>289</ele>
		<time>2011-09-11T08:16:28.859Z</time>
		<geoidheight>243</geoidheight>
	</trkpt>
	<trkpt lat="50.717800" lon="6.150656">
		<ele>289</ele>
		<time>2011-09-11T08:16:29.856Z</time>
		<geoidheight>243</geoidheight>
	</trkpt>
	<trkpt lat="50.717804" lon="6.150678">
		<ele>290</ele>
		<time>2011-09-11T08:16:30.854Z</time>
		<geoidheight>244</geoidheight>
	</trkpt>
	<trkpt lat="50.717810" lon="6.150694">
		<ele>290</ele>
		<time>2011-09-11T08:16:31.852Z</time>
		<geoidheight>244</geoidheight>
	</trkpt>
	<trkpt lat="50.717818" lon="6.150708">
		<ele>290</ele>
		<time>2011-09-11T08:16:32.857Z</time>
		<geoidheight>244</geoidheight>
	</trkpt>
	<trkpt lat="50.717824" lon="6.150724">
		<ele>290</ele>
		<time>2011-09-11T08:16:33.863Z</time>
		<geoidheight>244</geoidheight>
	</trkpt>
	<trkpt lat="50.717830" lon="6.150740">
		<ele>290</ele>
		<time>2011-09-11T08:16:34.859Z</time>
		<geoidheight>244</geoidheight>
	</trkpt>
	<trkpt lat="50.717834" lon="6.150758">
		<ele>290</ele>
		<time>2011-09-11T08:16:35.857Z</time>
		<geoidheight>244</geoidheight>
	</trkpt>
	<trkpt lat="50.717840" lon="6.150776">
		<ele>290</ele>
		<time>2011-09-11T08:16:36.858Z</time>
		<geoidheight>244</geoidheight>
	</trkpt>
	<trkpt lat="50.717844" lon="6.150796">
		<ele>290</ele>
		<time>2011-09-11T08:16:37.850Z</time>
		<geoidheight>244</geoidheight>
	</trkpt>
	<trkpt lat="50.717849" lon="6.150815">
		<ele>290</ele>
		<time>2011-09-11T08:16:38.872Z</time>
		<geoidheight>244</geoidheight>
	</trkpt>
	<trkpt lat="50.717859" lon="6.150832">
		<ele>290</ele>
		<time>2011-09-11T08:16:39.867Z</time>
		<geoidheight>244</geoidheight>
	</trkpt>
	<trkpt lat="50.717864" lon="6.150853">
		<ele>290</ele>
		<time>2011-09-11T08:16:40.864Z</time>
		<geoidheight>244</geoidheight>
	</trkpt>
	<trkpt lat="50.717866" lon="6.150873">
		<ele>290</ele>
		<time>2011-09-11T08:16:41.868Z</time>
		<geoidheight>244</geoidheight>
	</trkpt>
	<trkpt lat="50.717868" lon="6.150896">
		<ele>290</ele>
		<time>2011-09-11T08:16:42.867Z</time>
		<geoidheight>244</geoidheight>
	</trkpt>
	<trkpt lat="50.717873" lon="6.150918">
		<ele>290</ele>
		<time>2011-09-11T08:16:43.871Z</time>
		<geoidheight>244</geoidheight>
	</trkpt>
	<trkpt lat="50.717878" lon="6.150941">
		<ele>290</ele>
		<time>2011-09-11T08:16:44.875Z</time>
		<geoidheight>244</geoidheight>
	</trkpt>
	<trkpt lat="50.717883" lon="6.150963">
		<ele>290</ele>
		<time>2011-09-11T08:16:45.856Z</time>
		<geoidheight>244</geoidheight>
	</trkpt>
	<trkpt lat="50.717888" lon="6.150984">
		<ele>290</ele>
		<time>2011-09-11T08:16:46.859Z</time>
		<geoidheight>244</geoidheight>
	</trkpt>
	<trkpt lat="50.717893" lon="6.151002">
		<ele>290</ele>
		<time>2011-09-11T08:16:47.848Z</time>
		<geoidheight>244</geoidheight>
	</trkpt>
	<trkpt lat="50.717898" lon="6.151020">
		<ele>290</ele>
		<time>2011-09-11T08:16:48.853Z</time>
		<geoidheight>244</geoidheight>
	</trkpt>
	<trkpt lat="50.717906" lon="6.151034">
		<ele>290</ele>
		<time>2011-09-11T08:16:49.856Z</time>
		<geoidheight>244</geoidheight>
	</trkpt>
	<trkpt lat="50.717911" lon="6.151049">
		<ele>290</ele>
		<time>2011-09-11T08:16:50.866Z</time>
		<geoidheight>244</geoidheight>
	</trkpt>
	<trkpt lat="50.717913" lon="6.151067">
		<ele>290</ele>
		<time>2011-09-11T08:16:51.866Z</time>
		<geoidheight>244</geoidheight>
	</trkpt>
	<trkpt lat="50.717917" lon="6.151083">
		<ele>290</ele>
		<time>2011-09-11T08:16:52.864Z</time>
		<geoidheight>244</geoidheight>
	</trkpt>
	<trkpt lat="50.717920" lon="6.151100">
		<ele>291</ele>
		<time>2011-09-11T08:16:53.860Z</time>
		<geoidheight>245</geoidheight>
	</trkpt>
	<trkpt lat="50.717929" lon="6.151111">
		<ele>291</ele>
		<time>2011-09-11T08:16:54.864Z</time>
		<geoidheight>245</geoidheight>
	</trkpt>
	<trkpt lat="50.717933" lon="6.151131">
		<ele>291</ele>
		<time>2011-09-11T08:16:55.858Z</time>
		<geoidheight>245</geoidheight>
	</trkpt>
	<trkpt lat="50.717940" lon="6.151151">
		<ele>291</ele>
		<time>2011-09-11T08:16:56.858Z</time>
		<geoidheight>245</geoidheight>
	</trkpt>
	<trkpt lat="50.717946" lon="6.151173">
		<ele>291</ele>
		<time>2011-09-11T08:16:57.859Z</time>
		<geoidheight>245</geoidheight>
	</trkpt>
	<trkpt lat="50.717953" lon="6.151195">
		<ele>291</ele>
		<time>2011-09-11T08:16:58.862Z</time>
		<geoidheight>245</geoidheight>
	</trkpt>
	<trkpt lat="50.717959" lon="6.151218">
		<ele>291</ele>
		<time>2011-09-11T08:16:59.856Z</time>
		<geoidheight>245</geoidheight>
	</trkpt>
	<trkpt lat="50.717964" lon="6.151243">
		<ele>291</ele>
		<time>2011-09-11T08:17:00.857Z</time>
		<geoidheight>245</geoidheight>
	</trkpt>
	<trkpt lat="50.717967" lon="6.151269">
		<ele>291</ele>
		<time>2011-09-11T08:17:01.858Z</time>
		<geoidheight>245</geoidheight>
	</trkpt>
	<trkpt lat="50.717970" lon="6.151294">
		<ele>291</ele>
		<time>2011-09-11T08:17:02.859Z</time>
		<geoidheight>245</geoidheight>
	</trkpt>
	<trkpt lat="50.717974" lon="6.151319">
		<ele>291</ele>
		<time>2011-09-11T08:17:03.860Z</time>
		<geoidheight>245</geoidheight>
	</trkpt>
	<trkpt lat="50.717983" lon="6.151344">
		<ele>291</ele>
		<time>2011-09-11T08:17:04.863Z</time>
		<geoidheight>245</geoidheight>
	</trkpt>
	<trkpt lat="50.717991" lon="6.151369">
		<ele>291</ele>
		<time>2011-09-11T08:17:05.868Z</time>
		<geoidheight>245</geoidheight>
	</trkpt>
	<trkpt lat="50.718000" lon="6.151394">
		<ele>291</ele>
		<time>2011-09-11T08:17:06.859Z</time>
		<geoidheight>245</geoidheight>
	</trkpt>
	<trkpt lat="50.718005" lon="6.151420">
		<ele>291</ele>
		<time>2011-09-11T08:17:07.853Z</time>
		<geoidheight>245</geoidheight>
	</trkpt>
	<trkpt lat="50.718011" lon="6.151442">
		<ele>291</ele>
		<time>2011-09-11T08:17:08.860Z</time>
		<geoidheight>245</geoidheight>
	</trkpt>
	<trkpt lat="50.718018" lon="6.151460">
		<ele>291</ele>
		<time>2011-09-11T08:17:09.858Z</time>
		<geoidheight>245</geoidheight>
	</trkpt>
	<trkpt lat="50.718023" lon="6.151479">
		<ele>291</ele>
		<time>2011-09-11T08:17:10.856Z</time>
		<geoidheight>245</geoidheight>
	</trkpt>
	<trkpt lat="50.718030" lon="6.151494">
		<ele>291</ele>
		<time>2011-09-11T08:17:11.864Z</time>
		<geoidheight>245</geoidheight>
	</trkpt>
	<trkpt lat="50.718035" lon="6.151511">
		<ele>291</ele>
		<time>2011-09-11T08:17:12.856Z</time>
		<geoidheight>245</geoidheight>
	</trkpt>
	<trkpt lat="50.718041" lon="6.151526">
		<ele>291</ele>
		<time>2011-09-11T08:17:13.859Z</time>
		<geoidheight>245</geoidheight>
	</trkpt>
	<trkpt lat="50.718046" lon="6.151541">
		<ele>291</ele>
		<time>2011-09-11T08:17:14.867Z</time>
		<geoidheight>245</geoidheight>
	</trkpt>
	<trkpt lat="50.718052" lon="6.151563">
		<ele>291</ele>
		<time>2011-09-11T08:17:15.861Z</time>
		<geoidheight>245</geoidheight>
	</trkpt>
	<trkpt lat="50.718055" lon="6.151585">
		<ele>291</ele>
		<time>2011-09-11T08:17:16.861Z</time>
		<geoidheight>245</geoidheight>
	</trkpt>
	<trkpt lat="50.718063" lon="6.151605">
		<ele>291</ele>
		<time>2011-09-11T08:17:17.855Z</time>
		<geoidheight>245</geoidheight>
	</trkpt>
	<trkpt lat="50.718071" lon="6.151625">
		<ele>291</ele>
		<time>2011-09-11T08:17:18.857Z</time>
		<geoidheight>245</geoidheight>
	</trkpt>
	<trkpt lat="50.718078" lon="6.151647">
		<ele>291</ele>
		<time>2011-09-11T08:17:19.857Z</time>
		<geoidheight>245</geoidheight>
	</trkpt>
	<trkpt lat="50.718082" lon="6.151669">
		<ele>291</ele>
		<time>2011-09-11T08:17:20.857Z</time>
		<geoidheight>245</geoidheight>
	</trkpt>
	<trkpt lat="50.718092" lon="6.151683">
		<ele>292</ele>
		<time>2011-09-11T08:17:21.857Z</time>
		<geoidheight>246</geoidheight>
	</trkpt>
	<trkpt lat="50.718104" lon="6.151696">
		<ele>292</ele>
		<time>2011-09-11T08:17:22.862Z</time>
		<geoidheight>246</geoidheight>
	</trkpt>
	<trkpt lat="50.718115" lon="6.151704">
		<ele>292</ele>
		<time>2011-09-11T08:17:23.855Z</time>
		<geoidheight>246</geoidheight>
	</trkpt>
	<trkpt lat="50.718123" lon="6.151718">
		<ele>292</ele>
		<time>2011-09-11T08:17:24.859Z</time>
		<geoidheight>246</geoidheight>
	</trkpt>
	<trkpt lat="50.718134" lon="6.151730">
		<ele>292</ele>
		<time>2011-09-11T08:17:25.860Z</time>
		<geoidheight>246</geoidheight>
	</trkpt>
	<trkpt lat="50.718144" lon="6.151742">
		<ele>292</ele>
		<time>2011-09-11T08:17:26.857Z</time>
		<geoidheight>246</geoidheight>
	</trkpt>
	<trkpt lat="50.718151" lon="6.151760">
		<ele>292</ele>
		<time>2011-09-11T08:17:27.850Z</time>
		<geoidheight>246</geoidheight>
	</trkpt>
	<trkpt lat="50.718156" lon="6.151779">
		<ele>292</ele>
		<time>2011-09-11T08:17:28.860Z</time>
		<geoidheight>246</geoidheight>
	</trkpt>
	<trkpt lat="50.718159" lon="6.151800">
		<ele>292</ele>
		<time>2011-09-11T08:17:29.859Z</time>
		<geoidheight>246</geoidheight>
	</trkpt>
	<trkpt lat="50.718162" lon="6.151819">
		<ele>292</ele>
		<time>2011-09-11T08:17:30.862Z</time>
		<geoidheight>246</geoidheight>
	</trkpt>
	<trkpt lat="50.718167" lon="6.151836">
		<ele>292</ele>
		<time>2011-09-11T08:17:31.859Z</time>
		<geoidheight>246</geoidheight>
	</trkpt>
	<trkpt lat="50.718175" lon="6.151852">
		<ele>292</ele>
		<time>2011-09-11T08:17:32.859Z</time>
		<geoidheight>246</geoidheight>
	</trkpt>
	<trkpt lat="50.718183" lon="6.151872">
		<ele>292</ele>
		<time>2011-09-11T08:17:33.863Z</time>
		<geoidheight>246</geoidheight>
	</trkpt>
	<trkpt lat="50.718192" lon="6.151892">
		<ele>292</ele>
		<time>2011-09-11T08:17:34.867Z</time>
		<geoidheight>246</geoidheight>
	</trkpt>
	<trkpt lat="50.718200" lon="6.151913">
		<ele>292</ele>
		<time>2011-09-11T08:17:35.849Z</time>
		<geoidheight>246</geoidheight>
	</trkpt>
	<trkpt lat="50.718209" lon="6.151934">
		<ele>292</ele>
		<time>2011-09-11T08:17:36.845Z</time>
		<geoidheight>246</geoidheight>
	</trkpt>
	<trkpt lat="50.718217" lon="6.151952">
		<ele>292</ele>
		<time>2011-09-11T08:17:37.849Z</time>
		<geoidheight>246</geoidheight>
	</trkpt>
	<trkpt lat="50.718221" lon="6.151970">
		<ele>292</ele>
		<time>2011-09-11T08:17:38.851Z</time>
		<geoidheight>246</geoidheight>
	</trkpt>
	<trkpt lat="50.718224" lon="6.151990">
		<ele>292</ele>
		<time>2011-09-11T08:17:39.857Z</time>
		<geoidheight>246</geoidheight>
	</trkpt>
	<trkpt lat="50.718227" lon="6.152008">
		<ele>292</ele>
		<time>2011-09-11T08:17:40.853Z</time>
		<geoidheight>246</geoidheight>
	</trkpt>
	<trkpt lat="50.718233" lon="6.152025">
		<ele>292</ele>
		<time>2011-09-11T08:17:41.860Z</time>
		<geoidheight>246</geoidheight>
	</trkpt>
	<trkpt lat="50.718241" lon="6.152041">
		<ele>292</ele>
		<time>2011-09-11T08:17:42.859Z</time>
		<geoidheight>246</geoidheight>
	</trkpt>
	<trkpt lat="50.718248" lon="6.152058">
		<ele>292</ele>
		<time>2011-09-11T08:17:43.859Z</time>
		<geoidheight>246</geoidheight>
	</trkpt>
	<trkpt lat="50.718253" lon="6.152074">
		<ele>292</ele>
		<time>2011-09-11T08:17:44.864Z</time>
		<geoidheight>246</geoidheight>
	</trkpt>
	<trkpt lat="50.718260" lon="6.152086">
		<ele>292</ele>
		<time>2011-09-11T08:17:45.861Z</time>
		<geoidheight>246</geoidheight>
	</trkpt>
	<trkpt lat="50.718263" lon="6.152105">
		<ele>292</ele>
		<time>2011-09-11T08:17:46.854Z</time>
		<geoidheight>246</geoidheight>
	</trkpt>
	<trkpt lat="50.718265" lon="6.152123">
		<ele>292</ele>
		<time>2011-09-11T08:17:47.850Z</time>
		<geoidheight>246</geoidheight>
	</trkpt>
	<trkpt lat="50.718268" lon="6.152144">
		<ele>292</ele>
		<time>2011-09-11T08:17:48.865Z</time>
		<geoidheight>246</geoidheight>
	</trkpt>
	<trkpt lat="50.718275" lon="6.152162">
		<ele>292</ele>
		<time>2011-09-11T08:17:49.862Z</time>
		<geoidheight>246</geoidheight>
	</trkpt>
	<trkpt lat="50.718279" lon="6.152181">
		<ele>292</ele>
		<time>2011-09-11T08:17:50.864Z</time>
		<geoidheight>246</geoidheight>
	</trkpt>
	<trkpt lat="50.718280" lon="6.152200">
		<ele>292</ele>
		<time>2011-09-11T08:17:51.859Z</time>
		<geoidheight>246</geoidheight>
	</trkpt>
	<trkpt lat="50.718281" lon="6.152219">
		<ele>292</ele>
		<time>2011-09-11T08:17:52.858Z</time>
		<geoidheight>246</geoidheight>
	</trkpt>
	<trkpt lat="50.718288" lon="6.152236">
		<ele>292</ele>
		<time>2011-09-11T08:17:53.860Z</time>
		<geoidheight>246</geoidheight>
	</trkpt>
	<trkpt lat="50.718293" lon="6.152254">
		<ele>292</ele>
		<time>2011-09-11T08:17:54.878Z</time>
		<geoidheight>246</geoidheight>
	</trkpt>
	<trkpt lat="50.718299" lon="6.152273">
		<ele>292</ele>
		<time>2011-09-11T08:17:55.861Z</time>
		<geoidheight>246</geoidheight>
	</trkpt>
	<trkpt lat="50.718304" lon="6.152292">
		<ele>292</ele>
		<time>2011-09-11T08:17:56.862Z</time>
		<geoidheight>246</geoidheight>
	</trkpt>
	<trkpt lat="50.718311" lon="6.152309">
		<ele>292</ele>
		<time>2011-09-11T08:17:57.850Z</time>
		<geoidheight>246</geoidheight>
	</trkpt>
	<trkpt lat="50.718316" lon="6.152328">
		<ele>292</ele>
		<time>2011-09-11T08:17:58.862Z</time>
		<geoidheight>246</geoidheight>
	</trkpt>
	<trkpt lat="50.718319" lon="6.152348">
		<ele>292</ele>
		<time>2011-09-11T08:17:59.861Z</time>
		<geoidheight>246</geoidheight>
	</trkpt>
	<trkpt lat="50.718323" lon="6.152368">
		<ele>292</ele>
		<time>2011-09-11T08:18:00.859Z</time>
		<geoidheight>246</geoidheight>
	</trkpt>
	<trkpt lat="50.718329" lon="6.152387">
		<ele>292</ele>
		<time>2011-09-11T08:18:01.864Z</time>
		<geoidheight>246</geoidheight>
	</trkpt>
	<trkpt lat="50.718334" lon="6.152406">
		<ele>292</ele>
		<time>2011-09-11T08:18:02.861Z</time>
		<geoidheight>246</geoidheight>
	</trkpt>
	<trkpt lat="50.718338" lon="6.152428">
		<ele>292</ele>
		<time>2011-09-11T08:18:03.868Z</time>
		<geoidheight>246</geoidheight>
	</trkpt>
	<trkpt lat="50.718340" lon="6.152453">
		<ele>292</ele>
		<time>2011-09-11T08:18:04.862Z</time>
		<geoidheight>246</geoidheight>
	</trkpt>
	<trkpt lat="50.718349" lon="6.152475">
		<ele>292</ele>
		<time>2011-09-11T08:18:05.867Z</time>
		<geoidheight>246</geoidheight>
	</trkpt>
	<trkpt lat="50.718357" lon="6.152495">
		<ele>292</ele>
		<time>2011-09-11T08:18:06.862Z</time>
		<geoidheight>246</geoidheight>
	</trkpt>
	<trkpt lat="50.718366" lon="6.152512">
		<ele>292</ele>
		<time>2011-09-11T08:18:07.861Z</time>
		<geoidheight>246</geoidheight>
	</trkpt>
	<trkpt lat="50.718374" lon="6.152530">
		<ele>292</ele>
		<time>2011-09-11T08:18:08.865Z</time>
		<geoidheight>246</geoidheight>
	</trkpt>
	<trkpt lat="50.718384" lon="6.152542">
		<ele>292</ele>
		<time>2011-09-11T08:18:09.855Z</time>
		<geoidheight>246</geoidheight>
	</trkpt>
	<trkpt lat="50.718393" lon="6.152554">
		<ele>292</ele>
		<time>2011-09-11T08:18:10.858Z</time>
		<geoidheight>246</geoidheight>
	</trkpt>
	<trkpt lat="50.718400" lon="6.152565">
		<ele>292</ele>
		<time>2011-09-11T08:18:11.857Z</time>
		<geoidheight>246</geoidheight>
	</trkpt>
	<trkpt lat="50.718407" lon="6.152577">
		<ele>292</ele>
		<time>2011-09-11T08:18:12.858Z</time>
		<geoidheight>246</geoidheight>
	</trkpt>
	<trkpt lat="50.718412" lon="6.152590">
		<ele>292</ele>
		<time>2011-09-11T08:18:13.876Z</time>
		<geoidheight>246</geoidheight>
	</trkpt>
	<trkpt lat="50.718421" lon="6.152599">
		<ele>292</ele>
		<time>2011-09-11T08:18:14.861Z</time>
		<geoidheight>246</geoidheight>
	</trkpt>
	<trkpt lat="50.718427" lon="6.152613">
		<ele>292</ele>
		<time>2011-09-11T08:18:15.861Z</time>
		<geoidheight>246</geoidheight>
	</trkpt>
	<trkpt lat="50.718434" lon="6.152625">
		<ele>292</ele>
		<time>2011-09-11T08:18:16.865Z</time>
		<geoidheight>246</geoidheight>
	</trkpt>
	<trkpt lat="50.718436" lon="6.152642">
		<ele>292</ele>
		<time>2011-09-11T08:18:17.870Z</time>
		<geoidheight>246</geoidheight>
	</trkpt>
	<trkpt lat="50.718440" lon="6.152658">
		<ele>292</ele>
		<time>2011-09-11T08:18:18.865Z</time>
		<geoidheight>246</geoidheight>
	</trkpt>
	<trkpt lat="50.718445" lon="6.152673">
		<ele>292</ele>
		<time>2011-09-11T08:18:19.867Z</time>
		<geoidheight>246</geoidheight>
	</trkpt>
	<trkpt lat="50.718451" lon="6.152689">
		<ele>292</ele>
		<time>2011-09-11T08:18:20.862Z</time>
		<geoidheight>246</geoidheight>
	</trkpt>
	<trkpt lat="50.718455" lon="6.152710">
		<ele>292</ele>
		<time>2011-09-11T08:18:21.875Z</time>
		<geoidheight>246</geoidheight>
	</trkpt>
	<trkpt lat="50.718460" lon="6.152731">
		<ele>292</ele>
		<time>2011-09-11T08:18:22.866Z</time>
		<geoidheight>246</geoidheight>
	</trkpt>
	<trkpt lat="50.718465" lon="6.152754">
		<ele>292</ele>
		<time>2011-09-11T08:18:23.866Z</time>
		<geoidheight>246</geoidheight>
	</trkpt>
	<trkpt lat="50.718471" lon="6.152778">
		<ele>292</ele>
		<time>2011-09-11T08:18:24.863Z</time>
		<geoidheight>246</geoidheight>
	</trkpt>
	<trkpt lat="50.718476" lon="6.152806">
		<ele>292</ele>
		<time>2011-09-11T08:18:25.866Z</time>
		<geoidheight>246</geoidheight>
	</trkpt>
	<trkpt lat="50.718482" lon="6.152833">
		<ele>292</ele>
		<time>2011-09-11T08:18:26.870Z</time>
		<geoidheight>246</geoidheight>
	</trkpt>
	<trkpt lat="50.718489" lon="6.152858">
		<ele>292</ele>
		<time>2011-09-11T08:18:27.857Z</time>
		<geoidheight>246</geoidheight>
	</trkpt>
	<trkpt lat="50.718492" lon="6.152883">
		<ele>292</ele>
		<time>2011-09-11T08:18:28.868Z</time>
		<geoidheight>246</geoidheight>
	</trkpt>
	<trkpt lat="50.718498" lon="6.152906">
		<ele>292</ele>
		<time>2011-09-11T08:18:29.850Z</time>
		<geoidheight>246</geoidheight>
	</trkpt>
	<trkpt lat="50.718506" lon="6.152925">
		<ele>292</ele>
		<time>2011-09-11T08:18:30.848Z</time>
		<geoidheight>246</geoidheight>
	</trkpt>
	<trkpt lat="50.718517" lon="6.152939">
		<ele>292</ele>
		<time>2011-09-11T08:18:31.849Z</time>
		<geoidheight>246</geoidheight>
	</trkpt>
	<trkpt lat="50.718528" lon="6.152953">
		<ele>292</ele>
		<time>2011-09-11T08:18:32.861Z</time>
		<geoidheight>246</geoidheight>
	</trkpt>
	<trkpt lat="50.718537" lon="6.152968">
		<ele>292</ele>
		<time>2011-09-11T08:18:33.862Z</time>
		<geoidheight>246</geoidheight>
	</trkpt>
	<trkpt lat="50.718547" lon="6.152983">
		<ele>292</ele>
		<time>2011-09-11T08:18:34.864Z</time>
		<geoidheight>246</geoidheight>
	</trkpt>
	<trkpt lat="50.718558" lon="6.152997">
		<ele>292</ele>
		<time>2011-09-11T08:18:35.861Z</time>
		<geoidheight>246</geoidheight>
	</trkpt>
	<trkpt lat="50.718571" lon="6.153009">
		<ele>292</ele>
		<time>2011-09-11T08:18:36.866Z</time>
		<geoidheight>246</geoidheight>
	</trkpt>
	<trkpt lat="50.718581" lon="6.153025">
		<ele>292</ele>
		<time>2011-09-11T08:18:37.859Z</time>
		<geoidheight>246</geoidheight>
	</trkpt>
	<trkpt lat="50.718585" lon="6.153047">
		<ele>292</ele>
		<time>2011-09-11T08:18:38.859Z</time>
		<geoidheight>246</geoidheight>
	</trkpt>
	<trkpt lat="50.718587" lon="6.153070">
		<ele>292</ele>
		<time>2011-09-11T08:18:39.862Z</time>
		<geoidheight>246</geoidheight>
	</trkpt>
	<trkpt lat="50.718594" lon="6.153092">
		<ele>292</ele>
		<time>2011-09-11T08:18:40.858Z</time>
		<geoidheight>246</geoidheight>
	</trkpt>
	<trkpt lat="50.718598" lon="6.153115">
		<ele>293</ele>
		<time>2011-09-11T08:18:41.860Z</time>
		<geoidheight>247</geoidheight>
	</trkpt>
	<trkpt lat="50.718604" lon="6.153138">
		<ele>293</ele>
		<time>2011-09-11T08:18:42.873Z</time>
		<geoidheight>247</geoidheight>
	</trkpt>
	<trkpt lat="50.718612" lon="6.153159">
		<ele>293</ele>
		<time>2011-09-11T08:18:43.864Z</time>
		<geoidheight>247</geoidheight>
	</trkpt>
	<trkpt lat="50.718619" lon="6.153179">
		<ele>293</ele>
		<time>2011-09-11T08:18:44.861Z</time>
		<geoidheight>247</geoidheight>
	</trkpt>
	<trkpt lat="50.718625" lon="6.153200">
		<ele>293</ele>
		<time>2011-09-11T08:18:45.870Z</time>
		<geoidheight>247</geoidheight>
	</trkpt>
	<trkpt lat="50.718634" lon="6.153218">
		<ele>293</ele>
		<time>2011-09-11T08:18:46.862Z</time>
		<geoidheight>247</geoidheight>
	</trkpt>
	<trkpt lat="50.718637" lon="6.153238">
		<ele>293</ele>
		<time>2011-09-11T08:18:47.857Z</time>
		<geoidheight>247</geoidheight>
	</trkpt>
	<trkpt lat="50.718642" lon="6.153255">
		<ele>293</ele>
		<time>2011-09-11T08:18:48.866Z</time>
		<geoidheight>247</geoidheight>
	</trkpt>
	<trkpt lat="50.718647" lon="6.153274">
		<ele>293</ele>
		<time>2011-09-11T08:18:49.860Z</time>
		<geoidheight>247</geoidheight>
	</trkpt>
	<trkpt lat="50.718657" lon="6.153291">
		<ele>293</ele>
		<time>2011-09-11T08:18:50.854Z</time>
		<geoidheight>247</geoidheight>
	</trkpt>
	<trkpt lat="50.718665" lon="6.153307">
		<ele>293</ele>
		<time>2011-09-11T08:18:51.855Z</time>
		<geoidheight>247</geoidheight>
	</trkpt>
	<trkpt lat="50.718673" lon="6.153325">
		<ele>293</ele>
		<time>2011-09-11T08:18:52.852Z</time>
		<geoidheight>247</geoidheight>
	</trkpt>
	<trkpt lat="50.718680" lon="6.153344">
		<ele>293</ele>
		<time>2011-09-11T08:18:53.849Z</time>
		<geoidheight>247</geoidheight>
	</trkpt>
	<trkpt lat="50.718688" lon="6.153362">
		<ele>293</ele>
		<time>2011-09-11T08:18:54.853Z</time>
		<geoidheight>247</geoidheight>
	</trkpt>
	<trkpt lat="50.718697" lon="6.153380">
		<ele>293</ele>
		<time>2011-09-11T08:18:55.846Z</time>
		<geoidheight>247</geoidheight>
	</trkpt>
	<trkpt lat="50.718706" lon="6.153399">
		<ele>293</ele>
		<time>2011-09-11T08:18:56.863Z</time>
		<geoidheight>247</geoidheight>
	</trkpt>
	<trkpt lat="50.718715" lon="6.153418">
		<ele>293</ele>
		<time>2011-09-11T08:18:57.848Z</time>
		<geoidheight>247</geoidheight>
	</trkpt>
	<trkpt lat="50.718725" lon="6.153435">
		<ele>293</ele>
		<time>2011-09-11T08:18:58.847Z</time>
		<geoidheight>247</geoidheight>
	</trkpt>
	<trkpt lat="50.718735" lon="6.153448">
		<ele>293</ele>
		<time>2011-09-11T08:18:59.846Z</time>
		<geoidheight>247</geoidheight>
	</trkpt>
	<trkpt lat="50.718741" lon="6.153463">
		<ele>293</ele>
		<time>2011-09-11T08:19:00.846Z</time>
		<geoidheight>247</geoidheight>
	</trkpt>
	<trkpt lat="50.718747" lon="6.153480">
		<ele>293</ele>
		<time>2011-09-11T08:19:01.848Z</time>
		<geoidheight>247</geoidheight>
	</trkpt>
	<trkpt lat="50.718755" lon="6.153494">
		<ele>293</ele>
		<time>2011-09-11T08:19:02.847Z</time>
		<geoidheight>247</geoidheight>
	</trkpt>
	<trkpt lat="50.718757" lon="6.153512">
		<ele>293</ele>
		<time>2011-09-11T08:19:03.846Z</time>
		<geoidheight>247</geoidheight>
	</trkpt>
	<trkpt lat="50.718757" lon="6.153528">
		<ele>293</ele>
		<time>2011-09-11T08:19:04.848Z</time>
		<geoidheight>247</geoidheight>
	</trkpt>
	<trkpt lat="50.718763" lon="6.153542">
		<ele>293</ele>
		<time>2011-09-11T08:19:05.845Z</time>
		<geoidheight>247</geoidheight>
	</trkpt>
	<trkpt lat="50.718769" lon="6.153556">
		<ele>293</ele>
		<time>2011-09-11T08:19:06.848Z</time>
		<geoidheight>247</geoidheight>
	</trkpt>
	<trkpt lat="50.718775" lon="6.153571">
		<ele>293</ele>
		<time>2011-09-11T08:19:07.848Z</time>
		<geoidheight>247</geoidheight>
	</trkpt>
	<trkpt lat="50.718781" lon="6.153586">
		<ele>293</ele>
		<time>2011-09-11T08:19:08.847Z</time>
		<geoidheight>247</geoidheight>
	</trkpt>
	<trkpt lat="50.718785" lon="6.153601">
		<ele>293</ele>
		<time>2011-09-11T08:19:09.846Z</time>
		<geoidheight>247</geoidheight>
	</trkpt>
	<trkpt lat="50.718788" lon="6.153616">
		<ele>294</ele>
		<time>2011-09-11T08:19:10.849Z</time>
		<geoidheight>248</geoidheight>
	</trkpt>
	<trkpt lat="50.718792" lon="6.153630">
		<ele>294</ele>
		<time>2011-09-11T08:19:11.848Z</time>
		<geoidheight>248</geoidheight>
	</trkpt>
	<trkpt lat="50.718800" lon="6.153640">
		<ele>294</ele>
		<time>2011-09-11T08:19:12.848Z</time>
		<geoidheight>248</geoidheight>
	</trkpt>
	<trkpt lat="50.718806" lon="6.153650">
		<ele>294</ele>
		<time>2011-09-11T08:19:13.845Z</time>
		<geoidheight>248</geoidheight>
	</trkpt>
	<trkpt lat="50.718815" lon="6.153655">
		<ele>294</ele>
		<time>2011-09-11T08:19:14.847Z</time>
		<geoidheight>248</geoidheight>
	</trkpt>
	<trkpt lat="50.718823" lon="6.153662">
		<ele>294</ele>
		<time>2011-09-11T08:19:15.845Z</time>
		<geoidheight>248</geoidheight>
	</trkpt>
	<trkpt lat="50.718828" lon="6.153675">
		<ele>294</ele>
		<time>2011-09-11T08:19:16.854Z</time>
		<geoidheight>248</geoidheight>
	</trkpt>
	<trkpt lat="50.718832" lon="6.153689">
		<ele>294</ele>
		<time>2011-09-11T08:19:17.853Z</time>
		<geoidheight>248</geoidheight>
	</trkpt>
	<trkpt lat="50.718836" lon="6.153702">
		<ele>294</ele>
		<time>2011-09-11T08:19:18.857Z</time>
		<geoidheight>248</geoidheight>
	</trkpt>
	<trkpt lat="50.718838" lon="6.153720">
		<ele>294</ele>
		<time>2011-09-11T08:19:19.850Z</time>
		<geoidheight>248</geoidheight>
	</trkpt>
	<trkpt lat="50.718842" lon="6.153742">
		<ele>294</ele>
		<time>2011-09-11T08:19:20.849Z</time>
		<geoidheight>248</geoidheight>
	</trkpt>
	<trkpt lat="50.718851" lon="6.153763">
		<ele>294</ele>
		<time>2011-09-11T08:19:21.851Z</time>
		<geoidheight>248</geoidheight>
	</trkpt>
	<trkpt lat="50.718860" lon="6.153779">
		<ele>294</ele>
		<time>2011-09-11T08:19:22.847Z</time>
		<geoidheight>248</geoidheight>
	</trkpt>
	<trkpt lat="50.718868" lon="6.153792">
		<ele>294</ele>
		<time>2011-09-11T08:19:23.848Z</time>
		<geoidheight>248</geoidheight>
	</trkpt>
	<trkpt lat="50.718876" lon="6.153804">
		<ele>294</ele>
		<time>2011-09-11T08:19:24.846Z</time>
		<geoidheight>248</geoidheight>
	</trkpt>
	<trkpt lat="50.718884" lon="6.153819">
		<ele>294</ele>
		<time>2011-09-11T08:19:25.851Z</time>
		<geoidheight>248</geoidheight>
	</trkpt>
	<trkpt lat="50.718893" lon="6.153831">
		<ele>294</ele>
		<time>2011-09-11T08:19:26.853Z</time>
		<geoidheight>248</geoidheight>
	</trkpt>
	<trkpt lat="50.718897" lon="6.153848">
		<ele>294</ele>
		<time>2011-09-11T08:19:27.845Z</time>
		<geoidheight>248</geoidheight>
	</trkpt>
	<trkpt lat="50.718902" lon="6.153860">
		<ele>294</ele>
		<time>2011-09-11T08:19:28.851Z</time>
		<geoidheight>248</geoidheight>
	</trkpt>
	<trkpt lat="50.718906" lon="6.153873">
		<ele>294</ele>
		<time>2011-09-11T08:19:29.847Z</time>
		<geoidheight>248</geoidheight>
	</trkpt>
	<trkpt lat="50.718911" lon="6.153891">
		<ele>294</ele>
		<time>2011-09-11T08:19:30.859Z</time>
		<geoidheight>248</geoidheight>
	</trkpt>
	<trkpt lat="50.718916" lon="6.153909">
		<ele>294</ele>
		<time>2011-09-11T08:19:31.861Z</time>
		<geoidheight>248</geoidheight>
	</trkpt>
	<trkpt lat="50.718920" lon="6.153929">
		<ele>294</ele>
		<time>2011-09-11T08:19:32.861Z</time>
		<geoidheight>248</geoidheight>
	</trkpt>
	<trkpt lat="50.718926" lon="6.153948">
		<ele>294</ele>
		<time>2011-09-11T08:19:33.866Z</time>
		<geoidheight>248</geoidheight>
	</trkpt>
	<trkpt lat="50.718933" lon="6.153971">
		<ele>294</ele>
		<time>2011-09-11T08:19:34.866Z</time>
		<geoidheight>248</geoidheight>
	</trkpt>
	<trkpt lat="50.718944" lon="6.153996">
		<ele>294</ele>
		<time>2011-09-11T08:19:35.861Z</time>
		<geoidheight>248</geoidheight>
	</trkpt>
	<trkpt lat="50.718957" lon="6.154015">
		<ele>294</ele>
		<time>2011-09-11T08:19:36.852Z</time>
		<geoidheight>248</geoidheight>
	</trkpt>
	<trkpt lat="50.718970" lon="6.154041">
		<ele>294</ele>
		<time>2011-09-11T08:19:37.854Z</time>
		<geoidheight>248</geoidheight>
	</trkpt>
	<trkpt lat="50.718977" lon="6.154071">
		<ele>294</ele>
		<time>2011-09-11T08:19:38.847Z</time>
		<geoidheight>248</geoidheight>
	</trkpt>
	<trkpt lat="50.718987" lon="6.154098">
		<ele>294</ele>
		<time>2011-09-11T08:19:39.856Z</time>
		<geoidheight>248</geoidheight>
	</trkpt>
	<trkpt lat="50.718994" lon="6.154126">
		<ele>294</ele>
		<time>2011-09-11T08:19:40.853Z</time>
		<geoidheight>248</geoidheight>
	</trkpt>
	<trkpt lat="50.719000" lon="6.154154">
		<ele>294</ele>
		<time>2011-09-11T08:19:41.849Z</time>
		<geoidheight>248</geoidheight>
	</trkpt>
	<trkpt lat="50.719009" lon="6.154177">
		<ele>294</ele>
		<time>2011-09-11T08:19:42.861Z</time>
		<geoidheight>248</geoidheight>
	</trkpt>
	<trkpt lat="50.719017" lon="6.154204">
		<ele>294</ele>
		<time>2011-09-11T08:19:43.863Z</time>
		<geoidheight>248</geoidheight>
	</trkpt>
	<trkpt lat="50.719023" lon="6.154231">
		<ele>293</ele>
		<time>2011-09-11T08:19:44.860Z</time>
		<geoidheight>247</geoidheight>
	</trkpt>
	<trkpt lat="50.719026" lon="6.154257">
		<ele>293</ele>
		<time>2011-09-11T08:19:45.862Z</time>
		<geoidheight>247</geoidheight>
	</trkpt>
	<trkpt lat="50.719032" lon="6.154281">
		<ele>293</ele>
		<time>2011-09-11T08:19:46.864Z</time>
		<geoidheight>247</geoidheight>
	</trkpt>
	<trkpt lat="50.719036" lon="6.154305">
		<ele>293</ele>
		<time>2011-09-11T08:19:47.862Z</time>
		<geoidheight>247</geoidheight>
	</trkpt>
	<trkpt lat="50.719042" lon="6.154326">
		<ele>293</ele>
		<time>2011-09-11T08:19:48.865Z</time>
		<geoidheight>247</geoidheight>
	</trkpt>
	<trkpt lat="50.719049" lon="6.154347">
		<ele>293</ele>
		<time>2011-09-11T08:19:49.866Z</time>
		<geoidheight>247</geoidheight>
	</trkpt>
	<trkpt lat="50.719052" lon="6.154366">
		<ele>293</ele>
		<time>2011-09-11T08:19:50.862Z</time>
		<geoidheight>247</geoidheight>
	</trkpt>
	<trkpt lat="50.719058" lon="6.154381">
		<ele>293</ele>
		<time>2011-09-11T08:19:51.863Z</time>
		<geoidheight>247</geoidheight>
	</trkpt>
	<trkpt lat="50.719066" lon="6.154395">
		<ele>293</ele>
		<time>2011-09-11T08:19:52.861Z</time>
		<geoidheight>247</geoidheight>
	</trkpt>
	<trkpt lat="50.719078" lon="6.154406">
		<ele>293</ele>
		<time>2011-09-11T08:19:53.864Z</time>
		<geoidheight>247</geoidheight>
	</trkpt>
	<trkpt lat="50.719090" lon="6.154418">
		<ele>293</ele>
		<time>2011-09-11T08:19:54.870Z</time>
		<geoidheight>247</geoidheight>
	</trkpt>
	<trkpt lat="50.719100" lon="6.154435">
		<ele>293</ele>
		<time>2011-09-11T08:19:55.857Z</time>
		<geoidheight>247</geoidheight>
	</trkpt>
	<trkpt lat="50.719111" lon="6.154451">
		<ele>293</ele>
		<time>2011-09-11T08:19:56.863Z</time>
		<geoidheight>247</geoidheight>
	</trkpt>
	<trkpt lat="50.719124" lon="6.154463">
		<ele>293</ele>
		<time>2011-09-11T08:19:57.864Z</time>
		<geoidheight>247</geoidheight>
	</trkpt>
	<trkpt lat="50.719136" lon="6.154479">
		<ele>293</ele>
		<time>2011-09-11T08:19:58.861Z</time>
		<geoidheight>247</geoidheight>
	</trkpt>
	<trkpt lat="50.719143" lon="6.154501">
		<ele>293</ele>
		<time>2011-09-11T08:19:59.860Z</time>
		<geoidheight>247</geoidheight>
	</trkpt>
	<trkpt lat="50.719147" lon="6.154522">
		<ele>292</ele>
		<time>2011-09-11T08:20:00.868Z</time>
		<geoidheight>246</geoidheight>
	</trkpt>
	<trkpt lat="50.719154" lon="6.154539">
		<ele>292</ele>
		<time>2011-09-11T08:20:01.860Z</time>
		<geoidheight>246</geoidheight>
	</trkpt>
	<trkpt lat="50.719161" lon="6.154556">
		<ele>292</ele>
		<time>2011-09-11T08:20:02.867Z</time>
		<geoidheight>246</geoidheight>
	</trkpt>
	<trkpt lat="50.719167" lon="6.154574">
		<ele>292</ele>
		<time>2011-09-11T08:20:03.868Z</time>
		<geoidheight>246</geoidheight>
	</trkpt>
	<trkpt lat="50.719170" lon="6.154591">
		<ele>292</ele>
		<time>2011-09-11T08:20:04.860Z</time>
		<geoidheight>246</geoidheight>
	</trkpt>
	<trkpt lat="50.719170" lon="6.154611">
		<ele>292</ele>
		<time>2011-09-11T08:20:05.860Z</time>
		<geoidheight>246</geoidheight>
	</trkpt>
	<trkpt lat="50.719173" lon="6.154634">
		<ele>292</ele>
		<time>2011-09-11T08:20:06.867Z</time>
		<geoidheight>246</geoidheight>
	</trkpt>
	<trkpt lat="50.719177" lon="6.154658">
		<ele>292</ele>
		<time>2011-09-11T08:20:07.862Z</time>
		<geoidheight>246</geoidheight>
	</trkpt>
	<trkpt lat="50.719183" lon="6.154683">
		<ele>292</ele>
		<time>2011-09-11T08:20:08.869Z</time>
		<geoidheight>246</geoidheight>
	</trkpt>
	<trkpt lat="50.719188" lon="6.154707">
		<ele>292</ele>
		<time>2011-09-11T08:20:09.864Z</time>
		<geoidheight>246</geoidheight>
	</trkpt>
	<trkpt lat="50.719195" lon="6.154728">
		<ele>292</ele>
		<time>2011-09-11T08:20:10.866Z</time>
		<geoidheight>246</geoidheight>
	</trkpt>
	<trkpt lat="50.719202" lon="6.154746">
		<ele>292</ele>
		<time>2011-09-11T08:20:11.876Z</time>
		<geoidheight>246</geoidheight>
	</trkpt>
	<trkpt lat="50.719206" lon="6.154764">
		<ele>292</ele>
		<time>2011-09-11T08:20:12.865Z</time>
		<geoidheight>246</geoidheight>
	</trkpt>
	<trkpt lat="50.719211" lon="6.154782">
		<ele>292</ele>
		<time>2011-09-11T08:20:13.868Z</time>
		<geoidheight>246</geoidheight>
	</trkpt>
	<trkpt lat="50.719214" lon="6.154801">
		<ele>292</ele>
		<time>2011-09-11T08:20:14.856Z</time>
		<geoidheight>246</geoidheight>
	</trkpt>
	<trkpt lat="50.719215" lon="6.154822">
		<ele>292</ele>
		<time>2011-09-11T08:20:15.856Z</time>
		<geoidheight>246</geoidheight>
	</trkpt>
	<trkpt lat="50.719220" lon="6.154841">
		<ele>292</ele>
		<time>2011-09-11T08:20:16.866Z</time>
		<geoidheight>246</geoidheight>
	</trkpt>
	<trkpt lat="50.719227" lon="6.154859">
		<ele>292</ele>
		<time>2011-09-11T08:20:17.856Z</time>
		<geoidheight>246</geoidheight>
	</trkpt>
	<trkpt lat="50.719232" lon="6.154876">
		<ele>292</ele>
		<time>2011-09-11T08:20:18.849Z</time>
		<geoidheight>246</geoidheight>
	</trkpt>
	<trkpt lat="50.719237" lon="6.154893">
		<ele>292</ele>
		<time>2011-09-11T08:20:19.856Z</time>
		<geoidheight>246</geoidheight>
	</trkpt>
	<trkpt lat="50.719242" lon="6.154908">
		<ele>292</ele>
		<time>2011-09-11T08:20:20.857Z</time>
		<geoidheight>246</geoidheight>
	</trkpt>
	<trkpt lat="50.719250" lon="6.154916">
		<ele>292</ele>
		<time>2011-09-11T08:20:21.860Z</time>
		<geoidheight>246</geoidheight>
	</trkpt>
	<trkpt lat="50.719253" lon="6.154927">
		<ele>292</ele>
		<time>2011-09-11T08:20:22.863Z</time>
		<geoidheight>246</geoidheight>
	</trkpt>
	<trkpt lat="50.719255" lon="6.154940">
		<ele>292</ele>
		<time>2011-09-11T08:20:23.860Z</time>
		<geoidheight>246</geoidheight>
	</trkpt>
	<trkpt lat="50.719259" lon="6.154954">
		<ele>292</ele>
		<time>2011-09-11T08:20:24.863Z</time>
		<geoidheight>246</geoidheight>
	</trkpt>
	<trkpt lat="50.719265" lon="6.154969">
		<ele>292</ele>
		<time>2011-09-11T08:20:25.868Z</time>
		<geoidheight>246</geoidheight>
	</trkpt>
	<trkpt lat="50.719271" lon="6.154986">
		<ele>292</ele>
		<time>2011-09-11T08:20:26.877Z</time>
		<geoidheight>246</geoidheight>
	</trkpt>
	<trkpt lat="50.719277" lon="6.155003">
		<ele>292</ele>
		<time>2011-09-11T08:20:27.857Z</time>
		<geoidheight>246</geoidheight>
	</trkpt>
	<trkpt lat="50.719278" lon="6.155014">
		<ele>291</ele>
		<time>2011-09-11T08:20:28.862Z</time>
		<geoidheight>245</geoidheight>
	</trkpt>
	<trkpt lat="50.719280" lon="6.155030">
		<ele>291</ele>
		<time>2011-09-11T08:20:29.864Z</time>
		<geoidheight>245</geoidheight>
	</trkpt>
	<trkpt lat="50.719282" lon="6.155045">
		<ele>291</ele>
		<time>2011-09-11T08:20:30.860Z</time>
		<geoidheight>245</geoidheight>
	</trkpt>
	<trkpt lat="50.719282" lon="6.155062">
		<ele>291</ele>
		<time>2011-09-11T08:20:31.849Z</time>
		<geoidheight>245</geoidheight>
	</trkpt>
	<trkpt lat="50.719285" lon="6.155076">
		<ele>291</ele>
		<time>2011-09-11T08:20:32.848Z</time>
		<geoidheight>245</geoidheight>
	</trkpt>
	<trkpt lat="50.719288" lon="6.155091">
		<ele>291</ele>
		<time>2011-09-11T08:20:33.846Z</time>
		<geoidheight>245</geoidheight>
	</trkpt>
	<trkpt lat="50.719289" lon="6.155110">
		<ele>291</ele>
		<time>2011-09-11T08:20:34.849Z</time>
		<geoidheight>245</geoidheight>
	</trkpt>
	<trkpt lat="50.719292" lon="6.155130">
		<ele>291</ele>
		<time>2011-09-11T08:20:35.846Z</time>
		<geoidheight>245</geoidheight>
	</trkpt>
	<trkpt lat="50.719296" lon="6.155151">
		<ele>291</ele>
		<time>2011-09-11T08:20:36.847Z</time>
		<geoidheight>245</geoidheight>
	</trkpt>
	<trkpt lat="50.719302" lon="6.155171">
		<ele>291</ele>
		<time>2011-09-11T08:20:37.867Z</time>
		<geoidheight>245</geoidheight>
	</trkpt>
	<trkpt lat="50.719307" lon="6.155191">
		<ele>291</ele>
		<time>2011-09-11T08:20:38.856Z</time>
		<geoidheight>245</geoidheight>
	</trkpt>
	<trkpt lat="50.719310" lon="6.155212">
		<ele>291</ele>
		<time>2011-09-11T08:20:39.868Z</time>
		<geoidheight>245</geoidheight>
	</trkpt>
	<trkpt lat="50.719314" lon="6.155237">
		<ele>291</ele>
		<time>2011-09-11T08:20:40.861Z</time>
		<geoidheight>245</geoidheight>
	</trkpt>
	<trkpt lat="50.719319" lon="6.155265">
		<ele>291</ele>
		<time>2011-09-11T08:20:41.856Z</time>
		<geoidheight>245</geoidheight>
	</trkpt>
	<trkpt lat="50.719328" lon="6.155290">
		<ele>291</ele>
		<time>2011-09-11T08:20:42.848Z</time>
		<geoidheight>245</geoidheight>
	</trkpt>
	<trkpt lat="50.719338" lon="6.155315">
		<ele>291</ele>
		<time>2011-09-11T08:20:43.851Z</time>
		<geoidheight>245</geoidheight>
	</trkpt>
	<trkpt lat="50.719346" lon="6.155335">
		<ele>291</ele>
		<time>2011-09-11T08:20:44.852Z</time>
		<geoidheight>245</geoidheight>
	</trkpt>
	<trkpt lat="50.719355" lon="6.155351">
		<ele>291</ele>
		<time>2011-09-11T08:20:45.852Z</time>
		<geoidheight>245</geoidheight>
	</trkpt>
	<trkpt lat="50.719362" lon="6.155370">
		<ele>291</ele>
		<time>2011-09-11T08:20:46.855Z</time>
		<geoidheight>245</geoidheight>
	</trkpt>
	<trkpt lat="50.719370" lon="6.155393">
		<ele>291</ele>
		<time>2011-09-11T08:20:47.851Z</time>
		<geoidheight>245</geoidheight>
	</trkpt>
	<trkpt lat="50.719378" lon="6.155412">
		<ele>291</ele>
		<time>2011-09-11T08:20:48.850Z</time>
		<geoidheight>245</geoidheight>
	</trkpt>
	<trkpt lat="50.719388" lon="6.155428">
		<ele>291</ele>
		<time>2011-09-11T08:20:49.848Z</time>
		<geoidheight>245</geoidheight>
	</trkpt>
	<trkpt lat="50.719394" lon="6.155447">
		<ele>291</ele>
		<time>2011-09-11T08:20:50.852Z</time>
		<geoidheight>245</geoidheight>
	</trkpt>
	<trkpt lat="50.719398" lon="6.155467">
		<ele>291</ele>
		<time>2011-09-11T08:20:51.848Z</time>
		<geoidheight>245</geoidheight>
	</trkpt>
	<trkpt lat="50.719404" lon="6.155487">
		<ele>291</ele>
		<time>2011-09-11T08:20:52.847Z</time>
		<geoidheight>245</geoidheight>
	</trkpt>
	<trkpt lat="50.719409" lon="6.155509">
		<ele>291</ele>
		<time>2011-09-11T08:20:53.850Z</time>
		<geoidheight>245</geoidheight>
	</trkpt>
	<trkpt lat="50.719414" lon="6.155529">
		<ele>291</ele>
		<time>2011-09-11T08:20:54.847Z</time>
		<geoidheight>245</geoidheight>
	</trkpt>
	<trkpt lat="50.719419" lon="6.155548">
		<ele>291</ele>
		<time>2011-09-11T08:20:55.847Z</time>
		<geoidheight>245</geoidheight>
	</trkpt>
	<trkpt lat="50.719423" lon="6.155567">
		<ele>291</ele>
		<time>2011-09-11T08:20:56.847Z</time>
		<geoidheight>245</geoidheight>
	</trkpt>
	<trkpt lat="50.719430" lon="6.155582">
		<ele>291</ele>
		<time>2011-09-11T08:20:57.848Z</time>
		<geoidheight>245</geoidheight>
	</trkpt>
	<trkpt lat="50.719433" lon="6.155603">
		<ele>291</ele>
		<time>2011-09-11T08:20:58.846Z</time>
		<geoidheight>245</geoidheight>
	</trkpt>
	<trkpt lat="50.719439" lon="6.155624">
		<ele>291</ele>
		<time>2011-09-11T08:20:59.856Z</time>
		<geoidheight>245</geoidheight>
	</trkpt>
	<trkpt lat="50.719447" lon="6.155646">
		<ele>291</ele>
		<time>2011-09-11T08:21:00.856Z</time>
		<geoidheight>245</geoidheight>
	</trkpt>
	<trkpt lat="50.719454" lon="6.155665">
		<ele>291</ele>
		<time>2011-09-11T08:21:01.863Z</time>
		<geoidheight>245</geoidheight>
	</trkpt>
	<trkpt lat="50.719459" lon="6.155685">
		<ele>291</ele>
		<time>2011-09-11T08:21:02.860Z</time>
		<geoidheight>245</geoidheight>
	</trkpt>
	<trkpt lat="50.719465" lon="6.155702">
		<ele>291</ele>
		<time>2011-09-11T08:21:03.862Z</time>
		<geoidheight>245</geoidheight>
	</trkpt>
	<trkpt lat="50.719470" lon="6.155718">
		<ele>291</ele>
		<time>2011-09-11T08:21:04.863Z</time>
		<geoidheight>245</geoidheight>
	</trkpt>
	<trkpt lat="50.719475" lon="6.155732">
		<ele>291</ele>
		<time>2011-09-11T08:21:05.860Z</time>
		<geoidheight>245</geoidheight>
	</trkpt>
	<trkpt lat="50.719476" lon="6.155748">
		<ele>291</ele>
		<time>2011-09-11T08:21:06.844Z</time>
		<geoidheight>245</geoidheight>
	</trkpt>
	<trkpt lat="50.719482" lon="6.155760">
		<ele>291</ele>
		<time>2011-09-11T08:21:07.850Z</time>
		<geoidheight>245</geoidheight>
	</trkpt>
	<trkpt lat="50.719485" lon="6.155776">
		<ele>291</ele>
		<time>2011-09-11T08:21:08.847Z</time>
		<geoidheight>245</geoidheight>
	</trkpt>
	<trkpt lat="50.719488" lon="6.155792">
		<ele>291</ele>
		<time>2011-09-11T08:21:09.848Z</time>
		<geoidheight>245</geoidheight>
	</trkpt>
	<trkpt lat="50.719491" lon="6.155809">
		<ele>291</ele>
		<time>2011-09-11T08:21:10.850Z</time>
		<geoidheight>245</geoidheight>
	</trkpt>
	<trkpt lat="50.719494" lon="6.155825">
		<ele>291</ele>
		<time>2011-09-11T08:21:11.850Z</time>
		<geoidheight>245</geoidheight>
	</trkpt>
	<trkpt lat="50.719502" lon="6.155841">
		<ele>291</ele>
		<time>2011-09-11T08:21:12.847Z</time>
		<geoidheight>245</geoidheight>
	</trkpt>
	<trkpt lat="50.719510" lon="6.155858">
		<ele>291</ele>
		<time>2011-09-11T08:21:13.850Z</time>
		<geoidheight>245</geoidheight>
	</trkpt>
	<trkpt lat="50.719513" lon="6.155876">
		<ele>291</ele>
		<time>2011-09-11T08:21:14.848Z</time>
		<geoidheight>245</geoidheight>
	</trkpt>
	<trkpt lat="50.719518" lon="6.155896">
		<ele>291</ele>
		<time>2011-09-11T08:21:15.848Z</time>
		<geoidheight>245</geoidheight>
	</trkpt>
	<trkpt lat="50.719522" lon="6.155920">
		<ele>291</ele>
		<time>2011-09-11T08:21:16.848Z</time>
		<geoidheight>245</geoidheight>
	</trkpt>
	<trkpt lat="50.719530" lon="6.155944">
		<ele>291</ele>
		<time>2011-09-11T08:21:17.846Z</time>
		<geoidheight>245</geoidheight>
	</trkpt>
	<trkpt lat="50.719540" lon="6.155969">
		<ele>291</ele>
		<time>2011-09-11T08:21:18.848Z</time>
		<geoidheight>245</geoidheight>
	</trkpt>
	<trkpt lat="50.719548" lon="6.155996">
		<ele>291</ele>
		<time>2011-09-11T08:21:19.849Z</time>
		<geoidheight>245</geoidheight>
	</trkpt>
	<trkpt lat="50.719556" lon="6.156024">
		<ele>291</ele>
		<time>2011-09-11T08:21:20.851Z</time>
		<geoidheight>245</geoidheight>
	</trkpt>
	<trkpt lat="50.719561" lon="6.156052">
		<ele>291</ele>
		<time>2011-09-11T08:21:21.850Z</time>
		<geoidheight>245</geoidheight>
	</trkpt>
	<trkpt lat="50.719571" lon="6.156075">
		<ele>291</ele>
		<time>2011-09-11T08:21:22.851Z</time>
		<geoidheight>245</geoidheight>
	</trkpt>
	<trkpt lat="50.719580" lon="6.156094">
		<ele>291</ele>
		<time>2011-09-11T08:21:23.849Z</time>
		<geoidheight>245</geoidheight>
	</trkpt>
	<trkpt lat="50.719584" lon="6.156115">
		<ele>291</ele>
		<time>2011-09-11T08:21:24.860Z</time>
		<geoidheight>245</geoidheight>
	</trkpt>
	<trkpt lat="50.719593" lon="6.156132">
		<ele>291</ele>
		<time>2011-09-11T08:21:25.863Z</time>
		<geoidheight>245</geoidheight>
	</trkpt>
	<trkpt lat="50.719602" lon="6.156147">
		<ele>291</ele>
		<time>2011-09-11T08:21:26.861Z</time>
		<geoidheight>245</geoidheight>
	</trkpt>
	<trkpt lat="50.719610" lon="6.156163">
		<ele>291</ele>
		<time>2011-09-11T08:21:27.855Z</time>
		<geoidheight>245</geoidheight>
	</trkpt>
	<trkpt lat="50.719617" lon="6.156182">
		<ele>291</ele>
		<time>2011-09-11T08:21:28.860Z</time>
		<geoidheight>245</geoidheight>
	</trkpt>
	<trkpt lat="50.719624" lon="6.156201">
		<ele>291</ele>
		<time>2011-09-11T08:21:29.859Z</time>
		<geoidheight>245</geoidheight>
	</trkpt>
	<trkpt lat="50.719632" lon="6.156219">
		<ele>290</ele>
		<time>2011-09-11T08:21:30.868Z</time>
		<geoidheight>244</geoidheight>
	</trkpt>
	<trkpt lat="50.719638" lon="6.156239">
		<ele>290</ele>
		<time>2011-09-11T08:21:31.848Z</time>
		<geoidheight>244</geoidheight>
	</trkpt>
	<trkpt lat="50.719649" lon="6.156257">
		<ele>290</ele>
		<time>2011-09-11T08:21:32.852Z</time>
		<geoidheight>244</geoidheight>
	</trkpt>
	<trkpt lat="50.719660" lon="6.156275">
		<ele>290</ele>
		<time>2011-09-11T08:21:33.850Z</time>
		<geoidheight>244</geoidheight>
	</trkpt>
	<trkpt lat="50.719670" lon="6.156291">
		<ele>290</ele>
		<time>2011-09-11T08:21:34.851Z</time>
		<geoidheight>244</geoidheight>
	</trkpt>
	<trkpt lat="50.719677" lon="6.156308">
		<ele>290</ele>
		<time>2011-09-11T08:21:35.854Z</time>
		<geoidheight>244</geoidheight>
	</trkpt>
	<trkpt lat="50.719686" lon="6.156324">
		<ele>290</ele>
		<time>2011-09-11T08:21:36.849Z</time>
		<geoidheight>244</geoidheight>
	</trkpt>
	<trkpt lat="50.719693" lon="6.156344">
		<ele>290</ele>
		<time>2011-09-11T08:21:37.850Z</time>
		<geoidheight>244</geoidheight>
	</trkpt>
	<trkpt lat="50.719702" lon="6.156361">
		<ele>290</ele>
		<time>2011-09-11T08:21:38.854Z</time>
		<geoidheight>244</geoidheight>
	</trkpt>
	<trkpt lat="50.719712" lon="6.156374">
		<ele>290</ele>
		<time>2011-09-11T08:21:39.856Z</time>
		<geoidheight>244</geoidheight>
	</trkpt>
	<trkpt lat="50.719721" lon="6.156387">
		<ele>290</ele>
		<time>2011-09-11T08:21:40.852Z</time>
		<geoidheight>244</geoidheight>
	</trkpt>
	<trkpt lat="50.719732" lon="6.156399">
		<ele>290</ele>
		<time>2011-09-11T08:21:41.857Z</time>
		<geoidheight>244</geoidheight>
	</trkpt>
	<trkpt lat="50.719741" lon="6.156412">
		<ele>290</ele>
		<time>2011-09-11T08:21:42.854Z</time>
		<geoidheight>244</geoidheight>
	</trkpt>
	<trkpt lat="50.719749" lon="6.156425">
		<ele>290</ele>
		<time>2011-09-11T08:21:43.849Z</time>
		<geoidheight>244</geoidheight>
	</trkpt>
	<trkpt lat="50.719760" lon="6.156434">
		<ele>290</ele>
		<time>2011-09-11T08:21:44.854Z</time>
		<geoidheight>244</geoidheight>
	</trkpt>
	<trkpt lat="50.719770" lon="6.156446">
		<ele>290</ele>
		<time>2011-09-11T08:21:45.852Z</time>
		<geoidheight>244</geoidheight>
	</trkpt>
	<trkpt lat="50.719781" lon="6.156458">
		<ele>290</ele>
		<time>2011-09-11T08:21:46.850Z</time>
		<geoidheight>244</geoidheight>
	</trkpt>
	<trkpt lat="50.719792" lon="6.156469">
		<ele>290</ele>
		<time>2011-09-11T08:21:47.848Z</time>
		<geoidheight>244</geoidheight>
	</trkpt>
	<trkpt lat="50.719797" lon="6.156484">
		<ele>290</ele>
		<time>2011-09-11T08:21:48.855Z</time>
		<geoidheight>244</geoidheight>
	</trkpt>
	<trkpt lat="50.719803" lon="6.156498">
		<ele>290</ele>
		<time>2011-09-11T08:21:49.851Z</time>
		<geoidheight>244</geoidheight>
	</trkpt>
	<trkpt lat="50.719809" lon="6.156516">
		<ele>290</ele>
		<time>2011-09-11T08:21:50.857Z</time>
		<geoidheight>244</geoidheight>
	</trkpt>
	<trkpt lat="50.719816" lon="6.156533">
		<ele>290</ele>
		<time>2011-09-11T08:21:51.855Z</time>
		<geoidheight>244</geoidheight>
	</trkpt>
	<trkpt lat="50.719821" lon="6.156550">
		<ele>290</ele>
		<time>2011-09-11T08:21:52.851Z</time>
		<geoidheight>244</geoidheight>
	</trkpt>
	<trkpt lat="50.719828" lon="6.156567">
		<ele>290</ele>
		<time>2011-09-11T08:21:53.852Z</time>
		<geoidheight>244</geoidheight>
	</trkpt>
	<trkpt lat="50.719835" lon="6.156584">
		<ele>290</ele>
		<time>2011-09-11T08:21:54.858Z</time>
		<geoidheight>244</geoidheight>
	</trkpt>
	<trkpt lat="50.719843" lon="6.156606">
		<ele>290</ele>
		<time>2011-09-11T08:21:55.856Z</time>
		<geoidheight>244</geoidheight>
	</trkpt>
	<trkpt lat="50.719853" lon="6.156626">
		<ele>290</ele>
		<time>2011-09-11T08:21:56.853Z</time>
		<geoidheight>244</geoidheight>
	</trkpt>
	<trkpt lat="50.719863" lon="6.156648">
		<ele>290</ele>
		<time>2011-09-11T08:21:57.850Z</time>
		<geoidheight>244</geoidheight>
	</trkpt>
	<trkpt lat="50.719871" lon="6.156673">
		<ele>290</ele>
		<time>2011-09-11T08:21:58.851Z</time>
		<geoidheight>244</geoidheight>
	</trkpt>
	<trkpt lat="50.719877" lon="6.156699">
		<ele>290</ele>
		<time>2011-09-11T08:21:59.865Z</time>
		<geoidheight>244</geoidheight>
	</trkpt>
	<trkpt lat="50.719884" lon="6.156721">
		<ele>290</ele>
		<time>2011-09-11T08:22:00.867Z</time>
		<geoidheight>244</geoidheight>
	</trkpt>
	<trkpt lat="50.719891" lon="6.156743">
		<ele>290</ele>
		<time>2011-09-11T08:22:01.859Z</time>
		<geoidheight>244</geoidheight>
	</trkpt>
	<trkpt lat="50.719896" lon="6.156763">
		<ele>290</ele>
		<time>2011-09-11T08:22:02.865Z</time>
		<geoidheight>244</geoidheight>
	</trkpt>
	<trkpt lat="50.719902" lon="6.156781">
		<ele>290</ele>
		<time>2011-09-11T08:22:03.863Z</time>
		<geoidheight>244</geoidheight>
	</trkpt>
	<trkpt lat="50.719909" lon="6.156798">
		<ele>291</ele>
		<time>2011-09-11T08:22:04.864Z</time>
		<geoidheight>245</geoidheight>
	</trkpt>
	<trkpt lat="50.719915" lon="6.156816">
		<ele>291</ele>
		<time>2011-09-11T08:22:05.867Z</time>
		<geoidheight>245</geoidheight>
	</trkpt>
	<trkpt lat="50.719923" lon="6.156836">
		<ele>291</ele>
		<time>2011-09-11T08:22:06.863Z</time>
		<geoidheight>245</geoidheight>
	</trkpt>
	<trkpt lat="50.719929" lon="6.156855">
		<ele>291</ele>
		<time>2011-09-11T08:22:07.861Z</time>
		<geoidheight>245</geoidheight>
	</trkpt>
	<trkpt lat="50.719937" lon="6.156873">
		<ele>291</ele>
		<time>2011-09-11T08:22:08.875Z</time>
		<geoidheight>245</geoidheight>
	</trkpt>
	<trkpt lat="50.719946" lon="6.156887">
		<ele>291</ele>
		<time>2011-09-11T08:22:09.863Z</time>
		<geoidheight>245</geoidheight>
	</trkpt>
	<trkpt lat="50.719952" lon="6.156907">
		<ele>291</ele>
		<time>2011-09-11T08:22:10.865Z</time>
		<geoidheight>245</geoidheight>
	</trkpt>
	<trkpt lat="50.719957" lon="6.156929">
		<ele>291</ele>
		<time>2011-09-11T08:22:11.859Z</time>
		<geoidheight>245</geoidheight>
	</trkpt>
	<trkpt lat="50.719963" lon="6.156948">
		<ele>291</ele>
		<time>2011-09-11T08:22:12.865Z</time>
		<geoidheight>245</geoidheight>
	</trkpt>
	<trkpt lat="50.719970" lon="6.156967">
		<ele>291</ele>
		<time>2011-09-11T08:22:13.862Z</time>
		<geoidheight>245</geoidheight>
	</trkpt>
	<trkpt lat="50.719971" lon="6.156986">
		<ele>291</ele>
		<time>2011-09-11T08:22:14.857Z</time>
		<geoidheight>245</geoidheight>
	</trkpt>
	<trkpt lat="50.719976" lon="6.157003">
		<ele>291</ele>
		<time>2011-09-11T08:22:15.865Z</time>
		<geoidheight>245</geoidheight>
	</trkpt>
	<trkpt lat="50.719976" lon="6.157021">
		<ele>291</ele>
		<time>2011-09-11T08:22:16.879Z</time>
		<geoidheight>245</geoidheight>
	</trkpt>
	<trkpt lat="50.719978" lon="6.157039">
		<ele>291</ele>
		<time>2011-09-11T08:22:17.863Z</time>
		<geoidheight>245</geoidheight>
	</trkpt>
	<trkpt lat="50.719981" lon="6.157056">
		<ele>291</ele>
		<time>2011-09-11T08:22:18.868Z</time>
		<geoidheight>245</geoidheight>
	</trkpt>
	<trkpt lat="50.719987" lon="6.157072">
		<ele>291</ele>
		<time>2011-09-11T08:22:19.865Z</time>
		<geoidheight>245</geoidheight>
	</trkpt>
	<trkpt lat="50.719993" lon="6.157089">
		<ele>291</ele>
		<time>2011-09-11T08:22:20.862Z</time>
		<geoidheight>245</geoidheight>
	</trkpt>
	<trkpt lat="50.720000" lon="6.157107">
		<ele>291</ele>
		<time>2011-09-11T08:22:21.868Z</time>
		<geoidheight>245</geoidheight>
	</trkpt>
	<trkpt lat="50.720004" lon="6.157128">
		<ele>291</ele>
		<time>2011-09-11T08:22:22.847Z</time>
		<geoidheight>245</geoidheight>
	</trkpt>
	<trkpt lat="50.720009" lon="6.157149">
		<ele>291</ele>
		<time>2011-09-11T08:22:23.852Z</time>
		<geoidheight>245</geoidheight>
	</trkpt>
	<trkpt lat="50.720014" lon="6.157171">
		<ele>291</ele>
		<time>2011-09-11T08:22:24.853Z</time>
		<geoidheight>245</geoidheight>
	</trkpt>
	<trkpt lat="50.720018" lon="6.157191">
		<ele>291</ele>
		<time>2011-09-11T08:22:25.847Z</time>
		<geoidheight>245</geoidheight>
	</trkpt>
	<trkpt lat="50.720019" lon="6.157210">
		<ele>291</ele>
		<time>2011-09-11T08:22:26.872Z</time>
		<geoidheight>245</geoidheight>
	</trkpt>
	<trkpt lat="50.720015" lon="6.157228">
		<ele>291</ele>
		<time>2011-09-11T08:22:27.850Z</time>
		<geoidheight>245</geoidheight>
	</trkpt>
	<trkpt lat="50.720013" lon="6.157246">
		<ele>291</ele>
		<time>2011-09-11T08:22:28.849Z</time>
		<geoidheight>245</geoidheight>
	</trkpt>
	<trkpt lat="50.720016" lon="6.157264">
		<ele>291</ele>
		<time>2011-09-11T08:22:29.849Z</time>
		<geoidheight>245</geoidheight>
	</trkpt>
	<trkpt lat="50.720021" lon="6.157282">
		<ele>291</ele>
		<time>2011-09-11T08:22:30.850Z</time>
		<geoidheight>245</geoidheight>
	</trkpt>
	<trkpt lat="50.720028" lon="6.157300">
		<ele>291</ele>
		<time>2011-09-11T08:22:31.847Z</time>
		<geoidheight>245</geoidheight>
	</trkpt>
	<trkpt lat="50.720039" lon="6.157313">
		<ele>291</ele>
		<time>2011-09-11T08:22:32.848Z</time>
		<geoidheight>245</geoidheight>
	</trkpt>
	<trkpt lat="50.720052" lon="6.157326">
		<ele>291</ele>
		<time>2011-09-11T08:22:33.846Z</time>
		<geoidheight>245</geoidheight>
	</trkpt>
	<trkpt lat="50.720062" lon="6.157349">
		<ele>291</ele>
		<time>2011-09-11T08:22:34.851Z</time>
		<geoidheight>245</geoidheight>
	</trkpt>
	<trkpt lat="50.720068" lon="6.157374">
		<ele>291</ele>
		<time>2011-09-11T08:22:35.846Z</time>
		<geoidheight>245</geoidheight>
	</trkpt>
	<trkpt lat="50.720076" lon="6.157394">
		<ele>291</ele>
		<time>2011-09-11T08:22:36.847Z</time>
		<geoidheight>245</geoidheight>
	</trkpt>
	<trkpt lat="50.720082" lon="6.157413">
		<ele>291</ele>
		<time>2011-09-11T08:22:37.848Z</time>
		<geoidheight>245</geoidheight>
	</trkpt>
	<trkpt lat="50.720087" lon="6.157435">
		<ele>291</ele>
		<time>2011-09-11T08:22:38.848Z</time>
		<geoidheight>245</geoidheight>
	</trkpt>
	<trkpt lat="50.720090" lon="6.157458">
		<ele>291</ele>
		<time>2011-09-11T08:22:39.846Z</time>
		<geoidheight>245</geoidheight>
	</trkpt>
	<trkpt lat="50.720099" lon="6.157478">
		<ele>291</ele>
		<time>2011-09-11T08:22:40.851Z</time>
		<geoidheight>245</geoidheight>
	</trkpt>
	<trkpt lat="50.720105" lon="6.157503">
		<ele>291</ele>
		<time>2011-09-11T08:22:41.846Z</time>
		<geoidheight>245</geoidheight>
	</trkpt>
	<trkpt lat="50.720110" lon="6.157528">
		<ele>291</ele>
		<time>2011-09-11T08:22:42.848Z</time>
		<geoidheight>245</geoidheight>
	</trkpt>
	<trkpt lat="50.720114" lon="6.157553">
		<ele>291</ele>
		<time>2011-09-11T08:22:43.849Z</time>
		<geoidheight>245</geoidheight>
	</trkpt>
	<trkpt lat="50.720119" lon="6.157576">
		<ele>291</ele>
		<time>2011-09-11T08:22:44.847Z</time>
		<geoidheight>245</geoidheight>
	</trkpt>
	<trkpt lat="50.720128" lon="6.157594">
		<ele>291</ele>
		<time>2011-09-11T08:22:45.846Z</time>
		<geoidheight>245</geoidheight>
	</trkpt>
	<trkpt lat="50.720134" lon="6.157608">
		<ele>291</ele>
		<time>2011-09-11T08:22:46.859Z</time>
		<geoidheight>245</geoidheight>
	</trkpt>
	<trkpt lat="50.720140" lon="6.157623">
		<ele>291</ele>
		<time>2011-09-11T08:22:47.847Z</time>
		<geoidheight>245</geoidheight>
	</trkpt>
	<trkpt lat="50.720146" lon="6.157639">
		<ele>291</ele>
		<time>2011-09-11T08:22:48.848Z</time>
		<geoidheight>245</geoidheight>
	</trkpt>
	<trkpt lat="50.720153" lon="6.157657">
		<ele>291</ele>
		<time>2011-09-11T08:22:49.852Z</time>
		<geoidheight>245</geoidheight>
	</trkpt>
	<trkpt lat="50.720161" lon="6.157674">
		<ele>291</ele>
		<time>2011-09-11T08:22:50.849Z</time>
		<geoidheight>245</geoidheight>
	</trkpt>
	<trkpt lat="50.720170" lon="6.157687">
		<ele>291</ele>
		<time>2011-09-11T08:22:51.849Z</time>
		<geoidheight>245</geoidheight>
	</trkpt>
	<trkpt lat="50.720178" lon="6.157699">
		<ele>291</ele>
		<time>2011-09-11T08:22:52.848Z</time>
		<geoidheight>245</geoidheight>
	</trkpt>
	<trkpt lat="50.720187" lon="6.157715">
		<ele>291</ele>
		<time>2011-09-11T08:22:53.848Z</time>
		<geoidheight>245</geoidheight>
	</trkpt>
	<trkpt lat="50.720195" lon="6.157736">
		<ele>291</ele>
		<time>2011-09-11T08:22:54.847Z</time>
		<geoidheight>245</geoidheight>
	</trkpt>
	<trkpt lat="50.720206" lon="6.157755">
		<ele>291</ele>
		<time>2011-09-11T08:22:55.848Z</time>
		<geoidheight>245</geoidheight>
	</trkpt>
	<trkpt lat="50.720215" lon="6.157773">
		<ele>291</ele>
		<time>2011-09-11T08:22:56.851Z</time>
		<geoidheight>245</geoidheight>
	</trkpt>
	<trkpt lat="50.720223" lon="6.157792">
		<ele>291</ele>
		<time>2011-09-11T08:22:57.848Z</time>
		<geoidheight>245</geoidheight>
	</trkpt>
	<trkpt lat="50.720230" lon="6.157815">
		<ele>291</ele>
		<time>2011-09-11T08:22:58.848Z</time>
		<geoidheight>245</geoidheight>
	</trkpt>
	<trkpt lat="50.720242" lon="6.157831">
		<ele>291</ele>
		<time>2011-09-11T08:22:59.853Z</time>
		<geoidheight>245</geoidheight>
	</trkpt>
	<trkpt lat="50.720251" lon="6.157848">
		<ele>291</ele>
		<time>2011-09-11T08:23:00.848Z</time>
		<geoidheight>245</geoidheight>
	</trkpt>
	<trkpt lat="50.720263" lon="6.157859">
		<ele>291</ele>
		<time>2011-09-11T08:23:01.848Z</time>
		<geoidheight>245</geoidheight>
	</trkpt>
	<trkpt lat="50.720272" lon="6.157873">
		<ele>291</ele>
		<time>2011-09-11T08:23:02.848Z</time>
		<geoidheight>245</geoidheight>
	</trkpt>
	<trkpt lat="50.720283" lon="6.157887">
		<ele>291</ele>
		<time>2011-09-11T08:23:03.849Z</time>
		<geoidheight>245</geoidheight>
	</trkpt>
	<trkpt lat="50.720292" lon="6.157904">
		<ele>291</ele>
		<time>2011-09-11T08:23:04.847Z</time>
		<geoidheight>245</geoidheight>
	</trkpt>
	<trkpt lat="50.720302" lon="6.157921">
		<ele>291</ele>
		<time>2011-09-11T08:23:05.847Z</time>
		<geoidheight>245</geoidheight>
	</trkpt>
	<trkpt lat="50.720310" lon="6.157936">
		<ele>291</ele>
		<time>2011-09-11T08:23:06.849Z</time>
		<geoidheight>245</geoidheight>
	</trkpt>
	<trkpt lat="50.720319" lon="6.157954">
		<ele>291</ele>
		<time>2011-09-11T08:23:07.848Z</time>
		<geoidheight>245</geoidheight>
	</trkpt>
	<trkpt lat="50.720329" lon="6.157973">
		<ele>291</ele>
		<time>2011-09-11T08:23:08.849Z</time>
		<geoidheight>245</geoidheight>
	</trkpt>
	<trkpt lat="50.720340" lon="6.157988">
		<ele>292</ele>
		<time>2011-09-11T08:23:09.850Z</time>
		<geoidheight>246</geoidheight>
	</trkpt>
	<trkpt lat="50.720352" lon="6.158003">
		<ele>292</ele>
		<time>2011-09-11T08:23:10.849Z</time>
		<geoidheight>246</geoidheight>
	</trkpt>
	<trkpt lat="50.720363" lon="6.158019">
		<ele>292</ele>
		<time>2011-09-11T08:23:11.848Z</time>
		<geoidheight>246</geoidheight>
	</trkpt>
	<trkpt lat="50.720375" lon="6.158029">
		<ele>292</ele>
		<time>2011-09-11T08:23:12.850Z</time>
		<geoidheight>246</geoidheight>
	</trkpt>
	<trkpt lat="50.720385" lon="6.158043">
		<ele>292</ele>
		<time>2011-09-11T08:23:13.847Z</time>
		<geoidheight>246</geoidheight>
	</trkpt>
	<trkpt lat="50.720396" lon="6.158054">
		<ele>292</ele>
		<time>2011-09-11T08:23:14.849Z</time>
		<geoidheight>246</geoidheight>
	</trkpt>
	<trkpt lat="50.720409" lon="6.158064">
		<ele>292</ele>
		<time>2011-09-11T08:23:15.847Z</time>
		<geoidheight>246</geoidheight>
	</trkpt>
	<trkpt lat="50.720423" lon="6.158075">
		<ele>292</ele>
		<time>2011-09-11T08:23:16.852Z</time>
		<geoidheight>246</geoidheight>
	</trkpt>
	<trkpt lat="50.720438" lon="6.158086">
		<ele>292</ele>
		<time>2011-09-11T08:23:17.848Z</time>
		<geoidheight>246</geoidheight>
	</trkpt>
	<trkpt lat="50.720450" lon="6.158102">
		<ele>292</ele>
		<time>2011-09-11T08:23:18.848Z</time>
		<geoidheight>246</geoidheight>
	</trkpt>
	<trkpt lat="50.720464" lon="6.158115">
		<ele>292</ele>
		<time>2011-09-11T08:23:19.852Z</time>
		<geoidheight>246</geoidheight>
	</trkpt>
	<trkpt lat="50.720473" lon="6.158131">
		<ele>292</ele>
		<time>2011-09-11T08:23:20.866Z</time>
		<geoidheight>246</geoidheight>
	</trkpt>
	<trkpt lat="50.720479" lon="6.158148">
		<ele>292</ele>
		<time>2011-09-11T08:23:21.849Z</time>
		<geoidheight>246</geoidheight>
	</trkpt>
	<trkpt lat="50.720486" lon="6.158164">
		<ele>292</ele>
		<time>2011-09-11T08:23:22.849Z</time>
		<geoidheight>246</geoidheight>
	</trkpt>
	<trkpt lat="50.720498" lon="6.158173">
		<ele>292</ele>
		<time>2011-09-11T08:23:23.850Z</time>
		<geoidheight>246</geoidheight>
	</trkpt>
	<trkpt lat="50.720511" lon="6.158176">
		<ele>292</ele>
		<time>2011-09-11T08:23:24.846Z</time>
		<geoidheight>246</geoidheight>
	</trkpt>
	<trkpt lat="50.720522" lon="6.158185">
		<ele>292</ele>
		<time>2011-09-11T08:23:25.850Z</time>
		<geoidheight>246</geoidheight>
	</trkpt>
	<trkpt lat="50.720532" lon="6.158196">
		<ele>292</ele>
		<time>2011-09-11T08:23:26.868Z</time>
		<geoidheight>246</geoidheight>
	</trkpt>
	<trkpt lat="50.720543" lon="6.158208">
		<ele>292</ele>
		<time>2011-09-11T08:23:27.858Z</time>
		<geoidheight>246</geoidheight>
	</trkpt>
	<trkpt lat="50.720553" lon="6.158226">
		<ele>292</ele>
		<time>2011-09-11T08:23:28.860Z</time>
		<geoidheight>246</geoidheight>
	</trkpt>
	<trkpt lat="50.720563" lon="6.158248">
		<ele>292</ele>
		<time>2011-09-11T08:23:29.866Z</time>
		<geoidheight>246</geoidheight>
	</trkpt>
	<trkpt lat="50.720574" lon="6.158262">
		<ele>292</ele>
		<time>2011-09-11T08:23:30.865Z</time>
		<geoidheight>246</geoidheight>
	</trkpt>
	<trkpt lat="50.720586" lon="6.158270">
		<ele>292</ele>
		<time>2011-09-11T08:23:31.867Z</time>
		<geoidheight>246</geoidheight>
	</trkpt>
	<trkpt lat="50.720597" lon="6.158279">
		<ele>292</ele>
		<time>2011-09-11T08:23:32.877Z</time>
		<geoidheight>246</geoidheight>
	</trkpt>
	<trkpt lat="50.720609" lon="6.158293">
		<ele>292</ele>
		<time>2011-09-11T08:23:33.865Z</time>
		<geoidheight>246</geoidheight>
	</trkpt>
	<trkpt lat="50.720621" lon="6.158308">
		<ele>292</ele>
		<time>2011-09-11T08:23:34.856Z</time>
		<geoidheight>246</geoidheight>
	</trkpt>
	<trkpt lat="50.720630" lon="6.158323">
		<ele>292</ele>
		<time>2011-09-11T08:23:35.851Z</time>
		<geoidheight>246</geoidheight>
	</trkpt>
	<trkpt lat="50.720635" lon="6.158341">
		<ele>292</ele>
		<time>2011-09-11T08:23:36.864Z</time>
		<geoidheight>246</geoidheight>
	</trkpt>
	<trkpt lat="50.720642" lon="6.158354">
		<ele>292</ele>
		<time>2011-09-11T08:23:37.861Z</time>
		<geoidheight>246</geoidheight>
	</trkpt>
	<trkpt lat="50.720646" lon="6.158371">
		<ele>292</ele>
		<time>2011-09-11T08:23:38.877Z</time>
		<geoidheight>246</geoidheight>
	</trkpt>
	<trkpt lat="50.720652" lon="6.158386">
		<ele>292</ele>
		<time>2011-09-11T08:23:39.863Z</time>
		<geoidheight>246</geoidheight>
	</trkpt>
	<trkpt lat="50.720658" lon="6.158403">
		<ele>292</ele>
		<time>2011-09-11T08:23:40.865Z</time>
		<geoidheight>246</geoidheight>
	</trkpt>
	<trkpt lat="50.720664" lon="6.158421">
		<ele>292</ele>
		<time>2011-09-11T08:23:41.863Z</time>
		<geoidheight>246</geoidheight>
	</trkpt>
	<trkpt lat="50.720675" lon="6.158432">
		<ele>292</ele>
		<time>2011-09-11T08:23:42.865Z</time>
		<geoidheight>246</geoidheight>
	</trkpt>
	<trkpt lat="50.720683" lon="6.158450">
		<ele>292</ele>
		<time>2011-09-11T08:23:43.861Z</time>
		<geoidheight>246</geoidheight>
	</trkpt>
	<trkpt lat="50.720691" lon="6.158470">
		<ele>292</ele>
		<time>2011-09-11T08:23:44.876Z</time>
		<geoidheight>246</geoidheight>
	</trkpt>
	<trkpt lat="50.720701" lon="6.158485">
		<ele>292</ele>
		<time>2011-09-11T08:23:45.872Z</time>
		<geoidheight>246</geoidheight>
	</trkpt>
	<trkpt lat="50.720713" lon="6.158492">
		<ele>292</ele>
		<time>2011-09-11T08:23:46.865Z</time>
		<geoidheight>246</geoidheight>
	</trkpt>
	<trkpt lat="50.720723" lon="6.158499">
		<ele>292</ele>
		<time>2011-09-11T08:23:47.860Z</time>
		<geoidheight>246</geoidheight>
	</trkpt>
	<trkpt lat="50.720732" lon="6.158503">
		<ele>292</ele>
		<time>2011-09-11T08:23:48.870Z</time>
		<geoidheight>246</geoidheight>
	</trkpt>
	<trkpt lat="50.720742" lon="6.158506">
		<ele>292</ele>
		<time>2011-09-11T08:23:49.863Z</time>
		<geoidheight>246</geoidheight>
	</trkpt>
	<trkpt lat="50.720753" lon="6.158519">
		<ele>292</ele>
		<time>2011-09-11T08:23:50.866Z</time>
		<geoidheight>246</geoidheight>
	</trkpt>
	<trkpt lat="50.720763" lon="6.158540">
		<ele>292</ele>
		<time>2011-09-11T08:23:51.867Z</time>
		<geoidheight>246</geoidheight>
	</trkpt>
	<trkpt lat="50.720774" lon="6.158555">
		<ele>292</ele>
		<time>2011-09-11T08:23:52.868Z</time>
		<geoidheight>246</geoidheight>
	</trkpt>
	<trkpt lat="50.720786" lon="6.158566">
		<ele>292</ele>
		<time>2011-09-11T08:23:53.866Z</time>
		<geoidheight>246</geoidheight>
	</trkpt>
	<trkpt lat="50.720794" lon="6.158580">
		<ele>292</ele>
		<time>2011-09-11T08:23:54.863Z</time>
		<geoidheight>246</geoidheight>
	</trkpt>
	<trkpt lat="50.720805" lon="6.158595">
		<ele>292</ele>
		<time>2011-09-11T08:23:55.866Z</time>
		<geoidheight>246</geoidheight>
	</trkpt>
	<trkpt lat="50.720815" lon="6.158613">
		<ele>292</ele>
		<time>2011-09-11T08:23:56.865Z</time>
		<geoidheight>246</geoidheight>
	</trkpt>
	<trkpt lat="50.720825" lon="6.158635">
		<ele>292</ele>
		<time>2011-09-11T08:23:57.864Z</time>
		<geoidheight>246</geoidheight>
	</trkpt>
	<trkpt lat="50.720836" lon="6.158657">
		<ele>292</ele>
		<time>2011-09-11T08:23:58.867Z</time>
		<geoidheight>246</geoidheight>
	</trkpt>
	<trkpt lat="50.720845" lon="6.158682">
		<ele>292</ele>
		<time>2011-09-11T08:23:59.863Z</time>
		<geoidheight>246</geoidheight>
	</trkpt>
	<trkpt lat="50.720856" lon="6.158699">
		<ele>292</ele>
		<time>2011-09-11T08:24:00.865Z</time>
		<geoidheight>246</geoidheight>
	</trkpt>
	<trkpt lat="50.720864" lon="6.158714">
		<ele>292</ele>
		<time>2011-09-11T08:24:01.877Z</time>
		<geoidheight>246</geoidheight>
	</trkpt>
	<trkpt lat="50.720872" lon="6.158733">
		<ele>292</ele>
		<time>2011-09-11T08:24:02.861Z</time>
		<geoidheight>246</geoidheight>
	</trkpt>
	<trkpt lat="50.720881" lon="6.158751">
		<ele>292</ele>
		<time>2011-09-11T08:24:03.862Z</time>
		<geoidheight>246</geoidheight>
	</trkpt>
	<trkpt lat="50.720889" lon="6.158769">
		<ele>291</ele>
		<time>2011-09-11T08:24:04.869Z</time>
		<geoidheight>245</geoidheight>
	</trkpt>
	<trkpt lat="50.720897" lon="6.158786">
		<ele>291</ele>
		<time>2011-09-11T08:24:05.864Z</time>
		<geoidheight>245</geoidheight>
	</trkpt>
	<trkpt lat="50.720903" lon="6.158803">
		<ele>291</ele>
		<time>2011-09-11T08:24:06.868Z</time>
		<geoidheight>245</geoidheight>
	</trkpt>
	<trkpt lat="50.720909" lon="6.158820">
		<ele>291</ele>
		<time>2011-09-11T08:24:07.865Z</time>
		<geoidheight>245</geoidheight>
	</trkpt>
	<trkpt lat="50.720918" lon="6.158839">
		<ele>291</ele>
		<time>2011-09-11T08:24:08.870Z</time>
		<geoidheight>245</geoidheight>
	</trkpt>
	<trkpt lat="50.720928" lon="6.158860">
		<ele>291</ele>
		<time>2011-09-11T08:24:09.858Z</time>
		<geoidheight>245</geoidheight>
	</trkpt>
	<trkpt lat="50.720936" lon="6.158879">
		<ele>291</ele>
		<time>2011-09-11T08:24:10.854Z</time>
		<geoidheight>245</geoidheight>
	</trkpt>
	<trkpt lat="50.720944" lon="6.158897">
		<ele>291</ele>
		<time>2011-09-11T08:24:11.849Z</time>
		<geoidheight>245</geoidheight>
	</trkpt>
	<trkpt lat="50.720955" lon="6.158909">
		<ele>291</ele>
		<time>2011-09-11T08:24:12.859Z</time>
		<geoidheight>245</geoidheight>
	</trkpt>
	<trkpt lat="50.720966" lon="6.158923">
		<ele>291</ele>
		<time>2011-09-11T08:24:13.850Z</time>
		<geoidheight>245</geoidheight>
	</trkpt>
	<trkpt lat="50.720972" lon="6.158942">
		<ele>291</ele>
		<time>2011-09-11T08:24:14.853Z</time>
		<geoidheight>245</geoidheight>
	</trkpt>
	<trkpt lat="50.720979" lon="6.158959">
		<ele>291</ele>
		<time>2011-09-11T08:24:15.866Z</time>
		<geoidheight>245</geoidheight>
	</trkpt>
	<trkpt lat="50.720986" lon="6.158982">
		<ele>291</ele>
		<time>2011-09-11T08:24:16.857Z</time>
		<geoidheight>245</geoidheight>
	</trkpt>
	<trkpt lat="50.720994" lon="6.159002">
		<ele>291</ele>
		<time>2011-09-11T08:24:17.864Z</time>
		<geoidheight>245</geoidheight>
	</trkpt>
	<trkpt lat="50.721002" lon="6.159022">
		<ele>291</ele>
		<time>2011-09-11T08:24:18.856Z</time>
		<geoidheight>245</geoidheight>
	</trkpt>
	<trkpt lat="50.721012" lon="6.159038">
		<ele>291</ele>
		<time>2011-09-11T08:24:19.856Z</time>
		<geoidheight>245</geoidheight>
	</trkpt>
	<trkpt lat="50.721016" lon="6.159052">
		<ele>291</ele>
		<time>2011-09-11T08:24:20.849Z</time>
		<geoidheight>245</geoidheight>
	</trkpt>
	<trkpt lat="50.721024" lon="6.159061">
		<ele>291</ele>
		<time>2011-09-11T08:24:21.849Z</time>
		<geoidheight>245</geoidheight>
	</trkpt>
	<trkpt lat="50.721031" lon="6.159073">
		<ele>291</ele>
		<time>2011-09-11T08:24:22.850Z</time>
		<geoidheight>245</geoidheight>
	</trkpt>
	<trkpt lat="50.721039" lon="6.159087">
		<ele>291</ele>
		<time>2011-09-11T08:24:23.853Z</time>
		<geoidheight>245</geoidheight>
	</trkpt>
	<trkpt lat="50.721046" lon="6.159101">
		<ele>291</ele>
		<time>2011-09-11T08:24:24.848Z</time>
		<geoidheight>245</geoidheight>
	</trkpt>
	<trkpt lat="50.721053" lon="6.159121">
		<ele>291</ele>
		<time>2011-09-11T08:24:25.849Z</time>
		<geoidheight>245</geoidheight>
	</trkpt>
	<trkpt lat="50.721061" lon="6.159145">
		<ele>291</ele>
		<time>2011-09-11T08:24:26.848Z</time>
		<geoidheight>245</geoidheight>
	</trkpt>
	<trkpt lat="50.721072" lon="6.159171">
		<ele>291</ele>
		<time>2011-09-11T08:24:27.851Z</time>
		<geoidheight>245</geoidheight>
	</trkpt>
	<trkpt lat="50.721083" lon="6.159192">
		<ele>291</ele>
		<time>2011-09-11T08:24:28.848Z</time>
		<geoidheight>245</geoidheight>
	</trkpt>
	<trkpt lat="50.721096" lon="6.159207">
		<ele>291</ele>
		<time>2011-09-11T08:24:29.849Z</time>
		<geoidheight>245</geoidheight>
	</trkpt>
	<trkpt lat="50.721107" lon="6.159228">
		<ele>291</ele>
		<time>2011-09-11T08:24:30.850Z</time>
		<geoidheight>245</geoidheight>
	</trkpt>
	<trkpt lat="50.721118" lon="6.159249">
		<ele>291</ele>
		<time>2011-09-11T08:24:31.849Z</time>
		<geoidheight>245</geoidheight>
	</trkpt>
	<trkpt lat="50.721132" lon="6.159267">
		<ele>291</ele>
		<time>2011-09-11T08:24:32.849Z</time>
		<geoidheight>245</geoidheight>
	</trkpt>
	<trkpt lat="50.721146" lon="6.159280">
		<ele>291</ele>
		<time>2011-09-11T08:24:33.851Z</time>
		<geoidheight>245</geoidheight>
	</trkpt>
	<trkpt lat="50.721159" lon="6.159291">
		<ele>291</ele>
		<time>2011-09-11T08:24:34.848Z</time>
		<geoidheight>245</geoidheight>
	</trkpt>
	<trkpt lat="50.721169" lon="6.159306">
		<ele>290</ele>
		<time>2011-09-11T08:24:35.852Z</time>
		<geoidheight>244</geoidheight>
	</trkpt>
	<trkpt lat="50.721179" lon="6.159322">
		<ele>290</ele>
		<time>2011-09-11T08:24:36.850Z</time>
		<geoidheight>244</geoidheight>
	</trkpt>
	<trkpt lat="50.721188" lon="6.159341">
		<ele>290</ele>
		<time>2011-09-11T08:24:37.851Z</time>
		<geoidheight>244</geoidheight>
	</trkpt>
	<trkpt lat="50.721196" lon="6.159363">
		<ele>290</ele>
		<time>2011-09-11T08:24:38.849Z</time>
		<geoidheight>244</geoidheight>
	</trkpt>
	<trkpt lat="50.721203" lon="6.159382">
		<ele>290</ele>
		<time>2011-09-11T08:24:39.851Z</time>
		<geoidheight>244</geoidheight>
	</trkpt>
	<trkpt lat="50.721213" lon="6.159403">
		<ele>290</ele>
		<time>2011-09-11T08:24:40.850Z</time>
		<geoidheight>244</geoidheight>
	</trkpt>
	<trkpt lat="50.721223" lon="6.159428">
		<ele>290</ele>
		<time>2011-09-11T08:24:41.847Z</time>
		<geoidheight>244</geoidheight>
	</trkpt>
	<trkpt lat="50.721230" lon="6.159450">
		<ele>290</ele>
		<time>2011-09-11T08:24:42.849Z</time>
		<geoidheight>244</geoidheight>
	</trkpt>
	<trkpt lat="50.721242" lon="6.159462">
		<ele>290</ele>
		<time>2011-09-11T08:24:43.850Z</time>
		<geoidheight>244</geoidheight>
	</trkpt>
	<trkpt lat="50.721254" lon="6.159474">
		<ele>290</ele>
		<time>2011-09-11T08:24:44.850Z</time>
		<geoidheight>244</geoidheight>
	</trkpt>
	<trkpt lat="50.721268" lon="6.159483">
		<ele>290</ele>
		<time>2011-09-11T08:24:45.849Z</time>
		<geoidheight>244</geoidheight>
	</trkpt>
	<trkpt lat="50.721282" lon="6.159488">
		<ele>290</ele>
		<time>2011-09-11T08:24:46.851Z</time>
		<geoidheight>244</geoidheight>
	</trkpt>
	<trkpt lat="50.721294" lon="6.159495">
		<ele>290</ele>
		<time>2011-09-11T08:24:47.850Z</time>
		<geoidheight>244</geoidheight>
	</trkpt>
	<trkpt lat="50.721307" lon="6.159503">
		<ele>290</ele>
		<time>2011-09-11T08:24:48.849Z</time>
		<geoidheight>244</geoidheight>
	</trkpt>
	<trkpt lat="50.721318" lon="6.159512">
		<ele>289</ele>
		<time>2011-09-11T08:24:49.850Z</time>
		<geoidheight>243</geoidheight>
	</trkpt>
	<trkpt lat="50.721329" lon="6.159525">
		<ele>289</ele>
		<time>2011-09-11T08:24:50.849Z</time>
		<geoidheight>243</geoidheight>
	</trkpt>
	<trkpt lat="50.721340" lon="6.159542">
		<ele>289</ele>
		<time>2011-09-11T08:24:51.849Z</time>
		<geoidheight>243</geoidheight>
	</trkpt>
	<trkpt lat="50.721350" lon="6.159564">
		<ele>289</ele>
		<time>2011-09-11T08:24:52.850Z</time>
		<geoidheight>243</geoidheight>
	</trkpt>
	<trkpt lat="50.721359" lon="6.159583">
		<ele>289</ele>
		<time>2011-09-11T08:24:53.854Z</time>
		<geoidheight>243</geoidheight>
	</trkpt>
	<trkpt lat="50.721371" lon="6.159597">
		<ele>289</ele>
		<time>2011-09-11T08:24:54.858Z</time>
		<geoidheight>243</geoidheight>
	</trkpt>
	<trkpt lat="50.721385" lon="6.159605">
		<ele>289</ele>
		<time>2011-09-11T08:24:55.855Z</time>
		<geoidheight>243</geoidheight>
	</trkpt>
	<trkpt lat="50.721398" lon="6.159607">
		<ele>289</ele>
		<time>2011-09-11T08:24:56.851Z</time>
		<geoidheight>243</geoidheight>
	</trkpt>
	<trkpt lat="50.721407" lon="6.159616">
		<ele>289</ele>
		<time>2011-09-11T08:24:57.868Z</time>
		<geoidheight>243</geoidheight>
	</trkpt>
	<trkpt lat="50.721414" lon="6.159627">
		<ele>289</ele>
		<time>2011-09-11T08:24:58.859Z</time>
		<geoidheight>243</geoidheight>
	</trkpt>
	<trkpt lat="50.721424" lon="6.159636">
		<ele>289</ele>
		<time>2011-09-11T08:24:59.862Z</time>
		<geoidheight>243</geoidheight>
	</trkpt>
	<trkpt lat="50.721434" lon="6.159645">
		<ele>289</ele>
		<time>2011-09-11T08:25:00.857Z</time>
		<geoidheight>243</geoidheight>
	</trkpt>
	<trkpt lat="50.721442" lon="6.159656">
		<ele>289</ele>
		<time>2011-09-11T08:25:01.848Z</time>
		<geoidheight>243</geoidheight>
	</trkpt>
	<trkpt lat="50.721449" lon="6.159669">
		<ele>289</ele>
		<time>2011-09-11T08:25:02.851Z</time>
		<geoidheight>243</geoidheight>
	</trkpt>
	<trkpt lat="50.721457" lon="6.159684">
		<ele>289</ele>
		<time>2011-09-11T08:25:03.848Z</time>
		<geoidheight>243</geoidheight>
	</trkpt>
	<trkpt lat="50.721463" lon="6.159697">
		<ele>289</ele>
		<time>2011-09-11T08:25:04.848Z</time>
		<geoidheight>243</geoidheight>
	</trkpt>
	<trkpt lat="50.721469" lon="6.159714">
		<ele>289</ele>
		<time>2011-09-11T08:25:05.852Z</time>
		<geoidheight>243</geoidheight>
	</trkpt>
	<trkpt lat="50.721474" lon="6.159735">
		<ele>288</ele>
		<time>2011-09-11T08:25:06.848Z</time>
		<geoidheight>242</geoidheight>
	</trkpt>
	<trkpt lat="50.721482" lon="6.159757">
		<ele>288</ele>
		<time>2011-09-11T08:25:07.860Z</time>
		<geoidheight>242</geoidheight>
	</trkpt>
	<trkpt lat="50.721492" lon="6.159777">
		<ele>288</ele>
		<time>2011-09-11T08:25:08.848Z</time>
		<geoidheight>242</geoidheight>
	</trkpt>
	<trkpt lat="50.721501" lon="6.159800">
		<ele>288</ele>
		<time>2011-09-11T08:25:09.851Z</time>
		<geoidheight>242</geoidheight>
	</trkpt>
	<trkpt lat="50.721510" lon="6.159821">
		<ele>288</ele>
		<time>2011-09-11T08:25:10.848Z</time>
		<geoidheight>242</geoidheight>
	</trkpt>
	<trkpt lat="50.721516" lon="6.159842">
		<ele>288</ele>
		<time>2011-09-11T08:25:11.850Z</time>
		<geoidheight>242</geoidheight>
	</trkpt>
	<trkpt lat="50.721522" lon="6.159862">
		<ele>288</ele>
		<time>2011-09-11T08:25:12.850Z</time>
		<geoidheight>242</geoidheight>
	</trkpt>
	<trkpt lat="50.721525" lon="6.159882">
		<ele>288</ele>
		<time>2011-09-11T08:25:13.849Z</time>
		<geoidheight>242</geoidheight>
	</trkpt>
	<trkpt lat="50.721532" lon="6.159898">
		<ele>288</ele>
		<time>2011-09-11T08:25:14.848Z</time>
		<geoidheight>242</geoidheight>
	</trkpt>
	<trkpt lat="50.721541" lon="6.159912">
		<ele>288</ele>
		<time>2011-09-11T08:25:15.854Z</time>
		<geoidheight>242</geoidheight>
	</trkpt>
	<trkpt lat="50.721554" lon="6.159921">
		<ele>288</ele>
		<time>2011-09-11T08:25:16.847Z</time>
		<geoidheight>242</geoidheight>
	</trkpt>
	<trkpt lat="50.721566" lon="6.159934">
		<ele>288</ele>
		<time>2011-09-11T08:25:17.851Z</time>
		<geoidheight>242</geoidheight>
	</trkpt>
	<trkpt lat="50.721573" lon="6.159951">
		<ele>288</ele>
		<time>2011-09-11T08:25:18.858Z</time>
		<geoidheight>242</geoidheight>
	</trkpt>
	<trkpt lat="50.721583" lon="6.159969">
		<ele>288</ele>
		<time>2011-09-11T08:25:19.868Z</time>
		<geoidheight>242</geoidheight>
	</trkpt>
	<trkpt lat="50.721591" lon="6.159988">
		<ele>288</ele>
		<time>2011-09-11T08:25:20.858Z</time>
		<geoidheight>242</geoidheight>
	</trkpt>
	<trkpt lat="50.721596" lon="6.160007">
		<ele>288</ele>
		<time>2011-09-11T08:25:21.858Z</time>
		<geoidheight>242</geoidheight>
	</trkpt>
	<trkpt lat="50.721605" lon="6.160021">
		<ele>288</ele>
		<time>2011-09-11T08:25:22.847Z</time>
		<geoidheight>242</geoidheight>
	</trkpt>
	<trkpt lat="50.721613" lon="6.160035">
		<ele>288</ele>
		<time>2011-09-11T08:25:23.851Z</time>
		<geoidheight>242</geoidheight>
	</trkpt>
	<trkpt lat="50.721623" lon="6.160047">
		<ele>288</ele>
		<time>2011-09-11T08:25:24.849Z</time>
		<geoidheight>242</geoidheight>
	</trkpt>
	<trkpt lat="50.721633" lon="6.160060">
		<ele>288</ele>
		<time>2011-09-11T08:25:25.851Z</time>
		<geoidheight>242</geoidheight>
	</trkpt>
	<trkpt lat="50.721642" lon="6.160077">
		<ele>288</ele>
		<time>2011-09-11T08:25:26.848Z</time>
		<geoidheight>242</geoidheight>
	</trkpt>
	<trkpt lat="50.721652" lon="6.160096">
		<ele>288</ele>
		<time>2011-09-11T08:25:27.850Z</time>
		<geoidheight>242</geoidheight>
	</trkpt>
	<trkpt lat="50.721661" lon="6.160118">
		<ele>288</ele>
		<time>2011-09-11T08:25:28.852Z</time>
		<geoidheight>242</geoidheight>
	</trkpt>
	<trkpt lat="50.721672" lon="6.160134">
		<ele>288</ele>
		<time>2011-09-11T08:25:29.850Z</time>
		<geoidheight>242</geoidheight>
	</trkpt>
	<trkpt lat="50.721683" lon="6.160146">
		<ele>288</ele>
		<time>2011-09-11T08:25:30.848Z</time>
		<geoidheight>242</geoidheight>
	</trkpt>
	<trkpt lat="50.721695" lon="6.160158">
		<ele>288</ele>
		<time>2011-09-11T08:25:31.851Z</time>
		<geoidheight>242</geoidheight>
	</trkpt>
	<trkpt lat="50.721702" lon="6.160177">
		<ele>288</ele>
		<time>2011-09-11T08:25:32.848Z</time>
		<geoidheight>242</geoidheight>
	</trkpt>
	<trkpt lat="50.721709" lon="6.160192">
		<ele>288</ele>
		<time>2011-09-11T08:25:33.849Z</time>
		<geoidheight>242</geoidheight>
	</trkpt>
	<trkpt lat="50.721718" lon="6.160209">
		<ele>288</ele>
		<time>2011-09-11T08:25:34.852Z</time>
		<geoidheight>242</geoidheight>
	</trkpt>
	<trkpt lat="50.721732" lon="6.160227">
		<ele>288</ele>
		<time>2011-09-11T08:25:35.849Z</time>
		<geoidheight>242</geoidheight>
	</trkpt>
	<trkpt lat="50.721745" lon="6.160243">
		<ele>288</ele>
		<time>2011-09-11T08:25:36.849Z</time>
		<geoidheight>242</geoidheight>
	</trkpt>
	<trkpt lat="50.721754" lon="6.160261">
		<ele>288</ele>
		<time>2011-09-11T08:25:37.850Z</time>
		<geoidheight>242</geoidheight>
	</trkpt>
	<trkpt lat="50.721763" lon="6.160277">
		<ele>288</ele>
		<time>2011-09-11T08:25:38.852Z</time>
		<geoidheight>242</geoidheight>
	</trkpt>
	<trkpt lat="50.721773" lon="6.160291">
		<ele>288</ele>
		<time>2011-09-11T08:25:39.851Z</time>
		<geoidheight>242</geoidheight>
	</trkpt>
	<trkpt lat="50.721783" lon="6.160305">
		<ele>288</ele>
		<time>2011-09-11T08:25:40.849Z</time>
		<geoidheight>242</geoidheight>
	</trkpt>
	<trkpt lat="50.721794" lon="6.160321">
		<ele>288</ele>
		<time>2011-09-11T08:25:41.852Z</time>
		<geoidheight>242</geoidheight>
	</trkpt>
	<trkpt lat="50.721808" lon="6.160331">
		<ele>288</ele>
		<time>2011-09-11T08:25:42.849Z</time>
		<geoidheight>242</geoidheight>
	</trkpt>
	<trkpt lat="50.721822" lon="6.160337">
		<ele>288</ele>
		<time>2011-09-11T08:25:43.849Z</time>
		<geoidheight>242</geoidheight>
	</trkpt>
	<trkpt lat="50.721838" lon="6.160341">
		<ele>288</ele>
		<time>2011-09-11T08:25:44.852Z</time>
		<geoidheight>242</geoidheight>
	</trkpt>
	<trkpt lat="50.721854" lon="6.160350">
		<ele>288</ele>
		<time>2011-09-11T08:25:45.854Z</time>
		<geoidheight>242</geoidheight>
	</trkpt>
	<trkpt lat="50.721872" lon="6.160359">
		<ele>288</ele>
		<time>2011-09-11T08:25:46.861Z</time>
		<geoidheight>242</geoidheight>
	</trkpt>
	<trkpt lat="50.721888" lon="6.160369">
		<ele>288</ele>
		<time>2011-09-11T08:25:47.854Z</time>
		<geoidheight>242</geoidheight>
	</trkpt>
	<trkpt lat="50.721903" lon="6.160378">
		<ele>288</ele>
		<time>2011-09-11T08:25:48.853Z</time>
		<geoidheight>242</geoidheight>
	</trkpt>
	<trkpt lat="50.721918" lon="6.160391">
		<ele>288</ele>
		<time>2011-09-11T08:25:49.852Z</time>
		<geoidheight>242</geoidheight>
	</trkpt>
	<trkpt lat="50.721933" lon="6.160400">
		<ele>288</ele>
		<time>2011-09-11T08:25:50.864Z</time>
		<geoidheight>242</geoidheight>
	</trkpt>
	<trkpt lat="50.721949" lon="6.160406">
		<ele>288</ele>
		<time>2011-09-11T08:25:51.862Z</time>
		<geoidheight>242</geoidheight>
	</trkpt>
	<trkpt lat="50.721964" lon="6.160413">
		<ele>288</ele>
		<time>2011-09-11T08:25:52.865Z</time>
		<geoidheight>242</geoidheight>
	</trkpt>
	<trkpt lat="50.721975" lon="6.160424">
		<ele>288</ele>
		<time>2011-09-11T08:25:53.867Z</time>
		<geoidheight>242</geoidheight>
	</trkpt>
	<trkpt lat="50.721984" lon="6.160435">
		<ele>288</ele>
		<time>2011-09-11T08:25:54.863Z</time>
		<geoidheight>242</geoidheight>
	</trkpt>
	<trkpt lat="50.721992" lon="6.160446">
		<ele>288</ele>
		<time>2011-09-11T08:25:55.861Z</time>
		<geoidheight>242</geoidheight>
	</trkpt>
	<trkpt lat="50.721997" lon="6.160465">
		<ele>288</ele>
		<time>2011-09-11T08:25:56.864Z</time>
		<geoidheight>242</geoidheight>
	</trkpt>
	<trkpt lat="50.722005" lon="6.160486">
		<ele>288</ele>
		<time>2011-09-11T08:25:57.856Z</time>
		<geoidheight>242</geoidheight>
	</trkpt>
	<trkpt lat="50.722018" lon="6.160509">
		<ele>288</ele>
		<time>2011-09-11T08:25:58.854Z</time>
		<geoidheight>242</geoidheight>
	</trkpt>
	<trkpt lat="50.722028" lon="6.160535">
		<ele>288</ele>
		<time>2011-09-11T08:25:59.860Z</time>
		<geoidheight>242</geoidheight>
	</trkpt>
	<trkpt lat="50.722039" lon="6.160560">
		<ele>288</ele>
		<time>2011-09-11T08:26:00.855Z</time>
		<geoidheight>242</geoidheight>
	</trkpt>
	<trkpt lat="50.722046" lon="6.160588">
		<ele>288</ele>
		<time>2011-09-11T08:26:01.847Z</time>
		<geoidheight>242</geoidheight>
	</trkpt>
	<trkpt lat="50.722053" lon="6.160616">
		<ele>288</ele>
		<time>2011-09-11T08:26:02.849Z</time>
		<geoidheight>242</geoidheight>
	</trkpt>
	<trkpt lat="50.722061" lon="6.160643">
		<ele>288</ele>
		<time>2011-09-11T08:26:03.849Z</time>
		<geoidheight>242</geoidheight>
	</trkpt>
	<trkpt lat="50.722065" lon="6.160669">
		<ele>288</ele>
		<time>2011-09-11T08:26:04.848Z</time>
		<geoidheight>242</geoidheight>
	</trkpt>
	<trkpt lat="50.722072" lon="6.160694">
		<ele>288</ele>
		<time>2011-09-11T08:26:05.858Z</time>
		<geoidheight>242</geoidheight>
	</trkpt>
	<trkpt lat="50.722078" lon="6.160717">
		<ele>288</ele>
		<time>2011-09-11T08:26:06.849Z</time>
		<geoidheight>242</geoidheight>
	</trkpt>
	<trkpt lat="50.722084" lon="6.160737">
		<ele>288</ele>
		<time>2011-09-11T08:26:07.849Z</time>
		<geoidheight>242</geoidheight>
	</trkpt>
	<trkpt lat="50.722099" lon="6.160746">
		<ele>287</ele>
		<time>2011-09-11T08:26:08.854Z</time>
		<geoidheight>241</geoidheight>
	</trkpt>
	<trkpt lat="50.722113" lon="6.160753">
		<ele>287</ele>
		<time>2011-09-11T08:26:09.847Z</time>
		<geoidheight>241</geoidheight>
	</trkpt>
	<trkpt lat="50.722126" lon="6.160761">
		<ele>287</ele>
		<time>2011-09-11T08:26:10.852Z</time>
		<geoidheight>241</geoidheight>
	</trkpt>
	<trkpt lat="50.722134" lon="6.160774">
		<ele>287</ele>
		<time>2011-09-11T08:26:11.850Z</time>
		<geoidheight>241</geoidheight>
	</trkpt>
	<trkpt lat="50.722140" lon="6.160788">
		<ele>287</ele>
		<time>2011-09-11T08:26:12.858Z</time>
		<geoidheight>241</geoidheight>
	</trkpt>
	<trkpt lat="50.722145" lon="6.160802">
		<ele>287</ele>
		<time>2011-09-11T08:26:13.850Z</time>
		<geoidheight>241</geoidheight>
	</trkpt>
	<trkpt lat="50.722157" lon="6.160813">
		<ele>287</ele>
		<time>2011-09-11T08:26:14.850Z</time>
		<geoidheight>241</geoidheight>
	</trkpt>
	<trkpt lat="50.722171" lon="6.160823">
		<ele>287</ele>
		<time>2011-09-11T08:26:15.849Z</time>
		<geoidheight>241</geoidheight>
	</trkpt>
	<trkpt lat="50.722182" lon="6.160829">
		<ele>287</ele>
		<time>2011-09-11T08:26:16.848Z</time>
		<geoidheight>241</geoidheight>
	</trkpt>
	<trkpt lat="50.722196" lon="6.160831">
		<ele>287</ele>
		<time>2011-09-11T08:26:17.851Z</time>
		<geoidheight>241</geoidheight>
	</trkpt>
	<trkpt lat="50.722211" lon="6.160833">
		<ele>287</ele>
		<time>2011-09-11T08:26:18.850Z</time>
		<geoidheight>241</geoidheight>
	</trkpt>
	<trkpt lat="50.722224" lon="6.160838">
		<ele>287</ele>
		<time>2011-09-11T08:26:19.849Z</time>
		<geoidheight>241</geoidheight>
	</trkpt>
	<trkpt lat="50.722240" lon="6.160845">
		<ele>287</ele>
		<time>2011-09-11T08:26:20.851Z</time>
		<geoidheight>241</geoidheight>
	</trkpt>
	<trkpt lat="50.722257" lon="6.160856">
		<ele>287</ele>
		<time>2011-09-11T08:26:21.849Z</time>
		<geoidheight>241</geoidheight>
	</trkpt>
	<trkpt lat="50.722272" lon="6.160873">
		<ele>287</ele>
		<time>2011-09-11T08:26:22.851Z</time>
		<geoidheight>241</geoidheight>
	</trkpt>
	<trkpt lat="50.722288" lon="6.160880">
		<ele>287</ele>
		<time>2011-09-11T08:26:23.851Z</time>
		<geoidheight>241</geoidheight>
	</trkpt>
	<trkpt lat="50.722302" lon="6.160887">
		<ele>287</ele>
		<time>2011-09-11T08:26:24.851Z</time>
		<geoidheight>241</geoidheight>
	</trkpt>
	<trkpt lat="50.722314" lon="6.160897">
		<ele>287</ele>
		<time>2011-09-11T08:26:25.849Z</time>
		<geoidheight>241</geoidheight>
	</trkpt>
	<trkpt lat="50.722324" lon="6.160906">
		<ele>287</ele>
		<time>2011-09-11T08:26:26.851Z</time>
		<geoidheight>241</geoidheight>
	</trkpt>
	<trkpt lat="50.722331" lon="6.160912">
		<ele>287</ele>
		<time>2011-09-11T08:26:27.848Z</time>
		<geoidheight>241</geoidheight>
	</trkpt>
	<trkpt lat="50.722338" lon="6.160916">
		<ele>287</ele>
		<time>2011-09-11T08:26:28.849Z</time>
		<geoidheight>241</geoidheight>
	</trkpt>
	<trkpt lat="50.722344" lon="6.160920">
		<ele>287</ele>
		<time>2011-09-11T08:26:29.848Z</time>
		<geoidheight>241</geoidheight>
	</trkpt>
	<trkpt lat="50.722351" lon="6.160927">
		<ele>287</ele>
		<time>2011-09-11T08:26:30.849Z</time>
		<geoidheight>241</geoidheight>
	</trkpt>
	<trkpt lat="50.722357" lon="6.160937">
		<ele>287</ele>
		<time>2011-09-11T08:26:31.849Z</time>
		<geoidheight>241</geoidheight>
	</trkpt>
	<trkpt lat="50.722362" lon="6.160948">
		<ele>287</ele>
		<time>2011-09-11T08:26:32.851Z</time>
		<geoidheight>241</geoidheight>
	</trkpt>
	<trkpt lat="50.722369" lon="6.160957">
		<ele>287</ele>
		<time>2011-09-11T08:26:33.849Z</time>
		<geoidheight>241</geoidheight>
	</trkpt>
	<trkpt lat="50.722373" lon="6.160967">
		<ele>287</ele>
		<time>2011-09-11T08:26:34.849Z</time>
		<geoidheight>241</geoidheight>
	</trkpt>
	<trkpt lat="50.722379" lon="6.160979">
		<ele>287</ele>
		<time>2011-09-11T08:26:35.849Z</time>
		<geoidheight>241</geoidheight>
	</trkpt>
	<trkpt lat="50.722387" lon="6.160993">
		<ele>287</ele>
		<time>2011-09-11T08:26:36.854Z</time>
		<geoidheight>241</geoidheight>
	</trkpt>
	<trkpt lat="50.722398" lon="6.161005">
		<ele>287</ele>
		<time>2011-09-11T08:26:37.865Z</time>
		<geoidheight>241</geoidheight>
	</trkpt>
	<trkpt lat="50.722411" lon="6.161016">
		<ele>287</ele>
		<time>2011-09-11T08:26:38.864Z</time>
		<geoidheight>241</geoidheight>
	</trkpt>
	<trkpt lat="50.722422" lon="6.161032">
		<ele>286</ele>
		<time>2011-09-11T08:26:39.866Z</time>
		<geoidheight>240</geoidheight>
	</trkpt>
	<trkpt lat="50.722432" lon="6.161047">
		<ele>286</ele>
		<time>2011-09-11T08:26:40.869Z</time>
		<geoidheight>240</geoidheight>
	</trkpt>
	<trkpt lat="50.722438" lon="6.161064">
		<ele>286</ele>
		<time>2011-09-11T08:26:41.860Z</time>
		<geoidheight>240</geoidheight>
	</trkpt>
	<trkpt lat="50.722447" lon="6.161080">
		<ele>286</ele>
		<time>2011-09-11T08:26:42.865Z</time>
		<geoidheight>240</geoidheight>
	</trkpt>
	<trkpt lat="50.722456" lon="6.161098">
		<ele>286</ele>
		<time>2011-09-11T08:26:43.850Z</time>
		<geoidheight>240</geoidheight>
	</trkpt>
	<trkpt lat="50.722463" lon="6.161116">
		<ele>286</ele>
		<time>2011-09-11T08:26:44.855Z</time>
		<geoidheight>240</geoidheight>
	</trkpt>
	<trkpt lat="50.722471" lon="6.161133">
		<ele>286</ele>
		<time>2011-09-11T08:26:45.856Z</time>
		<geoidheight>240</geoidheight>
	</trkpt>
	<trkpt lat="50.722483" lon="6.161151">
		<ele>286</ele>
		<time>2011-09-11T08:26:46.858Z</time>
		<geoidheight>240</geoidheight>
	</trkpt>
	<trkpt lat="50.722493" lon="6.161169">
		<ele>286</ele>
		<time>2011-09-11T08:26:47.849Z</time>
		<geoidheight>240</geoidheight>
	</trkpt>
	<trkpt lat="50.722503" lon="6.161188">
		<ele>286</ele>
		<time>2011-09-11T08:26:48.855Z</time>
		<geoidheight>240</geoidheight>
	</trkpt>
	<trkpt lat="50.722512" lon="6.161204">
		<ele>286</ele>
		<time>2011-09-11T08:26:49.857Z</time>
		<geoidheight>240</geoidheight>
	</trkpt>
	<trkpt lat="50.722522" lon="6.161222">
		<ele>286</ele>
		<time>2011-09-11T08:26:50.856Z</time>
		<geoidheight>240</geoidheight>
	</trkpt>
	<trkpt lat="50.722531" lon="6.161239">
		<ele>286</ele>
		<time>2011-09-11T08:26:51.859Z</time>
		<geoidheight>240</geoidheight>
	</trkpt>
	<trkpt lat="50.722539" lon="6.161255">
		<ele>286</ele>
		<time>2011-09-11T08:26:52.860Z</time>
		<geoidheight>240</geoidheight>
	</trkpt>
	<trkpt lat="50.722549" lon="6.161266">
		<ele>286</ele>
		<time>2011-09-11T08:26:53.851Z</time>
		<geoidheight>240</geoidheight>
	</trkpt>
	<trkpt lat="50.722557" lon="6.161277">
		<ele>285</ele>
		<time>2011-09-11T08:26:54.858Z</time>
		<geoidheight>239</geoidheight>
	</trkpt>
	<trkpt lat="50.722567" lon="6.161293">
		<ele>285</ele>
		<time>2011-09-11T08:26:55.853Z</time>
		<geoidheight>239</geoidheight>
	</trkpt>
	<trkpt lat="50.722577" lon="6.161314">
		<ele>285</ele>
		<time>2011-09-11T08:26:56.856Z</time>
		<geoidheight>239</geoidheight>
	</trkpt>
	<trkpt lat="50.722585" lon="6.161336">
		<ele>285</ele>
		<time>2011-09-11T08:26:57.860Z</time>
		<geoidheight>239</geoidheight>
	</trkpt>
	<trkpt lat="50.722595" lon="6.161355">
		<ele>285</ele>
		<time>2011-09-11T08:26:58.858Z</time>
		<geoidheight>239</geoidheight>
	</trkpt>
	<trkpt lat="50.722604" lon="6.161377">
		<ele>285</ele>
		<time>2011-09-11T08:26:59.849Z</time>
		<geoidheight>239</geoidheight>
	</trkpt>
	<trkpt lat="50.722612" lon="6.161397">
		<ele>285</ele>
		<time>2011-09-11T08:27:00.851Z</time>
		<geoidheight>239</geoidheight>
	</trkpt>
	<trkpt lat="50.722626" lon="6.161412">
		<ele>285</ele>
		<time>2011-09-11T08:27:01.849Z</time>
		<geoidheight>239</geoidheight>
	</trkpt>
	<trkpt lat="50.722638" lon="6.161426">
		<ele>285</ele>
		<time>2011-09-11T08:27:02.856Z</time>
		<geoidheight>239</geoidheight>
	</trkpt>
	<trkpt lat="50.722647" lon="6.161442">
		<ele>285</ele>
		<time>2011-09-11T08:27:03.858Z</time>
		<geoidheight>239</geoidheight>
	</trkpt>
	<trkpt lat="50.722656" lon="6.161454">
		<ele>285</ele>
		<time>2011-09-11T08:27:04.850Z</time>
		<geoidheight>239</geoidheight>
	</trkpt>
	<trkpt lat="50.722662" lon="6.161470">
		<ele>285</ele>
		<time>2011-09-11T08:27:05.869Z</time>
		<geoidheight>239</geoidheight>
	</trkpt>
	<trkpt lat="50.722671" lon="6.161485">
		<ele>285</ele>
		<time>2011-09-11T08:27:06.868Z</time>
		<geoidheight>239</geoidheight>
	</trkpt>
	<trkpt lat="50.722680" lon="6.161500">
		<ele>285</ele>
		<time>2011-09-11T08:27:07.864Z</time>
		<geoidheight>239</geoidheight>
	</trkpt>
	<trkpt lat="50.722690" lon="6.161515">
		<ele>285</ele>
		<time>2011-09-11T08:27:08.870Z</time>
		<geoidheight>239</geoidheight>
	</trkpt>
	<trkpt lat="50.722696" lon="6.161532">
		<ele>285</ele>
		<time>2011-09-11T08:27:09.870Z</time>
		<geoidheight>239</geoidheight>
	</trkpt>
	<trkpt lat="50.722704" lon="6.161556">
		<ele>285</ele>
		<time>2011-09-11T08:27:10.866Z</time>
		<geoidheight>239</geoidheight>
	</trkpt>
	<trkpt lat="50.722711" lon="6.161584">
		<ele>285</ele>
		<time>2011-09-11T08:27:11.879Z</time>
		<geoidheight>239</geoidheight>
	</trkpt>
	<trkpt lat="50.722719" lon="6.161607">
		<ele>285</ele>
		<time>2011-09-11T08:27:12.873Z</time>
		<geoidheight>239</geoidheight>
	</trkpt>
	<trkpt lat="50.722727" lon="6.161629">
		<ele>285</ele>
		<time>2011-09-11T08:27:13.860Z</time>
		<geoidheight>239</geoidheight>
	</trkpt>
	<trkpt lat="50.722737" lon="6.161650">
		<ele>285</ele>
		<time>2011-09-11T08:27:14.852Z</time>
		<geoidheight>239</geoidheight>
	</trkpt>
	<trkpt lat="50.722749" lon="6.161669">
		<ele>285</ele>
		<time>2011-09-11T08:27:15.857Z</time>
		<geoidheight>239</geoidheight>
	</trkpt>
	<trkpt lat="50.722761" lon="6.161687">
		<ele>285</ele>
		<time>2011-09-11T08:27:16.868Z</time>
		<geoidheight>239</geoidheight>
	</trkpt>
	<trkpt lat="50.722776" lon="6.161705">
		<ele>285</ele>
		<time>2011-09-11T08:27:17.865Z</time>
		<geoidheight>239</geoidheight>
	</trkpt>
	<trkpt lat="50.722785" lon="6.161726">
		<ele>285</ele>
		<time>2011-09-11T08:27:18.871Z</time>
		<geoidheight>239</geoidheight>
	</trkpt>
	<trkpt lat="50.722792" lon="6.161750">
		<ele>285</ele>
		<time>2011-09-11T08:27:19.868Z</time>
		<geoidheight>239</geoidheight>
	</trkpt>
	<trkpt lat="50.722801" lon="6.161770">
		<ele>285</ele>
		<time>2011-09-11T08:27:20.869Z</time>
		<geoidheight>239</geoidheight>
	</trkpt>
	<trkpt lat="50.722812" lon="6.161788">
		<ele>285</ele>
		<time>2011-09-11T08:27:21.870Z</time>
		<geoidheight>239</geoidheight>
	</trkpt>
	<trkpt lat="50.722821" lon="6.161807">
		<ele>285</ele>
		<time>2011-09-11T08:27:22.869Z</time>
		<geoidheight>239</geoidheight>
	</trkpt>
	<trkpt lat="50.722825" lon="6.161830">
		<ele>285</ele>
		<time>2011-09-11T08:27:23.860Z</time>
		<geoidheight>239</geoidheight>
	</trkpt>
	<trkpt lat="50.722834" lon="6.161852">
		<ele>285</ele>
		<time>2011-09-11T08:27:24.871Z</time>
		<geoidheight>239</geoidheight>
	</trkpt>
	<trkpt lat="50.722846" lon="6.161866">
		<ele>285</ele>
		<time>2011-09-11T08:27:25.870Z</time>
		<geoidheight>239</geoidheight>
	</trkpt>
	<trkpt lat="50.722855" lon="6.161884">
		<ele>285</ele>
		<time>2011-09-11T08:27:26.877Z</time>
		<geoidheight>239</geoidheight>
	</trkpt>
	<trkpt lat="50.722862" lon="6.161901">
		<ele>285</ele>
		<time>2011-09-11T08:27:27.861Z</time>
		<geoidheight>239</geoidheight>
	</trkpt>
	<trkpt lat="50.722867" lon="6.161921">
		<ele>285</ele>
		<time>2011-09-11T08:27:28.868Z</time>
		<geoidheight>239</geoidheight>
	</trkpt>
	<trkpt lat="50.722871" lon="6.161941">
		<ele>285</ele>
		<time>2011-09-11T08:27:29.865Z</time>
		<geoidheight>239</geoidheight>
	</trkpt>
	<trkpt lat="50.722878" lon="6.161956">
		<ele>285</ele>
		<time>2011-09-11T08:27:30.861Z</time>
		<geoidheight>239</geoidheight>
	</trkpt>
	<trkpt lat="50.722882" lon="6.161973">
		<ele>285</ele>
		<time>2011-09-11T08:27:31.858Z</time>
		<geoidheight>239</geoidheight>
	</trkpt>
	<trkpt lat="50.722887" lon="6.161988">
		<ele>285</ele>
		<time>2011-09-11T08:27:32.855Z</time>
		<geoidheight>239</geoidheight>
	</trkpt>
	<trkpt lat="50.722892" lon="6.162004">
		<ele>285</ele>
		<time>2011-09-11T08:27:33.851Z</time>
		<geoidheight>239</geoidheight>
	</trkpt>
	<trkpt lat="50.722897" lon="6.162019">
		<ele>285</ele>
		<time>2011-09-11T08:27:34.857Z</time>
		<geoidheight>239</geoidheight>
	</trkpt>
	<trkpt lat="50.722906" lon="6.162032">
		<ele>285</ele>
		<time>2011-09-11T08:27:35.855Z</time>
		<geoidheight>239</geoidheight>
	</trkpt>
	<trkpt lat="50.722912" lon="6.162045">
		<ele>285</ele>
		<time>2011-09-11T08:27:36.857Z</time>
		<geoidheight>239</geoidheight>
	</trkpt>
	<trkpt lat="50.722918" lon="6.162056">
		<ele>285</ele>
		<time>2011-09-11T08:27:37.855Z</time>
		<geoidheight>239</geoidheight>
	</trkpt>
	<trkpt lat="50.722925" lon="6.162071">
		<ele>285</ele>
		<time>2011-09-11T08:27:38.855Z</time>
		<geoidheight>239</geoidheight>
	</trkpt>
	<trkpt lat="50.722935" lon="6.162082">
		<ele>285</ele>
		<time>2011-09-11T08:27:39.865Z</time>
		<geoidheight>239</geoidheight>
	</trkpt>
	<trkpt lat="50.722941" lon="6.162097">
		<ele>285</ele>
		<time>2011-09-11T08:27:40.856Z</time>
		<geoidheight>239</geoidheight>
	</trkpt>
	<trkpt lat="50.722950" lon="6.162114">
		<ele>285</ele>
		<time>2011-09-11T08:27:41.854Z</time>
		<geoidheight>239</geoidheight>
	</trkpt>
	<trkpt lat="50.722959" lon="6.162134">
		<ele>285</ele>
		<time>2011-09-11T08:27:42.860Z</time>
		<geoidheight>239</geoidheight>
	</trkpt>
	<trkpt lat="50.722970" lon="6.162154">
		<ele>285</ele>
		<time>2011-09-11T08:27:43.861Z</time>
		<geoidheight>239</geoidheight>
	</trkpt>
	<trkpt lat="50.722980" lon="6.162177">
		<ele>285</ele>
		<time>2011-09-11T08:27:44.872Z</time>
		<geoidheight>239</geoidheight>
	</trkpt>
	<trkpt lat="50.722987" lon="6.162199">
		<ele>285</ele>
		<time>2011-09-11T08:27:45.866Z</time>
		<geoidheight>239</geoidheight>
	</trkpt>
	<trkpt lat="50.722996" lon="6.162220">
		<ele>285</ele>
		<time>2011-09-11T08:27:46.875Z</time>
		<geoidheight>239</geoidheight>
	</trkpt>
	<trkpt lat="50.723003" lon="6.162240">
		<ele>285</ele>
		<time>2011-09-11T08:27:47.863Z</time>
		<geoidheight>239</geoidheight>
	</trkpt>
	<trkpt lat="50.723011" lon="6.162260">
		<ele>285</ele>
		<time>2011-09-11T08:27:48.873Z</time>
		<geoidheight>239</geoidheight>
	</trkpt>
	<trkpt lat="50.723013" lon="6.162280">
		<ele>285</ele>
		<time>2011-09-11T08:27:49.862Z</time>
		<geoidheight>239</geoidheight>
	</trkpt>
	<trkpt lat="50.723016" lon="6.162297">
		<ele>285</ele>
		<time>2011-09-11T08:27:50.865Z</time>
		<geoidheight>239</geoidheight>
	</trkpt>
	<trkpt lat="50.723019" lon="6.162314">
		<ele>284</ele>
		<time>2011-09-11T08:27:51.869Z</time>
		<geoidheight>238</geoidheight>
	</trkpt>
	<trkpt lat="50.723025" lon="6.162328">
		<ele>284</ele>
		<time>2011-09-11T08:27:52.866Z</time>
		<geoidheight>238</geoidheight>
	</trkpt>
	<trkpt lat="50.723030" lon="6.162344">
		<ele>284</ele>
		<time>2011-09-11T08:27:53.869Z</time>
		<geoidheight>238</geoidheight>
	</trkpt>
	<trkpt lat="50.723038" lon="6.162357">
		<ele>284</ele>
		<time>2011-09-11T08:27:54.864Z</time>
		<geoidheight>238</geoidheight>
	</trkpt>
	<trkpt lat="50.723044" lon="6.162370">
		<ele>284</ele>
		<time>2011-09-11T08:27:55.869Z</time>
		<geoidheight>238</geoidheight>
	</trkpt>
	<trkpt lat="50.723053" lon="6.162381">
		<ele>284</ele>
		<time>2011-09-11T08:27:56.868Z</time>
		<geoidheight>238</geoidheight>
	</trkpt>
	<trkpt lat="50.723060" lon="6.162393">
		<ele>284</ele>
		<time>2011-09-11T08:27:57.867Z</time>
		<geoidheight>238</geoidheight>
	</trkpt>
	<trkpt lat="50.723065" lon="6.162409">
		<ele>284</ele>
		<time>2011-09-11T08:27:58.866Z</time>
		<geoidheight>238</geoidheight>
	</trkpt>
	<trkpt lat="50.723070" lon="6.162425">
		<ele>284</ele>
		<time>2011-09-11T08:27:59.872Z</time>
		<geoidheight>238</geoidheight>
	</trkpt>
	<trkpt lat="50.723075" lon="6.162442">
		<ele>284</ele>
		<time>2011-09-11T08:28:00.872Z</time>
		<geoidheight>238</geoidheight>
	</trkpt>
	<trkpt lat="50.723078" lon="6.162461">
		<ele>284</ele>
		<time>2011-09-11T08:28:01.871Z</time>
		<geoidheight>238</geoidheight>
	</trkpt>
	<trkpt lat="50.723081" lon="6.162478">
		<ele>284</ele>
		<time>2011-09-11T08:28:02.865Z</time>
		<geoidheight>238</geoidheight>
	</trkpt>
	<trkpt lat="50.723084" lon="6.162494">
		<ele>284</ele>
		<time>2011-09-11T08:28:03.877Z</time>
		<geoidheight>238</geoidheight>
	</trkpt>
	<trkpt lat="50.723091" lon="6.162506">
		<ele>284</ele>
		<time>2011-09-11T08:28:04.865Z</time>
		<geoidheight>238</geoidheight>
	</trkpt>
	<trkpt lat="50.723098" lon="6.162518">
		<ele>284</ele>
		<time>2011-09-11T08:28:05.872Z</time>
		<geoidheight>238</geoidheight>
	</trkpt>
	<trkpt lat="50.723102" lon="6.162532">
		<ele>284</ele>
		<time>2011-09-11T08:28:06.873Z</time>
		<geoidheight>238</geoidheight>
	</trkpt>
	<trkpt lat="50.723108" lon="6.162542">
		<ele>284</ele>
		<time>2011-09-11T08:28:07.868Z</time>
		<geoidheight>238</geoidheight>
	</trkpt>
	<trkpt lat="50.723112" lon="6.162557">
		<ele>284</ele>
		<time>2011-09-11T08:28:08.880Z</time>
		<geoidheight>238</geoidheight>
	</trkpt>
	<trkpt lat="50.723116" lon="6.162571">
		<ele>283</ele>
		<time>2011-09-11T08:28:09.878Z</time>
		<geoidheight>237</geoidheight>
	</trkpt>
	<trkpt lat="50.723117" lon="6.162588">
		<ele>283</ele>
		<time>2011-09-11T08:28:10.875Z</time>
		<geoidheight>237</geoidheight>
	</trkpt>
	<trkpt lat="50.723120" lon="6.162605">
		<ele>283</ele>
		<time>2011-09-11T08:28:11.879Z</time>
		<geoidheight>237</geoidheight>
	</trkpt>
	<trkpt lat="50.723120" lon="6.162624">
		<ele>283</ele>
		<time>2011-09-11T08:28:12.866Z</time>
		<geoidheight>237</geoidheight>
	</trkpt>
	<trkpt lat="50.723121" lon="6.162643">
		<ele>283</ele>
		<time>2011-09-11T08:28:13.877Z</time>
		<geoidheight>237</geoidheight>
	</trkpt>
	<trkpt lat="50.723125" lon="6.162662">
		<ele>283</ele>
		<time>2011-09-11T08:28:14.868Z</time>
		<geoidheight>237</geoidheight>
	</trkpt>
	<trkpt lat="50.723129" lon="6.162681">
		<ele>283</ele>
		<time>2011-09-11T08:28:15.869Z</time>
		<geoidheight>237</geoidheight>
	</trkpt>
	<trkpt lat="50.723133" lon="6.162699">
		<ele>283</ele>
		<time>2011-09-11T08:28:16.864Z</time>
		<geoidheight>237</geoidheight>
	</trkpt>
	<trkpt lat="50.723136" lon="6.162717">
		<ele>283</ele>
		<time>2011-09-11T08:28:17.868Z</time>
		<geoidheight>237</geoidheight>
	</trkpt>
	<trkpt lat="50.723143" lon="6.162732">
		<ele>283</ele>
		<time>2011-09-11T08:28:18.864Z</time>
		<geoidheight>237</geoidheight>
	</trkpt>
	<trkpt lat="50.723150" lon="6.162745">
		<ele>283</ele>
		<time>2011-09-11T08:28:19.872Z</time>
		<geoidheight>237</geoidheight>
	</trkpt>
	<trkpt lat="50.723159" lon="6.162756">
		<ele>283</ele>
		<time>2011-09-11T08:28:20.871Z</time>
		<geoidheight>237</geoidheight>
	</trkpt>
	<trkpt lat="50.723169" lon="6.162779">
		<ele>283</ele>
		<time>2011-09-11T08:28:21.864Z</time>
		<geoidheight>237</geoidheight>
	</trkpt>
	<trkpt lat="50.723174" lon="6.162804">
		<ele>283</ele>
		<time>2011-09-11T08:28:22.865Z</time>
		<geoidheight>237</geoidheight>
	</trkpt>
	<trkpt lat="50.723186" lon="6.162837">
		<ele>283</ele>
		<time>2011-09-11T08:28:23.869Z</time>
		<geoidheight>237</geoidheight>
	</trkpt>
	<trkpt lat="50.723200" lon="6.162868">
		<ele>283</ele>
		<time>2011-09-11T08:28:24.867Z</time>
		<geoidheight>237</geoidheight>
	</trkpt>
	<trkpt lat="50.723214" lon="6.162904">
		<ele>283</ele>
		<time>2011-09-11T08:28:25.866Z</time>
		<geoidheight>237</geoidheight>
	</trkpt>
	<trkpt lat="50.723223" lon="6.162935">
		<ele>283</ele>
		<time>2011-09-11T08:28:26.872Z</time>
		<geoidheight>237</geoidheight>
	</trkpt>
	<trkpt lat="50.723234" lon="6.162959">
		<ele>283</ele>
		<time>2011-09-11T08:28:27.867Z</time>
		<geoidheight>237</geoidheight>
	</trkpt>
	<trkpt lat="50.723238" lon="6.162989">
		<ele>283</ele>
		<time>2011-09-11T08:28:28.871Z</time>
		<geoidheight>237</geoidheight>
	</trkpt>
	<trkpt lat="50.723244" lon="6.163015">
		<ele>283</ele>
		<time>2011-09-11T08:28:29.869Z</time>
		<geoidheight>237</geoidheight>
	</trkpt>
	<trkpt lat="50.723251" lon="6.163036">
		<ele>282</ele>
		<time>2011-09-11T08:28:30.870Z</time>
		<geoidheight>236</geoidheight>
	</trkpt>
	<trkpt lat="50.723259" lon="6.163059">
		<ele>282</ele>
		<time>2011-09-11T08:28:31.867Z</time>
		<geoidheight>236</geoidheight>
	</trkpt>
	<trkpt lat="50.723268" lon="6.163082">
		<ele>282</ele>
		<time>2011-09-11T08:28:32.864Z</time>
		<geoidheight>236</geoidheight>
	</trkpt>
	<trkpt lat="50.723278" lon="6.163106">
		<ele>282</ele>
		<time>2011-09-11T08:28:33.867Z</time>
		<geoidheight>236</geoidheight>
	</trkpt>
	<trkpt lat="50.723284" lon="6.163133">
		<ele>282</ele>
		<time>2011-09-11T08:28:34.867Z</time>
		<geoidheight>236</geoidheight>
	</trkpt>
	<trkpt lat="50.723291" lon="6.163158">
		<ele>282</ele>
		<time>2011-09-11T08:28:35.872Z</time>
		<geoidheight>236</geoidheight>
	</trkpt>
	<trkpt lat="50.723299" lon="6.163180">
		<ele>282</ele>
		<time>2011-09-11T08:28:36.866Z</time>
		<geoidheight>236</geoidheight>
	</trkpt>
	<trkpt lat="50.723305" lon="6.163203">
		<ele>282</ele>
		<time>2011-09-11T08:28:37.865Z</time>
		<geoidheight>236</geoidheight>
	</trkpt>
	<trkpt lat="50.723314" lon="6.163224">
		<ele>282</ele>
		<time>2011-09-11T08:28:38.867Z</time>
		<geoidheight>236</geoidheight>
	</trkpt>
	<trkpt lat="50.723322" lon="6.163243">
		<ele>282</ele>
		<time>2011-09-11T08:28:39.869Z</time>
		<geoidheight>236</geoidheight>
	</trkpt>
	<trkpt lat="50.723325" lon="6.163265">
		<ele>282</ele>
		<time>2011-09-11T08:28:40.864Z</time>
		<geoidheight>236</geoidheight>
	</trkpt>
	<trkpt lat="50.723331" lon="6.163285">
		<ele>282</ele>
		<time>2011-09-11T08:28:41.870Z</time>
		<geoidheight>236</geoidheight>
	</trkpt>
	<trkpt lat="50.723332" lon="6.163306">
		<ele>281</ele>
		<time>2011-09-11T08:28:42.871Z</time>
		<geoidheight>235</geoidheight>
	</trkpt>
	<trkpt lat="50.723332" lon="6.163326">
		<ele>281</ele>
		<time>2011-09-11T08:28:43.867Z</time>
		<geoidheight>235</geoidheight>
	</trkpt>
	<trkpt lat="50.723332" lon="6.163346">
		<ele>281</ele>
		<time>2011-09-11T08:28:44.879Z</time>
		<geoidheight>235</geoidheight>
	</trkpt>
	<trkpt lat="50.723335" lon="6.163365">
		<ele>281</ele>
		<time>2011-09-11T08:28:45.876Z</time>
		<geoidheight>235</geoidheight>
	</trkpt>
	<trkpt lat="50.723339" lon="6.163383">
		<ele>281</ele>
		<time>2011-09-11T08:28:46.883Z</time>
		<geoidheight>235</geoidheight>
	</trkpt>
	<trkpt lat="50.723341" lon="6.163399">
		<ele>281</ele>
		<time>2011-09-11T08:28:47.881Z</time>
		<geoidheight>235</geoidheight>
	</trkpt>
	<trkpt lat="50.723347" lon="6.163412">
		<ele>281</ele>
		<time>2011-09-11T08:28:48.866Z</time>
		<geoidheight>235</geoidheight>
	</trkpt>
	<trkpt lat="50.723352" lon="6.163426">
		<ele>281</ele>
		<time>2011-09-11T08:28:49.869Z</time>
		<geoidheight>235</geoidheight>
	</trkpt>
	<trkpt lat="50.723360" lon="6.163439">
		<ele>281</ele>
		<time>2011-09-11T08:28:50.865Z</time>
		<geoidheight>235</geoidheight>
	</trkpt>
	<trkpt lat="50.723370" lon="6.163453">
		<ele>281</ele>
		<time>2011-09-11T08:28:51.860Z</time>
		<geoidheight>235</geoidheight>
	</trkpt>
	<trkpt lat="50.723379" lon="6.163469">
		<ele>281</ele>
		<time>2011-09-11T08:28:52.858Z</time>
		<geoidheight>235</geoidheight>
	</trkpt>
	<trkpt lat="50.723389" lon="6.163486">
		<ele>281</ele>
		<time>2011-09-11T08:28:53.861Z</time>
		<geoidheight>235</geoidheight>
	</trkpt>
	<trkpt lat="50.723401" lon="6.163497">
		<ele>281</ele>
		<time>2011-09-11T08:28:54.853Z</time>
		<geoidheight>235</geoidheight>
	</trkpt>
	<trkpt lat="50.723411" lon="6.163512">
		<ele>280</ele>
		<time>2011-09-11T08:28:55.855Z</time>
		<geoidheight>234</geoidheight>
	</trkpt>
	<trkpt lat="50.723421" lon="6.163531">
		<ele>280</ele>
		<time>2011-09-11T08:28:56.851Z</time>
		<geoidheight>234</geoidheight>
	</trkpt>
	<trkpt lat="50.723431" lon="6.163549">
		<ele>280</ele>
		<time>2011-09-11T08:28:57.860Z</time>
		<geoidheight>234</geoidheight>
	</trkpt>
	<trkpt lat="50.723443" lon="6.163563">
		<ele>280</ele>
		<time>2011-09-11T08:28:58.856Z</time>
		<geoidheight>234</geoidheight>
	</trkpt>
	<trkpt lat="50.723456" lon="6.163577">
		<ele>280</ele>
		<time>2011-09-11T08:28:59.856Z</time>
		<geoidheight>234</geoidheight>
	</trkpt>
	<trkpt lat="50.723465" lon="6.163599">
		<ele>280</ele>
		<time>2011-09-11T08:29:00.858Z</time>
		<geoidheight>234</geoidheight>
	</trkpt>
	<trkpt lat="50.723472" lon="6.163620">
		<ele>280</ele>
		<time>2011-09-11T08:29:01.856Z</time>
		<geoidheight>234</geoidheight>
	</trkpt>
	<trkpt lat="50.723480" lon="6.163641">
		<ele>280</ele>
		<time>2011-09-11T08:29:02.857Z</time>
		<geoidheight>234</geoidheight>
	</trkpt>
	<trkpt lat="50.723487" lon="6.163661">
		<ele>280</ele>
		<time>2011-09-11T08:29:03.856Z</time>
		<geoidheight>234</geoidheight>
	</trkpt>
	<trkpt lat="50.723496" lon="6.163678">
		<ele>280</ele>
		<time>2011-09-11T08:29:04.856Z</time>
		<geoidheight>234</geoidheight>
	</trkpt>
	<trkpt lat="50.723502" lon="6.163697">
		<ele>280</ele>
		<time>2011-09-11T08:29:05.854Z</time>
		<geoidheight>234</geoidheight>
	</trkpt>
	<trkpt lat="50.723504" lon="6.163720">
		<ele>279</ele>
		<time>2011-09-11T08:29:06.859Z</time>
		<geoidheight>233</geoidheight>
	</trkpt>
	<trkpt lat="50.723508" lon="6.163744">
		<ele>279</ele>
		<time>2011-09-11T08:29:07.861Z</time>
		<geoidheight>233</geoidheight>
	</trkpt>
	<trkpt lat="50.723513" lon="6.163765">
		<ele>279</ele>
		<time>2011-09-11T08:29:08.873Z</time>
		<geoidheight>233</geoidheight>
	</trkpt>
	<trkpt lat="50.723521" lon="6.163787">
		<ele>279</ele>
		<time>2011-09-11T08:29:09.867Z</time>
		<geoidheight>233</geoidheight>
	</trkpt>
	<trkpt lat="50.723526" lon="6.163810">
		<ele>279</ele>
		<time>2011-09-11T08:29:10.874Z</time>
		<geoidheight>233</geoidheight>
	</trkpt>
	<trkpt lat="50.723530" lon="6.163831">
		<ele>279</ele>
		<time>2011-09-11T08:29:11.870Z</time>
		<geoidheight>233</geoidheight>
	</trkpt>
	<trkpt lat="50.723539" lon="6.163849">
		<ele>279</ele>
		<time>2011-09-11T08:29:12.867Z</time>
		<geoidheight>233</geoidheight>
	</trkpt>
	<trkpt lat="50.723547" lon="6.163865">
		<ele>278</ele>
		<time>2011-09-11T08:29:13.869Z</time>
		<geoidheight>232</geoidheight>
	</trkpt>
	<trkpt lat="50.723556" lon="6.163878">
		<ele>278</ele>
		<time>2011-09-11T08:29:14.857Z</time>
		<geoidheight>232</geoidheight>
	</trkpt>
	<trkpt lat="50.723565" lon="6.163889">
		<ele>278</ele>
		<time>2011-09-11T08:29:15.852Z</time>
		<geoidheight>232</geoidheight>
	</trkpt>
	<trkpt lat="50.723575" lon="6.163901">
		<ele>278</ele>
		<time>2011-09-11T08:29:16.858Z</time>
		<geoidheight>232</geoidheight>
	</trkpt>
	<trkpt lat="50.723584" lon="6.163915">
		<ele>278</ele>
		<time>2011-09-11T08:29:17.859Z</time>
		<geoidheight>232</geoidheight>
	</trkpt>
	<trkpt lat="50.723591" lon="6.163932">
		<ele>278</ele>
		<time>2011-09-11T08:29:18.857Z</time>
		<geoidheight>232</geoidheight>
	</trkpt>
	<trkpt lat="50.723596" lon="6.163953">
		<ele>278</ele>
		<time>2011-09-11T08:29:19.859Z</time>
		<geoidheight>232</geoidheight>
	</trkpt>
	<trkpt lat="50.723600" lon="6.163972">
		<ele>277</ele>
		<time>2011-09-11T08:29:20.860Z</time>
		<geoidheight>231</geoidheight>
	</trkpt>
	<trkpt lat="50.723608" lon="6.163988">
		<ele>277</ele>
		<time>2011-09-11T08:29:21.879Z</time>
		<geoidheight>231</geoidheight>
	</trkpt>
	<trkpt lat="50.723618" lon="6.164000">
		<ele>277</ele>
		<time>2011-09-11T08:29:22.874Z</time>
		<geoidheight>231</geoidheight>
	</trkpt>
	<trkpt lat="50.723626" lon="6.164015">
		<ele>277</ele>
		<time>2011-09-11T08:29:23.871Z</time>
		<geoidheight>231</geoidheight>
	</trkpt>
	<trkpt lat="50.723634" lon="6.164031">
		<ele>277</ele>
		<time>2011-09-11T08:29:24.869Z</time>
		<geoidheight>231</geoidheight>
	</trkpt>
	<trkpt lat="50.723644" lon="6.164044">
		<ele>277</ele>
		<time>2011-09-11T08:29:25.867Z</time>
		<geoidheight>231</geoidheight>
	</trkpt>
	<trkpt lat="50.723652" lon="6.164058">
		<ele>277</ele>
		<time>2011-09-11T08:29:26.865Z</time>
		<geoidheight>231</geoidheight>
	</trkpt>
	<trkpt lat="50.723658" lon="6.164078">
		<ele>277</ele>
		<time>2011-09-11T08:29:27.860Z</time>
		<geoidheight>231</geoidheight>
	</trkpt>
	<trkpt lat="50.723654" lon="6.164105">
		<ele>277</ele>
		<time>2011-09-11T08:29:28.869Z</time>
		<geoidheight>231</geoidheight>
	</trkpt>
	<trkpt lat="50.723649" lon="6.164136">
		<ele>277</ele>
		<time>2011-09-11T08:29:29.866Z</time>
		<geoidheight>231</geoidheight>
	</trkpt>
	<trkpt lat="50.723644" lon="6.164166">
		<ele>276</ele>
		<time>2011-09-11T08:29:30.866Z</time>
		<geoidheight>230</geoidheight>
	</trkpt>
	<trkpt lat="50.723641" lon="6.164193">
		<ele>276</ele>
		<time>2011-09-11T08:29:31.874Z</time>
		<geoidheight>230</geoidheight>
	</trkpt>
	<trkpt lat="50.723638" lon="6.164218">
		<ele>276</ele>
		<time>2011-09-11T08:29:32.870Z</time>
		<geoidheight>230</geoidheight>
	</trkpt>
	<trkpt lat="50.723641" lon="6.164240">
		<ele>276</ele>
		<time>2011-09-11T08:29:33.872Z</time>
		<geoidheight>230</geoidheight>
	</trkpt>
	<trkpt lat="50.723645" lon="6.164262">
		<ele>276</ele>
		<time>2011-09-11T08:29:34.869Z</time>
		<geoidheight>230</geoidheight>
	</trkpt>
	<trkpt lat="50.723650" lon="6.164281">
		<ele>276</ele>
		<time>2011-09-11T08:29:35.872Z</time>
		<geoidheight>230</geoidheight>
	</trkpt>
	<trkpt lat="50.723657" lon="6.164295">
		<ele>276</ele>
		<time>2011-09-11T08:29:36.867Z</time>
		<geoidheight>230</geoidheight>
	</trkpt>
	<trkpt lat="50.723662" lon="6.164315">
		<ele>276</ele>
		<time>2011-09-11T08:29:37.862Z</time>
		<geoidheight>230</geoidheight>
	</trkpt>
	<trkpt lat="50.723668" lon="6.164332">
		<ele>276</ele>
		<time>2011-09-11T08:29:38.866Z</time>
		<geoidheight>230</geoidheight>
	</trkpt>
	<trkpt lat="50.723672" lon="6.164353">
		<ele>276</ele>
		<time>2011-09-11T08:29:39.868Z</time>
		<geoidheight>230</geoidheight>
	</trkpt>
	<trkpt lat="50.723677" lon="6.164372">
		<ele>275</ele>
		<time>2011-09-11T08:29:40.868Z</time>
		<geoidheight>229</geoidheight>
	</trkpt>
	<trkpt lat="50.723679" lon="6.164392">
		<ele>275</ele>
		<time>2011-09-11T08:29:41.870Z</time>
		<geoidheight>229</geoidheight>
	</trkpt>
	<trkpt lat="50.723684" lon="6.164411">
		<ele>275</ele>
		<time>2011-09-11T08:29:42.871Z</time>
		<geoidheight>229</geoidheight>
	</trkpt>
	<trkpt lat="50.723694" lon="6.164425">
		<ele>275</ele>
		<time>2011-09-11T08:29:43.868Z</time>
		<geoidheight>229</geoidheight>
	</trkpt>
	<trkpt lat="50.723703" lon="6.164441">
		<ele>275</ele>
		<time>2011-09-11T08:29:44.869Z</time>
		<geoidheight>229</geoidheight>
	</trkpt>
	<trkpt lat="50.723710" lon="6.164461">
		<ele>275</ele>
		<time>2011-09-11T08:29:45.870Z</time>
		<geoidheight>229</geoidheight>
	</trkpt>
	<trkpt lat="50.723715" lon="6.164481">
		<ele>275</ele>
		<time>2011-09-11T08:29:46.871Z</time>
		<geoidheight>229</geoidheight>
	</trkpt>
	<trkpt lat="50.723722" lon="6.164499">
		<ele>275</ele>
		<time>2011-09-11T08:29:47.872Z</time>
		<geoidheight>229</geoidheight>
	</trkpt>
	<trkpt lat="50.723726" lon="6.164520">
		<ele>275</ele>
		<time>2011-09-11T08:29:48.869Z</time>
		<geoidheight>229</geoidheight>
	</trkpt>
	<trkpt lat="50.723731" lon="6.164541">
		<ele>275</ele>
		<time>2011-09-11T08:29:49.868Z</time>
		<geoidheight>229</geoidheight>
	</trkpt>
	<trkpt lat="50.723738" lon="6.164560">
		<ele>275</ele>
		<time>2011-09-11T08:29:50.870Z</time>
		<geoidheight>229</geoidheight>
	</trkpt>
	<trkpt lat="50.723745" lon="6.164577">
		<ele>275</ele>
		<time>2011-09-11T08:29:51.872Z</time>
		<geoidheight>229</geoidheight>
	</trkpt>
	<trkpt lat="50.723750" lon="6.164597">
		<ele>275</ele>
		<time>2011-09-11T08:29:52.869Z</time>
		<geoidheight>229</geoidheight>
	</trkpt>
	<trkpt lat="50.723755" lon="6.164618">
		<ele>275</ele>
		<time>2011-09-11T08:29:53.871Z</time>
		<geoidheight>229</geoidheight>
	</trkpt>
	<trkpt lat="50.723760" lon="6.164636">
		<ele>275</ele>
		<time>2011-09-11T08:29:54.875Z</time>
		<geoidheight>229</geoidheight>
	</trkpt>
	<trkpt lat="50.723761" lon="6.164657">
		<ele>275</ele>
		<time>2011-09-11T08:29:55.868Z</time>
		<geoidheight>229</geoidheight>
	</trkpt>
	<trkpt lat="50.723762" lon="6.164680">
		<ele>275</ele>
		<time>2011-09-11T08:29:56.871Z</time>
		<geoidheight>229</geoidheight>
	</trkpt>
	<trkpt lat="50.723759" lon="6.164706">
		<ele>274</ele>
		<time>2011-09-11T08:29:57.872Z</time>
		<geoidheight>228</geoidheight>
	</trkpt>
	<trkpt lat="50.723760" lon="6.164732">
		<ele>274</ele>
		<time>2011-09-11T08:29:58.876Z</time>
		<geoidheight>228</geoidheight>
	</trkpt>
	<trkpt lat="50.723758" lon="6.164757">
		<ele>274</ele>
		<time>2011-09-11T08:29:59.873Z</time>
		<geoidheight>228</geoidheight>
	</trkpt>
	<trkpt lat="50.723757" lon="6.164780">
		<ele>274</ele>
		<time>2011-09-11T08:30:00.866Z</time>
		<geoidheight>228</geoidheight>
	</trkpt>
	<trkpt lat="50.723757" lon="6.164801">
		<ele>274</ele>
		<time>2011-09-11T08:30:01.863Z</time>
		<geoidheight>228</geoidheight>
	</trkpt>
	<trkpt lat="50.723759" lon="6.164820">
		<ele>274</ele>
		<time>2011-09-11T08:30:02.882Z</time>
		<geoidheight>228</geoidheight>
	</trkpt>
	<trkpt lat="50.723761" lon="6.164841">
		<ele>274</ele>
		<time>2011-09-11T08:30:03.866Z</time>
		<geoidheight>228</geoidheight>
	</trkpt>
	<trkpt lat="50.723767" lon="6.164862">
		<ele>274</ele>
		<time>2011-09-11T08:30:04.873Z</time>
		<geoidheight>228</geoidheight>
	</trkpt>
	<trkpt lat="50.723772" lon="6.164885">
		<ele>274</ele>
		<time>2011-09-11T08:30:05.867Z</time>
		<geoidheight>228</geoidheight>
	</trkpt>
	<trkpt lat="50.723775" lon="6.164909">
		<ele>274</ele>
		<time>2011-09-11T08:30:06.863Z</time>
		<geoidheight>228</geoidheight>
	</trkpt>
	<trkpt lat="50.723781" lon="6.164932">
		<ele>274</ele>
		<time>2011-09-11T08:30:07.850Z</time>
		<geoidheight>228</geoidheight>
	</trkpt>
	<trkpt lat="50.723783" lon="6.164957">
		<ele>273</ele>
		<time>2011-09-11T08:30:08.862Z</time>
		<geoidheight>227</geoidheight>
	</trkpt>
	<trkpt lat="50.723786" lon="6.164981">
		<ele>273</ele>
		<time>2011-09-11T08:30:09.859Z</time>
		<geoidheight>227</geoidheight>
	</trkpt>
	<trkpt lat="50.723775" lon="6.165009">
		<ele>273</ele>
		<time>2011-09-11T08:30:10.857Z</time>
		<geoidheight>227</geoidheight>
	</trkpt>
	<trkpt lat="50.723765" lon="6.165037">
		<ele>273</ele>
		<time>2011-09-11T08:30:11.860Z</time>
		<geoidheight>227</geoidheight>
	</trkpt>
	<trkpt lat="50.723759" lon="6.165062">
		<ele>273</ele>
		<time>2011-09-11T08:30:12.857Z</time>
		<geoidheight>227</geoidheight>
	</trkpt>
	<trkpt lat="50.723754" lon="6.165087">
		<ele>273</ele>
		<time>2011-09-11T08:30:13.858Z</time>
		<geoidheight>227</geoidheight>
	</trkpt>
	<trkpt lat="50.723749" lon="6.165109">
		<ele>273</ele>
		<time>2011-09-11T08:30:14.860Z</time>
		<geoidheight>227</geoidheight>
	</trkpt>
	<trkpt lat="50.723745" lon="6.165132">
		<ele>273</ele>
		<time>2011-09-11T08:30:15.861Z</time>
		<geoidheight>227</geoidheight>
	</trkpt>
	<trkpt lat="50.723746" lon="6.165156">
		<ele>273</ele>
		<time>2011-09-11T08:30:16.869Z</time>
		<geoidheight>227</geoidheight>
	</trkpt>
	<trkpt lat="50.723749" lon="6.165178">
		<ele>273</ele>
		<time>2011-09-11T08:30:17.870Z</time>
		<geoidheight>227</geoidheight>
	</trkpt>
	<trkpt lat="50.723755" lon="6.165197">
		<ele>273</ele>
		<time>2011-09-11T08:30:18.867Z</time>
		<geoidheight>227</geoidheight>
	</trkpt>
	<trkpt lat="50.723761" lon="6.165217">
		<ele>273</ele>
		<time>2011-09-11T08:30:19.873Z</time>
		<geoidheight>227</geoidheight>
	</trkpt>
	<trkpt lat="50.723769" lon="6.165236">
		<ele>272</ele>
		<time>2011-09-11T08:30:20.868Z</time>
		<geoidheight>226</geoidheight>
	</trkpt>
	<trkpt lat="50.723775" lon="6.165258">
		<ele>272</ele>
		<time>2011-09-11T08:30:21.874Z</time>
		<geoidheight>226</geoidheight>
	</trkpt>
	<trkpt lat="50.723781" lon="6.165281">
		<ele>272</ele>
		<time>2011-09-11T08:30:22.871Z</time>
		<geoidheight>226</geoidheight>
	</trkpt>
	<trkpt lat="50.723787" lon="6.165304">
		<ele>272</ele>
		<time>2011-09-11T08:30:23.883Z</time>
		<geoidheight>226</geoidheight>
	</trkpt>
	<trkpt lat="50.723793" lon="6.165326">
		<ele>272</ele>
		<time>2011-09-11T08:30:24.857Z</time>
		<geoidheight>226</geoidheight>
	</trkpt>
	<trkpt lat="50.723800" lon="6.165346">
		<ele>272</ele>
		<time>2011-09-11T08:30:25.857Z</time>
		<geoidheight>226</geoidheight>
	</trkpt>
	<trkpt lat="50.723808" lon="6.165367">
		<ele>272</ele>
		<time>2011-09-11T08:30:26.869Z</time>
		<geoidheight>226</geoidheight>
	</trkpt>
	<trkpt lat="50.723813" lon="6.165395">
		<ele>272</ele>
		<time>2011-09-11T08:30:27.857Z</time>
		<geoidheight>226</geoidheight>
	</trkpt>
	<trkpt lat="50.723819" lon="6.165426">
		<ele>272</ele>
		<time>2011-09-11T08:30:28.861Z</time>
		<geoidheight>226</geoidheight>
	</trkpt>
	<trkpt lat="50.723823" lon="6.165454">
		<ele>272</ele>
		<time>2011-09-11T08:30:29.855Z</time>
		<geoidheight>226</geoidheight>
	</trkpt>
	<trkpt lat="50.723825" lon="6.165479">
		<ele>272</ele>
		<time>2011-09-11T08:30:30.856Z</time>
		<geoidheight>226</geoidheight>
	</trkpt>
	<trkpt lat="50.723828" lon="6.165501">
		<ele>272</ele>
		<time>2011-09-11T08:30:31.857Z</time>
		<geoidheight>226</geoidheight>
	</trkpt>
	<trkpt lat="50.723831" lon="6.165523">
		<ele>272</ele>
		<time>2011-09-11T08:30:32.854Z</time>
		<geoidheight>226</geoidheight>
	</trkpt>
	<trkpt lat="50.723834" lon="6.165544">
		<ele>272</ele>
		<time>2011-09-11T08:30:33.856Z</time>
		<geoidheight>226</geoidheight>
	</trkpt>
	<trkpt lat="50.723839" lon="6.165561">
		<ele>272</ele>
		<time>2011-09-11T08:30:34.858Z</time>
		<geoidheight>226</geoidheight>
	</trkpt>
	<trkpt lat="50.723845" lon="6.165578">
		<ele>272</ele>
		<time>2011-09-11T08:30:35.871Z</time>
		<geoidheight>226</geoidheight>
	</trkpt>
	<trkpt lat="50.723850" lon="6.165599">
		<ele>272</ele>
		<time>2011-09-11T08:30:36.869Z</time>
		<geoidheight>226</geoidheight>
	</trkpt>
	<trkpt lat="50.723853" lon="6.165624">
		<ele>272</ele>
		<time>2011-09-11T08:30:37.871Z</time>
		<geoidheight>226</geoidheight>
	</trkpt>
	<trkpt lat="50.723856" lon="6.165649">
		<ele>272</ele>
		<time>2011-09-11T08:30:38.865Z</time>
		<geoidheight>226</geoidheight>
	</trkpt>
	<trkpt lat="50.723860" lon="6.165670">
		<ele>271</ele>
		<time>2011-09-11T08:30:39.871Z</time>
		<geoidheight>225</geoidheight>
	</trkpt>
	<trkpt lat="50.723867" lon="6.165686">
		<ele>271</ele>
		<time>2011-09-11T08:30:40.868Z</time>
		<geoidheight>225</geoidheight>
	</trkpt>
	<trkpt lat="50.723870" lon="6.165708">
		<ele>271</ele>
		<time>2011-09-11T08:30:41.872Z</time>
		<geoidheight>225</geoidheight>
	</trkpt>
	<trkpt lat="50.723873" lon="6.165727">
		<ele>271</ele>
		<time>2011-09-11T08:30:42.855Z</time>
		<geoidheight>225</geoidheight>
	</trkpt>
	<trkpt lat="50.723873" lon="6.165751">
		<ele>271</ele>
		<time>2011-09-11T08:30:43.862Z</time>
		<geoidheight>225</geoidheight>
	</trkpt>
	<trkpt lat="50.723869" lon="6.165782">
		<ele>271</ele>
		<time>2011-09-11T08:30:44.859Z</time>
		<geoidheight>225</geoidheight>
	</trkpt>
	<trkpt lat="50.723861" lon="6.165817">
		<ele>271</ele>
		<time>2011-09-11T08:30:45.855Z</time>
		<geoidheight>225</geoidheight>
	</trkpt>
	<trkpt lat="50.723855" lon="6.165853">
		<ele>271</ele>
		<time>2011-09-11T08:30:46.856Z</time>
		<geoidheight>225</geoidheight>
	</trkpt>
	<trkpt lat="50.723852" lon="6.165883">
		<ele>271</ele>
		<time>2011-09-11T08:30:47.851Z</time>
		<geoidheight>225</geoidheight>
	</trkpt>
	<trkpt lat="50.723854" lon="6.165909">
		<ele>271</ele>
		<time>2011-09-11T08:30:48.871Z</time>
		<geoidheight>225</geoidheight>
	</trkpt>
	<trkpt lat="50.723854" lon="6.165937">
		<ele>271</ele>
		<time>2011-09-11T08:30:49.862Z</time>
		<geoidheight>225</geoidheight>
	</trkpt>
	<trkpt lat="50.723858" lon="6.165962">
		<ele>271</ele>
		<time>2011-09-11T08:30:50.856Z</time>
		<geoidheight>225</geoidheight>
	</trkpt>
	<trkpt lat="50.723863" lon="6.165987">
		<ele>271</ele>
		<time>2011-09-11T08:30:51.860Z</time>
		<geoidheight>225</geoidheight>
	</trkpt>
	<trkpt lat="50.723866" lon="6.166012">
		<ele>271</ele>
		<time>2011-09-11T08:30:52.868Z</time>
		<geoidheight>225</geoidheight>
	</trkpt>
	<trkpt lat="50.723869" lon="6.166037">
		<ele>271</ele>
		<time>2011-09-11T08:30:53.866Z</time>
		<geoidheight>225</geoidheight>
	</trkpt>
	<trkpt lat="50.723872" lon="6.166060">
		<ele>271</ele>
		<time>2011-09-11T08:30:54.871Z</time>
		<geoidheight>225</geoidheight>
	</trkpt>
	<trkpt lat="50.723874" lon="6.166082">
		<ele>271</ele>
		<time>2011-09-11T08:30:55.869Z</time>
		<geoidheight>225</geoidheight>
	</trkpt>
	<trkpt lat="50.723876" lon="6.166106">
		<ele>271</ele>
		<time>2011-09-11T08:30:56.868Z</time>
		<geoidheight>225</geoidheight>
	</trkpt>
	<trkpt lat="50.723879" lon="6.166128">
		<ele>271</ele>
		<time>2011-09-11T08:30:57.871Z</time>
		<geoidheight>225</geoidheight>
	</trkpt>
	<trkpt lat="50.723883" lon="6.166151">
		<ele>271</ele>
		<time>2011-09-11T08:30:58.868Z</time>
		<geoidheight>225</geoidheight>
	</trkpt>
	<trkpt lat="50.723886" lon="6.166174">
		<ele>271</ele>
		<time>2011-09-11T08:30:59.867Z</time>
		<geoidheight>225</geoidheight>
	</trkpt>
	<trkpt lat="50.723892" lon="6.166195">
		<ele>271</ele>
		<time>2011-09-11T08:31:00.868Z</time>
		<geoidheight>225</geoidheight>
	</trkpt>
	<trkpt lat="50.723897" lon="6.166214">
		<ele>271</ele>
		<time>2011-09-11T08:31:01.870Z</time>
		<geoidheight>225</geoidheight>
	</trkpt>
	<trkpt lat="50.723900" lon="6.166234">
		<ele>270</ele>
		<time>2011-09-11T08:31:02.882Z</time>
		<geoidheight>224</geoidheight>
	</trkpt>
	<trkpt lat="50.723902" lon="6.166257">
		<ele>270</ele>
		<time>2011-09-11T08:31:03.867Z</time>
		<geoidheight>224</geoidheight>
	</trkpt>
	<trkpt lat="50.723903" lon="6.166281">
		<ele>270</ele>
		<time>2011-09-11T08:31:04.866Z</time>
		<geoidheight>224</geoidheight>
	</trkpt>
	<trkpt lat="50.723904" lon="6.166305">
		<ele>270</ele>
		<time>2011-09-11T08:31:05.864Z</time>
		<geoidheight>224</geoidheight>
	</trkpt>
	<trkpt lat="50.723909" lon="6.166324">
		<ele>270</ele>
		<time>2011-09-11T08:31:06.870Z</time>
		<geoidheight>224</geoidheight>
	</trkpt>
	<trkpt lat="50.723917" lon="6.166342">
		<ele>270</ele>
		<time>2011-09-11T08:31:07.861Z</time>
		<geoidheight>224</geoidheight>
	</trkpt>
	<trkpt lat="50.723919" lon="6.166366">
		<ele>270</ele>
		<time>2011-09-11T08:31:08.867Z</time>
		<geoidheight>224</geoidheight>
	</trkpt>
	<trkpt lat="50.723923" lon="6.166389">
		<ele>270</ele>
		<time>2011-09-11T08:31:09.866Z</time>
		<geoidheight>224</geoidheight>
	</trkpt>
	<trkpt lat="50.723927" lon="6.166412">
		<ele>270</ele>
		<time>2011-09-11T08:31:10.880Z</time>
		<geoidheight>224</geoidheight>
	</trkpt>
	<trkpt lat="50.723932" lon="6.166431">
		<ele>270</ele>
		<time>2011-09-11T08:31:11.868Z</time>
		<geoidheight>224</geoidheight>
	</trkpt>
	<trkpt lat="50.723936" lon="6.166441">
		<ele>270</ele>
		<time>2011-09-11T08:31:12.871Z</time>
		<geoidheight>224</geoidheight>
	</trkpt>
	<trkpt lat="50.723940" lon="6.166455">
		<ele>269</ele>
		<time>2011-09-11T08:31:13.872Z</time>
		<geoidheight>223</geoidheight>
	</trkpt>
	<trkpt lat="50.723947" lon="6.166470">
		<ele>269</ele>
		<time>2011-09-11T08:31:14.869Z</time>
		<geoidheight>223</geoidheight>
	</trkpt>
	<trkpt lat="50.723956" lon="6.166486">
		<ele>269</ele>
		<time>2011-09-11T08:31:15.867Z</time>
		<geoidheight>223</geoidheight>
	</trkpt>
	<trkpt lat="50.723962" lon="6.166506">
		<ele>269</ele>
		<time>2011-09-11T08:31:16.863Z</time>
		<geoidheight>223</geoidheight>
	</trkpt>
	<trkpt lat="50.723968" lon="6.166526">
		<ele>269</ele>
		<time>2011-09-11T08:31:17.871Z</time>
		<geoidheight>223</geoidheight>
	</trkpt>
	<trkpt lat="50.723974" lon="6.166544">
		<ele>269</ele>
		<time>2011-09-11T08:31:18.869Z</time>
		<geoidheight>223</geoidheight>
	</trkpt>
	<trkpt lat="50.723980" lon="6.166562">
		<ele>269</ele>
		<time>2011-09-11T08:31:19.869Z</time>
		<geoidheight>223</geoidheight>
	</trkpt>
	<trkpt lat="50.723986" lon="6.166581">
		<ele>269</ele>
		<time>2011-09-11T08:31:20.868Z</time>
		<geoidheight>223</geoidheight>
	</trkpt>
	<trkpt lat="50.723991" lon="6.166600">
		<ele>269</ele>
		<time>2011-09-11T08:31:21.863Z</time>
		<geoidheight>223</geoidheight>
	</trkpt>
	<trkpt lat="50.723997" lon="6.166620">
		<ele>269</ele>
		<time>2011-09-11T08:31:22.867Z</time>
		<geoidheight>223</geoidheight>
	</trkpt>
	<trkpt lat="50.724000" lon="6.166641">
		<ele>269</ele>
		<time>2011-09-11T08:31:23.867Z</time>
		<geoidheight>223</geoidheight>
	</trkpt>
	<trkpt lat="50.724004" lon="6.166662">
		<ele>269</ele>
		<time>2011-09-11T08:31:24.869Z</time>
		<geoidheight>223</geoidheight>
	</trkpt>
	<trkpt lat="50.724010" lon="6.166682">
		<ele>269</ele>
		<time>2011-09-11T08:31:25.863Z</time>
		<geoidheight>223</geoidheight>
	</trkpt>
	<trkpt lat="50.724017" lon="6.166698">
		<ele>269</ele>
		<time>2011-09-11T08:31:26.863Z</time>
		<geoidheight>223</geoidheight>
	</trkpt>
	<trkpt lat="50.724025" lon="6.166713">
		<ele>269</ele>
		<time>2011-09-11T08:31:27.861Z</time>
		<geoidheight>223</geoidheight>
	</trkpt>
	<trkpt lat="50.724032" lon="6.166729">
		<ele>269</ele>
		<time>2011-09-11T08:31:28.879Z</time>
		<geoidheight>223</geoidheight>
	</trkpt>
	<trkpt lat="50.724037" lon="6.166746">
		<ele>269</ele>
		<time>2011-09-11T08:31:29.874Z</time>
		<geoidheight>223</geoidheight>
	</trkpt>
	<trkpt lat="50.724042" lon="6.166763">
		<ele>268</ele>
		<time>2011-09-11T08:31:30.870Z</time>
		<geoidheight>222</geoidheight>
	</trkpt>
	<trkpt lat="50.724047" lon="6.166780">
		<ele>268</ele>
		<time>2011-09-11T08:31:31.861Z</time>
		<geoidheight>222</geoidheight>
	</trkpt>
	<trkpt lat="50.724049" lon="6.166799">
		<ele>268</ele>
		<time>2011-09-11T08:31:32.860Z</time>
		<geoidheight>222</geoidheight>
	</trkpt>
	<trkpt lat="50.724051" lon="6.166819">
		<ele>268</ele>
		<time>2011-09-11T08:31:33.867Z</time>
		<geoidheight>222</geoidheight>
	</trkpt>
	<trkpt lat="50.724054" lon="6.166841">
		<ele>268</ele>
		<time>2011-09-11T08:31:34.882Z</time>
		<geoidheight>222</geoidheight>
	</trkpt>
	<trkpt lat="50.724056" lon="6.166887">
		<ele>268</ele>
		<time>2011-09-11T08:31:35.869Z</time>
		<geoidheight>222</geoidheight>
	</trkpt>
	<trkpt lat="50.724056" lon="6.166908">
		<ele>268</ele>
		<time>2011-09-11T08:31:36.871Z</time>
		<geoidheight>222</geoidheight>
	</trkpt>
	<trkpt lat="50.724056" lon="6.166929">
		<ele>268</ele>
		<time>2011-09-11T08:31:37.867Z</time>
		<geoidheight>222</geoidheight>
	</trkpt>
	<trkpt lat="50.724058" lon="6.166949">
		<ele>268</ele>
		<time>2011-09-11T08:31:38.866Z</time>
		<geoidheight>222</geoidheight>
	</trkpt>
	<trkpt lat="50.724058" lon="6.166969">
		<ele>268</ele>
		<time>2011-09-11T08:31:39.868Z</time>
		<geoidheight>222</geoidheight>
	</trkpt>
	<trkpt lat="50.724056" lon="6.166989">
		<ele>268</ele>
		<time>2011-09-11T08:31:40.879Z</time>
		<geoidheight>222</geoidheight>
	</trkpt>
	<trkpt lat="50.724057" lon="6.167010">
		<ele>268</ele>
		<time>2011-09-11T08:31:41.870Z</time>
		<geoidheight>222</geoidheight>
	</trkpt>
	<trkpt lat="50.724063" lon="6.167028">
		<ele>268</ele>
		<time>2011-09-11T08:31:42.869Z</time>
		<geoidheight>222</geoidheight>
	</trkpt>
	<trkpt lat="50.724070" lon="6.167048">
		<ele>268</ele>
		<time>2011-09-11T08:31:43.869Z</time>
		<geoidheight>222</geoidheight>
	</trkpt>
	<trkpt lat="50.724082" lon="6.167061">
		<ele>268</ele>
		<time>2011-09-11T08:31:44.867Z</time>
		<geoidheight>222</geoidheight>
	</trkpt>
	<trkpt lat="50.724091" lon="6.167080">
		<ele>268</ele>
		<time>2011-09-11T08:31:45.873Z</time>
		<geoidheight>222</geoidheight>
	</trkpt>
	<trkpt lat="50.724097" lon="6.167097">
		<ele>268</ele>
		<time>2011-09-11T08:31:46.879Z</time>
		<geoidheight>222</geoidheight>
	</trkpt>
	<trkpt lat="50.724104" lon="6.167111">
		<ele>268</ele>
		<time>2011-09-11T08:31:47.852Z</time>
		<geoidheight>222</geoidheight>
	</trkpt>
	<trkpt lat="50.724111" lon="6.167127">
		<ele>267</ele>
		<time>2011-09-11T08:31:48.853Z</time>
		<geoidheight>221</geoidheight>
	</trkpt>
	<trkpt lat="50.724121" lon="6.167140">
		<ele>267</ele>
		<time>2011-09-11T08:31:49.861Z</time>
		<geoidheight>221</geoidheight>
	</trkpt>
	<trkpt lat="50.724129" lon="6.167155">
		<ele>267</ele>
		<time>2011-09-11T08:31:50.867Z</time>
		<geoidheight>221</geoidheight>
	</trkpt>
	<trkpt lat="50.724136" lon="6.167174">
		<ele>267</ele>
		<time>2011-09-11T08:31:51.869Z</time>
		<geoidheight>221</geoidheight>
	</trkpt>
	<trkpt lat="50.724140" lon="6.167193">
		<ele>267</ele>
		<time>2011-09-11T08:31:52.871Z</time>
		<geoidheight>221</geoidheight>
	</trkpt>
	<trkpt lat="50.724143" lon="6.167214">
		<ele>267</ele>
		<time>2011-09-11T08:31:53.871Z</time>
		<geoidheight>221</geoidheight>
	</trkpt>
	<trkpt lat="50.724146" lon="6.167236">
		<ele>267</ele>
		<time>2011-09-11T08:31:54.875Z</time>
		<geoidheight>221</geoidheight>
	</trkpt>
	<trkpt lat="50.724146" lon="6.167258">
		<ele>267</ele>
		<time>2011-09-11T08:31:55.859Z</time>
		<geoidheight>221</geoidheight>
	</trkpt>
	<trkpt lat="50.724149" lon="6.167277">
		<ele>267</ele>
		<time>2011-09-11T08:31:56.858Z</time>
		<geoidheight>221</geoidheight>
	</trkpt>
	<trkpt lat="50.724152" lon="6.167293">
		<ele>267</ele>
		<time>2011-09-11T08:31:57.855Z</time>
		<geoidheight>221</geoidheight>
	</trkpt>
	<trkpt lat="50.724155" lon="6.167312">
		<ele>267</ele>
		<time>2011-09-11T08:31:58.856Z</time>
		<geoidheight>221</geoidheight>
	</trkpt>
	<trkpt lat="50.724159" lon="6.167331">
		<ele>267</ele>
		<time>2011-09-11T08:31:59.854Z</time>
		<geoidheight>221</geoidheight>
	</trkpt>
	<trkpt lat="50.724164" lon="6.167352">
		<ele>267</ele>
		<time>2011-09-11T08:32:00.857Z</time>
		<geoidheight>221</geoidheight>
	</trkpt>
	<trkpt lat="50.724170" lon="6.167373">
		<ele>267</ele>
		<time>2011-09-11T08:32:01.857Z</time>
		<geoidheight>221</geoidheight>
	</trkpt>
	<trkpt lat="50.724176" lon="6.167395">
		<ele>267</ele>
		<time>2011-09-11T08:32:02.863Z</time>
		<geoidheight>221</geoidheight>
	</trkpt>
	<trkpt lat="50.724184" lon="6.167418">
		<ele>267</ele>
		<time>2011-09-11T08:32:03.855Z</time>
		<geoidheight>221</geoidheight>
	</trkpt>
	<trkpt lat="50.724191" lon="6.167438">
		<ele>267</ele>
		<time>2011-09-11T08:32:04.858Z</time>
		<geoidheight>221</geoidheight>
	</trkpt>
	<trkpt lat="50.724202" lon="6.167454">
		<ele>267</ele>
		<time>2011-09-11T08:32:05.853Z</time>
		<geoidheight>221</geoidheight>
	</trkpt>
	<trkpt lat="50.724211" lon="6.167469">
		<ele>267</ele>
		<time>2011-09-11T08:32:06.853Z</time>
		<geoidheight>221</geoidheight>
	</trkpt>
	<trkpt lat="50.724218" lon="6.167485">
		<ele>267</ele>
		<time>2011-09-11T08:32:07.852Z</time>
		<geoidheight>221</geoidheight>
	</trkpt>
	<trkpt lat="50.724223" lon="6.167502">
		<ele>267</ele>
		<time>2011-09-11T08:32:08.856Z</time>
		<geoidheight>221</geoidheight>
	</trkpt>
	<trkpt lat="50.724227" lon="6.167520">
		<ele>267</ele>
		<time>2011-09-11T08:32:09.854Z</time>
		<geoidheight>221</geoidheight>
	</trkpt>
	<trkpt lat="50.724232" lon="6.167540">
		<ele>267</ele>
		<time>2011-09-11T08:32:10.853Z</time>
		<geoidheight>221</geoidheight>
	</trkpt>
	<trkpt lat="50.724238" lon="6.167559">
		<ele>267</ele>
		<time>2011-09-11T08:32:11.855Z</time>
		<geoidheight>221</geoidheight>
	</trkpt>
	<trkpt lat="50.724245" lon="6.167577">
		<ele>267</ele>
		<time>2011-09-11T08:32:12.852Z</time>
		<geoidheight>221</geoidheight>
	</trkpt>
	<trkpt lat="50.724255" lon="6.167592">
		<ele>267</ele>
		<time>2011-09-11T08:32:13.851Z</time>
		<geoidheight>221</geoidheight>
	</trkpt>
	<trkpt lat="50.724266" lon="6.167606">
		<ele>267</ele>
		<time>2011-09-11T08:32:14.853Z</time>
		<geoidheight>221</geoidheight>
	</trkpt>
	<trkpt lat="50.724275" lon="6.167623">
		<ele>267</ele>
		<time>2011-09-11T08:32:15.857Z</time>
		<geoidheight>221</geoidheight>
	</trkpt>
	<trkpt lat="50.724284" lon="6.167639">
		<ele>267</ele>
		<time>2011-09-11T08:32:16.861Z</time>
		<geoidheight>221</geoidheight>
	</trkpt>
	<trkpt lat="50.724292" lon="6.167654">
		<ele>267</ele>
		<time>2011-09-11T08:32:17.857Z</time>
		<geoidheight>221</geoidheight>
	</trkpt>
	<trkpt lat="50.724300" lon="6.167669">
		<ele>267</ele>
		<time>2011-09-11T08:32:18.866Z</time>
		<geoidheight>221</geoidheight>
	</trkpt>
	<trkpt lat="50.724311" lon="6.167680">
		<ele>267</ele>
		<time>2011-09-11T08:32:19.853Z</time>
		<geoidheight>221</geoidheight>
	</trkpt>
	<trkpt lat="50.724319" lon="6.167696">
		<ele>267</ele>
		<time>2011-09-11T08:32:20.863Z</time>
		<geoidheight>221</geoidheight>
	</trkpt>
	<trkpt lat="50.724327" lon="6.167710">
		<ele>267</ele>
		<time>2011-09-11T08:32:21.858Z</time>
		<geoidheight>221</geoidheight>
	</trkpt>
	<trkpt lat="50.724331" lon="6.167726">
		<ele>267</ele>
		<time>2011-09-11T08:32:22.852Z</time>
		<geoidheight>221</geoidheight>
	</trkpt>
	<trkpt lat="50.724338" lon="6.167739">
		<ele>267</ele>
		<time>2011-09-11T08:32:23.852Z</time>
		<geoidheight>221</geoidheight>
	</trkpt>
	<trkpt lat="50.724346" lon="6.167752">
		<ele>267</ele>
		<time>2011-09-11T08:32:24.853Z</time>
		<geoidheight>221</geoidheight>
	</trkpt>
	<trkpt lat="50.724352" lon="6.167767">
		<ele>267</ele>
		<time>2011-09-11T08:32:25.852Z</time>
		<geoidheight>221</geoidheight>
	</trkpt>
	<trkpt lat="50.724356" lon="6.167785">
		<ele>267</ele>
		<time>2011-09-11T08:32:26.855Z</time>
		<geoidheight>221</geoidheight>
	</trkpt>
	<trkpt lat="50.724360" lon="6.167803">
		<ele>267</ele>
		<time>2011-09-11T08:32:27.854Z</time>
		<geoidheight>221</geoidheight>
	</trkpt>
	<trkpt lat="50.724366" lon="6.167820">
		<ele>267</ele>
		<time>2011-09-11T08:32:28.853Z</time>
		<geoidheight>221</geoidheight>
	</trkpt>
	<trkpt lat="50.724370" lon="6.167838">
		<ele>267</ele>
		<time>2011-09-11T08:32:29.853Z</time>
		<geoidheight>221</geoidheight>
	</trkpt>
	<trkpt lat="50.724377" lon="6.167854">
		<ele>267</ele>
		<time>2011-09-11T08:32:30.852Z</time>
		<geoidheight>221</geoidheight>
	</trkpt>
	<trkpt lat="50.724384" lon="6.167872">
		<ele>267</ele>
		<time>2011-09-11T08:32:31.853Z</time>
		<geoidheight>221</geoidheight>
	</trkpt>
	<trkpt lat="50.724391" lon="6.167894">
		<ele>267</ele>
		<time>2011-09-11T08:32:32.856Z</time>
		<geoidheight>221</geoidheight>
	</trkpt>
	<trkpt lat="50.724401" lon="6.167917">
		<ele>267</ele>
		<time>2011-09-11T08:32:33.853Z</time>
		<geoidheight>221</geoidheight>
	</trkpt>
	<trkpt lat="50.724412" lon="6.167942">
		<ele>267</ele>
		<time>2011-09-11T08:32:34.854Z</time>
		<geoidheight>221</geoidheight>
	</trkpt>
	<trkpt lat="50.724422" lon="6.167965">
		<ele>267</ele>
		<time>2011-09-11T08:32:35.852Z</time>
		<geoidheight>221</geoidheight>
	</trkpt>
	<trkpt lat="50.724432" lon="6.167988">
		<ele>267</ele>
		<time>2011-09-11T08:32:36.852Z</time>
		<geoidheight>221</geoidheight>
	</trkpt>
	<trkpt lat="50.724444" lon="6.168007">
		<ele>267</ele>
		<time>2011-09-11T08:32:37.855Z</time>
		<geoidheight>221</geoidheight>
	</trkpt>
	<trkpt lat="50.724451" lon="6.168032">
		<ele>267</ele>
		<time>2011-09-11T08:32:38.850Z</time>
		<geoidheight>221</geoidheight>
	</trkpt>
	<trkpt lat="50.724461" lon="6.168056">
		<ele>267</ele>
		<time>2011-09-11T08:32:39.851Z</time>
		<geoidheight>221</geoidheight>
	</trkpt>
	<trkpt lat="50.724472" lon="6.168077">
		<ele>267</ele>
		<time>2011-09-11T08:32:40.852Z</time>
		<geoidheight>221</geoidheight>
	</trkpt>
	<trkpt lat="50.724478" lon="6.168097">
		<ele>267</ele>
		<time>2011-09-11T08:32:41.851Z</time>
		<geoidheight>221</geoidheight>
	</trkpt>
	<trkpt lat="50.724484" lon="6.168116">
		<ele>267</ele>
		<time>2011-09-11T08:32:42.854Z</time>
		<geoidheight>221</geoidheight>
	</trkpt>
	<trkpt lat="50.724494" lon="6.168130">
		<ele>267</ele>
		<time>2011-09-11T08:32:43.851Z</time>
		<geoidheight>221</geoidheight>
	</trkpt>
	<trkpt lat="50.724504" lon="6.168144">
		<ele>267</ele>
		<time>2011-09-11T08:32:44.857Z</time>
		<geoidheight>221</geoidheight>
	</trkpt>
	<trkpt lat="50.724512" lon="6.168161">
		<ele>267</ele>
		<time>2011-09-11T08:32:45.851Z</time>
		<geoidheight>221</geoidheight>
	</trkpt>
	<trkpt lat="50.724521" lon="6.168173">
		<ele>267</ele>
		<time>2011-09-11T08:32:46.852Z</time>
		<geoidheight>221</geoidheight>
	</trkpt>
	<trkpt lat="50.724530" lon="6.168181">
		<ele>267</ele>
		<time>2011-09-11T08:32:47.852Z</time>
		<geoidheight>221</geoidheight>
	</trkpt>
	<trkpt lat="50.724539" lon="6.168194">
		<ele>267</ele>
		<time>2011-09-11T08:32:48.851Z</time>
		<geoidheight>221</geoidheight>
	</trkpt>
	<trkpt lat="50.724545" lon="6.168213">
		<ele>267</ele>
		<time>2011-09-11T08:32:49.852Z</time>
		<geoidheight>221</geoidheight>
	</trkpt>
	<trkpt lat="50.724548" lon="6.168236">
		<ele>267</ele>
		<time>2011-09-11T08:32:50.852Z</time>
		<geoidheight>221</geoidheight>
	</trkpt>
	<trkpt lat="50.724550" lon="6.168257">
		<ele>267</ele>
		<time>2011-09-11T08:32:51.852Z</time>
		<geoidheight>221</geoidheight>
	</trkpt>
	<trkpt lat="50.724558" lon="6.168272">
		<ele>267</ele>
		<time>2011-09-11T08:32:52.852Z</time>
		<geoidheight>221</geoidheight>
	</trkpt>
	<trkpt lat="50.724566" lon="6.168286">
		<ele>267</ele>
		<time>2011-09-11T08:32:53.853Z</time>
		<geoidheight>221</geoidheight>
	</trkpt>
	<trkpt lat="50.724571" lon="6.168304">
		<ele>267</ele>
		<time>2011-09-11T08:32:54.852Z</time>
		<geoidheight>221</geoidheight>
	</trkpt>
	<trkpt lat="50.724576" lon="6.168322">
		<ele>267</ele>
		<time>2011-09-11T08:32:55.852Z</time>
		<geoidheight>221</geoidheight>
	</trkpt>
	<trkpt lat="50.724581" lon="6.168341">
		<ele>267</ele>
		<time>2011-09-11T08:32:56.854Z</time>
		<geoidheight>221</geoidheight>
	</trkpt>
	<trkpt lat="50.724586" lon="6.168359">
		<ele>267</ele>
		<time>2011-09-11T08:32:57.854Z</time>
		<geoidheight>221</geoidheight>
	</trkpt>
	<trkpt lat="50.724594" lon="6.168377">
		<ele>267</ele>
		<time>2011-09-11T08:32:58.853Z</time>
		<geoidheight>221</geoidheight>
	</trkpt>
	<trkpt lat="50.724599" lon="6.168396">
		<ele>267</ele>
		<time>2011-09-11T08:32:59.852Z</time>
		<geoidheight>221</geoidheight>
	</trkpt>
	<trkpt lat="50.724604" lon="6.168413">
		<ele>267</ele>
		<time>2011-09-11T08:33:00.854Z</time>
		<geoidheight>221</geoidheight>
	</trkpt>
	<trkpt lat="50.724609" lon="6.168429">
		<ele>267</ele>
		<time>2011-09-11T08:33:01.852Z</time>
		<geoidheight>221</geoidheight>
	</trkpt>
	<trkpt lat="50.724611" lon="6.168446">
		<ele>267</ele>
		<time>2011-09-11T08:33:02.853Z</time>
		<geoidheight>221</geoidheight>
	</trkpt>
	<trkpt lat="50.724612" lon="6.168465">
		<ele>267</ele>
		<time>2011-09-11T08:33:03.855Z</time>
		<geoidheight>221</geoidheight>
	</trkpt>
	<trkpt lat="50.724616" lon="6.168483">
		<ele>267</ele>
		<time>2011-09-11T08:33:04.851Z</time>
		<geoidheight>221</geoidheight>
	</trkpt>
	<trkpt lat="50.724622" lon="6.168499">
		<ele>267</ele>
		<time>2011-09-11T08:33:05.852Z</time>
		<geoidheight>221</geoidheight>
	</trkpt>
	<trkpt lat="50.724627" lon="6.168515">
		<ele>267</ele>
		<time>2011-09-11T08:33:06.855Z</time>
		<geoidheight>221</geoidheight>
	</trkpt>
	<trkpt lat="50.724632" lon="6.168533">
		<ele>267</ele>
		<time>2011-09-11T08:33:07.854Z</time>
		<geoidheight>221</geoidheight>
	</trkpt>
	<trkpt lat="50.724634" lon="6.168553">
		<ele>267</ele>
		<time>2011-09-11T08:33:08.861Z</time>
		<geoidheight>221</geoidheight>
	</trkpt>
	<trkpt lat="50.724638" lon="6.168572">
		<ele>267</ele>
		<time>2011-09-11T08:33:09.854Z</time>
		<geoidheight>221</geoidheight>
	</trkpt>
	<trkpt lat="50.724646" lon="6.168594">
		<ele>267</ele>
		<time>2011-09-11T08:33:10.852Z</time>
		<geoidheight>221</geoidheight>
	</trkpt>
	<trkpt lat="50.724658" lon="6.168616">
		<ele>267</ele>
		<time>2011-09-11T08:33:11.851Z</time>
		<geoidheight>221</geoidheight>
	</trkpt>
	<trkpt lat="50.724667" lon="6.168638">
		<ele>267</ele>
		<time>2011-09-11T08:33:12.853Z</time>
		<geoidheight>221</geoidheight>
	</trkpt>
	<trkpt lat="50.724672" lon="6.168660">
		<ele>267</ele>
		<time>2011-09-11T08:33:13.852Z</time>
		<geoidheight>221</geoidheight>
	</trkpt>
	<trkpt lat="50.724680" lon="6.168681">
		<ele>267</ele>
		<time>2011-09-11T08:33:14.852Z</time>
		<geoidheight>221</geoidheight>
	</trkpt>
	<trkpt lat="50.724688" lon="6.168699">
		<ele>267</ele>
		<time>2011-09-11T08:33:15.851Z</time>
		<geoidheight>221</geoidheight>
	</trkpt>
	<trkpt lat="50.724696" lon="6.168717">
		<ele>267</ele>
		<time>2011-09-11T08:33:16.853Z</time>
		<geoidheight>221</geoidheight>
	</trkpt>
	<trkpt lat="50.724703" lon="6.168736">
		<ele>267</ele>
		<time>2011-09-11T08:33:17.855Z</time>
		<geoidheight>221</geoidheight>
	</trkpt>
	<trkpt lat="50.724710" lon="6.168755">
		<ele>267</ele>
		<time>2011-09-11T08:33:18.853Z</time>
		<geoidheight>221</geoidheight>
	</trkpt>
	<trkpt lat="50.724717" lon="6.168774">
		<ele>267</ele>
		<time>2011-09-11T08:33:19.861Z</time>
		<geoidheight>221</geoidheight>
	</trkpt>
	<trkpt lat="50.724730" lon="6.168792">
		<ele>267</ele>
		<time>2011-09-11T08:33:20.851Z</time>
		<geoidheight>221</geoidheight>
	</trkpt>
	<trkpt lat="50.724744" lon="6.168814">
		<ele>267</ele>
		<time>2011-09-11T08:33:21.853Z</time>
		<geoidheight>221</geoidheight>
	</trkpt>
	<trkpt lat="50.724756" lon="6.168842">
		<ele>267</ele>
		<time>2011-09-11T08:33:22.855Z</time>
		<geoidheight>221</geoidheight>
	</trkpt>
	<trkpt lat="50.724764" lon="6.168867">
		<ele>267</ele>
		<time>2011-09-11T08:33:23.852Z</time>
		<geoidheight>221</geoidheight>
	</trkpt>
	<trkpt lat="50.724775" lon="6.168887">
		<ele>267</ele>
		<time>2011-09-11T08:33:24.852Z</time>
		<geoidheight>221</geoidheight>
	</trkpt>
	<trkpt lat="50.724787" lon="6.168909">
		<ele>267</ele>
		<time>2011-09-11T08:33:25.853Z</time>
		<geoidheight>221</geoidheight>
	</trkpt>
	<trkpt lat="50.724801" lon="6.168931">
		<ele>267</ele>
		<time>2011-09-11T08:33:26.852Z</time>
		<geoidheight>221</geoidheight>
	</trkpt>
	<trkpt lat="50.724816" lon="6.168943">
		<ele>267</ele>
		<time>2011-09-11T08:33:27.852Z</time>
		<geoidheight>221</geoidheight>
	</trkpt>
	<trkpt lat="50.724826" lon="6.168960">
		<ele>267</ele>
		<time>2011-09-11T08:33:28.853Z</time>
		<geoidheight>221</geoidheight>
	</trkpt>
	<trkpt lat="50.724835" lon="6.168979">
		<ele>268</ele>
		<time>2011-09-11T08:33:29.854Z</time>
		<geoidheight>222</geoidheight>
	</trkpt>
	<trkpt lat="50.724848" lon="6.168991">
		<ele>268</ele>
		<time>2011-09-11T08:33:30.861Z</time>
		<geoidheight>222</geoidheight>
	</trkpt>
	<trkpt lat="50.724862" lon="6.169005">
		<ele>268</ele>
		<time>2011-09-11T08:33:31.860Z</time>
		<geoidheight>222</geoidheight>
	</trkpt>
	<trkpt lat="50.724875" lon="6.169021">
		<ele>268</ele>
		<time>2011-09-11T08:33:32.861Z</time>
		<geoidheight>222</geoidheight>
	</trkpt>
	<trkpt lat="50.724886" lon="6.169043">
		<ele>268</ele>
		<time>2011-09-11T08:33:33.859Z</time>
		<geoidheight>222</geoidheight>
	</trkpt>
	<trkpt lat="50.724898" lon="6.169064">
		<ele>268</ele>
		<time>2011-09-11T08:33:34.859Z</time>
		<geoidheight>222</geoidheight>
	</trkpt>
	<trkpt lat="50.724909" lon="6.169085">
		<ele>268</ele>
		<time>2011-09-11T08:33:35.861Z</time>
		<geoidheight>222</geoidheight>
	</trkpt>
	<trkpt lat="50.724919" lon="6.169104">
		<ele>268</ele>
		<time>2011-09-11T08:33:36.860Z</time>
		<geoidheight>222</geoidheight>
	</trkpt>
	<trkpt lat="50.724924" lon="6.169127">
		<ele>268</ele>
		<time>2011-09-11T08:33:37.863Z</time>
		<geoidheight>222</geoidheight>
	</trkpt>
	<trkpt lat="50.724930" lon="6.169148">
		<ele>268</ele>
		<time>2011-09-11T08:33:38.855Z</time>
		<geoidheight>222</geoidheight>
	</trkpt>
	<trkpt lat="50.724938" lon="6.169165">
		<ele>268</ele>
		<time>2011-09-11T08:33:39.856Z</time>
		<geoidheight>222</geoidheight>
	</trkpt>
	<trkpt lat="50.724943" lon="6.169185">
		<ele>268</ele>
		<time>2011-09-11T08:33:40.859Z</time>
		<geoidheight>222</geoidheight>
	</trkpt>
	<trkpt lat="50.724953" lon="6.169200">
		<ele>268</ele>
		<time>2011-09-11T08:33:41.859Z</time>
		<geoidheight>222</geoidheight>
	</trkpt>
	<trkpt lat="50.724966" lon="6.169210">
		<ele>268</ele>
		<time>2011-09-11T08:33:42.870Z</time>
		<geoidheight>222</geoidheight>
	</trkpt>
	<trkpt lat="50.724976" lon="6.169226">
		<ele>268</ele>
		<time>2011-09-11T08:33:43.870Z</time>
		<geoidheight>222</geoidheight>
	</trkpt>
	<trkpt lat="50.724987" lon="6.169240">
		<ele>268</ele>
		<time>2011-09-11T08:33:44.875Z</time>
		<geoidheight>222</geoidheight>
	</trkpt>
	<trkpt lat="50.724996" lon="6.169255">
		<ele>268</ele>
		<time>2011-09-11T08:33:45.873Z</time>
		<geoidheight>222</geoidheight>
	</trkpt>
	<trkpt lat="50.725004" lon="6.169272">
		<ele>268</ele>
		<time>2011-09-11T08:33:46.871Z</time>
		<geoidheight>222</geoidheight>
	</trkpt>
	<trkpt lat="50.725009" lon="6.169289">
		<ele>268</ele>
		<time>2011-09-11T08:33:47.866Z</time>
		<geoidheight>222</geoidheight>
	</trkpt>
	<trkpt lat="50.725012" lon="6.169310">
		<ele>268</ele>
		<time>2011-09-11T08:33:48.884Z</time>
		<geoidheight>222</geoidheight>
	</trkpt>
	<trkpt lat="50.725017" lon="6.169331">
		<ele>268</ele>
		<time>2011-09-11T08:33:49.863Z</time>
		<geoidheight>222</geoidheight>
	</trkpt>
	<trkpt lat="50.725024" lon="6.169350">
		<ele>268</ele>
		<time>2011-09-11T08:33:50.861Z</time>
		<geoidheight>222</geoidheight>
	</trkpt>
	<trkpt lat="50.725029" lon="6.169372">
		<ele>268</ele>
		<time>2011-09-11T08:33:51.854Z</time>
		<geoidheight>222</geoidheight>
	</trkpt>
	<trkpt lat="50.725035" lon="6.169393">
		<ele>268</ele>
		<time>2011-09-11T08:33:52.856Z</time>
		<geoidheight>222</geoidheight>
	</trkpt>
	<trkpt lat="50.725042" lon="6.169413">
		<ele>268</ele>
		<time>2011-09-11T08:33:53.861Z</time>
		<geoidheight>222</geoidheight>
	</trkpt>
	<trkpt lat="50.725049" lon="6.169433">
		<ele>268</ele>
		<time>2011-09-11T08:33:54.861Z</time>
		<geoidheight>222</geoidheight>
	</trkpt>
	<trkpt lat="50.725054" lon="6.169454">
		<ele>268</ele>
		<time>2011-09-11T08:33:55.860Z</time>
		<geoidheight>222</geoidheight>
	</trkpt>
	<trkpt lat="50.725059" lon="6.169476">
		<ele>268</ele>
		<time>2011-09-11T08:33:56.858Z</time>
		<geoidheight>222</geoidheight>
	</trkpt>
	<trkpt lat="50.725065" lon="6.169499">
		<ele>268</ele>
		<time>2011-09-11T08:33:57.858Z</time>
		<geoidheight>222</geoidheight>
	</trkpt>
	<trkpt lat="50.725073" lon="6.169522">
		<ele>268</ele>
		<time>2011-09-11T08:33:58.871Z</time>
		<geoidheight>222</geoidheight>
	</trkpt>
	<trkpt lat="50.725083" lon="6.169546">
		<ele>268</ele>
		<time>2011-09-11T08:33:59.857Z</time>
		<geoidheight>222</geoidheight>
	</trkpt>
	<trkpt lat="50.725090" lon="6.169571">
		<ele>268</ele>
		<time>2011-09-11T08:34:00.859Z</time>
		<geoidheight>222</geoidheight>
	</trkpt>
	<trkpt lat="50.725094" lon="6.169597">
		<ele>268</ele>
		<time>2011-09-11T08:34:01.857Z</time>
		<geoidheight>222</geoidheight>
	</trkpt>
	<trkpt lat="50.725102" lon="6.169622">
		<ele>268</ele>
		<time>2011-09-11T08:34:02.868Z</time>
		<geoidheight>222</geoidheight>
	</trkpt>
	<trkpt lat="50.725110" lon="6.169645">
		<ele>268</ele>
		<time>2011-09-11T08:34:03.868Z</time>
		<geoidheight>222</geoidheight>
	</trkpt>
	<trkpt lat="50.725119" lon="6.169664">
		<ele>268</ele>
		<time>2011-09-11T08:34:04.871Z</time>
		<geoidheight>222</geoidheight>
	</trkpt>
	<trkpt lat="50.725123" lon="6.169681">
		<ele>268</ele>
		<time>2011-09-11T08:34:05.870Z</time>
		<geoidheight>222</geoidheight>
	</trkpt>
	<trkpt lat="50.725122" lon="6.169699">
		<ele>268</ele>
		<time>2011-09-11T08:34:06.871Z</time>
		<geoidheight>222</geoidheight>
	</trkpt>
	<trkpt lat="50.725125" lon="6.169716">
		<ele>268</ele>
		<time>2011-09-11T08:34:07.868Z</time>
		<geoidheight>222</geoidheight>
	</trkpt>
	<trkpt lat="50.725128" lon="6.169735">
		<ele>268</ele>
		<time>2011-09-11T08:34:08.854Z</time>
		<geoidheight>222</geoidheight>
	</trkpt>
	<trkpt lat="50.725132" lon="6.169751">
		<ele>268</ele>
		<time>2011-09-11T08:34:09.868Z</time>
		<geoidheight>222</geoidheight>
	</trkpt>
	<trkpt lat="50.725134" lon="6.169769">
		<ele>268</ele>
		<time>2011-09-11T08:34:10.864Z</time>
		<geoidheight>222</geoidheight>
	</trkpt>
	<trkpt lat="50.725140" lon="6.169785">
		<ele>268</ele>
		<time>2011-09-11T08:34:11.865Z</time>
		<geoidheight>222</geoidheight>
	</trkpt>
	<trkpt lat="50.725145" lon="6.169801">
		<ele>268</ele>
		<time>2011-09-11T08:34:12.871Z</time>
		<geoidheight>222</geoidheight>
	</trkpt>
	<trkpt lat="50.725150" lon="6.169817">
		<ele>268</ele>
		<time>2011-09-11T08:34:13.869Z</time>
		<geoidheight>222</geoidheight>
	</trkpt>
	<trkpt lat="50.725158" lon="6.169830">
		<ele>268</ele>
		<time>2011-09-11T08:34:14.867Z</time>
		<geoidheight>222</geoidheight>
	</trkpt>
	<trkpt lat="50.725164" lon="6.169848">
		<ele>268</ele>
		<time>2011-09-11T08:34:15.869Z</time>
		<geoidheight>222</geoidheight>
	</trkpt>
	<trkpt lat="50.725173" lon="6.169867">
		<ele>268</ele>
		<time>2011-09-11T08:34:16.866Z</time>
		<geoidheight>222</geoidheight>
	</trkpt>
	<trkpt lat="50.725184" lon="6.169886">
		<ele>268</ele>
		<time>2011-09-11T08:34:17.872Z</time>
		<geoidheight>222</geoidheight>
	</trkpt>
	<trkpt lat="50.725196" lon="6.169909">
		<ele>268</ele>
		<time>2011-09-11T08:34:18.871Z</time>
		<geoidheight>222</geoidheight>
	</trkpt>
	<trkpt lat="50.725205" lon="6.169932">
		<ele>268</ele>
		<time>2011-09-11T08:34:19.868Z</time>
		<geoidheight>222</geoidheight>
	</trkpt>
	<trkpt lat="50.725214" lon="6.169953">
		<ele>268</ele>
		<time>2011-09-11T08:34:20.867Z</time>
		<geoidheight>222</geoidheight>
	</trkpt>
	<trkpt lat="50.725225" lon="6.169970">
		<ele>268</ele>
		<time>2011-09-11T08:34:21.869Z</time>
		<geoidheight>222</geoidheight>
	</trkpt>
	<trkpt lat="50.725233" lon="6.169991">
		<ele>268</ele>
		<time>2011-09-11T08:34:22.869Z</time>
		<geoidheight>222</geoidheight>
	</trkpt>
	<trkpt lat="50.725237" lon="6.170014">
		<ele>268</ele>
		<time>2011-09-11T08:34:23.871Z</time>
		<geoidheight>222</geoidheight>
	</trkpt>
	<trkpt lat="50.725242" lon="6.170031">
		<ele>268</ele>
		<time>2011-09-11T08:34:24.869Z</time>
		<geoidheight>222</geoidheight>
	</trkpt>
	<trkpt lat="50.725249" lon="6.170047">
		<ele>268</ele>
		<time>2011-09-11T08:34:25.866Z</time>
		<geoidheight>222</geoidheight>
	</trkpt>
	<trkpt lat="50.725259" lon="6.170060">
		<ele>268</ele>
		<time>2011-09-11T08:34:26.866Z</time>
		<geoidheight>222</geoidheight>
	</trkpt>
	<trkpt lat="50.725269" lon="6.170076">
		<ele>269</ele>
		<time>2011-09-11T08:34:27.863Z</time>
		<geoidheight>223</geoidheight>
	</trkpt>
	<trkpt lat="50.725277" lon="6.170094">
		<ele>269</ele>
		<time>2011-09-11T08:34:28.868Z</time>
		<geoidheight>223</geoidheight>
	</trkpt>
	<trkpt lat="50.725286" lon="6.170114">
		<ele>269</ele>
		<time>2011-09-11T08:34:29.866Z</time>
		<geoidheight>223</geoidheight>
	</trkpt>
	<trkpt lat="50.725297" lon="6.170134">
		<ele>269</ele>
		<time>2011-09-11T08:34:30.874Z</time>
		<geoidheight>223</geoidheight>
	</trkpt>
	<trkpt lat="50.725307" lon="6.170151">
		<ele>269</ele>
		<time>2011-09-11T08:34:31.868Z</time>
		<geoidheight>223</geoidheight>
	</trkpt>
	<trkpt lat="50.725315" lon="6.170172">
		<ele>269</ele>
		<time>2011-09-11T08:34:32.883Z</time>
		<geoidheight>223</geoidheight>
	</trkpt>
	<trkpt lat="50.725327" lon="6.170188">
		<ele>269</ele>
		<time>2011-09-11T08:34:33.870Z</time>
		<geoidheight>223</geoidheight>
	</trkpt>
	<trkpt lat="50.725336" lon="6.170201">
		<ele>269</ele>
		<time>2011-09-11T08:34:34.873Z</time>
		<geoidheight>223</geoidheight>
	</trkpt>
	<trkpt lat="50.725343" lon="6.170218">
		<ele>269</ele>
		<time>2011-09-11T08:34:35.865Z</time>
		<geoidheight>223</geoidheight>
	</trkpt>
	<trkpt lat="50.725352" lon="6.170229">
		<ele>269</ele>
		<time>2011-09-11T08:34:36.875Z</time>
		<geoidheight>223</geoidheight>
	</trkpt>
	<trkpt lat="50.725361" lon="6.170244">
		<ele>269</ele>
		<time>2011-09-11T08:34:37.870Z</time>
		<geoidheight>223</geoidheight>
	</trkpt>
	<trkpt lat="50.725370" lon="6.170256">
		<ele>269</ele>
		<time>2011-09-11T08:34:38.851Z</time>
		<geoidheight>223</geoidheight>
	</trkpt>
	<trkpt lat="50.725377" lon="6.170273">
		<ele>269</ele>
		<time>2011-09-11T08:34:39.868Z</time>
		<geoidheight>223</geoidheight>
	</trkpt>
	<trkpt lat="50.725383" lon="6.170290">
		<ele>269</ele>
		<time>2011-09-11T08:34:40.872Z</time>
		<geoidheight>223</geoidheight>
	</trkpt>
	<trkpt lat="50.725390" lon="6.170305">
		<ele>269</ele>
		<time>2011-09-11T08:34:41.884Z</time>
		<geoidheight>223</geoidheight>
	</trkpt>
	<trkpt lat="50.725394" lon="6.170321">
		<ele>269</ele>
		<time>2011-09-11T08:34:42.885Z</time>
		<geoidheight>223</geoidheight>
	</trkpt>
	<trkpt lat="50.725399" lon="6.170338">
		<ele>269</ele>
		<time>2011-09-11T08:34:43.878Z</time>
		<geoidheight>223</geoidheight>
	</trkpt>
	<trkpt lat="50.725404" lon="6.170353">
		<ele>269</ele>
		<time>2011-09-11T08:34:44.867Z</time>
		<geoidheight>223</geoidheight>
	</trkpt>
	<trkpt lat="50.725409" lon="6.170365">
		<ele>269</ele>
		<time>2011-09-11T08:34:45.870Z</time>
		<geoidheight>223</geoidheight>
	</trkpt>
	<trkpt lat="50.725417" lon="6.170376">
		<ele>269</ele>
		<time>2011-09-11T08:34:46.878Z</time>
		<geoidheight>223</geoidheight>
	</trkpt>
	<trkpt lat="50.725425" lon="6.170388">
		<ele>269</ele>
		<time>2011-09-11T08:34:47.869Z</time>
		<geoidheight>223</geoidheight>
	</trkpt>
	<trkpt lat="50.725434" lon="6.170402">
		<ele>269</ele>
		<time>2011-09-11T08:34:48.869Z</time>
		<geoidheight>223</geoidheight>
	</trkpt>
	<trkpt lat="50.725444" lon="6.170417">
		<ele>269</ele>
		<time>2011-09-11T08:34:49.879Z</time>
		<geoidheight>223</geoidheight>
	</trkpt>
	<trkpt lat="50.725443" lon="6.170440">
		<ele>269</ele>
		<time>2011-09-11T08:34:50.872Z</time>
		<geoidheight>223</geoidheight>
	</trkpt>
	<trkpt lat="50.725445" lon="6.170463">
		<ele>269</ele>
		<time>2011-09-11T08:34:51.873Z</time>
		<geoidheight>223</geoidheight>
	</trkpt>
	<trkpt lat="50.725448" lon="6.170489">
		<ele>269</ele>
		<time>2011-09-11T08:34:52.879Z</time>
		<geoidheight>223</geoidheight>
	</trkpt>
	<trkpt lat="50.725457" lon="6.170516">
		<ele>269</ele>
		<time>2011-09-11T08:34:53.871Z</time>
		<geoidheight>223</geoidheight>
	</trkpt>
	<trkpt lat="50.725465" lon="6.170544">
		<ele>269</ele>
		<time>2011-09-11T08:34:54.851Z</time>
		<geoidheight>223</geoidheight>
	</trkpt>
	<trkpt lat="50.725475" lon="6.170570">
		<ele>269</ele>
		<time>2011-09-11T08:34:55.860Z</time>
		<geoidheight>223</geoidheight>
	</trkpt>
	<trkpt lat="50.725481" lon="6.170594">
		<ele>269</ele>
		<time>2011-09-11T08:34:56.862Z</time>
		<geoidheight>223</geoidheight>
	</trkpt>
	<trkpt lat="50.725486" lon="6.170617">
		<ele>269</ele>
		<time>2011-09-11T08:34:57.854Z</time>
		<geoidheight>223</geoidheight>
	</trkpt>
	<trkpt lat="50.725493" lon="6.170636">
		<ele>269</ele>
		<time>2011-09-11T08:34:58.855Z</time>
		<geoidheight>223</geoidheight>
	</trkpt>
	<trkpt lat="50.725499" lon="6.170656">
		<ele>269</ele>
		<time>2011-09-11T08:34:59.857Z</time>
		<geoidheight>223</geoidheight>
	</trkpt>
	<trkpt lat="50.725503" lon="6.170677">
		<ele>269</ele>
		<time>2011-09-11T08:35:00.860Z</time>
		<geoidheight>223</geoidheight>
	</trkpt>
	<trkpt lat="50.725510" lon="6.170698">
		<ele>269</ele>
		<time>2011-09-11T08:35:01.874Z</time>
		<geoidheight>223</geoidheight>
	</trkpt>
	<trkpt lat="50.725516" lon="6.170721">
		<ele>269</ele>
		<time>2011-09-11T08:35:02.858Z</time>
		<geoidheight>223</geoidheight>
	</trkpt>
	<trkpt lat="50.725522" lon="6.170747">
		<ele>269</ele>
		<time>2011-09-11T08:35:03.860Z</time>
		<geoidheight>223</geoidheight>
	</trkpt>
	<trkpt lat="50.725530" lon="6.170771">
		<ele>269</ele>
		<time>2011-09-11T08:35:04.856Z</time>
		<geoidheight>223</geoidheight>
	</trkpt>
	<trkpt lat="50.725535" lon="6.170798">
		<ele>269</ele>
		<time>2011-09-11T08:35:05.863Z</time>
		<geoidheight>223</geoidheight>
	</trkpt>
	<trkpt lat="50.725545" lon="6.170821">
		<ele>269</ele>
		<time>2011-09-11T08:35:06.860Z</time>
		<geoidheight>223</geoidheight>
	</trkpt>
	<trkpt lat="50.725558" lon="6.170841">
		<ele>269</ele>
		<time>2011-09-11T08:35:07.858Z</time>
		<geoidheight>223</geoidheight>
	</trkpt>
	<trkpt lat="50.725569" lon="6.170862">
		<ele>269</ele>
		<time>2011-09-11T08:35:08.851Z</time>
		<geoidheight>223</geoidheight>
	</trkpt>
	<trkpt lat="50.725582" lon="6.170879">
		<ele>270</ele>
		<time>2011-09-11T08:35:09.861Z</time>
		<geoidheight>224</geoidheight>
	</trkpt>
	<trkpt lat="50.725593" lon="6.170897">
		<ele>270</ele>
		<time>2011-09-11T08:35:10.857Z</time>
		<geoidheight>224</geoidheight>
	</trkpt>
	<trkpt lat="50.725603" lon="6.170915">
		<ele>270</ele>
		<time>2011-09-11T08:35:11.861Z</time>
		<geoidheight>224</geoidheight>
	</trkpt>
	<trkpt lat="50.725611" lon="6.170932">
		<ele>270</ele>
		<time>2011-09-11T08:35:12.856Z</time>
		<geoidheight>224</geoidheight>
	</trkpt>
	<trkpt lat="50.725616" lon="6.170951">
		<ele>270</ele>
		<time>2011-09-11T08:35:13.892Z</time>
		<geoidheight>224</geoidheight>
	</trkpt>
	<trkpt lat="50.725620" lon="6.170971">
		<ele>270</ele>
		<time>2011-09-11T08:35:14.861Z</time>
		<geoidheight>224</geoidheight>
	</trkpt>
	<trkpt lat="50.725623" lon="6.170990">
		<ele>270</ele>
		<time>2011-09-11T08:35:15.859Z</time>
		<geoidheight>224</geoidheight>
	</trkpt>
	<trkpt lat="50.725635" lon="6.171001">
		<ele>270</ele>
		<time>2011-09-11T08:35:16.857Z</time>
		<geoidheight>224</geoidheight>
	</trkpt>
	<trkpt lat="50.725645" lon="6.171016">
		<ele>270</ele>
		<time>2011-09-11T08:35:17.857Z</time>
		<geoidheight>224</geoidheight>
	</trkpt>
	<trkpt lat="50.725657" lon="6.171028">
		<ele>270</ele>
		<time>2011-09-11T08:35:18.870Z</time>
		<geoidheight>224</geoidheight>
	</trkpt>
	<trkpt lat="50.725668" lon="6.171041">
		<ele>270</ele>
		<time>2011-09-11T08:35:19.874Z</time>
		<geoidheight>224</geoidheight>
	</trkpt>
	<trkpt lat="50.725677" lon="6.171057">
		<ele>270</ele>
		<time>2011-09-11T08:35:20.871Z</time>
		<geoidheight>224</geoidheight>
	</trkpt>
	<trkpt lat="50.725682" lon="6.171074">
		<ele>270</ele>
		<time>2011-09-11T08:35:21.878Z</time>
		<geoidheight>224</geoidheight>
	</trkpt>
	<trkpt lat="50.725689" lon="6.171090">
		<ele>270</ele>
		<time>2011-09-11T08:35:22.867Z</time>
		<geoidheight>224</geoidheight>
	</trkpt>
	<trkpt lat="50.725694" lon="6.171108">
		<ele>270</ele>
		<time>2011-09-11T08:35:23.869Z</time>
		<geoidheight>224</geoidheight>
	</trkpt>
	<trkpt lat="50.725697" lon="6.171126">
		<ele>270</ele>
		<time>2011-09-11T08:35:24.873Z</time>
		<geoidheight>224</geoidheight>
	</trkpt>
	<trkpt lat="50.725707" lon="6.171137">
		<ele>270</ele>
		<time>2011-09-11T08:35:25.884Z</time>
		<geoidheight>224</geoidheight>
	</trkpt>
	<trkpt lat="50.725714" lon="6.171152">
		<ele>270</ele>
		<time>2011-09-11T08:35:26.885Z</time>
		<geoidheight>224</geoidheight>
	</trkpt>
	<trkpt lat="50.725720" lon="6.171167">
		<ele>270</ele>
		<time>2011-09-11T08:35:27.885Z</time>
		<geoidheight>224</geoidheight>
	</trkpt>
	<trkpt lat="50.725725" lon="6.171185">
		<ele>270</ele>
		<time>2011-09-11T08:35:28.882Z</time>
		<geoidheight>224</geoidheight>
	</trkpt>
	<trkpt lat="50.725730" lon="6.171203">
		<ele>270</ele>
		<time>2011-09-11T08:35:29.884Z</time>
		<geoidheight>224</geoidheight>
	</trkpt>
	<trkpt lat="50.725736" lon="6.171217">
		<ele>270</ele>
		<time>2011-09-11T08:35:30.881Z</time>
		<geoidheight>224</geoidheight>
	</trkpt>
	<trkpt lat="50.725740" lon="6.171232">
		<ele>270</ele>
		<time>2011-09-11T08:35:31.882Z</time>
		<geoidheight>224</geoidheight>
	</trkpt>
	<trkpt lat="50.725741" lon="6.171253">
		<ele>270</ele>
		<time>2011-09-11T08:35:32.875Z</time>
		<geoidheight>224</geoidheight>
	</trkpt>
	<trkpt lat="50.725740" lon="6.171273">
		<ele>270</ele>
		<time>2011-09-11T08:35:33.882Z</time>
		<geoidheight>224</geoidheight>
	</trkpt>
	<trkpt lat="50.725741" lon="6.171293">
		<ele>270</ele>
		<time>2011-09-11T08:35:34.868Z</time>
		<geoidheight>224</geoidheight>
	</trkpt>
	<trkpt lat="50.725743" lon="6.171312">
		<ele>270</ele>
		<time>2011-09-11T08:35:35.875Z</time>
		<geoidheight>224</geoidheight>
	</trkpt>
	<trkpt lat="50.725753" lon="6.171328">
		<ele>270</ele>
		<time>2011-09-11T08:35:36.873Z</time>
		<geoidheight>224</geoidheight>
	</trkpt>
	<trkpt lat="50.725764" lon="6.171348">
		<ele>270</ele>
		<time>2011-09-11T08:35:37.881Z</time>
		<geoidheight>224</geoidheight>
	</trkpt>
	<trkpt lat="50.725772" lon="6.171370">
		<ele>270</ele>
		<time>2011-09-11T08:35:38.865Z</time>
		<geoidheight>224</geoidheight>
	</trkpt>
	<trkpt lat="50.725779" lon="6.171392">
		<ele>271</ele>
		<time>2011-09-11T08:35:39.869Z</time>
		<geoidheight>225</geoidheight>
	</trkpt>
	<trkpt lat="50.725789" lon="6.171409">
		<ele>271</ele>
		<time>2011-09-11T08:35:40.868Z</time>
		<geoidheight>225</geoidheight>
	</trkpt>
	<trkpt lat="50.725793" lon="6.171429">
		<ele>271</ele>
		<time>2011-09-11T08:35:41.876Z</time>
		<geoidheight>225</geoidheight>
	</trkpt>
	<trkpt lat="50.725798" lon="6.171450">
		<ele>271</ele>
		<time>2011-09-11T08:35:42.872Z</time>
		<geoidheight>225</geoidheight>
	</trkpt>
	<trkpt lat="50.725802" lon="6.171477">
		<ele>271</ele>
		<time>2011-09-11T08:35:43.877Z</time>
		<geoidheight>225</geoidheight>
	</trkpt>
	<trkpt lat="50.725806" lon="6.171502">
		<ele>271</ele>
		<time>2011-09-11T08:35:44.867Z</time>
		<geoidheight>225</geoidheight>
	</trkpt>
	<trkpt lat="50.725811" lon="6.171526">
		<ele>271</ele>
		<time>2011-09-11T08:35:45.874Z</time>
		<geoidheight>225</geoidheight>
	</trkpt>
	<trkpt lat="50.725815" lon="6.171549">
		<ele>271</ele>
		<time>2011-09-11T08:35:46.874Z</time>
		<geoidheight>225</geoidheight>
	</trkpt>
	<trkpt lat="50.725819" lon="6.171573">
		<ele>271</ele>
		<time>2011-09-11T08:35:47.869Z</time>
		<geoidheight>225</geoidheight>
	</trkpt>
	<trkpt lat="50.725825" lon="6.171596">
		<ele>271</ele>
		<time>2011-09-11T08:35:48.872Z</time>
		<geoidheight>225</geoidheight>
	</trkpt>
	<trkpt lat="50.725829" lon="6.171620">
		<ele>271</ele>
		<time>2011-09-11T08:35:49.866Z</time>
		<geoidheight>225</geoidheight>
	</trkpt>
	<trkpt lat="50.725831" lon="6.171645">
		<ele>271</ele>
		<time>2011-09-11T08:35:50.867Z</time>
		<geoidheight>225</geoidheight>
	</trkpt>
	<trkpt lat="50.725836" lon="6.171666">
		<ele>271</ele>
		<time>2011-09-11T08:35:51.872Z</time>
		<geoidheight>225</geoidheight>
	</trkpt>
	<trkpt lat="50.725839" lon="6.171689">
		<ele>271</ele>
		<time>2011-09-11T08:35:52.881Z</time>
		<geoidheight>225</geoidheight>
	</trkpt>
	<trkpt lat="50.725841" lon="6.171711">
		<ele>271</ele>
		<time>2011-09-11T08:35:53.882Z</time>
		<geoidheight>225</geoidheight>
	</trkpt>
	<trkpt lat="50.725845" lon="6.171729">
		<ele>271</ele>
		<time>2011-09-11T08:35:54.882Z</time>
		<geoidheight>225</geoidheight>
	</trkpt>
	<trkpt lat="50.725849" lon="6.171742">
		<ele>271</ele>
		<time>2011-09-11T08:35:55.872Z</time>
		<geoidheight>225</geoidheight>
	</trkpt>
	<trkpt lat="50.725851" lon="6.171753">
		<ele>271</ele>
		<time>2011-09-11T08:35:56.875Z</time>
		<geoidheight>225</geoidheight>
	</trkpt>
	<trkpt lat="50.725854" lon="6.171765">
		<ele>271</ele>
		<time>2011-09-11T08:35:57.864Z</time>
		<geoidheight>225</geoidheight>
	</trkpt>
	<trkpt lat="50.725860" lon="6.171780">
		<ele>271</ele>
		<time>2011-09-11T08:35:58.870Z</time>
		<geoidheight>225</geoidheight>
	</trkpt>
	<trkpt lat="50.725863" lon="6.171797">
		<ele>271</ele>
		<time>2011-09-11T08:35:59.867Z</time>
		<geoidheight>225</geoidheight>
	</trkpt>
	<trkpt lat="50.725870" lon="6.171821">
		<ele>271</ele>
		<time>2011-09-11T08:36:00.865Z</time>
		<geoidheight>225</geoidheight>
	</trkpt>
	<trkpt lat="50.725879" lon="6.171843">
		<ele>271</ele>
		<time>2011-09-11T08:36:01.868Z</time>
		<geoidheight>225</geoidheight>
	</trkpt>
	<trkpt lat="50.725887" lon="6.171867">
		<ele>271</ele>
		<time>2011-09-11T08:36:02.881Z</time>
		<geoidheight>225</geoidheight>
	</trkpt>
	<trkpt lat="50.725893" lon="6.171890">
		<ele>271</ele>
		<time>2011-09-11T08:36:03.885Z</time>
		<geoidheight>225</geoidheight>
	</trkpt>
	<trkpt lat="50.725900" lon="6.171909">
		<ele>270</ele>
		<time>2011-09-11T08:36:04.894Z</time>
		<geoidheight>224</geoidheight>
	</trkpt>
	<trkpt lat="50.725909" lon="6.171925">
		<ele>270</ele>
		<time>2011-09-11T08:36:05.884Z</time>
		<geoidheight>224</geoidheight>
	</trkpt>
	<trkpt lat="50.725916" lon="6.171940">
		<ele>270</ele>
		<time>2011-09-11T08:36:06.887Z</time>
		<geoidheight>224</geoidheight>
	</trkpt>
	<trkpt lat="50.725918" lon="6.171959">
		<ele>270</ele>
		<time>2011-09-11T08:36:07.892Z</time>
		<geoidheight>224</geoidheight>
	</trkpt>
	<trkpt lat="50.725921" lon="6.171976">
		<ele>270</ele>
		<time>2011-09-11T08:36:08.866Z</time>
		<geoidheight>224</geoidheight>
	</trkpt>
	<trkpt lat="50.725921" lon="6.171994">
		<ele>270</ele>
		<time>2011-09-11T08:36:09.886Z</time>
		<geoidheight>224</geoidheight>
	</trkpt>
	<trkpt lat="50.725923" lon="6.172011">
		<ele>270</ele>
		<time>2011-09-11T08:36:10.880Z</time>
		<geoidheight>224</geoidheight>
	</trkpt>
	<trkpt lat="50.725931" lon="6.172022">
		<ele>270</ele>
		<time>2011-09-11T08:36:11.873Z</time>
		<geoidheight>224</geoidheight>
	</trkpt>
	<trkpt lat="50.725936" lon="6.172036">
		<ele>270</ele>
		<time>2011-09-11T08:36:12.880Z</time>
		<geoidheight>224</geoidheight>
	</trkpt>
	<trkpt lat="50.725946" lon="6.172047">
		<ele>270</ele>
		<time>2011-09-11T08:36:13.883Z</time>
		<geoidheight>224</geoidheight>
	</trkpt>
	<trkpt lat="50.725954" lon="6.172064">
		<ele>270</ele>
		<time>2011-09-11T08:36:14.883Z</time>
		<geoidheight>224</geoidheight>
	</trkpt>
	<trkpt lat="50.725965" lon="6.172078">
		<ele>270</ele>
		<time>2011-09-11T08:36:15.885Z</time>
		<geoidheight>224</geoidheight>
	</trkpt>
	<trkpt lat="50.725973" lon="6.172095">
		<ele>270</ele>
		<time>2011-09-11T08:36:16.876Z</time>
		<geoidheight>224</geoidheight>
	</trkpt>
	<trkpt lat="50.725980" lon="6.172114">
		<ele>270</ele>
		<time>2011-09-11T08:36:17.872Z</time>
		<geoidheight>224</geoidheight>
	</trkpt>
	<trkpt lat="50.725987" lon="6.172130">
		<ele>270</ele>
		<time>2011-09-11T08:36:18.867Z</time>
		<geoidheight>224</geoidheight>
	</trkpt>
	<trkpt lat="50.725990" lon="6.172147">
		<ele>270</ele>
		<time>2011-09-11T08:36:19.864Z</time>
		<geoidheight>224</geoidheight>
	</trkpt>
	<trkpt lat="50.725981" lon="6.172165">
		<ele>270</ele>
		<time>2011-09-11T08:36:20.869Z</time>
		<geoidheight>224</geoidheight>
	</trkpt>
	<trkpt lat="50.725974" lon="6.172183">
		<ele>270</ele>
		<time>2011-09-11T08:36:21.883Z</time>
		<geoidheight>224</geoidheight>
	</trkpt>
	<trkpt lat="50.725975" lon="6.172206">
		<ele>270</ele>
		<time>2011-09-11T08:36:22.879Z</time>
		<geoidheight>224</geoidheight>
	</trkpt>
	<trkpt lat="50.725977" lon="6.172227">
		<ele>270</ele>
		<time>2011-09-11T08:36:23.878Z</time>
		<geoidheight>224</geoidheight>
	</trkpt>
	<trkpt lat="50.725981" lon="6.172250">
		<ele>270</ele>
		<time>2011-09-11T08:36:24.882Z</time>
		<geoidheight>224</geoidheight>
	</trkpt>
	<trkpt lat="50.725991" lon="6.172269">
		<ele>270</ele>
		<time>2011-09-11T08:36:25.903Z</time>
		<geoidheight>224</geoidheight>
	</trkpt>
	<trkpt lat="50.725996" lon="6.172296">
		<ele>270</ele>
		<time>2011-09-11T08:36:26.879Z</time>
		<geoidheight>224</geoidheight>
	</trkpt>
	<trkpt lat="50.726013" lon="6.172324">
		<ele>270</ele>
		<time>2011-09-11T08:36:27.879Z</time>
		<geoidheight>224</geoidheight>
	</trkpt>
	<trkpt lat="50.726035" lon="6.172352">
		<ele>270</ele>
		<time>2011-09-11T08:36:28.874Z</time>
		<geoidheight>224</geoidheight>
	</trkpt>
	<trkpt lat="50.726055" lon="6.172378">
		<ele>270</ele>
		<time>2011-09-11T08:36:29.882Z</time>
		<geoidheight>224</geoidheight>
	</trkpt>
	<trkpt lat="50.726067" lon="6.172404">
		<ele>270</ele>
		<time>2011-09-11T08:36:30.883Z</time>
		<geoidheight>224</geoidheight>
	</trkpt>
	<trkpt lat="50.726079" lon="6.172428">
		<ele>270</ele>
		<time>2011-09-11T08:36:31.881Z</time>
		<geoidheight>224</geoidheight>
	</trkpt>
	<trkpt lat="50.726084" lon="6.172454">
		<ele>270</ele>
		<time>2011-09-11T08:36:32.883Z</time>
		<geoidheight>224</geoidheight>
	</trkpt>
	<trkpt lat="50.726097" lon="6.172476">
		<ele>270</ele>
		<time>2011-09-11T08:36:33.873Z</time>
		<geoidheight>224</geoidheight>
	</trkpt>
	<trkpt lat="50.726111" lon="6.172498">
		<ele>270</ele>
		<time>2011-09-11T08:36:34.869Z</time>
		<geoidheight>224</geoidheight>
	</trkpt>
	<trkpt lat="50.726122" lon="6.172521">
		<ele>270</ele>
		<time>2011-09-11T08:36:35.875Z</time>
		<geoidheight>224</geoidheight>
	</trkpt>
	<trkpt lat="50.726133" lon="6.172538">
		<ele>270</ele>
		<time>2011-09-11T08:36:36.863Z</time>
		<geoidheight>224</geoidheight>
	</trkpt>
	<trkpt lat="50.726142" lon="6.172556">
		<ele>270</ele>
		<time>2011-09-11T08:36:37.860Z</time>
		<geoidheight>224</geoidheight>
	</trkpt>
	<trkpt lat="50.726152" lon="6.172574">
		<ele>270</ele>
		<time>2011-09-11T08:36:38.852Z</time>
		<geoidheight>224</geoidheight>
	</trkpt>
	<trkpt lat="50.726157" lon="6.172597">
		<ele>269</ele>
		<time>2011-09-11T08:36:39.855Z</time>
		<geoidheight>223</geoidheight>
	</trkpt>
	<trkpt lat="50.726158" lon="6.172623">
		<ele>269</ele>
		<time>2011-09-11T08:36:40.854Z</time>
		<geoidheight>223</geoidheight>
	</trkpt>
	<trkpt lat="50.726166" lon="6.172644">
		<ele>269</ele>
		<time>2011-09-11T08:36:41.854Z</time>
		<geoidheight>223</geoidheight>
	</trkpt>
	<trkpt lat="50.726175" lon="6.172665">
		<ele>269</ele>
		<time>2011-09-11T08:36:42.857Z</time>
		<geoidheight>223</geoidheight>
	</trkpt>
	<trkpt lat="50.726186" lon="6.172681">
		<ele>269</ele>
		<time>2011-09-11T08:36:43.856Z</time>
		<geoidheight>223</geoidheight>
	</trkpt>
	<trkpt lat="50.726196" lon="6.172698">
		<ele>269</ele>
		<time>2011-09-11T08:36:44.854Z</time>
		<geoidheight>223</geoidheight>
	</trkpt>
	<trkpt lat="50.726200" lon="6.172717">
		<ele>269</ele>
		<time>2011-09-11T08:36:45.853Z</time>
		<geoidheight>223</geoidheight>
	</trkpt>
	<trkpt lat="50.726207" lon="6.172733">
		<ele>269</ele>
		<time>2011-09-11T08:36:46.855Z</time>
		<geoidheight>223</geoidheight>
	</trkpt>
	<trkpt lat="50.726213" lon="6.172749">
		<ele>269</ele>
		<time>2011-09-11T08:36:47.854Z</time>
		<geoidheight>223</geoidheight>
	</trkpt>
	<trkpt lat="50.726220" lon="6.172766">
		<ele>269</ele>
		<time>2011-09-11T08:36:48.856Z</time>
		<geoidheight>223</geoidheight>
	</trkpt>
	<trkpt lat="50.726230" lon="6.172781">
		<ele>269</ele>
		<time>2011-09-11T08:36:49.865Z</time>
		<geoidheight>223</geoidheight>
	</trkpt>
	<trkpt lat="50.726239" lon="6.172798">
		<ele>269</ele>
		<time>2011-09-11T08:36:50.858Z</time>
		<geoidheight>223</geoidheight>
	</trkpt>
	<trkpt lat="50.726250" lon="6.172814">
		<ele>269</ele>
		<time>2011-09-11T08:36:51.863Z</time>
		<geoidheight>223</geoidheight>
	</trkpt>
	<trkpt lat="50.726258" lon="6.172833">
		<ele>269</ele>
		<time>2011-09-11T08:36:52.858Z</time>
		<geoidheight>223</geoidheight>
	</trkpt>
	<trkpt lat="50.726265" lon="6.172853">
		<ele>269</ele>
		<time>2011-09-11T08:36:53.869Z</time>
		<geoidheight>223</geoidheight>
	</trkpt>
	<trkpt lat="50.726275" lon="6.172866">
		<ele>269</ele>
		<time>2011-09-11T08:36:54.875Z</time>
		<geoidheight>223</geoidheight>
	</trkpt>
	<trkpt lat="50.726285" lon="6.172881">
		<ele>269</ele>
		<time>2011-09-11T08:36:55.865Z</time>
		<geoidheight>223</geoidheight>
	</trkpt>
	<trkpt lat="50.726297" lon="6.172893">
		<ele>269</ele>
		<time>2011-09-11T08:36:56.871Z</time>
		<geoidheight>223</geoidheight>
	</trkpt>
	<trkpt lat="50.726304" lon="6.172909">
		<ele>269</ele>
		<time>2011-09-11T08:36:57.857Z</time>
		<geoidheight>223</geoidheight>
	</trkpt>
	<trkpt lat="50.726309" lon="6.172922">
		<ele>269</ele>
		<time>2011-09-11T08:36:58.861Z</time>
		<geoidheight>223</geoidheight>
	</trkpt>
	<trkpt lat="50.726317" lon="6.172933">
		<ele>269</ele>
		<time>2011-09-11T08:36:59.859Z</time>
		<geoidheight>223</geoidheight>
	</trkpt>
	<trkpt lat="50.726324" lon="6.172946">
		<ele>269</ele>
		<time>2011-09-11T08:37:00.859Z</time>
		<geoidheight>223</geoidheight>
	</trkpt>
	<trkpt lat="50.726332" lon="6.172960">
		<ele>269</ele>
		<time>2011-09-11T08:37:01.859Z</time>
		<geoidheight>223</geoidheight>
	</trkpt>
	<trkpt lat="50.726341" lon="6.172972">
		<ele>269</ele>
		<time>2011-09-11T08:37:02.857Z</time>
		<geoidheight>223</geoidheight>
	</trkpt>
	<trkpt lat="50.726351" lon="6.172985">
		<ele>269</ele>
		<time>2011-09-11T08:37:03.858Z</time>
		<geoidheight>223</geoidheight>
	</trkpt>
	<trkpt lat="50.726358" lon="6.173002">
		<ele>269</ele>
		<time>2011-09-11T08:37:04.858Z</time>
		<geoidheight>223</geoidheight>
	</trkpt>
	<trkpt lat="50.726361" lon="6.173021">
		<ele>269</ele>
		<time>2011-09-11T08:37:05.860Z</time>
		<geoidheight>223</geoidheight>
	</trkpt>
	<trkpt lat="50.726364" lon="6.173040">
		<ele>269</ele>
		<time>2011-09-11T08:37:06.856Z</time>
		<geoidheight>223</geoidheight>
	</trkpt>
	<trkpt lat="50.726367" lon="6.173058">
		<ele>269</ele>
		<time>2011-09-11T08:37:07.855Z</time>
		<geoidheight>223</geoidheight>
	</trkpt>
	<trkpt lat="50.726370" lon="6.173075">
		<ele>269</ele>
		<time>2011-09-11T08:37:08.859Z</time>
		<geoidheight>223</geoidheight>
	</trkpt>
	<trkpt lat="50.726374" lon="6.173093">
		<ele>269</ele>
		<time>2011-09-11T08:37:09.869Z</time>
		<geoidheight>223</geoidheight>
	</trkpt>
	<trkpt lat="50.726382" lon="6.173111">
		<ele>269</ele>
		<time>2011-09-11T08:37:10.858Z</time>
		<geoidheight>223</geoidheight>
	</trkpt>
	<trkpt lat="50.726387" lon="6.173135">
		<ele>269</ele>
		<time>2011-09-11T08:37:11.861Z</time>
		<geoidheight>223</geoidheight>
	</trkpt>
	<trkpt lat="50.726395" lon="6.173156">
		<ele>269</ele>
		<time>2011-09-11T08:37:12.857Z</time>
		<geoidheight>223</geoidheight>
	</trkpt>
	<trkpt lat="50.726403" lon="6.173177">
		<ele>269</ele>
		<time>2011-09-11T08:37:13.858Z</time>
		<geoidheight>223</geoidheight>
	</trkpt>
	<trkpt lat="50.726410" lon="6.173197">
		<ele>269</ele>
		<time>2011-09-11T08:37:14.859Z</time>
		<geoidheight>223</geoidheight>
	</trkpt>
	<trkpt lat="50.726417" lon="6.173218">
		<ele>269</ele>
		<time>2011-09-11T08:37:15.875Z</time>
		<geoidheight>223</geoidheight>
	</trkpt>
	<trkpt lat="50.726424" lon="6.173240">
		<ele>269</ele>
		<time>2011-09-11T08:37:16.886Z</time>
		<geoidheight>223</geoidheight>
	</trkpt>
	<trkpt lat="50.726430" lon="6.173258">
		<ele>269</ele>
		<time>2011-09-11T08:37:17.875Z</time>
		<geoidheight>223</geoidheight>
	</trkpt>
	<trkpt lat="50.726438" lon="6.173272">
		<ele>268</ele>
		<time>2011-09-11T08:37:18.859Z</time>
		<geoidheight>222</geoidheight>
	</trkpt>
	<trkpt lat="50.726446" lon="6.173287">
		<ele>268</ele>
		<time>2011-09-11T08:37:19.868Z</time>
		<geoidheight>222</geoidheight>
	</trkpt>
	<trkpt lat="50.726454" lon="6.173301">
		<ele>268</ele>
		<time>2011-09-11T08:37:20.869Z</time>
		<geoidheight>222</geoidheight>
	</trkpt>
	<trkpt lat="50.726466" lon="6.173307">
		<ele>268</ele>
		<time>2011-09-11T08:37:21.882Z</time>
		<geoidheight>222</geoidheight>
	</trkpt>
	<trkpt lat="50.726476" lon="6.173316">
		<ele>268</ele>
		<time>2011-09-11T08:37:22.879Z</time>
		<geoidheight>222</geoidheight>
	</trkpt>
	<trkpt lat="50.726485" lon="6.173326">
		<ele>268</ele>
		<time>2011-09-11T08:37:23.883Z</time>
		<geoidheight>222</geoidheight>
	</trkpt>
	<trkpt lat="50.726495" lon="6.173337">
		<ele>268</ele>
		<time>2011-09-11T08:37:24.881Z</time>
		<geoidheight>222</geoidheight>
	</trkpt>
	<trkpt lat="50.726506" lon="6.173349">
		<ele>268</ele>
		<time>2011-09-11T08:37:25.889Z</time>
		<geoidheight>222</geoidheight>
	</trkpt>
	<trkpt lat="50.726515" lon="6.173364">
		<ele>268</ele>
		<time>2011-09-11T08:37:26.886Z</time>
		<geoidheight>222</geoidheight>
	</trkpt>
	<trkpt lat="50.726521" lon="6.173381">
		<ele>268</ele>
		<time>2011-09-11T08:37:27.882Z</time>
		<geoidheight>222</geoidheight>
	</trkpt>
	<trkpt lat="50.726527" lon="6.173395">
		<ele>268</ele>
		<time>2011-09-11T08:37:28.881Z</time>
		<geoidheight>222</geoidheight>
	</trkpt>
	<trkpt lat="50.726536" lon="6.173411">
		<ele>268</ele>
		<time>2011-09-11T08:37:29.870Z</time>
		<geoidheight>222</geoidheight>
	</trkpt>
	<trkpt lat="50.726546" lon="6.173425">
		<ele>268</ele>
		<time>2011-09-11T08:37:30.871Z</time>
		<geoidheight>222</geoidheight>
	</trkpt>
	<trkpt lat="50.726555" lon="6.173441">
		<ele>268</ele>
		<time>2011-09-11T08:37:31.869Z</time>
		<geoidheight>222</geoidheight>
	</trkpt>
	<trkpt lat="50.726562" lon="6.173455">
		<ele>268</ele>
		<time>2011-09-11T08:37:32.869Z</time>
		<geoidheight>222</geoidheight>
	</trkpt>
	<trkpt lat="50.726571" lon="6.173468">
		<ele>267</ele>
		<time>2011-09-11T08:37:33.868Z</time>
		<geoidheight>221</geoidheight>
	</trkpt>
	<trkpt lat="50.726577" lon="6.173484">
		<ele>267</ele>
		<time>2011-09-11T08:37:34.874Z</time>
		<geoidheight>221</geoidheight>
	</trkpt>
	<trkpt lat="50.726582" lon="6.173503">
		<ele>267</ele>
		<time>2011-09-11T08:37:35.870Z</time>
		<geoidheight>221</geoidheight>
	</trkpt>
	<trkpt lat="50.726590" lon="6.173523">
		<ele>267</ele>
		<time>2011-09-11T08:37:36.876Z</time>
		<geoidheight>221</geoidheight>
	</trkpt>
	<trkpt lat="50.726600" lon="6.173541">
		<ele>267</ele>
		<time>2011-09-11T08:37:37.867Z</time>
		<geoidheight>221</geoidheight>
	</trkpt>
	<trkpt lat="50.726613" lon="6.173558">
		<ele>267</ele>
		<time>2011-09-11T08:37:38.866Z</time>
		<geoidheight>221</geoidheight>
	</trkpt>
	<trkpt lat="50.726624" lon="6.173576">
		<ele>267</ele>
		<time>2011-09-11T08:37:39.873Z</time>
		<geoidheight>221</geoidheight>
	</trkpt>
	<trkpt lat="50.726634" lon="6.173589">
		<ele>267</ele>
		<time>2011-09-11T08:37:40.866Z</time>
		<geoidheight>221</geoidheight>
	</trkpt>
	<trkpt lat="50.726644" lon="6.173604">
		<ele>267</ele>
		<time>2011-09-11T08:37:41.871Z</time>
		<geoidheight>221</geoidheight>
	</trkpt>
	<trkpt lat="50.726655" lon="6.173618">
		<ele>267</ele>
		<time>2011-09-11T08:37:42.869Z</time>
		<geoidheight>221</geoidheight>
	</trkpt>
	<trkpt lat="50.726664" lon="6.173637">
		<ele>266</ele>
		<time>2011-09-11T08:37:43.874Z</time>
		<geoidheight>220</geoidheight>
	</trkpt>
	<trkpt lat="50.726674" lon="6.173654">
		<ele>266</ele>
		<time>2011-09-11T08:37:44.871Z</time>
		<geoidheight>220</geoidheight>
	</trkpt>
	<trkpt lat="50.726684" lon="6.173671">
		<ele>266</ele>
		<time>2011-09-11T08:37:45.854Z</time>
		<geoidheight>220</geoidheight>
	</trkpt>
	<trkpt lat="50.726694" lon="6.173689">
		<ele>266</ele>
		<time>2011-09-11T08:37:46.861Z</time>
		<geoidheight>220</geoidheight>
	</trkpt>
	<trkpt lat="50.726701" lon="6.173707">
		<ele>266</ele>
		<time>2011-09-11T08:37:47.856Z</time>
		<geoidheight>220</geoidheight>
	</trkpt>
	<trkpt lat="50.726706" lon="6.173724">
		<ele>266</ele>
		<time>2011-09-11T08:37:48.857Z</time>
		<geoidheight>220</geoidheight>
	</trkpt>
	<trkpt lat="50.726711" lon="6.173742">
		<ele>266</ele>
		<time>2011-09-11T08:37:49.856Z</time>
		<geoidheight>220</geoidheight>
	</trkpt>
	<trkpt lat="50.726723" lon="6.173757">
		<ele>266</ele>
		<time>2011-09-11T08:37:50.862Z</time>
		<geoidheight>220</geoidheight>
	</trkpt>
	<trkpt lat="50.726736" lon="6.173775">
		<ele>266</ele>
		<time>2011-09-11T08:37:51.858Z</time>
		<geoidheight>220</geoidheight>
	</trkpt>
	<trkpt lat="50.726745" lon="6.173793">
		<ele>265</ele>
		<time>2011-09-11T08:37:52.862Z</time>
		<geoidheight>219</geoidheight>
	</trkpt>
	<trkpt lat="50.726754" lon="6.173811">
		<ele>265</ele>
		<time>2011-09-11T08:37:53.859Z</time>
		<geoidheight>219</geoidheight>
	</trkpt>
	<trkpt lat="50.726761" lon="6.173831">
		<ele>265</ele>
		<time>2011-09-11T08:37:54.859Z</time>
		<geoidheight>219</geoidheight>
	</trkpt>
	<trkpt lat="50.726769" lon="6.173853">
		<ele>265</ele>
		<time>2011-09-11T08:37:55.864Z</time>
		<geoidheight>219</geoidheight>
	</trkpt>
	<trkpt lat="50.726776" lon="6.173877">
		<ele>265</ele>
		<time>2011-09-11T08:37:56.860Z</time>
		<geoidheight>219</geoidheight>
	</trkpt>
	<trkpt lat="50.726781" lon="6.173902">
		<ele>265</ele>
		<time>2011-09-11T08:37:57.857Z</time>
		<geoidheight>219</geoidheight>
	</trkpt>
	<trkpt lat="50.726791" lon="6.173931">
		<ele>265</ele>
		<time>2011-09-11T08:37:58.859Z</time>
		<geoidheight>219</geoidheight>
	</trkpt>
	<trkpt lat="50.726797" lon="6.173959">
		<ele>265</ele>
		<time>2011-09-11T08:37:59.863Z</time>
		<geoidheight>219</geoidheight>
	</trkpt>
	<trkpt lat="50.726804" lon="6.173985">
		<ele>265</ele>
		<time>2011-09-11T08:38:00.860Z</time>
		<geoidheight>219</geoidheight>
	</trkpt>
	<trkpt lat="50.726810" lon="6.174010">
		<ele>264</ele>
		<time>2011-09-11T08:38:01.857Z</time>
		<geoidheight>218</geoidheight>
	</trkpt>
	<trkpt lat="50.726816" lon="6.174034">
		<ele>264</ele>
		<time>2011-09-11T08:38:02.867Z</time>
		<geoidheight>218</geoidheight>
	</trkpt>
	<trkpt lat="50.726823" lon="6.174057">
		<ele>264</ele>
		<time>2011-09-11T08:38:03.863Z</time>
		<geoidheight>218</geoidheight>
	</trkpt>
	<trkpt lat="50.726830" lon="6.174081">
		<ele>264</ele>
		<time>2011-09-11T08:38:04.868Z</time>
		<geoidheight>218</geoidheight>
	</trkpt>
	<trkpt lat="50.726839" lon="6.174104">
		<ele>264</ele>
		<time>2011-09-11T08:38:05.864Z</time>
		<geoidheight>218</geoidheight>
	</trkpt>
	<trkpt lat="50.726852" lon="6.174125">
		<ele>264</ele>
		<time>2011-09-11T08:38:06.858Z</time>
		<geoidheight>218</geoidheight>
	</trkpt>
	<trkpt lat="50.726863" lon="6.174146">
		<ele>264</ele>
		<time>2011-09-11T08:38:07.856Z</time>
		<geoidheight>218</geoidheight>
	</trkpt>
	<trkpt lat="50.726874" lon="6.174165">
		<ele>264</ele>
		<time>2011-09-11T08:38:08.856Z</time>
		<geoidheight>218</geoidheight>
	</trkpt>
	<trkpt lat="50.726883" lon="6.174183">
		<ele>264</ele>
		<time>2011-09-11T08:38:09.857Z</time>
		<geoidheight>218</geoidheight>
	</trkpt>
	<trkpt lat="50.726891" lon="6.174203">
		<ele>264</ele>
		<time>2011-09-11T08:38:10.857Z</time>
		<geoidheight>218</geoidheight>
	</trkpt>
	<trkpt lat="50.726902" lon="6.174219">
		<ele>264</ele>
		<time>2011-09-11T08:38:11.864Z</time>
		<geoidheight>218</geoidheight>
	</trkpt>
	<trkpt lat="50.726912" lon="6.174237">
		<ele>264</ele>
		<time>2011-09-11T08:38:12.860Z</time>
		<geoidheight>218</geoidheight>
	</trkpt>
	<trkpt lat="50.726925" lon="6.174258">
		<ele>264</ele>
		<time>2011-09-11T08:38:13.856Z</time>
		<geoidheight>218</geoidheight>
	</trkpt>
	<trkpt lat="50.726940" lon="6.174276">
		<ele>263</ele>
		<time>2011-09-11T08:38:14.855Z</time>
		<geoidheight>217</geoidheight>
	</trkpt>
	<trkpt lat="50.726954" lon="6.174289">
		<ele>263</ele>
		<time>2011-09-11T08:38:15.864Z</time>
		<geoidheight>217</geoidheight>
	</trkpt>
	<trkpt lat="50.726969" lon="6.174308">
		<ele>263</ele>
		<time>2011-09-11T08:38:16.856Z</time>
		<geoidheight>217</geoidheight>
	</trkpt>
	<trkpt lat="50.726984" lon="6.174328">
		<ele>263</ele>
		<time>2011-09-11T08:38:17.856Z</time>
		<geoidheight>217</geoidheight>
	</trkpt>
	<trkpt lat="50.727002" lon="6.174351">
		<ele>263</ele>
		<time>2011-09-11T08:38:18.859Z</time>
		<geoidheight>217</geoidheight>
	</trkpt>
	<trkpt lat="50.727021" lon="6.174374">
		<ele>263</ele>
		<time>2011-09-11T08:38:19.861Z</time>
		<geoidheight>217</geoidheight>
	</trkpt>
	<trkpt lat="50.727039" lon="6.174397">
		<ele>263</ele>
		<time>2011-09-11T08:38:20.862Z</time>
		<geoidheight>217</geoidheight>
	</trkpt>
	<trkpt lat="50.727057" lon="6.174418">
		<ele>263</ele>
		<time>2011-09-11T08:38:21.865Z</time>
		<geoidheight>217</geoidheight>
	</trkpt>
	<trkpt lat="50.727071" lon="6.174442">
		<ele>263</ele>
		<time>2011-09-11T08:38:22.855Z</time>
		<geoidheight>217</geoidheight>
	</trkpt>
	<trkpt lat="50.727084" lon="6.174463">
		<ele>263</ele>
		<time>2011-09-11T08:38:23.856Z</time>
		<geoidheight>217</geoidheight>
	</trkpt>
	<trkpt lat="50.727092" lon="6.174482">
		<ele>263</ele>
		<time>2011-09-11T08:38:24.854Z</time>
		<geoidheight>217</geoidheight>
	</trkpt>
	<trkpt lat="50.727101" lon="6.174501">
		<ele>263</ele>
		<time>2011-09-11T08:38:25.855Z</time>
		<geoidheight>217</geoidheight>
	</trkpt>
	<trkpt lat="50.727114" lon="6.174516">
		<ele>263</ele>
		<time>2011-09-11T08:38:26.857Z</time>
		<geoidheight>217</geoidheight>
	</trkpt>
	<trkpt lat="50.727128" lon="6.174529">
		<ele>263</ele>
		<time>2011-09-11T08:38:27.855Z</time>
		<geoidheight>217</geoidheight>
	</trkpt>
	<trkpt lat="50.727138" lon="6.174546">
		<ele>263</ele>
		<time>2011-09-11T08:38:28.854Z</time>
		<geoidheight>217</geoidheight>
	</trkpt>
	<trkpt lat="50.727145" lon="6.174566">
		<ele>263</ele>
		<time>2011-09-11T08:38:29.855Z</time>
		<geoidheight>217</geoidheight>
	</trkpt>
	<trkpt lat="50.727153" lon="6.174585">
		<ele>263</ele>
		<time>2011-09-11T08:38:30.856Z</time>
		<geoidheight>217</geoidheight>
	</trkpt>
	<trkpt lat="50.727165" lon="6.174599">
		<ele>263</ele>
		<time>2011-09-11T08:38:31.855Z</time>
		<geoidheight>217</geoidheight>
	</trkpt>
	<trkpt lat="50.727177" lon="6.174610">
		<ele>263</ele>
		<time>2011-09-11T08:38:32.855Z</time>
		<geoidheight>217</geoidheight>
	</trkpt>
	<trkpt lat="50.727189" lon="6.174624">
		<ele>263</ele>
		<time>2011-09-11T08:38:33.854Z</time>
		<geoidheight>217</geoidheight>
	</trkpt>
	<trkpt lat="50.727198" lon="6.174642">
		<ele>263</ele>
		<time>2011-09-11T08:38:34.854Z</time>
		<geoidheight>217</geoidheight>
	</trkpt>
	<trkpt lat="50.727207" lon="6.174658">
		<ele>262</ele>
		<time>2011-09-11T08:38:35.863Z</time>
		<geoidheight>216</geoidheight>
	</trkpt>
	<trkpt lat="50.727217" lon="6.174675">
		<ele>262</ele>
		<time>2011-09-11T08:38:36.855Z</time>
		<geoidheight>216</geoidheight>
	</trkpt>
	<trkpt lat="50.727227" lon="6.174691">
		<ele>262</ele>
		<time>2011-09-11T08:38:37.856Z</time>
		<geoidheight>216</geoidheight>
	</trkpt>
	<trkpt lat="50.727238" lon="6.174706">
		<ele>262</ele>
		<time>2011-09-11T08:38:38.855Z</time>
		<geoidheight>216</geoidheight>
	</trkpt>
	<trkpt lat="50.727250" lon="6.174719">
		<ele>262</ele>
		<time>2011-09-11T08:38:39.856Z</time>
		<geoidheight>216</geoidheight>
	</trkpt>
	<trkpt lat="50.727258" lon="6.174734">
		<ele>262</ele>
		<time>2011-09-11T08:38:40.856Z</time>
		<geoidheight>216</geoidheight>
	</trkpt>
	<trkpt lat="50.727264" lon="6.174751">
		<ele>262</ele>
		<time>2011-09-11T08:38:41.854Z</time>
		<geoidheight>216</geoidheight>
	</trkpt>
	<trkpt lat="50.727272" lon="6.174767">
		<ele>262</ele>
		<time>2011-09-11T08:38:42.855Z</time>
		<geoidheight>216</geoidheight>
	</trkpt>
	<trkpt lat="50.727279" lon="6.174782">
		<ele>262</ele>
		<time>2011-09-11T08:38:43.855Z</time>
		<geoidheight>216</geoidheight>
	</trkpt>
	<trkpt lat="50.727285" lon="6.174798">
		<ele>262</ele>
		<time>2011-09-11T08:38:44.856Z</time>
		<geoidheight>216</geoidheight>
	</trkpt>
	<trkpt lat="50.727291" lon="6.174812">
		<ele>262</ele>
		<time>2011-09-11T08:38:45.856Z</time>
		<geoidheight>216</geoidheight>
	</trkpt>
	<trkpt lat="50.727297" lon="6.174828">
		<ele>262</ele>
		<time>2011-09-11T08:38:46.854Z</time>
		<geoidheight>216</geoidheight>
	</trkpt>
	<trkpt lat="50.727303" lon="6.174844">
		<ele>262</ele>
		<time>2011-09-11T08:38:47.855Z</time>
		<geoidheight>216</geoidheight>
	</trkpt>
	<trkpt lat="50.727315" lon="6.174856">
		<ele>262</ele>
		<time>2011-09-11T08:38:48.863Z</time>
		<geoidheight>216</geoidheight>
	</trkpt>
	<trkpt lat="50.727327" lon="6.174868">
		<ele>262</ele>
		<time>2011-09-11T08:38:49.860Z</time>
		<geoidheight>216</geoidheight>
	</trkpt>
	<trkpt lat="50.727336" lon="6.174884">
		<ele>262</ele>
		<time>2011-09-11T08:38:50.859Z</time>
		<geoidheight>216</geoidheight>
	</trkpt>
	<trkpt lat="50.727347" lon="6.174898">
		<ele>262</ele>
		<time>2011-09-11T08:38:51.861Z</time>
		<geoidheight>216</geoidheight>
	</trkpt>
	<trkpt lat="50.727358" lon="6.174910">
		<ele>262</ele>
		<time>2011-09-11T08:38:52.859Z</time>
		<geoidheight>216</geoidheight>
	</trkpt>
	<trkpt lat="50.727370" lon="6.174920">
		<ele>262</ele>
		<time>2011-09-11T08:38:53.856Z</time>
		<geoidheight>216</geoidheight>
	</trkpt>
	<trkpt lat="50.727381" lon="6.174931">
		<ele>262</ele>
		<time>2011-09-11T08:38:54.861Z</time>
		<geoidheight>216</geoidheight>
	</trkpt>
	<trkpt lat="50.727393" lon="6.174944">
		<ele>262</ele>
		<time>2011-09-11T08:38:55.858Z</time>
		<geoidheight>216</geoidheight>
	</trkpt>
	<trkpt lat="50.727403" lon="6.174962">
		<ele>262</ele>
		<time>2011-09-11T08:38:56.861Z</time>
		<geoidheight>216</geoidheight>
	</trkpt>
	<trkpt lat="50.727407" lon="6.174982">
		<ele>262</ele>
		<time>2011-09-11T08:38:57.867Z</time>
		<geoidheight>216</geoidheight>
	</trkpt>
	<trkpt lat="50.727410" lon="6.175000">
		<ele>262</ele>
		<time>2011-09-11T08:38:58.861Z</time>
		<geoidheight>216</geoidheight>
	</trkpt>
	<trkpt lat="50.727420" lon="6.175014">
		<ele>262</ele>
		<time>2011-09-11T08:38:59.857Z</time>
		<geoidheight>216</geoidheight>
	</trkpt>
	<trkpt lat="50.727426" lon="6.175031">
		<ele>262</ele>
		<time>2011-09-11T08:39:00.858Z</time>
		<geoidheight>216</geoidheight>
	</trkpt>
	<trkpt lat="50.727434" lon="6.175048">
		<ele>262</ele>
		<time>2011-09-11T08:39:01.860Z</time>
		<geoidheight>216</geoidheight>
	</trkpt>
	<trkpt lat="50.727440" lon="6.175067">
		<ele>262</ele>
		<time>2011-09-11T08:39:02.860Z</time>
		<geoidheight>216</geoidheight>
	</trkpt>
	<trkpt lat="50.727445" lon="6.175084">
		<ele>262</ele>
		<time>2011-09-11T08:39:03.858Z</time>
		<geoidheight>216</geoidheight>
	</trkpt>
	<trkpt lat="50.727454" lon="6.175099">
		<ele>262</ele>
		<time>2011-09-11T08:39:04.859Z</time>
		<geoidheight>216</geoidheight>
	</trkpt>
	<trkpt lat="50.727460" lon="6.175116">
		<ele>262</ele>
		<time>2011-09-11T08:39:05.853Z</time>
		<geoidheight>216</geoidheight>
	</trkpt>
	<trkpt lat="50.727467" lon="6.175132">
		<ele>262</ele>
		<time>2011-09-11T08:39:06.857Z</time>
		<geoidheight>216</geoidheight>
	</trkpt>
	<trkpt lat="50.727476" lon="6.175147">
		<ele>262</ele>
		<time>2011-09-11T08:39:07.854Z</time>
		<geoidheight>216</geoidheight>
	</trkpt>
	<trkpt lat="50.727482" lon="6.175165">
		<ele>262</ele>
		<time>2011-09-11T08:39:08.855Z</time>
		<geoidheight>216</geoidheight>
	</trkpt>
	<trkpt lat="50.727491" lon="6.175181">
		<ele>262</ele>
		<time>2011-09-11T08:39:09.855Z</time>
		<geoidheight>216</geoidheight>
	</trkpt>
	<trkpt lat="50.727498" lon="6.175200">
		<ele>261</ele>
		<time>2011-09-11T08:39:10.855Z</time>
		<geoidheight>215</geoidheight>
	</trkpt>
	<trkpt lat="50.727503" lon="6.175219">
		<ele>261</ele>
		<time>2011-09-11T08:39:11.855Z</time>
		<geoidheight>215</geoidheight>
	</trkpt>
	<trkpt lat="50.727509" lon="6.175237">
		<ele>261</ele>
		<time>2011-09-11T08:39:12.857Z</time>
		<geoidheight>215</geoidheight>
	</trkpt>
	<trkpt lat="50.727514" lon="6.175256">
		<ele>261</ele>
		<time>2011-09-11T08:39:13.854Z</time>
		<geoidheight>215</geoidheight>
	</trkpt>
	<trkpt lat="50.727521" lon="6.175275">
		<ele>261</ele>
		<time>2011-09-11T08:39:14.857Z</time>
		<geoidheight>215</geoidheight>
	</trkpt>
	<trkpt lat="50.727528" lon="6.175295">
		<ele>261</ele>
		<time>2011-09-11T08:39:15.854Z</time>
		<geoidheight>215</geoidheight>
	</trkpt>
	<trkpt lat="50.727536" lon="6.175314">
		<ele>261</ele>
		<time>2011-09-11T08:39:16.856Z</time>
		<geoidheight>215</geoidheight>
	</trkpt>
	<trkpt lat="50.727546" lon="6.175329">
		<ele>261</ele>
		<time>2011-09-11T08:39:17.859Z</time>
		<geoidheight>215</geoidheight>
	</trkpt>
	<trkpt lat="50.727555" lon="6.175345">
		<ele>261</ele>
		<time>2011-09-11T08:39:18.855Z</time>
		<geoidheight>215</geoidheight>
	</trkpt>
	<trkpt lat="50.727563" lon="6.175362">
		<ele>261</ele>
		<time>2011-09-11T08:39:19.859Z</time>
		<geoidheight>215</geoidheight>
	</trkpt>
	<trkpt lat="50.727572" lon="6.175378">
		<ele>261</ele>
		<time>2011-09-11T08:39:20.860Z</time>
		<geoidheight>215</geoidheight>
	</trkpt>
	<trkpt lat="50.727589" lon="6.175393">
		<ele>261</ele>
		<time>2011-09-11T08:39:21.857Z</time>
		<geoidheight>215</geoidheight>
	</trkpt>
	<trkpt lat="50.727604" lon="6.175417">
		<ele>261</ele>
		<time>2011-09-11T08:39:22.859Z</time>
		<geoidheight>215</geoidheight>
	</trkpt>
	<trkpt lat="50.727617" lon="6.175440">
		<ele>261</ele>
		<time>2011-09-11T08:39:23.860Z</time>
		<geoidheight>215</geoidheight>
	</trkpt>
	<trkpt lat="50.727632" lon="6.175459">
		<ele>261</ele>
		<time>2011-09-11T08:39:24.861Z</time>
		<geoidheight>215</geoidheight>
	</trkpt>
	<trkpt lat="50.727646" lon="6.175478">
		<ele>261</ele>
		<time>2011-09-11T08:39:25.861Z</time>
		<geoidheight>215</geoidheight>
	</trkpt>
	<trkpt lat="50.727657" lon="6.175498">
		<ele>261</ele>
		<time>2011-09-11T08:39:26.856Z</time>
		<geoidheight>215</geoidheight>
	</trkpt>
	<trkpt lat="50.727672" lon="6.175519">
		<ele>261</ele>
		<time>2011-09-11T08:39:27.858Z</time>
		<geoidheight>215</geoidheight>
	</trkpt>
	<trkpt lat="50.727688" lon="6.175534">
		<ele>261</ele>
		<time>2011-09-11T08:39:28.857Z</time>
		<geoidheight>215</geoidheight>
	</trkpt>
	<trkpt lat="50.727701" lon="6.175550">
		<ele>261</ele>
		<time>2011-09-11T08:39:29.859Z</time>
		<geoidheight>215</geoidheight>
	</trkpt>
	<trkpt lat="50.727716" lon="6.175561">
		<ele>261</ele>
		<time>2011-09-11T08:39:30.857Z</time>
		<geoidheight>215</geoidheight>
	</trkpt>
	<trkpt lat="50.727727" lon="6.175575">
		<ele>261</ele>
		<time>2011-09-11T08:39:31.860Z</time>
		<geoidheight>215</geoidheight>
	</trkpt>
	<trkpt lat="50.727739" lon="6.175585">
		<ele>261</ele>
		<time>2011-09-11T08:39:32.869Z</time>
		<geoidheight>215</geoidheight>
	</trkpt>
	<trkpt lat="50.727746" lon="6.175598">
		<ele>261</ele>
		<time>2011-09-11T08:39:33.882Z</time>
		<geoidheight>215</geoidheight>
	</trkpt>
	<trkpt lat="50.727757" lon="6.175609">
		<ele>261</ele>
		<time>2011-09-11T08:39:34.881Z</time>
		<geoidheight>215</geoidheight>
	</trkpt>
	<trkpt lat="50.727766" lon="6.175621">
		<ele>261</ele>
		<time>2011-09-11T08:39:35.878Z</time>
		<geoidheight>215</geoidheight>
	</trkpt>
	<trkpt lat="50.727780" lon="6.175628">
		<ele>261</ele>
		<time>2011-09-11T08:39:36.878Z</time>
		<geoidheight>215</geoidheight>
	</trkpt>
	<trkpt lat="50.727790" lon="6.175646">
		<ele>261</ele>
		<time>2011-09-11T08:39:37.881Z</time>
		<geoidheight>215</geoidheight>
	</trkpt>
	<trkpt lat="50.727797" lon="6.175666">
		<ele>261</ele>
		<time>2011-09-11T08:39:38.880Z</time>
		<geoidheight>215</geoidheight>
	</trkpt>
	<trkpt lat="50.727806" lon="6.175688">
		<ele>261</ele>
		<time>2011-09-11T08:39:39.868Z</time>
		<geoidheight>215</geoidheight>
	</trkpt>
	<trkpt lat="50.727818" lon="6.175710">
		<ele>261</ele>
		<time>2011-09-11T08:39:40.859Z</time>
		<geoidheight>215</geoidheight>
	</trkpt>
	<trkpt lat="50.727830" lon="6.175734">
		<ele>261</ele>
		<time>2011-09-11T08:39:41.862Z</time>
		<geoidheight>215</geoidheight>
	</trkpt>
	<trkpt lat="50.727843" lon="6.175752">
		<ele>261</ele>
		<time>2011-09-11T08:39:42.861Z</time>
		<geoidheight>215</geoidheight>
	</trkpt>
	<trkpt lat="50.727853" lon="6.175772">
		<ele>261</ele>
		<time>2011-09-11T08:39:43.861Z</time>
		<geoidheight>215</geoidheight>
	</trkpt>
	<trkpt lat="50.727863" lon="6.175794">
		<ele>261</ele>
		<time>2011-09-11T08:39:44.863Z</time>
		<geoidheight>215</geoidheight>
	</trkpt>
	<trkpt lat="50.727876" lon="6.175809">
		<ele>261</ele>
		<time>2011-09-11T08:39:45.856Z</time>
		<geoidheight>215</geoidheight>
	</trkpt>
	<trkpt lat="50.727885" lon="6.175829">
		<ele>261</ele>
		<time>2011-09-11T08:39:46.856Z</time>
		<geoidheight>215</geoidheight>
	</trkpt>
	<trkpt lat="50.727894" lon="6.175847">
		<ele>261</ele>
		<time>2011-09-11T08:39:47.855Z</time>
		<geoidheight>215</geoidheight>
	</trkpt>
	<trkpt lat="50.727901" lon="6.175863">
		<ele>261</ele>
		<time>2011-09-11T08:39:48.856Z</time>
		<geoidheight>215</geoidheight>
	</trkpt>
	<trkpt lat="50.727911" lon="6.175874">
		<ele>261</ele>
		<time>2011-09-11T08:39:49.860Z</time>
		<geoidheight>215</geoidheight>
	</trkpt>
	<trkpt lat="50.727919" lon="6.175886">
		<ele>261</ele>
		<time>2011-09-11T08:39:50.862Z</time>
		<geoidheight>215</geoidheight>
	</trkpt>
	<trkpt lat="50.727926" lon="6.175900">
		<ele>261</ele>
		<time>2011-09-11T08:39:51.869Z</time>
		<geoidheight>215</geoidheight>
	</trkpt>
	<trkpt lat="50.727933" lon="6.175916">
		<ele>261</ele>
		<time>2011-09-11T08:39:52.854Z</time>
		<geoidheight>215</geoidheight>
	</trkpt>
	<trkpt lat="50.727945" lon="6.175928">
		<ele>261</ele>
		<time>2011-09-11T08:39:53.857Z</time>
		<geoidheight>215</geoidheight>
	</trkpt>
	<trkpt lat="50.727958" lon="6.175939">
		<ele>261</ele>
		<time>2011-09-11T08:39:54.858Z</time>
		<geoidheight>215</geoidheight>
	</trkpt>
	<trkpt lat="50.727968" lon="6.175954">
		<ele>261</ele>
		<time>2011-09-11T08:39:55.855Z</time>
		<geoidheight>215</geoidheight>
	</trkpt>
	<trkpt lat="50.727978" lon="6.175968">
		<ele>261</ele>
		<time>2011-09-11T08:39:56.857Z</time>
		<geoidheight>215</geoidheight>
	</trkpt>
	<trkpt lat="50.727986" lon="6.175986">
		<ele>260</ele>
		<time>2011-09-11T08:39:57.855Z</time>
		<geoidheight>214</geoidheight>
	</trkpt>
	<trkpt lat="50.727994" lon="6.176008">
		<ele>260</ele>
		<time>2011-09-11T08:39:58.855Z</time>
		<geoidheight>214</geoidheight>
	</trkpt>
	<trkpt lat="50.727999" lon="6.176031">
		<ele>260</ele>
		<time>2011-09-11T08:39:59.856Z</time>
		<geoidheight>214</geoidheight>
	</trkpt>
	<trkpt lat="50.728006" lon="6.176057">
		<ele>260</ele>
		<time>2011-09-11T08:40:00.858Z</time>
		<geoidheight>214</geoidheight>
	</trkpt>
	<trkpt lat="50.728016" lon="6.176083">
		<ele>260</ele>
		<time>2011-09-11T08:40:01.855Z</time>
		<geoidheight>214</geoidheight>
	</trkpt>
	<trkpt lat="50.728027" lon="6.176105">
		<ele>260</ele>
		<time>2011-09-11T08:40:02.858Z</time>
		<geoidheight>214</geoidheight>
	</trkpt>
	<trkpt lat="50.728037" lon="6.176123">
		<ele>260</ele>
		<time>2011-09-11T08:40:03.854Z</time>
		<geoidheight>214</geoidheight>
	</trkpt>
	<trkpt lat="50.728049" lon="6.176140">
		<ele>260</ele>
		<time>2011-09-11T08:40:04.857Z</time>
		<geoidheight>214</geoidheight>
	</trkpt>
	<trkpt lat="50.728059" lon="6.176164">
		<ele>260</ele>
		<time>2011-09-11T08:40:05.860Z</time>
		<geoidheight>214</geoidheight>
	</trkpt>
	<trkpt lat="50.728068" lon="6.176185">
		<ele>259</ele>
		<time>2011-09-11T08:40:06.855Z</time>
		<geoidheight>213</geoidheight>
	</trkpt>
	<trkpt lat="50.728075" lon="6.176209">
		<ele>259</ele>
		<time>2011-09-11T08:40:07.855Z</time>
		<geoidheight>213</geoidheight>
	</trkpt>
	<trkpt lat="50.728081" lon="6.176234">
		<ele>259</ele>
		<time>2011-09-11T08:40:08.856Z</time>
		<geoidheight>213</geoidheight>
	</trkpt>
	<trkpt lat="50.728090" lon="6.176258">
		<ele>259</ele>
		<time>2011-09-11T08:40:09.856Z</time>
		<geoidheight>213</geoidheight>
	</trkpt>
	<trkpt lat="50.728097" lon="6.176285">
		<ele>259</ele>
		<time>2011-09-11T08:40:10.869Z</time>
		<geoidheight>213</geoidheight>
	</trkpt>
	<trkpt lat="50.728109" lon="6.176305">
		<ele>259</ele>
		<time>2011-09-11T08:40:11.864Z</time>
		<geoidheight>213</geoidheight>
	</trkpt>
	<trkpt lat="50.728123" lon="6.176316">
		<ele>259</ele>
		<time>2011-09-11T08:40:12.862Z</time>
		<geoidheight>213</geoidheight>
	</trkpt>
	<trkpt lat="50.728136" lon="6.176323">
		<ele>259</ele>
		<time>2011-09-11T08:40:13.863Z</time>
		<geoidheight>213</geoidheight>
	</trkpt>
	<trkpt lat="50.728149" lon="6.176333">
		<ele>259</ele>
		<time>2011-09-11T08:40:14.864Z</time>
		<geoidheight>213</geoidheight>
	</trkpt>
	<trkpt lat="50.728162" lon="6.176346">
		<ele>259</ele>
		<time>2011-09-11T08:40:15.861Z</time>
		<geoidheight>213</geoidheight>
	</trkpt>
	<trkpt lat="50.728175" lon="6.176361">
		<ele>258</ele>
		<time>2011-09-11T08:40:16.859Z</time>
		<geoidheight>212</geoidheight>
	</trkpt>
	<trkpt lat="50.728187" lon="6.176375">
		<ele>258</ele>
		<time>2011-09-11T08:40:17.869Z</time>
		<geoidheight>212</geoidheight>
	</trkpt>
	<trkpt lat="50.728196" lon="6.176392">
		<ele>258</ele>
		<time>2011-09-11T08:40:18.864Z</time>
		<geoidheight>212</geoidheight>
	</trkpt>
	<trkpt lat="50.728210" lon="6.176405">
		<ele>258</ele>
		<time>2011-09-11T08:40:19.861Z</time>
		<geoidheight>212</geoidheight>
	</trkpt>
	<trkpt lat="50.728220" lon="6.176424">
		<ele>258</ele>
		<time>2011-09-11T08:40:20.857Z</time>
		<geoidheight>212</geoidheight>
	</trkpt>
	<trkpt lat="50.728234" lon="6.176436">
		<ele>258</ele>
		<time>2011-09-11T08:40:21.861Z</time>
		<geoidheight>212</geoidheight>
	</trkpt>
	<trkpt lat="50.728243" lon="6.176453">
		<ele>258</ele>
		<time>2011-09-11T08:40:22.862Z</time>
		<geoidheight>212</geoidheight>
	</trkpt>
	<trkpt lat="50.728251" lon="6.176470">
		<ele>258</ele>
		<time>2011-09-11T08:40:23.855Z</time>
		<geoidheight>212</geoidheight>
	</trkpt>
	<trkpt lat="50.728257" lon="6.176489">
		<ele>258</ele>
		<time>2011-09-11T08:40:24.856Z</time>
		<geoidheight>212</geoidheight>
	</trkpt>
	<trkpt lat="50.728268" lon="6.176504">
		<ele>258</ele>
		<time>2011-09-11T08:40:25.864Z</time>
		<geoidheight>212</geoidheight>
	</trkpt>
	<trkpt lat="50.728276" lon="6.176524">
		<ele>258</ele>
		<time>2011-09-11T08:40:26.856Z</time>
		<geoidheight>212</geoidheight>
	</trkpt>
	<trkpt lat="50.728288" lon="6.176538">
		<ele>258</ele>
		<time>2011-09-11T08:40:27.857Z</time>
		<geoidheight>212</geoidheight>
	</trkpt>
	<trkpt lat="50.728296" lon="6.176554">
		<ele>258</ele>
		<time>2011-09-11T08:40:28.856Z</time>
		<geoidheight>212</geoidheight>
	</trkpt>
	<trkpt lat="50.728310" lon="6.176561">
		<ele>258</ele>
		<time>2011-09-11T08:40:29.855Z</time>
		<geoidheight>212</geoidheight>
	</trkpt>
	<trkpt lat="50.728322" lon="6.176570">
		<ele>257</ele>
		<time>2011-09-11T08:40:30.856Z</time>
		<geoidheight>211</geoidheight>
	</trkpt>
	<trkpt lat="50.728332" lon="6.176584">
		<ele>257</ele>
		<time>2011-09-11T08:40:31.855Z</time>
		<geoidheight>211</geoidheight>
	</trkpt>
	<trkpt lat="50.728338" lon="6.176604">
		<ele>257</ele>
		<time>2011-09-11T08:40:32.858Z</time>
		<geoidheight>211</geoidheight>
	</trkpt>
	<trkpt lat="50.728347" lon="6.176624">
		<ele>257</ele>
		<time>2011-09-11T08:40:33.856Z</time>
		<geoidheight>211</geoidheight>
	</trkpt>
	<trkpt lat="50.728357" lon="6.176648">
		<ele>257</ele>
		<time>2011-09-11T08:40:34.857Z</time>
		<geoidheight>211</geoidheight>
	</trkpt>
	<trkpt lat="50.728364" lon="6.176673">
		<ele>257</ele>
		<time>2011-09-11T08:40:35.858Z</time>
		<geoidheight>211</geoidheight>
	</trkpt>
	<trkpt lat="50.728372" lon="6.176697">
		<ele>257</ele>
		<time>2011-09-11T08:40:36.859Z</time>
		<geoidheight>211</geoidheight>
	</trkpt>
	<trkpt lat="50.728381" lon="6.176721">
		<ele>257</ele>
		<time>2011-09-11T08:40:37.876Z</time>
		<geoidheight>211</geoidheight>
	</trkpt>
	<trkpt lat="50.728393" lon="6.176742">
		<ele>257</ele>
		<time>2011-09-11T08:40:38.874Z</time>
		<geoidheight>211</geoidheight>
	</trkpt>
	<trkpt lat="50.728401" lon="6.176765">
		<ele>257</ele>
		<time>2011-09-11T08:40:39.874Z</time>
		<geoidheight>211</geoidheight>
	</trkpt>
	<trkpt lat="50.728410" lon="6.176789">
		<ele>257</ele>
		<time>2011-09-11T08:40:40.871Z</time>
		<geoidheight>211</geoidheight>
	</trkpt>
	<trkpt lat="50.728423" lon="6.176809">
		<ele>257</ele>
		<time>2011-09-11T08:40:41.873Z</time>
		<geoidheight>211</geoidheight>
	</trkpt>
	<trkpt lat="50.728431" lon="6.176833">
		<ele>257</ele>
		<time>2011-09-11T08:40:42.867Z</time>
		<geoidheight>211</geoidheight>
	</trkpt>
	<trkpt lat="50.728439" lon="6.176855">
		<ele>257</ele>
		<time>2011-09-11T08:40:43.869Z</time>
		<geoidheight>211</geoidheight>
	</trkpt>
	<trkpt lat="50.728449" lon="6.176876">
		<ele>257</ele>
		<time>2011-09-11T08:40:44.872Z</time>
		<geoidheight>211</geoidheight>
	</trkpt>
	<trkpt lat="50.728458" lon="6.176895">
		<ele>257</ele>
		<time>2011-09-11T08:40:45.874Z</time>
		<geoidheight>211</geoidheight>
	</trkpt>
	<trkpt lat="50.728469" lon="6.176909">
		<ele>257</ele>
		<time>2011-09-11T08:40:46.869Z</time>
		<geoidheight>211</geoidheight>
	</trkpt>
	<trkpt lat="50.728481" lon="6.176920">
		<ele>257</ele>
		<time>2011-09-11T08:40:47.865Z</time>
		<geoidheight>211</geoidheight>
	</trkpt>
	<trkpt lat="50.728491" lon="6.176934">
		<ele>257</ele>
		<time>2011-09-11T08:40:48.869Z</time>
		<geoidheight>211</geoidheight>
	</trkpt>
	<trkpt lat="50.728499" lon="6.176947">
		<ele>257</ele>
		<time>2011-09-11T08:40:49.871Z</time>
		<geoidheight>211</geoidheight>
	</trkpt>
	<trkpt lat="50.728511" lon="6.176957">
		<ele>257</ele>
		<time>2011-09-11T08:40:50.868Z</time>
		<geoidheight>211</geoidheight>
	</trkpt>
	<trkpt lat="50.728521" lon="6.176973">
		<ele>257</ele>
		<time>2011-09-11T08:40:51.855Z</time>
		<geoidheight>211</geoidheight>
	</trkpt>
	<trkpt lat="50.728529" lon="6.176993">
		<ele>257</ele>
		<time>2011-09-11T08:40:52.861Z</time>
		<geoidheight>211</geoidheight>
	</trkpt>
	<trkpt lat="50.728533" lon="6.177015">
		<ele>257</ele>
		<time>2011-09-11T08:40:53.858Z</time>
		<geoidheight>211</geoidheight>
	</trkpt>
	<trkpt lat="50.728544" lon="6.177030">
		<ele>257</ele>
		<time>2011-09-11T08:40:54.860Z</time>
		<geoidheight>211</geoidheight>
	</trkpt>
	<trkpt lat="50.728552" lon="6.177049">
		<ele>257</ele>
		<time>2011-09-11T08:40:55.856Z</time>
		<geoidheight>211</geoidheight>
	</trkpt>
	<trkpt lat="50.728561" lon="6.177068">
		<ele>257</ele>
		<time>2011-09-11T08:40:56.858Z</time>
		<geoidheight>211</geoidheight>
	</trkpt>
	<trkpt lat="50.728576" lon="6.177078">
		<ele>257</ele>
		<time>2011-09-11T08:40:57.861Z</time>
		<geoidheight>211</geoidheight>
	</trkpt>
	<trkpt lat="50.728589" lon="6.177093">
		<ele>257</ele>
		<time>2011-09-11T08:40:58.870Z</time>
		<geoidheight>211</geoidheight>
	</trkpt>
	<trkpt lat="50.728596" lon="6.177115">
		<ele>257</ele>
		<time>2011-09-11T08:40:59.869Z</time>
		<geoidheight>211</geoidheight>
	</trkpt>
	<trkpt lat="50.728605" lon="6.177137">
		<ele>256</ele>
		<time>2011-09-11T08:41:00.873Z</time>
		<geoidheight>210</geoidheight>
	</trkpt>
	<trkpt lat="50.728613" lon="6.177155">
		<ele>256</ele>
		<time>2011-09-11T08:41:01.876Z</time>
		<geoidheight>210</geoidheight>
	</trkpt>
	<trkpt lat="50.728623" lon="6.177171">
		<ele>256</ele>
		<time>2011-09-11T08:41:02.872Z</time>
		<geoidheight>210</geoidheight>
	</trkpt>
	<trkpt lat="50.728628" lon="6.177187">
		<ele>256</ele>
		<time>2011-09-11T08:41:03.871Z</time>
		<geoidheight>210</geoidheight>
	</trkpt>
	<trkpt lat="50.728638" lon="6.177199">
		<ele>256</ele>
		<time>2011-09-11T08:41:04.865Z</time>
		<geoidheight>210</geoidheight>
	</trkpt>
	<trkpt lat="50.728645" lon="6.177211">
		<ele>256</ele>
		<time>2011-09-11T08:41:05.872Z</time>
		<geoidheight>210</geoidheight>
	</trkpt>
	<trkpt lat="50.728654" lon="6.177224">
		<ele>256</ele>
		<time>2011-09-11T08:41:06.856Z</time>
		<geoidheight>210</geoidheight>
	</trkpt>
	<trkpt lat="50.728661" lon="6.177233">
		<ele>256</ele>
		<time>2011-09-11T08:41:07.857Z</time>
		<geoidheight>210</geoidheight>
	</trkpt>
	<trkpt lat="50.728663" lon="6.177244">
		<ele>256</ele>
		<time>2011-09-11T08:41:08.862Z</time>
		<geoidheight>210</geoidheight>
	</trkpt>
	<trkpt lat="50.728665" lon="6.177260">
		<ele>256</ele>
		<time>2011-09-11T08:41:09.855Z</time>
		<geoidheight>210</geoidheight>
	</trkpt>
	<trkpt lat="50.728667" lon="6.177275">
		<ele>256</ele>
		<time>2011-09-11T08:41:10.860Z</time>
		<geoidheight>210</geoidheight>
	</trkpt>
	<trkpt lat="50.728674" lon="6.177288">
		<ele>256</ele>
		<time>2011-09-11T08:41:11.855Z</time>
		<geoidheight>210</geoidheight>
	</trkpt>
	<trkpt lat="50.728682" lon="6.177303">
		<ele>256</ele>
		<time>2011-09-11T08:41:12.856Z</time>
		<geoidheight>210</geoidheight>
	</trkpt>
	<trkpt lat="50.728692" lon="6.177321">
		<ele>256</ele>
		<time>2011-09-11T08:41:13.856Z</time>
		<geoidheight>210</geoidheight>
	</trkpt>
	<trkpt lat="50.728701" lon="6.177343">
		<ele>256</ele>
		<time>2011-09-11T08:41:14.856Z</time>
		<geoidheight>210</geoidheight>
	</trkpt>
	<trkpt lat="50.728711" lon="6.177365">
		<ele>256</ele>
		<time>2011-09-11T08:41:15.856Z</time>
		<geoidheight>210</geoidheight>
	</trkpt>
	<trkpt lat="50.728720" lon="6.177383">
		<ele>256</ele>
		<time>2011-09-11T08:41:16.855Z</time>
		<geoidheight>210</geoidheight>
	</trkpt>
	<trkpt lat="50.728729" lon="6.177397">
		<ele>256</ele>
		<time>2011-09-11T08:41:17.858Z</time>
		<geoidheight>210</geoidheight>
	</trkpt>
	<trkpt lat="50.728739" lon="6.177412">
		<ele>256</ele>
		<time>2011-09-11T08:41:18.855Z</time>
		<geoidheight>210</geoidheight>
	</trkpt>
	<trkpt lat="50.728748" lon="6.177426">
		<ele>256</ele>
		<time>2011-09-11T08:41:19.858Z</time>
		<geoidheight>210</geoidheight>
	</trkpt>
	<trkpt lat="50.728759" lon="6.177444">
		<ele>256</ele>
		<time>2011-09-11T08:41:20.858Z</time>
		<geoidheight>210</geoidheight>
	</trkpt>
	<trkpt lat="50.728773" lon="6.177461">
		<ele>256</ele>
		<time>2011-09-11T08:41:21.856Z</time>
		<geoidheight>210</geoidheight>
	</trkpt>
	<trkpt lat="50.728785" lon="6.177479">
		<ele>256</ele>
		<time>2011-09-11T08:41:22.857Z</time>
		<geoidheight>210</geoidheight>
	</trkpt>
	<trkpt lat="50.728793" lon="6.177500">
		<ele>256</ele>
		<time>2011-09-11T08:41:23.857Z</time>
		<geoidheight>210</geoidheight>
	</trkpt>
	<trkpt lat="50.728801" lon="6.177519">
		<ele>256</ele>
		<time>2011-09-11T08:41:24.856Z</time>
		<geoidheight>210</geoidheight>
	</trkpt>
	<trkpt lat="50.728806" lon="6.177539">
		<ele>256</ele>
		<time>2011-09-11T08:41:25.856Z</time>
		<geoidheight>210</geoidheight>
	</trkpt>
	<trkpt lat="50.728812" lon="6.177560">
		<ele>256</ele>
		<time>2011-09-11T08:41:26.858Z</time>
		<geoidheight>210</geoidheight>
	</trkpt>
	<trkpt lat="50.728817" lon="6.177579">
		<ele>256</ele>
		<time>2011-09-11T08:41:27.856Z</time>
		<geoidheight>210</geoidheight>
	</trkpt>
	<trkpt lat="50.728824" lon="6.177591">
		<ele>256</ele>
		<time>2011-09-11T08:41:28.867Z</time>
		<geoidheight>210</geoidheight>
	</trkpt>
	<trkpt lat="50.728832" lon="6.177598">
		<ele>256</ele>
		<time>2011-09-11T08:41:29.863Z</time>
		<geoidheight>210</geoidheight>
	</trkpt>
	<trkpt lat="50.728841" lon="6.177605">
		<ele>256</ele>
		<time>2011-09-11T08:41:30.863Z</time>
		<geoidheight>210</geoidheight>
	</trkpt>
	<trkpt lat="50.728850" lon="6.177621">
		<ele>256</ele>
		<time>2011-09-11T08:41:31.859Z</time>
		<geoidheight>210</geoidheight>
	</trkpt>
	<trkpt lat="50.728858" lon="6.177636">
		<ele>256</ele>
		<time>2011-09-11T08:41:32.868Z</time>
		<geoidheight>210</geoidheight>
	</trkpt>
	<trkpt lat="50.728864" lon="6.177650">
		<ele>256</ele>
		<time>2011-09-11T08:41:33.859Z</time>
		<geoidheight>210</geoidheight>
	</trkpt>
	<trkpt lat="50.728868" lon="6.177667">
		<ele>256</ele>
		<time>2011-09-11T08:41:34.859Z</time>
		<geoidheight>210</geoidheight>
	</trkpt>
	<trkpt lat="50.728875" lon="6.177679">
		<ele>256</ele>
		<time>2011-09-11T08:41:35.856Z</time>
		<geoidheight>210</geoidheight>
	</trkpt>
	<trkpt lat="50.728883" lon="6.177695">
		<ele>256</ele>
		<time>2011-09-11T08:41:36.859Z</time>
		<geoidheight>210</geoidheight>
	</trkpt>
	<trkpt lat="50.728891" lon="6.177714">
		<ele>256</ele>
		<time>2011-09-11T08:41:37.857Z</time>
		<geoidheight>210</geoidheight>
	</trkpt>
	<trkpt lat="50.728900" lon="6.177733">
		<ele>256</ele>
		<time>2011-09-11T08:41:38.857Z</time>
		<geoidheight>210</geoidheight>
	</trkpt>
	<trkpt lat="50.728906" lon="6.177754">
		<ele>255</ele>
		<time>2011-09-11T08:41:39.859Z</time>
		<geoidheight>209</geoidheight>
	</trkpt>
	<trkpt lat="50.728914" lon="6.177775">
		<ele>255</ele>
		<time>2011-09-11T08:41:40.857Z</time>
		<geoidheight>209</geoidheight>
	</trkpt>
	<trkpt lat="50.728926" lon="6.177797">
		<ele>255</ele>
		<time>2011-09-11T08:41:41.857Z</time>
		<geoidheight>209</geoidheight>
	</trkpt>
	<trkpt lat="50.728936" lon="6.177818">
		<ele>255</ele>
		<time>2011-09-11T08:41:42.860Z</time>
		<geoidheight>209</geoidheight>
	</trkpt>
	<trkpt lat="50.728945" lon="6.177839">
		<ele>255</ele>
		<time>2011-09-11T08:41:43.857Z</time>
		<geoidheight>209</geoidheight>
	</trkpt>
	<trkpt lat="50.728950" lon="6.177859">
		<ele>255</ele>
		<time>2011-09-11T08:41:44.856Z</time>
		<geoidheight>209</geoidheight>
	</trkpt>
	<trkpt lat="50.728956" lon="6.177878">
		<ele>255</ele>
		<time>2011-09-11T08:41:45.856Z</time>
		<geoidheight>209</geoidheight>
	</trkpt>
	<trkpt lat="50.728961" lon="6.177898">
		<ele>255</ele>
		<time>2011-09-11T08:41:46.859Z</time>
		<geoidheight>209</geoidheight>
	</trkpt>
	<trkpt lat="50.728966" lon="6.177921">
		<ele>255</ele>
		<time>2011-09-11T08:41:47.857Z</time>
		<geoidheight>209</geoidheight>
	</trkpt>
	<trkpt lat="50.728970" lon="6.177942">
		<ele>255</ele>
		<time>2011-09-11T08:41:48.875Z</time>
		<geoidheight>209</geoidheight>
	</trkpt>
	<trkpt lat="50.728973" lon="6.177963">
		<ele>255</ele>
		<time>2011-09-11T08:41:49.875Z</time>
		<geoidheight>209</geoidheight>
	</trkpt>
	<trkpt lat="50.728975" lon="6.177983">
		<ele>255</ele>
		<time>2011-09-11T08:41:50.872Z</time>
		<geoidheight>209</geoidheight>
	</trkpt>
	<trkpt lat="50.728978" lon="6.178001">
		<ele>255</ele>
		<time>2011-09-11T08:41:51.873Z</time>
		<geoidheight>209</geoidheight>
	</trkpt>
	<trkpt lat="50.728982" lon="6.178017">
		<ele>255</ele>
		<time>2011-09-11T08:41:52.872Z</time>
		<geoidheight>209</geoidheight>
	</trkpt>
	<trkpt lat="50.728987" lon="6.178033">
		<ele>255</ele>
		<time>2011-09-11T08:41:53.870Z</time>
		<geoidheight>209</geoidheight>
	</trkpt>
	<trkpt lat="50.728992" lon="6.178047">
		<ele>255</ele>
		<time>2011-09-11T08:41:54.873Z</time>
		<geoidheight>209</geoidheight>
	</trkpt>
	<trkpt lat="50.728997" lon="6.178063">
		<ele>254</ele>
		<time>2011-09-11T08:41:55.867Z</time>
		<geoidheight>208</geoidheight>
	</trkpt>
	<trkpt lat="50.729006" lon="6.178076">
		<ele>254</ele>
		<time>2011-09-11T08:41:56.869Z</time>
		<geoidheight>208</geoidheight>
	</trkpt>
	<trkpt lat="50.729014" lon="6.178092">
		<ele>254</ele>
		<time>2011-09-11T08:41:57.871Z</time>
		<geoidheight>208</geoidheight>
	</trkpt>
	<trkpt lat="50.729024" lon="6.178121">
		<ele>254</ele>
		<time>2011-09-11T08:41:58.871Z</time>
		<geoidheight>208</geoidheight>
	</trkpt>
	<trkpt lat="50.729036" lon="6.178156">
		<ele>254</ele>
		<time>2011-09-11T08:41:59.877Z</time>
		<geoidheight>208</geoidheight>
	</trkpt>
	<trkpt lat="50.729052" lon="6.178180">
		<ele>254</ele>
		<time>2011-09-11T08:42:00.887Z</time>
		<geoidheight>208</geoidheight>
	</trkpt>
	<trkpt lat="50.729070" lon="6.178208">
		<ele>254</ele>
		<time>2011-09-11T08:42:01.876Z</time>
		<geoidheight>208</geoidheight>
	</trkpt>
	<trkpt lat="50.729070" lon="6.178208">
		<ele>254</ele>
		<time>2011-09-11T08:42:02.865Z</time>
		<geoidheight>208</geoidheight>
	</trkpt>
	<trkpt lat="50.729096" lon="6.178227">
		<ele>254</ele>
		<time>2011-09-11T08:42:03.869Z</time>
		<geoidheight>208</geoidheight>
	</trkpt>
	<trkpt lat="50.729110" lon="6.178241">
		<ele>254</ele>
		<time>2011-09-11T08:42:04.865Z</time>
		<geoidheight>208</geoidheight>
	</trkpt>
	<trkpt lat="50.729125" lon="6.178260">
		<ele>254</ele>
		<time>2011-09-11T08:42:05.857Z</time>
		<geoidheight>208</geoidheight>
	</trkpt>
	<trkpt lat="50.729141" lon="6.178284">
		<ele>254</ele>
		<time>2011-09-11T08:42:06.856Z</time>
		<geoidheight>208</geoidheight>
	</trkpt>
	<trkpt lat="50.729160" lon="6.178310">
		<ele>254</ele>
		<time>2011-09-11T08:42:07.859Z</time>
		<geoidheight>208</geoidheight>
	</trkpt>
	<trkpt lat="50.729179" lon="6.178332">
		<ele>254</ele>
		<time>2011-09-11T08:42:08.867Z</time>
		<geoidheight>208</geoidheight>
	</trkpt>
	<trkpt lat="50.729198" lon="6.178347">
		<ele>254</ele>
		<time>2011-09-11T08:42:09.857Z</time>
		<geoidheight>208</geoidheight>
	</trkpt>
	<trkpt lat="50.729216" lon="6.178367">
		<ele>254</ele>
		<time>2011-09-11T08:42:10.858Z</time>
		<geoidheight>208</geoidheight>
	</trkpt>
	<trkpt lat="50.729233" lon="6.178384">
		<ele>254</ele>
		<time>2011-09-11T08:42:11.856Z</time>
		<geoidheight>208</geoidheight>
	</trkpt>
	<trkpt lat="50.729245" lon="6.178405">
		<ele>254</ele>
		<time>2011-09-11T08:42:12.857Z</time>
		<geoidheight>208</geoidheight>
	</trkpt>
	<trkpt lat="50.729256" lon="6.178424">
		<ele>254</ele>
		<time>2011-09-11T08:42:13.856Z</time>
		<geoidheight>208</geoidheight>
	</trkpt>
	<trkpt lat="50.729268" lon="6.178438">
		<ele>254</ele>
		<time>2011-09-11T08:42:14.856Z</time>
		<geoidheight>208</geoidheight>
	</trkpt>
	<trkpt lat="50.729276" lon="6.178454">
		<ele>254</ele>
		<time>2011-09-11T08:42:15.858Z</time>
		<geoidheight>208</geoidheight>
	</trkpt>
	<trkpt lat="50.729287" lon="6.178465">
		<ele>254</ele>
		<time>2011-09-11T08:42:16.856Z</time>
		<geoidheight>208</geoidheight>
	</trkpt>
	<trkpt lat="50.729295" lon="6.178472">
		<ele>254</ele>
		<time>2011-09-11T08:42:17.858Z</time>
		<geoidheight>208</geoidheight>
	</trkpt>
	<trkpt lat="50.729304" lon="6.178483">
		<ele>254</ele>
		<time>2011-09-11T08:42:18.858Z</time>
		<geoidheight>208</geoidheight>
	</trkpt>
	<trkpt lat="50.729312" lon="6.178494">
		<ele>254</ele>
		<time>2011-09-11T08:42:19.857Z</time>
		<geoidheight>208</geoidheight>
	</trkpt>
	<trkpt lat="50.729321" lon="6.178500">
		<ele>254</ele>
		<time>2011-09-11T08:42:20.857Z</time>
		<geoidheight>208</geoidheight>
	</trkpt>
	<trkpt lat="50.729326" lon="6.178510">
		<ele>254</ele>
		<time>2011-09-11T08:42:21.859Z</time>
		<geoidheight>208</geoidheight>
	</trkpt>
	<trkpt lat="50.729334" lon="6.178515">
		<ele>254</ele>
		<time>2011-09-11T08:42:22.856Z</time>
		<geoidheight>208</geoidheight>
	</trkpt>
	<trkpt lat="50.729342" lon="6.178521">
		<ele>254</ele>
		<time>2011-09-11T08:42:23.867Z</time>
		<geoidheight>208</geoidheight>
	</trkpt>
	<trkpt lat="50.729350" lon="6.178528">
		<ele>254</ele>
		<time>2011-09-11T08:42:24.864Z</time>
		<geoidheight>208</geoidheight>
	</trkpt>
	<trkpt lat="50.729362" lon="6.178540">
		<ele>254</ele>
		<time>2011-09-11T08:42:25.859Z</time>
		<geoidheight>208</geoidheight>
	</trkpt>
	<trkpt lat="50.729373" lon="6.178553">
		<ele>254</ele>
		<time>2011-09-11T08:42:26.866Z</time>
		<geoidheight>208</geoidheight>
	</trkpt>
	<trkpt lat="50.729383" lon="6.178569">
		<ele>254</ele>
		<time>2011-09-11T08:42:27.867Z</time>
		<geoidheight>208</geoidheight>
	</trkpt>
	<trkpt lat="50.729395" lon="6.178579">
		<ele>254</ele>
		<time>2011-09-11T08:42:28.862Z</time>
		<geoidheight>208</geoidheight>
	</trkpt>
	<trkpt lat="50.729404" lon="6.178591">
		<ele>254</ele>
		<time>2011-09-11T08:42:29.868Z</time>
		<geoidheight>208</geoidheight>
	</trkpt>
	<trkpt lat="50.729409" lon="6.178610">
		<ele>254</ele>
		<time>2011-09-11T08:42:30.866Z</time>
		<geoidheight>208</geoidheight>
	</trkpt>
	<trkpt lat="50.729414" lon="6.178631">
		<ele>254</ele>
		<time>2011-09-11T08:42:31.862Z</time>
		<geoidheight>208</geoidheight>
	</trkpt>
	<trkpt lat="50.729420" lon="6.178652">
		<ele>254</ele>
		<time>2011-09-11T08:42:32.863Z</time>
		<geoidheight>208</geoidheight>
	</trkpt>
	<trkpt lat="50.729425" lon="6.178677">
		<ele>254</ele>
		<time>2011-09-11T08:42:33.866Z</time>
		<geoidheight>208</geoidheight>
	</trkpt>
	<trkpt lat="50.729421" lon="6.178705">
		<ele>254</ele>
		<time>2011-09-11T08:42:34.860Z</time>
		<geoidheight>208</geoidheight>
	</trkpt>
	<trkpt lat="50.729414" lon="6.178741">
		<ele>254</ele>
		<time>2011-09-11T08:42:35.862Z</time>
		<geoidheight>208</geoidheight>
	</trkpt>
	<trkpt lat="50.729412" lon="6.178772">
		<ele>254</ele>
		<time>2011-09-11T08:42:36.858Z</time>
		<geoidheight>208</geoidheight>
	</trkpt>
	<trkpt lat="50.729412" lon="6.178799">
		<ele>254</ele>
		<time>2011-09-11T08:42:37.859Z</time>
		<geoidheight>208</geoidheight>
	</trkpt>
	<trkpt lat="50.729412" lon="6.178824">
		<ele>254</ele>
		<time>2011-09-11T08:42:38.857Z</time>
		<geoidheight>208</geoidheight>
	</trkpt>
	<trkpt lat="50.729414" lon="6.178845">
		<ele>254</ele>
		<time>2011-09-11T08:42:39.859Z</time>
		<geoidheight>208</geoidheight>
	</trkpt>
	<trkpt lat="50.729415" lon="6.178860">
		<ele>254</ele>
		<time>2011-09-11T08:42:40.858Z</time>
		<geoidheight>208</geoidheight>
	</trkpt>
	<trkpt lat="50.729415" lon="6.178870">
		<ele>254</ele>
		<time>2011-09-11T08:42:41.856Z</time>
		<geoidheight>208</geoidheight>
	</trkpt>
	<trkpt lat="50.729417" lon="6.178876">
		<ele>254</ele>
		<time>2011-09-11T08:42:42.857Z</time>
		<geoidheight>208</geoidheight>
	</trkpt>
	<trkpt lat="50.729417" lon="6.178889">
		<ele>254</ele>
		<time>2011-09-11T08:42:43.862Z</time>
		<geoidheight>208</geoidheight>
	</trkpt>
	<trkpt lat="50.729417" lon="6.178903">
		<ele>254</ele>
		<time>2011-09-11T08:42:44.858Z</time>
		<geoidheight>208</geoidheight>
	</trkpt>
	<trkpt lat="50.729422" lon="6.178918">
		<ele>254</ele>
		<time>2011-09-11T08:42:45.856Z</time>
		<geoidheight>208</geoidheight>
	</trkpt>
	<trkpt lat="50.729423" lon="6.178935">
		<ele>254</ele>
		<time>2011-09-11T08:42:46.857Z</time>
		<geoidheight>208</geoidheight>
	</trkpt>
	<trkpt lat="50.729424" lon="6.178957">
		<ele>254</ele>
		<time>2011-09-11T08:42:47.860Z</time>
		<geoidheight>208</geoidheight>
	</trkpt>
	<trkpt lat="50.729428" lon="6.178984">
		<ele>254</ele>
		<time>2011-09-11T08:42:48.857Z</time>
		<geoidheight>208</geoidheight>
	</trkpt>
	<trkpt lat="50.729433" lon="6.179015">
		<ele>254</ele>
		<time>2011-09-11T08:42:49.857Z</time>
		<geoidheight>208</geoidheight>
	</trkpt>
	<trkpt lat="50.729441" lon="6.179045">
		<ele>254</ele>
		<time>2011-09-11T08:42:50.858Z</time>
		<geoidheight>208</geoidheight>
	</trkpt>
	<trkpt lat="50.729449" lon="6.179070">
		<ele>254</ele>
		<time>2011-09-11T08:42:51.857Z</time>
		<geoidheight>208</geoidheight>
	</trkpt>
	<trkpt lat="50.729459" lon="6.179092">
		<ele>254</ele>
		<time>2011-09-11T08:42:52.858Z</time>
		<geoidheight>208</geoidheight>
	</trkpt>
	<trkpt lat="50.729467" lon="6.179113">
		<ele>254</ele>
		<time>2011-09-11T08:42:53.859Z</time>
		<geoidheight>208</geoidheight>
	</trkpt>
	<trkpt lat="50.729472" lon="6.179134">
		<ele>254</ele>
		<time>2011-09-11T08:42:54.856Z</time>
		<geoidheight>208</geoidheight>
	</trkpt>
	<trkpt lat="50.729478" lon="6.179153">
		<ele>254</ele>
		<time>2011-09-11T08:42:55.862Z</time>
		<geoidheight>208</geoidheight>
	</trkpt>
	<trkpt lat="50.729481" lon="6.179168">
		<ele>254</ele>
		<time>2011-09-11T08:42:56.863Z</time>
		<geoidheight>208</geoidheight>
	</trkpt>
	<trkpt lat="50.729488" lon="6.179179">
		<ele>254</ele>
		<time>2011-09-11T08:42:57.865Z</time>
		<geoidheight>208</geoidheight>
	</trkpt>
	<trkpt lat="50.729495" lon="6.179191">
		<ele>254</ele>
		<time>2011-09-11T08:42:58.859Z</time>
		<geoidheight>208</geoidheight>
	</trkpt>
	<trkpt lat="50.729508" lon="6.179202">
		<ele>254</ele>
		<time>2011-09-11T08:42:59.867Z</time>
		<geoidheight>208</geoidheight>
	</trkpt>
	<trkpt lat="50.729518" lon="6.179213">
		<ele>254</ele>
		<time>2011-09-11T08:43:00.879Z</time>
		<geoidheight>208</geoidheight>
	</trkpt>
	<trkpt lat="50.729526" lon="6.179223">
		<ele>254</ele>
		<time>2011-09-11T08:43:01.871Z</time>
		<geoidheight>208</geoidheight>
	</trkpt>
	<trkpt lat="50.729528" lon="6.179232">
		<ele>254</ele>
		<time>2011-09-11T08:43:02.871Z</time>
		<geoidheight>208</geoidheight>
	</trkpt>
	<trkpt lat="50.729528" lon="6.179238">
		<ele>254</ele>
		<time>2011-09-11T08:43:03.871Z</time>
		<geoidheight>208</geoidheight>
	</trkpt>
	<trkpt lat="50.729531" lon="6.179245">
		<ele>254</ele>
		<time>2011-09-11T08:43:04.873Z</time>
		<geoidheight>208</geoidheight>
	</trkpt>
	<trkpt lat="50.729532" lon="6.179251">
		<ele>254</ele>
		<time>2011-09-11T08:43:05.870Z</time>
		<geoidheight>208</geoidheight>
	</trkpt>
	<trkpt lat="50.729532" lon="6.179251">
		<ele>254</ele>
		<time>2011-09-11T08:43:06.886Z</time>
		<geoidheight>208</geoidheight>
	</trkpt>
	<trkpt lat="50.729532" lon="6.179251">
		<ele>254</ele>
		<time>2011-09-11T08:43:07.874Z</time>
		<geoidheight>208</geoidheight>
	</trkpt>
	<trkpt lat="50.729532" lon="6.179251">
		<ele>254</ele>
		<time>2011-09-11T08:43:08.875Z</time>
		<geoidheight>208</geoidheight>
	</trkpt>
	<trkpt lat="50.729532" lon="6.179251">
		<ele>254</ele>
		<time>2011-09-11T08:43:09.873Z</time>
		<geoidheight>208</geoidheight>
	</trkpt>
	<trkpt lat="50.729532" lon="6.179251">
		<ele>254</ele>
		<time>2011-09-11T08:43:10.875Z</time>
		<geoidheight>208</geoidheight>
	</trkpt>
	<trkpt lat="50.729532" lon="6.179251">
		<ele>254</ele>
		<time>2011-09-11T08:43:11.872Z</time>
		<geoidheight>208</geoidheight>
	</trkpt>
	<trkpt lat="50.729532" lon="6.179251">
		<ele>254</ele>
		<time>2011-09-11T08:43:12.875Z</time>
		<geoidheight>208</geoidheight>
	</trkpt>
	<trkpt lat="50.729532" lon="6.179251">
		<ele>254</ele>
		<time>2011-09-11T08:43:13.861Z</time>
		<geoidheight>208</geoidheight>
	</trkpt>
	<trkpt lat="50.729532" lon="6.179251">
		<ele>254</ele>
		<time>2011-09-11T08:43:14.861Z</time>
		<geoidheight>208</geoidheight>
	</trkpt>
	<trkpt lat="50.729532" lon="6.179251">
		<ele>254</ele>
		<time>2011-09-11T08:43:15.866Z</time>
		<geoidheight>208</geoidheight>
	</trkpt>
	<trkpt lat="50.729532" lon="6.179251">
		<ele>254</ele>
		<time>2011-09-11T08:43:16.862Z</time>
		<geoidheight>208</geoidheight>
	</trkpt>
	<trkpt lat="50.729532" lon="6.179251">
		<ele>254</ele>
		<time>2011-09-11T08:43:17.859Z</time>
		<geoidheight>208</geoidheight>
	</trkpt>
	<trkpt lat="50.729532" lon="6.179251">
		<ele>254</ele>
		<time>2011-09-11T08:43:18.874Z</time>
		<geoidheight>208</geoidheight>
	</trkpt>
	<trkpt lat="50.729532" lon="6.179251">
		<ele>254</ele>
		<time>2011-09-11T08:43:19.875Z</time>
		<geoidheight>208</geoidheight>
	</trkpt>
	<trkpt lat="50.729532" lon="6.179251">
		<ele>254</ele>
		<time>2011-09-11T08:43:20.875Z</time>
		<geoidheight>208</geoidheight>
	</trkpt>
	<trkpt lat="50.729559" lon="6.179310">
		<ele>254</ele>
		<time>2011-09-11T08:43:21.872Z</time>
		<geoidheight>208</geoidheight>
	</trkpt>
	<trkpt lat="50.729559" lon="6.179310">
		<ele>254</ele>
		<time>2011-09-11T08:43:22.873Z</time>
		<geoidheight>208</geoidheight>
	</trkpt>
	<trkpt lat="50.729559" lon="6.179310">
		<ele>254</ele>
		<time>2011-09-11T08:43:23.880Z</time>
		<geoidheight>208</geoidheight>
	</trkpt>
	<trkpt lat="50.729559" lon="6.179310">
		<ele>254</ele>
		<time>2011-09-11T08:43:24.858Z</time>
		<geoidheight>208</geoidheight>
	</trkpt>
	<trkpt lat="50.729559" lon="6.179310">
		<ele>254</ele>
		<time>2011-09-11T08:43:25.863Z</time>
		<geoidheight>208</geoidheight>
	</trkpt>
	<trkpt lat="50.729559" lon="6.179310">
		<ele>254</ele>
		<time>2011-09-11T08:43:26.861Z</time>
		<geoidheight>208</geoidheight>
	</trkpt>
	<trkpt lat="50.729559" lon="6.179310">
		<ele>254</ele>
		<time>2011-09-11T08:43:27.856Z</time>
		<geoidheight>208</geoidheight>
	</trkpt>
	<trkpt lat="50.729559" lon="6.179310">
		<ele>254</ele>
		<time>2011-09-11T08:43:28.857Z</time>
		<geoidheight>208</geoidheight>
	</trkpt>
	<trkpt lat="50.729559" lon="6.179310">
		<ele>254</ele>
		<time>2011-09-11T08:43:29.857Z</time>
		<geoidheight>208</geoidheight>
	</trkpt>
	<trkpt lat="50.729559" lon="6.179310">
		<ele>254</ele>
		<time>2011-09-11T08:43:30.857Z</time>
		<geoidheight>208</geoidheight>
	</trkpt>
	<trkpt lat="50.729559" lon="6.179310">
		<ele>254</ele>
		<time>2011-09-11T08:43:31.855Z</time>
		<geoidheight>208</geoidheight>
	</trkpt>
	<trkpt lat="50.729559" lon="6.179310">
		<ele>254</ele>
		<time>2011-09-11T08:43:32.858Z</time>
		<geoidheight>208</geoidheight>
	</trkpt>
	<trkpt lat="50.729559" lon="6.179310">
		<ele>254</ele>
		<time>2011-09-11T08:43:33.858Z</time>
		<geoidheight>208</geoidheight>
	</trkpt>
	<trkpt lat="50.729559" lon="6.179310">
		<ele>254</ele>
		<time>2011-09-11T08:43:34.861Z</time>
		<geoidheight>208</geoidheight>
	</trkpt>
	<trkpt lat="50.729559" lon="6.179310">
		<ele>254</ele>
		<time>2011-09-11T08:43:35.861Z</time>
		<geoidheight>208</geoidheight>
	</trkpt>
	<trkpt lat="50.729602" lon="6.179288">
		<ele>254</ele>
		<time>2011-09-11T08:43:36.859Z</time>
		<geoidheight>208</geoidheight>
	</trkpt>
	<trkpt lat="50.729602" lon="6.179288">
		<ele>254</ele>
		<time>2011-09-11T08:43:37.857Z</time>
		<geoidheight>208</geoidheight>
	</trkpt>
	<trkpt lat="50.729602" lon="6.179288">
		<ele>254</ele>
		<time>2011-09-11T08:43:38.856Z</time>
		<geoidheight>208</geoidheight>
	</trkpt>
	<trkpt lat="50.729602" lon="6.179288">
		<ele>254</ele>
		<time>2011-09-11T08:43:39.858Z</time>
		<geoidheight>208</geoidheight>
	</trkpt>
	<trkpt lat="50.729602" lon="6.179288">
		<ele>254</ele>
		<time>2011-09-11T08:43:40.870Z</time>
		<geoidheight>208</geoidheight>
	</trkpt>
	<trkpt lat="50.729602" lon="6.179288">
		<ele>254</ele>
		<time>2011-09-11T08:43:41.865Z</time>
		<geoidheight>208</geoidheight>
	</trkpt>
	<trkpt lat="50.729602" lon="6.179288">
		<ele>254</ele>
		<time>2011-09-11T08:43:42.864Z</time>
		<geoidheight>208</geoidheight>
	</trkpt>
	<trkpt lat="50.729602" lon="6.179288">
		<ele>254</ele>
		<time>2011-09-11T08:43:43.871Z</time>
		<geoidheight>208</geoidheight>
	</trkpt>
	<trkpt lat="50.729602" lon="6.179288">
		<ele>254</ele>
		<time>2011-09-11T08:43:44.871Z</time>
		<geoidheight>208</geoidheight>
	</trkpt>
	<trkpt lat="50.729624" lon="6.179271">
		<ele>254</ele>
		<time>2011-09-11T08:43:45.870Z</time>
		<geoidheight>208</geoidheight>
	</trkpt>
	<trkpt lat="50.729624" lon="6.179271">
		<ele>254</ele>
		<time>2011-09-11T08:43:46.867Z</time>
		<geoidheight>208</geoidheight>
	</trkpt>
	<trkpt lat="50.729624" lon="6.179271">
		<ele>254</ele>
		<time>2011-09-11T08:43:47.861Z</time>
		<geoidheight>208</geoidheight>
	</trkpt>
	<trkpt lat="50.729624" lon="6.179271">
		<ele>254</ele>
		<time>2011-09-11T08:43:48.865Z</time>
		<geoidheight>208</geoidheight>
	</trkpt>
	<trkpt lat="50.729624" lon="6.179271">
		<ele>254</ele>
		<time>2011-09-11T08:43:49.863Z</time>
		<geoidheight>208</geoidheight>
	</trkpt>
	<trkpt lat="50.729624" lon="6.179271">
		<ele>254</ele>
		<time>2011-09-11T08:43:50.867Z</time>
		<geoidheight>208</geoidheight>
	</trkpt>
	<trkpt lat="50.729624" lon="6.179271">
		<ele>254</ele>
		<time>2011-09-11T08:43:51.865Z</time>
		<geoidheight>208</geoidheight>
	</trkpt>
	<trkpt lat="50.729624" lon="6.179271">
		<ele>254</ele>
		<time>2011-09-11T08:43:52.867Z</time>
		<geoidheight>208</geoidheight>
	</trkpt>
	<trkpt lat="50.729624" lon="6.179271">
		<ele>254</ele>
		<time>2011-09-11T08:43:53.870Z</time>
		<geoidheight>208</geoidheight>
	</trkpt>
	<trkpt lat="50.729578" lon="6.179267">
		<ele>254</ele>
		<time>2011-09-11T08:43:54.870Z</time>
		<geoidheight>208</geoidheight>
	</trkpt>
	<trkpt lat="50.729578" lon="6.179267">
		<ele>254</ele>
		<time>2011-09-11T08:43:55.868Z</time>
		<geoidheight>208</geoidheight>
	</trkpt>
	<trkpt lat="50.729578" lon="6.179267">
		<ele>254</ele>
		<time>2011-09-11T08:43:56.866Z</time>
		<geoidheight>208</geoidheight>
	</trkpt>
	<trkpt lat="50.729578" lon="6.179267">
		<ele>254</ele>
		<time>2011-09-11T08:43:57.867Z</time>
		<geoidheight>208</geoidheight>
	</trkpt>
	<trkpt lat="50.729578" lon="6.179267">
		<ele>254</ele>
		<time>2011-09-11T08:43:58.869Z</time>
		<geoidheight>208</geoidheight>
	</trkpt>
	<trkpt lat="50.729578" lon="6.179267">
		<ele>254</ele>
		<time>2011-09-11T08:43:59.857Z</time>
		<geoidheight>208</geoidheight>
	</trkpt>
	<trkpt lat="50.729578" lon="6.179267">
		<ele>254</ele>
		<time>2011-09-11T08:44:00.857Z</time>
		<geoidheight>208</geoidheight>
	</trkpt>
	<trkpt lat="50.729548" lon="6.179274">
		<ele>254</ele>
		<time>2011-09-11T08:44:01.859Z</time>
		<geoidheight>208</geoidheight>
	</trkpt>
	<trkpt lat="50.729548" lon="6.179274">
		<ele>254</ele>
		<time>2011-09-11T08:44:02.858Z</time>
		<geoidheight>208</geoidheight>
	</trkpt>
	<trkpt lat="50.729548" lon="6.179274">
		<ele>254</ele>
		<time>2011-09-11T08:44:03.857Z</time>
		<geoidheight>208</geoidheight>
	</trkpt>
	<trkpt lat="50.729548" lon="6.179274">
		<ele>254</ele>
		<time>2011-09-11T08:44:04.857Z</time>
		<geoidheight>208</geoidheight>
	</trkpt>
	<trkpt lat="50.729548" lon="6.179274">
		<ele>254</ele>
		<time>2011-09-11T08:44:05.858Z</time>
		<geoidheight>208</geoidheight>
	</trkpt>
	<trkpt lat="50.729548" lon="6.179274">
		<ele>254</ele>
		<time>2011-09-11T08:44:06.859Z</time>
		<geoidheight>208</geoidheight>
	</trkpt>
	<trkpt lat="50.729548" lon="6.179274">
		<ele>253</ele>
		<time>2011-09-11T08:44:07.857Z</time>
		<geoidheight>207</geoidheight>
	</trkpt>
	<trkpt lat="50.729548" lon="6.179274">
		<ele>253</ele>
		<time>2011-09-11T08:44:47.858Z</time>
		<geoidheight>207</geoidheight>
	</trkpt>
	<trkpt lat="50.729558" lon="6.179201">
		<ele>253</ele>
		<time>2011-09-11T08:44:48.875Z</time>
		<geoidheight>207</geoidheight>
	</trkpt>
	<trkpt lat="50.729558" lon="6.179201">
		<ele>254</ele>
		<time>2011-09-11T08:45:03.858Z</time>
		<geoidheight>208</geoidheight>
	</trkpt>
	<trkpt lat="50.729525" lon="6.179150">
		<ele>254</ele>
		<time>2011-09-11T08:45:04.860Z</time>
		<geoidheight>208</geoidheight>
	</trkpt>
	<trkpt lat="50.729525" lon="6.179150">
		<ele>254</ele>
		<time>2011-09-11T08:45:17.872Z</time>
		<geoidheight>208</geoidheight>
	</trkpt>
	<trkpt lat="50.729514" lon="6.179222">
		<ele>254</ele>
		<time>2011-09-11T08:45:18.863Z</time>
		<geoidheight>208</geoidheight>
	</trkpt>
	<trkpt lat="50.729514" lon="6.179222">
		<ele>254</ele>
		<time>2011-09-11T08:45:31.858Z</time>
		<geoidheight>208</geoidheight>
	</trkpt>
	<trkpt lat="50.729537" lon="6.179284">
		<ele>254</ele>
		<time>2011-09-11T08:45:32.861Z</time>
		<geoidheight>208</geoidheight>
	</trkpt>
	<trkpt lat="50.729537" lon="6.179284">
		<ele>254</ele>
		<time>2011-09-11T08:46:04.859Z</time>
		<geoidheight>208</geoidheight>
	</trkpt>
	<trkpt lat="50.729576" lon="6.179237">
		<ele>254</ele>
		<time>2011-09-11T08:46:05.858Z</time>
		<geoidheight>208</geoidheight>
	</trkpt>
	<trkpt lat="50.729576" lon="6.179237">
		<ele>254</ele>
		<time>2011-09-11T08:46:32.864Z</time>
		<geoidheight>208</geoidheight>
	</trkpt>
	<trkpt lat="50.729587" lon="6.179312">
		<ele>254</ele>
		<time>2011-09-11T08:46:33.859Z</time>
		<geoidheight>208</geoidheight>
	</trkpt>
	<trkpt lat="50.729587" lon="6.179312">
		<ele>254</ele>
		<time>2011-09-11T08:47:05.869Z</time>
		<geoidheight>208</geoidheight>
	</trkpt>
	<trkpt lat="50.729566" lon="6.179246">
		<ele>254</ele>
		<time>2011-09-11T08:47:06.858Z</time>
		<geoidheight>208</geoidheight>
	</trkpt>
	<trkpt lat="50.729566" lon="6.179246">
		<ele>254</ele>
		<time>2011-09-11T08:47:08.858Z</time>
		<geoidheight>208</geoidheight>
	</trkpt>
	<trkpt lat="50.729536" lon="6.179177">
		<ele>254</ele>
		<time>2011-09-11T08:47:09.857Z</time>
		<geoidheight>208</geoidheight>
	</trkpt>
	<trkpt lat="50.729536" lon="6.179177">
		<ele>254</ele>
		<time>2011-09-11T08:47:23.858Z</time>
		<geoidheight>208</geoidheight>
	</trkpt>
	<trkpt lat="50.729578" lon="6.179210">
		<ele>254</ele>
		<time>2011-09-11T08:47:24.863Z</time>
		<geoidheight>208</geoidheight>
	</trkpt>
	<trkpt lat="50.729578" lon="6.179210">
		<ele>254</ele>
		<time>2011-09-11T08:47:57.865Z</time>
		<geoidheight>208</geoidheight>
	</trkpt>
	<trkpt lat="50.729612" lon="6.179264">
		<ele>254</ele>
		<time>2011-09-11T08:47:58.860Z</time>
		<geoidheight>208</geoidheight>
	</trkpt>
	<trkpt lat="50.729612" lon="6.179264">
		<ele>254</ele>
		<time>2011-09-11T08:48:17.865Z</time>
		<geoidheight>208</geoidheight>
	</trkpt>
	<trkpt lat="50.729564" lon="6.179288">
		<ele>254</ele>
		<time>2011-09-11T08:48:18.859Z</time>
		<geoidheight>208</geoidheight>
	</trkpt>
	<trkpt lat="50.729564" lon="6.179288">
		<ele>254</ele>
		<time>2011-09-11T08:48:23.861Z</time>
		<geoidheight>208</geoidheight>
	</trkpt>
	<trkpt lat="50.729519" lon="6.179303">
		<ele>254</ele>
		<time>2011-09-11T08:48:24.860Z</time>
		<geoidheight>208</geoidheight>
	</trkpt>
	<trkpt lat="50.729519" lon="6.179303">
		<ele>254</ele>
		<time>2011-09-11T08:49:07.876Z</time>
		<geoidheight>208</geoidheight>
	</trkpt>
	<trkpt lat="50.729507" lon="6.179242">
		<ele>254</ele>
		<time>2011-09-11T08:49:08.875Z</time>
		<geoidheight>208</geoidheight>
	</trkpt>
	<trkpt lat="50.729504" lon="6.179236">
		<ele>254</ele>
		<time>2011-09-11T08:49:14.869Z</time>
		<geoidheight>208</geoidheight>
	</trkpt>
	<trkpt lat="50.729517" lon="6.179245">
		<ele>254</ele>
		<time>2011-09-11T08:49:15.867Z</time>
		<geoidheight>208</geoidheight>
	</trkpt>
	<trkpt lat="50.729515" lon="6.179243">
		<ele>254</ele>
		<time>2011-09-11T08:49:33.865Z</time>
		<geoidheight>208</geoidheight>
	</trkpt>
	<trkpt lat="50.729506" lon="6.179282">
		<ele>253</ele>
		<time>2011-09-11T08:49:34.862Z</time>
		<geoidheight>207</geoidheight>
	</trkpt>
	<trkpt lat="50.729498" lon="6.179277">
		<ele>253</ele>
		<time>2011-09-11T08:49:35.863Z</time>
		<geoidheight>207</geoidheight>
	</trkpt>
	<trkpt lat="50.729491" lon="6.179263">
		<ele>253</ele>
		<time>2011-09-11T08:49:36.864Z</time>
		<geoidheight>207</geoidheight>
	</trkpt>
	<trkpt lat="50.729489" lon="6.179241">
		<ele>253</ele>
		<time>2011-09-11T08:49:37.860Z</time>
		<geoidheight>207</geoidheight>
	</trkpt>
	<trkpt lat="50.729488" lon="6.179217">
		<ele>253</ele>
		<time>2011-09-11T08:49:38.863Z</time>
		<geoidheight>207</geoidheight>
	</trkpt>
	<trkpt lat="50.729489" lon="6.179197">
		<ele>253</ele>
		<time>2011-09-11T08:49:39.860Z</time>
		<geoidheight>207</geoidheight>
	</trkpt>
	<trkpt lat="50.729492" lon="6.179184">
		<ele>253</ele>
		<time>2011-09-11T08:49:40.860Z</time>
		<geoidheight>207</geoidheight>
	</trkpt>
	<trkpt lat="50.729499" lon="6.179172">
		<ele>253</ele>
		<time>2011-09-11T08:49:41.863Z</time>
		<geoidheight>207</geoidheight>
	</trkpt>
	<trkpt lat="50.729505" lon="6.179156">
		<ele>253</ele>
		<time>2011-09-11T08:49:42.860Z</time>
		<geoidheight>207</geoidheight>
	</trkpt>
	<trkpt lat="50.729510" lon="6.179143">
		<ele>253</ele>
		<time>2011-09-11T08:49:43.867Z</time>
		<geoidheight>207</geoidheight>
	</trkpt>
	<trkpt lat="50.729517" lon="6.179146">
		<ele>253</ele>
		<time>2011-09-11T08:49:44.861Z</time>
		<geoidheight>207</geoidheight>
	</trkpt>
	<trkpt lat="50.729521" lon="6.179152">
		<ele>252</ele>
		<time>2011-09-11T08:49:45.862Z</time>
		<geoidheight>206</geoidheight>
	</trkpt>
	<trkpt lat="50.729526" lon="6.179161">
		<ele>252</ele>
		<time>2011-09-11T08:49:46.861Z</time>
		<geoidheight>206</geoidheight>
	</trkpt>
	<trkpt lat="50.729531" lon="6.179171">
		<ele>252</ele>
		<time>2011-09-11T08:49:47.862Z</time>
		<geoidheight>206</geoidheight>
	</trkpt>
	<trkpt lat="50.729535" lon="6.179184">
		<ele>252</ele>
		<time>2011-09-11T08:49:48.867Z</time>
		<geoidheight>206</geoidheight>
	</trkpt>
	<trkpt lat="50.729539" lon="6.179198">
		<ele>252</ele>
		<time>2011-09-11T08:49:49.861Z</time>
		<geoidheight>206</geoidheight>
	</trkpt>
	<trkpt lat="50.729539" lon="6.179213">
		<ele>252</ele>
		<time>2011-09-11T08:49:50.859Z</time>
		<geoidheight>206</geoidheight>
	</trkpt>
	<trkpt lat="50.729535" lon="6.179227">
		<ele>252</ele>
		<time>2011-09-11T08:49:51.865Z</time>
		<geoidheight>206</geoidheight>
	</trkpt>
	<trkpt lat="50.729531" lon="6.179238">
		<ele>252</ele>
		<time>2011-09-11T08:49:52.861Z</time>
		<geoidheight>206</geoidheight>
	</trkpt>
	<trkpt lat="50.729527" lon="6.179247">
		<ele>251</ele>
		<time>2011-09-11T08:49:53.860Z</time>
		<geoidheight>205</geoidheight>
	</trkpt>
	<trkpt lat="50.729522" lon="6.179255">
		<ele>251</ele>
		<time>2011-09-11T08:49:54.866Z</time>
		<geoidheight>205</geoidheight>
	</trkpt>
	<trkpt lat="50.729518" lon="6.179260">
		<ele>251</ele>
		<time>2011-09-11T08:49:55.860Z</time>
		<geoidheight>205</geoidheight>
	</trkpt>
	<trkpt lat="50.729521" lon="6.179269">
		<ele>251</ele>
		<time>2011-09-11T08:49:57.877Z</time>
		<geoidheight>205</geoidheight>
	</trkpt>
	<trkpt lat="50.729521" lon="6.179269">
		<ele>251</ele>
		<time>2011-09-11T08:49:58.868Z</time>
		<geoidheight>205</geoidheight>
	</trkpt>
	<trkpt lat="50.729521" lon="6.179269">
		<ele>251</ele>
		<time>2011-09-11T08:49:59.875Z</time>
		<geoidheight>205</geoidheight>
	</trkpt>
	<trkpt lat="50.729521" lon="6.179269">
		<ele>251</ele>
		<time>2011-09-11T08:50:00.865Z</time>
		<geoidheight>205</geoidheight>
	</trkpt>
	<trkpt lat="50.729521" lon="6.179269">
		<ele>251</ele>
		<time>2011-09-11T08:50:01.869Z</time>
		<geoidheight>205</geoidheight>
	</trkpt>
	<trkpt lat="50.729521" lon="6.179269">
		<ele>251</ele>
		<time>2011-09-11T08:50:02.873Z</time>
		<geoidheight>205</geoidheight>
	</trkpt>
	<trkpt lat="50.729521" lon="6.179269">
		<ele>251</ele>
		<time>2011-09-11T08:50:03.860Z</time>
		<geoidheight>205</geoidheight>
	</trkpt>
	<trkpt lat="50.729521" lon="6.179269">
		<ele>251</ele>
		<time>2011-09-11T08:50:04.862Z</time>
		<geoidheight>205</geoidheight>
	</trkpt>
	<trkpt lat="50.729521" lon="6.179269">
		<ele>251</ele>
		<time>2011-09-11T08:50:05.861Z</time>
		<geoidheight>205</geoidheight>
	</trkpt>
	<trkpt lat="50.729521" lon="6.179269">
		<ele>251</ele>
		<time>2011-09-11T08:50:06.867Z</time>
		<geoidheight>205</geoidheight>
	</trkpt>
	<trkpt lat="50.729521" lon="6.179269">
		<ele>251</ele>
		<time>2011-09-11T08:50:07.865Z</time>
		<geoidheight>205</geoidheight>
	</trkpt>
	<trkpt lat="50.729521" lon="6.179269">
		<ele>251</ele>
		<time>2011-09-11T08:50:08.860Z</time>
		<geoidheight>205</geoidheight>
	</trkpt>
	<trkpt lat="50.729521" lon="6.179269">
		<ele>251</ele>
		<time>2011-09-11T08:50:09.858Z</time>
		<geoidheight>205</geoidheight>
	</trkpt>
	<trkpt lat="50.729521" lon="6.179269">
		<ele>251</ele>
		<time>2011-09-11T08:50:10.862Z</time>
		<geoidheight>205</geoidheight>
	</trkpt>
	<trkpt lat="50.729521" lon="6.179269">
		<ele>251</ele>
		<time>2011-09-11T08:50:11.860Z</time>
		<geoidheight>205</geoidheight>
	</trkpt>
	<trkpt lat="50.729521" lon="6.179269">
		<ele>251</ele>
		<time>2011-09-11T08:50:12.861Z</time>
		<geoidheight>205</geoidheight>
	</trkpt>
	<trkpt lat="50.729521" lon="6.179269">
		<ele>251</ele>
		<time>2011-09-11T08:50:13.860Z</time>
		<geoidheight>205</geoidheight>
	</trkpt>
	<trkpt lat="50.729521" lon="6.179269">
		<ele>251</ele>
		<time>2011-09-11T08:50:14.861Z</time>
		<geoidheight>205</geoidheight>
	</trkpt>
	<trkpt lat="50.729521" lon="6.179269">
		<ele>251</ele>
		<time>2011-09-11T08:50:15.860Z</time>
		<geoidheight>205</geoidheight>
	</trkpt>
	<trkpt lat="50.729521" lon="6.179269">
		<ele>251</ele>
		<time>2011-09-11T08:50:16.860Z</time>
		<geoidheight>205</geoidheight>
	</trkpt>
	<trkpt lat="50.729521" lon="6.179269">
		<ele>251</ele>
		<time>2011-09-11T08:50:17.864Z</time>
		<geoidheight>205</geoidheight>
	</trkpt>
	<trkpt lat="50.729565" lon="6.179297">
		<ele>251</ele>
		<time>2011-09-11T08:50:18.861Z</time>
		<geoidheight>205</geoidheight>
	</trkpt>
	<trkpt lat="50.729565" lon="6.179297">
		<ele>251</ele>
		<time>2011-09-11T08:50:19.862Z</time>
		<geoidheight>205</geoidheight>
	</trkpt>
	<trkpt lat="50.729565" lon="6.179297">
		<ele>251</ele>
		<time>2011-09-11T08:50:20.864Z</time>
		<geoidheight>205</geoidheight>
	</trkpt>
	<trkpt lat="50.729565" lon="6.179297">
		<ele>251</ele>
		<time>2011-09-11T08:50:21.864Z</time>
		<geoidheight>205</geoidheight>
	</trkpt>
	<trkpt lat="50.729565" lon="6.179297">
		<ele>251</ele>
		<time>2011-09-11T08:50:22.863Z</time>
		<geoidheight>205</geoidheight>
	</trkpt>
	<trkpt lat="50.729565" lon="6.179297">
		<ele>251</ele>
		<time>2011-09-11T08:50:23.868Z</time>
		<geoidheight>205</geoidheight>
	</trkpt>
	<trkpt lat="50.729565" lon="6.179297">
		<ele>251</ele>
		<time>2011-09-11T08:50:24.860Z</time>
		<geoidheight>205</geoidheight>
	</trkpt>
	<trkpt lat="50.729565" lon="6.179297">
		<ele>251</ele>
		<time>2011-09-11T08:50:25.861Z</time>
		<geoidheight>205</geoidheight>
	</trkpt>
	<trkpt lat="50.729565" lon="6.179297">
		<ele>251</ele>
		<time>2011-09-11T08:50:26.860Z</time>
		<geoidheight>205</geoidheight>
	</trkpt>
	<trkpt lat="50.729565" lon="6.179297">
		<ele>251</ele>
		<time>2011-09-11T08:50:27.863Z</time>
		<geoidheight>205</geoidheight>
	</trkpt>
	<trkpt lat="50.729565" lon="6.179297">
		<ele>251</ele>
		<time>2011-09-11T08:50:28.861Z</time>
		<geoidheight>205</geoidheight>
	</trkpt>
	<trkpt lat="50.729565" lon="6.179297">
		<ele>251</ele>
		<time>2011-09-11T08:50:29.868Z</time>
		<geoidheight>205</geoidheight>
	</trkpt>
	<trkpt lat="50.729565" lon="6.179297">
		<ele>250</ele>
		<time>2011-09-11T08:50:30.867Z</time>
		<geoidheight>204</geoidheight>
	</trkpt>
	<trkpt lat="50.729565" lon="6.179297">
		<ele>250</ele>
		<time>2011-09-11T08:50:38.860Z</time>
		<geoidheight>204</geoidheight>
	</trkpt>
	<trkpt lat="50.729565" lon="6.179297">
		<ele>250</ele>
		<time>2011-09-11T08:50:39.869Z</time>
		<geoidheight>204</geoidheight>
	</trkpt>
	<trkpt lat="50.729565" lon="6.179297">
		<ele>250</ele>
		<time>2011-09-11T08:50:40.869Z</time>
		<geoidheight>204</geoidheight>
	</trkpt>
	<trkpt lat="50.729565" lon="6.179297">
		<ele>250</ele>
		<time>2011-09-11T08:50:41.861Z</time>
		<geoidheight>204</geoidheight>
	</trkpt>
	<trkpt lat="50.729565" lon="6.179297">
		<ele>250</ele>
		<time>2011-09-11T08:50:42.867Z</time>
		<geoidheight>204</geoidheight>
	</trkpt>
	<trkpt lat="50.729565" lon="6.179297">
		<ele>250</ele>
		<time>2011-09-11T08:50:43.866Z</time>
		<geoidheight>204</geoidheight>
	</trkpt>
	<trkpt lat="50.729534" lon="6.179354">
		<ele>250</ele>
		<time>2011-09-11T08:50:44.863Z</time>
		<geoidheight>204</geoidheight>
	</trkpt>
	<trkpt lat="50.729534" lon="6.179354">
		<ele>250</ele>
		<time>2011-09-11T08:50:45.859Z</time>
		<geoidheight>204</geoidheight>
	</trkpt>
	<trkpt lat="50.729534" lon="6.179354">
		<ele>250</ele>
		<time>2011-09-11T08:50:46.861Z</time>
		<geoidheight>204</geoidheight>
	</trkpt>
	<trkpt lat="50.729534" lon="6.179354">
		<ele>249</ele>
		<time>2011-09-11T08:50:47.865Z</time>
		<geoidheight>203</geoidheight>
	</trkpt>
	<trkpt lat="50.729534" lon="6.179354">
		<ele>249</ele>
		<time>2011-09-11T08:50:48.861Z</time>
		<geoidheight>203</geoidheight>
	</trkpt>
	<trkpt lat="50.729515" lon="6.179351">
		<ele>249</ele>
		<time>2011-09-11T08:50:49.869Z</time>
		<geoidheight>203</geoidheight>
	</trkpt>
	<trkpt lat="50.729518" lon="6.179358">
		<ele>249</ele>
		<time>2011-09-11T08:50:50.859Z</time>
		<geoidheight>203</geoidheight>
	</trkpt>
	<trkpt lat="50.729519" lon="6.179368">
		<ele>249</ele>
		<time>2011-09-11T08:50:51.860Z</time>
		<geoidheight>203</geoidheight>
	</trkpt>
	<trkpt lat="50.729522" lon="6.179378">
		<ele>248</ele>
		<time>2011-09-11T08:50:52.865Z</time>
		<geoidheight>202</geoidheight>
	</trkpt>
	<trkpt lat="50.729526" lon="6.179386">
		<ele>248</ele>
		<time>2011-09-11T08:50:53.865Z</time>
		<geoidheight>202</geoidheight>
	</trkpt>
	<trkpt lat="50.729530" lon="6.179394">
		<ele>248</ele>
		<time>2011-09-11T08:50:54.865Z</time>
		<geoidheight>202</geoidheight>
	</trkpt>
	<trkpt lat="50.729533" lon="6.179397">
		<ele>248</ele>
		<time>2011-09-11T08:50:55.870Z</time>
		<geoidheight>202</geoidheight>
	</trkpt>
	<trkpt lat="50.729533" lon="6.179397">
		<ele>247</ele>
		<time>2011-09-11T08:50:56.863Z</time>
		<geoidheight>201</geoidheight>
	</trkpt>
	<trkpt lat="50.729540" lon="6.179407">
		<ele>247</ele>
		<time>2011-09-11T08:50:57.874Z</time>
		<geoidheight>201</geoidheight>
	</trkpt>
	<trkpt lat="50.729545" lon="6.179411">
		<ele>247</ele>
		<time>2011-09-11T08:50:58.866Z</time>
		<geoidheight>201</geoidheight>
	</trkpt>
	<trkpt lat="50.729545" lon="6.179411">
		<ele>247</ele>
		<time>2011-09-11T08:50:59.868Z</time>
		<geoidheight>201</geoidheight>
	</trkpt>
	<trkpt lat="50.729545" lon="6.179411">
		<ele>247</ele>
		<time>2011-09-11T08:51:00.865Z</time>
		<geoidheight>201</geoidheight>
	</trkpt>
	<trkpt lat="50.729561" lon="6.179416">
		<ele>246</ele>
		<time>2011-09-11T08:51:01.879Z</time>
		<geoidheight>200</geoidheight>
	</trkpt>
	<trkpt lat="50.729570" lon="6.179417">
		<ele>246</ele>
		<time>2011-09-11T08:51:02.868Z</time>
		<geoidheight>200</geoidheight>
	</trkpt>
	<trkpt lat="50.729578" lon="6.179423">
		<ele>246</ele>
		<time>2011-09-11T08:51:03.865Z</time>
		<geoidheight>200</geoidheight>
	</trkpt>
	<trkpt lat="50.729586" lon="6.179431">
		<ele>246</ele>
		<time>2011-09-11T08:51:04.869Z</time>
		<geoidheight>200</geoidheight>
	</trkpt>
	<trkpt lat="50.729586" lon="6.179431">
		<ele>246</ele>
		<time>2011-09-11T08:51:05.867Z</time>
		<geoidheight>200</geoidheight>
	</trkpt>
	<trkpt lat="50.729586" lon="6.179431">
		<ele>245</ele>
		<time>2011-09-11T08:51:06.869Z</time>
		<geoidheight>199</geoidheight>
	</trkpt>
	<trkpt lat="50.729586" lon="6.179431">
		<ele>245</ele>
		<time>2011-09-11T08:51:09.862Z</time>
		<geoidheight>199</geoidheight>
	</trkpt>
	<trkpt lat="50.729586" lon="6.179431">
		<ele>245</ele>
		<time>2011-09-11T08:51:10.877Z</time>
		<geoidheight>199</geoidheight>
	</trkpt>
	<trkpt lat="50.729586" lon="6.179431">
		<ele>245</ele>
		<time>2011-09-11T08:51:11.879Z</time>
		<geoidheight>199</geoidheight>
	</trkpt>
	<trkpt lat="50.729586" lon="6.179431">
		<ele>245</ele>
		<time>2011-09-11T08:51:12.884Z</time>
		<geoidheight>199</geoidheight>
	</trkpt>
	<trkpt lat="50.729586" lon="6.179431">
		<ele>245</ele>
		<time>2011-09-11T08:51:13.874Z</time>
		<geoidheight>199</geoidheight>
	</trkpt>
	<trkpt lat="50.729586" lon="6.179431">
		<ele>244</ele>
		<time>2011-09-11T08:51:14.881Z</time>
		<geoidheight>198</geoidheight>
	</trkpt>
	<trkpt lat="50.729579" lon="6.179508">
		<ele>244</ele>
		<time>2011-09-11T08:51:15.887Z</time>
		<geoidheight>198</geoidheight>
	</trkpt>
	<trkpt lat="50.729579" lon="6.179508">
		<ele>244</ele>
		<time>2011-09-11T08:51:16.881Z</time>
		<geoidheight>198</geoidheight>
	</trkpt>
	<trkpt lat="50.729579" lon="6.179508">
		<ele>244</ele>
		<time>2011-09-11T08:51:17.884Z</time>
		<geoidheight>198</geoidheight>
	</trkpt>
	<trkpt lat="50.729579" lon="6.179508">
		<ele>244</ele>
		<time>2011-09-11T08:51:18.879Z</time>
		<geoidheight>198</geoidheight>
	</trkpt>
	<trkpt lat="50.729579" lon="6.179508">
		<ele>243</ele>
		<time>2011-09-11T08:51:19.884Z</time>
		<geoidheight>197</geoidheight>
	</trkpt>
	<trkpt lat="50.729553" lon="6.179569">
		<ele>243</ele>
		<time>2011-09-11T08:51:20.878Z</time>
		<geoidheight>197</geoidheight>
	</trkpt>
	<trkpt lat="50.729553" lon="6.179569">
		<ele>243</ele>
		<time>2011-09-11T08:51:21.876Z</time>
		<geoidheight>197</geoidheight>
	</trkpt>
	<trkpt lat="50.729553" lon="6.179569">
		<ele>243</ele>
		<time>2011-09-11T08:51:22.884Z</time>
		<geoidheight>197</geoidheight>
	</trkpt>
	<trkpt lat="50.729535" lon="6.179612">
		<ele>243</ele>
		<time>2011-09-11T08:51:23.886Z</time>
		<geoidheight>197</geoidheight>
	</trkpt>
	<trkpt lat="50.729528" lon="6.179626">
		<ele>242</ele>
		<time>2011-09-11T08:51:24.880Z</time>
		<geoidheight>196</geoidheight>
	</trkpt>
	<trkpt lat="50.729528" lon="6.179626">
		<ele>242</ele>
		<time>2011-09-11T08:51:26.876Z</time>
		<geoidheight>196</geoidheight>
	</trkpt>
	<trkpt lat="50.729528" lon="6.179626">
		<ele>242</ele>
		<time>2011-09-11T08:51:27.876Z</time>
		<geoidheight>196</geoidheight>
	</trkpt>
	<trkpt lat="50.729528" lon="6.179626">
		<ele>242</ele>
		<time>2011-09-11T08:51:28.886Z</time>
		<geoidheight>196</geoidheight>
	</trkpt>
	<trkpt lat="50.729503" lon="6.179693">
		<ele>242</ele>
		<time>2011-09-11T08:51:29.877Z</time>
		<geoidheight>196</geoidheight>
	</trkpt>
	<trkpt lat="50.729503" lon="6.179693">
		<ele>242</ele>
		<time>2011-09-11T08:51:30.885Z</time>
		<geoidheight>196</geoidheight>
	</trkpt>
	<trkpt lat="50.729503" lon="6.179693">
		<ele>241</ele>
		<time>2011-09-11T08:51:31.888Z</time>
		<geoidheight>195</geoidheight>
	</trkpt>
	<trkpt lat="50.729503" lon="6.179693">
		<ele>241</ele>
		<time>2011-09-11T08:51:32.882Z</time>
		<geoidheight>195</geoidheight>
	</trkpt>
	<trkpt lat="50.729486" lon="6.179746">
		<ele>241</ele>
		<time>2011-09-11T08:51:33.891Z</time>
		<geoidheight>195</geoidheight>
	</trkpt>
	<trkpt lat="50.729481" lon="6.179757">
		<ele>241</ele>
		<time>2011-09-11T08:51:34.882Z</time>
		<geoidheight>195</geoidheight>
	</trkpt>
	<trkpt lat="50.729477" lon="6.179767">
		<ele>241</ele>
		<time>2011-09-11T08:51:35.882Z</time>
		<geoidheight>195</geoidheight>
	</trkpt>
	<trkpt lat="50.729472" lon="6.179777">
		<ele>241</ele>
		<time>2011-09-11T08:51:36.883Z</time>
		<geoidheight>195</geoidheight>
	</trkpt>
	<trkpt lat="50.729465" lon="6.179788">
		<ele>241</ele>
		<time>2011-09-11T08:51:37.889Z</time>
		<geoidheight>195</geoidheight>
	</trkpt>
	<trkpt lat="50.729458" lon="6.179801">
		<ele>241</ele>
		<time>2011-09-11T08:51:38.882Z</time>
		<geoidheight>195</geoidheight>
	</trkpt>
	<trkpt lat="50.729450" lon="6.179814">
		<ele>240</ele>
		<time>2011-09-11T08:51:39.883Z</time>
		<geoidheight>194</geoidheight>
	</trkpt>
	<trkpt lat="50.729443" lon="6.179829">
		<ele>240</ele>
		<time>2011-09-11T08:51:40.886Z</time>
		<geoidheight>194</geoidheight>
	</trkpt>
	<trkpt lat="50.729437" lon="6.179845">
		<ele>240</ele>
		<time>2011-09-11T08:51:41.887Z</time>
		<geoidheight>194</geoidheight>
	</trkpt>
	<trkpt lat="50.729431" lon="6.179863">
		<ele>240</ele>
		<time>2011-09-11T08:51:42.883Z</time>
		<geoidheight>194</geoidheight>
	</trkpt>
	<trkpt lat="50.729426" lon="6.179881">
		<ele>240</ele>
		<time>2011-09-11T08:51:43.881Z</time>
		<geoidheight>194</geoidheight>
	</trkpt>
	<trkpt lat="50.729421" lon="6.179900">
		<ele>240</ele>
		<time>2011-09-11T08:51:44.889Z</time>
		<geoidheight>194</geoidheight>
	</trkpt>
	<trkpt lat="50.729416" lon="6.179914">
		<ele>240</ele>
		<time>2011-09-11T08:51:45.881Z</time>
		<geoidheight>194</geoidheight>
	</trkpt>
	<trkpt lat="50.729411" lon="6.179927">
		<ele>240</ele>
		<time>2011-09-11T08:51:46.876Z</time>
		<geoidheight>194</geoidheight>
	</trkpt>
	<trkpt lat="50.729406" lon="6.179940">
		<ele>239</ele>
		<time>2011-09-11T08:51:47.888Z</time>
		<geoidheight>193</geoidheight>
	</trkpt>
	<trkpt lat="50.729401" lon="6.179953">
		<ele>239</ele>
		<time>2011-09-11T08:51:48.890Z</time>
		<geoidheight>193</geoidheight>
	</trkpt>
	<trkpt lat="50.729397" lon="6.179966">
		<ele>239</ele>
		<time>2011-09-11T08:51:49.884Z</time>
		<geoidheight>193</geoidheight>
	</trkpt>
	<trkpt lat="50.729393" lon="6.179981">
		<ele>239</ele>
		<time>2011-09-11T08:51:50.891Z</time>
		<geoidheight>193</geoidheight>
	</trkpt>
	<trkpt lat="50.729388" lon="6.179996">
		<ele>239</ele>
		<time>2011-09-11T08:51:51.870Z</time>
		<geoidheight>193</geoidheight>
	</trkpt>
	<trkpt lat="50.729384" lon="6.180011">
		<ele>239</ele>
		<time>2011-09-11T08:51:52.860Z</time>
		<geoidheight>193</geoidheight>
	</trkpt>
	<trkpt lat="50.729380" lon="6.180026">
		<ele>239</ele>
		<time>2011-09-11T08:51:53.862Z</time>
		<geoidheight>193</geoidheight>
	</trkpt>
	<trkpt lat="50.729375" lon="6.180040">
		<ele>239</ele>
		<time>2011-09-11T08:51:54.866Z</time>
		<geoidheight>193</geoidheight>
	</trkpt>
	<trkpt lat="50.729369" lon="6.180055">
		<ele>239</ele>
		<time>2011-09-11T08:51:55.865Z</time>
		<geoidheight>193</geoidheight>
	</trkpt>
	<trkpt lat="50.729362" lon="6.180070">
		<ele>239</ele>
		<time>2011-09-11T08:51:56.863Z</time>
		<geoidheight>193</geoidheight>
	</trkpt>
	<trkpt lat="50.729353" lon="6.180085">
		<ele>239</ele>
		<time>2011-09-11T08:51:57.862Z</time>
		<geoidheight>193</geoidheight>
	</trkpt>
	<trkpt lat="50.729344" lon="6.180101">
		<ele>239</ele>
		<time>2011-09-11T08:51:58.871Z</time>
		<geoidheight>193</geoidheight>
	</trkpt>
	<trkpt lat="50.729344" lon="6.180101">
		<ele>239</ele>
		<time>2011-09-11T08:51:59.861Z</time>
		<geoidheight>193</geoidheight>
	</trkpt>
	<trkpt lat="50.729344" lon="6.180101">
		<ele>239</ele>
		<time>2011-09-11T08:52:00.874Z</time>
		<geoidheight>193</geoidheight>
	</trkpt>
	<trkpt lat="50.729344" lon="6.180101">
		<ele>239</ele>
		<time>2011-09-11T08:52:01.864Z</time>
		<geoidheight>193</geoidheight>
	</trkpt>
	<trkpt lat="50.729344" lon="6.180101">
		<ele>239</ele>
		<time>2011-09-11T08:52:02.868Z</time>
		<geoidheight>193</geoidheight>
	</trkpt>
	<trkpt lat="50.729344" lon="6.180101">
		<ele>239</ele>
		<time>2011-09-11T08:52:03.860Z</time>
		<geoidheight>193</geoidheight>
	</trkpt>
	<trkpt lat="50.729344" lon="6.180101">
		<ele>239</ele>
		<time>2011-09-11T08:52:04.864Z</time>
		<geoidheight>193</geoidheight>
	</trkpt>
	<trkpt lat="50.729344" lon="6.180101">
		<ele>239</ele>
		<time>2011-09-11T08:52:05.861Z</time>
		<geoidheight>193</geoidheight>
	</trkpt>
	<trkpt lat="50.729331" lon="6.180173">
		<ele>239</ele>
		<time>2011-09-11T08:52:06.860Z</time>
		<geoidheight>193</geoidheight>
	</trkpt>
	<trkpt lat="50.729331" lon="6.180173">
		<ele>239</ele>
		<time>2011-09-11T08:52:07.862Z</time>
		<geoidheight>193</geoidheight>
	</trkpt>
	<trkpt lat="50.729331" lon="6.180173">
		<ele>239</ele>
		<time>2011-09-11T08:52:08.866Z</time>
		<geoidheight>193</geoidheight>
	</trkpt>
	<trkpt lat="50.729323" lon="6.180194">
		<ele>239</ele>
		<time>2011-09-11T08:52:09.862Z</time>
		<geoidheight>193</geoidheight>
	</trkpt>
	<trkpt lat="50.729320" lon="6.180203">
		<ele>239</ele>
		<time>2011-09-11T08:52:10.865Z</time>
		<geoidheight>193</geoidheight>
	</trkpt>
	<trkpt lat="50.729320" lon="6.180203">
		<ele>239</ele>
		<time>2011-09-11T08:52:11.861Z</time>
		<geoidheight>193</geoidheight>
	</trkpt>
	<trkpt lat="50.729320" lon="6.180203">
		<ele>239</ele>
		<time>2011-09-11T08:52:12.860Z</time>
		<geoidheight>193</geoidheight>
	</trkpt>
	<trkpt lat="50.729320" lon="6.180203">
		<ele>239</ele>
		<time>2011-09-11T08:52:13.861Z</time>
		<geoidheight>193</geoidheight>
	</trkpt>
	<trkpt lat="50.729320" lon="6.180203">
		<ele>239</ele>
		<time>2011-09-11T08:52:14.863Z</time>
		<geoidheight>193</geoidheight>
	</trkpt>
	<trkpt lat="50.729320" lon="6.180203">
		<ele>239</ele>
		<time>2011-09-11T08:52:15.866Z</time>
		<geoidheight>193</geoidheight>
	</trkpt>
	<trkpt lat="50.729320" lon="6.180203">
		<ele>239</ele>
		<time>2011-09-11T08:52:16.862Z</time>
		<geoidheight>193</geoidheight>
	</trkpt>
	<trkpt lat="50.729320" lon="6.180203">
		<ele>239</ele>
		<time>2011-09-11T08:52:21.875Z</time>
		<geoidheight>193</geoidheight>
	</trkpt>
	<trkpt lat="50.729302" lon="6.180278">
		<ele>239</ele>
		<time>2011-09-11T08:52:22.874Z</time>
		<geoidheight>193</geoidheight>
	</trkpt>
	<trkpt lat="50.729302" lon="6.180278">
		<ele>239</ele>
		<time>2011-09-11T08:52:26.878Z</time>
		<geoidheight>193</geoidheight>
	</trkpt>
	<trkpt lat="50.729276" lon="6.180340">
		<ele>239</ele>
		<time>2011-09-11T08:52:27.886Z</time>
		<geoidheight>193</geoidheight>
	</trkpt>
	<trkpt lat="50.729276" lon="6.180340">
		<ele>240</ele>
		<time>2011-09-11T08:52:31.880Z</time>
		<geoidheight>194</geoidheight>
	</trkpt>
	<trkpt lat="50.729227" lon="6.180382">
		<ele>240</ele>
		<time>2011-09-11T08:52:32.890Z</time>
		<geoidheight>194</geoidheight>
	</trkpt>
	<trkpt lat="50.729215" lon="6.180390">
		<ele>240</ele>
		<time>2011-09-11T08:52:33.885Z</time>
		<geoidheight>194</geoidheight>
	</trkpt>
	<trkpt lat="50.729203" lon="6.180399">
		<ele>240</ele>
		<time>2011-09-11T08:52:34.860Z</time>
		<geoidheight>194</geoidheight>
	</trkpt>
	<trkpt lat="50.729190" lon="6.180406">
		<ele>240</ele>
		<time>2011-09-11T08:52:35.861Z</time>
		<geoidheight>194</geoidheight>
	</trkpt>
	<trkpt lat="50.729178" lon="6.180413">
		<ele>240</ele>
		<time>2011-09-11T08:52:36.860Z</time>
		<geoidheight>194</geoidheight>
	</trkpt>
	<trkpt lat="50.729165" lon="6.180421">
		<ele>240</ele>
		<time>2011-09-11T08:52:37.861Z</time>
		<geoidheight>194</geoidheight>
	</trkpt>
	<trkpt lat="50.729153" lon="6.180430">
		<ele>241</ele>
		<time>2011-09-11T08:52:38.863Z</time>
		<geoidheight>195</geoidheight>
	</trkpt>
	<trkpt lat="50.729140" lon="6.180440">
		<ele>241</ele>
		<time>2011-09-11T08:52:39.861Z</time>
		<geoidheight>195</geoidheight>
	</trkpt>
	<trkpt lat="50.729128" lon="6.180451">
		<ele>241</ele>
		<time>2011-09-11T08:52:40.867Z</time>
		<geoidheight>195</geoidheight>
	</trkpt>
	<trkpt lat="50.729115" lon="6.180462">
		<ele>241</ele>
		<time>2011-09-11T08:52:41.874Z</time>
		<geoidheight>195</geoidheight>
	</trkpt>
	<trkpt lat="50.729101" lon="6.180475">
		<ele>241</ele>
		<time>2011-09-11T08:52:42.872Z</time>
		<geoidheight>195</geoidheight>
	</trkpt>
	<trkpt lat="50.729088" lon="6.180490">
		<ele>241</ele>
		<time>2011-09-11T08:52:43.868Z</time>
		<geoidheight>195</geoidheight>
	</trkpt>
	<trkpt lat="50.729060" lon="6.180522">
		<ele>241</ele>
		<time>2011-09-11T08:52:44.870Z</time>
		<geoidheight>195</geoidheight>
	</trkpt>
	<trkpt lat="50.729046" lon="6.180537">
		<ele>241</ele>
		<time>2011-09-11T08:52:45.869Z</time>
		<geoidheight>195</geoidheight>
	</trkpt>
	<trkpt lat="50.729034" lon="6.180556">
		<ele>241</ele>
		<time>2011-09-11T08:52:46.867Z</time>
		<geoidheight>195</geoidheight>
	</trkpt>
	<trkpt lat="50.729024" lon="6.180577">
		<ele>241</ele>
		<time>2011-09-11T08:52:47.860Z</time>
		<geoidheight>195</geoidheight>
	</trkpt>
	<trkpt lat="50.729015" lon="6.180598">
		<ele>241</ele>
		<time>2011-09-11T08:52:48.869Z</time>
		<geoidheight>195</geoidheight>
	</trkpt>
	<trkpt lat="50.729003" lon="6.180611">
		<ele>241</ele>
		<time>2011-09-11T08:52:49.862Z</time>
		<geoidheight>195</geoidheight>
	</trkpt>
	<trkpt lat="50.728990" lon="6.180621">
		<ele>241</ele>
		<time>2011-09-11T08:52:50.860Z</time>
		<geoidheight>195</geoidheight>
	</trkpt>
	<trkpt lat="50.728977" lon="6.180629">
		<ele>241</ele>
		<time>2011-09-11T08:52:51.861Z</time>
		<geoidheight>195</geoidheight>
	</trkpt>
	<trkpt lat="50.728964" lon="6.180636">
		<ele>242</ele>
		<time>2011-09-11T08:52:52.860Z</time>
		<geoidheight>196</geoidheight>
	</trkpt>
	<trkpt lat="50.728952" lon="6.180646">
		<ele>242</ele>
		<time>2011-09-11T08:52:53.860Z</time>
		<geoidheight>196</geoidheight>
	</trkpt>
	<trkpt lat="50.728939" lon="6.180660">
		<ele>242</ele>
		<time>2011-09-11T08:52:54.871Z</time>
		<geoidheight>196</geoidheight>
	</trkpt>
	<trkpt lat="50.728927" lon="6.180675">
		<ele>242</ele>
		<time>2011-09-11T08:52:55.869Z</time>
		<geoidheight>196</geoidheight>
	</trkpt>
	<trkpt lat="50.728918" lon="6.180690">
		<ele>242</ele>
		<time>2011-09-11T08:52:56.863Z</time>
		<geoidheight>196</geoidheight>
	</trkpt>
	<trkpt lat="50.728910" lon="6.180705">
		<ele>242</ele>
		<time>2011-09-11T08:52:57.865Z</time>
		<geoidheight>196</geoidheight>
	</trkpt>
	<trkpt lat="50.728900" lon="6.180712">
		<ele>242</ele>
		<time>2011-09-11T08:52:58.871Z</time>
		<geoidheight>196</geoidheight>
	</trkpt>
	<trkpt lat="50.728889" lon="6.180721">
		<ele>242</ele>
		<time>2011-09-11T08:52:59.862Z</time>
		<geoidheight>196</geoidheight>
	</trkpt>
	<trkpt lat="50.728878" lon="6.180731">
		<ele>242</ele>
		<time>2011-09-11T08:53:00.863Z</time>
		<geoidheight>196</geoidheight>
	</trkpt>
	<trkpt lat="50.728866" lon="6.180739">
		<ele>242</ele>
		<time>2011-09-11T08:53:01.863Z</time>
		<geoidheight>196</geoidheight>
	</trkpt>
	<trkpt lat="50.728853" lon="6.180747">
		<ele>242</ele>
		<time>2011-09-11T08:53:02.864Z</time>
		<geoidheight>196</geoidheight>
	</trkpt>
	<trkpt lat="50.728841" lon="6.180757">
		<ele>242</ele>
		<time>2011-09-11T08:53:03.862Z</time>
		<geoidheight>196</geoidheight>
	</trkpt>
	<trkpt lat="50.728828" lon="6.180769">
		<ele>242</ele>
		<time>2011-09-11T08:53:04.861Z</time>
		<geoidheight>196</geoidheight>
	</trkpt>
	<trkpt lat="50.728816" lon="6.180784">
		<ele>242</ele>
		<time>2011-09-11T08:53:05.865Z</time>
		<geoidheight>196</geoidheight>
	</trkpt>
	<trkpt lat="50.728804" lon="6.180799">
		<ele>242</ele>
		<time>2011-09-11T08:53:06.862Z</time>
		<geoidheight>196</geoidheight>
	</trkpt>
	<trkpt lat="50.728791" lon="6.180816">
		<ele>242</ele>
		<time>2011-09-11T08:53:07.862Z</time>
		<geoidheight>196</geoidheight>
	</trkpt>
	<trkpt lat="50.728778" lon="6.180836">
		<ele>242</ele>
		<time>2011-09-11T08:53:08.861Z</time>
		<geoidheight>196</geoidheight>
	</trkpt>
	<trkpt lat="50.728764" lon="6.180855">
		<ele>242</ele>
		<time>2011-09-11T08:53:09.862Z</time>
		<geoidheight>196</geoidheight>
	</trkpt>
	<trkpt lat="50.728749" lon="6.180874">
		<ele>242</ele>
		<time>2011-09-11T08:53:10.862Z</time>
		<geoidheight>196</geoidheight>
	</trkpt>
	<trkpt lat="50.728754" lon="6.180895">
		<ele>242</ele>
		<time>2011-09-11T08:53:11.861Z</time>
		<geoidheight>196</geoidheight>
	</trkpt>
	<trkpt lat="50.728760" lon="6.180917">
		<ele>242</ele>
		<time>2011-09-11T08:53:12.867Z</time>
		<geoidheight>196</geoidheight>
	</trkpt>
	<trkpt lat="50.728768" lon="6.180943">
		<ele>242</ele>
		<time>2011-09-11T08:53:13.861Z</time>
		<geoidheight>196</geoidheight>
	</trkpt>
	<trkpt lat="50.728765" lon="6.180956">
		<ele>242</ele>
		<time>2011-09-11T08:53:14.861Z</time>
		<geoidheight>196</geoidheight>
	</trkpt>
	<trkpt lat="50.728763" lon="6.180968">
		<ele>242</ele>
		<time>2011-09-11T08:53:15.865Z</time>
		<geoidheight>196</geoidheight>
	</trkpt>
	<trkpt lat="50.728759" lon="6.180974">
		<ele>242</ele>
		<time>2011-09-11T08:53:16.864Z</time>
		<geoidheight>196</geoidheight>
	</trkpt>
	<trkpt lat="50.728754" lon="6.180981">
		<ele>242</ele>
		<time>2011-09-11T08:53:17.869Z</time>
		<geoidheight>196</geoidheight>
	</trkpt>
	<trkpt lat="50.728751" lon="6.180996">
		<ele>242</ele>
		<time>2011-09-11T08:53:18.868Z</time>
		<geoidheight>196</geoidheight>
	</trkpt>
	<trkpt lat="50.728742" lon="6.181007">
		<ele>242</ele>
		<time>2011-09-11T08:53:19.869Z</time>
		<geoidheight>196</geoidheight>
	</trkpt>
	<trkpt lat="50.728731" lon="6.181018">
		<ele>242</ele>
		<time>2011-09-11T08:53:20.875Z</time>
		<geoidheight>196</geoidheight>
	</trkpt>
	<trkpt lat="50.728716" lon="6.181031">
		<ele>242</ele>
		<time>2011-09-11T08:53:21.885Z</time>
		<geoidheight>196</geoidheight>
	</trkpt>
	<trkpt lat="50.728702" lon="6.181050">
		<ele>242</ele>
		<time>2011-09-11T08:53:22.867Z</time>
		<geoidheight>196</geoidheight>
	</trkpt>
	<trkpt lat="50.728687" lon="6.181065">
		<ele>242</ele>
		<time>2011-09-11T08:53:23.869Z</time>
		<geoidheight>196</geoidheight>
	</trkpt>
	<trkpt lat="50.728667" lon="6.181077">
		<ele>242</ele>
		<time>2011-09-11T08:53:24.871Z</time>
		<geoidheight>196</geoidheight>
	</trkpt>
	<trkpt lat="50.728648" lon="6.181088">
		<ele>242</ele>
		<time>2011-09-11T08:53:25.865Z</time>
		<geoidheight>196</geoidheight>
	</trkpt>
	<trkpt lat="50.728630" lon="6.181096">
		<ele>242</ele>
		<time>2011-09-11T08:53:26.870Z</time>
		<geoidheight>196</geoidheight>
	</trkpt>
	<trkpt lat="50.728609" lon="6.181099">
		<ele>242</ele>
		<time>2011-09-11T08:53:27.864Z</time>
		<geoidheight>196</geoidheight>
	</trkpt>
	<trkpt lat="50.728590" lon="6.181101">
		<ele>242</ele>
		<time>2011-09-11T08:53:28.865Z</time>
		<geoidheight>196</geoidheight>
	</trkpt>
	<trkpt lat="50.728574" lon="6.181107">
		<ele>242</ele>
		<time>2011-09-11T08:53:29.865Z</time>
		<geoidheight>196</geoidheight>
	</trkpt>
	<trkpt lat="50.728559" lon="6.181110">
		<ele>242</ele>
		<time>2011-09-11T08:53:30.862Z</time>
		<geoidheight>196</geoidheight>
	</trkpt>
	<trkpt lat="50.728543" lon="6.181114">
		<ele>242</ele>
		<time>2011-09-11T08:53:31.868Z</time>
		<geoidheight>196</geoidheight>
	</trkpt>
	<trkpt lat="50.728525" lon="6.181123">
		<ele>242</ele>
		<time>2011-09-11T08:53:32.866Z</time>
		<geoidheight>196</geoidheight>
	</trkpt>
	<trkpt lat="50.728511" lon="6.181133">
		<ele>242</ele>
		<time>2011-09-11T08:53:33.873Z</time>
		<geoidheight>196</geoidheight>
	</trkpt>
	<trkpt lat="50.728501" lon="6.181142">
		<ele>242</ele>
		<time>2011-09-11T08:53:34.868Z</time>
		<geoidheight>196</geoidheight>
	</trkpt>
	<trkpt lat="50.728488" lon="6.181150">
		<ele>242</ele>
		<time>2011-09-11T08:53:35.865Z</time>
		<geoidheight>196</geoidheight>
	</trkpt>
	<trkpt lat="50.728476" lon="6.181160">
		<ele>242</ele>
		<time>2011-09-11T08:53:36.868Z</time>
		<geoidheight>196</geoidheight>
	</trkpt>
	<trkpt lat="50.728463" lon="6.181168">
		<ele>242</ele>
		<time>2011-09-11T08:53:37.869Z</time>
		<geoidheight>196</geoidheight>
	</trkpt>
	<trkpt lat="50.728451" lon="6.181178">
		<ele>242</ele>
		<time>2011-09-11T08:53:38.868Z</time>
		<geoidheight>196</geoidheight>
	</trkpt>
	<trkpt lat="50.728441" lon="6.181191">
		<ele>242</ele>
		<time>2011-09-11T08:53:39.863Z</time>
		<geoidheight>196</geoidheight>
	</trkpt>
	<trkpt lat="50.728431" lon="6.181203">
		<ele>242</ele>
		<time>2011-09-11T08:53:40.861Z</time>
		<geoidheight>196</geoidheight>
	</trkpt>
	<trkpt lat="50.728421" lon="6.181215">
		<ele>242</ele>
		<time>2011-09-11T08:53:41.864Z</time>
		<geoidheight>196</geoidheight>
	</trkpt>
	<trkpt lat="50.728414" lon="6.181228">
		<ele>242</ele>
		<time>2011-09-11T08:53:42.860Z</time>
		<geoidheight>196</geoidheight>
	</trkpt>
	<trkpt lat="50.728415" lon="6.181244">
		<ele>242</ele>
		<time>2011-09-11T08:53:43.861Z</time>
		<geoidheight>196</geoidheight>
	</trkpt>
	<trkpt lat="50.728420" lon="6.181262">
		<ele>242</ele>
		<time>2011-09-11T08:53:44.861Z</time>
		<geoidheight>196</geoidheight>
	</trkpt>
	<trkpt lat="50.728428" lon="6.181275">
		<ele>242</ele>
		<time>2011-09-11T08:53:45.863Z</time>
		<geoidheight>196</geoidheight>
	</trkpt>
	<trkpt lat="50.728433" lon="6.181290">
		<ele>242</ele>
		<time>2011-09-11T08:53:46.861Z</time>
		<geoidheight>196</geoidheight>
	</trkpt>
	<trkpt lat="50.728431" lon="6.181304">
		<ele>242</ele>
		<time>2011-09-11T08:53:47.861Z</time>
		<geoidheight>196</geoidheight>
	</trkpt>
	<trkpt lat="50.728429" lon="6.181319">
		<ele>242</ele>
		<time>2011-09-11T08:53:48.863Z</time>
		<geoidheight>196</geoidheight>
	</trkpt>
	<trkpt lat="50.728428" lon="6.181333">
		<ele>242</ele>
		<time>2011-09-11T08:53:49.867Z</time>
		<geoidheight>196</geoidheight>
	</trkpt>
	<trkpt lat="50.728428" lon="6.181350">
		<ele>242</ele>
		<time>2011-09-11T08:53:50.861Z</time>
		<geoidheight>196</geoidheight>
	</trkpt>
	<trkpt lat="50.728425" lon="6.181366">
		<ele>242</ele>
		<time>2011-09-11T08:53:51.864Z</time>
		<geoidheight>196</geoidheight>
	</trkpt>
	<trkpt lat="50.728420" lon="6.181381">
		<ele>242</ele>
		<time>2011-09-11T08:53:52.861Z</time>
		<geoidheight>196</geoidheight>
	</trkpt>
	<trkpt lat="50.728413" lon="6.181393">
		<ele>242</ele>
		<time>2011-09-11T08:53:53.863Z</time>
		<geoidheight>196</geoidheight>
	</trkpt>
	<trkpt lat="50.728404" lon="6.181404">
		<ele>242</ele>
		<time>2011-09-11T08:53:54.863Z</time>
		<geoidheight>196</geoidheight>
	</trkpt>
	<trkpt lat="50.728396" lon="6.181416">
		<ele>242</ele>
		<time>2011-09-11T08:53:55.863Z</time>
		<geoidheight>196</geoidheight>
	</trkpt>
	<trkpt lat="50.728389" lon="6.181432">
		<ele>242</ele>
		<time>2011-09-11T08:53:56.863Z</time>
		<geoidheight>196</geoidheight>
	</trkpt>
	<trkpt lat="50.728381" lon="6.181451">
		<ele>242</ele>
		<time>2011-09-11T08:53:57.861Z</time>
		<geoidheight>196</geoidheight>
	</trkpt>
	<trkpt lat="50.728379" lon="6.181475">
		<ele>242</ele>
		<time>2011-09-11T08:53:58.865Z</time>
		<geoidheight>196</geoidheight>
	</trkpt>
	<trkpt lat="50.728377" lon="6.181508">
		<ele>242</ele>
		<time>2011-09-11T08:53:59.862Z</time>
		<geoidheight>196</geoidheight>
	</trkpt>
	<trkpt lat="50.728377" lon="6.181546">
		<ele>242</ele>
		<time>2011-09-11T08:54:00.861Z</time>
		<geoidheight>196</geoidheight>
	</trkpt>
	<trkpt lat="50.728380" lon="6.181587">
		<ele>242</ele>
		<time>2011-09-11T08:54:01.863Z</time>
		<geoidheight>196</geoidheight>
	</trkpt>
	<trkpt lat="50.728387" lon="6.181631">
		<ele>242</ele>
		<time>2011-09-11T08:54:02.861Z</time>
		<geoidheight>196</geoidheight>
	</trkpt>
	<trkpt lat="50.728393" lon="6.181671">
		<ele>242</ele>
		<time>2011-09-11T08:54:03.861Z</time>
		<geoidheight>196</geoidheight>
	</trkpt>
	<trkpt lat="50.728397" lon="6.181717">
		<ele>242</ele>
		<time>2011-09-11T08:54:04.863Z</time>
		<geoidheight>196</geoidheight>
	</trkpt>
	<trkpt lat="50.728400" lon="6.181756">
		<ele>242</ele>
		<time>2011-09-11T08:54:05.862Z</time>
		<geoidheight>196</geoidheight>
	</trkpt>
	<trkpt lat="50.728402" lon="6.181788">
		<ele>241</ele>
		<time>2011-09-11T08:54:06.861Z</time>
		<geoidheight>195</geoidheight>
	</trkpt>
	<trkpt lat="50.728408" lon="6.181813">
		<ele>241</ele>
		<time>2011-09-11T08:54:07.864Z</time>
		<geoidheight>195</geoidheight>
	</trkpt>
	<trkpt lat="50.728417" lon="6.181831">
		<ele>241</ele>
		<time>2011-09-11T08:54:08.865Z</time>
		<geoidheight>195</geoidheight>
	</trkpt>
	<trkpt lat="50.728429" lon="6.181846">
		<ele>241</ele>
		<time>2011-09-11T08:54:09.861Z</time>
		<geoidheight>195</geoidheight>
	</trkpt>
	<trkpt lat="50.728437" lon="6.181867">
		<ele>241</ele>
		<time>2011-09-11T08:54:10.866Z</time>
		<geoidheight>195</geoidheight>
	</trkpt>
	<trkpt lat="50.728442" lon="6.181887">
		<ele>241</ele>
		<time>2011-09-11T08:54:11.865Z</time>
		<geoidheight>195</geoidheight>
	</trkpt>
	<trkpt lat="50.728445" lon="6.181906">
		<ele>241</ele>
		<time>2011-09-11T08:54:12.866Z</time>
		<geoidheight>195</geoidheight>
	</trkpt>
	<trkpt lat="50.728450" lon="6.181916">
		<ele>241</ele>
		<time>2011-09-11T08:54:13.861Z</time>
		<geoidheight>195</geoidheight>
	</trkpt>
	<trkpt lat="50.728446" lon="6.181929">
		<ele>240</ele>
		<time>2011-09-11T08:54:14.866Z</time>
		<geoidheight>194</geoidheight>
	</trkpt>
	<trkpt lat="50.728447" lon="6.181939">
		<ele>240</ele>
		<time>2011-09-11T08:54:15.862Z</time>
		<geoidheight>194</geoidheight>
	</trkpt>
	<trkpt lat="50.728444" lon="6.181949">
		<ele>240</ele>
		<time>2011-09-11T08:54:16.861Z</time>
		<geoidheight>194</geoidheight>
	</trkpt>
	<trkpt lat="50.728442" lon="6.181961">
		<ele>240</ele>
		<time>2011-09-11T08:54:17.862Z</time>
		<geoidheight>194</geoidheight>
	</trkpt>
	<trkpt lat="50.728441" lon="6.181980">
		<ele>240</ele>
		<time>2011-09-11T08:54:18.862Z</time>
		<geoidheight>194</geoidheight>
	</trkpt>
	<trkpt lat="50.728440" lon="6.182002">
		<ele>240</ele>
		<time>2011-09-11T08:54:19.861Z</time>
		<geoidheight>194</geoidheight>
	</trkpt>
	<trkpt lat="50.728441" lon="6.182022">
		<ele>240</ele>
		<time>2011-09-11T08:54:20.862Z</time>
		<geoidheight>194</geoidheight>
	</trkpt>
	<trkpt lat="50.728442" lon="6.182043">
		<ele>240</ele>
		<time>2011-09-11T08:54:21.861Z</time>
		<geoidheight>194</geoidheight>
	</trkpt>
	<trkpt lat="50.728441" lon="6.182061">
		<ele>240</ele>
		<time>2011-09-11T08:54:22.861Z</time>
		<geoidheight>194</geoidheight>
	</trkpt>
	<trkpt lat="50.728433" lon="6.182070">
		<ele>240</ele>
		<time>2011-09-11T08:54:23.865Z</time>
		<geoidheight>194</geoidheight>
	</trkpt>
	<trkpt lat="50.728426" lon="6.182077">
		<ele>240</ele>
		<time>2011-09-11T08:54:24.863Z</time>
		<geoidheight>194</geoidheight>
	</trkpt>
	<trkpt lat="50.728418" lon="6.182084">
		<ele>239</ele>
		<time>2011-09-11T08:54:25.861Z</time>
		<geoidheight>193</geoidheight>
	</trkpt>
	<trkpt lat="50.728414" lon="6.182099">
		<ele>239</ele>
		<time>2011-09-11T08:54:26.861Z</time>
		<geoidheight>193</geoidheight>
	</trkpt>
	<trkpt lat="50.728411" lon="6.182113">
		<ele>239</ele>
		<time>2011-09-11T08:54:27.863Z</time>
		<geoidheight>193</geoidheight>
	</trkpt>
	<trkpt lat="50.728409" lon="6.182127">
		<ele>239</ele>
		<time>2011-09-11T08:54:28.863Z</time>
		<geoidheight>193</geoidheight>
	</trkpt>
	<trkpt lat="50.728408" lon="6.182141">
		<ele>239</ele>
		<time>2011-09-11T08:54:29.868Z</time>
		<geoidheight>193</geoidheight>
	</trkpt>
	<trkpt lat="50.728413" lon="6.182155">
		<ele>239</ele>
		<time>2011-09-11T08:54:30.863Z</time>
		<geoidheight>193</geoidheight>
	</trkpt>
	<trkpt lat="50.728421" lon="6.182171">
		<ele>239</ele>
		<time>2011-09-11T08:54:31.861Z</time>
		<geoidheight>193</geoidheight>
	</trkpt>
	<trkpt lat="50.728427" lon="6.182186">
		<ele>239</ele>
		<time>2011-09-11T08:54:32.862Z</time>
		<geoidheight>193</geoidheight>
	</trkpt>
	<trkpt lat="50.728432" lon="6.182202">
		<ele>239</ele>
		<time>2011-09-11T08:54:33.869Z</time>
		<geoidheight>193</geoidheight>
	</trkpt>
	<trkpt lat="50.728432" lon="6.182222">
		<ele>239</ele>
		<time>2011-09-11T08:54:34.865Z</time>
		<geoidheight>193</geoidheight>
	</trkpt>
	<trkpt lat="50.728433" lon="6.182241">
		<ele>239</ele>
		<time>2011-09-11T08:54:35.862Z</time>
		<geoidheight>193</geoidheight>
	</trkpt>
	<trkpt lat="50.728437" lon="6.182257">
		<ele>239</ele>
		<time>2011-09-11T08:54:36.861Z</time>
		<geoidheight>193</geoidheight>
	</trkpt>
	<trkpt lat="50.728439" lon="6.182269">
		<ele>239</ele>
		<time>2011-09-11T08:54:37.872Z</time>
		<geoidheight>193</geoidheight>
	</trkpt>
	<trkpt lat="50.728443" lon="6.182283">
		<ele>239</ele>
		<time>2011-09-11T08:54:38.863Z</time>
		<geoidheight>193</geoidheight>
	</trkpt>
	<trkpt lat="50.728443" lon="6.182283">
		<ele>239</ele>
		<time>2011-09-11T08:54:39.863Z</time>
		<geoidheight>193</geoidheight>
	</trkpt>
	<trkpt lat="50.728443" lon="6.182283">
		<ele>239</ele>
		<time>2011-09-11T08:54:40.882Z</time>
		<geoidheight>193</geoidheight>
	</trkpt>
	<trkpt lat="50.728443" lon="6.182283">
		<ele>239</ele>
		<time>2011-09-11T08:54:41.876Z</time>
		<geoidheight>193</geoidheight>
	</trkpt>
	<trkpt lat="50.728443" lon="6.182283">
		<ele>239</ele>
		<time>2011-09-11T08:54:42.886Z</time>
		<geoidheight>193</geoidheight>
	</trkpt>
	<trkpt lat="50.728443" lon="6.182283">
		<ele>239</ele>
		<time>2011-09-11T08:54:43.880Z</time>
		<geoidheight>193</geoidheight>
	</trkpt>
	<trkpt lat="50.728443" lon="6.182283">
		<ele>239</ele>
		<time>2011-09-11T08:54:44.885Z</time>
		<geoidheight>193</geoidheight>
	</trkpt>
	<trkpt lat="50.728435" lon="6.182379">
		<ele>239</ele>
		<time>2011-09-11T08:54:45.868Z</time>
		<geoidheight>193</geoidheight>
	</trkpt>
	<trkpt lat="50.728435" lon="6.182379">
		<ele>239</ele>
		<time>2011-09-11T08:54:46.862Z</time>
		<geoidheight>193</geoidheight>
	</trkpt>
	<trkpt lat="50.728435" lon="6.182379">
		<ele>239</ele>
		<time>2011-09-11T08:54:47.861Z</time>
		<geoidheight>193</geoidheight>
	</trkpt>
	<trkpt lat="50.728435" lon="6.182379">
		<ele>239</ele>
		<time>2011-09-11T08:54:48.865Z</time>
		<geoidheight>193</geoidheight>
	</trkpt>
	<trkpt lat="50.728395" lon="6.182427">
		<ele>239</ele>
		<time>2011-09-11T08:54:49.861Z</time>
		<geoidheight>193</geoidheight>
	</trkpt>
	<trkpt lat="50.728395" lon="6.182427">
		<ele>239</ele>
		<time>2011-09-11T08:54:50.874Z</time>
		<geoidheight>193</geoidheight>
	</trkpt>
	<trkpt lat="50.728350" lon="6.182441">
		<ele>238</ele>
		<time>2011-09-11T08:54:51.874Z</time>
		<geoidheight>192</geoidheight>
	</trkpt>
	<trkpt lat="50.728350" lon="6.182441">
		<ele>238</ele>
		<time>2011-09-11T08:54:53.871Z</time>
		<geoidheight>192</geoidheight>
	</trkpt>
	<trkpt lat="50.728296" lon="6.182457">
		<ele>238</ele>
		<time>2011-09-11T08:54:54.873Z</time>
		<geoidheight>192</geoidheight>
	</trkpt>
	<trkpt lat="50.728296" lon="6.182457">
		<ele>238</ele>
		<time>2011-09-11T08:54:57.875Z</time>
		<geoidheight>192</geoidheight>
	</trkpt>
	<trkpt lat="50.728296" lon="6.182457">
		<ele>238</ele>
		<time>2011-09-11T08:54:58.871Z</time>
		<geoidheight>192</geoidheight>
	</trkpt>
	<trkpt lat="50.728296" lon="6.182457">
		<ele>238</ele>
		<time>2011-09-11T08:54:59.873Z</time>
		<geoidheight>192</geoidheight>
	</trkpt>
	<trkpt lat="50.728296" lon="6.182457">
		<ele>238</ele>
		<time>2011-09-11T08:55:00.874Z</time>
		<geoidheight>192</geoidheight>
	</trkpt>
	<trkpt lat="50.728296" lon="6.182457">
		<ele>238</ele>
		<time>2011-09-11T08:55:01.870Z</time>
		<geoidheight>192</geoidheight>
	</trkpt>
	<trkpt lat="50.728296" lon="6.182457">
		<ele>238</ele>
		<time>2011-09-11T08:55:02.869Z</time>
		<geoidheight>192</geoidheight>
	</trkpt>
	<trkpt lat="50.728296" lon="6.182457">
		<ele>237</ele>
		<time>2011-09-11T08:55:03.862Z</time>
		<geoidheight>191</geoidheight>
	</trkpt>
	<trkpt lat="50.728268" lon="6.182485">
		<ele>237</ele>
		<time>2011-09-11T08:55:04.864Z</time>
		<geoidheight>191</geoidheight>
	</trkpt>
	<trkpt lat="50.728268" lon="6.182485">
		<ele>237</ele>
		<time>2011-09-11T08:55:05.861Z</time>
		<geoidheight>191</geoidheight>
	</trkpt>
	<trkpt lat="50.728268" lon="6.182485">
		<ele>237</ele>
		<time>2011-09-11T08:55:06.863Z</time>
		<geoidheight>191</geoidheight>
	</trkpt>
	<trkpt lat="50.728268" lon="6.182485">
		<ele>237</ele>
		<time>2011-09-11T08:55:07.863Z</time>
		<geoidheight>191</geoidheight>
	</trkpt>
	<trkpt lat="50.728268" lon="6.182485">
		<ele>237</ele>
		<time>2011-09-11T08:55:08.863Z</time>
		<geoidheight>191</geoidheight>
	</trkpt>
	<trkpt lat="50.728268" lon="6.182485">
		<ele>237</ele>
		<time>2011-09-11T08:55:09.859Z</time>
		<geoidheight>191</geoidheight>
	</trkpt>
	<trkpt lat="50.728268" lon="6.182485">
		<ele>237</ele>
		<time>2011-09-11T08:55:10.862Z</time>
		<geoidheight>191</geoidheight>
	</trkpt>
	<trkpt lat="50.728268" lon="6.182485">
		<ele>237</ele>
		<time>2011-09-11T08:55:11.863Z</time>
		<geoidheight>191</geoidheight>
	</trkpt>
	<trkpt lat="50.728268" lon="6.182485">
		<ele>237</ele>
		<time>2011-09-11T08:55:12.864Z</time>
		<geoidheight>191</geoidheight>
	</trkpt>
	<trkpt lat="50.728268" lon="6.182485">
		<ele>237</ele>
		<time>2011-09-11T08:55:13.862Z</time>
		<geoidheight>191</geoidheight>
	</trkpt>
	<trkpt lat="50.728268" lon="6.182485">
		<ele>237</ele>
		<time>2011-09-11T08:55:14.864Z</time>
		<geoidheight>191</geoidheight>
	</trkpt>
	<trkpt lat="50.728285" lon="6.182404">
		<ele>237</ele>
		<time>2011-09-11T08:55:15.862Z</time>
		<geoidheight>191</geoidheight>
	</trkpt>
	<trkpt lat="50.728285" lon="6.182404">
		<ele>237</ele>
		<time>2011-09-11T08:55:16.864Z</time>
		<geoidheight>191</geoidheight>
	</trkpt>
	<trkpt lat="50.728285" lon="6.182404">
		<ele>237</ele>
		<time>2011-09-11T08:55:17.864Z</time>
		<geoidheight>191</geoidheight>
	</trkpt>
	<trkpt lat="50.728285" lon="6.182404">
		<ele>237</ele>
		<time>2011-09-11T08:55:18.863Z</time>
		<geoidheight>191</geoidheight>
	</trkpt>
	<trkpt lat="50.728320" lon="6.182347">
		<ele>237</ele>
		<time>2011-09-11T08:55:19.862Z</time>
		<geoidheight>191</geoidheight>
	</trkpt>
	<trkpt lat="50.728320" lon="6.182347">
		<ele>237</ele>
		<time>2011-09-11T08:55:20.864Z</time>
		<geoidheight>191</geoidheight>
	</trkpt>
	<trkpt lat="50.728320" lon="6.182347">
		<ele>237</ele>
		<time>2011-09-11T08:55:21.860Z</time>
		<geoidheight>191</geoidheight>
	</trkpt>
	<trkpt lat="50.728365" lon="6.182351">
		<ele>237</ele>
		<time>2011-09-11T08:55:22.866Z</time>
		<geoidheight>191</geoidheight>
	</trkpt>
	<trkpt lat="50.728365" lon="6.182351">
		<ele>237</ele>
		<time>2011-09-11T08:55:23.862Z</time>
		<geoidheight>191</geoidheight>
	</trkpt>
	<trkpt lat="50.728365" lon="6.182351">
		<ele>237</ele>
		<time>2011-09-11T08:55:24.868Z</time>
		<geoidheight>191</geoidheight>
	</trkpt>
	<trkpt lat="50.728415" lon="6.182379">
		<ele>237</ele>
		<time>2011-09-11T08:55:25.861Z</time>
		<geoidheight>191</geoidheight>
	</trkpt>
	<trkpt lat="50.728426" lon="6.182394">
		<ele>237</ele>
		<time>2011-09-11T08:55:26.864Z</time>
		<geoidheight>191</geoidheight>
	</trkpt>
	<trkpt lat="50.728436" lon="6.182409">
		<ele>237</ele>
		<time>2011-09-11T08:55:27.864Z</time>
		<geoidheight>191</geoidheight>
	</trkpt>
	<trkpt lat="50.728445" lon="6.182422">
		<ele>237</ele>
		<time>2011-09-11T08:55:28.865Z</time>
		<geoidheight>191</geoidheight>
	</trkpt>
	<trkpt lat="50.728453" lon="6.182436">
		<ele>237</ele>
		<time>2011-09-11T08:55:29.869Z</time>
		<geoidheight>191</geoidheight>
	</trkpt>
	<trkpt lat="50.728462" lon="6.182448">
		<ele>236</ele>
		<time>2011-09-11T08:55:30.864Z</time>
		<geoidheight>190</geoidheight>
	</trkpt>
	<trkpt lat="50.728465" lon="6.182461">
		<ele>236</ele>
		<time>2011-09-11T08:55:31.864Z</time>
		<geoidheight>190</geoidheight>
	</trkpt>
	<trkpt lat="50.728469" lon="6.182474">
		<ele>236</ele>
		<time>2011-09-11T08:55:32.873Z</time>
		<geoidheight>190</geoidheight>
	</trkpt>
	<trkpt lat="50.728468" lon="6.182488">
		<ele>236</ele>
		<time>2011-09-11T08:55:33.865Z</time>
		<geoidheight>190</geoidheight>
	</trkpt>
	<trkpt lat="50.728466" lon="6.182502">
		<ele>236</ele>
		<time>2011-09-11T08:55:34.866Z</time>
		<geoidheight>190</geoidheight>
	</trkpt>
	<trkpt lat="50.728461" lon="6.182513">
		<ele>236</ele>
		<time>2011-09-11T08:55:35.874Z</time>
		<geoidheight>190</geoidheight>
	</trkpt>
	<trkpt lat="50.728454" lon="6.182524">
		<ele>236</ele>
		<time>2011-09-11T08:55:36.870Z</time>
		<geoidheight>190</geoidheight>
	</trkpt>
	<trkpt lat="50.728445" lon="6.182533">
		<ele>236</ele>
		<time>2011-09-11T08:55:37.863Z</time>
		<geoidheight>190</geoidheight>
	</trkpt>
	<trkpt lat="50.728437" lon="6.182543">
		<ele>236</ele>
		<time>2011-09-11T08:55:38.863Z</time>
		<geoidheight>190</geoidheight>
	</trkpt>
	<trkpt lat="50.728428" lon="6.182553">
		<ele>236</ele>
		<time>2011-09-11T08:55:39.860Z</time>
		<geoidheight>190</geoidheight>
	</trkpt>
	<trkpt lat="50.728420" lon="6.182569">
		<ele>236</ele>
		<time>2011-09-11T08:55:40.868Z</time>
		<geoidheight>190</geoidheight>
	</trkpt>
	<trkpt lat="50.728412" lon="6.182587">
		<ele>236</ele>
		<time>2011-09-11T08:55:41.867Z</time>
		<geoidheight>190</geoidheight>
	</trkpt>
	<trkpt lat="50.728401" lon="6.182607">
		<ele>236</ele>
		<time>2011-09-11T08:55:42.871Z</time>
		<geoidheight>190</geoidheight>
	</trkpt>
	<trkpt lat="50.728388" lon="6.182630">
		<ele>236</ele>
		<time>2011-09-11T08:55:43.867Z</time>
		<geoidheight>190</geoidheight>
	</trkpt>
	<trkpt lat="50.728374" lon="6.182648">
		<ele>235</ele>
		<time>2011-09-11T08:55:44.867Z</time>
		<geoidheight>189</geoidheight>
	</trkpt>
	<trkpt lat="50.728361" lon="6.182667">
		<ele>235</ele>
		<time>2011-09-11T08:55:45.861Z</time>
		<geoidheight>189</geoidheight>
	</trkpt>
	<trkpt lat="50.728347" lon="6.182681">
		<ele>235</ele>
		<time>2011-09-11T08:55:46.864Z</time>
		<geoidheight>189</geoidheight>
	</trkpt>
	<trkpt lat="50.728333" lon="6.182697">
		<ele>235</ele>
		<time>2011-09-11T08:55:47.861Z</time>
		<geoidheight>189</geoidheight>
	</trkpt>
	<trkpt lat="50.728319" lon="6.182716">
		<ele>235</ele>
		<time>2011-09-11T08:55:48.863Z</time>
		<geoidheight>189</geoidheight>
	</trkpt>
	<trkpt lat="50.728306" lon="6.182734">
		<ele>235</ele>
		<time>2011-09-11T08:55:49.861Z</time>
		<geoidheight>189</geoidheight>
	</trkpt>
	<trkpt lat="50.728292" lon="6.182748">
		<ele>235</ele>
		<time>2011-09-11T08:55:50.864Z</time>
		<geoidheight>189</geoidheight>
	</trkpt>
	<trkpt lat="50.728278" lon="6.182764">
		<ele>235</ele>
		<time>2011-09-11T08:55:51.861Z</time>
		<geoidheight>189</geoidheight>
	</trkpt>
	<trkpt lat="50.728266" lon="6.182787">
		<ele>235</ele>
		<time>2011-09-11T08:55:52.862Z</time>
		<geoidheight>189</geoidheight>
	</trkpt>
	<trkpt lat="50.728256" lon="6.182816">
		<ele>235</ele>
		<time>2011-09-11T08:55:53.862Z</time>
		<geoidheight>189</geoidheight>
	</trkpt>
	<trkpt lat="50.728246" lon="6.182842">
		<ele>235</ele>
		<time>2011-09-11T08:55:54.862Z</time>
		<geoidheight>189</geoidheight>
	</trkpt>
	<trkpt lat="50.728250" lon="6.182868">
		<ele>235</ele>
		<time>2011-09-11T08:55:55.860Z</time>
		<geoidheight>189</geoidheight>
	</trkpt>
	<trkpt lat="50.728253" lon="6.182893">
		<ele>235</ele>
		<time>2011-09-11T08:55:56.863Z</time>
		<geoidheight>189</geoidheight>
	</trkpt>
	<trkpt lat="50.728254" lon="6.182918">
		<ele>235</ele>
		<time>2011-09-11T08:55:57.861Z</time>
		<geoidheight>189</geoidheight>
	</trkpt>
	<trkpt lat="50.728241" lon="6.182941">
		<ele>235</ele>
		<time>2011-09-11T08:55:58.862Z</time>
		<geoidheight>189</geoidheight>
	</trkpt>
	<trkpt lat="50.728230" lon="6.182964">
		<ele>236</ele>
		<time>2011-09-11T08:55:59.864Z</time>
		<geoidheight>190</geoidheight>
	</trkpt>
	<trkpt lat="50.728219" lon="6.182985">
		<ele>236</ele>
		<time>2011-09-11T08:56:00.863Z</time>
		<geoidheight>190</geoidheight>
	</trkpt>
	<trkpt lat="50.728193" lon="6.182977">
		<ele>236</ele>
		<time>2011-09-11T08:56:01.874Z</time>
		<geoidheight>190</geoidheight>
	</trkpt>
	<trkpt lat="50.728170" lon="6.182972">
		<ele>236</ele>
		<time>2011-09-11T08:56:02.862Z</time>
		<geoidheight>190</geoidheight>
	</trkpt>
	<trkpt lat="50.728149" lon="6.182972">
		<ele>236</ele>
		<time>2011-09-11T08:56:03.861Z</time>
		<geoidheight>190</geoidheight>
	</trkpt>
	<trkpt lat="50.728128" lon="6.182972">
		<ele>236</ele>
		<time>2011-09-11T08:56:04.863Z</time>
		<geoidheight>190</geoidheight>
	</trkpt>
	<trkpt lat="50.728109" lon="6.182974">
		<ele>236</ele>
		<time>2011-09-11T08:56:05.863Z</time>
		<geoidheight>190</geoidheight>
	</trkpt>
	<trkpt lat="50.728092" lon="6.182979">
		<ele>236</ele>
		<time>2011-09-11T08:56:06.864Z</time>
		<geoidheight>190</geoidheight>
	</trkpt>
	<trkpt lat="50.728079" lon="6.182992">
		<ele>236</ele>
		<time>2011-09-11T08:56:07.863Z</time>
		<geoidheight>190</geoidheight>
	</trkpt>
	<trkpt lat="50.728069" lon="6.183005">
		<ele>236</ele>
		<time>2011-09-11T08:56:08.863Z</time>
		<geoidheight>190</geoidheight>
	</trkpt>
	<trkpt lat="50.728061" lon="6.183015">
		<ele>236</ele>
		<time>2011-09-11T08:56:09.860Z</time>
		<geoidheight>190</geoidheight>
	</trkpt>
	<trkpt lat="50.728053" lon="6.183016">
		<ele>236</ele>
		<time>2011-09-11T08:56:10.863Z</time>
		<geoidheight>190</geoidheight>
	</trkpt>
	<trkpt lat="50.728046" lon="6.183028">
		<ele>236</ele>
		<time>2011-09-11T08:56:11.863Z</time>
		<geoidheight>190</geoidheight>
	</trkpt>
	<trkpt lat="50.728041" lon="6.183040">
		<ele>236</ele>
		<time>2011-09-11T08:56:12.864Z</time>
		<geoidheight>190</geoidheight>
	</trkpt>
	<trkpt lat="50.728034" lon="6.183047">
		<ele>236</ele>
		<time>2011-09-11T08:56:13.861Z</time>
		<geoidheight>190</geoidheight>
	</trkpt>
	<trkpt lat="50.728027" lon="6.183054">
		<ele>236</ele>
		<time>2011-09-11T08:56:14.862Z</time>
		<geoidheight>190</geoidheight>
	</trkpt>
	<trkpt lat="50.728021" lon="6.183070">
		<ele>236</ele>
		<time>2011-09-11T08:56:15.863Z</time>
		<geoidheight>190</geoidheight>
	</trkpt>
	<trkpt lat="50.728011" lon="6.183087">
		<ele>236</ele>
		<time>2011-09-11T08:56:16.865Z</time>
		<geoidheight>190</geoidheight>
	</trkpt>
	<trkpt lat="50.728001" lon="6.183099">
		<ele>236</ele>
		<time>2011-09-11T08:56:17.862Z</time>
		<geoidheight>190</geoidheight>
	</trkpt>
	<trkpt lat="50.727993" lon="6.183114">
		<ele>236</ele>
		<time>2011-09-11T08:56:18.862Z</time>
		<geoidheight>190</geoidheight>
	</trkpt>
	<trkpt lat="50.727983" lon="6.183132">
		<ele>236</ele>
		<time>2011-09-11T08:56:19.864Z</time>
		<geoidheight>190</geoidheight>
	</trkpt>
	<trkpt lat="50.727979" lon="6.183157">
		<ele>236</ele>
		<time>2011-09-11T08:56:20.862Z</time>
		<geoidheight>190</geoidheight>
	</trkpt>
	<trkpt lat="50.727981" lon="6.183176">
		<ele>236</ele>
		<time>2011-09-11T08:56:21.862Z</time>
		<geoidheight>190</geoidheight>
	</trkpt>
	<trkpt lat="50.727985" lon="6.183195">
		<ele>236</ele>
		<time>2011-09-11T08:56:22.864Z</time>
		<geoidheight>190</geoidheight>
	</trkpt>
	<trkpt lat="50.727990" lon="6.183218">
		<ele>236</ele>
		<time>2011-09-11T08:56:23.862Z</time>
		<geoidheight>190</geoidheight>
	</trkpt>
	<trkpt lat="50.727996" lon="6.183235">
		<ele>236</ele>
		<time>2011-09-11T08:56:24.862Z</time>
		<geoidheight>190</geoidheight>
	</trkpt>
	<trkpt lat="50.727996" lon="6.183235">
		<ele>236</ele>
		<time>2011-09-11T08:56:29.864Z</time>
		<geoidheight>190</geoidheight>
	</trkpt>
	<trkpt lat="50.728041" lon="6.183241">
		<ele>236</ele>
		<time>2011-09-11T08:56:30.862Z</time>
		<geoidheight>190</geoidheight>
	</trkpt>
	<trkpt lat="50.728041" lon="6.183241">
		<ele>236</ele>
		<time>2011-09-11T08:56:33.863Z</time>
		<geoidheight>190</geoidheight>
	</trkpt>
	<trkpt lat="50.728088" lon="6.183294">
		<ele>236</ele>
		<time>2011-09-11T08:56:34.863Z</time>
		<geoidheight>190</geoidheight>
	</trkpt>
	<trkpt lat="50.728088" lon="6.183294">
		<ele>236</ele>
		<time>2011-09-11T08:56:35.869Z</time>
		<geoidheight>190</geoidheight>
	</trkpt>
	<trkpt lat="50.728110" lon="6.183335">
		<ele>236</ele>
		<time>2011-09-11T08:56:36.863Z</time>
		<geoidheight>190</geoidheight>
	</trkpt>
	<trkpt lat="50.728117" lon="6.183353">
		<ele>236</ele>
		<time>2011-09-11T08:56:37.870Z</time>
		<geoidheight>190</geoidheight>
	</trkpt>
	<trkpt lat="50.728122" lon="6.183373">
		<ele>236</ele>
		<time>2011-09-11T08:56:38.864Z</time>
		<geoidheight>190</geoidheight>
	</trkpt>
	<trkpt lat="50.728126" lon="6.183393">
		<ele>236</ele>
		<time>2011-09-11T08:56:39.860Z</time>
		<geoidheight>190</geoidheight>
	</trkpt>
	<trkpt lat="50.728130" lon="6.183409">
		<ele>236</ele>
		<time>2011-09-11T08:56:40.862Z</time>
		<geoidheight>190</geoidheight>
	</trkpt>
	<trkpt lat="50.728134" lon="6.183423">
		<ele>236</ele>
		<time>2011-09-11T08:56:41.865Z</time>
		<geoidheight>190</geoidheight>
	</trkpt>
	<trkpt lat="50.728130" lon="6.183421">
		<ele>236</ele>
		<time>2011-09-11T08:56:45.864Z</time>
		<geoidheight>190</geoidheight>
	</trkpt>
	<trkpt lat="50.728099" lon="6.183370">
		<ele>236</ele>
		<time>2011-09-11T08:56:46.862Z</time>
		<geoidheight>190</geoidheight>
	</trkpt>
	<trkpt lat="50.728099" lon="6.183370">
		<ele>235</ele>
		<time>2011-09-11T08:56:51.865Z</time>
		<geoidheight>189</geoidheight>
	</trkpt>
	<trkpt lat="50.728077" lon="6.183342">
		<ele>235</ele>
		<time>2011-09-11T08:56:52.863Z</time>
		<geoidheight>189</geoidheight>
	</trkpt>
	<trkpt lat="50.728077" lon="6.183355">
		<ele>235</ele>
		<time>2011-09-11T08:56:53.863Z</time>
		<geoidheight>189</geoidheight>
	</trkpt>
	<trkpt lat="50.728079" lon="6.183370">
		<ele>235</ele>
		<time>2011-09-11T08:56:54.863Z</time>
		<geoidheight>189</geoidheight>
	</trkpt>
	<trkpt lat="50.728079" lon="6.183390">
		<ele>235</ele>
		<time>2011-09-11T08:56:55.863Z</time>
		<geoidheight>189</geoidheight>
	</trkpt>
	<trkpt lat="50.728078" lon="6.183404">
		<ele>235</ele>
		<time>2011-09-11T08:56:56.863Z</time>
		<geoidheight>189</geoidheight>
	</trkpt>
	<trkpt lat="50.728077" lon="6.183418">
		<ele>234</ele>
		<time>2011-09-11T08:56:57.863Z</time>
		<geoidheight>188</geoidheight>
	</trkpt>
	<trkpt lat="50.728078" lon="6.183427">
		<ele>234</ele>
		<time>2011-09-11T08:56:58.868Z</time>
		<geoidheight>188</geoidheight>
	</trkpt>
	<trkpt lat="50.728079" lon="6.183434">
		<ele>234</ele>
		<time>2011-09-11T08:56:59.864Z</time>
		<geoidheight>188</geoidheight>
	</trkpt>
	<trkpt lat="50.728081" lon="6.183440">
		<ele>234</ele>
		<time>2011-09-11T08:57:00.863Z</time>
		<geoidheight>188</geoidheight>
	</trkpt>
	<trkpt lat="50.728081" lon="6.183445">
		<ele>234</ele>
		<time>2011-09-11T08:57:01.864Z</time>
		<geoidheight>188</geoidheight>
	</trkpt>
	<trkpt lat="50.728081" lon="6.183445">
		<ele>234</ele>
		<time>2011-09-11T08:57:02.861Z</time>
		<geoidheight>188</geoidheight>
	</trkpt>
	<trkpt lat="50.728081" lon="6.183445">
		<ele>234</ele>
		<time>2011-09-11T08:57:03.865Z</time>
		<geoidheight>188</geoidheight>
	</trkpt>
	<trkpt lat="50.728081" lon="6.183445">
		<ele>233</ele>
		<time>2011-09-11T08:57:04.866Z</time>
		<geoidheight>187</geoidheight>
	</trkpt>
	<trkpt lat="50.728081" lon="6.183445">
		<ele>233</ele>
		<time>2011-09-11T08:57:17.864Z</time>
		<geoidheight>187</geoidheight>
	</trkpt>
	<trkpt lat="50.728072" lon="6.183444">
		<ele>233</ele>
		<time>2011-09-11T08:57:18.862Z</time>
		<geoidheight>187</geoidheight>
	</trkpt>
	<trkpt lat="50.728079" lon="6.183448">
		<ele>233</ele>
		<time>2011-09-11T08:57:19.863Z</time>
		<geoidheight>187</geoidheight>
	</trkpt>
	<trkpt lat="50.728085" lon="6.183455">
		<ele>233</ele>
		<time>2011-09-11T08:57:20.866Z</time>
		<geoidheight>187</geoidheight>
	</trkpt>
	<trkpt lat="50.728089" lon="6.183466">
		<ele>233</ele>
		<time>2011-09-11T08:57:21.862Z</time>
		<geoidheight>187</geoidheight>
	</trkpt>
	<trkpt lat="50.728094" lon="6.183476">
		<ele>233</ele>
		<time>2011-09-11T08:57:22.864Z</time>
		<geoidheight>187</geoidheight>
	</trkpt>
	<trkpt lat="50.728099" lon="6.183488">
		<ele>233</ele>
		<time>2011-09-11T08:57:23.865Z</time>
		<geoidheight>187</geoidheight>
	</trkpt>
	<trkpt lat="50.728105" lon="6.183502">
		<ele>232</ele>
		<time>2011-09-11T08:57:24.864Z</time>
		<geoidheight>186</geoidheight>
	</trkpt>
	<trkpt lat="50.728112" lon="6.183513">
		<ele>232</ele>
		<time>2011-09-11T08:57:25.863Z</time>
		<geoidheight>186</geoidheight>
	</trkpt>
	<trkpt lat="50.728119" lon="6.183524">
		<ele>232</ele>
		<time>2011-09-11T08:57:26.864Z</time>
		<geoidheight>186</geoidheight>
	</trkpt>
	<trkpt lat="50.728125" lon="6.183537">
		<ele>232</ele>
		<time>2011-09-11T08:57:27.863Z</time>
		<geoidheight>186</geoidheight>
	</trkpt>
	<trkpt lat="50.728132" lon="6.183550">
		<ele>232</ele>
		<time>2011-09-11T08:57:28.863Z</time>
		<geoidheight>186</geoidheight>
	</trkpt>
	<trkpt lat="50.728138" lon="6.183564">
		<ele>232</ele>
		<time>2011-09-11T08:57:29.863Z</time>
		<geoidheight>186</geoidheight>
	</trkpt>
	<trkpt lat="50.728145" lon="6.183579">
		<ele>232</ele>
		<time>2011-09-11T08:57:30.865Z</time>
		<geoidheight>186</geoidheight>
	</trkpt>
	<trkpt lat="50.728153" lon="6.183596">
		<ele>232</ele>
		<time>2011-09-11T08:57:31.863Z</time>
		<geoidheight>186</geoidheight>
	</trkpt>
	<trkpt lat="50.728162" lon="6.183613">
		<ele>232</ele>
		<time>2011-09-11T08:57:32.864Z</time>
		<geoidheight>186</geoidheight>
	</trkpt>
	<trkpt lat="50.728166" lon="6.183627">
		<ele>232</ele>
		<time>2011-09-11T08:57:33.862Z</time>
		<geoidheight>186</geoidheight>
	</trkpt>
	<trkpt lat="50.728169" lon="6.183641">
		<ele>232</ele>
		<time>2011-09-11T08:57:34.870Z</time>
		<geoidheight>186</geoidheight>
	</trkpt>
	<trkpt lat="50.728173" lon="6.183657">
		<ele>232</ele>
		<time>2011-09-11T08:57:35.862Z</time>
		<geoidheight>186</geoidheight>
	</trkpt>
	<trkpt lat="50.728176" lon="6.183676">
		<ele>231</ele>
		<time>2011-09-11T08:57:36.864Z</time>
		<geoidheight>185</geoidheight>
	</trkpt>
	<trkpt lat="50.728175" lon="6.183695">
		<ele>231</ele>
		<time>2011-09-11T08:57:37.868Z</time>
		<geoidheight>185</geoidheight>
	</trkpt>
	<trkpt lat="50.728180" lon="6.183713">
		<ele>231</ele>
		<time>2011-09-11T08:57:38.867Z</time>
		<geoidheight>185</geoidheight>
	</trkpt>
	<trkpt lat="50.728182" lon="6.183733">
		<ele>231</ele>
		<time>2011-09-11T08:57:39.870Z</time>
		<geoidheight>185</geoidheight>
	</trkpt>
	<trkpt lat="50.728184" lon="6.183752">
		<ele>231</ele>
		<time>2011-09-11T08:57:40.866Z</time>
		<geoidheight>185</geoidheight>
	</trkpt>
	<trkpt lat="50.728188" lon="6.183770">
		<ele>231</ele>
		<time>2011-09-11T08:57:41.865Z</time>
		<geoidheight>185</geoidheight>
	</trkpt>
	<trkpt lat="50.728192" lon="6.183789">
		<ele>231</ele>
		<time>2011-09-11T08:57:42.864Z</time>
		<geoidheight>185</geoidheight>
	</trkpt>
	<trkpt lat="50.728193" lon="6.183808">
		<ele>231</ele>
		<time>2011-09-11T08:57:43.865Z</time>
		<geoidheight>185</geoidheight>
	</trkpt>
	<trkpt lat="50.728191" lon="6.183826">
		<ele>231</ele>
		<time>2011-09-11T08:57:44.864Z</time>
		<geoidheight>185</geoidheight>
	</trkpt>
	<trkpt lat="50.728191" lon="6.183845">
		<ele>231</ele>
		<time>2011-09-11T08:57:45.864Z</time>
		<geoidheight>185</geoidheight>
	</trkpt>
	<trkpt lat="50.728195" lon="6.183864">
		<ele>231</ele>
		<time>2011-09-11T08:57:46.865Z</time>
		<geoidheight>185</geoidheight>
	</trkpt>
	<trkpt lat="50.728200" lon="6.183882">
		<ele>231</ele>
		<time>2011-09-11T08:57:47.865Z</time>
		<geoidheight>185</geoidheight>
	</trkpt>
	<trkpt lat="50.728202" lon="6.183907">
		<ele>231</ele>
		<time>2011-09-11T08:57:48.863Z</time>
		<geoidheight>185</geoidheight>
	</trkpt>
	<trkpt lat="50.728205" lon="6.183937">
		<ele>231</ele>
		<time>2011-09-11T08:57:49.866Z</time>
		<geoidheight>185</geoidheight>
	</trkpt>
	<trkpt lat="50.728202" lon="6.183972">
		<ele>231</ele>
		<time>2011-09-11T08:57:50.868Z</time>
		<geoidheight>185</geoidheight>
	</trkpt>
	<trkpt lat="50.728194" lon="6.183998">
		<ele>231</ele>
		<time>2011-09-11T08:57:51.866Z</time>
		<geoidheight>185</geoidheight>
	</trkpt>
	<trkpt lat="50.728185" lon="6.184036">
		<ele>231</ele>
		<time>2011-09-11T08:57:52.865Z</time>
		<geoidheight>185</geoidheight>
	</trkpt>
	<trkpt lat="50.728176" lon="6.184071">
		<ele>230</ele>
		<time>2011-09-11T08:57:53.879Z</time>
		<geoidheight>184</geoidheight>
	</trkpt>
	<trkpt lat="50.728167" lon="6.184100">
		<ele>230</ele>
		<time>2011-09-11T08:57:54.881Z</time>
		<geoidheight>184</geoidheight>
	</trkpt>
	<trkpt lat="50.728156" lon="6.184124">
		<ele>230</ele>
		<time>2011-09-11T08:57:55.877Z</time>
		<geoidheight>184</geoidheight>
	</trkpt>
	<trkpt lat="50.728146" lon="6.184149">
		<ele>230</ele>
		<time>2011-09-11T08:57:56.883Z</time>
		<geoidheight>184</geoidheight>
	</trkpt>
	<trkpt lat="50.728136" lon="6.184168">
		<ele>230</ele>
		<time>2011-09-11T08:57:57.880Z</time>
		<geoidheight>184</geoidheight>
	</trkpt>
	<trkpt lat="50.728126" lon="6.184182">
		<ele>230</ele>
		<time>2011-09-11T08:57:58.882Z</time>
		<geoidheight>184</geoidheight>
	</trkpt>
	<trkpt lat="50.728124" lon="6.184194">
		<ele>230</ele>
		<time>2011-09-11T08:57:59.877Z</time>
		<geoidheight>184</geoidheight>
	</trkpt>
	<trkpt lat="50.728125" lon="6.184207">
		<ele>230</ele>
		<time>2011-09-11T08:58:00.865Z</time>
		<geoidheight>184</geoidheight>
	</trkpt>
	<trkpt lat="50.728127" lon="6.184219">
		<ele>229</ele>
		<time>2011-09-11T08:58:01.863Z</time>
		<geoidheight>183</geoidheight>
	</trkpt>
	<trkpt lat="50.728128" lon="6.184234">
		<ele>229</ele>
		<time>2011-09-11T08:58:02.873Z</time>
		<geoidheight>183</geoidheight>
	</trkpt>
	<trkpt lat="50.728130" lon="6.184245">
		<ele>229</ele>
		<time>2011-09-11T08:58:03.870Z</time>
		<geoidheight>183</geoidheight>
	</trkpt>
	<trkpt lat="50.728135" lon="6.184255">
		<ele>229</ele>
		<time>2011-09-11T08:58:04.875Z</time>
		<geoidheight>183</geoidheight>
	</trkpt>
	<trkpt lat="50.728142" lon="6.184264">
		<ele>229</ele>
		<time>2011-09-11T08:58:05.876Z</time>
		<geoidheight>183</geoidheight>
	</trkpt>
	<trkpt lat="50.728150" lon="6.184272">
		<ele>229</ele>
		<time>2011-09-11T08:58:06.874Z</time>
		<geoidheight>183</geoidheight>
	</trkpt>
	<trkpt lat="50.728157" lon="6.184282">
		<ele>229</ele>
		<time>2011-09-11T08:58:07.878Z</time>
		<geoidheight>183</geoidheight>
	</trkpt>
	<trkpt lat="50.728167" lon="6.184291">
		<ele>229</ele>
		<time>2011-09-11T08:58:08.865Z</time>
		<geoidheight>183</geoidheight>
	</trkpt>
	<trkpt lat="50.728175" lon="6.184304">
		<ele>229</ele>
		<time>2011-09-11T08:58:09.864Z</time>
		<geoidheight>183</geoidheight>
	</trkpt>
	<trkpt lat="50.728183" lon="6.184318">
		<ele>229</ele>
		<time>2011-09-11T08:58:10.874Z</time>
		<geoidheight>183</geoidheight>
	</trkpt>
	<trkpt lat="50.728191" lon="6.184333">
		<ele>229</ele>
		<time>2011-09-11T08:58:11.865Z</time>
		<geoidheight>183</geoidheight>
	</trkpt>
	<trkpt lat="50.728198" lon="6.184351">
		<ele>229</ele>
		<time>2011-09-11T08:58:12.866Z</time>
		<geoidheight>183</geoidheight>
	</trkpt>
	<trkpt lat="50.728204" lon="6.184369">
		<ele>229</ele>
		<time>2011-09-11T08:58:13.864Z</time>
		<geoidheight>183</geoidheight>
	</trkpt>
	<trkpt lat="50.728212" lon="6.184387">
		<ele>229</ele>
		<time>2011-09-11T08:58:14.863Z</time>
		<geoidheight>183</geoidheight>
	</trkpt>
	<trkpt lat="50.728221" lon="6.184405">
		<ele>228</ele>
		<time>2011-09-11T08:58:15.868Z</time>
		<geoidheight>182</geoidheight>
	</trkpt>
	<trkpt lat="50.728229" lon="6.184424">
		<ele>228</ele>
		<time>2011-09-11T08:58:16.866Z</time>
		<geoidheight>182</geoidheight>
	</trkpt>
	<trkpt lat="50.728234" lon="6.184446">
		<ele>228</ele>
		<time>2011-09-11T08:58:17.865Z</time>
		<geoidheight>182</geoidheight>
	</trkpt>
	<trkpt lat="50.728238" lon="6.184468">
		<ele>228</ele>
		<time>2011-09-11T08:58:18.864Z</time>
		<geoidheight>182</geoidheight>
	</trkpt>
	<trkpt lat="50.728240" lon="6.184491">
		<ele>228</ele>
		<time>2011-09-11T08:58:19.865Z</time>
		<geoidheight>182</geoidheight>
	</trkpt>
	<trkpt lat="50.728242" lon="6.184516">
		<ele>228</ele>
		<time>2011-09-11T08:58:20.864Z</time>
		<geoidheight>182</geoidheight>
	</trkpt>
	<trkpt lat="50.728247" lon="6.184539">
		<ele>228</ele>
		<time>2011-09-11T08:58:21.864Z</time>
		<geoidheight>182</geoidheight>
	</trkpt>
	<trkpt lat="50.728251" lon="6.184561">
		<ele>228</ele>
		<time>2011-09-11T08:58:22.866Z</time>
		<geoidheight>182</geoidheight>
	</trkpt>
	<trkpt lat="50.728252" lon="6.184585">
		<ele>228</ele>
		<time>2011-09-11T08:58:23.866Z</time>
		<geoidheight>182</geoidheight>
	</trkpt>
	<trkpt lat="50.728252" lon="6.184608">
		<ele>228</ele>
		<time>2011-09-11T08:58:24.864Z</time>
		<geoidheight>182</geoidheight>
	</trkpt>
	<trkpt lat="50.728250" lon="6.184629">
		<ele>228</ele>
		<time>2011-09-11T08:58:25.866Z</time>
		<geoidheight>182</geoidheight>
	</trkpt>
	<trkpt lat="50.728246" lon="6.184650">
		<ele>228</ele>
		<time>2011-09-11T08:58:26.864Z</time>
		<geoidheight>182</geoidheight>
	</trkpt>
	<trkpt lat="50.728243" lon="6.184671">
		<ele>228</ele>
		<time>2011-09-11T08:58:27.865Z</time>
		<geoidheight>182</geoidheight>
	</trkpt>
	<trkpt lat="50.728242" lon="6.184692">
		<ele>228</ele>
		<time>2011-09-11T08:58:28.865Z</time>
		<geoidheight>182</geoidheight>
	</trkpt>
	<trkpt lat="50.728241" lon="6.184710">
		<ele>228</ele>
		<time>2011-09-11T08:58:29.867Z</time>
		<geoidheight>182</geoidheight>
	</trkpt>
	<trkpt lat="50.728242" lon="6.184726">
		<ele>228</ele>
		<time>2011-09-11T08:58:30.864Z</time>
		<geoidheight>182</geoidheight>
	</trkpt>
	<trkpt lat="50.728243" lon="6.184740">
		<ele>228</ele>
		<time>2011-09-11T08:58:31.869Z</time>
		<geoidheight>182</geoidheight>
	</trkpt>
	<trkpt lat="50.728242" lon="6.184755">
		<ele>228</ele>
		<time>2011-09-11T08:58:32.874Z</time>
		<geoidheight>182</geoidheight>
	</trkpt>
	<trkpt lat="50.728240" lon="6.184772">
		<ele>228</ele>
		<time>2011-09-11T08:58:33.878Z</time>
		<geoidheight>182</geoidheight>
	</trkpt>
	<trkpt lat="50.728237" lon="6.184790">
		<ele>228</ele>
		<time>2011-09-11T08:58:34.868Z</time>
		<geoidheight>182</geoidheight>
	</trkpt>
	<trkpt lat="50.728232" lon="6.184806">
		<ele>228</ele>
		<time>2011-09-11T08:58:35.872Z</time>
		<geoidheight>182</geoidheight>
	</trkpt>
	<trkpt lat="50.728229" lon="6.184827">
		<ele>228</ele>
		<time>2011-09-11T08:58:36.867Z</time>
		<geoidheight>182</geoidheight>
	</trkpt>
	<trkpt lat="50.728223" lon="6.184848">
		<ele>228</ele>
		<time>2011-09-11T08:58:37.866Z</time>
		<geoidheight>182</geoidheight>
	</trkpt>
	<trkpt lat="50.728215" lon="6.184867">
		<ele>228</ele>
		<time>2011-09-11T08:58:38.871Z</time>
		<geoidheight>182</geoidheight>
	</trkpt>
	<trkpt lat="50.728209" lon="6.184891">
		<ele>228</ele>
		<time>2011-09-11T08:58:39.865Z</time>
		<geoidheight>182</geoidheight>
	</trkpt>
	<trkpt lat="50.728203" lon="6.184914">
		<ele>228</ele>
		<time>2011-09-11T08:58:40.865Z</time>
		<geoidheight>182</geoidheight>
	</trkpt>
	<trkpt lat="50.728197" lon="6.184934">
		<ele>228</ele>
		<time>2011-09-11T08:58:41.863Z</time>
		<geoidheight>182</geoidheight>
	</trkpt>
	<trkpt lat="50.728188" lon="6.184956">
		<ele>228</ele>
		<time>2011-09-11T08:58:42.865Z</time>
		<geoidheight>182</geoidheight>
	</trkpt>
	<trkpt lat="50.728178" lon="6.184975">
		<ele>228</ele>
		<time>2011-09-11T08:58:43.863Z</time>
		<geoidheight>182</geoidheight>
	</trkpt>
	<trkpt lat="50.728170" lon="6.184997">
		<ele>228</ele>
		<time>2011-09-11T08:58:44.864Z</time>
		<geoidheight>182</geoidheight>
	</trkpt>
	<trkpt lat="50.728160" lon="6.185012">
		<ele>228</ele>
		<time>2011-09-11T08:58:45.865Z</time>
		<geoidheight>182</geoidheight>
	</trkpt>
	<trkpt lat="50.728151" lon="6.185035">
		<ele>228</ele>
		<time>2011-09-11T08:58:46.864Z</time>
		<geoidheight>182</geoidheight>
	</trkpt>
	<trkpt lat="50.728144" lon="6.185057">
		<ele>228</ele>
		<time>2011-09-11T08:58:47.863Z</time>
		<geoidheight>182</geoidheight>
	</trkpt>
	<trkpt lat="50.728141" lon="6.185080">
		<ele>228</ele>
		<time>2011-09-11T08:58:48.865Z</time>
		<geoidheight>182</geoidheight>
	</trkpt>
	<trkpt lat="50.728138" lon="6.185099">
		<ele>228</ele>
		<time>2011-09-11T08:58:49.863Z</time>
		<geoidheight>182</geoidheight>
	</trkpt>
	<trkpt lat="50.728135" lon="6.185116">
		<ele>228</ele>
		<time>2011-09-11T08:58:50.865Z</time>
		<geoidheight>182</geoidheight>
	</trkpt>
	<trkpt lat="50.728128" lon="6.185131">
		<ele>228</ele>
		<time>2011-09-11T08:58:51.871Z</time>
		<geoidheight>182</geoidheight>
	</trkpt>
	<trkpt lat="50.728120" lon="6.185146">
		<ele>228</ele>
		<time>2011-09-11T08:58:52.864Z</time>
		<geoidheight>182</geoidheight>
	</trkpt>
	<trkpt lat="50.728110" lon="6.185162">
		<ele>228</ele>
		<time>2011-09-11T08:58:53.864Z</time>
		<geoidheight>182</geoidheight>
	</trkpt>
	<trkpt lat="50.728099" lon="6.185173">
		<ele>228</ele>
		<time>2011-09-11T08:58:54.868Z</time>
		<geoidheight>182</geoidheight>
	</trkpt>
	<trkpt lat="50.728091" lon="6.185184">
		<ele>228</ele>
		<time>2011-09-11T08:58:55.865Z</time>
		<geoidheight>182</geoidheight>
	</trkpt>
	<trkpt lat="50.728087" lon="6.185199">
		<ele>228</ele>
		<time>2011-09-11T08:58:56.865Z</time>
		<geoidheight>182</geoidheight>
	</trkpt>
	<trkpt lat="50.728082" lon="6.185214">
		<ele>228</ele>
		<time>2011-09-11T08:58:57.865Z</time>
		<geoidheight>182</geoidheight>
	</trkpt>
	<trkpt lat="50.728074" lon="6.185237">
		<ele>228</ele>
		<time>2011-09-11T08:58:58.866Z</time>
		<geoidheight>182</geoidheight>
	</trkpt>
	<trkpt lat="50.728064" lon="6.185260">
		<ele>228</ele>
		<time>2011-09-11T08:58:59.866Z</time>
		<geoidheight>182</geoidheight>
	</trkpt>
	<trkpt lat="50.728055" lon="6.185280">
		<ele>228</ele>
		<time>2011-09-11T08:59:00.865Z</time>
		<geoidheight>182</geoidheight>
	</trkpt>
	<trkpt lat="50.728045" lon="6.185302">
		<ele>228</ele>
		<time>2011-09-11T08:59:01.872Z</time>
		<geoidheight>182</geoidheight>
	</trkpt>
	<trkpt lat="50.728033" lon="6.185324">
		<ele>228</ele>
		<time>2011-09-11T08:59:02.866Z</time>
		<geoidheight>182</geoidheight>
	</trkpt>
	<trkpt lat="50.728018" lon="6.185342">
		<ele>228</ele>
		<time>2011-09-11T08:59:03.864Z</time>
		<geoidheight>182</geoidheight>
	</trkpt>
	<trkpt lat="50.728006" lon="6.185360">
		<ele>227</ele>
		<time>2011-09-11T08:59:04.866Z</time>
		<geoidheight>181</geoidheight>
	</trkpt>
	<trkpt lat="50.727996" lon="6.185375">
		<ele>227</ele>
		<time>2011-09-11T08:59:05.864Z</time>
		<geoidheight>181</geoidheight>
	</trkpt>
	<trkpt lat="50.727987" lon="6.185387">
		<ele>227</ele>
		<time>2011-09-11T08:59:06.864Z</time>
		<geoidheight>181</geoidheight>
	</trkpt>
	<trkpt lat="50.727976" lon="6.185401">
		<ele>227</ele>
		<time>2011-09-11T08:59:07.864Z</time>
		<geoidheight>181</geoidheight>
	</trkpt>
	<trkpt lat="50.727969" lon="6.185413">
		<ele>227</ele>
		<time>2011-09-11T08:59:08.865Z</time>
		<geoidheight>181</geoidheight>
	</trkpt>
	<trkpt lat="50.727960" lon="6.185426">
		<ele>227</ele>
		<time>2011-09-11T08:59:09.865Z</time>
		<geoidheight>181</geoidheight>
	</trkpt>
	<trkpt lat="50.727953" lon="6.185441">
		<ele>227</ele>
		<time>2011-09-11T08:59:10.870Z</time>
		<geoidheight>181</geoidheight>
	</trkpt>
	<trkpt lat="50.727946" lon="6.185452">
		<ele>227</ele>
		<time>2011-09-11T08:59:11.866Z</time>
		<geoidheight>181</geoidheight>
	</trkpt>
	<trkpt lat="50.727938" lon="6.185467">
		<ele>227</ele>
		<time>2011-09-11T08:59:12.865Z</time>
		<geoidheight>181</geoidheight>
	</trkpt>
	<trkpt lat="50.727931" lon="6.185484">
		<ele>227</ele>
		<time>2011-09-11T08:59:13.864Z</time>
		<geoidheight>181</geoidheight>
	</trkpt>
	<trkpt lat="50.727925" lon="6.185500">
		<ele>227</ele>
		<time>2011-09-11T08:59:14.866Z</time>
		<geoidheight>181</geoidheight>
	</trkpt>
	<trkpt lat="50.727918" lon="6.185516">
		<ele>227</ele>
		<time>2011-09-11T08:59:15.865Z</time>
		<geoidheight>181</geoidheight>
	</trkpt>
	<trkpt lat="50.727911" lon="6.185532">
		<ele>227</ele>
		<time>2011-09-11T08:59:16.865Z</time>
		<geoidheight>181</geoidheight>
	</trkpt>
	<trkpt lat="50.727904" lon="6.185549">
		<ele>227</ele>
		<time>2011-09-11T08:59:17.866Z</time>
		<geoidheight>181</geoidheight>
	</trkpt>
	<trkpt lat="50.727897" lon="6.185565">
		<ele>227</ele>
		<time>2011-09-11T08:59:18.866Z</time>
		<geoidheight>181</geoidheight>
	</trkpt>
	<trkpt lat="50.727889" lon="6.185579">
		<ele>227</ele>
		<time>2011-09-11T08:59:19.864Z</time>
		<geoidheight>181</geoidheight>
	</trkpt>
	<trkpt lat="50.727881" lon="6.185593">
		<ele>226</ele>
		<time>2011-09-11T08:59:20.865Z</time>
		<geoidheight>180</geoidheight>
	</trkpt>
	<trkpt lat="50.727873" lon="6.185610">
		<ele>226</ele>
		<time>2011-09-11T08:59:21.866Z</time>
		<geoidheight>180</geoidheight>
	</trkpt>
	<trkpt lat="50.727867" lon="6.185625">
		<ele>226</ele>
		<time>2011-09-11T08:59:22.876Z</time>
		<geoidheight>180</geoidheight>
	</trkpt>
	<trkpt lat="50.727857" lon="6.185635">
		<ele>226</ele>
		<time>2011-09-11T08:59:23.872Z</time>
		<geoidheight>180</geoidheight>
	</trkpt>
	<trkpt lat="50.727848" lon="6.185645">
		<ele>226</ele>
		<time>2011-09-11T08:59:24.867Z</time>
		<geoidheight>180</geoidheight>
	</trkpt>
	<trkpt lat="50.727840" lon="6.185660">
		<ele>226</ele>
		<time>2011-09-11T08:59:25.886Z</time>
		<geoidheight>180</geoidheight>
	</trkpt>
	<trkpt lat="50.727832" lon="6.185679">
		<ele>226</ele>
		<time>2011-09-11T08:59:26.887Z</time>
		<geoidheight>180</geoidheight>
	</trkpt>
	<trkpt lat="50.727823" lon="6.185699">
		<ele>226</ele>
		<time>2011-09-11T08:59:27.873Z</time>
		<geoidheight>180</geoidheight>
	</trkpt>
	<trkpt lat="50.727816" lon="6.185723">
		<ele>226</ele>
		<time>2011-09-11T08:59:28.883Z</time>
		<geoidheight>180</geoidheight>
	</trkpt>
	<trkpt lat="50.727806" lon="6.185745">
		<ele>226</ele>
		<time>2011-09-11T08:59:29.888Z</time>
		<geoidheight>180</geoidheight>
	</trkpt>
	<trkpt lat="50.727798" lon="6.185766">
		<ele>226</ele>
		<time>2011-09-11T08:59:30.892Z</time>
		<geoidheight>180</geoidheight>
	</trkpt>
	<trkpt lat="50.727789" lon="6.185788">
		<ele>226</ele>
		<time>2011-09-11T08:59:31.897Z</time>
		<geoidheight>180</geoidheight>
	</trkpt>
	<trkpt lat="50.727776" lon="6.185810">
		<ele>226</ele>
		<time>2011-09-11T08:59:32.870Z</time>
		<geoidheight>180</geoidheight>
	</trkpt>
	<trkpt lat="50.727759" lon="6.185827">
		<ele>226</ele>
		<time>2011-09-11T08:59:33.871Z</time>
		<geoidheight>180</geoidheight>
	</trkpt>
	<trkpt lat="50.727745" lon="6.185841">
		<ele>226</ele>
		<time>2011-09-11T08:59:34.866Z</time>
		<geoidheight>180</geoidheight>
	</trkpt>
	<trkpt lat="50.727734" lon="6.185857">
		<ele>226</ele>
		<time>2011-09-11T08:59:35.870Z</time>
		<geoidheight>180</geoidheight>
	</trkpt>
	<trkpt lat="50.727723" lon="6.185874">
		<ele>226</ele>
		<time>2011-09-11T08:59:36.864Z</time>
		<geoidheight>180</geoidheight>
	</trkpt>
	<trkpt lat="50.727715" lon="6.185889">
		<ele>226</ele>
		<time>2011-09-11T08:59:37.865Z</time>
		<geoidheight>180</geoidheight>
	</trkpt>
	<trkpt lat="50.727708" lon="6.185904">
		<ele>226</ele>
		<time>2011-09-11T08:59:38.870Z</time>
		<geoidheight>180</geoidheight>
	</trkpt>
	<trkpt lat="50.727700" lon="6.185918">
		<ele>226</ele>
		<time>2011-09-11T08:59:39.876Z</time>
		<geoidheight>180</geoidheight>
	</trkpt>
	<trkpt lat="50.727692" lon="6.185931">
		<ele>226</ele>
		<time>2011-09-11T08:59:40.870Z</time>
		<geoidheight>180</geoidheight>
	</trkpt>
	<trkpt lat="50.727684" lon="6.185945">
		<ele>226</ele>
		<time>2011-09-11T08:59:41.866Z</time>
		<geoidheight>180</geoidheight>
	</trkpt>
	<trkpt lat="50.727676" lon="6.185957">
		<ele>226</ele>
		<time>2011-09-11T08:59:42.873Z</time>
		<geoidheight>180</geoidheight>
	</trkpt>
	<trkpt lat="50.727669" lon="6.185971">
		<ele>226</ele>
		<time>2011-09-11T08:59:43.867Z</time>
		<geoidheight>180</geoidheight>
	</trkpt>
	<trkpt lat="50.727664" lon="6.185987">
		<ele>225</ele>
		<time>2011-09-11T08:59:44.882Z</time>
		<geoidheight>179</geoidheight>
	</trkpt>
	<trkpt lat="50.727658" lon="6.185999">
		<ele>225</ele>
		<time>2011-09-11T08:59:45.881Z</time>
		<geoidheight>179</geoidheight>
	</trkpt>
	<trkpt lat="50.727648" lon="6.186009">
		<ele>225</ele>
		<time>2011-09-11T08:59:46.877Z</time>
		<geoidheight>179</geoidheight>
	</trkpt>
	<trkpt lat="50.727639" lon="6.186019">
		<ele>225</ele>
		<time>2011-09-11T08:59:47.881Z</time>
		<geoidheight>179</geoidheight>
	</trkpt>
	<trkpt lat="50.727630" lon="6.186035">
		<ele>225</ele>
		<time>2011-09-11T08:59:48.877Z</time>
		<geoidheight>179</geoidheight>
	</trkpt>
	<trkpt lat="50.727623" lon="6.186050">
		<ele>225</ele>
		<time>2011-09-11T08:59:49.880Z</time>
		<geoidheight>179</geoidheight>
	</trkpt>
	<trkpt lat="50.727615" lon="6.186064">
		<ele>225</ele>
		<time>2011-09-11T08:59:50.879Z</time>
		<geoidheight>179</geoidheight>
	</trkpt>
	<trkpt lat="50.727605" lon="6.186078">
		<ele>225</ele>
		<time>2011-09-11T08:59:51.864Z</time>
		<geoidheight>179</geoidheight>
	</trkpt>
	<trkpt lat="50.727593" lon="6.186091">
		<ele>225</ele>
		<time>2011-09-11T08:59:52.868Z</time>
		<geoidheight>179</geoidheight>
	</trkpt>
	<trkpt lat="50.727583" lon="6.186104">
		<ele>225</ele>
		<time>2011-09-11T08:59:53.869Z</time>
		<geoidheight>179</geoidheight>
	</trkpt>
	<trkpt lat="50.727577" lon="6.186118">
		<ele>225</ele>
		<time>2011-09-11T08:59:54.866Z</time>
		<geoidheight>179</geoidheight>
	</trkpt>
	<trkpt lat="50.727570" lon="6.186131">
		<ele>225</ele>
		<time>2011-09-11T08:59:55.874Z</time>
		<geoidheight>179</geoidheight>
	</trkpt>
	<trkpt lat="50.727565" lon="6.186144">
		<ele>225</ele>
		<time>2011-09-11T08:59:56.872Z</time>
		<geoidheight>179</geoidheight>
	</trkpt>
	<trkpt lat="50.727559" lon="6.186157">
		<ele>225</ele>
		<time>2011-09-11T08:59:57.864Z</time>
		<geoidheight>179</geoidheight>
	</trkpt>
	<trkpt lat="50.727549" lon="6.186169">
		<ele>225</ele>
		<time>2011-09-11T08:59:58.865Z</time>
		<geoidheight>179</geoidheight>
	</trkpt>
	<trkpt lat="50.727541" lon="6.186182">
		<ele>225</ele>
		<time>2011-09-11T08:59:59.866Z</time>
		<geoidheight>179</geoidheight>
	</trkpt>
	<trkpt lat="50.727534" lon="6.186193">
		<ele>225</ele>
		<time>2011-09-11T09:00:00.866Z</time>
		<geoidheight>179</geoidheight>
	</trkpt>
	<trkpt lat="50.727526" lon="6.186209">
		<ele>225</ele>
		<time>2011-09-11T09:00:01.865Z</time>
		<geoidheight>179</geoidheight>
	</trkpt>
	<trkpt lat="50.727517" lon="6.186225">
		<ele>224</ele>
		<time>2011-09-11T09:00:02.865Z</time>
		<geoidheight>178</geoidheight>
	</trkpt>
	<trkpt lat="50.727507" lon="6.186237">
		<ele>224</ele>
		<time>2011-09-11T09:00:03.865Z</time>
		<geoidheight>178</geoidheight>
	</trkpt>
	<trkpt lat="50.727497" lon="6.186246">
		<ele>224</ele>
		<time>2011-09-11T09:00:04.866Z</time>
		<geoidheight>178</geoidheight>
	</trkpt>
	<trkpt lat="50.727487" lon="6.186257">
		<ele>224</ele>
		<time>2011-09-11T09:00:05.871Z</time>
		<geoidheight>178</geoidheight>
	</trkpt>
	<trkpt lat="50.727478" lon="6.186271">
		<ele>224</ele>
		<time>2011-09-11T09:00:06.866Z</time>
		<geoidheight>178</geoidheight>
	</trkpt>
	<trkpt lat="50.727470" lon="6.186279">
		<ele>224</ele>
		<time>2011-09-11T09:00:07.864Z</time>
		<geoidheight>178</geoidheight>
	</trkpt>
	<trkpt lat="50.727462" lon="6.186285">
		<ele>224</ele>
		<time>2011-09-11T09:00:08.865Z</time>
		<geoidheight>178</geoidheight>
	</trkpt>
	<trkpt lat="50.727452" lon="6.186295">
		<ele>224</ele>
		<time>2011-09-11T09:00:09.867Z</time>
		<geoidheight>178</geoidheight>
	</trkpt>
	<trkpt lat="50.727444" lon="6.186306">
		<ele>224</ele>
		<time>2011-09-11T09:00:10.865Z</time>
		<geoidheight>178</geoidheight>
	</trkpt>
	<trkpt lat="50.727432" lon="6.186319">
		<ele>224</ele>
		<time>2011-09-11T09:00:11.864Z</time>
		<geoidheight>178</geoidheight>
	</trkpt>
	<trkpt lat="50.727422" lon="6.186328">
		<ele>224</ele>
		<time>2011-09-11T09:00:12.866Z</time>
		<geoidheight>178</geoidheight>
	</trkpt>
	<trkpt lat="50.727411" lon="6.186334">
		<ele>224</ele>
		<time>2011-09-11T09:00:13.866Z</time>
		<geoidheight>178</geoidheight>
	</trkpt>
	<trkpt lat="50.727400" lon="6.186343">
		<ele>224</ele>
		<time>2011-09-11T09:00:14.864Z</time>
		<geoidheight>178</geoidheight>
	</trkpt>
	<trkpt lat="50.727387" lon="6.186350">
		<ele>224</ele>
		<time>2011-09-11T09:00:15.866Z</time>
		<geoidheight>178</geoidheight>
	</trkpt>
	<trkpt lat="50.727375" lon="6.186355">
		<ele>224</ele>
		<time>2011-09-11T09:00:16.868Z</time>
		<geoidheight>178</geoidheight>
	</trkpt>
	<trkpt lat="50.727364" lon="6.186357">
		<ele>224</ele>
		<time>2011-09-11T09:00:17.868Z</time>
		<geoidheight>178</geoidheight>
	</trkpt>
	<trkpt lat="50.727353" lon="6.186363">
		<ele>224</ele>
		<time>2011-09-11T09:00:18.865Z</time>
		<geoidheight>178</geoidheight>
	</trkpt>
	<trkpt lat="50.727343" lon="6.186369">
		<ele>224</ele>
		<time>2011-09-11T09:00:19.870Z</time>
		<geoidheight>178</geoidheight>
	</trkpt>
	<trkpt lat="50.727335" lon="6.186375">
		<ele>224</ele>
		<time>2011-09-11T09:00:20.865Z</time>
		<geoidheight>178</geoidheight>
	</trkpt>
	<trkpt lat="50.727325" lon="6.186381">
		<ele>224</ele>
		<time>2011-09-11T09:00:21.865Z</time>
		<geoidheight>178</geoidheight>
	</trkpt>
	<trkpt lat="50.727312" lon="6.186388">
		<ele>224</ele>
		<time>2011-09-11T09:00:22.867Z</time>
		<geoidheight>178</geoidheight>
	</trkpt>
	<trkpt lat="50.727300" lon="6.186393">
		<ele>224</ele>
		<time>2011-09-11T09:00:23.864Z</time>
		<geoidheight>178</geoidheight>
	</trkpt>
	<trkpt lat="50.727289" lon="6.186404">
		<ele>224</ele>
		<time>2011-09-11T09:00:24.865Z</time>
		<geoidheight>178</geoidheight>
	</trkpt>
	<trkpt lat="50.727278" lon="6.186412">
		<ele>224</ele>
		<time>2011-09-11T09:00:25.871Z</time>
		<geoidheight>178</geoidheight>
	</trkpt>
	<trkpt lat="50.727267" lon="6.186423">
		<ele>224</ele>
		<time>2011-09-11T09:00:26.866Z</time>
		<geoidheight>178</geoidheight>
	</trkpt>
	<trkpt lat="50.727255" lon="6.186435">
		<ele>224</ele>
		<time>2011-09-11T09:00:27.866Z</time>
		<geoidheight>178</geoidheight>
	</trkpt>
	<trkpt lat="50.727244" lon="6.186449">
		<ele>224</ele>
		<time>2011-09-11T09:00:28.865Z</time>
		<geoidheight>178</geoidheight>
	</trkpt>
	<trkpt lat="50.727235" lon="6.186463">
		<ele>224</ele>
		<time>2011-09-11T09:00:29.866Z</time>
		<geoidheight>178</geoidheight>
	</trkpt>
	<trkpt lat="50.727224" lon="6.186477">
		<ele>223</ele>
		<time>2011-09-11T09:00:30.864Z</time>
		<geoidheight>177</geoidheight>
	</trkpt>
	<trkpt lat="50.727211" lon="6.186488">
		<ele>223</ele>
		<time>2011-09-11T09:00:31.865Z</time>
		<geoidheight>177</geoidheight>
	</trkpt>
	<trkpt lat="50.727200" lon="6.186496">
		<ele>223</ele>
		<time>2011-09-11T09:00:32.866Z</time>
		<geoidheight>177</geoidheight>
	</trkpt>
	<trkpt lat="50.727187" lon="6.186503">
		<ele>223</ele>
		<time>2011-09-11T09:00:33.871Z</time>
		<geoidheight>177</geoidheight>
	</trkpt>
	<trkpt lat="50.727175" lon="6.186515">
		<ele>223</ele>
		<time>2011-09-11T09:00:34.867Z</time>
		<geoidheight>177</geoidheight>
	</trkpt>
	<trkpt lat="50.727162" lon="6.186523">
		<ele>223</ele>
		<time>2011-09-11T09:00:35.866Z</time>
		<geoidheight>177</geoidheight>
	</trkpt>
	<trkpt lat="50.727149" lon="6.186531">
		<ele>223</ele>
		<time>2011-09-11T09:00:36.866Z</time>
		<geoidheight>177</geoidheight>
	</trkpt>
	<trkpt lat="50.727135" lon="6.186545">
		<ele>224</ele>
		<time>2011-09-11T09:00:37.866Z</time>
		<geoidheight>178</geoidheight>
	</trkpt>
	<trkpt lat="50.727120" lon="6.186568">
		<ele>224</ele>
		<time>2011-09-11T09:00:38.867Z</time>
		<geoidheight>178</geoidheight>
	</trkpt>
	<trkpt lat="50.727104" lon="6.186593">
		<ele>223</ele>
		<time>2011-09-11T09:00:39.865Z</time>
		<geoidheight>177</geoidheight>
	</trkpt>
	<trkpt lat="50.727091" lon="6.186618">
		<ele>223</ele>
		<time>2011-09-11T09:00:40.869Z</time>
		<geoidheight>177</geoidheight>
	</trkpt>
	<trkpt lat="50.727075" lon="6.186641">
		<ele>223</ele>
		<time>2011-09-11T09:00:41.865Z</time>
		<geoidheight>177</geoidheight>
	</trkpt>
	<trkpt lat="50.727056" lon="6.186657">
		<ele>223</ele>
		<time>2011-09-11T09:00:42.867Z</time>
		<geoidheight>177</geoidheight>
	</trkpt>
	<trkpt lat="50.727037" lon="6.186669">
		<ele>223</ele>
		<time>2011-09-11T09:00:43.865Z</time>
		<geoidheight>177</geoidheight>
	</trkpt>
	<trkpt lat="50.727022" lon="6.186681">
		<ele>223</ele>
		<time>2011-09-11T09:00:44.866Z</time>
		<geoidheight>177</geoidheight>
	</trkpt>
	<trkpt lat="50.727008" lon="6.186692">
		<ele>223</ele>
		<time>2011-09-11T09:00:45.867Z</time>
		<geoidheight>177</geoidheight>
	</trkpt>
	<trkpt lat="50.726993" lon="6.186703">
		<ele>223</ele>
		<time>2011-09-11T09:00:46.865Z</time>
		<geoidheight>177</geoidheight>
	</trkpt>
	<trkpt lat="50.726978" lon="6.186712">
		<ele>223</ele>
		<time>2011-09-11T09:00:47.865Z</time>
		<geoidheight>177</geoidheight>
	</trkpt>
	<trkpt lat="50.726966" lon="6.186720">
		<ele>223</ele>
		<time>2011-09-11T09:00:48.868Z</time>
		<geoidheight>177</geoidheight>
	</trkpt>
	<trkpt lat="50.726952" lon="6.186729">
		<ele>223</ele>
		<time>2011-09-11T09:00:49.868Z</time>
		<geoidheight>177</geoidheight>
	</trkpt>
	<trkpt lat="50.726936" lon="6.186736">
		<ele>223</ele>
		<time>2011-09-11T09:00:50.865Z</time>
		<geoidheight>177</geoidheight>
	</trkpt>
	<trkpt lat="50.726919" lon="6.186745">
		<ele>223</ele>
		<time>2011-09-11T09:00:51.868Z</time>
		<geoidheight>177</geoidheight>
	</trkpt>
	<trkpt lat="50.726903" lon="6.186755">
		<ele>223</ele>
		<time>2011-09-11T09:00:52.866Z</time>
		<geoidheight>177</geoidheight>
	</trkpt>
	<trkpt lat="50.726887" lon="6.186766">
		<ele>223</ele>
		<time>2011-09-11T09:00:53.866Z</time>
		<geoidheight>177</geoidheight>
	</trkpt>
	<trkpt lat="50.726871" lon="6.186776">
		<ele>223</ele>
		<time>2011-09-11T09:00:54.866Z</time>
		<geoidheight>177</geoidheight>
	</trkpt>
	<trkpt lat="50.726855" lon="6.186787">
		<ele>223</ele>
		<time>2011-09-11T09:00:55.867Z</time>
		<geoidheight>177</geoidheight>
	</trkpt>
	<trkpt lat="50.726841" lon="6.186800">
		<ele>223</ele>
		<time>2011-09-11T09:00:56.865Z</time>
		<geoidheight>177</geoidheight>
	</trkpt>
	<trkpt lat="50.726827" lon="6.186815">
		<ele>223</ele>
		<time>2011-09-11T09:00:57.866Z</time>
		<geoidheight>177</geoidheight>
	</trkpt>
	<trkpt lat="50.726813" lon="6.186830">
		<ele>223</ele>
		<time>2011-09-11T09:00:58.867Z</time>
		<geoidheight>177</geoidheight>
	</trkpt>
	<trkpt lat="50.726799" lon="6.186844">
		<ele>223</ele>
		<time>2011-09-11T09:00:59.867Z</time>
		<geoidheight>177</geoidheight>
	</trkpt>
	<trkpt lat="50.726785" lon="6.186855">
		<ele>223</ele>
		<time>2011-09-11T09:01:00.867Z</time>
		<geoidheight>177</geoidheight>
	</trkpt>
	<trkpt lat="50.726772" lon="6.186867">
		<ele>223</ele>
		<time>2011-09-11T09:01:01.871Z</time>
		<geoidheight>177</geoidheight>
	</trkpt>
	<trkpt lat="50.726760" lon="6.186879">
		<ele>223</ele>
		<time>2011-09-11T09:01:02.866Z</time>
		<geoidheight>177</geoidheight>
	</trkpt>
	<trkpt lat="50.726749" lon="6.186892">
		<ele>223</ele>
		<time>2011-09-11T09:01:03.866Z</time>
		<geoidheight>177</geoidheight>
	</trkpt>
	<trkpt lat="50.726740" lon="6.186904">
		<ele>223</ele>
		<time>2011-09-11T09:01:04.867Z</time>
		<geoidheight>177</geoidheight>
	</trkpt>
	<trkpt lat="50.726727" lon="6.186914">
		<ele>223</ele>
		<time>2011-09-11T09:01:05.867Z</time>
		<geoidheight>177</geoidheight>
	</trkpt>
	<trkpt lat="50.726714" lon="6.186925">
		<ele>223</ele>
		<time>2011-09-11T09:01:06.865Z</time>
		<geoidheight>177</geoidheight>
	</trkpt>
	<trkpt lat="50.726702" lon="6.186937">
		<ele>223</ele>
		<time>2011-09-11T09:01:07.867Z</time>
		<geoidheight>177</geoidheight>
	</trkpt>
	<trkpt lat="50.726690" lon="6.186951">
		<ele>223</ele>
		<time>2011-09-11T09:01:08.866Z</time>
		<geoidheight>177</geoidheight>
	</trkpt>
	<trkpt lat="50.726679" lon="6.186963">
		<ele>223</ele>
		<time>2011-09-11T09:01:09.872Z</time>
		<geoidheight>177</geoidheight>
	</trkpt>
	<trkpt lat="50.726667" lon="6.186973">
		<ele>223</ele>
		<time>2011-09-11T09:01:10.865Z</time>
		<geoidheight>177</geoidheight>
	</trkpt>
	<trkpt lat="50.726656" lon="6.186984">
		<ele>223</ele>
		<time>2011-09-11T09:01:11.869Z</time>
		<geoidheight>177</geoidheight>
	</trkpt>
	<trkpt lat="50.726645" lon="6.186996">
		<ele>223</ele>
		<time>2011-09-11T09:01:12.865Z</time>
		<geoidheight>177</geoidheight>
	</trkpt>
	<trkpt lat="50.726631" lon="6.187006">
		<ele>223</ele>
		<time>2011-09-11T09:01:13.873Z</time>
		<geoidheight>177</geoidheight>
	</trkpt>
	<trkpt lat="50.726622" lon="6.187016">
		<ele>223</ele>
		<time>2011-09-11T09:01:14.867Z</time>
		<geoidheight>177</geoidheight>
	</trkpt>
	<trkpt lat="50.726611" lon="6.187024">
		<ele>223</ele>
		<time>2011-09-11T09:01:15.865Z</time>
		<geoidheight>177</geoidheight>
	</trkpt>
	<trkpt lat="50.726603" lon="6.187038">
		<ele>223</ele>
		<time>2011-09-11T09:01:16.867Z</time>
		<geoidheight>177</geoidheight>
	</trkpt>
	<trkpt lat="50.726597" lon="6.187054">
		<ele>223</ele>
		<time>2011-09-11T09:01:17.866Z</time>
		<geoidheight>177</geoidheight>
	</trkpt>
	<trkpt lat="50.726589" lon="6.187065">
		<ele>223</ele>
		<time>2011-09-11T09:01:18.869Z</time>
		<geoidheight>177</geoidheight>
	</trkpt>
	<trkpt lat="50.726582" lon="6.187073">
		<ele>223</ele>
		<time>2011-09-11T09:01:19.865Z</time>
		<geoidheight>177</geoidheight>
	</trkpt>
	<trkpt lat="50.726576" lon="6.187080">
		<ele>223</ele>
		<time>2011-09-11T09:01:20.865Z</time>
		<geoidheight>177</geoidheight>
	</trkpt>
	<trkpt lat="50.726570" lon="6.187086">
		<ele>223</ele>
		<time>2011-09-11T09:01:21.866Z</time>
		<geoidheight>177</geoidheight>
	</trkpt>
	<trkpt lat="50.726561" lon="6.187092">
		<ele>223</ele>
		<time>2011-09-11T09:01:22.867Z</time>
		<geoidheight>177</geoidheight>
	</trkpt>
	<trkpt lat="50.726551" lon="6.187099">
		<ele>223</ele>
		<time>2011-09-11T09:01:23.868Z</time>
		<geoidheight>177</geoidheight>
	</trkpt>
	<trkpt lat="50.726541" lon="6.187110">
		<ele>223</ele>
		<time>2011-09-11T09:01:24.867Z</time>
		<geoidheight>177</geoidheight>
	</trkpt>
	<trkpt lat="50.726531" lon="6.187115">
		<ele>223</ele>
		<time>2011-09-11T09:01:25.864Z</time>
		<geoidheight>177</geoidheight>
	</trkpt>
	<trkpt lat="50.726520" lon="6.187123">
		<ele>223</ele>
		<time>2011-09-11T09:01:26.866Z</time>
		<geoidheight>177</geoidheight>
	</trkpt>
	<trkpt lat="50.726509" lon="6.187129">
		<ele>223</ele>
		<time>2011-09-11T09:01:27.870Z</time>
		<geoidheight>177</geoidheight>
	</trkpt>
	<trkpt lat="50.726499" lon="6.187135">
		<ele>223</ele>
		<time>2011-09-11T09:01:28.866Z</time>
		<geoidheight>177</geoidheight>
	</trkpt>
	<trkpt lat="50.726486" lon="6.187140">
		<ele>223</ele>
		<time>2011-09-11T09:01:29.865Z</time>
		<geoidheight>177</geoidheight>
	</trkpt>
	<trkpt lat="50.726471" lon="6.187143">
		<ele>223</ele>
		<time>2011-09-11T09:01:30.868Z</time>
		<geoidheight>177</geoidheight>
	</trkpt>
	<trkpt lat="50.726458" lon="6.187145">
		<ele>223</ele>
		<time>2011-09-11T09:01:31.866Z</time>
		<geoidheight>177</geoidheight>
	</trkpt>
	<trkpt lat="50.726445" lon="6.187147">
		<ele>223</ele>
		<time>2011-09-11T09:01:32.865Z</time>
		<geoidheight>177</geoidheight>
	</trkpt>
	<trkpt lat="50.726433" lon="6.187153">
		<ele>223</ele>
		<time>2011-09-11T09:01:33.868Z</time>
		<geoidheight>177</geoidheight>
	</trkpt>
	<trkpt lat="50.726421" lon="6.187157">
		<ele>223</ele>
		<time>2011-09-11T09:01:34.867Z</time>
		<geoidheight>177</geoidheight>
	</trkpt>
	<trkpt lat="50.726410" lon="6.187162">
		<ele>223</ele>
		<time>2011-09-11T09:01:35.865Z</time>
		<geoidheight>177</geoidheight>
	</trkpt>
	<trkpt lat="50.726399" lon="6.187164">
		<ele>223</ele>
		<time>2011-09-11T09:01:36.866Z</time>
		<geoidheight>177</geoidheight>
	</trkpt>
	<trkpt lat="50.726390" lon="6.187165">
		<ele>223</ele>
		<time>2011-09-11T09:01:37.867Z</time>
		<geoidheight>177</geoidheight>
	</trkpt>
	<trkpt lat="50.726380" lon="6.187172">
		<ele>223</ele>
		<time>2011-09-11T09:01:38.864Z</time>
		<geoidheight>177</geoidheight>
	</trkpt>
	<trkpt lat="50.726370" lon="6.187177">
		<ele>223</ele>
		<time>2011-09-11T09:01:39.867Z</time>
		<geoidheight>177</geoidheight>
	</trkpt>
	<trkpt lat="50.726360" lon="6.187182">
		<ele>223</ele>
		<time>2011-09-11T09:01:40.868Z</time>
		<geoidheight>177</geoidheight>
	</trkpt>
	<trkpt lat="50.726360" lon="6.187182">
		<ele>224</ele>
		<time>2011-09-11T09:01:49.875Z</time>
		<geoidheight>178</geoidheight>
	</trkpt>
	<trkpt lat="50.726314" lon="6.187216">
		<ele>224</ele>
		<time>2011-09-11T09:01:50.877Z</time>
		<geoidheight>178</geoidheight>
	</trkpt>
	<trkpt lat="50.726314" lon="6.187216">
		<ele>224</ele>
		<time>2011-09-11T09:01:57.866Z</time>
		<geoidheight>178</geoidheight>
	</trkpt>
	<trkpt lat="50.726273" lon="6.187246">
		<ele>224</ele>
		<time>2011-09-11T09:01:58.867Z</time>
		<geoidheight>178</geoidheight>
	</trkpt>
	<trkpt lat="50.726273" lon="6.187246">
		<ele>225</ele>
		<time>2011-09-11T09:02:04.865Z</time>
		<geoidheight>179</geoidheight>
	</trkpt>
	<trkpt lat="50.726253" lon="6.187230">
		<ele>225</ele>
		<time>2011-09-11T09:02:05.865Z</time>
		<geoidheight>179</geoidheight>
	</trkpt>
	<trkpt lat="50.726252" lon="6.187233">
		<ele>225</ele>
		<time>2011-09-11T09:02:06.866Z</time>
		<geoidheight>179</geoidheight>
	</trkpt>
	<trkpt lat="50.726243" lon="6.187244">
		<ele>225</ele>
		<time>2011-09-11T09:02:07.865Z</time>
		<geoidheight>179</geoidheight>
	</trkpt>
	<trkpt lat="50.726230" lon="6.187247">
		<ele>225</ele>
		<time>2011-09-11T09:02:08.868Z</time>
		<geoidheight>179</geoidheight>
	</trkpt>
	<trkpt lat="50.726219" lon="6.187255">
		<ele>225</ele>
		<time>2011-09-11T09:02:09.868Z</time>
		<geoidheight>179</geoidheight>
	</trkpt>
	<trkpt lat="50.726207" lon="6.187262">
		<ele>225</ele>
		<time>2011-09-11T09:02:10.865Z</time>
		<geoidheight>179</geoidheight>
	</trkpt>
	<trkpt lat="50.726198" lon="6.187273">
		<ele>225</ele>
		<time>2011-09-11T09:02:11.865Z</time>
		<geoidheight>179</geoidheight>
	</trkpt>
	<trkpt lat="50.726189" lon="6.187284">
		<ele>225</ele>
		<time>2011-09-11T09:02:12.868Z</time>
		<geoidheight>179</geoidheight>
	</trkpt>
	<trkpt lat="50.726184" lon="6.187296">
		<ele>225</ele>
		<time>2011-09-11T09:02:13.866Z</time>
		<geoidheight>179</geoidheight>
	</trkpt>
	<trkpt lat="50.726181" lon="6.187310">
		<ele>225</ele>
		<time>2011-09-11T09:02:14.866Z</time>
		<geoidheight>179</geoidheight>
	</trkpt>
	<trkpt lat="50.726172" lon="6.187326">
		<ele>225</ele>
		<time>2011-09-11T09:02:15.865Z</time>
		<geoidheight>179</geoidheight>
	</trkpt>
	<trkpt lat="50.726167" lon="6.187341">
		<ele>225</ele>
		<time>2011-09-11T09:02:16.866Z</time>
		<geoidheight>179</geoidheight>
	</trkpt>
	<trkpt lat="50.726153" lon="6.187348">
		<ele>225</ele>
		<time>2011-09-11T09:02:17.865Z</time>
		<geoidheight>179</geoidheight>
	</trkpt>
	<trkpt lat="50.726142" lon="6.187357">
		<ele>225</ele>
		<time>2011-09-11T09:02:18.866Z</time>
		<geoidheight>179</geoidheight>
	</trkpt>
	<trkpt lat="50.726126" lon="6.187364">
		<ele>225</ele>
		<time>2011-09-11T09:02:19.868Z</time>
		<geoidheight>179</geoidheight>
	</trkpt>
	<trkpt lat="50.726110" lon="6.187369">
		<ele>225</ele>
		<time>2011-09-11T09:02:20.866Z</time>
		<geoidheight>179</geoidheight>
	</trkpt>
	<trkpt lat="50.726095" lon="6.187376">
		<ele>225</ele>
		<time>2011-09-11T09:02:21.865Z</time>
		<geoidheight>179</geoidheight>
	</trkpt>
	<trkpt lat="50.726082" lon="6.187383">
		<ele>225</ele>
		<time>2011-09-11T09:02:22.869Z</time>
		<geoidheight>179</geoidheight>
	</trkpt>
	<trkpt lat="50.726070" lon="6.187390">
		<ele>225</ele>
		<time>2011-09-11T09:02:23.865Z</time>
		<geoidheight>179</geoidheight>
	</trkpt>
	<trkpt lat="50.726058" lon="6.187399">
		<ele>225</ele>
		<time>2011-09-11T09:02:24.867Z</time>
		<geoidheight>179</geoidheight>
	</trkpt>
	<trkpt lat="50.726042" lon="6.187400">
		<ele>225</ele>
		<time>2011-09-11T09:02:25.865Z</time>
		<geoidheight>179</geoidheight>
	</trkpt>
	<trkpt lat="50.726026" lon="6.187400">
		<ele>225</ele>
		<time>2011-09-11T09:02:26.867Z</time>
		<geoidheight>179</geoidheight>
	</trkpt>
	<trkpt lat="50.726010" lon="6.187400">
		<ele>225</ele>
		<time>2011-09-11T09:02:27.865Z</time>
		<geoidheight>179</geoidheight>
	</trkpt>
	<trkpt lat="50.725998" lon="6.187404">
		<ele>225</ele>
		<time>2011-09-11T09:02:28.866Z</time>
		<geoidheight>179</geoidheight>
	</trkpt>
	<trkpt lat="50.725988" lon="6.187420">
		<ele>225</ele>
		<time>2011-09-11T09:02:29.866Z</time>
		<geoidheight>179</geoidheight>
	</trkpt>
	<trkpt lat="50.725982" lon="6.187434">
		<ele>225</ele>
		<time>2011-09-11T09:02:30.868Z</time>
		<geoidheight>179</geoidheight>
	</trkpt>
	<trkpt lat="50.725974" lon="6.187448">
		<ele>225</ele>
		<time>2011-09-11T09:02:31.865Z</time>
		<geoidheight>179</geoidheight>
	</trkpt>
	<trkpt lat="50.725969" lon="6.187458">
		<ele>225</ele>
		<time>2011-09-11T09:02:32.868Z</time>
		<geoidheight>179</geoidheight>
	</trkpt>
	<trkpt lat="50.725967" lon="6.187471">
		<ele>225</ele>
		<time>2011-09-11T09:02:33.864Z</time>
		<geoidheight>179</geoidheight>
	</trkpt>
	<trkpt lat="50.725961" lon="6.187477">
		<ele>225</ele>
		<time>2011-09-11T09:02:34.866Z</time>
		<geoidheight>179</geoidheight>
	</trkpt>
	<trkpt lat="50.725954" lon="6.187484">
		<ele>225</ele>
		<time>2011-09-11T09:02:35.868Z</time>
		<geoidheight>179</geoidheight>
	</trkpt>
	<trkpt lat="50.725945" lon="6.187490">
		<ele>225</ele>
		<time>2011-09-11T09:02:36.866Z</time>
		<geoidheight>179</geoidheight>
	</trkpt>
	<trkpt lat="50.725936" lon="6.187496">
		<ele>225</ele>
		<time>2011-09-11T09:02:37.869Z</time>
		<geoidheight>179</geoidheight>
	</trkpt>
	<trkpt lat="50.725926" lon="6.187502">
		<ele>225</ele>
		<time>2011-09-11T09:02:38.867Z</time>
		<geoidheight>179</geoidheight>
	</trkpt>
	<trkpt lat="50.725922" lon="6.187517">
		<ele>225</ele>
		<time>2011-09-11T09:02:39.866Z</time>
		<geoidheight>179</geoidheight>
	</trkpt>
	<trkpt lat="50.725918" lon="6.187532">
		<ele>225</ele>
		<time>2011-09-11T09:02:40.866Z</time>
		<geoidheight>179</geoidheight>
	</trkpt>
	<trkpt lat="50.725916" lon="6.187550">
		<ele>225</ele>
		<time>2011-09-11T09:02:41.869Z</time>
		<geoidheight>179</geoidheight>
	</trkpt>
	<trkpt lat="50.725916" lon="6.187567">
		<ele>225</ele>
		<time>2011-09-11T09:02:42.867Z</time>
		<geoidheight>179</geoidheight>
	</trkpt>
	<trkpt lat="50.725918" lon="6.187583">
		<ele>225</ele>
		<time>2011-09-11T09:02:43.866Z</time>
		<geoidheight>179</geoidheight>
	</trkpt>
	<trkpt lat="50.725920" lon="6.187604">
		<ele>225</ele>
		<time>2011-09-11T09:02:44.872Z</time>
		<geoidheight>179</geoidheight>
	</trkpt>
	<trkpt lat="50.725920" lon="6.187625">
		<ele>225</ele>
		<time>2011-09-11T09:02:45.868Z</time>
		<geoidheight>179</geoidheight>
	</trkpt>
	<trkpt lat="50.725920" lon="6.187647">
		<ele>225</ele>
		<time>2011-09-11T09:02:46.865Z</time>
		<geoidheight>179</geoidheight>
	</trkpt>
	<trkpt lat="50.725917" lon="6.187666">
		<ele>225</ele>
		<time>2011-09-11T09:02:47.871Z</time>
		<geoidheight>179</geoidheight>
	</trkpt>
	<trkpt lat="50.725914" lon="6.187684">
		<ele>225</ele>
		<time>2011-09-11T09:02:48.870Z</time>
		<geoidheight>179</geoidheight>
	</trkpt>
	<trkpt lat="50.725911" lon="6.187700">
		<ele>225</ele>
		<time>2011-09-11T09:02:49.869Z</time>
		<geoidheight>179</geoidheight>
	</trkpt>
	<trkpt lat="50.725906" lon="6.187718">
		<ele>226</ele>
		<time>2011-09-11T09:02:50.876Z</time>
		<geoidheight>180</geoidheight>
	</trkpt>
	<trkpt lat="50.725901" lon="6.187735">
		<ele>226</ele>
		<time>2011-09-11T09:02:51.867Z</time>
		<geoidheight>180</geoidheight>
	</trkpt>
	<trkpt lat="50.725898" lon="6.187753">
		<ele>226</ele>
		<time>2011-09-11T09:02:52.867Z</time>
		<geoidheight>180</geoidheight>
	</trkpt>
	<trkpt lat="50.725891" lon="6.187770">
		<ele>226</ele>
		<time>2011-09-11T09:02:53.866Z</time>
		<geoidheight>180</geoidheight>
	</trkpt>
	<trkpt lat="50.725887" lon="6.187788">
		<ele>226</ele>
		<time>2011-09-11T09:02:54.865Z</time>
		<geoidheight>180</geoidheight>
	</trkpt>
	<trkpt lat="50.725884" lon="6.187804">
		<ele>226</ele>
		<time>2011-09-11T09:02:55.867Z</time>
		<geoidheight>180</geoidheight>
	</trkpt>
	<trkpt lat="50.725879" lon="6.187818">
		<ele>226</ele>
		<time>2011-09-11T09:02:56.867Z</time>
		<geoidheight>180</geoidheight>
	</trkpt>
	<trkpt lat="50.725875" lon="6.187834">
		<ele>226</ele>
		<time>2011-09-11T09:02:57.865Z</time>
		<geoidheight>180</geoidheight>
	</trkpt>
	<trkpt lat="50.725872" lon="6.187855">
		<ele>226</ele>
		<time>2011-09-11T09:02:58.871Z</time>
		<geoidheight>180</geoidheight>
	</trkpt>
	<trkpt lat="50.725868" lon="6.187878">
		<ele>226</ele>
		<time>2011-09-11T09:02:59.867Z</time>
		<geoidheight>180</geoidheight>
	</trkpt>
	<trkpt lat="50.725864" lon="6.187902">
		<ele>226</ele>
		<time>2011-09-11T09:03:00.866Z</time>
		<geoidheight>180</geoidheight>
	</trkpt>
	<trkpt lat="50.725861" lon="6.187926">
		<ele>226</ele>
		<time>2011-09-11T09:03:01.870Z</time>
		<geoidheight>180</geoidheight>
	</trkpt>
	<trkpt lat="50.725860" lon="6.187950">
		<ele>226</ele>
		<time>2011-09-11T09:03:02.866Z</time>
		<geoidheight>180</geoidheight>
	</trkpt>
	<trkpt lat="50.725858" lon="6.187974">
		<ele>226</ele>
		<time>2011-09-11T09:03:03.866Z</time>
		<geoidheight>180</geoidheight>
	</trkpt>
	<trkpt lat="50.725854" lon="6.187994">
		<ele>226</ele>
		<time>2011-09-11T09:03:04.878Z</time>
		<geoidheight>180</geoidheight>
	</trkpt>
	<trkpt lat="50.725845" lon="6.188009">
		<ele>226</ele>
		<time>2011-09-11T09:03:05.878Z</time>
		<geoidheight>180</geoidheight>
	</trkpt>
	<trkpt lat="50.725840" lon="6.188028">
		<ele>226</ele>
		<time>2011-09-11T09:03:06.890Z</time>
		<geoidheight>180</geoidheight>
	</trkpt>
	<trkpt lat="50.725836" lon="6.188046">
		<ele>226</ele>
		<time>2011-09-11T09:03:07.882Z</time>
		<geoidheight>180</geoidheight>
	</trkpt>
	<trkpt lat="50.725835" lon="6.188064">
		<ele>226</ele>
		<time>2011-09-11T09:03:08.883Z</time>
		<geoidheight>180</geoidheight>
	</trkpt>
	<trkpt lat="50.725833" lon="6.188081">
		<ele>226</ele>
		<time>2011-09-11T09:03:09.881Z</time>
		<geoidheight>180</geoidheight>
	</trkpt>
	<trkpt lat="50.725835" lon="6.188099">
		<ele>226</ele>
		<time>2011-09-11T09:03:10.882Z</time>
		<geoidheight>180</geoidheight>
	</trkpt>
	<trkpt lat="50.725834" lon="6.188116">
		<ele>226</ele>
		<time>2011-09-11T09:03:11.869Z</time>
		<geoidheight>180</geoidheight>
	</trkpt>
	<trkpt lat="50.725834" lon="6.188133">
		<ele>226</ele>
		<time>2011-09-11T09:03:12.874Z</time>
		<geoidheight>180</geoidheight>
	</trkpt>
	<trkpt lat="50.725832" lon="6.188151">
		<ele>226</ele>
		<time>2011-09-11T09:03:13.866Z</time>
		<geoidheight>180</geoidheight>
	</trkpt>
	<trkpt lat="50.725824" lon="6.188162">
		<ele>226</ele>
		<time>2011-09-11T09:03:14.868Z</time>
		<geoidheight>180</geoidheight>
	</trkpt>
	<trkpt lat="50.725815" lon="6.188173">
		<ele>226</ele>
		<time>2011-09-11T09:03:15.869Z</time>
		<geoidheight>180</geoidheight>
	</trkpt>
	<trkpt lat="50.725808" lon="6.188184">
		<ele>226</ele>
		<time>2011-09-11T09:03:16.873Z</time>
		<geoidheight>180</geoidheight>
	</trkpt>
	<trkpt lat="50.725803" lon="6.188200">
		<ele>226</ele>
		<time>2011-09-11T09:03:17.872Z</time>
		<geoidheight>180</geoidheight>
	</trkpt>
	<trkpt lat="50.725806" lon="6.188217">
		<ele>226</ele>
		<time>2011-09-11T09:03:18.868Z</time>
		<geoidheight>180</geoidheight>
	</trkpt>
	<trkpt lat="50.725808" lon="6.188235">
		<ele>226</ele>
		<time>2011-09-11T09:03:19.871Z</time>
		<geoidheight>180</geoidheight>
	</trkpt>
	<trkpt lat="50.725808" lon="6.188252">
		<ele>226</ele>
		<time>2011-09-11T09:03:20.874Z</time>
		<geoidheight>180</geoidheight>
	</trkpt>
	<trkpt lat="50.725797" lon="6.188263">
		<ele>226</ele>
		<time>2011-09-11T09:03:21.868Z</time>
		<geoidheight>180</geoidheight>
	</trkpt>
	<trkpt lat="50.725787" lon="6.188273">
		<ele>226</ele>
		<time>2011-09-11T09:03:22.880Z</time>
		<geoidheight>180</geoidheight>
	</trkpt>
	<trkpt lat="50.725775" lon="6.188283">
		<ele>226</ele>
		<time>2011-09-11T09:03:23.873Z</time>
		<geoidheight>180</geoidheight>
	</trkpt>
	<trkpt lat="50.725766" lon="6.188296">
		<ele>226</ele>
		<time>2011-09-11T09:03:24.875Z</time>
		<geoidheight>180</geoidheight>
	</trkpt>
	<trkpt lat="50.725762" lon="6.188319">
		<ele>226</ele>
		<time>2011-09-11T09:03:25.866Z</time>
		<geoidheight>180</geoidheight>
	</trkpt>
	<trkpt lat="50.725758" lon="6.188341">
		<ele>226</ele>
		<time>2011-09-11T09:03:26.866Z</time>
		<geoidheight>180</geoidheight>
	</trkpt>
	<trkpt lat="50.725757" lon="6.188365">
		<ele>226</ele>
		<time>2011-09-11T09:03:27.867Z</time>
		<geoidheight>180</geoidheight>
	</trkpt>
	<trkpt lat="50.725755" lon="6.188388">
		<ele>226</ele>
		<time>2011-09-11T09:03:28.866Z</time>
		<geoidheight>180</geoidheight>
	</trkpt>
	<trkpt lat="50.725747" lon="6.188409">
		<ele>226</ele>
		<time>2011-09-11T09:03:29.866Z</time>
		<geoidheight>180</geoidheight>
	</trkpt>
	<trkpt lat="50.725740" lon="6.188433">
		<ele>226</ele>
		<time>2011-09-11T09:03:30.868Z</time>
		<geoidheight>180</geoidheight>
	</trkpt>
	<trkpt lat="50.725734" lon="6.188455">
		<ele>226</ele>
		<time>2011-09-11T09:03:31.865Z</time>
		<geoidheight>180</geoidheight>
	</trkpt>
	<trkpt lat="50.725729" lon="6.188476">
		<ele>226</ele>
		<time>2011-09-11T09:03:32.866Z</time>
		<geoidheight>180</geoidheight>
	</trkpt>
	<trkpt lat="50.725723" lon="6.188495">
		<ele>226</ele>
		<time>2011-09-11T09:03:33.865Z</time>
		<geoidheight>180</geoidheight>
	</trkpt>
	<trkpt lat="50.725717" lon="6.188514">
		<ele>226</ele>
		<time>2011-09-11T09:03:34.867Z</time>
		<geoidheight>180</geoidheight>
	</trkpt>
	<trkpt lat="50.725713" lon="6.188540">
		<ele>226</ele>
		<time>2011-09-11T09:03:35.865Z</time>
		<geoidheight>180</geoidheight>
	</trkpt>
	<trkpt lat="50.725708" lon="6.188562">
		<ele>226</ele>
		<time>2011-09-11T09:03:36.871Z</time>
		<geoidheight>180</geoidheight>
	</trkpt>
	<trkpt lat="50.725699" lon="6.188580">
		<ele>226</ele>
		<time>2011-09-11T09:03:37.867Z</time>
		<geoidheight>180</geoidheight>
	</trkpt>
	<trkpt lat="50.725688" lon="6.188595">
		<ele>226</ele>
		<time>2011-09-11T09:03:38.866Z</time>
		<geoidheight>180</geoidheight>
	</trkpt>
	<trkpt lat="50.725676" lon="6.188613">
		<ele>226</ele>
		<time>2011-09-11T09:03:39.865Z</time>
		<geoidheight>180</geoidheight>
	</trkpt>
	<trkpt lat="50.725665" lon="6.188629">
		<ele>226</ele>
		<time>2011-09-11T09:03:40.867Z</time>
		<geoidheight>180</geoidheight>
	</trkpt>
	<trkpt lat="50.725654" lon="6.188649">
		<ele>226</ele>
		<time>2011-09-11T09:03:41.866Z</time>
		<geoidheight>180</geoidheight>
	</trkpt>
	<trkpt lat="50.725647" lon="6.188674">
		<ele>226</ele>
		<time>2011-09-11T09:03:42.872Z</time>
		<geoidheight>180</geoidheight>
	</trkpt>
	<trkpt lat="50.725639" lon="6.188702">
		<ele>226</ele>
		<time>2011-09-11T09:03:43.870Z</time>
		<geoidheight>180</geoidheight>
	</trkpt>
	<trkpt lat="50.725624" lon="6.188723">
		<ele>226</ele>
		<time>2011-09-11T09:03:44.867Z</time>
		<geoidheight>180</geoidheight>
	</trkpt>
	<trkpt lat="50.725608" lon="6.188742">
		<ele>226</ele>
		<time>2011-09-11T09:03:45.870Z</time>
		<geoidheight>180</geoidheight>
	</trkpt>
	<trkpt lat="50.725589" lon="6.188757">
		<ele>226</ele>
		<time>2011-09-11T09:03:46.870Z</time>
		<geoidheight>180</geoidheight>
	</trkpt>
	<trkpt lat="50.725571" lon="6.188768">
		<ele>226</ele>
		<time>2011-09-11T09:03:47.868Z</time>
		<geoidheight>180</geoidheight>
	</trkpt>
	<trkpt lat="50.725554" lon="6.188781">
		<ele>226</ele>
		<time>2011-09-11T09:03:48.872Z</time>
		<geoidheight>180</geoidheight>
	</trkpt>
	<trkpt lat="50.725538" lon="6.188798">
		<ele>226</ele>
		<time>2011-09-11T09:03:49.866Z</time>
		<geoidheight>180</geoidheight>
	</trkpt>
	<trkpt lat="50.725526" lon="6.188819">
		<ele>226</ele>
		<time>2011-09-11T09:03:50.868Z</time>
		<geoidheight>180</geoidheight>
	</trkpt>
	<trkpt lat="50.725516" lon="6.188837">
		<ele>226</ele>
		<time>2011-09-11T09:03:51.866Z</time>
		<geoidheight>180</geoidheight>
	</trkpt>
	<trkpt lat="50.725509" lon="6.188854">
		<ele>226</ele>
		<time>2011-09-11T09:03:52.870Z</time>
		<geoidheight>180</geoidheight>
	</trkpt>
	<trkpt lat="50.725502" lon="6.188873">
		<ele>226</ele>
		<time>2011-09-11T09:03:53.869Z</time>
		<geoidheight>180</geoidheight>
	</trkpt>
	<trkpt lat="50.725494" lon="6.188890">
		<ele>226</ele>
		<time>2011-09-11T09:03:54.874Z</time>
		<geoidheight>180</geoidheight>
	</trkpt>
	<trkpt lat="50.725485" lon="6.188911">
		<ele>226</ele>
		<time>2011-09-11T09:03:55.887Z</time>
		<geoidheight>180</geoidheight>
	</trkpt>
	<trkpt lat="50.725476" lon="6.188932">
		<ele>226</ele>
		<time>2011-09-11T09:03:56.868Z</time>
		<geoidheight>180</geoidheight>
	</trkpt>
	<trkpt lat="50.725467" lon="6.188950">
		<ele>226</ele>
		<time>2011-09-11T09:03:57.869Z</time>
		<geoidheight>180</geoidheight>
	</trkpt>
	<trkpt lat="50.725458" lon="6.188965">
		<ele>226</ele>
		<time>2011-09-11T09:03:58.879Z</time>
		<geoidheight>180</geoidheight>
	</trkpt>
	<trkpt lat="50.725450" lon="6.188982">
		<ele>226</ele>
		<time>2011-09-11T09:03:59.868Z</time>
		<geoidheight>180</geoidheight>
	</trkpt>
	<trkpt lat="50.725450" lon="6.189004">
		<ele>226</ele>
		<time>2011-09-11T09:04:00.866Z</time>
		<geoidheight>180</geoidheight>
	</trkpt>
	<trkpt lat="50.725449" lon="6.189026">
		<ele>226</ele>
		<time>2011-09-11T09:04:01.866Z</time>
		<geoidheight>180</geoidheight>
	</trkpt>
	<trkpt lat="50.725443" lon="6.189041">
		<ele>226</ele>
		<time>2011-09-11T09:04:02.869Z</time>
		<geoidheight>180</geoidheight>
	</trkpt>
	<trkpt lat="50.725439" lon="6.189058">
		<ele>226</ele>
		<time>2011-09-11T09:04:03.865Z</time>
		<geoidheight>180</geoidheight>
	</trkpt>
	<trkpt lat="50.725432" lon="6.189065">
		<ele>226</ele>
		<time>2011-09-11T09:04:04.866Z</time>
		<geoidheight>180</geoidheight>
	</trkpt>
	<trkpt lat="50.725425" lon="6.189073">
		<ele>226</ele>
		<time>2011-09-11T09:04:05.866Z</time>
		<geoidheight>180</geoidheight>
	</trkpt>
	<trkpt lat="50.725418" lon="6.189082">
		<ele>226</ele>
		<time>2011-09-11T09:04:06.868Z</time>
		<geoidheight>180</geoidheight>
	</trkpt>
	<trkpt lat="50.725411" lon="6.189092">
		<ele>226</ele>
		<time>2011-09-11T09:04:07.866Z</time>
		<geoidheight>180</geoidheight>
	</trkpt>
	<trkpt lat="50.725410" lon="6.189110">
		<ele>226</ele>
		<time>2011-09-11T09:04:08.868Z</time>
		<geoidheight>180</geoidheight>
	</trkpt>
	<trkpt lat="50.725408" lon="6.189127">
		<ele>226</ele>
		<time>2011-09-11T09:04:09.870Z</time>
		<geoidheight>180</geoidheight>
	</trkpt>
	<trkpt lat="50.725399" lon="6.189135">
		<ele>226</ele>
		<time>2011-09-11T09:04:10.865Z</time>
		<geoidheight>180</geoidheight>
	</trkpt>
	<trkpt lat="50.725391" lon="6.189144">
		<ele>226</ele>
		<time>2011-09-11T09:04:11.868Z</time>
		<geoidheight>180</geoidheight>
	</trkpt>
	<trkpt lat="50.725382" lon="6.189153">
		<ele>226</ele>
		<time>2011-09-11T09:04:12.872Z</time>
		<geoidheight>180</geoidheight>
	</trkpt>
	<trkpt lat="50.725375" lon="6.189163">
		<ele>226</ele>
		<time>2011-09-11T09:04:13.880Z</time>
		<geoidheight>180</geoidheight>
	</trkpt>
	<trkpt lat="50.725369" lon="6.189176">
		<ele>226</ele>
		<time>2011-09-11T09:04:14.870Z</time>
		<geoidheight>180</geoidheight>
	</trkpt>
	<trkpt lat="50.725362" lon="6.189190">
		<ele>226</ele>
		<time>2011-09-11T09:04:15.878Z</time>
		<geoidheight>180</geoidheight>
	</trkpt>
	<trkpt lat="50.725354" lon="6.189206">
		<ele>226</ele>
		<time>2011-09-11T09:04:16.871Z</time>
		<geoidheight>180</geoidheight>
	</trkpt>
	<trkpt lat="50.725348" lon="6.189219">
		<ele>226</ele>
		<time>2011-09-11T09:04:17.865Z</time>
		<geoidheight>180</geoidheight>
	</trkpt>
	<trkpt lat="50.725342" lon="6.189231">
		<ele>226</ele>
		<time>2011-09-11T09:04:18.866Z</time>
		<geoidheight>180</geoidheight>
	</trkpt>
	<trkpt lat="50.725336" lon="6.189242">
		<ele>227</ele>
		<time>2011-09-11T09:04:19.866Z</time>
		<geoidheight>181</geoidheight>
	</trkpt>
	<trkpt lat="50.725336" lon="6.189258">
		<ele>227</ele>
		<time>2011-09-11T09:04:20.866Z</time>
		<geoidheight>181</geoidheight>
	</trkpt>
	<trkpt lat="50.725333" lon="6.189274">
		<ele>227</ele>
		<time>2011-09-11T09:04:21.865Z</time>
		<geoidheight>181</geoidheight>
	</trkpt>
	<trkpt lat="50.725324" lon="6.189284">
		<ele>227</ele>
		<time>2011-09-11T09:04:22.868Z</time>
		<geoidheight>181</geoidheight>
	</trkpt>
	<trkpt lat="50.725315" lon="6.189297">
		<ele>227</ele>
		<time>2011-09-11T09:04:23.866Z</time>
		<geoidheight>181</geoidheight>
	</trkpt>
	<trkpt lat="50.725305" lon="6.189309">
		<ele>227</ele>
		<time>2011-09-11T09:04:24.867Z</time>
		<geoidheight>181</geoidheight>
	</trkpt>
	<trkpt lat="50.725294" lon="6.189322">
		<ele>227</ele>
		<time>2011-09-11T09:04:25.868Z</time>
		<geoidheight>181</geoidheight>
	</trkpt>
	<trkpt lat="50.725283" lon="6.189340">
		<ele>227</ele>
		<time>2011-09-11T09:04:26.866Z</time>
		<geoidheight>181</geoidheight>
	</trkpt>
	<trkpt lat="50.725273" lon="6.189358">
		<ele>227</ele>
		<time>2011-09-11T09:04:27.865Z</time>
		<geoidheight>181</geoidheight>
	</trkpt>
	<trkpt lat="50.725267" lon="6.189380">
		<ele>227</ele>
		<time>2011-09-11T09:04:28.869Z</time>
		<geoidheight>181</geoidheight>
	</trkpt>
	<trkpt lat="50.725261" lon="6.189401">
		<ele>227</ele>
		<time>2011-09-11T09:04:29.869Z</time>
		<geoidheight>181</geoidheight>
	</trkpt>
	<trkpt lat="50.725254" lon="6.189420">
		<ele>227</ele>
		<time>2011-09-11T09:04:30.866Z</time>
		<geoidheight>181</geoidheight>
	</trkpt>
	<trkpt lat="50.725246" lon="6.189436">
		<ele>227</ele>
		<time>2011-09-11T09:04:31.866Z</time>
		<geoidheight>181</geoidheight>
	</trkpt>
	<trkpt lat="50.725238" lon="6.189449">
		<ele>227</ele>
		<time>2011-09-11T09:04:32.867Z</time>
		<geoidheight>181</geoidheight>
	</trkpt>
	<trkpt lat="50.725231" lon="6.189463">
		<ele>227</ele>
		<time>2011-09-11T09:04:33.871Z</time>
		<geoidheight>181</geoidheight>
	</trkpt>
	<trkpt lat="50.725224" lon="6.189479">
		<ele>227</ele>
		<time>2011-09-11T09:04:34.868Z</time>
		<geoidheight>181</geoidheight>
	</trkpt>
	<trkpt lat="50.725217" lon="6.189494">
		<ele>227</ele>
		<time>2011-09-11T09:04:35.869Z</time>
		<geoidheight>181</geoidheight>
	</trkpt>
	<trkpt lat="50.725212" lon="6.189513">
		<ele>227</ele>
		<time>2011-09-11T09:04:36.866Z</time>
		<geoidheight>181</geoidheight>
	</trkpt>
	<trkpt lat="50.725207" lon="6.189531">
		<ele>227</ele>
		<time>2011-09-11T09:04:37.867Z</time>
		<geoidheight>181</geoidheight>
	</trkpt>
	<trkpt lat="50.725204" lon="6.189550">
		<ele>227</ele>
		<time>2011-09-11T09:04:38.868Z</time>
		<geoidheight>181</geoidheight>
	</trkpt>
	<trkpt lat="50.725197" lon="6.189567">
		<ele>227</ele>
		<time>2011-09-11T09:04:39.867Z</time>
		<geoidheight>181</geoidheight>
	</trkpt>
	<trkpt lat="50.725194" lon="6.189591">
		<ele>227</ele>
		<time>2011-09-11T09:04:40.867Z</time>
		<geoidheight>181</geoidheight>
	</trkpt>
	<trkpt lat="50.725195" lon="6.189618">
		<ele>227</ele>
		<time>2011-09-11T09:04:41.868Z</time>
		<geoidheight>181</geoidheight>
	</trkpt>
	<trkpt lat="50.725194" lon="6.189643">
		<ele>227</ele>
		<time>2011-09-11T09:04:42.868Z</time>
		<geoidheight>181</geoidheight>
	</trkpt>
	<trkpt lat="50.725191" lon="6.189665">
		<ele>227</ele>
		<time>2011-09-11T09:04:43.866Z</time>
		<geoidheight>181</geoidheight>
	</trkpt>
	<trkpt lat="50.725186" lon="6.189685">
		<ele>227</ele>
		<time>2011-09-11T09:04:44.867Z</time>
		<geoidheight>181</geoidheight>
	</trkpt>
	<trkpt lat="50.725179" lon="6.189700">
		<ele>227</ele>
		<time>2011-09-11T09:04:45.868Z</time>
		<geoidheight>181</geoidheight>
	</trkpt>
	<trkpt lat="50.725176" lon="6.189725">
		<ele>227</ele>
		<time>2011-09-11T09:04:46.866Z</time>
		<geoidheight>181</geoidheight>
	</trkpt>
	<trkpt lat="50.725170" lon="6.189752">
		<ele>227</ele>
		<time>2011-09-11T09:04:47.866Z</time>
		<geoidheight>181</geoidheight>
	</trkpt>
	<trkpt lat="50.725165" lon="6.189775">
		<ele>227</ele>
		<time>2011-09-11T09:04:48.869Z</time>
		<geoidheight>181</geoidheight>
	</trkpt>
	<trkpt lat="50.725160" lon="6.189798">
		<ele>227</ele>
		<time>2011-09-11T09:04:49.865Z</time>
		<geoidheight>181</geoidheight>
	</trkpt>
	<trkpt lat="50.725159" lon="6.189829">
		<ele>227</ele>
		<time>2011-09-11T09:04:50.867Z</time>
		<geoidheight>181</geoidheight>
	</trkpt>
	<trkpt lat="50.725159" lon="6.189857">
		<ele>227</ele>
		<time>2011-09-11T09:04:51.867Z</time>
		<geoidheight>181</geoidheight>
	</trkpt>
	<trkpt lat="50.725154" lon="6.189881">
		<ele>227</ele>
		<time>2011-09-11T09:04:52.866Z</time>
		<geoidheight>181</geoidheight>
	</trkpt>
	<trkpt lat="50.725150" lon="6.189906">
		<ele>227</ele>
		<time>2011-09-11T09:04:53.868Z</time>
		<geoidheight>181</geoidheight>
	</trkpt>
	<trkpt lat="50.725147" lon="6.189928">
		<ele>227</ele>
		<time>2011-09-11T09:04:54.868Z</time>
		<geoidheight>181</geoidheight>
	</trkpt>
	<trkpt lat="50.725141" lon="6.189949">
		<ele>227</ele>
		<time>2011-09-11T09:04:55.868Z</time>
		<geoidheight>181</geoidheight>
	</trkpt>
	<trkpt lat="50.725135" lon="6.189968">
		<ele>227</ele>
		<time>2011-09-11T09:04:56.866Z</time>
		<geoidheight>181</geoidheight>
	</trkpt>
	<trkpt lat="50.725128" lon="6.189984">
		<ele>227</ele>
		<time>2011-09-11T09:04:57.868Z</time>
		<geoidheight>181</geoidheight>
	</trkpt>
	<trkpt lat="50.725122" lon="6.189999">
		<ele>227</ele>
		<time>2011-09-11T09:04:58.868Z</time>
		<geoidheight>181</geoidheight>
	</trkpt>
	<trkpt lat="50.725116" lon="6.190015">
		<ele>227</ele>
		<time>2011-09-11T09:04:59.867Z</time>
		<geoidheight>181</geoidheight>
	</trkpt>
	<trkpt lat="50.725104" lon="6.190025">
		<ele>227</ele>
		<time>2011-09-11T09:05:00.867Z</time>
		<geoidheight>181</geoidheight>
	</trkpt>
	<trkpt lat="50.725095" lon="6.190041">
		<ele>227</ele>
		<time>2011-09-11T09:05:01.869Z</time>
		<geoidheight>181</geoidheight>
	</trkpt>
	<trkpt lat="50.725085" lon="6.190059">
		<ele>227</ele>
		<time>2011-09-11T09:05:02.867Z</time>
		<geoidheight>181</geoidheight>
	</trkpt>
	<trkpt lat="50.725072" lon="6.190073">
		<ele>227</ele>
		<time>2011-09-11T09:05:03.866Z</time>
		<geoidheight>181</geoidheight>
	</trkpt>
	<trkpt lat="50.725061" lon="6.190088">
		<ele>227</ele>
		<time>2011-09-11T09:05:04.868Z</time>
		<geoidheight>181</geoidheight>
	</trkpt>
	<trkpt lat="50.725046" lon="6.190098">
		<ele>227</ele>
		<time>2011-09-11T09:05:05.867Z</time>
		<geoidheight>181</geoidheight>
	</trkpt>
	<trkpt lat="50.725032" lon="6.190113">
		<ele>227</ele>
		<time>2011-09-11T09:05:06.865Z</time>
		<geoidheight>181</geoidheight>
	</trkpt>
	<trkpt lat="50.725011" lon="6.190127">
		<ele>227</ele>
		<time>2011-09-11T09:05:07.868Z</time>
		<geoidheight>181</geoidheight>
	</trkpt>
	<trkpt lat="50.724992" lon="6.190141">
		<ele>227</ele>
		<time>2011-09-11T09:05:08.869Z</time>
		<geoidheight>181</geoidheight>
	</trkpt>
	<trkpt lat="50.724976" lon="6.190163">
		<ele>227</ele>
		<time>2011-09-11T09:05:09.866Z</time>
		<geoidheight>181</geoidheight>
	</trkpt>
	<trkpt lat="50.724960" lon="6.190185">
		<ele>227</ele>
		<time>2011-09-11T09:05:10.866Z</time>
		<geoidheight>181</geoidheight>
	</trkpt>
	<trkpt lat="50.724943" lon="6.190198">
		<ele>227</ele>
		<time>2011-09-11T09:05:11.868Z</time>
		<geoidheight>181</geoidheight>
	</trkpt>
	<trkpt lat="50.724923" lon="6.190207">
		<ele>227</ele>
		<time>2011-09-11T09:05:12.865Z</time>
		<geoidheight>181</geoidheight>
	</trkpt>
	<trkpt lat="50.724905" lon="6.190221">
		<ele>227</ele>
		<time>2011-09-11T09:05:13.866Z</time>
		<geoidheight>181</geoidheight>
	</trkpt>
	<trkpt lat="50.724884" lon="6.190234">
		<ele>227</ele>
		<time>2011-09-11T09:05:14.867Z</time>
		<geoidheight>181</geoidheight>
	</trkpt>
	<trkpt lat="50.724863" lon="6.190252">
		<ele>227</ele>
		<time>2011-09-11T09:05:15.866Z</time>
		<geoidheight>181</geoidheight>
	</trkpt>
	<trkpt lat="50.724842" lon="6.190266">
		<ele>227</ele>
		<time>2011-09-11T09:05:16.866Z</time>
		<geoidheight>181</geoidheight>
	</trkpt>
	<trkpt lat="50.724825" lon="6.190281">
		<ele>227</ele>
		<time>2011-09-11T09:05:17.870Z</time>
		<geoidheight>181</geoidheight>
	</trkpt>
	<trkpt lat="50.724810" lon="6.190299">
		<ele>227</ele>
		<time>2011-09-11T09:05:18.867Z</time>
		<geoidheight>181</geoidheight>
	</trkpt>
	<trkpt lat="50.724793" lon="6.190311">
		<ele>227</ele>
		<time>2011-09-11T09:05:19.866Z</time>
		<geoidheight>181</geoidheight>
	</trkpt>
	<trkpt lat="50.724777" lon="6.190325">
		<ele>227</ele>
		<time>2011-09-11T09:05:20.868Z</time>
		<geoidheight>181</geoidheight>
	</trkpt>
	<trkpt lat="50.724760" lon="6.190335">
		<ele>227</ele>
		<time>2011-09-11T09:05:21.876Z</time>
		<geoidheight>181</geoidheight>
	</trkpt>
	<trkpt lat="50.724746" lon="6.190350">
		<ele>227</ele>
		<time>2011-09-11T09:05:22.866Z</time>
		<geoidheight>181</geoidheight>
	</trkpt>
	<trkpt lat="50.724733" lon="6.190365">
		<ele>227</ele>
		<time>2011-09-11T09:05:23.866Z</time>
		<geoidheight>181</geoidheight>
	</trkpt>
	<trkpt lat="50.724717" lon="6.190372">
		<ele>227</ele>
		<time>2011-09-11T09:05:24.867Z</time>
		<geoidheight>181</geoidheight>
	</trkpt>
	<trkpt lat="50.724701" lon="6.190378">
		<ele>227</ele>
		<time>2011-09-11T09:05:25.865Z</time>
		<geoidheight>181</geoidheight>
	</trkpt>
	<trkpt lat="50.724687" lon="6.190386">
		<ele>227</ele>
		<time>2011-09-11T09:05:26.866Z</time>
		<geoidheight>181</geoidheight>
	</trkpt>
	<trkpt lat="50.724671" lon="6.190403">
		<ele>227</ele>
		<time>2011-09-11T09:05:27.868Z</time>
		<geoidheight>181</geoidheight>
	</trkpt>
	<trkpt lat="50.724653" lon="6.190416">
		<ele>227</ele>
		<time>2011-09-11T09:05:28.866Z</time>
		<geoidheight>181</geoidheight>
	</trkpt>
	<trkpt lat="50.724637" lon="6.190432">
		<ele>227</ele>
		<time>2011-09-11T09:05:29.865Z</time>
		<geoidheight>181</geoidheight>
	</trkpt>
	<trkpt lat="50.724622" lon="6.190446">
		<ele>227</ele>
		<time>2011-09-11T09:05:30.868Z</time>
		<geoidheight>181</geoidheight>
	</trkpt>
	<trkpt lat="50.724610" lon="6.190460">
		<ele>227</ele>
		<time>2011-09-11T09:05:31.865Z</time>
		<geoidheight>181</geoidheight>
	</trkpt>
	<trkpt lat="50.724596" lon="6.190462">
		<ele>226</ele>
		<time>2011-09-11T09:05:32.867Z</time>
		<geoidheight>180</geoidheight>
	</trkpt>
	<trkpt lat="50.724581" lon="6.190464">
		<ele>226</ele>
		<time>2011-09-11T09:05:33.864Z</time>
		<geoidheight>180</geoidheight>
	</trkpt>
	<trkpt lat="50.724569" lon="6.190474">
		<ele>226</ele>
		<time>2011-09-11T09:05:34.866Z</time>
		<geoidheight>180</geoidheight>
	</trkpt>
	<trkpt lat="50.724561" lon="6.190489">
		<ele>226</ele>
		<time>2011-09-11T09:05:35.865Z</time>
		<geoidheight>180</geoidheight>
	</trkpt>
	<trkpt lat="50.724553" lon="6.190497">
		<ele>226</ele>
		<time>2011-09-11T09:05:36.866Z</time>
		<geoidheight>180</geoidheight>
	</trkpt>
	<trkpt lat="50.724547" lon="6.190507">
		<ele>226</ele>
		<time>2011-09-11T09:05:37.868Z</time>
		<geoidheight>180</geoidheight>
	</trkpt>
	<trkpt lat="50.724543" lon="6.190525">
		<ele>226</ele>
		<time>2011-09-11T09:05:38.867Z</time>
		<geoidheight>180</geoidheight>
	</trkpt>
	<trkpt lat="50.724538" lon="6.190543">
		<ele>226</ele>
		<time>2011-09-11T09:05:39.866Z</time>
		<geoidheight>180</geoidheight>
	</trkpt>
	<trkpt lat="50.724532" lon="6.190560">
		<ele>226</ele>
		<time>2011-09-11T09:05:40.868Z</time>
		<geoidheight>180</geoidheight>
	</trkpt>
	<trkpt lat="50.724529" lon="6.190575">
		<ele>226</ele>
		<time>2011-09-11T09:05:41.869Z</time>
		<geoidheight>180</geoidheight>
	</trkpt>
	<trkpt lat="50.724525" lon="6.190589">
		<ele>226</ele>
		<time>2011-09-11T09:05:42.866Z</time>
		<geoidheight>180</geoidheight>
	</trkpt>
	<trkpt lat="50.724523" lon="6.190603">
		<ele>226</ele>
		<time>2011-09-11T09:05:43.871Z</time>
		<geoidheight>180</geoidheight>
	</trkpt>
	<trkpt lat="50.724518" lon="6.190613">
		<ele>226</ele>
		<time>2011-09-11T09:05:44.866Z</time>
		<geoidheight>180</geoidheight>
	</trkpt>
	<trkpt lat="50.724511" lon="6.190621">
		<ele>226</ele>
		<time>2011-09-11T09:05:45.866Z</time>
		<geoidheight>180</geoidheight>
	</trkpt>
	<trkpt lat="50.724505" lon="6.190630">
		<ele>226</ele>
		<time>2011-09-11T09:05:46.879Z</time>
		<geoidheight>180</geoidheight>
	</trkpt>
	<trkpt lat="50.724505" lon="6.190630">
		<ele>226</ele>
		<time>2011-09-11T09:05:47.866Z</time>
		<geoidheight>180</geoidheight>
	</trkpt>
	<trkpt lat="50.724505" lon="6.190630">
		<ele>226</ele>
		<time>2011-09-11T09:05:52.876Z</time>
		<geoidheight>180</geoidheight>
	</trkpt>
	<trkpt lat="50.724539" lon="6.190683">
		<ele>226</ele>
		<time>2011-09-11T09:05:53.868Z</time>
		<geoidheight>180</geoidheight>
	</trkpt>
	<trkpt lat="50.724539" lon="6.190683">
		<ele>226</ele>
		<time>2011-09-11T09:05:57.866Z</time>
		<geoidheight>180</geoidheight>
	</trkpt>
	<trkpt lat="50.724567" lon="6.190745">
		<ele>226</ele>
		<time>2011-09-11T09:05:58.866Z</time>
		<geoidheight>180</geoidheight>
	</trkpt>
	<trkpt lat="50.724567" lon="6.190745">
		<ele>226</ele>
		<time>2011-09-11T09:06:01.866Z</time>
		<geoidheight>180</geoidheight>
	</trkpt>
	<trkpt lat="50.724602" lon="6.190814">
		<ele>226</ele>
		<time>2011-09-11T09:06:02.869Z</time>
		<geoidheight>180</geoidheight>
	</trkpt>
	<trkpt lat="50.724602" lon="6.190814">
		<ele>226</ele>
		<time>2011-09-11T09:06:04.868Z</time>
		<geoidheight>180</geoidheight>
	</trkpt>
	<trkpt lat="50.724642" lon="6.190863">
		<ele>226</ele>
		<time>2011-09-11T09:06:05.867Z</time>
		<geoidheight>180</geoidheight>
	</trkpt>
	<trkpt lat="50.724642" lon="6.190863">
		<ele>226</ele>
		<time>2011-09-11T09:06:08.867Z</time>
		<geoidheight>180</geoidheight>
	</trkpt>
	<trkpt lat="50.724681" lon="6.190905">
		<ele>226</ele>
		<time>2011-09-11T09:06:09.868Z</time>
		<geoidheight>180</geoidheight>
	</trkpt>
	<trkpt lat="50.724681" lon="6.190905">
		<ele>226</ele>
		<time>2011-09-11T09:06:14.866Z</time>
		<geoidheight>180</geoidheight>
	</trkpt>
	<trkpt lat="50.724714" lon="6.190963">
		<ele>226</ele>
		<time>2011-09-11T09:06:15.869Z</time>
		<geoidheight>180</geoidheight>
	</trkpt>
	<trkpt lat="50.724714" lon="6.190963">
		<ele>226</ele>
		<time>2011-09-11T09:06:33.867Z</time>
		<geoidheight>180</geoidheight>
	</trkpt>
	<trkpt lat="50.724722" lon="6.190948">
		<ele>226</ele>
		<time>2011-09-11T09:06:34.867Z</time>
		<geoidheight>180</geoidheight>
	</trkpt>
	<trkpt lat="50.724710" lon="6.190956">
		<ele>226</ele>
		<time>2011-09-11T09:06:35.868Z</time>
		<geoidheight>180</geoidheight>
	</trkpt>
	<trkpt lat="50.724697" lon="6.190965">
		<ele>226</ele>
		<time>2011-09-11T09:06:36.869Z</time>
		<geoidheight>180</geoidheight>
	</trkpt>
	<trkpt lat="50.724684" lon="6.190975">
		<ele>226</ele>
		<time>2011-09-11T09:06:37.866Z</time>
		<geoidheight>180</geoidheight>
	</trkpt>
	<trkpt lat="50.724669" lon="6.190984">
		<ele>227</ele>
		<time>2011-09-11T09:06:38.869Z</time>
		<geoidheight>181</geoidheight>
	</trkpt>
	<trkpt lat="50.724653" lon="6.190990">
		<ele>227</ele>
		<time>2011-09-11T09:06:39.868Z</time>
		<geoidheight>181</geoidheight>
	</trkpt>
	<trkpt lat="50.724637" lon="6.190997">
		<ele>227</ele>
		<time>2011-09-11T09:06:40.867Z</time>
		<geoidheight>181</geoidheight>
	</trkpt>
	<trkpt lat="50.724621" lon="6.191001">
		<ele>227</ele>
		<time>2011-09-11T09:06:41.869Z</time>
		<geoidheight>181</geoidheight>
	</trkpt>
	<trkpt lat="50.724606" lon="6.191003">
		<ele>227</ele>
		<time>2011-09-11T09:06:42.872Z</time>
		<geoidheight>181</geoidheight>
	</trkpt>
	<trkpt lat="50.724590" lon="6.191005">
		<ele>227</ele>
		<time>2011-09-11T09:06:43.875Z</time>
		<geoidheight>181</geoidheight>
	</trkpt>
	<trkpt lat="50.724574" lon="6.191009">
		<ele>227</ele>
		<time>2011-09-11T09:06:44.878Z</time>
		<geoidheight>181</geoidheight>
	</trkpt>
	<trkpt lat="50.724560" lon="6.191014">
		<ele>227</ele>
		<time>2011-09-11T09:06:45.868Z</time>
		<geoidheight>181</geoidheight>
	</trkpt>
	<trkpt lat="50.724546" lon="6.191019">
		<ele>227</ele>
		<time>2011-09-11T09:06:46.868Z</time>
		<geoidheight>181</geoidheight>
	</trkpt>
	<trkpt lat="50.724533" lon="6.191023">
		<ele>228</ele>
		<time>2011-09-11T09:06:47.867Z</time>
		<geoidheight>182</geoidheight>
	</trkpt>
	<trkpt lat="50.724520" lon="6.191027">
		<ele>228</ele>
		<time>2011-09-11T09:06:48.870Z</time>
		<geoidheight>182</geoidheight>
	</trkpt>
	<trkpt lat="50.724504" lon="6.191030">
		<ele>228</ele>
		<time>2011-09-11T09:06:49.868Z</time>
		<geoidheight>182</geoidheight>
	</trkpt>
	<trkpt lat="50.724486" lon="6.191038">
		<ele>228</ele>
		<time>2011-09-11T09:06:50.870Z</time>
		<geoidheight>182</geoidheight>
	</trkpt>
	<trkpt lat="50.724467" lon="6.191042">
		<ele>228</ele>
		<time>2011-09-11T09:06:51.869Z</time>
		<geoidheight>182</geoidheight>
	</trkpt>
	<trkpt lat="50.724449" lon="6.191050">
		<ele>228</ele>
		<time>2011-09-11T09:06:52.868Z</time>
		<geoidheight>182</geoidheight>
	</trkpt>
	<trkpt lat="50.724433" lon="6.191060">
		<ele>228</ele>
		<time>2011-09-11T09:06:53.868Z</time>
		<geoidheight>182</geoidheight>
	</trkpt>
	<trkpt lat="50.724419" lon="6.191071">
		<ele>228</ele>
		<time>2011-09-11T09:06:54.869Z</time>
		<geoidheight>182</geoidheight>
	</trkpt>
	<trkpt lat="50.724406" lon="6.191078">
		<ele>229</ele>
		<time>2011-09-11T09:06:55.866Z</time>
		<geoidheight>183</geoidheight>
	</trkpt>
	<trkpt lat="50.724394" lon="6.191084">
		<ele>229</ele>
		<time>2011-09-11T09:06:56.868Z</time>
		<geoidheight>183</geoidheight>
	</trkpt>
	<trkpt lat="50.724383" lon="6.191091">
		<ele>229</ele>
		<time>2011-09-11T09:06:57.869Z</time>
		<geoidheight>183</geoidheight>
	</trkpt>
	<trkpt lat="50.724370" lon="6.191098">
		<ele>229</ele>
		<time>2011-09-11T09:06:58.869Z</time>
		<geoidheight>183</geoidheight>
	</trkpt>
	<trkpt lat="50.724359" lon="6.191107">
		<ele>229</ele>
		<time>2011-09-11T09:06:59.868Z</time>
		<geoidheight>183</geoidheight>
	</trkpt>
	<trkpt lat="50.724350" lon="6.191117">
		<ele>229</ele>
		<time>2011-09-11T09:07:00.871Z</time>
		<geoidheight>183</geoidheight>
	</trkpt>
	<trkpt lat="50.724340" lon="6.191121">
		<ele>229</ele>
		<time>2011-09-11T09:07:01.871Z</time>
		<geoidheight>183</geoidheight>
	</trkpt>
	<trkpt lat="50.724329" lon="6.191127">
		<ele>230</ele>
		<time>2011-09-11T09:07:02.868Z</time>
		<geoidheight>184</geoidheight>
	</trkpt>
	<trkpt lat="50.724315" lon="6.191134">
		<ele>230</ele>
		<time>2011-09-11T09:07:03.868Z</time>
		<geoidheight>184</geoidheight>
	</trkpt>
	<trkpt lat="50.724302" lon="6.191147">
		<ele>230</ele>
		<time>2011-09-11T09:07:04.870Z</time>
		<geoidheight>184</geoidheight>
	</trkpt>
	<trkpt lat="50.724289" lon="6.191163">
		<ele>230</ele>
		<time>2011-09-11T09:07:05.868Z</time>
		<geoidheight>184</geoidheight>
	</trkpt>
	<trkpt lat="50.724274" lon="6.191173">
		<ele>230</ele>
		<time>2011-09-11T09:07:06.870Z</time>
		<geoidheight>184</geoidheight>
	</trkpt>
	<trkpt lat="50.724260" lon="6.191181">
		<ele>230</ele>
		<time>2011-09-11T09:07:07.870Z</time>
		<geoidheight>184</geoidheight>
	</trkpt>
	<trkpt lat="50.724246" lon="6.191192">
		<ele>230</ele>
		<time>2011-09-11T09:07:08.868Z</time>
		<geoidheight>184</geoidheight>
	</trkpt>
	<trkpt lat="50.724231" lon="6.191201">
		<ele>231</ele>
		<time>2011-09-11T09:07:09.868Z</time>
		<geoidheight>185</geoidheight>
	</trkpt>
	<trkpt lat="50.724215" lon="6.191211">
		<ele>231</ele>
		<time>2011-09-11T09:07:10.869Z</time>
		<geoidheight>185</geoidheight>
	</trkpt>
	<trkpt lat="50.724197" lon="6.191217">
		<ele>231</ele>
		<time>2011-09-11T09:07:11.869Z</time>
		<geoidheight>185</geoidheight>
	</trkpt>
	<trkpt lat="50.724176" lon="6.191220">
		<ele>231</ele>
		<time>2011-09-11T09:07:12.867Z</time>
		<geoidheight>185</geoidheight>
	</trkpt>
	<trkpt lat="50.724156" lon="6.191226">
		<ele>231</ele>
		<time>2011-09-11T09:07:13.870Z</time>
		<geoidheight>185</geoidheight>
	</trkpt>
	<trkpt lat="50.724137" lon="6.191229">
		<ele>231</ele>
		<time>2011-09-11T09:07:14.869Z</time>
		<geoidheight>185</geoidheight>
	</trkpt>
	<trkpt lat="50.724124" lon="6.191237">
		<ele>231</ele>
		<time>2011-09-11T09:07:15.868Z</time>
		<geoidheight>185</geoidheight>
	</trkpt>
	<trkpt lat="50.724111" lon="6.191245">
		<ele>231</ele>
		<time>2011-09-11T09:07:16.868Z</time>
		<geoidheight>185</geoidheight>
	</trkpt>
	<trkpt lat="50.724096" lon="6.191251">
		<ele>231</ele>
		<time>2011-09-11T09:07:17.870Z</time>
		<geoidheight>185</geoidheight>
	</trkpt>
	<trkpt lat="50.724082" lon="6.191260">
		<ele>231</ele>
		<time>2011-09-11T09:07:18.869Z</time>
		<geoidheight>185</geoidheight>
	</trkpt>
	<trkpt lat="50.724066" lon="6.191269">
		<ele>232</ele>
		<time>2011-09-11T09:07:19.865Z</time>
		<geoidheight>186</geoidheight>
	</trkpt>
	<trkpt lat="50.724052" lon="6.191277">
		<ele>232</ele>
		<time>2011-09-11T09:07:20.870Z</time>
		<geoidheight>186</geoidheight>
	</trkpt>
	<trkpt lat="50.724037" lon="6.191288">
		<ele>232</ele>
		<time>2011-09-11T09:07:21.870Z</time>
		<geoidheight>186</geoidheight>
	</trkpt>
	<trkpt lat="50.724022" lon="6.191295">
		<ele>232</ele>
		<time>2011-09-11T09:07:22.870Z</time>
		<geoidheight>186</geoidheight>
	</trkpt>
	<trkpt lat="50.724008" lon="6.191302">
		<ele>232</ele>
		<time>2011-09-11T09:07:23.875Z</time>
		<geoidheight>186</geoidheight>
	</trkpt>
	<trkpt lat="50.723990" lon="6.191309">
		<ele>232</ele>
		<time>2011-09-11T09:07:24.872Z</time>
		<geoidheight>186</geoidheight>
	</trkpt>
	<trkpt lat="50.723970" lon="6.191315">
		<ele>232</ele>
		<time>2011-09-11T09:07:25.881Z</time>
		<geoidheight>186</geoidheight>
	</trkpt>
	<trkpt lat="50.723952" lon="6.191325">
		<ele>232</ele>
		<time>2011-09-11T09:07:26.873Z</time>
		<geoidheight>186</geoidheight>
	</trkpt>
	<trkpt lat="50.723935" lon="6.191334">
		<ele>232</ele>
		<time>2011-09-11T09:07:27.872Z</time>
		<geoidheight>186</geoidheight>
	</trkpt>
	<trkpt lat="50.723918" lon="6.191344">
		<ele>232</ele>
		<time>2011-09-11T09:07:28.870Z</time>
		<geoidheight>186</geoidheight>
	</trkpt>
	<trkpt lat="50.723901" lon="6.191353">
		<ele>232</ele>
		<time>2011-09-11T09:07:29.873Z</time>
		<geoidheight>186</geoidheight>
	</trkpt>
	<trkpt lat="50.723884" lon="6.191364">
		<ele>232</ele>
		<time>2011-09-11T09:07:30.870Z</time>
		<geoidheight>186</geoidheight>
	</trkpt>
	<trkpt lat="50.723867" lon="6.191371">
		<ele>232</ele>
		<time>2011-09-11T09:07:31.870Z</time>
		<geoidheight>186</geoidheight>
	</trkpt>
	<trkpt lat="50.723854" lon="6.191386">
		<ele>232</ele>
		<time>2011-09-11T09:07:32.869Z</time>
		<geoidheight>186</geoidheight>
	</trkpt>
	<trkpt lat="50.723840" lon="6.191397">
		<ele>232</ele>
		<time>2011-09-11T09:07:33.873Z</time>
		<geoidheight>186</geoidheight>
	</trkpt>
	<trkpt lat="50.723826" lon="6.191407">
		<ele>232</ele>
		<time>2011-09-11T09:07:34.878Z</time>
		<geoidheight>186</geoidheight>
	</trkpt>
	<trkpt lat="50.723813" lon="6.191413">
		<ele>232</ele>
		<time>2011-09-11T09:07:35.871Z</time>
		<geoidheight>186</geoidheight>
	</trkpt>
	<trkpt lat="50.723799" lon="6.191415">
		<ele>232</ele>
		<time>2011-09-11T09:07:36.872Z</time>
		<geoidheight>186</geoidheight>
	</trkpt>
	<trkpt lat="50.723786" lon="6.191421">
		<ele>232</ele>
		<time>2011-09-11T09:07:37.874Z</time>
		<geoidheight>186</geoidheight>
	</trkpt>
	<trkpt lat="50.723773" lon="6.191426">
		<ele>232</ele>
		<time>2011-09-11T09:07:38.876Z</time>
		<geoidheight>186</geoidheight>
	</trkpt>
	<trkpt lat="50.723760" lon="6.191432">
		<ele>232</ele>
		<time>2011-09-11T09:07:39.871Z</time>
		<geoidheight>186</geoidheight>
	</trkpt>
	<trkpt lat="50.723746" lon="6.191437">
		<ele>232</ele>
		<time>2011-09-11T09:07:40.875Z</time>
		<geoidheight>186</geoidheight>
	</trkpt>
	<trkpt lat="50.723734" lon="6.191445">
		<ele>232</ele>
		<time>2011-09-11T09:07:41.869Z</time>
		<geoidheight>186</geoidheight>
	</trkpt>
	<trkpt lat="50.723721" lon="6.191455">
		<ele>232</ele>
		<time>2011-09-11T09:07:42.874Z</time>
		<geoidheight>186</geoidheight>
	</trkpt>
	<trkpt lat="50.723709" lon="6.191464">
		<ele>232</ele>
		<time>2011-09-11T09:07:43.870Z</time>
		<geoidheight>186</geoidheight>
	</trkpt>
	<trkpt lat="50.723694" lon="6.191473">
		<ele>233</ele>
		<time>2011-09-11T09:07:44.874Z</time>
		<geoidheight>187</geoidheight>
	</trkpt>
	<trkpt lat="50.723680" lon="6.191480">
		<ele>233</ele>
		<time>2011-09-11T09:07:45.868Z</time>
		<geoidheight>187</geoidheight>
	</trkpt>
	<trkpt lat="50.723665" lon="6.191486">
		<ele>233</ele>
		<time>2011-09-11T09:07:46.871Z</time>
		<geoidheight>187</geoidheight>
	</trkpt>
	<trkpt lat="50.723651" lon="6.191489">
		<ele>233</ele>
		<time>2011-09-11T09:07:47.867Z</time>
		<geoidheight>187</geoidheight>
	</trkpt>
	<trkpt lat="50.723637" lon="6.191495">
		<ele>233</ele>
		<time>2011-09-11T09:07:48.871Z</time>
		<geoidheight>187</geoidheight>
	</trkpt>
	<trkpt lat="50.723623" lon="6.191501">
		<ele>233</ele>
		<time>2011-09-11T09:07:49.878Z</time>
		<geoidheight>187</geoidheight>
	</trkpt>
	<trkpt lat="50.723609" lon="6.191507">
		<ele>233</ele>
		<time>2011-09-11T09:07:50.868Z</time>
		<geoidheight>187</geoidheight>
	</trkpt>
	<trkpt lat="50.723595" lon="6.191510">
		<ele>233</ele>
		<time>2011-09-11T09:07:51.868Z</time>
		<geoidheight>187</geoidheight>
	</trkpt>
	<trkpt lat="50.723580" lon="6.191516">
		<ele>233</ele>
		<time>2011-09-11T09:07:52.869Z</time>
		<geoidheight>187</geoidheight>
	</trkpt>
	<trkpt lat="50.723567" lon="6.191526">
		<ele>233</ele>
		<time>2011-09-11T09:07:53.869Z</time>
		<geoidheight>187</geoidheight>
	</trkpt>
	<trkpt lat="50.723554" lon="6.191535">
		<ele>233</ele>
		<time>2011-09-11T09:07:54.874Z</time>
		<geoidheight>187</geoidheight>
	</trkpt>
	<trkpt lat="50.723539" lon="6.191538">
		<ele>233</ele>
		<time>2011-09-11T09:07:55.868Z</time>
		<geoidheight>187</geoidheight>
	</trkpt>
	<trkpt lat="50.723527" lon="6.191546">
		<ele>233</ele>
		<time>2011-09-11T09:07:56.869Z</time>
		<geoidheight>187</geoidheight>
	</trkpt>
	<trkpt lat="50.723515" lon="6.191553">
		<ele>233</ele>
		<time>2011-09-11T09:07:57.870Z</time>
		<geoidheight>187</geoidheight>
	</trkpt>
	<trkpt lat="50.723503" lon="6.191559">
		<ele>233</ele>
		<time>2011-09-11T09:07:58.873Z</time>
		<geoidheight>187</geoidheight>
	</trkpt>
	<trkpt lat="50.723491" lon="6.191564">
		<ele>233</ele>
		<time>2011-09-11T09:07:59.872Z</time>
		<geoidheight>187</geoidheight>
	</trkpt>
	<trkpt lat="50.723477" lon="6.191568">
		<ele>233</ele>
		<time>2011-09-11T09:08:00.875Z</time>
		<geoidheight>187</geoidheight>
	</trkpt>
	<trkpt lat="50.723464" lon="6.191574">
		<ele>233</ele>
		<time>2011-09-11T09:08:01.877Z</time>
		<geoidheight>187</geoidheight>
	</trkpt>
	<trkpt lat="50.723452" lon="6.191578">
		<ele>233</ele>
		<time>2011-09-11T09:08:02.870Z</time>
		<geoidheight>187</geoidheight>
	</trkpt>
	<trkpt lat="50.723440" lon="6.191580">
		<ele>233</ele>
		<time>2011-09-11T09:08:03.869Z</time>
		<geoidheight>187</geoidheight>
	</trkpt>
	<trkpt lat="50.723430" lon="6.191583">
		<ele>233</ele>
		<time>2011-09-11T09:08:04.873Z</time>
		<geoidheight>187</geoidheight>
	</trkpt>
	<trkpt lat="50.723418" lon="6.191585">
		<ele>233</ele>
		<time>2011-09-11T09:08:05.870Z</time>
		<geoidheight>187</geoidheight>
	</trkpt>
	<trkpt lat="50.723408" lon="6.191584">
		<ele>233</ele>
		<time>2011-09-11T09:08:06.872Z</time>
		<geoidheight>187</geoidheight>
	</trkpt>
	<trkpt lat="50.723398" lon="6.191583">
		<ele>233</ele>
		<time>2011-09-11T09:08:07.868Z</time>
		<geoidheight>187</geoidheight>
	</trkpt>
	<trkpt lat="50.723387" lon="6.191586">
		<ele>233</ele>
		<time>2011-09-11T09:08:08.877Z</time>
		<geoidheight>187</geoidheight>
	</trkpt>
	<trkpt lat="50.723376" lon="6.191588">
		<ele>233</ele>
		<time>2011-09-11T09:08:09.871Z</time>
		<geoidheight>187</geoidheight>
	</trkpt>
	<trkpt lat="50.723364" lon="6.191592">
		<ele>233</ele>
		<time>2011-09-11T09:08:10.870Z</time>
		<geoidheight>187</geoidheight>
	</trkpt>
	<trkpt lat="50.723351" lon="6.191599">
		<ele>233</ele>
		<time>2011-09-11T09:08:11.871Z</time>
		<geoidheight>187</geoidheight>
	</trkpt>
	<trkpt lat="50.723338" lon="6.191604">
		<ele>233</ele>
		<time>2011-09-11T09:08:12.869Z</time>
		<geoidheight>187</geoidheight>
	</trkpt>
	<trkpt lat="50.723325" lon="6.191611">
		<ele>233</ele>
		<time>2011-09-11T09:08:13.868Z</time>
		<geoidheight>187</geoidheight>
	</trkpt>
	<trkpt lat="50.723312" lon="6.191619">
		<ele>233</ele>
		<time>2011-09-11T09:08:14.870Z</time>
		<geoidheight>187</geoidheight>
	</trkpt>
	<trkpt lat="50.723298" lon="6.191627">
		<ele>233</ele>
		<time>2011-09-11T09:08:15.871Z</time>
		<geoidheight>187</geoidheight>
	</trkpt>
	<trkpt lat="50.723285" lon="6.191635">
		<ele>233</ele>
		<time>2011-09-11T09:08:16.868Z</time>
		<geoidheight>187</geoidheight>
	</trkpt>
	<trkpt lat="50.723272" lon="6.191638">
		<ele>233</ele>
		<time>2011-09-11T09:08:17.877Z</time>
		<geoidheight>187</geoidheight>
	</trkpt>
	<trkpt lat="50.723259" lon="6.191640">
		<ele>233</ele>
		<time>2011-09-11T09:08:18.878Z</time>
		<geoidheight>187</geoidheight>
	</trkpt>
	<trkpt lat="50.723248" lon="6.191646">
		<ele>233</ele>
		<time>2011-09-11T09:08:19.875Z</time>
		<geoidheight>187</geoidheight>
	</trkpt>
	<trkpt lat="50.723237" lon="6.191649">
		<ele>233</ele>
		<time>2011-09-11T09:08:20.868Z</time>
		<geoidheight>187</geoidheight>
	</trkpt>
	<trkpt lat="50.723226" lon="6.191652">
		<ele>233</ele>
		<time>2011-09-11T09:08:21.872Z</time>
		<geoidheight>187</geoidheight>
	</trkpt>
	<trkpt lat="50.723215" lon="6.191660">
		<ele>233</ele>
		<time>2011-09-11T09:08:22.869Z</time>
		<geoidheight>187</geoidheight>
	</trkpt>
	<trkpt lat="50.723202" lon="6.191668">
		<ele>233</ele>
		<time>2011-09-11T09:08:23.874Z</time>
		<geoidheight>187</geoidheight>
	</trkpt>
	<trkpt lat="50.723189" lon="6.191675">
		<ele>233</ele>
		<time>2011-09-11T09:08:24.868Z</time>
		<geoidheight>187</geoidheight>
	</trkpt>
	<trkpt lat="50.723175" lon="6.191674">
		<ele>233</ele>
		<time>2011-09-11T09:08:25.870Z</time>
		<geoidheight>187</geoidheight>
	</trkpt>
	<trkpt lat="50.723164" lon="6.191675">
		<ele>233</ele>
		<time>2011-09-11T09:08:26.873Z</time>
		<geoidheight>187</geoidheight>
	</trkpt>
	<trkpt lat="50.723153" lon="6.191677">
		<ele>233</ele>
		<time>2011-09-11T09:08:27.874Z</time>
		<geoidheight>187</geoidheight>
	</trkpt>
	<trkpt lat="50.723142" lon="6.191679">
		<ele>233</ele>
		<time>2011-09-11T09:08:28.874Z</time>
		<geoidheight>187</geoidheight>
	</trkpt>
	<trkpt lat="50.723131" lon="6.191682">
		<ele>233</ele>
		<time>2011-09-11T09:08:29.870Z</time>
		<geoidheight>187</geoidheight>
	</trkpt>
	<trkpt lat="50.723120" lon="6.191685">
		<ele>233</ele>
		<time>2011-09-11T09:08:30.868Z</time>
		<geoidheight>187</geoidheight>
	</trkpt>
	<trkpt lat="50.723109" lon="6.191690">
		<ele>233</ele>
		<time>2011-09-11T09:08:31.871Z</time>
		<geoidheight>187</geoidheight>
	</trkpt>
	<trkpt lat="50.723098" lon="6.191691">
		<ele>233</ele>
		<time>2011-09-11T09:08:32.869Z</time>
		<geoidheight>187</geoidheight>
	</trkpt>
	<trkpt lat="50.723087" lon="6.191688">
		<ele>233</ele>
		<time>2011-09-11T09:08:33.868Z</time>
		<geoidheight>187</geoidheight>
	</trkpt>
	<trkpt lat="50.723074" lon="6.191690">
		<ele>233</ele>
		<time>2011-09-11T09:08:34.869Z</time>
		<geoidheight>187</geoidheight>
	</trkpt>
	<trkpt lat="50.723061" lon="6.191695">
		<ele>233</ele>
		<time>2011-09-11T09:08:35.869Z</time>
		<geoidheight>187</geoidheight>
	</trkpt>
	<trkpt lat="50.723048" lon="6.191699">
		<ele>233</ele>
		<time>2011-09-11T09:08:36.868Z</time>
		<geoidheight>187</geoidheight>
	</trkpt>
	<trkpt lat="50.723035" lon="6.191700">
		<ele>233</ele>
		<time>2011-09-11T09:08:37.868Z</time>
		<geoidheight>187</geoidheight>
	</trkpt>
	<trkpt lat="50.723022" lon="6.191705">
		<ele>233</ele>
		<time>2011-09-11T09:08:38.873Z</time>
		<geoidheight>187</geoidheight>
	</trkpt>
	<trkpt lat="50.723009" lon="6.191709">
		<ele>233</ele>
		<time>2011-09-11T09:08:39.869Z</time>
		<geoidheight>187</geoidheight>
	</trkpt>
	<trkpt lat="50.722996" lon="6.191711">
		<ele>233</ele>
		<time>2011-09-11T09:08:40.868Z</time>
		<geoidheight>187</geoidheight>
	</trkpt>
	<trkpt lat="50.722984" lon="6.191715">
		<ele>233</ele>
		<time>2011-09-11T09:08:41.870Z</time>
		<geoidheight>187</geoidheight>
	</trkpt>
	<trkpt lat="50.722972" lon="6.191716">
		<ele>233</ele>
		<time>2011-09-11T09:08:42.867Z</time>
		<geoidheight>187</geoidheight>
	</trkpt>
	<trkpt lat="50.722961" lon="6.191710">
		<ele>233</ele>
		<time>2011-09-11T09:08:43.868Z</time>
		<geoidheight>187</geoidheight>
	</trkpt>
	<trkpt lat="50.722949" lon="6.191708">
		<ele>233</ele>
		<time>2011-09-11T09:08:44.871Z</time>
		<geoidheight>187</geoidheight>
	</trkpt>
	<trkpt lat="50.722938" lon="6.191710">
		<ele>233</ele>
		<time>2011-09-11T09:08:45.868Z</time>
		<geoidheight>187</geoidheight>
	</trkpt>
	<trkpt lat="50.722926" lon="6.191713">
		<ele>233</ele>
		<time>2011-09-11T09:08:46.867Z</time>
		<geoidheight>187</geoidheight>
	</trkpt>
	<trkpt lat="50.722914" lon="6.191716">
		<ele>233</ele>
		<time>2011-09-11T09:08:47.869Z</time>
		<geoidheight>187</geoidheight>
	</trkpt>
	<trkpt lat="50.722902" lon="6.191721">
		<ele>233</ele>
		<time>2011-09-11T09:08:48.867Z</time>
		<geoidheight>187</geoidheight>
	</trkpt>
	<trkpt lat="50.722889" lon="6.191728">
		<ele>233</ele>
		<time>2011-09-11T09:08:49.877Z</time>
		<geoidheight>187</geoidheight>
	</trkpt>
	<trkpt lat="50.722876" lon="6.191736">
		<ele>233</ele>
		<time>2011-09-11T09:08:50.867Z</time>
		<geoidheight>187</geoidheight>
	</trkpt>
	<trkpt lat="50.722862" lon="6.191742">
		<ele>234</ele>
		<time>2011-09-11T09:08:51.867Z</time>
		<geoidheight>188</geoidheight>
	</trkpt>
	<trkpt lat="50.722849" lon="6.191748">
		<ele>234</ele>
		<time>2011-09-11T09:08:52.869Z</time>
		<geoidheight>188</geoidheight>
	</trkpt>
	<trkpt lat="50.722835" lon="6.191756">
		<ele>234</ele>
		<time>2011-09-11T09:08:53.869Z</time>
		<geoidheight>188</geoidheight>
	</trkpt>
	<trkpt lat="50.722820" lon="6.191764">
		<ele>234</ele>
		<time>2011-09-11T09:08:54.870Z</time>
		<geoidheight>188</geoidheight>
	</trkpt>
	<trkpt lat="50.722805" lon="6.191769">
		<ele>234</ele>
		<time>2011-09-11T09:08:55.870Z</time>
		<geoidheight>188</geoidheight>
	</trkpt>
	<trkpt lat="50.722790" lon="6.191778">
		<ele>234</ele>
		<time>2011-09-11T09:08:56.867Z</time>
		<geoidheight>188</geoidheight>
	</trkpt>
	<trkpt lat="50.722776" lon="6.191793">
		<ele>234</ele>
		<time>2011-09-11T09:08:57.869Z</time>
		<geoidheight>188</geoidheight>
	</trkpt>
	<trkpt lat="50.722764" lon="6.191807">
		<ele>234</ele>
		<time>2011-09-11T09:08:58.868Z</time>
		<geoidheight>188</geoidheight>
	</trkpt>
	<trkpt lat="50.722753" lon="6.191820">
		<ele>234</ele>
		<time>2011-09-11T09:08:59.868Z</time>
		<geoidheight>188</geoidheight>
	</trkpt>
	<trkpt lat="50.722741" lon="6.191833">
		<ele>234</ele>
		<time>2011-09-11T09:09:00.869Z</time>
		<geoidheight>188</geoidheight>
	</trkpt>
	<trkpt lat="50.722730" lon="6.191846">
		<ele>234</ele>
		<time>2011-09-11T09:09:01.868Z</time>
		<geoidheight>188</geoidheight>
	</trkpt>
	<trkpt lat="50.722718" lon="6.191858">
		<ele>234</ele>
		<time>2011-09-11T09:09:02.870Z</time>
		<geoidheight>188</geoidheight>
	</trkpt>
	<trkpt lat="50.722708" lon="6.191871">
		<ele>234</ele>
		<time>2011-09-11T09:09:03.877Z</time>
		<geoidheight>188</geoidheight>
	</trkpt>
	<trkpt lat="50.722698" lon="6.191884">
		<ele>234</ele>
		<time>2011-09-11T09:09:04.876Z</time>
		<geoidheight>188</geoidheight>
	</trkpt>
	<trkpt lat="50.722687" lon="6.191900">
		<ele>234</ele>
		<time>2011-09-11T09:09:05.874Z</time>
		<geoidheight>188</geoidheight>
	</trkpt>
	<trkpt lat="50.722676" lon="6.191913">
		<ele>234</ele>
		<time>2011-09-11T09:09:06.873Z</time>
		<geoidheight>188</geoidheight>
	</trkpt>
	<trkpt lat="50.722665" lon="6.191927">
		<ele>234</ele>
		<time>2011-09-11T09:09:07.870Z</time>
		<geoidheight>188</geoidheight>
	</trkpt>
	<trkpt lat="50.722656" lon="6.191940">
		<ele>234</ele>
		<time>2011-09-11T09:09:08.874Z</time>
		<geoidheight>188</geoidheight>
	</trkpt>
	<trkpt lat="50.722644" lon="6.191949">
		<ele>234</ele>
		<time>2011-09-11T09:09:09.870Z</time>
		<geoidheight>188</geoidheight>
	</trkpt>
	<trkpt lat="50.722633" lon="6.191960">
		<ele>234</ele>
		<time>2011-09-11T09:09:10.870Z</time>
		<geoidheight>188</geoidheight>
	</trkpt>
	<trkpt lat="50.722622" lon="6.191972">
		<ele>234</ele>
		<time>2011-09-11T09:09:11.868Z</time>
		<geoidheight>188</geoidheight>
	</trkpt>
	<trkpt lat="50.722613" lon="6.191985">
		<ele>234</ele>
		<time>2011-09-11T09:09:12.871Z</time>
		<geoidheight>188</geoidheight>
	</trkpt>
	<trkpt lat="50.722603" lon="6.191997">
		<ele>234</ele>
		<time>2011-09-11T09:09:13.871Z</time>
		<geoidheight>188</geoidheight>
	</trkpt>
	<trkpt lat="50.722595" lon="6.192007">
		<ele>234</ele>
		<time>2011-09-11T09:09:14.869Z</time>
		<geoidheight>188</geoidheight>
	</trkpt>
	<trkpt lat="50.722586" lon="6.192018">
		<ele>234</ele>
		<time>2011-09-11T09:09:15.868Z</time>
		<geoidheight>188</geoidheight>
	</trkpt>
	<trkpt lat="50.722576" lon="6.192032">
		<ele>234</ele>
		<time>2011-09-11T09:09:16.871Z</time>
		<geoidheight>188</geoidheight>
	</trkpt>
	<trkpt lat="50.722568" lon="6.192049">
		<ele>234</ele>
		<time>2011-09-11T09:09:17.868Z</time>
		<geoidheight>188</geoidheight>
	</trkpt>
	<trkpt lat="50.722560" lon="6.192065">
		<ele>234</ele>
		<time>2011-09-11T09:09:18.870Z</time>
		<geoidheight>188</geoidheight>
	</trkpt>
	<trkpt lat="50.722551" lon="6.192078">
		<ele>234</ele>
		<time>2011-09-11T09:09:19.868Z</time>
		<geoidheight>188</geoidheight>
	</trkpt>
	<trkpt lat="50.722544" lon="6.192095">
		<ele>234</ele>
		<time>2011-09-11T09:09:20.870Z</time>
		<geoidheight>188</geoidheight>
	</trkpt>
	<trkpt lat="50.722535" lon="6.192106">
		<ele>234</ele>
		<time>2011-09-11T09:09:21.867Z</time>
		<geoidheight>188</geoidheight>
	</trkpt>
	<trkpt lat="50.722524" lon="6.192113">
		<ele>234</ele>
		<time>2011-09-11T09:09:22.869Z</time>
		<geoidheight>188</geoidheight>
	</trkpt>
	<trkpt lat="50.722515" lon="6.192122">
		<ele>234</ele>
		<time>2011-09-11T09:09:23.870Z</time>
		<geoidheight>188</geoidheight>
	</trkpt>
	<trkpt lat="50.722504" lon="6.192130">
		<ele>234</ele>
		<time>2011-09-11T09:09:24.868Z</time>
		<geoidheight>188</geoidheight>
	</trkpt>
	<trkpt lat="50.722495" lon="6.192137">
		<ele>234</ele>
		<time>2011-09-11T09:09:25.870Z</time>
		<geoidheight>188</geoidheight>
	</trkpt>
	<trkpt lat="50.722485" lon="6.192144">
		<ele>234</ele>
		<time>2011-09-11T09:09:26.875Z</time>
		<geoidheight>188</geoidheight>
	</trkpt>
	<trkpt lat="50.722480" lon="6.192152">
		<ele>234</ele>
		<time>2011-09-11T09:09:27.868Z</time>
		<geoidheight>188</geoidheight>
	</trkpt>
	<trkpt lat="50.722474" lon="6.192159">
		<ele>234</ele>
		<time>2011-09-11T09:09:28.869Z</time>
		<geoidheight>188</geoidheight>
	</trkpt>
	<trkpt lat="50.722468" lon="6.192168">
		<ele>234</ele>
		<time>2011-09-11T09:09:29.873Z</time>
		<geoidheight>188</geoidheight>
	</trkpt>
	<trkpt lat="50.722464" lon="6.192181">
		<ele>234</ele>
		<time>2011-09-11T09:09:30.870Z</time>
		<geoidheight>188</geoidheight>
	</trkpt>
	<trkpt lat="50.722458" lon="6.192196">
		<ele>234</ele>
		<time>2011-09-11T09:09:31.878Z</time>
		<geoidheight>188</geoidheight>
	</trkpt>
	<trkpt lat="50.722451" lon="6.192210">
		<ele>234</ele>
		<time>2011-09-11T09:09:32.869Z</time>
		<geoidheight>188</geoidheight>
	</trkpt>
	<trkpt lat="50.722444" lon="6.192225">
		<ele>234</ele>
		<time>2011-09-11T09:09:33.870Z</time>
		<geoidheight>188</geoidheight>
	</trkpt>
	<trkpt lat="50.722436" lon="6.192236">
		<ele>234</ele>
		<time>2011-09-11T09:09:34.869Z</time>
		<geoidheight>188</geoidheight>
	</trkpt>
	<trkpt lat="50.722426" lon="6.192247">
		<ele>234</ele>
		<time>2011-09-11T09:09:35.870Z</time>
		<geoidheight>188</geoidheight>
	</trkpt>
	<trkpt lat="50.722417" lon="6.192261">
		<ele>234</ele>
		<time>2011-09-11T09:09:36.870Z</time>
		<geoidheight>188</geoidheight>
	</trkpt>
	<trkpt lat="50.722407" lon="6.192274">
		<ele>235</ele>
		<time>2011-09-11T09:09:37.870Z</time>
		<geoidheight>189</geoidheight>
	</trkpt>
	<trkpt lat="50.722396" lon="6.192281">
		<ele>235</ele>
		<time>2011-09-11T09:09:38.869Z</time>
		<geoidheight>189</geoidheight>
	</trkpt>
	<trkpt lat="50.722386" lon="6.192292">
		<ele>235</ele>
		<time>2011-09-11T09:09:39.887Z</time>
		<geoidheight>189</geoidheight>
	</trkpt>
	<trkpt lat="50.722376" lon="6.192302">
		<ele>235</ele>
		<time>2011-09-11T09:09:40.887Z</time>
		<geoidheight>189</geoidheight>
	</trkpt>
	<trkpt lat="50.722367" lon="6.192311">
		<ele>235</ele>
		<time>2011-09-11T09:09:41.884Z</time>
		<geoidheight>189</geoidheight>
	</trkpt>
	<trkpt lat="50.722358" lon="6.192325">
		<ele>235</ele>
		<time>2011-09-11T09:09:42.881Z</time>
		<geoidheight>189</geoidheight>
	</trkpt>
	<trkpt lat="50.722349" lon="6.192339">
		<ele>235</ele>
		<time>2011-09-11T09:09:43.882Z</time>
		<geoidheight>189</geoidheight>
	</trkpt>
	<trkpt lat="50.722341" lon="6.192355">
		<ele>235</ele>
		<time>2011-09-11T09:09:44.870Z</time>
		<geoidheight>189</geoidheight>
	</trkpt>
	<trkpt lat="50.722331" lon="6.192368">
		<ele>235</ele>
		<time>2011-09-11T09:09:45.869Z</time>
		<geoidheight>189</geoidheight>
	</trkpt>
	<trkpt lat="50.722321" lon="6.192380">
		<ele>235</ele>
		<time>2011-09-11T09:09:46.879Z</time>
		<geoidheight>189</geoidheight>
	</trkpt>
	<trkpt lat="50.722312" lon="6.192393">
		<ele>235</ele>
		<time>2011-09-11T09:09:47.877Z</time>
		<geoidheight>189</geoidheight>
	</trkpt>
	<trkpt lat="50.722304" lon="6.192407">
		<ele>235</ele>
		<time>2011-09-11T09:09:48.870Z</time>
		<geoidheight>189</geoidheight>
	</trkpt>
	<trkpt lat="50.722296" lon="6.192423">
		<ele>235</ele>
		<time>2011-09-11T09:09:49.876Z</time>
		<geoidheight>189</geoidheight>
	</trkpt>
	<trkpt lat="50.722289" lon="6.192442">
		<ele>235</ele>
		<time>2011-09-11T09:09:50.870Z</time>
		<geoidheight>189</geoidheight>
	</trkpt>
	<trkpt lat="50.722281" lon="6.192458">
		<ele>235</ele>
		<time>2011-09-11T09:09:51.871Z</time>
		<geoidheight>189</geoidheight>
	</trkpt>
	<trkpt lat="50.722275" lon="6.192474">
		<ele>235</ele>
		<time>2011-09-11T09:09:52.871Z</time>
		<geoidheight>189</geoidheight>
	</trkpt>
	<trkpt lat="50.722270" lon="6.192493">
		<ele>235</ele>
		<time>2011-09-11T09:09:53.871Z</time>
		<geoidheight>189</geoidheight>
	</trkpt>
	<trkpt lat="50.722263" lon="6.192512">
		<ele>235</ele>
		<time>2011-09-11T09:09:54.870Z</time>
		<geoidheight>189</geoidheight>
	</trkpt>
	<trkpt lat="50.722256" lon="6.192529">
		<ele>236</ele>
		<time>2011-09-11T09:09:55.872Z</time>
		<geoidheight>190</geoidheight>
	</trkpt>
	<trkpt lat="50.722246" lon="6.192547">
		<ele>236</ele>
		<time>2011-09-11T09:09:56.869Z</time>
		<geoidheight>190</geoidheight>
	</trkpt>
	<trkpt lat="50.722237" lon="6.192565">
		<ele>236</ele>
		<time>2011-09-11T09:09:57.870Z</time>
		<geoidheight>190</geoidheight>
	</trkpt>
	<trkpt lat="50.722228" lon="6.192580">
		<ele>236</ele>
		<time>2011-09-11T09:09:58.872Z</time>
		<geoidheight>190</geoidheight>
	</trkpt>
	<trkpt lat="50.722221" lon="6.192597">
		<ele>236</ele>
		<time>2011-09-11T09:09:59.871Z</time>
		<geoidheight>190</geoidheight>
	</trkpt>
	<trkpt lat="50.722215" lon="6.192612">
		<ele>236</ele>
		<time>2011-09-11T09:10:00.869Z</time>
		<geoidheight>190</geoidheight>
	</trkpt>
	<trkpt lat="50.722207" lon="6.192626">
		<ele>236</ele>
		<time>2011-09-11T09:10:01.870Z</time>
		<geoidheight>190</geoidheight>
	</trkpt>
	<trkpt lat="50.722201" lon="6.192644">
		<ele>236</ele>
		<time>2011-09-11T09:10:02.872Z</time>
		<geoidheight>190</geoidheight>
	</trkpt>
	<trkpt lat="50.722196" lon="6.192662">
		<ele>236</ele>
		<time>2011-09-11T09:10:03.870Z</time>
		<geoidheight>190</geoidheight>
	</trkpt>
	<trkpt lat="50.722191" lon="6.192681">
		<ele>236</ele>
		<time>2011-09-11T09:10:04.876Z</time>
		<geoidheight>190</geoidheight>
	</trkpt>
	<trkpt lat="50.722184" lon="6.192699">
		<ele>236</ele>
		<time>2011-09-11T09:10:05.871Z</time>
		<geoidheight>190</geoidheight>
	</trkpt>
	<trkpt lat="50.722174" lon="6.192715">
		<ele>236</ele>
		<time>2011-09-11T09:10:06.871Z</time>
		<geoidheight>190</geoidheight>
	</trkpt>
	<trkpt lat="50.722166" lon="6.192732">
		<ele>236</ele>
		<time>2011-09-11T09:10:07.869Z</time>
		<geoidheight>190</geoidheight>
	</trkpt>
	<trkpt lat="50.722161" lon="6.192753">
		<ele>236</ele>
		<time>2011-09-11T09:10:08.872Z</time>
		<geoidheight>190</geoidheight>
	</trkpt>
	<trkpt lat="50.722153" lon="6.192770">
		<ele>236</ele>
		<time>2011-09-11T09:10:09.870Z</time>
		<geoidheight>190</geoidheight>
	</trkpt>
	<trkpt lat="50.722143" lon="6.192786">
		<ele>236</ele>
		<time>2011-09-11T09:10:10.874Z</time>
		<geoidheight>190</geoidheight>
	</trkpt>
	<trkpt lat="50.722133" lon="6.192800">
		<ele>237</ele>
		<time>2011-09-11T09:10:11.871Z</time>
		<geoidheight>191</geoidheight>
	</trkpt>
	<trkpt lat="50.722120" lon="6.192814">
		<ele>237</ele>
		<time>2011-09-11T09:10:12.870Z</time>
		<geoidheight>191</geoidheight>
	</trkpt>
	<trkpt lat="50.722107" lon="6.192830">
		<ele>237</ele>
		<time>2011-09-11T09:10:13.869Z</time>
		<geoidheight>191</geoidheight>
	</trkpt>
	<trkpt lat="50.722095" lon="6.192847">
		<ele>237</ele>
		<time>2011-09-11T09:10:14.870Z</time>
		<geoidheight>191</geoidheight>
	</trkpt>
	<trkpt lat="50.722082" lon="6.192862">
		<ele>237</ele>
		<time>2011-09-11T09:10:15.872Z</time>
		<geoidheight>191</geoidheight>
	</trkpt>
	<trkpt lat="50.722070" lon="6.192877">
		<ele>237</ele>
		<time>2011-09-11T09:10:16.885Z</time>
		<geoidheight>191</geoidheight>
	</trkpt>
	<trkpt lat="50.722057" lon="6.192894">
		<ele>237</ele>
		<time>2011-09-11T09:10:17.869Z</time>
		<geoidheight>191</geoidheight>
	</trkpt>
	<trkpt lat="50.722043" lon="6.192908">
		<ele>237</ele>
		<time>2011-09-11T09:10:18.871Z</time>
		<geoidheight>191</geoidheight>
	</trkpt>
	<trkpt lat="50.722029" lon="6.192923">
		<ele>237</ele>
		<time>2011-09-11T09:10:19.868Z</time>
		<geoidheight>191</geoidheight>
	</trkpt>
	<trkpt lat="50.722016" lon="6.192936">
		<ele>238</ele>
		<time>2011-09-11T09:10:20.873Z</time>
		<geoidheight>192</geoidheight>
	</trkpt>
	<trkpt lat="50.722005" lon="6.192954">
		<ele>238</ele>
		<time>2011-09-11T09:10:21.875Z</time>
		<geoidheight>192</geoidheight>
	</trkpt>
	<trkpt lat="50.721996" lon="6.192976">
		<ele>238</ele>
		<time>2011-09-11T09:10:22.878Z</time>
		<geoidheight>192</geoidheight>
	</trkpt>
	<trkpt lat="50.721990" lon="6.193000">
		<ele>238</ele>
		<time>2011-09-11T09:10:23.875Z</time>
		<geoidheight>192</geoidheight>
	</trkpt>
	<trkpt lat="50.721984" lon="6.193023">
		<ele>238</ele>
		<time>2011-09-11T09:10:24.875Z</time>
		<geoidheight>192</geoidheight>
	</trkpt>
	<trkpt lat="50.721978" lon="6.193045">
		<ele>238</ele>
		<time>2011-09-11T09:10:25.877Z</time>
		<geoidheight>192</geoidheight>
	</trkpt>
	<trkpt lat="50.721971" lon="6.193065">
		<ele>238</ele>
		<time>2011-09-11T09:10:26.869Z</time>
		<geoidheight>192</geoidheight>
	</trkpt>
	<trkpt lat="50.721965" lon="6.193085">
		<ele>238</ele>
		<time>2011-09-11T09:10:27.873Z</time>
		<geoidheight>192</geoidheight>
	</trkpt>
	<trkpt lat="50.721958" lon="6.193104">
		<ele>238</ele>
		<time>2011-09-11T09:10:28.875Z</time>
		<geoidheight>192</geoidheight>
	</trkpt>
	<trkpt lat="50.721952" lon="6.193124">
		<ele>238</ele>
		<time>2011-09-11T09:10:29.873Z</time>
		<geoidheight>192</geoidheight>
	</trkpt>
	<trkpt lat="50.721946" lon="6.193141">
		<ele>238</ele>
		<time>2011-09-11T09:10:30.878Z</time>
		<geoidheight>192</geoidheight>
	</trkpt>
	<trkpt lat="50.721939" lon="6.193156">
		<ele>238</ele>
		<time>2011-09-11T09:10:31.875Z</time>
		<geoidheight>192</geoidheight>
	</trkpt>
	<trkpt lat="50.721933" lon="6.193172">
		<ele>238</ele>
		<time>2011-09-11T09:10:32.875Z</time>
		<geoidheight>192</geoidheight>
	</trkpt>
	<trkpt lat="50.721927" lon="6.193189">
		<ele>238</ele>
		<time>2011-09-11T09:10:33.883Z</time>
		<geoidheight>192</geoidheight>
	</trkpt>
	<trkpt lat="50.721920" lon="6.193206">
		<ele>238</ele>
		<time>2011-09-11T09:10:34.872Z</time>
		<geoidheight>192</geoidheight>
	</trkpt>
	<trkpt lat="50.721917" lon="6.193221">
		<ele>239</ele>
		<time>2011-09-11T09:10:35.874Z</time>
		<geoidheight>193</geoidheight>
	</trkpt>
	<trkpt lat="50.721915" lon="6.193237">
		<ele>239</ele>
		<time>2011-09-11T09:10:36.877Z</time>
		<geoidheight>193</geoidheight>
	</trkpt>
	<trkpt lat="50.721920" lon="6.193268">
		<ele>239</ele>
		<time>2011-09-11T09:10:37.873Z</time>
		<geoidheight>193</geoidheight>
	</trkpt>
	<trkpt lat="50.721917" lon="6.193298">
		<ele>239</ele>
		<time>2011-09-11T09:10:38.869Z</time>
		<geoidheight>193</geoidheight>
	</trkpt>
	<trkpt lat="50.721917" lon="6.193322">
		<ele>239</ele>
		<time>2011-09-11T09:10:39.880Z</time>
		<geoidheight>193</geoidheight>
	</trkpt>
	<trkpt lat="50.721917" lon="6.193347">
		<ele>239</ele>
		<time>2011-09-11T09:10:40.869Z</time>
		<geoidheight>193</geoidheight>
	</trkpt>
	<trkpt lat="50.721917" lon="6.193370">
		<ele>239</ele>
		<time>2011-09-11T09:10:41.871Z</time>
		<geoidheight>193</geoidheight>
	</trkpt>
	<trkpt lat="50.721918" lon="6.193392">
		<ele>239</ele>
		<time>2011-09-11T09:10:42.870Z</time>
		<geoidheight>193</geoidheight>
	</trkpt>
	<trkpt lat="50.721916" lon="6.193415">
		<ele>239</ele>
		<time>2011-09-11T09:10:43.869Z</time>
		<geoidheight>193</geoidheight>
	</trkpt>
	<trkpt lat="50.721910" lon="6.193436">
		<ele>239</ele>
		<time>2011-09-11T09:10:44.870Z</time>
		<geoidheight>193</geoidheight>
	</trkpt>
	<trkpt lat="50.721906" lon="6.193456">
		<ele>239</ele>
		<time>2011-09-11T09:10:45.869Z</time>
		<geoidheight>193</geoidheight>
	</trkpt>
	<trkpt lat="50.721911" lon="6.193475">
		<ele>239</ele>
		<time>2011-09-11T09:10:46.869Z</time>
		<geoidheight>193</geoidheight>
	</trkpt>
	<trkpt lat="50.721907" lon="6.193493">
		<ele>239</ele>
		<time>2011-09-11T09:10:47.873Z</time>
		<geoidheight>193</geoidheight>
	</trkpt>
	<trkpt lat="50.721904" lon="6.193509">
		<ele>239</ele>
		<time>2011-09-11T09:10:48.874Z</time>
		<geoidheight>193</geoidheight>
	</trkpt>
	<trkpt lat="50.721904" lon="6.193509">
		<ele>239</ele>
		<time>2011-09-11T09:10:55.870Z</time>
		<geoidheight>193</geoidheight>
	</trkpt>
	<trkpt lat="50.721882" lon="6.193572">
		<ele>239</ele>
		<time>2011-09-11T09:10:56.870Z</time>
		<geoidheight>193</geoidheight>
	</trkpt>
	<trkpt lat="50.721882" lon="6.193572">
		<ele>240</ele>
		<time>2011-09-11T09:11:04.869Z</time>
		<geoidheight>194</geoidheight>
	</trkpt>
	<trkpt lat="50.721848" lon="6.193624">
		<ele>240</ele>
		<time>2011-09-11T09:11:05.869Z</time>
		<geoidheight>194</geoidheight>
	</trkpt>
	<trkpt lat="50.721848" lon="6.193624">
		<ele>240</ele>
		<time>2011-09-11T09:11:17.868Z</time>
		<geoidheight>194</geoidheight>
	</trkpt>
	<trkpt lat="50.721804" lon="6.193632">
		<ele>240</ele>
		<time>2011-09-11T09:11:18.869Z</time>
		<geoidheight>194</geoidheight>
	</trkpt>
	<trkpt lat="50.721804" lon="6.193632">
		<ele>240</ele>
		<time>2011-09-11T09:11:28.870Z</time>
		<geoidheight>194</geoidheight>
	</trkpt>
	<trkpt lat="50.721758" lon="6.193620">
		<ele>240</ele>
		<time>2011-09-11T09:11:29.871Z</time>
		<geoidheight>194</geoidheight>
	</trkpt>
	<trkpt lat="50.721755" lon="6.193627">
		<ele>240</ele>
		<time>2011-09-11T09:11:32.871Z</time>
		<geoidheight>194</geoidheight>
	</trkpt>
	<trkpt lat="50.721740" lon="6.193640">
		<ele>240</ele>
		<time>2011-09-11T09:11:33.869Z</time>
		<geoidheight>194</geoidheight>
	</trkpt>
	<trkpt lat="50.721735" lon="6.193645">
		<ele>240</ele>
		<time>2011-09-11T09:11:36.870Z</time>
		<geoidheight>194</geoidheight>
	</trkpt>
	<trkpt lat="50.721731" lon="6.193661">
		<ele>240</ele>
		<time>2011-09-11T09:11:37.872Z</time>
		<geoidheight>194</geoidheight>
	</trkpt>
	<trkpt lat="50.721717" lon="6.193701">
		<ele>240</ele>
		<time>2011-09-11T09:11:38.877Z</time>
		<geoidheight>194</geoidheight>
	</trkpt>
	<trkpt lat="50.721706" lon="6.193734">
		<ele>240</ele>
		<time>2011-09-11T09:11:39.872Z</time>
		<geoidheight>194</geoidheight>
	</trkpt>
	<trkpt lat="50.721706" lon="6.193740">
		<ele>240</ele>
		<time>2011-09-11T09:11:40.869Z</time>
		<geoidheight>194</geoidheight>
	</trkpt>
	<trkpt lat="50.721706" lon="6.193740">
		<ele>240</ele>
		<time>2011-09-11T09:11:41.877Z</time>
		<geoidheight>194</geoidheight>
	</trkpt>
	<trkpt lat="50.721706" lon="6.193740">
		<ele>240</ele>
		<time>2011-09-11T09:11:44.872Z</time>
		<geoidheight>194</geoidheight>
	</trkpt>
	<trkpt lat="50.721721" lon="6.193754">
		<ele>240</ele>
		<time>2011-09-11T09:11:45.870Z</time>
		<geoidheight>194</geoidheight>
	</trkpt>
	<trkpt lat="50.721718" lon="6.193764">
		<ele>240</ele>
		<time>2011-09-11T09:11:48.874Z</time>
		<geoidheight>194</geoidheight>
	</trkpt>
	<trkpt lat="50.721707" lon="6.193772">
		<ele>240</ele>
		<time>2011-09-11T09:11:49.875Z</time>
		<geoidheight>194</geoidheight>
	</trkpt>
	<trkpt lat="50.721697" lon="6.193781">
		<ele>240</ele>
		<time>2011-09-11T09:11:50.870Z</time>
		<geoidheight>194</geoidheight>
	</trkpt>
	<trkpt lat="50.721686" lon="6.193791">
		<ele>240</ele>
		<time>2011-09-11T09:11:51.869Z</time>
		<geoidheight>194</geoidheight>
	</trkpt>
	<trkpt lat="50.721675" lon="6.193799">
		<ele>240</ele>
		<time>2011-09-11T09:11:52.873Z</time>
		<geoidheight>194</geoidheight>
	</trkpt>
	<trkpt lat="50.721668" lon="6.193809">
		<ele>240</ele>
		<time>2011-09-11T09:11:53.870Z</time>
		<geoidheight>194</geoidheight>
	</trkpt>
	<trkpt lat="50.721667" lon="6.193805">
		<ele>240</ele>
		<time>2011-09-11T09:11:54.870Z</time>
		<geoidheight>194</geoidheight>
	</trkpt>
	<trkpt lat="50.721662" lon="6.193790">
		<ele>240</ele>
		<time>2011-09-11T09:11:55.872Z</time>
		<geoidheight>194</geoidheight>
	</trkpt>
	<trkpt lat="50.721656" lon="6.193786">
		<ele>240</ele>
		<time>2011-09-11T09:11:56.870Z</time>
		<geoidheight>194</geoidheight>
	</trkpt>
	<trkpt lat="50.721650" lon="6.193782">
		<ele>240</ele>
		<time>2011-09-11T09:11:57.870Z</time>
		<geoidheight>194</geoidheight>
	</trkpt>
	<trkpt lat="50.721646" lon="6.193775">
		<ele>240</ele>
		<time>2011-09-11T09:11:58.872Z</time>
		<geoidheight>194</geoidheight>
	</trkpt>
	<trkpt lat="50.721643" lon="6.193766">
		<ele>240</ele>
		<time>2011-09-11T09:11:59.871Z</time>
		<geoidheight>194</geoidheight>
	</trkpt>
	<trkpt lat="50.721637" lon="6.193762">
		<ele>240</ele>
		<time>2011-09-11T09:12:00.870Z</time>
		<geoidheight>194</geoidheight>
	</trkpt>
	<trkpt lat="50.721632" lon="6.193764">
		<ele>240</ele>
		<time>2011-09-11T09:12:01.871Z</time>
		<geoidheight>194</geoidheight>
	</trkpt>
	<trkpt lat="50.721627" lon="6.193769">
		<ele>240</ele>
		<time>2011-09-11T09:12:02.871Z</time>
		<geoidheight>194</geoidheight>
	</trkpt>
	<trkpt lat="50.721621" lon="6.193767">
		<ele>240</ele>
		<time>2011-09-11T09:12:03.869Z</time>
		<geoidheight>194</geoidheight>
	</trkpt>
	<trkpt lat="50.721614" lon="6.193764">
		<ele>240</ele>
		<time>2011-09-11T09:12:04.872Z</time>
		<geoidheight>194</geoidheight>
	</trkpt>
	<trkpt lat="50.721607" lon="6.193763">
		<ele>240</ele>
		<time>2011-09-11T09:12:05.871Z</time>
		<geoidheight>194</geoidheight>
	</trkpt>
	<trkpt lat="50.721601" lon="6.193768">
		<ele>240</ele>
		<time>2011-09-11T09:12:06.869Z</time>
		<geoidheight>194</geoidheight>
	</trkpt>
	<trkpt lat="50.721596" lon="6.193774">
		<ele>240</ele>
		<time>2011-09-11T09:12:07.870Z</time>
		<geoidheight>194</geoidheight>
	</trkpt>
	<trkpt lat="50.721589" lon="6.193782">
		<ele>240</ele>
		<time>2011-09-11T09:12:08.872Z</time>
		<geoidheight>194</geoidheight>
	</trkpt>
	<trkpt lat="50.721581" lon="6.193792">
		<ele>240</ele>
		<time>2011-09-11T09:12:09.870Z</time>
		<geoidheight>194</geoidheight>
	</trkpt>
	<trkpt lat="50.721570" lon="6.193804">
		<ele>240</ele>
		<time>2011-09-11T09:12:10.870Z</time>
		<geoidheight>194</geoidheight>
	</trkpt>
	<trkpt lat="50.721560" lon="6.193818">
		<ele>240</ele>
		<time>2011-09-11T09:12:11.872Z</time>
		<geoidheight>194</geoidheight>
	</trkpt>
	<trkpt lat="50.721551" lon="6.193834">
		<ele>240</ele>
		<time>2011-09-11T09:12:12.871Z</time>
		<geoidheight>194</geoidheight>
	</trkpt>
	<trkpt lat="50.721540" lon="6.193847">
		<ele>240</ele>
		<time>2011-09-11T09:12:13.868Z</time>
		<geoidheight>194</geoidheight>
	</trkpt>
	<trkpt lat="50.721530" lon="6.193857">
		<ele>239</ele>
		<time>2011-09-11T09:12:14.873Z</time>
		<geoidheight>193</geoidheight>
	</trkpt>
	<trkpt lat="50.721519" lon="6.193865">
		<ele>239</ele>
		<time>2011-09-11T09:12:15.875Z</time>
		<geoidheight>193</geoidheight>
	</trkpt>
	<trkpt lat="50.721508" lon="6.193872">
		<ele>239</ele>
		<time>2011-09-11T09:12:16.880Z</time>
		<geoidheight>193</geoidheight>
	</trkpt>
	<trkpt lat="50.721498" lon="6.193882">
		<ele>239</ele>
		<time>2011-09-11T09:12:17.877Z</time>
		<geoidheight>193</geoidheight>
	</trkpt>
	<trkpt lat="50.721489" lon="6.193891">
		<ele>239</ele>
		<time>2011-09-11T09:12:18.873Z</time>
		<geoidheight>193</geoidheight>
	</trkpt>
	<trkpt lat="50.721484" lon="6.193905">
		<ele>239</ele>
		<time>2011-09-11T09:12:19.874Z</time>
		<geoidheight>193</geoidheight>
	</trkpt>
	<trkpt lat="50.721475" lon="6.193913">
		<ele>239</ele>
		<time>2011-09-11T09:12:20.870Z</time>
		<geoidheight>193</geoidheight>
	</trkpt>
	<trkpt lat="50.721465" lon="6.193921">
		<ele>239</ele>
		<time>2011-09-11T09:12:21.874Z</time>
		<geoidheight>193</geoidheight>
	</trkpt>
	<trkpt lat="50.721455" lon="6.193934">
		<ele>239</ele>
		<time>2011-09-11T09:12:22.873Z</time>
		<geoidheight>193</geoidheight>
	</trkpt>
	<trkpt lat="50.721444" lon="6.193947">
		<ele>239</ele>
		<time>2011-09-11T09:12:23.870Z</time>
		<geoidheight>193</geoidheight>
	</trkpt>
	<trkpt lat="50.721433" lon="6.193962">
		<ele>239</ele>
		<time>2011-09-11T09:12:24.878Z</time>
		<geoidheight>193</geoidheight>
	</trkpt>
	<trkpt lat="50.721425" lon="6.193978">
		<ele>239</ele>
		<time>2011-09-11T09:12:25.870Z</time>
		<geoidheight>193</geoidheight>
	</trkpt>
	<trkpt lat="50.721415" lon="6.193992">
		<ele>239</ele>
		<time>2011-09-11T09:12:26.871Z</time>
		<geoidheight>193</geoidheight>
	</trkpt>
	<trkpt lat="50.721407" lon="6.194005">
		<ele>239</ele>
		<time>2011-09-11T09:12:27.873Z</time>
		<geoidheight>193</geoidheight>
	</trkpt>
	<trkpt lat="50.721396" lon="6.194013">
		<ele>239</ele>
		<time>2011-09-11T09:12:28.877Z</time>
		<geoidheight>193</geoidheight>
	</trkpt>
	<trkpt lat="50.721386" lon="6.194022">
		<ele>239</ele>
		<time>2011-09-11T09:12:29.871Z</time>
		<geoidheight>193</geoidheight>
	</trkpt>
	<trkpt lat="50.721376" lon="6.194034">
		<ele>239</ele>
		<time>2011-09-11T09:12:30.872Z</time>
		<geoidheight>193</geoidheight>
	</trkpt>
	<trkpt lat="50.721368" lon="6.194049">
		<ele>239</ele>
		<time>2011-09-11T09:12:31.880Z</time>
		<geoidheight>193</geoidheight>
	</trkpt>
	<trkpt lat="50.721359" lon="6.194068">
		<ele>239</ele>
		<time>2011-09-11T09:12:32.872Z</time>
		<geoidheight>193</geoidheight>
	</trkpt>
	<trkpt lat="50.721349" lon="6.194082">
		<ele>239</ele>
		<time>2011-09-11T09:12:33.875Z</time>
		<geoidheight>193</geoidheight>
	</trkpt>
	<trkpt lat="50.721339" lon="6.194095">
		<ele>239</ele>
		<time>2011-09-11T09:12:34.871Z</time>
		<geoidheight>193</geoidheight>
	</trkpt>
	<trkpt lat="50.721333" lon="6.194104">
		<ele>239</ele>
		<time>2011-09-11T09:12:35.874Z</time>
		<geoidheight>193</geoidheight>
	</trkpt>
	<trkpt lat="50.721324" lon="6.194108">
		<ele>239</ele>
		<time>2011-09-11T09:12:36.869Z</time>
		<geoidheight>193</geoidheight>
	</trkpt>
	<trkpt lat="50.721315" lon="6.194119">
		<ele>239</ele>
		<time>2011-09-11T09:12:37.873Z</time>
		<geoidheight>193</geoidheight>
	</trkpt>
	<trkpt lat="50.721306" lon="6.194133">
		<ele>239</ele>
		<time>2011-09-11T09:12:38.873Z</time>
		<geoidheight>193</geoidheight>
	</trkpt>
	<trkpt lat="50.721299" lon="6.194146">
		<ele>239</ele>
		<time>2011-09-11T09:12:39.870Z</time>
		<geoidheight>193</geoidheight>
	</trkpt>
	<trkpt lat="50.721287" lon="6.194147">
		<ele>239</ele>
		<time>2011-09-11T09:12:40.872Z</time>
		<geoidheight>193</geoidheight>
	</trkpt>
	<trkpt lat="50.721273" lon="6.194148">
		<ele>239</ele>
		<time>2011-09-11T09:12:41.871Z</time>
		<geoidheight>193</geoidheight>
	</trkpt>
	<trkpt lat="50.721261" lon="6.194150">
		<ele>239</ele>
		<time>2011-09-11T09:12:42.870Z</time>
		<geoidheight>193</geoidheight>
	</trkpt>
	<trkpt lat="50.721255" lon="6.194164">
		<ele>239</ele>
		<time>2011-09-11T09:12:43.872Z</time>
		<geoidheight>193</geoidheight>
	</trkpt>
	<trkpt lat="50.721250" lon="6.194178">
		<ele>239</ele>
		<time>2011-09-11T09:12:44.869Z</time>
		<geoidheight>193</geoidheight>
	</trkpt>
	<trkpt lat="50.721249" lon="6.194193">
		<ele>239</ele>
		<time>2011-09-11T09:12:45.870Z</time>
		<geoidheight>193</geoidheight>
	</trkpt>
	<trkpt lat="50.721247" lon="6.194206">
		<ele>239</ele>
		<time>2011-09-11T09:12:46.869Z</time>
		<geoidheight>193</geoidheight>
	</trkpt>
	<trkpt lat="50.721241" lon="6.194215">
		<ele>239</ele>
		<time>2011-09-11T09:12:47.870Z</time>
		<geoidheight>193</geoidheight>
	</trkpt>
	<trkpt lat="50.721235" lon="6.194224">
		<ele>239</ele>
		<time>2011-09-11T09:12:48.873Z</time>
		<geoidheight>193</geoidheight>
	</trkpt>
	<trkpt lat="50.721230" lon="6.194237">
		<ele>239</ele>
		<time>2011-09-11T09:12:49.870Z</time>
		<geoidheight>193</geoidheight>
	</trkpt>
	<trkpt lat="50.721226" lon="6.194250">
		<ele>239</ele>
		<time>2011-09-11T09:12:50.872Z</time>
		<geoidheight>193</geoidheight>
	</trkpt>
	<trkpt lat="50.721224" lon="6.194265">
		<ele>239</ele>
		<time>2011-09-11T09:12:51.870Z</time>
		<geoidheight>193</geoidheight>
	</trkpt>
	<trkpt lat="50.721219" lon="6.194280">
		<ele>239</ele>
		<time>2011-09-11T09:12:52.871Z</time>
		<geoidheight>193</geoidheight>
	</trkpt>
	<trkpt lat="50.721211" lon="6.194291">
		<ele>239</ele>
		<time>2011-09-11T09:12:53.872Z</time>
		<geoidheight>193</geoidheight>
	</trkpt>
	<trkpt lat="50.721205" lon="6.194301">
		<ele>239</ele>
		<time>2011-09-11T09:12:54.872Z</time>
		<geoidheight>193</geoidheight>
	</trkpt>
	<trkpt lat="50.721203" lon="6.194314">
		<ele>239</ele>
		<time>2011-09-11T09:12:55.870Z</time>
		<geoidheight>193</geoidheight>
	</trkpt>
	<trkpt lat="50.721201" lon="6.194329">
		<ele>239</ele>
		<time>2011-09-11T09:12:56.877Z</time>
		<geoidheight>193</geoidheight>
	</trkpt>
	<trkpt lat="50.721203" lon="6.194345">
		<ele>239</ele>
		<time>2011-09-11T09:12:57.869Z</time>
		<geoidheight>193</geoidheight>
	</trkpt>
	<trkpt lat="50.721206" lon="6.194362">
		<ele>239</ele>
		<time>2011-09-11T09:12:58.872Z</time>
		<geoidheight>193</geoidheight>
	</trkpt>
	<trkpt lat="50.721207" lon="6.194378">
		<ele>239</ele>
		<time>2011-09-11T09:12:59.872Z</time>
		<geoidheight>193</geoidheight>
	</trkpt>
	<trkpt lat="50.721211" lon="6.194397">
		<ele>239</ele>
		<time>2011-09-11T09:13:00.872Z</time>
		<geoidheight>193</geoidheight>
	</trkpt>
	<trkpt lat="50.721214" lon="6.194415">
		<ele>239</ele>
		<time>2011-09-11T09:13:01.872Z</time>
		<geoidheight>193</geoidheight>
	</trkpt>
	<trkpt lat="50.721214" lon="6.194433">
		<ele>239</ele>
		<time>2011-09-11T09:13:02.870Z</time>
		<geoidheight>193</geoidheight>
	</trkpt>
	<trkpt lat="50.721219" lon="6.194451">
		<ele>239</ele>
		<time>2011-09-11T09:13:03.873Z</time>
		<geoidheight>193</geoidheight>
	</trkpt>
	<trkpt lat="50.721225" lon="6.194469">
		<ele>239</ele>
		<time>2011-09-11T09:13:04.871Z</time>
		<geoidheight>193</geoidheight>
	</trkpt>
	<trkpt lat="50.721229" lon="6.194488">
		<ele>239</ele>
		<time>2011-09-11T09:13:05.870Z</time>
		<geoidheight>193</geoidheight>
	</trkpt>
	<trkpt lat="50.721236" lon="6.194506">
		<ele>239</ele>
		<time>2011-09-11T09:13:06.872Z</time>
		<geoidheight>193</geoidheight>
	</trkpt>
	<trkpt lat="50.721242" lon="6.194523">
		<ele>239</ele>
		<time>2011-09-11T09:13:07.869Z</time>
		<geoidheight>193</geoidheight>
	</trkpt>
	<trkpt lat="50.721247" lon="6.194541">
		<ele>239</ele>
		<time>2011-09-11T09:13:08.870Z</time>
		<geoidheight>193</geoidheight>
	</trkpt>
	<trkpt lat="50.721253" lon="6.194557">
		<ele>239</ele>
		<time>2011-09-11T09:13:09.873Z</time>
		<geoidheight>193</geoidheight>
	</trkpt>
	<trkpt lat="50.721257" lon="6.194573">
		<ele>239</ele>
		<time>2011-09-11T09:13:10.873Z</time>
		<geoidheight>193</geoidheight>
	</trkpt>
	<trkpt lat="50.721261" lon="6.194590">
		<ele>239</ele>
		<time>2011-09-11T09:13:11.871Z</time>
		<geoidheight>193</geoidheight>
	</trkpt>
	<trkpt lat="50.721262" lon="6.194610">
		<ele>239</ele>
		<time>2011-09-11T09:13:12.871Z</time>
		<geoidheight>193</geoidheight>
	</trkpt>
	<trkpt lat="50.721266" lon="6.194625">
		<ele>239</ele>
		<time>2011-09-11T09:13:13.871Z</time>
		<geoidheight>193</geoidheight>
	</trkpt>
	<trkpt lat="50.721270" lon="6.194639">
		<ele>239</ele>
		<time>2011-09-11T09:13:14.870Z</time>
		<geoidheight>193</geoidheight>
	</trkpt>
	<trkpt lat="50.721274" lon="6.194653">
		<ele>239</ele>
		<time>2011-09-11T09:13:15.872Z</time>
		<geoidheight>193</geoidheight>
	</trkpt>
	<trkpt lat="50.721272" lon="6.194670">
		<ele>239</ele>
		<time>2011-09-11T09:13:16.872Z</time>
		<geoidheight>193</geoidheight>
	</trkpt>
	<trkpt lat="50.721275" lon="6.194684">
		<ele>239</ele>
		<time>2011-09-11T09:13:17.871Z</time>
		<geoidheight>193</geoidheight>
	</trkpt>
	<trkpt lat="50.721279" lon="6.194698">
		<ele>239</ele>
		<time>2011-09-11T09:13:18.870Z</time>
		<geoidheight>193</geoidheight>
	</trkpt>
	<trkpt lat="50.721281" lon="6.194712">
		<ele>239</ele>
		<time>2011-09-11T09:13:19.872Z</time>
		<geoidheight>193</geoidheight>
	</trkpt>
	<trkpt lat="50.721284" lon="6.194725">
		<ele>239</ele>
		<time>2011-09-11T09:13:20.872Z</time>
		<geoidheight>193</geoidheight>
	</trkpt>
	<trkpt lat="50.721286" lon="6.194736">
		<ele>239</ele>
		<time>2011-09-11T09:13:21.871Z</time>
		<geoidheight>193</geoidheight>
	</trkpt>
	<trkpt lat="50.721287" lon="6.194750">
		<ele>239</ele>
		<time>2011-09-11T09:13:22.872Z</time>
		<geoidheight>193</geoidheight>
	</trkpt>
	<trkpt lat="50.721286" lon="6.194764">
		<ele>239</ele>
		<time>2011-09-11T09:13:23.870Z</time>
		<geoidheight>193</geoidheight>
	</trkpt>
	<trkpt lat="50.721289" lon="6.194777">
		<ele>239</ele>
		<time>2011-09-11T09:13:24.871Z</time>
		<geoidheight>193</geoidheight>
	</trkpt>
	<trkpt lat="50.721294" lon="6.194789">
		<ele>239</ele>
		<time>2011-09-11T09:13:25.873Z</time>
		<geoidheight>193</geoidheight>
	</trkpt>
	<trkpt lat="50.721299" lon="6.194799">
		<ele>239</ele>
		<time>2011-09-11T09:13:26.869Z</time>
		<geoidheight>193</geoidheight>
	</trkpt>
	<trkpt lat="50.721303" lon="6.194811">
		<ele>239</ele>
		<time>2011-09-11T09:13:27.870Z</time>
		<geoidheight>193</geoidheight>
	</trkpt>
	<trkpt lat="50.721303" lon="6.194825">
		<ele>239</ele>
		<time>2011-09-11T09:13:28.869Z</time>
		<geoidheight>193</geoidheight>
	</trkpt>
	<trkpt lat="50.721299" lon="6.194840">
		<ele>239</ele>
		<time>2011-09-11T09:13:29.871Z</time>
		<geoidheight>193</geoidheight>
	</trkpt>
	<trkpt lat="50.721299" lon="6.194857">
		<ele>239</ele>
		<time>2011-09-11T09:13:30.871Z</time>
		<geoidheight>193</geoidheight>
	</trkpt>
	<trkpt lat="50.721300" lon="6.194874">
		<ele>239</ele>
		<time>2011-09-11T09:13:31.870Z</time>
		<geoidheight>193</geoidheight>
	</trkpt>
	<trkpt lat="50.721300" lon="6.194892">
		<ele>239</ele>
		<time>2011-09-11T09:13:32.871Z</time>
		<geoidheight>193</geoidheight>
	</trkpt>
	<trkpt lat="50.721295" lon="6.194906">
		<ele>239</ele>
		<time>2011-09-11T09:13:33.871Z</time>
		<geoidheight>193</geoidheight>
	</trkpt>
	<trkpt lat="50.721294" lon="6.194928">
		<ele>239</ele>
		<time>2011-09-11T09:13:34.870Z</time>
		<geoidheight>193</geoidheight>
	</trkpt>
	<trkpt lat="50.721296" lon="6.194956">
		<ele>239</ele>
		<time>2011-09-11T09:13:35.873Z</time>
		<geoidheight>193</geoidheight>
	</trkpt>
	<trkpt lat="50.721302" lon="6.194989">
		<ele>239</ele>
		<time>2011-09-11T09:13:36.870Z</time>
		<geoidheight>193</geoidheight>
	</trkpt>
	<trkpt lat="50.721308" lon="6.195023">
		<ele>239</ele>
		<time>2011-09-11T09:13:37.871Z</time>
		<geoidheight>193</geoidheight>
	</trkpt>
	<trkpt lat="50.721314" lon="6.195047">
		<ele>239</ele>
		<time>2011-09-11T09:13:38.870Z</time>
		<geoidheight>193</geoidheight>
	</trkpt>
	<trkpt lat="50.721320" lon="6.195069">
		<ele>239</ele>
		<time>2011-09-11T09:13:39.871Z</time>
		<geoidheight>193</geoidheight>
	</trkpt>
	<trkpt lat="50.721321" lon="6.195090">
		<ele>239</ele>
		<time>2011-09-11T09:13:40.869Z</time>
		<geoidheight>193</geoidheight>
	</trkpt>
	<trkpt lat="50.721321" lon="6.195110">
		<ele>239</ele>
		<time>2011-09-11T09:13:41.873Z</time>
		<geoidheight>193</geoidheight>
	</trkpt>
	<trkpt lat="50.721323" lon="6.195132">
		<ele>239</ele>
		<time>2011-09-11T09:13:42.871Z</time>
		<geoidheight>193</geoidheight>
	</trkpt>
	<trkpt lat="50.721326" lon="6.195152">
		<ele>239</ele>
		<time>2011-09-11T09:13:43.870Z</time>
		<geoidheight>193</geoidheight>
	</trkpt>
	<trkpt lat="50.721328" lon="6.195173">
		<ele>239</ele>
		<time>2011-09-11T09:13:44.874Z</time>
		<geoidheight>193</geoidheight>
	</trkpt>
	<trkpt lat="50.721326" lon="6.195191">
		<ele>239</ele>
		<time>2011-09-11T09:13:45.872Z</time>
		<geoidheight>193</geoidheight>
	</trkpt>
	<trkpt lat="50.721325" lon="6.195208">
		<ele>239</ele>
		<time>2011-09-11T09:13:46.870Z</time>
		<geoidheight>193</geoidheight>
	</trkpt>
	<trkpt lat="50.721322" lon="6.195224">
		<ele>239</ele>
		<time>2011-09-11T09:13:47.870Z</time>
		<geoidheight>193</geoidheight>
	</trkpt>
	<trkpt lat="50.721319" lon="6.195240">
		<ele>239</ele>
		<time>2011-09-11T09:13:48.872Z</time>
		<geoidheight>193</geoidheight>
	</trkpt>
	<trkpt lat="50.721315" lon="6.195255">
		<ele>239</ele>
		<time>2011-09-11T09:13:49.870Z</time>
		<geoidheight>193</geoidheight>
	</trkpt>
	<trkpt lat="50.721315" lon="6.195271">
		<ele>239</ele>
		<time>2011-09-11T09:13:50.870Z</time>
		<geoidheight>193</geoidheight>
	</trkpt>
	<trkpt lat="50.721313" lon="6.195289">
		<ele>239</ele>
		<time>2011-09-11T09:13:51.872Z</time>
		<geoidheight>193</geoidheight>
	</trkpt>
	<trkpt lat="50.721310" lon="6.195307">
		<ele>239</ele>
		<time>2011-09-11T09:13:52.871Z</time>
		<geoidheight>193</geoidheight>
	</trkpt>
	<trkpt lat="50.721310" lon="6.195330">
		<ele>239</ele>
		<time>2011-09-11T09:13:53.870Z</time>
		<geoidheight>193</geoidheight>
	</trkpt>
	<trkpt lat="50.721309" lon="6.195351">
		<ele>239</ele>
		<time>2011-09-11T09:13:54.873Z</time>
		<geoidheight>193</geoidheight>
	</trkpt>
	<trkpt lat="50.721304" lon="6.195369">
		<ele>239</ele>
		<time>2011-09-11T09:13:55.871Z</time>
		<geoidheight>193</geoidheight>
	</trkpt>
	<trkpt lat="50.721300" lon="6.195385">
		<ele>239</ele>
		<time>2011-09-11T09:13:56.871Z</time>
		<geoidheight>193</geoidheight>
	</trkpt>
	<trkpt lat="50.721296" lon="6.195400">
		<ele>239</ele>
		<time>2011-09-11T09:13:57.871Z</time>
		<geoidheight>193</geoidheight>
	</trkpt>
	<trkpt lat="50.721290" lon="6.195415">
		<ele>239</ele>
		<time>2011-09-11T09:13:58.873Z</time>
		<geoidheight>193</geoidheight>
	</trkpt>
	<trkpt lat="50.721284" lon="6.195430">
		<ele>239</ele>
		<time>2011-09-11T09:13:59.870Z</time>
		<geoidheight>193</geoidheight>
	</trkpt>
	<trkpt lat="50.721279" lon="6.195445">
		<ele>239</ele>
		<time>2011-09-11T09:14:00.872Z</time>
		<geoidheight>193</geoidheight>
	</trkpt>
	<trkpt lat="50.721277" lon="6.195460">
		<ele>239</ele>
		<time>2011-09-11T09:14:01.872Z</time>
		<geoidheight>193</geoidheight>
	</trkpt>
	<trkpt lat="50.721271" lon="6.195472">
		<ele>239</ele>
		<time>2011-09-11T09:14:02.872Z</time>
		<geoidheight>193</geoidheight>
	</trkpt>
	<trkpt lat="50.721264" lon="6.195483">
		<ele>239</ele>
		<time>2011-09-11T09:14:03.871Z</time>
		<geoidheight>193</geoidheight>
	</trkpt>
	<trkpt lat="50.721253" lon="6.195486">
		<ele>239</ele>
		<time>2011-09-11T09:14:04.873Z</time>
		<geoidheight>193</geoidheight>
	</trkpt>
	<trkpt lat="50.721243" lon="6.195493">
		<ele>239</ele>
		<time>2011-09-11T09:14:05.872Z</time>
		<geoidheight>193</geoidheight>
	</trkpt>
	<trkpt lat="50.721236" lon="6.195505">
		<ele>239</ele>
		<time>2011-09-11T09:14:06.870Z</time>
		<geoidheight>193</geoidheight>
	</trkpt>
	<trkpt lat="50.721234" lon="6.195523">
		<ele>239</ele>
		<time>2011-09-11T09:14:07.871Z</time>
		<geoidheight>193</geoidheight>
	</trkpt>
	<trkpt lat="50.721230" lon="6.195542">
		<ele>239</ele>
		<time>2011-09-11T09:14:08.873Z</time>
		<geoidheight>193</geoidheight>
	</trkpt>
	<trkpt lat="50.721224" lon="6.195560">
		<ele>239</ele>
		<time>2011-09-11T09:14:09.870Z</time>
		<geoidheight>193</geoidheight>
	</trkpt>
	<trkpt lat="50.721215" lon="6.195571">
		<ele>239</ele>
		<time>2011-09-11T09:14:10.869Z</time>
		<geoidheight>193</geoidheight>
	</trkpt>
	<trkpt lat="50.721208" lon="6.195584">
		<ele>239</ele>
		<time>2011-09-11T09:14:11.872Z</time>
		<geoidheight>193</geoidheight>
	</trkpt>
	<trkpt lat="50.721200" lon="6.195594">
		<ele>239</ele>
		<time>2011-09-11T09:14:12.871Z</time>
		<geoidheight>193</geoidheight>
	</trkpt>
	<trkpt lat="50.721196" lon="6.195610">
		<ele>239</ele>
		<time>2011-09-11T09:14:13.870Z</time>
		<geoidheight>193</geoidheight>
	</trkpt>
	<trkpt lat="50.721191" lon="6.195626">
		<ele>239</ele>
		<time>2011-09-11T09:14:14.873Z</time>
		<geoidheight>193</geoidheight>
	</trkpt>
	<trkpt lat="50.721186" lon="6.195639">
		<ele>239</ele>
		<time>2011-09-11T09:14:15.871Z</time>
		<geoidheight>193</geoidheight>
	</trkpt>
	<trkpt lat="50.721182" lon="6.195652">
		<ele>239</ele>
		<time>2011-09-11T09:14:16.870Z</time>
		<geoidheight>193</geoidheight>
	</trkpt>
	<trkpt lat="50.721178" lon="6.195663">
		<ele>239</ele>
		<time>2011-09-11T09:14:17.873Z</time>
		<geoidheight>193</geoidheight>
	</trkpt>
	<trkpt lat="50.721174" lon="6.195671">
		<ele>239</ele>
		<time>2011-09-11T09:14:18.872Z</time>
		<geoidheight>193</geoidheight>
	</trkpt>
	<trkpt lat="50.721174" lon="6.195671">
		<ele>239</ele>
		<time>2011-09-11T09:14:19.871Z</time>
		<geoidheight>193</geoidheight>
	</trkpt>
	<trkpt lat="50.721174" lon="6.195671">
		<ele>239</ele>
		<time>2011-09-11T09:14:30.872Z</time>
		<geoidheight>193</geoidheight>
	</trkpt>
	<trkpt lat="50.721179" lon="6.195738">
		<ele>239</ele>
		<time>2011-09-11T09:14:31.869Z</time>
		<geoidheight>193</geoidheight>
	</trkpt>
	<trkpt lat="50.721177" lon="6.195749">
		<ele>239</ele>
		<time>2011-09-11T09:14:32.870Z</time>
		<geoidheight>193</geoidheight>
	</trkpt>
	<trkpt lat="50.721176" lon="6.195760">
		<ele>239</ele>
		<time>2011-09-11T09:14:33.872Z</time>
		<geoidheight>193</geoidheight>
	</trkpt>
	<trkpt lat="50.721180" lon="6.195775">
		<ele>239</ele>
		<time>2011-09-11T09:14:34.871Z</time>
		<geoidheight>193</geoidheight>
	</trkpt>
	<trkpt lat="50.721184" lon="6.195790">
		<ele>239</ele>
		<time>2011-09-11T09:14:35.870Z</time>
		<geoidheight>193</geoidheight>
	</trkpt>
	<trkpt lat="50.721188" lon="6.195805">
		<ele>239</ele>
		<time>2011-09-11T09:14:36.873Z</time>
		<geoidheight>193</geoidheight>
	</trkpt>
	<trkpt lat="50.721191" lon="6.195819">
		<ele>239</ele>
		<time>2011-09-11T09:14:37.871Z</time>
		<geoidheight>193</geoidheight>
	</trkpt>
	<trkpt lat="50.721191" lon="6.195833">
		<ele>239</ele>
		<time>2011-09-11T09:14:38.870Z</time>
		<geoidheight>193</geoidheight>
	</trkpt>
	<trkpt lat="50.721192" lon="6.195850">
		<ele>239</ele>
		<time>2011-09-11T09:14:39.871Z</time>
		<geoidheight>193</geoidheight>
	</trkpt>
	<trkpt lat="50.721195" lon="6.195864">
		<ele>239</ele>
		<time>2011-09-11T09:14:40.870Z</time>
		<geoidheight>193</geoidheight>
	</trkpt>
	<trkpt lat="50.721196" lon="6.195877">
		<ele>239</ele>
		<time>2011-09-11T09:14:41.872Z</time>
		<geoidheight>193</geoidheight>
	</trkpt>
	<trkpt lat="50.721202" lon="6.195886">
		<ele>239</ele>
		<time>2011-09-11T09:14:42.870Z</time>
		<geoidheight>193</geoidheight>
	</trkpt>
	<trkpt lat="50.721209" lon="6.195896">
		<ele>239</ele>
		<time>2011-09-11T09:14:43.872Z</time>
		<geoidheight>193</geoidheight>
	</trkpt>
	<trkpt lat="50.721216" lon="6.195908">
		<ele>239</ele>
		<time>2011-09-11T09:14:44.873Z</time>
		<geoidheight>193</geoidheight>
	</trkpt>
	<trkpt lat="50.721224" lon="6.195922">
		<ele>239</ele>
		<time>2011-09-11T09:14:45.871Z</time>
		<geoidheight>193</geoidheight>
	</trkpt>
	<trkpt lat="50.721227" lon="6.195947">
		<ele>239</ele>
		<time>2011-09-11T09:14:46.875Z</time>
		<geoidheight>193</geoidheight>
	</trkpt>
	<trkpt lat="50.721226" lon="6.195978">
		<ele>239</ele>
		<time>2011-09-11T09:14:47.882Z</time>
		<geoidheight>193</geoidheight>
	</trkpt>
	<trkpt lat="50.721225" lon="6.196016">
		<ele>239</ele>
		<time>2011-09-11T09:14:48.881Z</time>
		<geoidheight>193</geoidheight>
	</trkpt>
	<trkpt lat="50.721225" lon="6.196048">
		<ele>239</ele>
		<time>2011-09-11T09:14:49.887Z</time>
		<geoidheight>193</geoidheight>
	</trkpt>
	<trkpt lat="50.721227" lon="6.196077">
		<ele>239</ele>
		<time>2011-09-11T09:14:50.871Z</time>
		<geoidheight>193</geoidheight>
	</trkpt>
	<trkpt lat="50.721231" lon="6.196104">
		<ele>239</ele>
		<time>2011-09-11T09:14:51.874Z</time>
		<geoidheight>193</geoidheight>
	</trkpt>
	<trkpt lat="50.721235" lon="6.196132">
		<ele>239</ele>
		<time>2011-09-11T09:14:52.882Z</time>
		<geoidheight>193</geoidheight>
	</trkpt>
	<trkpt lat="50.721241" lon="6.196173">
		<ele>239</ele>
		<time>2011-09-11T09:14:53.874Z</time>
		<geoidheight>193</geoidheight>
	</trkpt>
	<trkpt lat="50.721244" lon="6.196215">
		<ele>239</ele>
		<time>2011-09-11T09:14:54.871Z</time>
		<geoidheight>193</geoidheight>
	</trkpt>
	<trkpt lat="50.721245" lon="6.196252">
		<ele>239</ele>
		<time>2011-09-11T09:14:55.878Z</time>
		<geoidheight>193</geoidheight>
	</trkpt>
	<trkpt lat="50.721248" lon="6.196280">
		<ele>239</ele>
		<time>2011-09-11T09:14:56.875Z</time>
		<geoidheight>193</geoidheight>
	</trkpt>
	<trkpt lat="50.721249" lon="6.196307">
		<ele>239</ele>
		<time>2011-09-11T09:14:57.873Z</time>
		<geoidheight>193</geoidheight>
	</trkpt>
	<trkpt lat="50.721249" lon="6.196330">
		<ele>239</ele>
		<time>2011-09-11T09:14:58.883Z</time>
		<geoidheight>193</geoidheight>
	</trkpt>
	<trkpt lat="50.721248" lon="6.196355">
		<ele>239</ele>
		<time>2011-09-11T09:14:59.894Z</time>
		<geoidheight>193</geoidheight>
	</trkpt>
	<trkpt lat="50.721248" lon="6.196379">
		<ele>239</ele>
		<time>2011-09-11T09:15:00.880Z</time>
		<geoidheight>193</geoidheight>
	</trkpt>
	<trkpt lat="50.721247" lon="6.196401">
		<ele>239</ele>
		<time>2011-09-11T09:15:01.884Z</time>
		<geoidheight>193</geoidheight>
	</trkpt>
	<trkpt lat="50.721246" lon="6.196424">
		<ele>239</ele>
		<time>2011-09-11T09:15:02.887Z</time>
		<geoidheight>193</geoidheight>
	</trkpt>
	<trkpt lat="50.721246" lon="6.196442">
		<ele>239</ele>
		<time>2011-09-11T09:15:03.896Z</time>
		<geoidheight>193</geoidheight>
	</trkpt>
	<trkpt lat="50.721248" lon="6.196460">
		<ele>239</ele>
		<time>2011-09-11T09:15:04.880Z</time>
		<geoidheight>193</geoidheight>
	</trkpt>
	<trkpt lat="50.721248" lon="6.196480">
		<ele>239</ele>
		<time>2011-09-11T09:15:05.878Z</time>
		<geoidheight>193</geoidheight>
	</trkpt>
	<trkpt lat="50.721250" lon="6.196503">
		<ele>239</ele>
		<time>2011-09-11T09:15:06.878Z</time>
		<geoidheight>193</geoidheight>
	</trkpt>
	<trkpt lat="50.721251" lon="6.196526">
		<ele>239</ele>
		<time>2011-09-11T09:15:07.875Z</time>
		<geoidheight>193</geoidheight>
	</trkpt>
	<trkpt lat="50.721252" lon="6.196550">
		<ele>239</ele>
		<time>2011-09-11T09:15:08.877Z</time>
		<geoidheight>193</geoidheight>
	</trkpt>
	<trkpt lat="50.721251" lon="6.196572">
		<ele>239</ele>
		<time>2011-09-11T09:15:09.876Z</time>
		<geoidheight>193</geoidheight>
	</trkpt>
	<trkpt lat="50.721247" lon="6.196593">
		<ele>239</ele>
		<time>2011-09-11T09:15:10.869Z</time>
		<geoidheight>193</geoidheight>
	</trkpt>
	<trkpt lat="50.721242" lon="6.196612">
		<ele>239</ele>
		<time>2011-09-11T09:15:11.883Z</time>
		<geoidheight>193</geoidheight>
	</trkpt>
	<trkpt lat="50.721236" lon="6.196627">
		<ele>239</ele>
		<time>2011-09-11T09:15:12.878Z</time>
		<geoidheight>193</geoidheight>
	</trkpt>
	<trkpt lat="50.721228" lon="6.196637">
		<ele>239</ele>
		<time>2011-09-11T09:15:13.881Z</time>
		<geoidheight>193</geoidheight>
	</trkpt>
	<trkpt lat="50.721220" lon="6.196648">
		<ele>239</ele>
		<time>2011-09-11T09:15:14.883Z</time>
		<geoidheight>193</geoidheight>
	</trkpt>
	<trkpt lat="50.721211" lon="6.196656">
		<ele>239</ele>
		<time>2011-09-11T09:15:15.873Z</time>
		<geoidheight>193</geoidheight>
	</trkpt>
	<trkpt lat="50.721201" lon="6.196665">
		<ele>238</ele>
		<time>2011-09-11T09:15:16.872Z</time>
		<geoidheight>192</geoidheight>
	</trkpt>
	<trkpt lat="50.721190" lon="6.196672">
		<ele>238</ele>
		<time>2011-09-11T09:15:17.870Z</time>
		<geoidheight>192</geoidheight>
	</trkpt>
	<trkpt lat="50.721180" lon="6.196681">
		<ele>238</ele>
		<time>2011-09-11T09:15:18.875Z</time>
		<geoidheight>192</geoidheight>
	</trkpt>
	<trkpt lat="50.721170" lon="6.196691">
		<ele>238</ele>
		<time>2011-09-11T09:15:19.871Z</time>
		<geoidheight>192</geoidheight>
	</trkpt>
	<trkpt lat="50.721161" lon="6.196701">
		<ele>238</ele>
		<time>2011-09-11T09:15:20.871Z</time>
		<geoidheight>192</geoidheight>
	</trkpt>
	<trkpt lat="50.721149" lon="6.196709">
		<ele>238</ele>
		<time>2011-09-11T09:15:21.872Z</time>
		<geoidheight>192</geoidheight>
	</trkpt>
	<trkpt lat="50.721138" lon="6.196715">
		<ele>238</ele>
		<time>2011-09-11T09:15:22.873Z</time>
		<geoidheight>192</geoidheight>
	</trkpt>
	<trkpt lat="50.721126" lon="6.196719">
		<ele>238</ele>
		<time>2011-09-11T09:15:23.873Z</time>
		<geoidheight>192</geoidheight>
	</trkpt>
	<trkpt lat="50.721113" lon="6.196723">
		<ele>238</ele>
		<time>2011-09-11T09:15:24.872Z</time>
		<geoidheight>192</geoidheight>
	</trkpt>
	<trkpt lat="50.721101" lon="6.196728">
		<ele>238</ele>
		<time>2011-09-11T09:15:25.874Z</time>
		<geoidheight>192</geoidheight>
	</trkpt>
	<trkpt lat="50.721087" lon="6.196733">
		<ele>238</ele>
		<time>2011-09-11T09:15:26.872Z</time>
		<geoidheight>192</geoidheight>
	</trkpt>
	<trkpt lat="50.721071" lon="6.196735">
		<ele>238</ele>
		<time>2011-09-11T09:15:27.871Z</time>
		<geoidheight>192</geoidheight>
	</trkpt>
	<trkpt lat="50.721056" lon="6.196737">
		<ele>238</ele>
		<time>2011-09-11T09:15:28.873Z</time>
		<geoidheight>192</geoidheight>
	</trkpt>
	<trkpt lat="50.721041" lon="6.196738">
		<ele>238</ele>
		<time>2011-09-11T09:15:29.872Z</time>
		<geoidheight>192</geoidheight>
	</trkpt>
	<trkpt lat="50.721025" lon="6.196740">
		<ele>238</ele>
		<time>2011-09-11T09:15:30.871Z</time>
		<geoidheight>192</geoidheight>
	</trkpt>
	<trkpt lat="50.721011" lon="6.196744">
		<ele>238</ele>
		<time>2011-09-11T09:15:31.873Z</time>
		<geoidheight>192</geoidheight>
	</trkpt>
	<trkpt lat="50.720997" lon="6.196745">
		<ele>238</ele>
		<time>2011-09-11T09:15:32.871Z</time>
		<geoidheight>192</geoidheight>
	</trkpt>
	<trkpt lat="50.720981" lon="6.196749">
		<ele>238</ele>
		<time>2011-09-11T09:15:33.873Z</time>
		<geoidheight>192</geoidheight>
	</trkpt>
	<trkpt lat="50.720966" lon="6.196754">
		<ele>238</ele>
		<time>2011-09-11T09:15:34.871Z</time>
		<geoidheight>192</geoidheight>
	</trkpt>
	<trkpt lat="50.720950" lon="6.196757">
		<ele>238</ele>
		<time>2011-09-11T09:15:35.871Z</time>
		<geoidheight>192</geoidheight>
	</trkpt>
	<trkpt lat="50.720936" lon="6.196754">
		<ele>238</ele>
		<time>2011-09-11T09:15:36.872Z</time>
		<geoidheight>192</geoidheight>
	</trkpt>
	<trkpt lat="50.720922" lon="6.196752">
		<ele>238</ele>
		<time>2011-09-11T09:15:37.871Z</time>
		<geoidheight>192</geoidheight>
	</trkpt>
	<trkpt lat="50.720910" lon="6.196749">
		<ele>238</ele>
		<time>2011-09-11T09:15:38.873Z</time>
		<geoidheight>192</geoidheight>
	</trkpt>
	<trkpt lat="50.720901" lon="6.196745">
		<ele>238</ele>
		<time>2011-09-11T09:15:39.871Z</time>
		<geoidheight>192</geoidheight>
	</trkpt>
	<trkpt lat="50.720891" lon="6.196741">
		<ele>238</ele>
		<time>2011-09-11T09:15:40.869Z</time>
		<geoidheight>192</geoidheight>
	</trkpt>
	<trkpt lat="50.720878" lon="6.196739">
		<ele>238</ele>
		<time>2011-09-11T09:15:41.872Z</time>
		<geoidheight>192</geoidheight>
	</trkpt>
	<trkpt lat="50.720865" lon="6.196738">
		<ele>238</ele>
		<time>2011-09-11T09:15:42.872Z</time>
		<geoidheight>192</geoidheight>
	</trkpt>
	<trkpt lat="50.720853" lon="6.196738">
		<ele>238</ele>
		<time>2011-09-11T09:15:43.871Z</time>
		<geoidheight>192</geoidheight>
	</trkpt>
	<trkpt lat="50.720840" lon="6.196740">
		<ele>238</ele>
		<time>2011-09-11T09:15:44.873Z</time>
		<geoidheight>192</geoidheight>
	</trkpt>
	<trkpt lat="50.720828" lon="6.196739">
		<ele>238</ele>
		<time>2011-09-11T09:15:45.874Z</time>
		<geoidheight>192</geoidheight>
	</trkpt>
	<trkpt lat="50.720813" lon="6.196734">
		<ele>238</ele>
		<time>2011-09-11T09:15:46.871Z</time>
		<geoidheight>192</geoidheight>
	</trkpt>
	<trkpt lat="50.720798" lon="6.196725">
		<ele>238</ele>
		<time>2011-09-11T09:15:47.874Z</time>
		<geoidheight>192</geoidheight>
	</trkpt>
	<trkpt lat="50.720781" lon="6.196715">
		<ele>238</ele>
		<time>2011-09-11T09:15:48.871Z</time>
		<geoidheight>192</geoidheight>
	</trkpt>
	<trkpt lat="50.720764" lon="6.196709">
		<ele>238</ele>
		<time>2011-09-11T09:15:49.872Z</time>
		<geoidheight>192</geoidheight>
	</trkpt>
	<trkpt lat="50.720749" lon="6.196710">
		<ele>238</ele>
		<time>2011-09-11T09:15:50.872Z</time>
		<geoidheight>192</geoidheight>
	</trkpt>
	<trkpt lat="50.720734" lon="6.196704">
		<ele>238</ele>
		<time>2011-09-11T09:15:51.873Z</time>
		<geoidheight>192</geoidheight>
	</trkpt>
	<trkpt lat="50.720720" lon="6.196694">
		<ele>238</ele>
		<time>2011-09-11T09:15:52.871Z</time>
		<geoidheight>192</geoidheight>
	</trkpt>
	<trkpt lat="50.720706" lon="6.196689">
		<ele>238</ele>
		<time>2011-09-11T09:15:53.871Z</time>
		<geoidheight>192</geoidheight>
	</trkpt>
	<trkpt lat="50.720693" lon="6.196684">
		<ele>238</ele>
		<time>2011-09-11T09:15:54.873Z</time>
		<geoidheight>192</geoidheight>
	</trkpt>
	<trkpt lat="50.720680" lon="6.196683">
		<ele>238</ele>
		<time>2011-09-11T09:15:55.871Z</time>
		<geoidheight>192</geoidheight>
	</trkpt>
	<trkpt lat="50.720667" lon="6.196681">
		<ele>238</ele>
		<time>2011-09-11T09:15:56.872Z</time>
		<geoidheight>192</geoidheight>
	</trkpt>
	<trkpt lat="50.720655" lon="6.196679">
		<ele>238</ele>
		<time>2011-09-11T09:15:57.874Z</time>
		<geoidheight>192</geoidheight>
	</trkpt>
	<trkpt lat="50.720645" lon="6.196678">
		<ele>238</ele>
		<time>2011-09-11T09:15:58.871Z</time>
		<geoidheight>192</geoidheight>
	</trkpt>
	<trkpt lat="50.720634" lon="6.196677">
		<ele>238</ele>
		<time>2011-09-11T09:15:59.871Z</time>
		<geoidheight>192</geoidheight>
	</trkpt>
	<trkpt lat="50.720620" lon="6.196677">
		<ele>238</ele>
		<time>2011-09-11T09:16:00.871Z</time>
		<geoidheight>192</geoidheight>
	</trkpt>
	<trkpt lat="50.720611" lon="6.196673">
		<ele>238</ele>
		<time>2011-09-11T09:16:01.872Z</time>
		<geoidheight>192</geoidheight>
	</trkpt>
	<trkpt lat="50.720601" lon="6.196669">
		<ele>238</ele>
		<time>2011-09-11T09:16:02.871Z</time>
		<geoidheight>192</geoidheight>
	</trkpt>
	<trkpt lat="50.720591" lon="6.196661">
		<ele>238</ele>
		<time>2011-09-11T09:16:03.871Z</time>
		<geoidheight>192</geoidheight>
	</trkpt>
	<trkpt lat="50.720583" lon="6.196656">
		<ele>238</ele>
		<time>2011-09-11T09:16:04.872Z</time>
		<geoidheight>192</geoidheight>
	</trkpt>
	<trkpt lat="50.720572" lon="6.196655">
		<ele>238</ele>
		<time>2011-09-11T09:16:05.871Z</time>
		<geoidheight>192</geoidheight>
	</trkpt>
	<trkpt lat="50.720562" lon="6.196654">
		<ele>238</ele>
		<time>2011-09-11T09:16:06.871Z</time>
		<geoidheight>192</geoidheight>
	</trkpt>
	<trkpt lat="50.720554" lon="6.196652">
		<ele>238</ele>
		<time>2011-09-11T09:16:07.874Z</time>
		<geoidheight>192</geoidheight>
	</trkpt>
	<trkpt lat="50.720547" lon="6.196649">
		<ele>238</ele>
		<time>2011-09-11T09:16:08.873Z</time>
		<geoidheight>192</geoidheight>
	</trkpt>
	<trkpt lat="50.720539" lon="6.196645">
		<ele>238</ele>
		<time>2011-09-11T09:16:09.872Z</time>
		<geoidheight>192</geoidheight>
	</trkpt>
	<trkpt lat="50.720529" lon="6.196641">
		<ele>238</ele>
		<time>2011-09-11T09:16:10.873Z</time>
		<geoidheight>192</geoidheight>
	</trkpt>
	<trkpt lat="50.720520" lon="6.196642">
		<ele>238</ele>
		<time>2011-09-11T09:16:11.873Z</time>
		<geoidheight>192</geoidheight>
	</trkpt>
	<trkpt lat="50.720511" lon="6.196642">
		<ele>238</ele>
		<time>2011-09-11T09:16:12.874Z</time>
		<geoidheight>192</geoidheight>
	</trkpt>
	<trkpt lat="50.720502" lon="6.196640">
		<ele>238</ele>
		<time>2011-09-11T09:16:13.877Z</time>
		<geoidheight>192</geoidheight>
	</trkpt>
	<trkpt lat="50.720492" lon="6.196637">
		<ele>238</ele>
		<time>2011-09-11T09:16:14.875Z</time>
		<geoidheight>192</geoidheight>
	</trkpt>
	<trkpt lat="50.720482" lon="6.196636">
		<ele>238</ele>
		<time>2011-09-11T09:16:15.871Z</time>
		<geoidheight>192</geoidheight>
	</trkpt>
	<trkpt lat="50.720472" lon="6.196634">
		<ele>238</ele>
		<time>2011-09-11T09:16:16.875Z</time>
		<geoidheight>192</geoidheight>
	</trkpt>
	<trkpt lat="50.720463" lon="6.196628">
		<ele>238</ele>
		<time>2011-09-11T09:16:17.871Z</time>
		<geoidheight>192</geoidheight>
	</trkpt>
	<trkpt lat="50.720456" lon="6.196617">
		<ele>238</ele>
		<time>2011-09-11T09:16:18.872Z</time>
		<geoidheight>192</geoidheight>
	</trkpt>
	<trkpt lat="50.720448" lon="6.196608">
		<ele>238</ele>
		<time>2011-09-11T09:16:19.871Z</time>
		<geoidheight>192</geoidheight>
	</trkpt>
	<trkpt lat="50.720439" lon="6.196602">
		<ele>238</ele>
		<time>2011-09-11T09:16:20.873Z</time>
		<geoidheight>192</geoidheight>
	</trkpt>
	<trkpt lat="50.720430" lon="6.196594">
		<ele>238</ele>
		<time>2011-09-11T09:16:21.871Z</time>
		<geoidheight>192</geoidheight>
	</trkpt>
	<trkpt lat="50.720422" lon="6.196586">
		<ele>238</ele>
		<time>2011-09-11T09:16:22.872Z</time>
		<geoidheight>192</geoidheight>
	</trkpt>
	<trkpt lat="50.720414" lon="6.196579">
		<ele>238</ele>
		<time>2011-09-11T09:16:23.876Z</time>
		<geoidheight>192</geoidheight>
	</trkpt>
	<trkpt lat="50.720406" lon="6.196572">
		<ele>238</ele>
		<time>2011-09-11T09:16:24.872Z</time>
		<geoidheight>192</geoidheight>
	</trkpt>
	<trkpt lat="50.720401" lon="6.196563">
		<ele>238</ele>
		<time>2011-09-11T09:16:25.877Z</time>
		<geoidheight>192</geoidheight>
	</trkpt>
	<trkpt lat="50.720395" lon="6.196558">
		<ele>238</ele>
		<time>2011-09-11T09:16:26.877Z</time>
		<geoidheight>192</geoidheight>
	</trkpt>
	<trkpt lat="50.720388" lon="6.196561">
		<ele>238</ele>
		<time>2011-09-11T09:16:37.873Z</time>
		<geoidheight>192</geoidheight>
	</trkpt>
	<trkpt lat="50.720375" lon="6.196568">
		<ele>238</ele>
		<time>2011-09-11T09:16:38.871Z</time>
		<geoidheight>192</geoidheight>
	</trkpt>
	<trkpt lat="50.720372" lon="6.196568">
		<ele>238</ele>
		<time>2011-09-11T09:17:32.872Z</time>
		<geoidheight>192</geoidheight>
	</trkpt>
	<trkpt lat="50.720372" lon="6.196641">
		<ele>238</ele>
		<time>2011-09-11T09:17:33.873Z</time>
		<geoidheight>192</geoidheight>
	</trkpt>
	<trkpt lat="50.720372" lon="6.196641">
		<ele>238</ele>
		<time>2011-09-11T09:17:46.872Z</time>
		<geoidheight>192</geoidheight>
	</trkpt>
	<trkpt lat="50.720361" lon="6.196660">
		<ele>238</ele>
		<time>2011-09-11T09:17:47.874Z</time>
		<geoidheight>192</geoidheight>
	</trkpt>
	<trkpt lat="50.720361" lon="6.196660">
		<ele>238</ele>
		<time>2011-09-11T09:18:09.873Z</time>
		<geoidheight>192</geoidheight>
	</trkpt>
	<trkpt lat="50.720348" lon="6.196651">
		<ele>238</ele>
		<time>2011-09-11T09:18:10.873Z</time>
		<geoidheight>192</geoidheight>
	</trkpt>
	<trkpt lat="50.720343" lon="6.196645">
		<ele>238</ele>
		<time>2011-09-11T09:18:12.872Z</time>
		<geoidheight>192</geoidheight>
	</trkpt>
	<trkpt lat="50.720339" lon="6.196639">
		<ele>238</ele>
		<time>2011-09-11T09:18:13.873Z</time>
		<geoidheight>192</geoidheight>
	</trkpt>
	<trkpt lat="50.720335" lon="6.196632">
		<ele>238</ele>
		<time>2011-09-11T09:18:14.873Z</time>
		<geoidheight>192</geoidheight>
	</trkpt>
	<trkpt lat="50.720330" lon="6.196625">
		<ele>238</ele>
		<time>2011-09-11T09:18:15.873Z</time>
		<geoidheight>192</geoidheight>
	</trkpt>
	<trkpt lat="50.720325" lon="6.196617">
		<ele>238</ele>
		<time>2011-09-11T09:18:16.874Z</time>
		<geoidheight>192</geoidheight>
	</trkpt>
	<trkpt lat="50.720317" lon="6.196612">
		<ele>238</ele>
		<time>2011-09-11T09:18:17.871Z</time>
		<geoidheight>192</geoidheight>
	</trkpt>
	<trkpt lat="50.720309" lon="6.196605">
		<ele>238</ele>
		<time>2011-09-11T09:18:18.872Z</time>
		<geoidheight>192</geoidheight>
	</trkpt>
	<trkpt lat="50.720301" lon="6.196596">
		<ele>238</ele>
		<time>2011-09-11T09:18:19.874Z</time>
		<geoidheight>192</geoidheight>
	</trkpt>
	<trkpt lat="50.720292" lon="6.196586">
		<ele>238</ele>
		<time>2011-09-11T09:18:20.873Z</time>
		<geoidheight>192</geoidheight>
	</trkpt>
	<trkpt lat="50.720283" lon="6.196577">
		<ele>238</ele>
		<time>2011-09-11T09:18:21.873Z</time>
		<geoidheight>192</geoidheight>
	</trkpt>
	<trkpt lat="50.720273" lon="6.196564">
		<ele>238</ele>
		<time>2011-09-11T09:18:22.875Z</time>
		<geoidheight>192</geoidheight>
	</trkpt>
	<trkpt lat="50.720265" lon="6.196552">
		<ele>238</ele>
		<time>2011-09-11T09:18:23.874Z</time>
		<geoidheight>192</geoidheight>
	</trkpt>
	<trkpt lat="50.720261" lon="6.196536">
		<ele>238</ele>
		<time>2011-09-11T09:18:24.873Z</time>
		<geoidheight>192</geoidheight>
	</trkpt>
	<trkpt lat="50.720258" lon="6.196517">
		<ele>238</ele>
		<time>2011-09-11T09:18:25.873Z</time>
		<geoidheight>192</geoidheight>
	</trkpt>
	<trkpt lat="50.720254" lon="6.196503">
		<ele>238</ele>
		<time>2011-09-11T09:18:26.874Z</time>
		<geoidheight>192</geoidheight>
	</trkpt>
	<trkpt lat="50.720249" lon="6.196494">
		<ele>238</ele>
		<time>2011-09-11T09:18:27.873Z</time>
		<geoidheight>192</geoidheight>
	</trkpt>
	<trkpt lat="50.720244" lon="6.196485">
		<ele>238</ele>
		<time>2011-09-11T09:18:28.873Z</time>
		<geoidheight>192</geoidheight>
	</trkpt>
	<trkpt lat="50.720242" lon="6.196476">
		<ele>238</ele>
		<time>2011-09-11T09:18:29.874Z</time>
		<geoidheight>192</geoidheight>
	</trkpt>
	<trkpt lat="50.720240" lon="6.196467">
		<ele>238</ele>
		<time>2011-09-11T09:18:30.873Z</time>
		<geoidheight>192</geoidheight>
	</trkpt>
	<trkpt lat="50.720240" lon="6.196467">
		<ele>238</ele>
		<time>2011-09-11T09:18:47.873Z</time>
		<geoidheight>192</geoidheight>
	</trkpt>
	<trkpt lat="50.720229" lon="6.196490">
		<ele>238</ele>
		<time>2011-09-11T09:18:48.871Z</time>
		<geoidheight>192</geoidheight>
	</trkpt>
	<trkpt lat="50.720231" lon="6.196514">
		<ele>238</ele>
		<time>2011-09-11T09:18:49.873Z</time>
		<geoidheight>192</geoidheight>
	</trkpt>
	<trkpt lat="50.720231" lon="6.196525">
		<ele>238</ele>
		<time>2011-09-11T09:18:50.873Z</time>
		<geoidheight>192</geoidheight>
	</trkpt>
	<trkpt lat="50.720231" lon="6.196529">
		<ele>238</ele>
		<time>2011-09-11T09:18:51.872Z</time>
		<geoidheight>192</geoidheight>
	</trkpt>
	<trkpt lat="50.720230" lon="6.196538">
		<ele>238</ele>
		<time>2011-09-11T09:18:52.874Z</time>
		<geoidheight>192</geoidheight>
	</trkpt>
	<trkpt lat="50.720228" lon="6.196546">
		<ele>238</ele>
		<time>2011-09-11T09:18:53.873Z</time>
		<geoidheight>192</geoidheight>
	</trkpt>
	<trkpt lat="50.720221" lon="6.196549">
		<ele>238</ele>
		<time>2011-09-11T09:18:55.874Z</time>
		<geoidheight>192</geoidheight>
	</trkpt>
	<trkpt lat="50.720216" lon="6.196545">
		<ele>238</ele>
		<time>2011-09-11T09:18:56.873Z</time>
		<geoidheight>192</geoidheight>
	</trkpt>
	<trkpt lat="50.720216" lon="6.196545">
		<ele>238</ele>
		<time>2011-09-11T09:18:59.870Z</time>
		<geoidheight>192</geoidheight>
	</trkpt>
	<trkpt lat="50.720196" lon="6.196537">
		<ele>238</ele>
		<time>2011-09-11T09:19:01.020Z</time>
		<geoidheight>192</geoidheight>
	</trkpt>
	<trkpt lat="50.720189" lon="6.196538">
		<ele>238</ele>
		<time>2011-09-11T09:19:16.883Z</time>
		<geoidheight>192</geoidheight>
	</trkpt>
	<trkpt lat="50.720160" lon="6.196482">
		<ele>238</ele>
		<time>2011-09-11T09:19:17.873Z</time>
		<geoidheight>192</geoidheight>
	</trkpt>
	<trkpt lat="50.720156" lon="6.196481">
		<ele>238</ele>
		<time>2011-09-11T09:19:25.879Z</time>
		<geoidheight>192</geoidheight>
	</trkpt>
	<trkpt lat="50.720147" lon="6.196480">
		<ele>238</ele>
		<time>2011-09-11T09:19:26.874Z</time>
		<geoidheight>192</geoidheight>
	</trkpt>
	<trkpt lat="50.720134" lon="6.196471">
		<ele>238</ele>
		<time>2011-09-11T09:19:27.873Z</time>
		<geoidheight>192</geoidheight>
	</trkpt>
	<trkpt lat="50.720124" lon="6.196463">
		<ele>238</ele>
		<time>2011-09-11T09:19:28.874Z</time>
		<geoidheight>192</geoidheight>
	</trkpt>
	<trkpt lat="50.720113" lon="6.196452">
		<ele>238</ele>
		<time>2011-09-11T09:19:29.875Z</time>
		<geoidheight>192</geoidheight>
	</trkpt>
	<trkpt lat="50.720104" lon="6.196440">
		<ele>238</ele>
		<time>2011-09-11T09:19:30.873Z</time>
		<geoidheight>192</geoidheight>
	</trkpt>
	<trkpt lat="50.720097" lon="6.196424">
		<ele>238</ele>
		<time>2011-09-11T09:19:31.873Z</time>
		<geoidheight>192</geoidheight>
	</trkpt>
	<trkpt lat="50.720089" lon="6.196410">
		<ele>238</ele>
		<time>2011-09-11T09:19:32.876Z</time>
		<geoidheight>192</geoidheight>
	</trkpt>
	<trkpt lat="50.720080" lon="6.196395">
		<ele>238</ele>
		<time>2011-09-11T09:19:33.874Z</time>
		<geoidheight>192</geoidheight>
	</trkpt>
	<trkpt lat="50.720071" lon="6.196384">
		<ele>238</ele>
		<time>2011-09-11T09:19:34.873Z</time>
		<geoidheight>192</geoidheight>
	</trkpt>
	<trkpt lat="50.720062" lon="6.196373">
		<ele>238</ele>
		<time>2011-09-11T09:19:35.876Z</time>
		<geoidheight>192</geoidheight>
	</trkpt>
	<trkpt lat="50.720053" lon="6.196363">
		<ele>238</ele>
		<time>2011-09-11T09:19:36.873Z</time>
		<geoidheight>192</geoidheight>
	</trkpt>
	<trkpt lat="50.720045" lon="6.196352">
		<ele>238</ele>
		<time>2011-09-11T09:19:37.874Z</time>
		<geoidheight>192</geoidheight>
	</trkpt>
	<trkpt lat="50.720037" lon="6.196343">
		<ele>238</ele>
		<time>2011-09-11T09:19:38.875Z</time>
		<geoidheight>192</geoidheight>
	</trkpt>
	<trkpt lat="50.720029" lon="6.196333">
		<ele>238</ele>
		<time>2011-09-11T09:19:39.872Z</time>
		<geoidheight>192</geoidheight>
	</trkpt>
	<trkpt lat="50.720019" lon="6.196325">
		<ele>238</ele>
		<time>2011-09-11T09:19:40.874Z</time>
		<geoidheight>192</geoidheight>
	</trkpt>
	<trkpt lat="50.720008" lon="6.196317">
		<ele>238</ele>
		<time>2011-09-11T09:19:41.875Z</time>
		<geoidheight>192</geoidheight>
	</trkpt>
	<trkpt lat="50.719998" lon="6.196309">
		<ele>238</ele>
		<time>2011-09-11T09:19:42.876Z</time>
		<geoidheight>192</geoidheight>
	</trkpt>
	<trkpt lat="50.719989" lon="6.196301">
		<ele>238</ele>
		<time>2011-09-11T09:19:43.873Z</time>
		<geoidheight>192</geoidheight>
	</trkpt>
	<trkpt lat="50.719979" lon="6.196295">
		<ele>238</ele>
		<time>2011-09-11T09:19:44.874Z</time>
		<geoidheight>192</geoidheight>
	</trkpt>
	<trkpt lat="50.719970" lon="6.196286">
		<ele>238</ele>
		<time>2011-09-11T09:19:45.874Z</time>
		<geoidheight>192</geoidheight>
	</trkpt>
	<trkpt lat="50.719961" lon="6.196277">
		<ele>238</ele>
		<time>2011-09-11T09:19:46.874Z</time>
		<geoidheight>192</geoidheight>
	</trkpt>
	<trkpt lat="50.719949" lon="6.196269">
		<ele>238</ele>
		<time>2011-09-11T09:19:47.875Z</time>
		<geoidheight>192</geoidheight>
	</trkpt>
	<trkpt lat="50.719937" lon="6.196263">
		<ele>238</ele>
		<time>2011-09-11T09:19:48.876Z</time>
		<geoidheight>192</geoidheight>
	</trkpt>
	<trkpt lat="50.719929" lon="6.196255">
		<ele>238</ele>
		<time>2011-09-11T09:19:49.874Z</time>
		<geoidheight>192</geoidheight>
	</trkpt>
	<trkpt lat="50.719920" lon="6.196252">
		<ele>238</ele>
		<time>2011-09-11T09:19:50.874Z</time>
		<geoidheight>192</geoidheight>
	</trkpt>
	<trkpt lat="50.719912" lon="6.196247">
		<ele>238</ele>
		<time>2011-09-11T09:19:51.877Z</time>
		<geoidheight>192</geoidheight>
	</trkpt>
	<trkpt lat="50.719903" lon="6.196243">
		<ele>238</ele>
		<time>2011-09-11T09:19:52.874Z</time>
		<geoidheight>192</geoidheight>
	</trkpt>
	<trkpt lat="50.719895" lon="6.196243">
		<ele>238</ele>
		<time>2011-09-11T09:19:53.873Z</time>
		<geoidheight>192</geoidheight>
	</trkpt>
	<trkpt lat="50.719887" lon="6.196242">
		<ele>238</ele>
		<time>2011-09-11T09:19:54.875Z</time>
		<geoidheight>192</geoidheight>
	</trkpt>
	<trkpt lat="50.719878" lon="6.196239">
		<ele>238</ele>
		<time>2011-09-11T09:19:55.875Z</time>
		<geoidheight>192</geoidheight>
	</trkpt>
	<trkpt lat="50.719868" lon="6.196237">
		<ele>239</ele>
		<time>2011-09-11T09:19:56.875Z</time>
		<geoidheight>193</geoidheight>
	</trkpt>
	<trkpt lat="50.719858" lon="6.196234">
		<ele>239</ele>
		<time>2011-09-11T09:19:57.875Z</time>
		<geoidheight>193</geoidheight>
	</trkpt>
	<trkpt lat="50.719847" lon="6.196229">
		<ele>239</ele>
		<time>2011-09-11T09:19:58.876Z</time>
		<geoidheight>193</geoidheight>
	</trkpt>
	<trkpt lat="50.719836" lon="6.196227">
		<ele>239</ele>
		<time>2011-09-11T09:19:59.875Z</time>
		<geoidheight>193</geoidheight>
	</trkpt>
	<trkpt lat="50.719825" lon="6.196221">
		<ele>239</ele>
		<time>2011-09-11T09:20:00.874Z</time>
		<geoidheight>193</geoidheight>
	</trkpt>
	<trkpt lat="50.719813" lon="6.196217">
		<ele>239</ele>
		<time>2011-09-11T09:20:01.877Z</time>
		<geoidheight>193</geoidheight>
	</trkpt>
	<trkpt lat="50.719801" lon="6.196210">
		<ele>239</ele>
		<time>2011-09-11T09:20:02.874Z</time>
		<geoidheight>193</geoidheight>
	</trkpt>
	<trkpt lat="50.719788" lon="6.196205">
		<ele>239</ele>
		<time>2011-09-11T09:20:03.875Z</time>
		<geoidheight>193</geoidheight>
	</trkpt>
	<trkpt lat="50.719774" lon="6.196197">
		<ele>239</ele>
		<time>2011-09-11T09:20:04.876Z</time>
		<geoidheight>193</geoidheight>
	</trkpt>
	<trkpt lat="50.719761" lon="6.196189">
		<ele>239</ele>
		<time>2011-09-11T09:20:05.875Z</time>
		<geoidheight>193</geoidheight>
	</trkpt>
	<trkpt lat="50.719749" lon="6.196182">
		<ele>239</ele>
		<time>2011-09-11T09:20:06.873Z</time>
		<geoidheight>193</geoidheight>
	</trkpt>
	<trkpt lat="50.719735" lon="6.196178">
		<ele>239</ele>
		<time>2011-09-11T09:20:07.873Z</time>
		<geoidheight>193</geoidheight>
	</trkpt>
	<trkpt lat="50.719722" lon="6.196173">
		<ele>239</ele>
		<time>2011-09-11T09:20:08.875Z</time>
		<geoidheight>193</geoidheight>
	</trkpt>
	<trkpt lat="50.719710" lon="6.196169">
		<ele>239</ele>
		<time>2011-09-11T09:20:09.875Z</time>
		<geoidheight>193</geoidheight>
	</trkpt>
	<trkpt lat="50.719698" lon="6.196168">
		<ele>239</ele>
		<time>2011-09-11T09:20:10.874Z</time>
		<geoidheight>193</geoidheight>
	</trkpt>
	<trkpt lat="50.719687" lon="6.196167">
		<ele>239</ele>
		<time>2011-09-11T09:20:11.877Z</time>
		<geoidheight>193</geoidheight>
	</trkpt>
	<trkpt lat="50.719676" lon="6.196166">
		<ele>239</ele>
		<time>2011-09-11T09:20:12.874Z</time>
		<geoidheight>193</geoidheight>
	</trkpt>
	<trkpt lat="50.719666" lon="6.196163">
		<ele>239</ele>
		<time>2011-09-11T09:20:13.875Z</time>
		<geoidheight>193</geoidheight>
	</trkpt>
	<trkpt lat="50.719656" lon="6.196161">
		<ele>239</ele>
		<time>2011-09-11T09:20:14.875Z</time>
		<geoidheight>193</geoidheight>
	</trkpt>
	<trkpt lat="50.719646" lon="6.196157">
		<ele>239</ele>
		<time>2011-09-11T09:20:15.875Z</time>
		<geoidheight>193</geoidheight>
	</trkpt>
	<trkpt lat="50.719637" lon="6.196156">
		<ele>239</ele>
		<time>2011-09-11T09:20:16.875Z</time>
		<geoidheight>193</geoidheight>
	</trkpt>
	<trkpt lat="50.719627" lon="6.196153">
		<ele>239</ele>
		<time>2011-09-11T09:20:17.875Z</time>
		<geoidheight>193</geoidheight>
	</trkpt>
	<trkpt lat="50.719627" lon="6.196153">
		<ele>239</ele>
		<time>2011-09-11T09:20:18.875Z</time>
		<geoidheight>193</geoidheight>
	</trkpt>
	<trkpt lat="50.719619" lon="6.196152">
		<ele>239</ele>
		<time>2011-09-11T09:20:20.874Z</time>
		<geoidheight>193</geoidheight>
	</trkpt>
	<trkpt lat="50.719609" lon="6.196155">
		<ele>239</ele>
		<time>2011-09-11T09:20:21.876Z</time>
		<geoidheight>193</geoidheight>
	</trkpt>
	<trkpt lat="50.719599" lon="6.196154">
		<ele>239</ele>
		<time>2011-09-11T09:20:22.872Z</time>
		<geoidheight>193</geoidheight>
	</trkpt>
	<trkpt lat="50.719599" lon="6.196154">
		<ele>239</ele>
		<time>2011-09-11T09:20:23.874Z</time>
		<geoidheight>193</geoidheight>
	</trkpt>
	<trkpt lat="50.719599" lon="6.196154">
		<ele>239</ele>
		<time>2011-09-11T09:20:50.875Z</time>
		<geoidheight>193</geoidheight>
	</trkpt>
	<trkpt lat="50.719568" lon="6.196198">
		<ele>238</ele>
		<time>2011-09-11T09:20:51.888Z</time>
		<geoidheight>192</geoidheight>
	</trkpt>
	<trkpt lat="50.719560" lon="6.196201">
		<ele>238</ele>
		<time>2011-09-11T09:20:52.873Z</time>
		<geoidheight>192</geoidheight>
	</trkpt>
	<trkpt lat="50.719550" lon="6.196202">
		<ele>238</ele>
		<time>2011-09-11T09:20:53.879Z</time>
		<geoidheight>192</geoidheight>
	</trkpt>
	<trkpt lat="50.719539" lon="6.196203">
		<ele>238</ele>
		<time>2011-09-11T09:20:54.889Z</time>
		<geoidheight>192</geoidheight>
	</trkpt>
	<trkpt lat="50.719527" lon="6.196202">
		<ele>238</ele>
		<time>2011-09-11T09:20:55.886Z</time>
		<geoidheight>192</geoidheight>
	</trkpt>
	<trkpt lat="50.719514" lon="6.196201">
		<ele>238</ele>
		<time>2011-09-11T09:20:56.890Z</time>
		<geoidheight>192</geoidheight>
	</trkpt>
	<trkpt lat="50.719502" lon="6.196195">
		<ele>238</ele>
		<time>2011-09-11T09:20:57.880Z</time>
		<geoidheight>192</geoidheight>
	</trkpt>
	<trkpt lat="50.719491" lon="6.196190">
		<ele>238</ele>
		<time>2011-09-11T09:20:58.891Z</time>
		<geoidheight>192</geoidheight>
	</trkpt>
	<trkpt lat="50.719481" lon="6.196183">
		<ele>238</ele>
		<time>2011-09-11T09:20:59.881Z</time>
		<geoidheight>192</geoidheight>
	</trkpt>
	<trkpt lat="50.719471" lon="6.196178">
		<ele>238</ele>
		<time>2011-09-11T09:21:00.873Z</time>
		<geoidheight>192</geoidheight>
	</trkpt>
	<trkpt lat="50.719461" lon="6.196175">
		<ele>239</ele>
		<time>2011-09-11T09:21:01.875Z</time>
		<geoidheight>193</geoidheight>
	</trkpt>
	<trkpt lat="50.719450" lon="6.196172">
		<ele>239</ele>
		<time>2011-09-11T09:21:02.877Z</time>
		<geoidheight>193</geoidheight>
	</trkpt>
	<trkpt lat="50.719440" lon="6.196170">
		<ele>239</ele>
		<time>2011-09-11T09:21:03.875Z</time>
		<geoidheight>193</geoidheight>
	</trkpt>
	<trkpt lat="50.719430" lon="6.196164">
		<ele>239</ele>
		<time>2011-09-11T09:21:04.875Z</time>
		<geoidheight>193</geoidheight>
	</trkpt>
	<trkpt lat="50.719420" lon="6.196155">
		<ele>239</ele>
		<time>2011-09-11T09:21:05.875Z</time>
		<geoidheight>193</geoidheight>
	</trkpt>
	<trkpt lat="50.719411" lon="6.196147">
		<ele>239</ele>
		<time>2011-09-11T09:21:06.876Z</time>
		<geoidheight>193</geoidheight>
	</trkpt>
	<trkpt lat="50.719401" lon="6.196141">
		<ele>239</ele>
		<time>2011-09-11T09:21:07.876Z</time>
		<geoidheight>193</geoidheight>
	</trkpt>
	<trkpt lat="50.719391" lon="6.196138">
		<ele>239</ele>
		<time>2011-09-11T09:21:08.874Z</time>
		<geoidheight>193</geoidheight>
	</trkpt>
	<trkpt lat="50.719383" lon="6.196137">
		<ele>239</ele>
		<time>2011-09-11T09:21:09.876Z</time>
		<geoidheight>193</geoidheight>
	</trkpt>
	<trkpt lat="50.719374" lon="6.196139">
		<ele>239</ele>
		<time>2011-09-11T09:21:10.875Z</time>
		<geoidheight>193</geoidheight>
	</trkpt>
	<trkpt lat="50.719364" lon="6.196143">
		<ele>239</ele>
		<time>2011-09-11T09:21:11.873Z</time>
		<geoidheight>193</geoidheight>
	</trkpt>
	<trkpt lat="50.719355" lon="6.196142">
		<ele>239</ele>
		<time>2011-09-11T09:21:12.876Z</time>
		<geoidheight>193</geoidheight>
	</trkpt>
	<trkpt lat="50.719344" lon="6.196139">
		<ele>239</ele>
		<time>2011-09-11T09:21:13.874Z</time>
		<geoidheight>193</geoidheight>
	</trkpt>
	<trkpt lat="50.719334" lon="6.196133">
		<ele>239</ele>
		<time>2011-09-11T09:21:14.874Z</time>
		<geoidheight>193</geoidheight>
	</trkpt>
	<trkpt lat="50.719324" lon="6.196128">
		<ele>239</ele>
		<time>2011-09-11T09:21:15.874Z</time>
		<geoidheight>193</geoidheight>
	</trkpt>
	<trkpt lat="50.719314" lon="6.196125">
		<ele>239</ele>
		<time>2011-09-11T09:21:16.875Z</time>
		<geoidheight>193</geoidheight>
	</trkpt>
	<trkpt lat="50.719303" lon="6.196123">
		<ele>239</ele>
		<time>2011-09-11T09:21:17.874Z</time>
		<geoidheight>193</geoidheight>
	</trkpt>
	<trkpt lat="50.719293" lon="6.196121">
		<ele>239</ele>
		<time>2011-09-11T09:21:18.874Z</time>
		<geoidheight>193</geoidheight>
	</trkpt>
	<trkpt lat="50.719283" lon="6.196120">
		<ele>239</ele>
		<time>2011-09-11T09:21:19.874Z</time>
		<geoidheight>193</geoidheight>
	</trkpt>
	<trkpt lat="50.719272" lon="6.196118">
		<ele>239</ele>
		<time>2011-09-11T09:21:20.879Z</time>
		<geoidheight>193</geoidheight>
	</trkpt>
	<trkpt lat="50.719262" lon="6.196113">
		<ele>239</ele>
		<time>2011-09-11T09:21:21.883Z</time>
		<geoidheight>193</geoidheight>
	</trkpt>
	<trkpt lat="50.719252" lon="6.196109">
		<ele>239</ele>
		<time>2011-09-11T09:21:22.873Z</time>
		<geoidheight>193</geoidheight>
	</trkpt>
	<trkpt lat="50.719241" lon="6.196104">
		<ele>239</ele>
		<time>2011-09-11T09:21:23.892Z</time>
		<geoidheight>193</geoidheight>
	</trkpt>
	<trkpt lat="50.719228" lon="6.196101">
		<ele>239</ele>
		<time>2011-09-11T09:21:24.899Z</time>
		<geoidheight>193</geoidheight>
	</trkpt>
	<trkpt lat="50.719217" lon="6.196096">
		<ele>239</ele>
		<time>2011-09-11T09:21:25.897Z</time>
		<geoidheight>193</geoidheight>
	</trkpt>
	<trkpt lat="50.719207" lon="6.196093">
		<ele>239</ele>
		<time>2011-09-11T09:21:26.899Z</time>
		<geoidheight>193</geoidheight>
	</trkpt>
	<trkpt lat="50.719196" lon="6.196092">
		<ele>239</ele>
		<time>2011-09-11T09:21:27.882Z</time>
		<geoidheight>193</geoidheight>
	</trkpt>
	<trkpt lat="50.719186" lon="6.196093">
		<ele>239</ele>
		<time>2011-09-11T09:21:28.882Z</time>
		<geoidheight>193</geoidheight>
	</trkpt>
	<trkpt lat="50.719176" lon="6.196093">
		<ele>239</ele>
		<time>2011-09-11T09:21:29.881Z</time>
		<geoidheight>193</geoidheight>
	</trkpt>
	<trkpt lat="50.719166" lon="6.196092">
		<ele>239</ele>
		<time>2011-09-11T09:21:30.875Z</time>
		<geoidheight>193</geoidheight>
	</trkpt>
	<trkpt lat="50.719156" lon="6.196090">
		<ele>239</ele>
		<time>2011-09-11T09:21:31.883Z</time>
		<geoidheight>193</geoidheight>
	</trkpt>
	<trkpt lat="50.719146" lon="6.196090">
		<ele>239</ele>
		<time>2011-09-11T09:21:32.882Z</time>
		<geoidheight>193</geoidheight>
	</trkpt>
	<trkpt lat="50.719138" lon="6.196090">
		<ele>239</ele>
		<time>2011-09-11T09:21:33.879Z</time>
		<geoidheight>193</geoidheight>
	</trkpt>
	<trkpt lat="50.719129" lon="6.196095">
		<ele>239</ele>
		<time>2011-09-11T09:21:34.886Z</time>
		<geoidheight>193</geoidheight>
	</trkpt>
	<trkpt lat="50.719119" lon="6.196097">
		<ele>239</ele>
		<time>2011-09-11T09:21:35.877Z</time>
		<geoidheight>193</geoidheight>
	</trkpt>
	<trkpt lat="50.719109" lon="6.196102">
		<ele>239</ele>
		<time>2011-09-11T09:21:36.880Z</time>
		<geoidheight>193</geoidheight>
	</trkpt>
	<trkpt lat="50.719098" lon="6.196107">
		<ele>239</ele>
		<time>2011-09-11T09:21:37.891Z</time>
		<geoidheight>193</geoidheight>
	</trkpt>
	<trkpt lat="50.719086" lon="6.196111">
		<ele>239</ele>
		<time>2011-09-11T09:21:38.893Z</time>
		<geoidheight>193</geoidheight>
	</trkpt>
	<trkpt lat="50.719074" lon="6.196113">
		<ele>239</ele>
		<time>2011-09-11T09:21:39.890Z</time>
		<geoidheight>193</geoidheight>
	</trkpt>
	<trkpt lat="50.719062" lon="6.196118">
		<ele>239</ele>
		<time>2011-09-11T09:21:40.881Z</time>
		<geoidheight>193</geoidheight>
	</trkpt>
	<trkpt lat="50.719050" lon="6.196134">
		<ele>239</ele>
		<time>2011-09-11T09:21:41.898Z</time>
		<geoidheight>193</geoidheight>
	</trkpt>
	<trkpt lat="50.719037" lon="6.196142">
		<ele>239</ele>
		<time>2011-09-11T09:21:42.895Z</time>
		<geoidheight>193</geoidheight>
	</trkpt>
	<trkpt lat="50.719024" lon="6.196151">
		<ele>239</ele>
		<time>2011-09-11T09:21:43.901Z</time>
		<geoidheight>193</geoidheight>
	</trkpt>
	<trkpt lat="50.719011" lon="6.196156">
		<ele>239</ele>
		<time>2011-09-11T09:21:44.886Z</time>
		<geoidheight>193</geoidheight>
	</trkpt>
	<trkpt lat="50.718999" lon="6.196166">
		<ele>239</ele>
		<time>2011-09-11T09:21:45.886Z</time>
		<geoidheight>193</geoidheight>
	</trkpt>
	<trkpt lat="50.718987" lon="6.196173">
		<ele>239</ele>
		<time>2011-09-11T09:21:46.875Z</time>
		<geoidheight>193</geoidheight>
	</trkpt>
	<trkpt lat="50.718976" lon="6.196180">
		<ele>239</ele>
		<time>2011-09-11T09:21:47.879Z</time>
		<geoidheight>193</geoidheight>
	</trkpt>
	<trkpt lat="50.718968" lon="6.196186">
		<ele>239</ele>
		<time>2011-09-11T09:21:48.875Z</time>
		<geoidheight>193</geoidheight>
	</trkpt>
	<trkpt lat="50.718960" lon="6.196187">
		<ele>238</ele>
		<time>2011-09-11T09:21:58.889Z</time>
		<geoidheight>192</geoidheight>
	</trkpt>
	<trkpt lat="50.718936" lon="6.196126">
		<ele>238</ele>
		<time>2011-09-11T09:21:59.885Z</time>
		<geoidheight>192</geoidheight>
	</trkpt>
	<trkpt lat="50.718936" lon="6.196126">
		<ele>238</ele>
		<time>2011-09-11T09:22:04.881Z</time>
		<geoidheight>192</geoidheight>
	</trkpt>
	<trkpt lat="50.718895" lon="6.196080">
		<ele>238</ele>
		<time>2011-09-11T09:22:05.886Z</time>
		<geoidheight>192</geoidheight>
	</trkpt>
	<trkpt lat="50.718895" lon="6.196080">
		<ele>238</ele>
		<time>2011-09-11T09:22:06.882Z</time>
		<geoidheight>192</geoidheight>
	</trkpt>
	<trkpt lat="50.718872" lon="6.196066">
		<ele>238</ele>
		<time>2011-09-11T09:22:07.879Z</time>
		<geoidheight>192</geoidheight>
	</trkpt>
	<trkpt lat="50.718856" lon="6.196060">
		<ele>238</ele>
		<time>2011-09-11T09:22:08.887Z</time>
		<geoidheight>192</geoidheight>
	</trkpt>
	<trkpt lat="50.718842" lon="6.196054">
		<ele>238</ele>
		<time>2011-09-11T09:22:09.883Z</time>
		<geoidheight>192</geoidheight>
	</trkpt>
	<trkpt lat="50.718828" lon="6.196052">
		<ele>237</ele>
		<time>2011-09-11T09:22:10.885Z</time>
		<geoidheight>191</geoidheight>
	</trkpt>
	<trkpt lat="50.718815" lon="6.196051">
		<ele>237</ele>
		<time>2011-09-11T09:22:11.892Z</time>
		<geoidheight>191</geoidheight>
	</trkpt>
	<trkpt lat="50.718802" lon="6.196049">
		<ele>237</ele>
		<time>2011-09-11T09:22:12.878Z</time>
		<geoidheight>191</geoidheight>
	</trkpt>
	<trkpt lat="50.718788" lon="6.196050">
		<ele>237</ele>
		<time>2011-09-11T09:22:13.878Z</time>
		<geoidheight>191</geoidheight>
	</trkpt>
	<trkpt lat="50.718777" lon="6.196051">
		<ele>237</ele>
		<time>2011-09-11T09:22:14.878Z</time>
		<geoidheight>191</geoidheight>
	</trkpt>
	<trkpt lat="50.718764" lon="6.196051">
		<ele>237</ele>
		<time>2011-09-11T09:22:15.876Z</time>
		<geoidheight>191</geoidheight>
	</trkpt>
	<trkpt lat="50.718749" lon="6.196050">
		<ele>237</ele>
		<time>2011-09-11T09:22:16.875Z</time>
		<geoidheight>191</geoidheight>
	</trkpt>
	<trkpt lat="50.718733" lon="6.196048">
		<ele>237</ele>
		<time>2011-09-11T09:22:17.876Z</time>
		<geoidheight>191</geoidheight>
	</trkpt>
	<trkpt lat="50.718717" lon="6.196047">
		<ele>237</ele>
		<time>2011-09-11T09:22:18.875Z</time>
		<geoidheight>191</geoidheight>
	</trkpt>
	<trkpt lat="50.718703" lon="6.196044">
		<ele>237</ele>
		<time>2011-09-11T09:22:19.874Z</time>
		<geoidheight>191</geoidheight>
	</trkpt>
	<trkpt lat="50.718689" lon="6.196046">
		<ele>236</ele>
		<time>2011-09-11T09:22:20.877Z</time>
		<geoidheight>190</geoidheight>
	</trkpt>
	<trkpt lat="50.718675" lon="6.196051">
		<ele>236</ele>
		<time>2011-09-11T09:22:21.874Z</time>
		<geoidheight>190</geoidheight>
	</trkpt>
	<trkpt lat="50.718661" lon="6.196057">
		<ele>236</ele>
		<time>2011-09-11T09:22:22.875Z</time>
		<geoidheight>190</geoidheight>
	</trkpt>
	<trkpt lat="50.718645" lon="6.196059">
		<ele>236</ele>
		<time>2011-09-11T09:22:23.876Z</time>
		<geoidheight>190</geoidheight>
	</trkpt>
	<trkpt lat="50.718631" lon="6.196061">
		<ele>236</ele>
		<time>2011-09-11T09:22:24.874Z</time>
		<geoidheight>190</geoidheight>
	</trkpt>
	<trkpt lat="50.718619" lon="6.196062">
		<ele>236</ele>
		<time>2011-09-11T09:22:25.884Z</time>
		<geoidheight>190</geoidheight>
	</trkpt>
	<trkpt lat="50.718606" lon="6.196061">
		<ele>236</ele>
		<time>2011-09-11T09:22:26.884Z</time>
		<geoidheight>190</geoidheight>
	</trkpt>
	<trkpt lat="50.718595" lon="6.196060">
		<ele>236</ele>
		<time>2011-09-11T09:22:27.881Z</time>
		<geoidheight>190</geoidheight>
	</trkpt>
	<trkpt lat="50.718586" lon="6.196061">
		<ele>236</ele>
		<time>2011-09-11T09:22:28.880Z</time>
		<geoidheight>190</geoidheight>
	</trkpt>
	<trkpt lat="50.718576" lon="6.196064">
		<ele>235</ele>
		<time>2011-09-11T09:22:29.885Z</time>
		<geoidheight>189</geoidheight>
	</trkpt>
	<trkpt lat="50.718571" lon="6.196067">
		<ele>235</ele>
		<time>2011-09-11T09:22:35.877Z</time>
		<geoidheight>189</geoidheight>
	</trkpt>
	<trkpt lat="50.718524" lon="6.196098">
		<ele>235</ele>
		<time>2011-09-11T09:22:36.876Z</time>
		<geoidheight>189</geoidheight>
	</trkpt>
	<trkpt lat="50.718524" lon="6.196098">
		<ele>235</ele>
		<time>2011-09-11T09:22:40.888Z</time>
		<geoidheight>189</geoidheight>
	</trkpt>
	<trkpt lat="50.718487" lon="6.196174">
		<ele>235</ele>
		<time>2011-09-11T09:22:41.887Z</time>
		<geoidheight>189</geoidheight>
	</trkpt>
	<trkpt lat="50.718487" lon="6.196174">
		<ele>235</ele>
		<time>2011-09-11T09:22:43.886Z</time>
		<geoidheight>189</geoidheight>
	</trkpt>
	<trkpt lat="50.718456" lon="6.196237">
		<ele>235</ele>
		<time>2011-09-11T09:22:44.883Z</time>
		<geoidheight>189</geoidheight>
	</trkpt>
	<trkpt lat="50.718456" lon="6.196237">
		<ele>236</ele>
		<time>2011-09-11T09:22:45.883Z</time>
		<geoidheight>190</geoidheight>
	</trkpt>
	<trkpt lat="50.718432" lon="6.196259">
		<ele>236</ele>
		<time>2011-09-11T09:22:46.886Z</time>
		<geoidheight>190</geoidheight>
	</trkpt>
	<trkpt lat="50.718432" lon="6.196259">
		<ele>236</ele>
		<time>2011-09-11T09:22:47.886Z</time>
		<geoidheight>190</geoidheight>
	</trkpt>
	<trkpt lat="50.718405" lon="6.196267">
		<ele>236</ele>
		<time>2011-09-11T09:22:48.887Z</time>
		<geoidheight>190</geoidheight>
	</trkpt>
	<trkpt lat="50.718391" lon="6.196269">
		<ele>236</ele>
		<time>2011-09-11T09:22:49.885Z</time>
		<geoidheight>190</geoidheight>
	</trkpt>
	<trkpt lat="50.718379" lon="6.196272">
		<ele>236</ele>
		<time>2011-09-11T09:22:50.881Z</time>
		<geoidheight>190</geoidheight>
	</trkpt>
	<trkpt lat="50.718368" lon="6.196275">
		<ele>236</ele>
		<time>2011-09-11T09:22:51.885Z</time>
		<geoidheight>190</geoidheight>
	</trkpt>
	<trkpt lat="50.718368" lon="6.196275">
		<ele>236</ele>
		<time>2011-09-11T09:22:55.877Z</time>
		<geoidheight>190</geoidheight>
	</trkpt>
	<trkpt lat="50.718323" lon="6.196284">
		<ele>236</ele>
		<time>2011-09-11T09:22:56.876Z</time>
		<geoidheight>190</geoidheight>
	</trkpt>
	<trkpt lat="50.718323" lon="6.196284">
		<ele>236</ele>
		<time>2011-09-11T09:23:01.874Z</time>
		<geoidheight>190</geoidheight>
	</trkpt>
	<trkpt lat="50.718271" lon="6.196293">
		<ele>236</ele>
		<time>2011-09-11T09:23:02.876Z</time>
		<geoidheight>190</geoidheight>
	</trkpt>
	<trkpt lat="50.718271" lon="6.196293">
		<ele>236</ele>
		<time>2011-09-11T09:23:05.876Z</time>
		<geoidheight>190</geoidheight>
	</trkpt>
	<trkpt lat="50.718236" lon="6.196303">
		<ele>236</ele>
		<time>2011-09-11T09:23:06.874Z</time>
		<geoidheight>190</geoidheight>
	</trkpt>
	<trkpt lat="50.718226" lon="6.196310">
		<ele>236</ele>
		<time>2011-09-11T09:23:07.876Z</time>
		<geoidheight>190</geoidheight>
	</trkpt>
	<trkpt lat="50.718215" lon="6.196317">
		<ele>236</ele>
		<time>2011-09-11T09:23:08.877Z</time>
		<geoidheight>190</geoidheight>
	</trkpt>
	<trkpt lat="50.718203" lon="6.196324">
		<ele>236</ele>
		<time>2011-09-11T09:23:09.875Z</time>
		<geoidheight>190</geoidheight>
	</trkpt>
	<trkpt lat="50.718190" lon="6.196334">
		<ele>236</ele>
		<time>2011-09-11T09:23:10.876Z</time>
		<geoidheight>190</geoidheight>
	</trkpt>
	<trkpt lat="50.718176" lon="6.196342">
		<ele>236</ele>
		<time>2011-09-11T09:23:11.876Z</time>
		<geoidheight>190</geoidheight>
	</trkpt>
	<trkpt lat="50.718163" lon="6.196350">
		<ele>236</ele>
		<time>2011-09-11T09:23:12.876Z</time>
		<geoidheight>190</geoidheight>
	</trkpt>
	<trkpt lat="50.718149" lon="6.196356">
		<ele>236</ele>
		<time>2011-09-11T09:23:13.875Z</time>
		<geoidheight>190</geoidheight>
	</trkpt>
	<trkpt lat="50.718137" lon="6.196360">
		<ele>236</ele>
		<time>2011-09-11T09:23:14.877Z</time>
		<geoidheight>190</geoidheight>
	</trkpt>
	<trkpt lat="50.718124" lon="6.196362">
		<ele>236</ele>
		<time>2011-09-11T09:23:15.875Z</time>
		<geoidheight>190</geoidheight>
	</trkpt>
	<trkpt lat="50.718111" lon="6.196365">
		<ele>236</ele>
		<time>2011-09-11T09:23:16.876Z</time>
		<geoidheight>190</geoidheight>
	</trkpt>
	<trkpt lat="50.718097" lon="6.196369">
		<ele>236</ele>
		<time>2011-09-11T09:23:17.878Z</time>
		<geoidheight>190</geoidheight>
	</trkpt>
	<trkpt lat="50.718084" lon="6.196371">
		<ele>236</ele>
		<time>2011-09-11T09:23:18.876Z</time>
		<geoidheight>190</geoidheight>
	</trkpt>
	<trkpt lat="50.718071" lon="6.196378">
		<ele>236</ele>
		<time>2011-09-11T09:23:19.875Z</time>
		<geoidheight>190</geoidheight>
	</trkpt>
	<trkpt lat="50.718071" lon="6.196378">
		<ele>236</ele>
		<time>2011-09-11T09:23:22.874Z</time>
		<geoidheight>190</geoidheight>
	</trkpt>
	<trkpt lat="50.718032" lon="6.196423">
		<ele>236</ele>
		<time>2011-09-11T09:23:23.876Z</time>
		<geoidheight>190</geoidheight>
	</trkpt>
	<trkpt lat="50.718021" lon="6.196438">
		<ele>236</ele>
		<time>2011-09-11T09:23:24.877Z</time>
		<geoidheight>190</geoidheight>
	</trkpt>
	<trkpt lat="50.718010" lon="6.196451">
		<ele>236</ele>
		<time>2011-09-11T09:23:25.878Z</time>
		<geoidheight>190</geoidheight>
	</trkpt>
	<trkpt lat="50.717998" lon="6.196463">
		<ele>236</ele>
		<time>2011-09-11T09:23:26.875Z</time>
		<geoidheight>190</geoidheight>
	</trkpt>
	<trkpt lat="50.717988" lon="6.196468">
		<ele>236</ele>
		<time>2011-09-11T09:23:27.876Z</time>
		<geoidheight>190</geoidheight>
	</trkpt>
	<trkpt lat="50.717978" lon="6.196469">
		<ele>236</ele>
		<time>2011-09-11T09:23:28.876Z</time>
		<geoidheight>190</geoidheight>
	</trkpt>
	<trkpt lat="50.717968" lon="6.196467">
		<ele>236</ele>
		<time>2011-09-11T09:23:29.876Z</time>
		<geoidheight>190</geoidheight>
	</trkpt>
	<trkpt lat="50.717959" lon="6.196464">
		<ele>236</ele>
		<time>2011-09-11T09:23:30.877Z</time>
		<geoidheight>190</geoidheight>
	</trkpt>
	<trkpt lat="50.717951" lon="6.196460">
		<ele>236</ele>
		<time>2011-09-11T09:23:31.875Z</time>
		<geoidheight>190</geoidheight>
	</trkpt>
	<trkpt lat="50.717943" lon="6.196455">
		<ele>236</ele>
		<time>2011-09-11T09:23:32.875Z</time>
		<geoidheight>190</geoidheight>
	</trkpt>
	<trkpt lat="50.717936" lon="6.196450">
		<ele>236</ele>
		<time>2011-09-11T09:23:37.877Z</time>
		<geoidheight>190</geoidheight>
	</trkpt>
	<trkpt lat="50.717897" lon="6.196433">
		<ele>236</ele>
		<time>2011-09-11T09:23:38.876Z</time>
		<geoidheight>190</geoidheight>
	</trkpt>
	<trkpt lat="50.717882" lon="6.196428">
		<ele>236</ele>
		<time>2011-09-11T09:23:39.874Z</time>
		<geoidheight>190</geoidheight>
	</trkpt>
	<trkpt lat="50.717867" lon="6.196426">
		<ele>236</ele>
		<time>2011-09-11T09:23:40.877Z</time>
		<geoidheight>190</geoidheight>
	</trkpt>
	<trkpt lat="50.717850" lon="6.196424">
		<ele>236</ele>
		<time>2011-09-11T09:23:41.876Z</time>
		<geoidheight>190</geoidheight>
	</trkpt>
	<trkpt lat="50.717850" lon="6.196424">
		<ele>236</ele>
		<time>2011-09-11T09:23:42.875Z</time>
		<geoidheight>190</geoidheight>
	</trkpt>
	<trkpt lat="50.717819" lon="6.196419">
		<ele>236</ele>
		<time>2011-09-11T09:23:43.878Z</time>
		<geoidheight>190</geoidheight>
	</trkpt>
	<trkpt lat="50.717801" lon="6.196412">
		<ele>235</ele>
		<time>2011-09-11T09:23:44.875Z</time>
		<geoidheight>189</geoidheight>
	</trkpt>
	<trkpt lat="50.717783" lon="6.196407">
		<ele>235</ele>
		<time>2011-09-11T09:23:45.875Z</time>
		<geoidheight>189</geoidheight>
	</trkpt>
	<trkpt lat="50.717767" lon="6.196401">
		<ele>235</ele>
		<time>2011-09-11T09:23:46.875Z</time>
		<geoidheight>189</geoidheight>
	</trkpt>
	<trkpt lat="50.717751" lon="6.196395">
		<ele>235</ele>
		<time>2011-09-11T09:23:47.876Z</time>
		<geoidheight>189</geoidheight>
	</trkpt>
	<trkpt lat="50.717735" lon="6.196390">
		<ele>235</ele>
		<time>2011-09-11T09:23:48.875Z</time>
		<geoidheight>189</geoidheight>
	</trkpt>
	<trkpt lat="50.717720" lon="6.196385">
		<ele>235</ele>
		<time>2011-09-11T09:23:49.875Z</time>
		<geoidheight>189</geoidheight>
	</trkpt>
	<trkpt lat="50.717707" lon="6.196377">
		<ele>235</ele>
		<time>2011-09-11T09:23:50.876Z</time>
		<geoidheight>189</geoidheight>
	</trkpt>
	<trkpt lat="50.717695" lon="6.196369">
		<ele>235</ele>
		<time>2011-09-11T09:23:51.876Z</time>
		<geoidheight>189</geoidheight>
	</trkpt>
	<trkpt lat="50.717685" lon="6.196361">
		<ele>235</ele>
		<time>2011-09-11T09:23:52.878Z</time>
		<geoidheight>189</geoidheight>
	</trkpt>
	<trkpt lat="50.717674" lon="6.196353">
		<ele>235</ele>
		<time>2011-09-11T09:23:53.877Z</time>
		<geoidheight>189</geoidheight>
	</trkpt>
	<trkpt lat="50.717664" lon="6.196348">
		<ele>235</ele>
		<time>2011-09-11T09:23:54.876Z</time>
		<geoidheight>189</geoidheight>
	</trkpt>
	<trkpt lat="50.717654" lon="6.196342">
		<ele>235</ele>
		<time>2011-09-11T09:23:55.876Z</time>
		<geoidheight>189</geoidheight>
	</trkpt>
	<trkpt lat="50.717654" lon="6.196342">
		<ele>235</ele>
		<time>2011-09-11T09:24:00.887Z</time>
		<geoidheight>189</geoidheight>
	</trkpt>
	<trkpt lat="50.717606" lon="6.196323">
		<ele>234</ele>
		<time>2011-09-11T09:24:01.887Z</time>
		<geoidheight>188</geoidheight>
	</trkpt>
	<trkpt lat="50.717594" lon="6.196320">
		<ele>234</ele>
		<time>2011-09-11T09:24:02.897Z</time>
		<geoidheight>188</geoidheight>
	</trkpt>
	<trkpt lat="50.717578" lon="6.196318">
		<ele>234</ele>
		<time>2011-09-11T09:24:03.897Z</time>
		<geoidheight>188</geoidheight>
	</trkpt>
	<trkpt lat="50.717563" lon="6.196315">
		<ele>234</ele>
		<time>2011-09-11T09:24:04.888Z</time>
		<geoidheight>188</geoidheight>
	</trkpt>
	<trkpt lat="50.717563" lon="6.196315">
		<ele>234</ele>
		<time>2011-09-11T09:24:07.890Z</time>
		<geoidheight>188</geoidheight>
	</trkpt>
	<trkpt lat="50.717504" lon="6.196292">
		<ele>234</ele>
		<time>2011-09-11T09:24:08.887Z</time>
		<geoidheight>188</geoidheight>
	</trkpt>
	<trkpt lat="50.717504" lon="6.196292">
		<ele>234</ele>
		<time>2011-09-11T09:24:10.893Z</time>
		<geoidheight>188</geoidheight>
	</trkpt>
	<trkpt lat="50.717458" lon="6.196274">
		<ele>234</ele>
		<time>2011-09-11T09:24:11.885Z</time>
		<geoidheight>188</geoidheight>
	</trkpt>
	<trkpt lat="50.717458" lon="6.196274">
		<ele>233</ele>
		<time>2011-09-11T09:24:15.903Z</time>
		<geoidheight>187</geoidheight>
	</trkpt>
	<trkpt lat="50.717410" lon="6.196268">
		<ele>233</ele>
		<time>2011-09-11T09:24:16.899Z</time>
		<geoidheight>187</geoidheight>
	</trkpt>
	<trkpt lat="50.717410" lon="6.196268">
		<ele>233</ele>
		<time>2011-09-11T09:24:18.889Z</time>
		<geoidheight>187</geoidheight>
	</trkpt>
	<trkpt lat="50.717376" lon="6.196264">
		<ele>233</ele>
		<time>2011-09-11T09:24:19.893Z</time>
		<geoidheight>187</geoidheight>
	</trkpt>
	<trkpt lat="50.717364" lon="6.196265">
		<ele>233</ele>
		<time>2011-09-11T09:24:20.883Z</time>
		<geoidheight>187</geoidheight>
	</trkpt>
	<trkpt lat="50.717352" lon="6.196266">
		<ele>233</ele>
		<time>2011-09-11T09:24:21.884Z</time>
		<geoidheight>187</geoidheight>
	</trkpt>
	<trkpt lat="50.717339" lon="6.196269">
		<ele>233</ele>
		<time>2011-09-11T09:24:22.887Z</time>
		<geoidheight>187</geoidheight>
	</trkpt>
	<trkpt lat="50.717326" lon="6.196272">
		<ele>233</ele>
		<time>2011-09-11T09:24:23.889Z</time>
		<geoidheight>187</geoidheight>
	</trkpt>
	<trkpt lat="50.717313" lon="6.196275">
		<ele>233</ele>
		<time>2011-09-11T09:24:24.886Z</time>
		<geoidheight>187</geoidheight>
	</trkpt>
	<trkpt lat="50.717313" lon="6.196275">
		<ele>233</ele>
		<time>2011-09-11T09:24:25.886Z</time>
		<geoidheight>187</geoidheight>
	</trkpt>
	<trkpt lat="50.717313" lon="6.196275">
		<ele>233</ele>
		<time>2011-09-11T09:24:27.889Z</time>
		<geoidheight>187</geoidheight>
	</trkpt>
	<trkpt lat="50.717266" lon="6.196299">
		<ele>233</ele>
		<time>2011-09-11T09:24:28.888Z</time>
		<geoidheight>187</geoidheight>
	</trkpt>
	<trkpt lat="50.717266" lon="6.196299">
		<ele>232</ele>
		<time>2011-09-11T09:24:32.886Z</time>
		<geoidheight>186</geoidheight>
	</trkpt>
	<trkpt lat="50.717214" lon="6.196332">
		<ele>232</ele>
		<time>2011-09-11T09:24:33.888Z</time>
		<geoidheight>186</geoidheight>
	</trkpt>
	<trkpt lat="50.717214" lon="6.196332">
		<ele>232</ele>
		<time>2011-09-11T09:24:37.890Z</time>
		<geoidheight>186</geoidheight>
	</trkpt>
	<trkpt lat="50.717160" lon="6.196349">
		<ele>232</ele>
		<time>2011-09-11T09:24:38.885Z</time>
		<geoidheight>186</geoidheight>
	</trkpt>
	<trkpt lat="50.717150" lon="6.196350">
		<ele>232</ele>
		<time>2011-09-11T09:24:39.880Z</time>
		<geoidheight>186</geoidheight>
	</trkpt>
	<trkpt lat="50.717139" lon="6.196351">
		<ele>232</ele>
		<time>2011-09-11T09:24:40.876Z</time>
		<geoidheight>186</geoidheight>
	</trkpt>
	<trkpt lat="50.717128" lon="6.196352">
		<ele>232</ele>
		<time>2011-09-11T09:24:41.876Z</time>
		<geoidheight>186</geoidheight>
	</trkpt>
	<trkpt lat="50.717117" lon="6.196352">
		<ele>232</ele>
		<time>2011-09-11T09:24:42.876Z</time>
		<geoidheight>186</geoidheight>
	</trkpt>
	<trkpt lat="50.717106" lon="6.196352">
		<ele>232</ele>
		<time>2011-09-11T09:24:43.876Z</time>
		<geoidheight>186</geoidheight>
	</trkpt>
	<trkpt lat="50.717094" lon="6.196354">
		<ele>232</ele>
		<time>2011-09-11T09:24:44.877Z</time>
		<geoidheight>186</geoidheight>
	</trkpt>
	<trkpt lat="50.717083" lon="6.196357">
		<ele>232</ele>
		<time>2011-09-11T09:24:45.876Z</time>
		<geoidheight>186</geoidheight>
	</trkpt>
	<trkpt lat="50.717073" lon="6.196359">
		<ele>232</ele>
		<time>2011-09-11T09:24:46.875Z</time>
		<geoidheight>186</geoidheight>
	</trkpt>
	<trkpt lat="50.717073" lon="6.196359">
		<ele>232</ele>
		<time>2011-09-11T09:24:49.876Z</time>
		<geoidheight>186</geoidheight>
	</trkpt>
	<trkpt lat="50.717033" lon="6.196366">
		<ele>231</ele>
		<time>2011-09-11T09:24:50.876Z</time>
		<geoidheight>185</geoidheight>
	</trkpt>
	<trkpt lat="50.717022" lon="6.196365">
		<ele>231</ele>
		<time>2011-09-11T09:24:51.878Z</time>
		<geoidheight>185</geoidheight>
	</trkpt>
	<trkpt lat="50.717010" lon="6.196363">
		<ele>231</ele>
		<time>2011-09-11T09:24:52.876Z</time>
		<geoidheight>185</geoidheight>
	</trkpt>
	<trkpt lat="50.716998" lon="6.196364">
		<ele>231</ele>
		<time>2011-09-11T09:24:53.877Z</time>
		<geoidheight>185</geoidheight>
	</trkpt>
	<trkpt lat="50.716985" lon="6.196364">
		<ele>231</ele>
		<time>2011-09-11T09:24:54.877Z</time>
		<geoidheight>185</geoidheight>
	</trkpt>
	<trkpt lat="50.716971" lon="6.196365">
		<ele>231</ele>
		<time>2011-09-11T09:24:55.877Z</time>
		<geoidheight>185</geoidheight>
	</trkpt>
	<trkpt lat="50.716956" lon="6.196367">
		<ele>231</ele>
		<time>2011-09-11T09:24:56.875Z</time>
		<geoidheight>185</geoidheight>
	</trkpt>
	<trkpt lat="50.716943" lon="6.196371">
		<ele>231</ele>
		<time>2011-09-11T09:24:57.877Z</time>
		<geoidheight>185</geoidheight>
	</trkpt>
	<trkpt lat="50.716928" lon="6.196374">
		<ele>231</ele>
		<time>2011-09-11T09:24:58.875Z</time>
		<geoidheight>185</geoidheight>
	</trkpt>
	<trkpt lat="50.716912" lon="6.196375">
		<ele>231</ele>
		<time>2011-09-11T09:24:59.877Z</time>
		<geoidheight>185</geoidheight>
	</trkpt>
	<trkpt lat="50.716893" lon="6.196376">
		<ele>231</ele>
		<time>2011-09-11T09:25:00.877Z</time>
		<geoidheight>185</geoidheight>
	</trkpt>
	<trkpt lat="50.716875" lon="6.196375">
		<ele>231</ele>
		<time>2011-09-11T09:25:01.875Z</time>
		<geoidheight>185</geoidheight>
	</trkpt>
	<trkpt lat="50.716857" lon="6.196375">
		<ele>231</ele>
		<time>2011-09-11T09:25:02.875Z</time>
		<geoidheight>185</geoidheight>
	</trkpt>
	<trkpt lat="50.716841" lon="6.196374">
		<ele>231</ele>
		<time>2011-09-11T09:25:03.878Z</time>
		<geoidheight>185</geoidheight>
	</trkpt>
	<trkpt lat="50.716827" lon="6.196374">
		<ele>231</ele>
		<time>2011-09-11T09:25:04.878Z</time>
		<geoidheight>185</geoidheight>
	</trkpt>
	<trkpt lat="50.716813" lon="6.196374">
		<ele>231</ele>
		<time>2011-09-11T09:25:05.875Z</time>
		<geoidheight>185</geoidheight>
	</trkpt>
	<trkpt lat="50.716800" lon="6.196373">
		<ele>231</ele>
		<time>2011-09-11T09:25:06.876Z</time>
		<geoidheight>185</geoidheight>
	</trkpt>
	<trkpt lat="50.716788" lon="6.196373">
		<ele>231</ele>
		<time>2011-09-11T09:25:07.880Z</time>
		<geoidheight>185</geoidheight>
	</trkpt>
	<trkpt lat="50.716775" lon="6.196372">
		<ele>230</ele>
		<time>2011-09-11T09:25:08.877Z</time>
		<geoidheight>184</geoidheight>
	</trkpt>
	<trkpt lat="50.716763" lon="6.196372">
		<ele>230</ele>
		<time>2011-09-11T09:25:09.877Z</time>
		<geoidheight>184</geoidheight>
	</trkpt>
	<trkpt lat="50.716751" lon="6.196371">
		<ele>230</ele>
		<time>2011-09-11T09:25:10.878Z</time>
		<geoidheight>184</geoidheight>
	</trkpt>
	<trkpt lat="50.716738" lon="6.196368">
		<ele>230</ele>
		<time>2011-09-11T09:25:11.876Z</time>
		<geoidheight>184</geoidheight>
	</trkpt>
	<trkpt lat="50.716722" lon="6.196364">
		<ele>230</ele>
		<time>2011-09-11T09:25:12.876Z</time>
		<geoidheight>184</geoidheight>
	</trkpt>
	<trkpt lat="50.716706" lon="6.196361">
		<ele>230</ele>
		<time>2011-09-11T09:25:13.878Z</time>
		<geoidheight>184</geoidheight>
	</trkpt>
	<trkpt lat="50.716688" lon="6.196358">
		<ele>230</ele>
		<time>2011-09-11T09:25:14.875Z</time>
		<geoidheight>184</geoidheight>
	</trkpt>
	<trkpt lat="50.716671" lon="6.196356">
		<ele>230</ele>
		<time>2011-09-11T09:25:15.896Z</time>
		<geoidheight>184</geoidheight>
	</trkpt>
	<trkpt lat="50.716653" lon="6.196355">
		<ele>230</ele>
		<time>2011-09-11T09:25:16.878Z</time>
		<geoidheight>184</geoidheight>
	</trkpt>
	<trkpt lat="50.716635" lon="6.196353">
		<ele>230</ele>
		<time>2011-09-11T09:25:17.876Z</time>
		<geoidheight>184</geoidheight>
	</trkpt>
	<trkpt lat="50.716618" lon="6.196353">
		<ele>230</ele>
		<time>2011-09-11T09:25:18.877Z</time>
		<geoidheight>184</geoidheight>
	</trkpt>
	<trkpt lat="50.716601" lon="6.196353">
		<ele>230</ele>
		<time>2011-09-11T09:25:19.876Z</time>
		<geoidheight>184</geoidheight>
	</trkpt>
	<trkpt lat="50.716585" lon="6.196351">
		<ele>230</ele>
		<time>2011-09-11T09:25:20.876Z</time>
		<geoidheight>184</geoidheight>
	</trkpt>
	<trkpt lat="50.716570" lon="6.196349">
		<ele>230</ele>
		<time>2011-09-11T09:25:21.878Z</time>
		<geoidheight>184</geoidheight>
	</trkpt>
	<trkpt lat="50.716556" lon="6.196348">
		<ele>229</ele>
		<time>2011-09-11T09:25:22.876Z</time>
		<geoidheight>183</geoidheight>
	</trkpt>
	<trkpt lat="50.716543" lon="6.196348">
		<ele>229</ele>
		<time>2011-09-11T09:25:23.878Z</time>
		<geoidheight>183</geoidheight>
	</trkpt>
	<trkpt lat="50.716531" lon="6.196350">
		<ele>229</ele>
		<time>2011-09-11T09:25:24.877Z</time>
		<geoidheight>183</geoidheight>
	</trkpt>
	<trkpt lat="50.716519" lon="6.196352">
		<ele>229</ele>
		<time>2011-09-11T09:25:25.876Z</time>
		<geoidheight>183</geoidheight>
	</trkpt>
	<trkpt lat="50.716505" lon="6.196356">
		<ele>229</ele>
		<time>2011-09-11T09:25:26.878Z</time>
		<geoidheight>183</geoidheight>
	</trkpt>
	<trkpt lat="50.716490" lon="6.196358">
		<ele>229</ele>
		<time>2011-09-11T09:25:27.876Z</time>
		<geoidheight>183</geoidheight>
	</trkpt>
	<trkpt lat="50.716473" lon="6.196358">
		<ele>229</ele>
		<time>2011-09-11T09:25:28.878Z</time>
		<geoidheight>183</geoidheight>
	</trkpt>
	<trkpt lat="50.716457" lon="6.196357">
		<ele>229</ele>
		<time>2011-09-11T09:25:29.878Z</time>
		<geoidheight>183</geoidheight>
	</trkpt>
	<trkpt lat="50.716442" lon="6.196357">
		<ele>229</ele>
		<time>2011-09-11T09:25:30.876Z</time>
		<geoidheight>183</geoidheight>
	</trkpt>
	<trkpt lat="50.716428" lon="6.196361">
		<ele>229</ele>
		<time>2011-09-11T09:25:31.877Z</time>
		<geoidheight>183</geoidheight>
	</trkpt>
	<trkpt lat="50.716415" lon="6.196369">
		<ele>229</ele>
		<time>2011-09-11T09:25:32.877Z</time>
		<geoidheight>183</geoidheight>
	</trkpt>
	<trkpt lat="50.716401" lon="6.196376">
		<ele>229</ele>
		<time>2011-09-11T09:25:33.877Z</time>
		<geoidheight>183</geoidheight>
	</trkpt>
	<trkpt lat="50.716388" lon="6.196382">
		<ele>229</ele>
		<time>2011-09-11T09:25:34.877Z</time>
		<geoidheight>183</geoidheight>
	</trkpt>
	<trkpt lat="50.716375" lon="6.196388">
		<ele>229</ele>
		<time>2011-09-11T09:25:35.876Z</time>
		<geoidheight>183</geoidheight>
	</trkpt>
	<trkpt lat="50.716364" lon="6.196393">
		<ele>229</ele>
		<time>2011-09-11T09:25:36.877Z</time>
		<geoidheight>183</geoidheight>
	</trkpt>
	<trkpt lat="50.716352" lon="6.196399">
		<ele>229</ele>
		<time>2011-09-11T09:25:37.876Z</time>
		<geoidheight>183</geoidheight>
	</trkpt>
	<trkpt lat="50.716341" lon="6.196405">
		<ele>229</ele>
		<time>2011-09-11T09:25:38.879Z</time>
		<geoidheight>183</geoidheight>
	</trkpt>
	<trkpt lat="50.716330" lon="6.196413">
		<ele>229</ele>
		<time>2011-09-11T09:25:39.878Z</time>
		<geoidheight>183</geoidheight>
	</trkpt>
	<trkpt lat="50.716318" lon="6.196421">
		<ele>229</ele>
		<time>2011-09-11T09:25:40.877Z</time>
		<geoidheight>183</geoidheight>
	</trkpt>
	<trkpt lat="50.716305" lon="6.196429">
		<ele>229</ele>
		<time>2011-09-11T09:25:41.876Z</time>
		<geoidheight>183</geoidheight>
	</trkpt>
	<trkpt lat="50.716292" lon="6.196438">
		<ele>229</ele>
		<time>2011-09-11T09:25:42.878Z</time>
		<geoidheight>183</geoidheight>
	</trkpt>
	<trkpt lat="50.716280" lon="6.196447">
		<ele>229</ele>
		<time>2011-09-11T09:25:43.877Z</time>
		<geoidheight>183</geoidheight>
	</trkpt>
	<trkpt lat="50.716268" lon="6.196455">
		<ele>229</ele>
		<time>2011-09-11T09:25:44.877Z</time>
		<geoidheight>183</geoidheight>
	</trkpt>
	<trkpt lat="50.716256" lon="6.196466">
		<ele>228</ele>
		<time>2011-09-11T09:25:45.877Z</time>
		<geoidheight>182</geoidheight>
	</trkpt>
	<trkpt lat="50.716245" lon="6.196481">
		<ele>228</ele>
		<time>2011-09-11T09:25:46.877Z</time>
		<geoidheight>182</geoidheight>
	</trkpt>
	<trkpt lat="50.716234" lon="6.196497">
		<ele>228</ele>
		<time>2011-09-11T09:25:47.876Z</time>
		<geoidheight>182</geoidheight>
	</trkpt>
	<trkpt lat="50.716223" lon="6.196514">
		<ele>229</ele>
		<time>2011-09-11T09:25:48.878Z</time>
		<geoidheight>183</geoidheight>
	</trkpt>
	<trkpt lat="50.716213" lon="6.196528">
		<ele>229</ele>
		<time>2011-09-11T09:25:49.877Z</time>
		<geoidheight>183</geoidheight>
	</trkpt>
	<trkpt lat="50.716201" lon="6.196539">
		<ele>229</ele>
		<time>2011-09-11T09:25:50.882Z</time>
		<geoidheight>183</geoidheight>
	</trkpt>
	<trkpt lat="50.716188" lon="6.196548">
		<ele>229</ele>
		<time>2011-09-11T09:25:51.879Z</time>
		<geoidheight>183</geoidheight>
	</trkpt>
	<trkpt lat="50.716175" lon="6.196556">
		<ele>229</ele>
		<time>2011-09-11T09:25:52.878Z</time>
		<geoidheight>183</geoidheight>
	</trkpt>
	<trkpt lat="50.716162" lon="6.196561">
		<ele>229</ele>
		<time>2011-09-11T09:25:53.877Z</time>
		<geoidheight>183</geoidheight>
	</trkpt>
	<trkpt lat="50.716150" lon="6.196565">
		<ele>229</ele>
		<time>2011-09-11T09:25:54.882Z</time>
		<geoidheight>183</geoidheight>
	</trkpt>
	<trkpt lat="50.716139" lon="6.196570">
		<ele>229</ele>
		<time>2011-09-11T09:25:55.879Z</time>
		<geoidheight>183</geoidheight>
	</trkpt>
	<trkpt lat="50.716128" lon="6.196573">
		<ele>229</ele>
		<time>2011-09-11T09:25:56.881Z</time>
		<geoidheight>183</geoidheight>
	</trkpt>
	<trkpt lat="50.716117" lon="6.196575">
		<ele>229</ele>
		<time>2011-09-11T09:25:57.878Z</time>
		<geoidheight>183</geoidheight>
	</trkpt>
	<trkpt lat="50.716105" lon="6.196578">
		<ele>229</ele>
		<time>2011-09-11T09:25:58.878Z</time>
		<geoidheight>183</geoidheight>
	</trkpt>
	<trkpt lat="50.716093" lon="6.196580">
		<ele>229</ele>
		<time>2011-09-11T09:25:59.876Z</time>
		<geoidheight>183</geoidheight>
	</trkpt>
	<trkpt lat="50.716079" lon="6.196581">
		<ele>229</ele>
		<time>2011-09-11T09:26:00.876Z</time>
		<geoidheight>183</geoidheight>
	</trkpt>
	<trkpt lat="50.716065" lon="6.196582">
		<ele>229</ele>
		<time>2011-09-11T09:26:01.879Z</time>
		<geoidheight>183</geoidheight>
	</trkpt>
	<trkpt lat="50.716051" lon="6.196583">
		<ele>229</ele>
		<time>2011-09-11T09:26:02.875Z</time>
		<geoidheight>183</geoidheight>
	</trkpt>
	<trkpt lat="50.716051" lon="6.196583">
		<ele>229</ele>
		<time>2011-09-11T09:26:03.877Z</time>
		<geoidheight>183</geoidheight>
	</trkpt>
	<trkpt lat="50.716051" lon="6.196583">
		<ele>229</ele>
		<time>2011-09-11T09:26:04.878Z</time>
		<geoidheight>183</geoidheight>
	</trkpt>
	<trkpt lat="50.716020" lon="6.196590">
		<ele>229</ele>
		<time>2011-09-11T09:26:05.877Z</time>
		<geoidheight>183</geoidheight>
	</trkpt>
	<trkpt lat="50.716010" lon="6.196589">
		<ele>229</ele>
		<time>2011-09-11T09:26:06.875Z</time>
		<geoidheight>183</geoidheight>
	</trkpt>
	<trkpt lat="50.715999" lon="6.196585">
		<ele>229</ele>
		<time>2011-09-11T09:26:07.879Z</time>
		<geoidheight>183</geoidheight>
	</trkpt>
	<trkpt lat="50.715989" lon="6.196581">
		<ele>229</ele>
		<time>2011-09-11T09:26:08.878Z</time>
		<geoidheight>183</geoidheight>
	</trkpt>
	<trkpt lat="50.715980" lon="6.196576">
		<ele>229</ele>
		<time>2011-09-11T09:26:09.877Z</time>
		<geoidheight>183</geoidheight>
	</trkpt>
	<trkpt lat="50.715980" lon="6.196576">
		<ele>229</ele>
		<time>2011-09-11T09:26:16.877Z</time>
		<geoidheight>183</geoidheight>
	</trkpt>
	<trkpt lat="50.715927" lon="6.196589">
		<ele>229</ele>
		<time>2011-09-11T09:26:17.877Z</time>
		<geoidheight>183</geoidheight>
	</trkpt>
	<trkpt lat="50.715927" lon="6.196589">
		<ele>229</ele>
		<time>2011-09-11T09:26:22.876Z</time>
		<geoidheight>183</geoidheight>
	</trkpt>
	<trkpt lat="50.715878" lon="6.196564">
		<ele>229</ele>
		<time>2011-09-11T09:26:23.875Z</time>
		<geoidheight>183</geoidheight>
	</trkpt>
	<trkpt lat="50.715878" lon="6.196564">
		<ele>229</ele>
		<time>2011-09-11T09:26:28.875Z</time>
		<geoidheight>183</geoidheight>
	</trkpt>
	<trkpt lat="50.715827" lon="6.196535">
		<ele>229</ele>
		<time>2011-09-11T09:26:29.877Z</time>
		<geoidheight>183</geoidheight>
	</trkpt>
	<trkpt lat="50.715827" lon="6.196535">
		<ele>229</ele>
		<time>2011-09-11T09:26:32.875Z</time>
		<geoidheight>183</geoidheight>
	</trkpt>
	<trkpt lat="50.715783" lon="6.196513">
		<ele>229</ele>
		<time>2011-09-11T09:26:33.877Z</time>
		<geoidheight>183</geoidheight>
	</trkpt>
	<trkpt lat="50.715783" lon="6.196513">
		<ele>229</ele>
		<time>2011-09-11T09:26:37.877Z</time>
		<geoidheight>183</geoidheight>
	</trkpt>
	<trkpt lat="50.715732" lon="6.196473">
		<ele>229</ele>
		<time>2011-09-11T09:26:38.876Z</time>
		<geoidheight>183</geoidheight>
	</trkpt>
	<trkpt lat="50.715732" lon="6.196473">
		<ele>229</ele>
		<time>2011-09-11T09:26:44.892Z</time>
		<geoidheight>183</geoidheight>
	</trkpt>
	<trkpt lat="50.715702" lon="6.196416">
		<ele>229</ele>
		<time>2011-09-11T09:26:45.892Z</time>
		<geoidheight>183</geoidheight>
	</trkpt>
	<trkpt lat="50.715695" lon="6.196415">
		<ele>229</ele>
		<time>2011-09-11T09:26:56.878Z</time>
		<geoidheight>183</geoidheight>
	</trkpt>
	<trkpt lat="50.715691" lon="6.196414">
		<ele>229</ele>
		<time>2011-09-11T09:26:57.877Z</time>
		<geoidheight>183</geoidheight>
	</trkpt>
	<trkpt lat="50.715687" lon="6.196410">
		<ele>229</ele>
		<time>2011-09-11T09:26:58.877Z</time>
		<geoidheight>183</geoidheight>
	</trkpt>
	<trkpt lat="50.715683" lon="6.196405">
		<ele>229</ele>
		<time>2011-09-11T09:26:59.878Z</time>
		<geoidheight>183</geoidheight>
	</trkpt>
	<trkpt lat="50.715678" lon="6.196400">
		<ele>229</ele>
		<time>2011-09-11T09:27:00.876Z</time>
		<geoidheight>183</geoidheight>
	</trkpt>
	<trkpt lat="50.715672" lon="6.196397">
		<ele>229</ele>
		<time>2011-09-11T09:27:01.875Z</time>
		<geoidheight>183</geoidheight>
	</trkpt>
	<trkpt lat="50.715665" lon="6.196395">
		<ele>229</ele>
		<time>2011-09-11T09:27:02.879Z</time>
		<geoidheight>183</geoidheight>
	</trkpt>
	<trkpt lat="50.715659" lon="6.196393">
		<ele>229</ele>
		<time>2011-09-11T09:27:03.875Z</time>
		<geoidheight>183</geoidheight>
	</trkpt>
	<trkpt lat="50.715652" lon="6.196389">
		<ele>229</ele>
		<time>2011-09-11T09:27:04.877Z</time>
		<geoidheight>183</geoidheight>
	</trkpt>
	<trkpt lat="50.715646" lon="6.196386">
		<ele>229</ele>
		<time>2011-09-11T09:27:05.878Z</time>
		<geoidheight>183</geoidheight>
	</trkpt>
	<trkpt lat="50.715639" lon="6.196385">
		<ele>229</ele>
		<time>2011-09-11T09:27:06.877Z</time>
		<geoidheight>183</geoidheight>
	</trkpt>
	<trkpt lat="50.715631" lon="6.196383">
		<ele>229</ele>
		<time>2011-09-11T09:27:07.878Z</time>
		<geoidheight>183</geoidheight>
	</trkpt>
	<trkpt lat="50.715622" lon="6.196380">
		<ele>229</ele>
		<time>2011-09-11T09:27:08.878Z</time>
		<geoidheight>183</geoidheight>
	</trkpt>
	<trkpt lat="50.715614" lon="6.196376">
		<ele>229</ele>
		<time>2011-09-11T09:27:09.876Z</time>
		<geoidheight>183</geoidheight>
	</trkpt>
	<trkpt lat="50.715607" lon="6.196373">
		<ele>230</ele>
		<time>2011-09-11T09:27:10.880Z</time>
		<geoidheight>184</geoidheight>
	</trkpt>
	<trkpt lat="50.715600" lon="6.196369">
		<ele>230</ele>
		<time>2011-09-11T09:27:11.881Z</time>
		<geoidheight>184</geoidheight>
	</trkpt>
	<trkpt lat="50.715593" lon="6.196364">
		<ele>230</ele>
		<time>2011-09-11T09:27:12.879Z</time>
		<geoidheight>184</geoidheight>
	</trkpt>
	<trkpt lat="50.715587" lon="6.196357">
		<ele>230</ele>
		<time>2011-09-11T09:27:13.877Z</time>
		<geoidheight>184</geoidheight>
	</trkpt>
	<trkpt lat="50.715579" lon="6.196351">
		<ele>230</ele>
		<time>2011-09-11T09:27:14.876Z</time>
		<geoidheight>184</geoidheight>
	</trkpt>
	<trkpt lat="50.715571" lon="6.196344">
		<ele>230</ele>
		<time>2011-09-11T09:27:15.877Z</time>
		<geoidheight>184</geoidheight>
	</trkpt>
	<trkpt lat="50.715563" lon="6.196334">
		<ele>230</ele>
		<time>2011-09-11T09:27:16.877Z</time>
		<geoidheight>184</geoidheight>
	</trkpt>
	<trkpt lat="50.715555" lon="6.196325">
		<ele>230</ele>
		<time>2011-09-11T09:27:17.881Z</time>
		<geoidheight>184</geoidheight>
	</trkpt>
	<trkpt lat="50.715548" lon="6.196317">
		<ele>230</ele>
		<time>2011-09-11T09:27:30.877Z</time>
		<geoidheight>184</geoidheight>
	</trkpt>
	<trkpt lat="50.715553" lon="6.196346">
		<ele>230</ele>
		<time>2011-09-11T09:27:31.880Z</time>
		<geoidheight>184</geoidheight>
	</trkpt>
	<trkpt lat="50.715546" lon="6.196350">
		<ele>230</ele>
		<time>2011-09-11T09:27:32.877Z</time>
		<geoidheight>184</geoidheight>
	</trkpt>
	<trkpt lat="50.715539" lon="6.196350">
		<ele>230</ele>
		<time>2011-09-11T09:27:33.877Z</time>
		<geoidheight>184</geoidheight>
	</trkpt>
	<trkpt lat="50.715528" lon="6.196349">
		<ele>231</ele>
		<time>2011-09-11T09:27:34.879Z</time>
		<geoidheight>185</geoidheight>
	</trkpt>
	<trkpt lat="50.715518" lon="6.196346">
		<ele>231</ele>
		<time>2011-09-11T09:27:35.878Z</time>
		<geoidheight>185</geoidheight>
	</trkpt>
	<trkpt lat="50.715507" lon="6.196341">
		<ele>231</ele>
		<time>2011-09-11T09:27:36.876Z</time>
		<geoidheight>185</geoidheight>
	</trkpt>
	<trkpt lat="50.715498" lon="6.196337">
		<ele>231</ele>
		<time>2011-09-11T09:27:37.879Z</time>
		<geoidheight>185</geoidheight>
	</trkpt>
	<trkpt lat="50.715492" lon="6.196334">
		<ele>231</ele>
		<time>2011-09-11T09:27:38.877Z</time>
		<geoidheight>185</geoidheight>
	</trkpt>
	<trkpt lat="50.715486" lon="6.196335">
		<ele>231</ele>
		<time>2011-09-11T09:27:39.878Z</time>
		<geoidheight>185</geoidheight>
	</trkpt>
	<trkpt lat="50.715479" lon="6.196339">
		<ele>232</ele>
		<time>2011-09-11T09:27:40.879Z</time>
		<geoidheight>186</geoidheight>
	</trkpt>
	<trkpt lat="50.715472" lon="6.196343">
		<ele>232</ele>
		<time>2011-09-11T09:27:41.879Z</time>
		<geoidheight>186</geoidheight>
	</trkpt>
	<trkpt lat="50.715467" lon="6.196342">
		<ele>232</ele>
		<time>2011-09-11T09:27:42.876Z</time>
		<geoidheight>186</geoidheight>
	</trkpt>
	<trkpt lat="50.715461" lon="6.196342">
		<ele>232</ele>
		<time>2011-09-11T09:27:43.878Z</time>
		<geoidheight>186</geoidheight>
	</trkpt>
	<trkpt lat="50.715455" lon="6.196338">
		<ele>232</ele>
		<time>2011-09-11T09:27:44.878Z</time>
		<geoidheight>186</geoidheight>
	</trkpt>
	<trkpt lat="50.715448" lon="6.196334">
		<ele>232</ele>
		<time>2011-09-11T09:27:45.878Z</time>
		<geoidheight>186</geoidheight>
	</trkpt>
	<trkpt lat="50.715440" lon="6.196329">
		<ele>233</ele>
		<time>2011-09-11T09:27:46.879Z</time>
		<geoidheight>187</geoidheight>
	</trkpt>
	<trkpt lat="50.715432" lon="6.196320">
		<ele>233</ele>
		<time>2011-09-11T09:27:47.878Z</time>
		<geoidheight>187</geoidheight>
	</trkpt>
	<trkpt lat="50.715423" lon="6.196311">
		<ele>233</ele>
		<time>2011-09-11T09:27:48.877Z</time>
		<geoidheight>187</geoidheight>
	</trkpt>
	<trkpt lat="50.715413" lon="6.196304">
		<ele>233</ele>
		<time>2011-09-11T09:27:49.877Z</time>
		<geoidheight>187</geoidheight>
	</trkpt>
	<trkpt lat="50.715405" lon="6.196297">
		<ele>233</ele>
		<time>2011-09-11T09:27:50.888Z</time>
		<geoidheight>187</geoidheight>
	</trkpt>
	<trkpt lat="50.715398" lon="6.196290">
		<ele>233</ele>
		<time>2011-09-11T09:27:51.879Z</time>
		<geoidheight>187</geoidheight>
	</trkpt>
	<trkpt lat="50.715393" lon="6.196283">
		<ele>233</ele>
		<time>2011-09-11T09:27:52.877Z</time>
		<geoidheight>187</geoidheight>
	</trkpt>
	<trkpt lat="50.715388" lon="6.196277">
		<ele>234</ele>
		<time>2011-09-11T09:27:53.880Z</time>
		<geoidheight>188</geoidheight>
	</trkpt>
	<trkpt lat="50.715384" lon="6.196270">
		<ele>234</ele>
		<time>2011-09-11T09:27:54.878Z</time>
		<geoidheight>188</geoidheight>
	</trkpt>
	<trkpt lat="50.715379" lon="6.196265">
		<ele>234</ele>
		<time>2011-09-11T09:27:55.878Z</time>
		<geoidheight>188</geoidheight>
	</trkpt>
	<trkpt lat="50.715375" lon="6.196256">
		<ele>234</ele>
		<time>2011-09-11T09:27:56.879Z</time>
		<geoidheight>188</geoidheight>
	</trkpt>
	<trkpt lat="50.715372" lon="6.196245">
		<ele>234</ele>
		<time>2011-09-11T09:27:57.878Z</time>
		<geoidheight>188</geoidheight>
	</trkpt>
	<trkpt lat="50.715368" lon="6.196238">
		<ele>234</ele>
		<time>2011-09-11T09:27:58.878Z</time>
		<geoidheight>188</geoidheight>
	</trkpt>
	<trkpt lat="50.715361" lon="6.196238">
		<ele>234</ele>
		<time>2011-09-11T09:28:00.877Z</time>
		<geoidheight>188</geoidheight>
	</trkpt>
	<trkpt lat="50.715357" lon="6.196243">
		<ele>234</ele>
		<time>2011-09-11T09:28:01.887Z</time>
		<geoidheight>188</geoidheight>
	</trkpt>
	<trkpt lat="50.715349" lon="6.196255">
		<ele>235</ele>
		<time>2011-09-11T09:28:02.877Z</time>
		<geoidheight>189</geoidheight>
	</trkpt>
	<trkpt lat="50.715340" lon="6.196267">
		<ele>235</ele>
		<time>2011-09-11T09:28:03.892Z</time>
		<geoidheight>189</geoidheight>
	</trkpt>
	<trkpt lat="50.715329" lon="6.196274">
		<ele>235</ele>
		<time>2011-09-11T09:28:04.876Z</time>
		<geoidheight>189</geoidheight>
	</trkpt>
	<trkpt lat="50.715318" lon="6.196276">
		<ele>235</ele>
		<time>2011-09-11T09:28:05.883Z</time>
		<geoidheight>189</geoidheight>
	</trkpt>
	<trkpt lat="50.715306" lon="6.196277">
		<ele>235</ele>
		<time>2011-09-11T09:28:06.879Z</time>
		<geoidheight>189</geoidheight>
	</trkpt>
	<trkpt lat="50.715295" lon="6.196279">
		<ele>235</ele>
		<time>2011-09-11T09:28:07.878Z</time>
		<geoidheight>189</geoidheight>
	</trkpt>
	<trkpt lat="50.715284" lon="6.196285">
		<ele>235</ele>
		<time>2011-09-11T09:28:08.879Z</time>
		<geoidheight>189</geoidheight>
	</trkpt>
	<trkpt lat="50.715273" lon="6.196289">
		<ele>236</ele>
		<time>2011-09-11T09:28:09.877Z</time>
		<geoidheight>190</geoidheight>
	</trkpt>
	<trkpt lat="50.715261" lon="6.196293">
		<ele>236</ele>
		<time>2011-09-11T09:28:10.882Z</time>
		<geoidheight>190</geoidheight>
	</trkpt>
	<trkpt lat="50.715250" lon="6.196297">
		<ele>236</ele>
		<time>2011-09-11T09:28:11.877Z</time>
		<geoidheight>190</geoidheight>
	</trkpt>
	<trkpt lat="50.715239" lon="6.196304">
		<ele>236</ele>
		<time>2011-09-11T09:28:12.879Z</time>
		<geoidheight>190</geoidheight>
	</trkpt>
	<trkpt lat="50.715229" lon="6.196310">
		<ele>236</ele>
		<time>2011-09-11T09:28:13.878Z</time>
		<geoidheight>190</geoidheight>
	</trkpt>
	<trkpt lat="50.715218" lon="6.196311">
		<ele>236</ele>
		<time>2011-09-11T09:28:14.879Z</time>
		<geoidheight>190</geoidheight>
	</trkpt>
	<trkpt lat="50.715208" lon="6.196307">
		<ele>236</ele>
		<time>2011-09-11T09:28:15.879Z</time>
		<geoidheight>190</geoidheight>
	</trkpt>
	<trkpt lat="50.715200" lon="6.196306">
		<ele>237</ele>
		<time>2011-09-11T09:28:16.882Z</time>
		<geoidheight>191</geoidheight>
	</trkpt>
	<trkpt lat="50.715192" lon="6.196310">
		<ele>237</ele>
		<time>2011-09-11T09:28:17.878Z</time>
		<geoidheight>191</geoidheight>
	</trkpt>
	<trkpt lat="50.715184" lon="6.196313">
		<ele>237</ele>
		<time>2011-09-11T09:28:18.878Z</time>
		<geoidheight>191</geoidheight>
	</trkpt>
	<trkpt lat="50.715174" lon="6.196320">
		<ele>237</ele>
		<time>2011-09-11T09:28:19.879Z</time>
		<geoidheight>191</geoidheight>
	</trkpt>
	<trkpt lat="50.715164" lon="6.196322">
		<ele>237</ele>
		<time>2011-09-11T09:28:20.877Z</time>
		<geoidheight>191</geoidheight>
	</trkpt>
	<trkpt lat="50.715153" lon="6.196321">
		<ele>237</ele>
		<time>2011-09-11T09:28:21.883Z</time>
		<geoidheight>191</geoidheight>
	</trkpt>
	<trkpt lat="50.715142" lon="6.196322">
		<ele>237</ele>
		<time>2011-09-11T09:28:22.879Z</time>
		<geoidheight>191</geoidheight>
	</trkpt>
	<trkpt lat="50.715132" lon="6.196321">
		<ele>238</ele>
		<time>2011-09-11T09:28:23.878Z</time>
		<geoidheight>192</geoidheight>
	</trkpt>
	<trkpt lat="50.715122" lon="6.196319">
		<ele>238</ele>
		<time>2011-09-11T09:28:24.887Z</time>
		<geoidheight>192</geoidheight>
	</trkpt>
	<trkpt lat="50.715112" lon="6.196318">
		<ele>238</ele>
		<time>2011-09-11T09:28:25.880Z</time>
		<geoidheight>192</geoidheight>
	</trkpt>
	<trkpt lat="50.715101" lon="6.196316">
		<ele>238</ele>
		<time>2011-09-11T09:28:26.883Z</time>
		<geoidheight>192</geoidheight>
	</trkpt>
	<trkpt lat="50.715091" lon="6.196314">
		<ele>238</ele>
		<time>2011-09-11T09:28:27.878Z</time>
		<geoidheight>192</geoidheight>
	</trkpt>
	<trkpt lat="50.715081" lon="6.196319">
		<ele>238</ele>
		<time>2011-09-11T09:28:28.879Z</time>
		<geoidheight>192</geoidheight>
	</trkpt>
	<trkpt lat="50.715070" lon="6.196323">
		<ele>238</ele>
		<time>2011-09-11T09:28:29.879Z</time>
		<geoidheight>192</geoidheight>
	</trkpt>
	<trkpt lat="50.715060" lon="6.196324">
		<ele>238</ele>
		<time>2011-09-11T09:28:30.892Z</time>
		<geoidheight>192</geoidheight>
	</trkpt>
	<trkpt lat="50.715049" lon="6.196323">
		<ele>239</ele>
		<time>2011-09-11T09:28:31.880Z</time>
		<geoidheight>193</geoidheight>
	</trkpt>
	<trkpt lat="50.715038" lon="6.196325">
		<ele>239</ele>
		<time>2011-09-11T09:28:32.878Z</time>
		<geoidheight>193</geoidheight>
	</trkpt>
	<trkpt lat="50.715026" lon="6.196325">
		<ele>239</ele>
		<time>2011-09-11T09:28:33.877Z</time>
		<geoidheight>193</geoidheight>
	</trkpt>
	<trkpt lat="50.715015" lon="6.196330">
		<ele>239</ele>
		<time>2011-09-11T09:28:34.877Z</time>
		<geoidheight>193</geoidheight>
	</trkpt>
	<trkpt lat="50.715004" lon="6.196336">
		<ele>239</ele>
		<time>2011-09-11T09:28:35.879Z</time>
		<geoidheight>193</geoidheight>
	</trkpt>
	<trkpt lat="50.714990" lon="6.196339">
		<ele>239</ele>
		<time>2011-09-11T09:28:36.879Z</time>
		<geoidheight>193</geoidheight>
	</trkpt>
	<trkpt lat="50.714976" lon="6.196339">
		<ele>239</ele>
		<time>2011-09-11T09:28:37.884Z</time>
		<geoidheight>193</geoidheight>
	</trkpt>
	<trkpt lat="50.714961" lon="6.196339">
		<ele>240</ele>
		<time>2011-09-11T09:28:38.881Z</time>
		<geoidheight>194</geoidheight>
	</trkpt>
	<trkpt lat="50.714947" lon="6.196341">
		<ele>240</ele>
		<time>2011-09-11T09:28:39.880Z</time>
		<geoidheight>194</geoidheight>
	</trkpt>
	<trkpt lat="50.714934" lon="6.196345">
		<ele>240</ele>
		<time>2011-09-11T09:28:40.877Z</time>
		<geoidheight>194</geoidheight>
	</trkpt>
	<trkpt lat="50.714919" lon="6.196345">
		<ele>240</ele>
		<time>2011-09-11T09:28:41.902Z</time>
		<geoidheight>194</geoidheight>
	</trkpt>
	<trkpt lat="50.714905" lon="6.196346">
		<ele>240</ele>
		<time>2011-09-11T09:28:42.878Z</time>
		<geoidheight>194</geoidheight>
	</trkpt>
	<trkpt lat="50.714890" lon="6.196347">
		<ele>240</ele>
		<time>2011-09-11T09:28:43.878Z</time>
		<geoidheight>194</geoidheight>
	</trkpt>
	<trkpt lat="50.714876" lon="6.196350">
		<ele>240</ele>
		<time>2011-09-11T09:28:44.879Z</time>
		<geoidheight>194</geoidheight>
	</trkpt>
	<trkpt lat="50.714861" lon="6.196351">
		<ele>241</ele>
		<time>2011-09-11T09:28:45.879Z</time>
		<geoidheight>195</geoidheight>
	</trkpt>
	<trkpt lat="50.714847" lon="6.196353">
		<ele>241</ele>
		<time>2011-09-11T09:28:46.879Z</time>
		<geoidheight>195</geoidheight>
	</trkpt>
	<trkpt lat="50.714831" lon="6.196355">
		<ele>241</ele>
		<time>2011-09-11T09:28:47.903Z</time>
		<geoidheight>195</geoidheight>
	</trkpt>
	<trkpt lat="50.714817" lon="6.196355">
		<ele>241</ele>
		<time>2011-09-11T09:28:48.910Z</time>
		<geoidheight>195</geoidheight>
	</trkpt>
	<trkpt lat="50.714802" lon="6.196354">
		<ele>241</ele>
		<time>2011-09-11T09:28:49.899Z</time>
		<geoidheight>195</geoidheight>
	</trkpt>
	<trkpt lat="50.714787" lon="6.196353">
		<ele>241</ele>
		<time>2011-09-11T09:28:50.902Z</time>
		<geoidheight>195</geoidheight>
	</trkpt>
	<trkpt lat="50.714773" lon="6.196351">
		<ele>241</ele>
		<time>2011-09-11T09:28:51.900Z</time>
		<geoidheight>195</geoidheight>
	</trkpt>
	<trkpt lat="50.714759" lon="6.196350">
		<ele>241</ele>
		<time>2011-09-11T09:28:52.903Z</time>
		<geoidheight>195</geoidheight>
	</trkpt>
	<trkpt lat="50.714744" lon="6.196350">
		<ele>242</ele>
		<time>2011-09-11T09:28:53.894Z</time>
		<geoidheight>196</geoidheight>
	</trkpt>
	<trkpt lat="50.714729" lon="6.196349">
		<ele>242</ele>
		<time>2011-09-11T09:28:54.902Z</time>
		<geoidheight>196</geoidheight>
	</trkpt>
	<trkpt lat="50.714714" lon="6.196349">
		<ele>242</ele>
		<time>2011-09-11T09:28:55.900Z</time>
		<geoidheight>196</geoidheight>
	</trkpt>
	<trkpt lat="50.714699" lon="6.196350">
		<ele>242</ele>
		<time>2011-09-11T09:28:56.913Z</time>
		<geoidheight>196</geoidheight>
	</trkpt>
	<trkpt lat="50.714686" lon="6.196348">
		<ele>242</ele>
		<time>2011-09-11T09:28:57.899Z</time>
		<geoidheight>196</geoidheight>
	</trkpt>
	<trkpt lat="50.714672" lon="6.196347">
		<ele>242</ele>
		<time>2011-09-11T09:28:58.899Z</time>
		<geoidheight>196</geoidheight>
	</trkpt>
	<trkpt lat="50.714658" lon="6.196348">
		<ele>242</ele>
		<time>2011-09-11T09:28:59.897Z</time>
		<geoidheight>196</geoidheight>
	</trkpt>
	<trkpt lat="50.714645" lon="6.196345">
		<ele>242</ele>
		<time>2011-09-11T09:29:00.907Z</time>
		<geoidheight>196</geoidheight>
	</trkpt>
	<trkpt lat="50.714631" lon="6.196346">
		<ele>242</ele>
		<time>2011-09-11T09:29:01.898Z</time>
		<geoidheight>196</geoidheight>
	</trkpt>
	<trkpt lat="50.714618" lon="6.196348">
		<ele>243</ele>
		<time>2011-09-11T09:29:02.896Z</time>
		<geoidheight>197</geoidheight>
	</trkpt>
	<trkpt lat="50.714602" lon="6.196350">
		<ele>243</ele>
		<time>2011-09-11T09:29:03.893Z</time>
		<geoidheight>197</geoidheight>
	</trkpt>
	<trkpt lat="50.714588" lon="6.196355">
		<ele>243</ele>
		<time>2011-09-11T09:29:04.908Z</time>
		<geoidheight>197</geoidheight>
	</trkpt>
	<trkpt lat="50.714574" lon="6.196360">
		<ele>243</ele>
		<time>2011-09-11T09:29:05.898Z</time>
		<geoidheight>197</geoidheight>
	</trkpt>
	<trkpt lat="50.714560" lon="6.196362">
		<ele>243</ele>
		<time>2011-09-11T09:29:06.897Z</time>
		<geoidheight>197</geoidheight>
	</trkpt>
	<trkpt lat="50.714546" lon="6.196363">
		<ele>243</ele>
		<time>2011-09-11T09:29:07.898Z</time>
		<geoidheight>197</geoidheight>
	</trkpt>
	<trkpt lat="50.714533" lon="6.196364">
		<ele>243</ele>
		<time>2011-09-11T09:29:08.898Z</time>
		<geoidheight>197</geoidheight>
	</trkpt>
	<trkpt lat="50.714520" lon="6.196364">
		<ele>243</ele>
		<time>2011-09-11T09:29:09.896Z</time>
		<geoidheight>197</geoidheight>
	</trkpt>
	<trkpt lat="50.714507" lon="6.196366">
		<ele>243</ele>
		<time>2011-09-11T09:29:10.900Z</time>
		<geoidheight>197</geoidheight>
	</trkpt>
	<trkpt lat="50.714496" lon="6.196368">
		<ele>243</ele>
		<time>2011-09-11T09:29:11.896Z</time>
		<geoidheight>197</geoidheight>
	</trkpt>
	<trkpt lat="50.714486" lon="6.196367">
		<ele>244</ele>
		<time>2011-09-11T09:29:12.897Z</time>
		<geoidheight>198</geoidheight>
	</trkpt>
	<trkpt lat="50.714474" lon="6.196366">
		<ele>244</ele>
		<time>2011-09-11T09:29:13.893Z</time>
		<geoidheight>198</geoidheight>
	</trkpt>
	<trkpt lat="50.714463" lon="6.196363">
		<ele>244</ele>
		<time>2011-09-11T09:29:14.897Z</time>
		<geoidheight>198</geoidheight>
	</trkpt>
	<trkpt lat="50.714451" lon="6.196360">
		<ele>244</ele>
		<time>2011-09-11T09:29:15.899Z</time>
		<geoidheight>198</geoidheight>
	</trkpt>
	<trkpt lat="50.714438" lon="6.196359">
		<ele>244</ele>
		<time>2011-09-11T09:29:16.895Z</time>
		<geoidheight>198</geoidheight>
	</trkpt>
	<trkpt lat="50.714424" lon="6.196356">
		<ele>244</ele>
		<time>2011-09-11T09:29:17.896Z</time>
		<geoidheight>198</geoidheight>
	</trkpt>
	<trkpt lat="50.714410" lon="6.196352">
		<ele>244</ele>
		<time>2011-09-11T09:29:18.895Z</time>
		<geoidheight>198</geoidheight>
	</trkpt>
	<trkpt lat="50.714397" lon="6.196352">
		<ele>244</ele>
		<time>2011-09-11T09:29:19.911Z</time>
		<geoidheight>198</geoidheight>
	</trkpt>
	<trkpt lat="50.714386" lon="6.196348">
		<ele>244</ele>
		<time>2011-09-11T09:29:20.901Z</time>
		<geoidheight>198</geoidheight>
	</trkpt>
	<trkpt lat="50.714373" lon="6.196346">
		<ele>244</ele>
		<time>2011-09-11T09:29:21.893Z</time>
		<geoidheight>198</geoidheight>
	</trkpt>
	<trkpt lat="50.714361" lon="6.196344">
		<ele>244</ele>
		<time>2011-09-11T09:29:22.883Z</time>
		<geoidheight>198</geoidheight>
	</trkpt>
	<trkpt lat="50.714348" lon="6.196343">
		<ele>244</ele>
		<time>2011-09-11T09:29:23.880Z</time>
		<geoidheight>198</geoidheight>
	</trkpt>
	<trkpt lat="50.714337" lon="6.196340">
		<ele>244</ele>
		<time>2011-09-11T09:29:24.879Z</time>
		<geoidheight>198</geoidheight>
	</trkpt>
	<trkpt lat="50.714325" lon="6.196339">
		<ele>245</ele>
		<time>2011-09-11T09:29:25.879Z</time>
		<geoidheight>199</geoidheight>
	</trkpt>
	<trkpt lat="50.714313" lon="6.196339">
		<ele>245</ele>
		<time>2011-09-11T09:29:26.880Z</time>
		<geoidheight>199</geoidheight>
	</trkpt>
	<trkpt lat="50.714303" lon="6.196338">
		<ele>245</ele>
		<time>2011-09-11T09:29:27.880Z</time>
		<geoidheight>199</geoidheight>
	</trkpt>
	<trkpt lat="50.714293" lon="6.196339">
		<ele>245</ele>
		<time>2011-09-11T09:29:28.878Z</time>
		<geoidheight>199</geoidheight>
	</trkpt>
	<trkpt lat="50.714281" lon="6.196339">
		<ele>245</ele>
		<time>2011-09-11T09:29:29.880Z</time>
		<geoidheight>199</geoidheight>
	</trkpt>
	<trkpt lat="50.714269" lon="6.196338">
		<ele>245</ele>
		<time>2011-09-11T09:29:30.878Z</time>
		<geoidheight>199</geoidheight>
	</trkpt>
	<trkpt lat="50.714257" lon="6.196338">
		<ele>245</ele>
		<time>2011-09-11T09:29:31.877Z</time>
		<geoidheight>199</geoidheight>
	</trkpt>
	<trkpt lat="50.714244" lon="6.196338">
		<ele>245</ele>
		<time>2011-09-11T09:29:32.881Z</time>
		<geoidheight>199</geoidheight>
	</trkpt>
	<trkpt lat="50.714230" lon="6.196336">
		<ele>245</ele>
		<time>2011-09-11T09:29:33.881Z</time>
		<geoidheight>199</geoidheight>
	</trkpt>
	<trkpt lat="50.714218" lon="6.196331">
		<ele>245</ele>
		<time>2011-09-11T09:29:34.878Z</time>
		<geoidheight>199</geoidheight>
	</trkpt>
	<trkpt lat="50.714205" lon="6.196328">
		<ele>246</ele>
		<time>2011-09-11T09:29:35.877Z</time>
		<geoidheight>200</geoidheight>
	</trkpt>
	<trkpt lat="50.714193" lon="6.196326">
		<ele>246</ele>
		<time>2011-09-11T09:29:36.881Z</time>
		<geoidheight>200</geoidheight>
	</trkpt>
	<trkpt lat="50.714181" lon="6.196323">
		<ele>246</ele>
		<time>2011-09-11T09:29:37.879Z</time>
		<geoidheight>200</geoidheight>
	</trkpt>
	<trkpt lat="50.714169" lon="6.196319">
		<ele>246</ele>
		<time>2011-09-11T09:29:38.892Z</time>
		<geoidheight>200</geoidheight>
	</trkpt>
	<trkpt lat="50.714156" lon="6.196314">
		<ele>246</ele>
		<time>2011-09-11T09:29:39.879Z</time>
		<geoidheight>200</geoidheight>
	</trkpt>
	<trkpt lat="50.714143" lon="6.196309">
		<ele>246</ele>
		<time>2011-09-11T09:29:40.879Z</time>
		<geoidheight>200</geoidheight>
	</trkpt>
	<trkpt lat="50.714130" lon="6.196304">
		<ele>246</ele>
		<time>2011-09-11T09:29:41.878Z</time>
		<geoidheight>200</geoidheight>
	</trkpt>
	<trkpt lat="50.714116" lon="6.196299">
		<ele>246</ele>
		<time>2011-09-11T09:29:42.881Z</time>
		<geoidheight>200</geoidheight>
	</trkpt>
	<trkpt lat="50.714102" lon="6.196295">
		<ele>246</ele>
		<time>2011-09-11T09:29:43.877Z</time>
		<geoidheight>200</geoidheight>
	</trkpt>
	<trkpt lat="50.714088" lon="6.196290">
		<ele>247</ele>
		<time>2011-09-11T09:29:44.878Z</time>
		<geoidheight>201</geoidheight>
	</trkpt>
	<trkpt lat="50.714075" lon="6.196284">
		<ele>247</ele>
		<time>2011-09-11T09:29:45.880Z</time>
		<geoidheight>201</geoidheight>
	</trkpt>
	<trkpt lat="50.714062" lon="6.196279">
		<ele>247</ele>
		<time>2011-09-11T09:29:46.879Z</time>
		<geoidheight>201</geoidheight>
	</trkpt>
	<trkpt lat="50.714049" lon="6.196275">
		<ele>247</ele>
		<time>2011-09-11T09:29:47.879Z</time>
		<geoidheight>201</geoidheight>
	</trkpt>
	<trkpt lat="50.714037" lon="6.196272">
		<ele>247</ele>
		<time>2011-09-11T09:29:48.882Z</time>
		<geoidheight>201</geoidheight>
	</trkpt>
	<trkpt lat="50.714023" lon="6.196265">
		<ele>247</ele>
		<time>2011-09-11T09:29:49.879Z</time>
		<geoidheight>201</geoidheight>
	</trkpt>
	<trkpt lat="50.714010" lon="6.196257">
		<ele>247</ele>
		<time>2011-09-11T09:29:50.879Z</time>
		<geoidheight>201</geoidheight>
	</trkpt>
	<trkpt lat="50.713997" lon="6.196250">
		<ele>247</ele>
		<time>2011-09-11T09:29:51.882Z</time>
		<geoidheight>201</geoidheight>
	</trkpt>
	<trkpt lat="50.713985" lon="6.196246">
		<ele>247</ele>
		<time>2011-09-11T09:29:52.881Z</time>
		<geoidheight>201</geoidheight>
	</trkpt>
	<trkpt lat="50.713973" lon="6.196240">
		<ele>247</ele>
		<time>2011-09-11T09:29:53.879Z</time>
		<geoidheight>201</geoidheight>
	</trkpt>
	<trkpt lat="50.713961" lon="6.196234">
		<ele>247</ele>
		<time>2011-09-11T09:29:54.879Z</time>
		<geoidheight>201</geoidheight>
	</trkpt>
	<trkpt lat="50.713949" lon="6.196228">
		<ele>248</ele>
		<time>2011-09-11T09:29:55.882Z</time>
		<geoidheight>202</geoidheight>
	</trkpt>
	<trkpt lat="50.713937" lon="6.196222">
		<ele>248</ele>
		<time>2011-09-11T09:29:56.878Z</time>
		<geoidheight>202</geoidheight>
	</trkpt>
	<trkpt lat="50.713926" lon="6.196219">
		<ele>248</ele>
		<time>2011-09-11T09:29:57.880Z</time>
		<geoidheight>202</geoidheight>
	</trkpt>
	<trkpt lat="50.713914" lon="6.196214">
		<ele>248</ele>
		<time>2011-09-11T09:29:58.880Z</time>
		<geoidheight>202</geoidheight>
	</trkpt>
	<trkpt lat="50.713901" lon="6.196206">
		<ele>248</ele>
		<time>2011-09-11T09:29:59.877Z</time>
		<geoidheight>202</geoidheight>
	</trkpt>
	<trkpt lat="50.713889" lon="6.196197">
		<ele>248</ele>
		<time>2011-09-11T09:30:00.904Z</time>
		<geoidheight>202</geoidheight>
	</trkpt>
	<trkpt lat="50.713878" lon="6.196188">
		<ele>248</ele>
		<time>2011-09-11T09:30:01.880Z</time>
		<geoidheight>202</geoidheight>
	</trkpt>
	<trkpt lat="50.713865" lon="6.196179">
		<ele>248</ele>
		<time>2011-09-11T09:30:02.879Z</time>
		<geoidheight>202</geoidheight>
	</trkpt>
	<trkpt lat="50.713853" lon="6.196167">
		<ele>248</ele>
		<time>2011-09-11T09:30:03.879Z</time>
		<geoidheight>202</geoidheight>
	</trkpt>
	<trkpt lat="50.713840" lon="6.196157">
		<ele>248</ele>
		<time>2011-09-11T09:30:04.889Z</time>
		<geoidheight>202</geoidheight>
	</trkpt>
	<trkpt lat="50.713826" lon="6.196153">
		<ele>248</ele>
		<time>2011-09-11T09:30:05.878Z</time>
		<geoidheight>202</geoidheight>
	</trkpt>
	<trkpt lat="50.713812" lon="6.196147">
		<ele>248</ele>
		<time>2011-09-11T09:30:06.879Z</time>
		<geoidheight>202</geoidheight>
	</trkpt>
	<trkpt lat="50.713798" lon="6.196146">
		<ele>248</ele>
		<time>2011-09-11T09:30:07.880Z</time>
		<geoidheight>202</geoidheight>
	</trkpt>
	<trkpt lat="50.713783" lon="6.196143">
		<ele>249</ele>
		<time>2011-09-11T09:30:08.880Z</time>
		<geoidheight>203</geoidheight>
	</trkpt>
	<trkpt lat="50.713769" lon="6.196136">
		<ele>249</ele>
		<time>2011-09-11T09:30:09.879Z</time>
		<geoidheight>203</geoidheight>
	</trkpt>
	<trkpt lat="50.713756" lon="6.196127">
		<ele>249</ele>
		<time>2011-09-11T09:30:10.879Z</time>
		<geoidheight>203</geoidheight>
	</trkpt>
	<trkpt lat="50.713744" lon="6.196119">
		<ele>249</ele>
		<time>2011-09-11T09:30:11.880Z</time>
		<geoidheight>203</geoidheight>
	</trkpt>
	<trkpt lat="50.713732" lon="6.196111">
		<ele>249</ele>
		<time>2011-09-11T09:30:12.886Z</time>
		<geoidheight>203</geoidheight>
	</trkpt>
	<trkpt lat="50.713719" lon="6.196106">
		<ele>249</ele>
		<time>2011-09-11T09:30:13.879Z</time>
		<geoidheight>203</geoidheight>
	</trkpt>
	<trkpt lat="50.713707" lon="6.196100">
		<ele>249</ele>
		<time>2011-09-11T09:30:14.880Z</time>
		<geoidheight>203</geoidheight>
	</trkpt>
	<trkpt lat="50.713694" lon="6.196094">
		<ele>249</ele>
		<time>2011-09-11T09:30:15.914Z</time>
		<geoidheight>203</geoidheight>
	</trkpt>
	<trkpt lat="50.713683" lon="6.196088">
		<ele>249</ele>
		<time>2011-09-11T09:30:16.889Z</time>
		<geoidheight>203</geoidheight>
	</trkpt>
	<trkpt lat="50.713672" lon="6.196080">
		<ele>249</ele>
		<time>2011-09-11T09:30:17.884Z</time>
		<geoidheight>203</geoidheight>
	</trkpt>
	<trkpt lat="50.713660" lon="6.196070">
		<ele>249</ele>
		<time>2011-09-11T09:30:18.900Z</time>
		<geoidheight>203</geoidheight>
	</trkpt>
	<trkpt lat="50.713649" lon="6.196060">
		<ele>249</ele>
		<time>2011-09-11T09:30:19.888Z</time>
		<geoidheight>203</geoidheight>
	</trkpt>
	<trkpt lat="50.713637" lon="6.196051">
		<ele>249</ele>
		<time>2011-09-11T09:30:20.889Z</time>
		<geoidheight>203</geoidheight>
	</trkpt>
	<trkpt lat="50.713625" lon="6.196042">
		<ele>249</ele>
		<time>2011-09-11T09:30:21.881Z</time>
		<geoidheight>203</geoidheight>
	</trkpt>
	<trkpt lat="50.713612" lon="6.196033">
		<ele>249</ele>
		<time>2011-09-11T09:30:22.898Z</time>
		<geoidheight>203</geoidheight>
	</trkpt>
	<trkpt lat="50.713600" lon="6.196023">
		<ele>249</ele>
		<time>2011-09-11T09:30:23.895Z</time>
		<geoidheight>203</geoidheight>
	</trkpt>
	<trkpt lat="50.713588" lon="6.196014">
		<ele>249</ele>
		<time>2011-09-11T09:30:24.883Z</time>
		<geoidheight>203</geoidheight>
	</trkpt>
	<trkpt lat="50.713577" lon="6.196006">
		<ele>249</ele>
		<time>2011-09-11T09:30:25.887Z</time>
		<geoidheight>203</geoidheight>
	</trkpt>
	<trkpt lat="50.713565" lon="6.196000">
		<ele>249</ele>
		<time>2011-09-11T09:30:26.888Z</time>
		<geoidheight>203</geoidheight>
	</trkpt>
	<trkpt lat="50.713553" lon="6.195995">
		<ele>249</ele>
		<time>2011-09-11T09:30:27.886Z</time>
		<geoidheight>203</geoidheight>
	</trkpt>
	<trkpt lat="50.713541" lon="6.195990">
		<ele>250</ele>
		<time>2011-09-11T09:30:28.883Z</time>
		<geoidheight>204</geoidheight>
	</trkpt>
	<trkpt lat="50.713528" lon="6.195983">
		<ele>250</ele>
		<time>2011-09-11T09:30:29.889Z</time>
		<geoidheight>204</geoidheight>
	</trkpt>
	<trkpt lat="50.713516" lon="6.195984">
		<ele>250</ele>
		<time>2011-09-11T09:30:30.902Z</time>
		<geoidheight>204</geoidheight>
	</trkpt>
	<trkpt lat="50.713505" lon="6.195987">
		<ele>250</ele>
		<time>2011-09-11T09:30:31.894Z</time>
		<geoidheight>204</geoidheight>
	</trkpt>
	<trkpt lat="50.713495" lon="6.195995">
		<ele>250</ele>
		<time>2011-09-11T09:30:32.879Z</time>
		<geoidheight>204</geoidheight>
	</trkpt>
	<trkpt lat="50.713485" lon="6.196003">
		<ele>250</ele>
		<time>2011-09-11T09:30:33.882Z</time>
		<geoidheight>204</geoidheight>
	</trkpt>
	<trkpt lat="50.713477" lon="6.196011">
		<ele>250</ele>
		<time>2011-09-11T09:30:34.878Z</time>
		<geoidheight>204</geoidheight>
	</trkpt>
	<trkpt lat="50.713471" lon="6.196018">
		<ele>250</ele>
		<time>2011-09-11T09:30:35.878Z</time>
		<geoidheight>204</geoidheight>
	</trkpt>
	<trkpt lat="50.713464" lon="6.196028">
		<ele>250</ele>
		<time>2011-09-11T09:30:36.877Z</time>
		<geoidheight>204</geoidheight>
	</trkpt>
	<trkpt lat="50.713457" lon="6.196039">
		<ele>250</ele>
		<time>2011-09-11T09:30:37.881Z</time>
		<geoidheight>204</geoidheight>
	</trkpt>
	<trkpt lat="50.713449" lon="6.196051">
		<ele>250</ele>
		<time>2011-09-11T09:30:38.879Z</time>
		<geoidheight>204</geoidheight>
	</trkpt>
	<trkpt lat="50.713440" lon="6.196062">
		<ele>250</ele>
		<time>2011-09-11T09:30:39.881Z</time>
		<geoidheight>204</geoidheight>
	</trkpt>
	<trkpt lat="50.713430" lon="6.196074">
		<ele>250</ele>
		<time>2011-09-11T09:30:40.878Z</time>
		<geoidheight>204</geoidheight>
	</trkpt>
	<trkpt lat="50.713417" lon="6.196088">
		<ele>250</ele>
		<time>2011-09-11T09:30:41.886Z</time>
		<geoidheight>204</geoidheight>
	</trkpt>
	<trkpt lat="50.713405" lon="6.196100">
		<ele>250</ele>
		<time>2011-09-11T09:30:42.889Z</time>
		<geoidheight>204</geoidheight>
	</trkpt>
	<trkpt lat="50.713394" lon="6.196111">
		<ele>250</ele>
		<time>2011-09-11T09:30:43.895Z</time>
		<geoidheight>204</geoidheight>
	</trkpt>
	<trkpt lat="50.713383" lon="6.196124">
		<ele>250</ele>
		<time>2011-09-11T09:30:44.898Z</time>
		<geoidheight>204</geoidheight>
	</trkpt>
	<trkpt lat="50.713373" lon="6.196135">
		<ele>250</ele>
		<time>2011-09-11T09:30:45.889Z</time>
		<geoidheight>204</geoidheight>
	</trkpt>
	<trkpt lat="50.713363" lon="6.196147">
		<ele>250</ele>
		<time>2011-09-11T09:30:46.889Z</time>
		<geoidheight>204</geoidheight>
	</trkpt>
	<trkpt lat="50.713353" lon="6.196159">
		<ele>250</ele>
		<time>2011-09-11T09:30:47.883Z</time>
		<geoidheight>204</geoidheight>
	</trkpt>
	<trkpt lat="50.713344" lon="6.196169">
		<ele>250</ele>
		<time>2011-09-11T09:30:48.889Z</time>
		<geoidheight>204</geoidheight>
	</trkpt>
	<trkpt lat="50.713338" lon="6.196185">
		<ele>250</ele>
		<time>2011-09-11T09:30:49.903Z</time>
		<geoidheight>204</geoidheight>
	</trkpt>
	<trkpt lat="50.713334" lon="6.196201">
		<ele>250</ele>
		<time>2011-09-11T09:30:50.904Z</time>
		<geoidheight>204</geoidheight>
	</trkpt>
	<trkpt lat="50.713331" lon="6.196219">
		<ele>250</ele>
		<time>2011-09-11T09:30:51.886Z</time>
		<geoidheight>204</geoidheight>
	</trkpt>
	<trkpt lat="50.713327" lon="6.196237">
		<ele>250</ele>
		<time>2011-09-11T09:30:52.889Z</time>
		<geoidheight>204</geoidheight>
	</trkpt>
	<trkpt lat="50.713320" lon="6.196249">
		<ele>250</ele>
		<time>2011-09-11T09:30:53.895Z</time>
		<geoidheight>204</geoidheight>
	</trkpt>
	<trkpt lat="50.713311" lon="6.196263">
		<ele>250</ele>
		<time>2011-09-11T09:30:54.891Z</time>
		<geoidheight>204</geoidheight>
	</trkpt>
	<trkpt lat="50.713306" lon="6.196282">
		<ele>250</ele>
		<time>2011-09-11T09:30:55.893Z</time>
		<geoidheight>204</geoidheight>
	</trkpt>
	<trkpt lat="50.713297" lon="6.196298">
		<ele>250</ele>
		<time>2011-09-11T09:30:56.884Z</time>
		<geoidheight>204</geoidheight>
	</trkpt>
	<trkpt lat="50.713289" lon="6.196313">
		<ele>250</ele>
		<time>2011-09-11T09:30:57.899Z</time>
		<geoidheight>204</geoidheight>
	</trkpt>
	<trkpt lat="50.713280" lon="6.196326">
		<ele>250</ele>
		<time>2011-09-11T09:30:58.878Z</time>
		<geoidheight>204</geoidheight>
	</trkpt>
	<trkpt lat="50.713270" lon="6.196335">
		<ele>250</ele>
		<time>2011-09-11T09:30:59.888Z</time>
		<geoidheight>204</geoidheight>
	</trkpt>
	<trkpt lat="50.713259" lon="6.196348">
		<ele>250</ele>
		<time>2011-09-11T09:31:00.886Z</time>
		<geoidheight>204</geoidheight>
	</trkpt>
	<trkpt lat="50.713247" lon="6.196355">
		<ele>250</ele>
		<time>2011-09-11T09:31:01.885Z</time>
		<geoidheight>204</geoidheight>
	</trkpt>
	<trkpt lat="50.713235" lon="6.196360">
		<ele>250</ele>
		<time>2011-09-11T09:31:02.885Z</time>
		<geoidheight>204</geoidheight>
	</trkpt>
	<trkpt lat="50.713220" lon="6.196365">
		<ele>250</ele>
		<time>2011-09-11T09:31:03.893Z</time>
		<geoidheight>204</geoidheight>
	</trkpt>
	<trkpt lat="50.713203" lon="6.196368">
		<ele>250</ele>
		<time>2011-09-11T09:31:04.889Z</time>
		<geoidheight>204</geoidheight>
	</trkpt>
	<trkpt lat="50.713185" lon="6.196368">
		<ele>250</ele>
		<time>2011-09-11T09:31:05.888Z</time>
		<geoidheight>204</geoidheight>
	</trkpt>
	<trkpt lat="50.713166" lon="6.196370">
		<ele>250</ele>
		<time>2011-09-11T09:31:06.891Z</time>
		<geoidheight>204</geoidheight>
	</trkpt>
	<trkpt lat="50.713148" lon="6.196367">
		<ele>250</ele>
		<time>2011-09-11T09:31:07.892Z</time>
		<geoidheight>204</geoidheight>
	</trkpt>
	<trkpt lat="50.713130" lon="6.196359">
		<ele>250</ele>
		<time>2011-09-11T09:31:08.888Z</time>
		<geoidheight>204</geoidheight>
	</trkpt>
	<trkpt lat="50.713113" lon="6.196351">
		<ele>250</ele>
		<time>2011-09-11T09:31:09.886Z</time>
		<geoidheight>204</geoidheight>
	</trkpt>
	<trkpt lat="50.713097" lon="6.196342">
		<ele>250</ele>
		<time>2011-09-11T09:31:10.891Z</time>
		<geoidheight>204</geoidheight>
	</trkpt>
	<trkpt lat="50.713081" lon="6.196334">
		<ele>249</ele>
		<time>2011-09-11T09:31:11.881Z</time>
		<geoidheight>203</geoidheight>
	</trkpt>
	<trkpt lat="50.713067" lon="6.196328">
		<ele>249</ele>
		<time>2011-09-11T09:31:12.898Z</time>
		<geoidheight>203</geoidheight>
	</trkpt>
	<trkpt lat="50.713053" lon="6.196321">
		<ele>249</ele>
		<time>2011-09-11T09:31:13.880Z</time>
		<geoidheight>203</geoidheight>
	</trkpt>
	<trkpt lat="50.713040" lon="6.196317">
		<ele>249</ele>
		<time>2011-09-11T09:31:14.881Z</time>
		<geoidheight>203</geoidheight>
	</trkpt>
	<trkpt lat="50.713026" lon="6.196315">
		<ele>249</ele>
		<time>2011-09-11T09:31:15.879Z</time>
		<geoidheight>203</geoidheight>
	</trkpt>
	<trkpt lat="50.713011" lon="6.196312">
		<ele>249</ele>
		<time>2011-09-11T09:31:16.880Z</time>
		<geoidheight>203</geoidheight>
	</trkpt>
	<trkpt lat="50.712997" lon="6.196308">
		<ele>249</ele>
		<time>2011-09-11T09:31:17.879Z</time>
		<geoidheight>203</geoidheight>
	</trkpt>
	<trkpt lat="50.712982" lon="6.196303">
		<ele>249</ele>
		<time>2011-09-11T09:31:18.884Z</time>
		<geoidheight>203</geoidheight>
	</trkpt>
	<trkpt lat="50.712968" lon="6.196294">
		<ele>249</ele>
		<time>2011-09-11T09:31:19.881Z</time>
		<geoidheight>203</geoidheight>
	</trkpt>
	<trkpt lat="50.712954" lon="6.196290">
		<ele>249</ele>
		<time>2011-09-11T09:31:20.879Z</time>
		<geoidheight>203</geoidheight>
	</trkpt>
	<trkpt lat="50.712941" lon="6.196284">
		<ele>249</ele>
		<time>2011-09-11T09:31:21.880Z</time>
		<geoidheight>203</geoidheight>
	</trkpt>
	<trkpt lat="50.712927" lon="6.196280">
		<ele>249</ele>
		<time>2011-09-11T09:31:22.881Z</time>
		<geoidheight>203</geoidheight>
	</trkpt>
	<trkpt lat="50.712915" lon="6.196274">
		<ele>249</ele>
		<time>2011-09-11T09:31:23.880Z</time>
		<geoidheight>203</geoidheight>
	</trkpt>
	<trkpt lat="50.712904" lon="6.196269">
		<ele>249</ele>
		<time>2011-09-11T09:31:24.882Z</time>
		<geoidheight>203</geoidheight>
	</trkpt>
	<trkpt lat="50.712892" lon="6.196265">
		<ele>249</ele>
		<time>2011-09-11T09:31:25.880Z</time>
		<geoidheight>203</geoidheight>
	</trkpt>
	<trkpt lat="50.712881" lon="6.196261">
		<ele>249</ele>
		<time>2011-09-11T09:31:26.890Z</time>
		<geoidheight>203</geoidheight>
	</trkpt>
	<trkpt lat="50.712870" lon="6.196257">
		<ele>249</ele>
		<time>2011-09-11T09:31:27.889Z</time>
		<geoidheight>203</geoidheight>
	</trkpt>
	<trkpt lat="50.712858" lon="6.196254">
		<ele>249</ele>
		<time>2011-09-11T09:31:28.891Z</time>
		<geoidheight>203</geoidheight>
	</trkpt>
	<trkpt lat="50.712846" lon="6.196249">
		<ele>249</ele>
		<time>2011-09-11T09:31:29.891Z</time>
		<geoidheight>203</geoidheight>
	</trkpt>
	<trkpt lat="50.712835" lon="6.196245">
		<ele>249</ele>
		<time>2011-09-11T09:31:30.881Z</time>
		<geoidheight>203</geoidheight>
	</trkpt>
	<trkpt lat="50.712823" lon="6.196242">
		<ele>249</ele>
		<time>2011-09-11T09:31:31.878Z</time>
		<geoidheight>203</geoidheight>
	</trkpt>
	<trkpt lat="50.712811" lon="6.196238">
		<ele>248</ele>
		<time>2011-09-11T09:31:32.879Z</time>
		<geoidheight>202</geoidheight>
	</trkpt>
	<trkpt lat="50.712797" lon="6.196235">
		<ele>248</ele>
		<time>2011-09-11T09:31:33.880Z</time>
		<geoidheight>202</geoidheight>
	</trkpt>
	<trkpt lat="50.712783" lon="6.196232">
		<ele>248</ele>
		<time>2011-09-11T09:31:34.880Z</time>
		<geoidheight>202</geoidheight>
	</trkpt>
	<trkpt lat="50.712770" lon="6.196227">
		<ele>248</ele>
		<time>2011-09-11T09:31:35.879Z</time>
		<geoidheight>202</geoidheight>
	</trkpt>
	<trkpt lat="50.712756" lon="6.196224">
		<ele>248</ele>
		<time>2011-09-11T09:31:36.893Z</time>
		<geoidheight>202</geoidheight>
	</trkpt>
	<trkpt lat="50.712742" lon="6.196219">
		<ele>248</ele>
		<time>2011-09-11T09:31:37.881Z</time>
		<geoidheight>202</geoidheight>
	</trkpt>
	<trkpt lat="50.712729" lon="6.196215">
		<ele>248</ele>
		<time>2011-09-11T09:31:38.891Z</time>
		<geoidheight>202</geoidheight>
	</trkpt>
	<trkpt lat="50.712716" lon="6.196211">
		<ele>248</ele>
		<time>2011-09-11T09:31:39.890Z</time>
		<geoidheight>202</geoidheight>
	</trkpt>
	<trkpt lat="50.712704" lon="6.196204">
		<ele>248</ele>
		<time>2011-09-11T09:31:40.888Z</time>
		<geoidheight>202</geoidheight>
	</trkpt>
	<trkpt lat="50.712694" lon="6.196201">
		<ele>248</ele>
		<time>2011-09-11T09:31:41.879Z</time>
		<geoidheight>202</geoidheight>
	</trkpt>
	<trkpt lat="50.712684" lon="6.196198">
		<ele>248</ele>
		<time>2011-09-11T09:31:42.891Z</time>
		<geoidheight>202</geoidheight>
	</trkpt>
	<trkpt lat="50.712674" lon="6.196195">
		<ele>248</ele>
		<time>2011-09-11T09:31:43.882Z</time>
		<geoidheight>202</geoidheight>
	</trkpt>
	<trkpt lat="50.712664" lon="6.196191">
		<ele>248</ele>
		<time>2011-09-11T09:31:44.880Z</time>
		<geoidheight>202</geoidheight>
	</trkpt>
	<trkpt lat="50.712656" lon="6.196181">
		<ele>247</ele>
		<time>2011-09-11T09:31:45.879Z</time>
		<geoidheight>201</geoidheight>
	</trkpt>
	<trkpt lat="50.712646" lon="6.196177">
		<ele>247</ele>
		<time>2011-09-11T09:31:46.881Z</time>
		<geoidheight>201</geoidheight>
	</trkpt>
	<trkpt lat="50.712636" lon="6.196171">
		<ele>247</ele>
		<time>2011-09-11T09:31:47.880Z</time>
		<geoidheight>201</geoidheight>
	</trkpt>
	<trkpt lat="50.712627" lon="6.196164">
		<ele>247</ele>
		<time>2011-09-11T09:31:48.881Z</time>
		<geoidheight>201</geoidheight>
	</trkpt>
	<trkpt lat="50.712620" lon="6.196155">
		<ele>247</ele>
		<time>2011-09-11T09:31:49.879Z</time>
		<geoidheight>201</geoidheight>
	</trkpt>
	<trkpt lat="50.712611" lon="6.196148">
		<ele>247</ele>
		<time>2011-09-11T09:31:50.881Z</time>
		<geoidheight>201</geoidheight>
	</trkpt>
	<trkpt lat="50.712604" lon="6.196137">
		<ele>247</ele>
		<time>2011-09-11T09:31:51.890Z</time>
		<geoidheight>201</geoidheight>
	</trkpt>
	<trkpt lat="50.712598" lon="6.196127">
		<ele>247</ele>
		<time>2011-09-11T09:31:52.883Z</time>
		<geoidheight>201</geoidheight>
	</trkpt>
	<trkpt lat="50.712591" lon="6.196117">
		<ele>247</ele>
		<time>2011-09-11T09:31:53.880Z</time>
		<geoidheight>201</geoidheight>
	</trkpt>
	<trkpt lat="50.712584" lon="6.196106">
		<ele>247</ele>
		<time>2011-09-11T09:31:54.879Z</time>
		<geoidheight>201</geoidheight>
	</trkpt>
	<trkpt lat="50.712579" lon="6.196091">
		<ele>247</ele>
		<time>2011-09-11T09:31:55.880Z</time>
		<geoidheight>201</geoidheight>
	</trkpt>
	<trkpt lat="50.712574" lon="6.196076">
		<ele>247</ele>
		<time>2011-09-11T09:31:56.881Z</time>
		<geoidheight>201</geoidheight>
	</trkpt>
	<trkpt lat="50.712573" lon="6.196058">
		<ele>247</ele>
		<time>2011-09-11T09:31:57.883Z</time>
		<geoidheight>201</geoidheight>
	</trkpt>
	<trkpt lat="50.712573" lon="6.196037">
		<ele>247</ele>
		<time>2011-09-11T09:31:58.889Z</time>
		<geoidheight>201</geoidheight>
	</trkpt>
	<trkpt lat="50.712576" lon="6.196015">
		<ele>246</ele>
		<time>2011-09-11T09:31:59.881Z</time>
		<geoidheight>200</geoidheight>
	</trkpt>
	<trkpt lat="50.712572" lon="6.195996">
		<ele>246</ele>
		<time>2011-09-11T09:32:00.879Z</time>
		<geoidheight>200</geoidheight>
	</trkpt>
	<trkpt lat="50.712569" lon="6.195983">
		<ele>246</ele>
		<time>2011-09-11T09:32:01.879Z</time>
		<geoidheight>200</geoidheight>
	</trkpt>
	<trkpt lat="50.712561" lon="6.195969">
		<ele>246</ele>
		<time>2011-09-11T09:32:02.881Z</time>
		<geoidheight>200</geoidheight>
	</trkpt>
	<trkpt lat="50.712554" lon="6.195958">
		<ele>246</ele>
		<time>2011-09-11T09:32:03.885Z</time>
		<geoidheight>200</geoidheight>
	</trkpt>
	<trkpt lat="50.712545" lon="6.195945">
		<ele>246</ele>
		<time>2011-09-11T09:32:04.880Z</time>
		<geoidheight>200</geoidheight>
	</trkpt>
	<trkpt lat="50.712537" lon="6.195929">
		<ele>246</ele>
		<time>2011-09-11T09:32:05.878Z</time>
		<geoidheight>200</geoidheight>
	</trkpt>
	<trkpt lat="50.712529" lon="6.195917">
		<ele>246</ele>
		<time>2011-09-11T09:32:06.881Z</time>
		<geoidheight>200</geoidheight>
	</trkpt>
	<trkpt lat="50.712522" lon="6.195903">
		<ele>246</ele>
		<time>2011-09-11T09:32:07.880Z</time>
		<geoidheight>200</geoidheight>
	</trkpt>
	<trkpt lat="50.712513" lon="6.195889">
		<ele>246</ele>
		<time>2011-09-11T09:32:08.879Z</time>
		<geoidheight>200</geoidheight>
	</trkpt>
	<trkpt lat="50.712503" lon="6.195873">
		<ele>246</ele>
		<time>2011-09-11T09:32:09.882Z</time>
		<geoidheight>200</geoidheight>
	</trkpt>
	<trkpt lat="50.712494" lon="6.195848">
		<ele>246</ele>
		<time>2011-09-11T09:32:10.878Z</time>
		<geoidheight>200</geoidheight>
	</trkpt>
	<trkpt lat="50.712486" lon="6.195816">
		<ele>246</ele>
		<time>2011-09-11T09:32:11.877Z</time>
		<geoidheight>200</geoidheight>
	</trkpt>
	<trkpt lat="50.712477" lon="6.195784">
		<ele>245</ele>
		<time>2011-09-11T09:32:12.882Z</time>
		<geoidheight>199</geoidheight>
	</trkpt>
	<trkpt lat="50.712468" lon="6.195760">
		<ele>245</ele>
		<time>2011-09-11T09:32:13.877Z</time>
		<geoidheight>199</geoidheight>
	</trkpt>
	<trkpt lat="50.712461" lon="6.195742">
		<ele>245</ele>
		<time>2011-09-11T09:32:14.887Z</time>
		<geoidheight>199</geoidheight>
	</trkpt>
	<trkpt lat="50.712451" lon="6.195726">
		<ele>245</ele>
		<time>2011-09-11T09:32:15.887Z</time>
		<geoidheight>199</geoidheight>
	</trkpt>
	<trkpt lat="50.712443" lon="6.195709">
		<ele>245</ele>
		<time>2011-09-11T09:32:16.883Z</time>
		<geoidheight>199</geoidheight>
	</trkpt>
	<trkpt lat="50.712433" lon="6.195689">
		<ele>245</ele>
		<time>2011-09-11T09:32:17.897Z</time>
		<geoidheight>199</geoidheight>
	</trkpt>
	<trkpt lat="50.712420" lon="6.195673">
		<ele>245</ele>
		<time>2011-09-11T09:32:18.887Z</time>
		<geoidheight>199</geoidheight>
	</trkpt>
	<trkpt lat="50.712410" lon="6.195657">
		<ele>245</ele>
		<time>2011-09-11T09:32:19.881Z</time>
		<geoidheight>199</geoidheight>
	</trkpt>
	<trkpt lat="50.712398" lon="6.195639">
		<ele>245</ele>
		<time>2011-09-11T09:32:20.889Z</time>
		<geoidheight>199</geoidheight>
	</trkpt>
	<trkpt lat="50.712387" lon="6.195623">
		<ele>245</ele>
		<time>2011-09-11T09:32:21.911Z</time>
		<geoidheight>199</geoidheight>
	</trkpt>
	<trkpt lat="50.712373" lon="6.195607">
		<ele>245</ele>
		<time>2011-09-11T09:32:22.898Z</time>
		<geoidheight>199</geoidheight>
	</trkpt>
	<trkpt lat="50.712361" lon="6.195589">
		<ele>245</ele>
		<time>2011-09-11T09:32:23.891Z</time>
		<geoidheight>199</geoidheight>
	</trkpt>
	<trkpt lat="50.712348" lon="6.195570">
		<ele>245</ele>
		<time>2011-09-11T09:32:24.895Z</time>
		<geoidheight>199</geoidheight>
	</trkpt>
	<trkpt lat="50.712324" lon="6.195555">
		<ele>245</ele>
		<time>2011-09-11T09:32:25.884Z</time>
		<geoidheight>199</geoidheight>
	</trkpt>
	<trkpt lat="50.712296" lon="6.195541">
		<ele>245</ele>
		<time>2011-09-11T09:32:26.892Z</time>
		<geoidheight>199</geoidheight>
	</trkpt>
	<trkpt lat="50.712268" lon="6.195528">
		<ele>245</ele>
		<time>2011-09-11T09:32:27.892Z</time>
		<geoidheight>199</geoidheight>
	</trkpt>
	<trkpt lat="50.712248" lon="6.195511">
		<ele>245</ele>
		<time>2011-09-11T09:32:28.881Z</time>
		<geoidheight>199</geoidheight>
	</trkpt>
	<trkpt lat="50.712230" lon="6.195496">
		<ele>245</ele>
		<time>2011-09-11T09:32:29.888Z</time>
		<geoidheight>199</geoidheight>
	</trkpt>
	<trkpt lat="50.712214" lon="6.195481">
		<ele>245</ele>
		<time>2011-09-11T09:32:30.890Z</time>
		<geoidheight>199</geoidheight>
	</trkpt>
	<trkpt lat="50.712202" lon="6.195469">
		<ele>245</ele>
		<time>2011-09-11T09:32:31.881Z</time>
		<geoidheight>199</geoidheight>
	</trkpt>
	<trkpt lat="50.712202" lon="6.195469">
		<ele>245</ele>
		<time>2011-09-11T09:32:34.882Z</time>
		<geoidheight>199</geoidheight>
	</trkpt>
	<trkpt lat="50.712197" lon="6.195450">
		<ele>245</ele>
		<time>2011-09-11T09:32:35.896Z</time>
		<geoidheight>199</geoidheight>
	</trkpt>
	<trkpt lat="50.712194" lon="6.195447">
		<ele>245</ele>
		<time>2011-09-11T09:32:38.887Z</time>
		<geoidheight>199</geoidheight>
	</trkpt>
	<trkpt lat="50.712186" lon="6.195443">
		<ele>245</ele>
		<time>2011-09-11T09:32:39.887Z</time>
		<geoidheight>199</geoidheight>
	</trkpt>
	<trkpt lat="50.712178" lon="6.195435">
		<ele>245</ele>
		<time>2011-09-11T09:32:40.893Z</time>
		<geoidheight>199</geoidheight>
	</trkpt>
	<trkpt lat="50.712169" lon="6.195429">
		<ele>245</ele>
		<time>2011-09-11T09:32:41.880Z</time>
		<geoidheight>199</geoidheight>
	</trkpt>
	<trkpt lat="50.712162" lon="6.195425">
		<ele>245</ele>
		<time>2011-09-11T09:32:42.899Z</time>
		<geoidheight>199</geoidheight>
	</trkpt>
	<trkpt lat="50.712162" lon="6.195425">
		<ele>245</ele>
		<time>2011-09-11T09:32:43.899Z</time>
		<geoidheight>199</geoidheight>
	</trkpt>
	<trkpt lat="50.712171" lon="6.195422">
		<ele>245</ele>
		<time>2011-09-11T09:32:44.888Z</time>
		<geoidheight>199</geoidheight>
	</trkpt>
	<trkpt lat="50.712177" lon="6.195419">
		<ele>245</ele>
		<time>2011-09-11T09:32:45.881Z</time>
		<geoidheight>199</geoidheight>
	</trkpt>
	<trkpt lat="50.712187" lon="6.195419">
		<ele>245</ele>
		<time>2011-09-11T09:32:46.879Z</time>
		<geoidheight>199</geoidheight>
	</trkpt>
	<trkpt lat="50.712197" lon="6.195417">
		<ele>245</ele>
		<time>2011-09-11T09:32:47.900Z</time>
		<geoidheight>199</geoidheight>
	</trkpt>
	<trkpt lat="50.712209" lon="6.195417">
		<ele>245</ele>
		<time>2011-09-11T09:32:48.880Z</time>
		<geoidheight>199</geoidheight>
	</trkpt>
	<trkpt lat="50.712222" lon="6.195423">
		<ele>245</ele>
		<time>2011-09-11T09:32:49.879Z</time>
		<geoidheight>199</geoidheight>
	</trkpt>
	<trkpt lat="50.712237" lon="6.195425">
		<ele>245</ele>
		<time>2011-09-11T09:32:50.881Z</time>
		<geoidheight>199</geoidheight>
	</trkpt>
	<trkpt lat="50.712248" lon="6.195421">
		<ele>245</ele>
		<time>2011-09-11T09:32:51.881Z</time>
		<geoidheight>199</geoidheight>
	</trkpt>
	<trkpt lat="50.712248" lon="6.195421">
		<ele>245</ele>
		<time>2011-09-11T09:32:52.880Z</time>
		<geoidheight>199</geoidheight>
	</trkpt>
	<trkpt lat="50.712250" lon="6.195402">
		<ele>245</ele>
		<time>2011-09-11T09:32:53.886Z</time>
		<geoidheight>199</geoidheight>
	</trkpt>
	<trkpt lat="50.712247" lon="6.195391">
		<ele>245</ele>
		<time>2011-09-11T09:32:54.881Z</time>
		<geoidheight>199</geoidheight>
	</trkpt>
	<trkpt lat="50.712243" lon="6.195384">
		<ele>245</ele>
		<time>2011-09-11T09:32:55.879Z</time>
		<geoidheight>199</geoidheight>
	</trkpt>
	<trkpt lat="50.712233" lon="6.195384">
		<ele>245</ele>
		<time>2011-09-11T09:32:56.882Z</time>
		<geoidheight>199</geoidheight>
	</trkpt>
	<trkpt lat="50.712223" lon="6.195386">
		<ele>244</ele>
		<time>2011-09-11T09:32:57.880Z</time>
		<geoidheight>198</geoidheight>
	</trkpt>
	<trkpt lat="50.712213" lon="6.195388">
		<ele>244</ele>
		<time>2011-09-11T09:32:58.881Z</time>
		<geoidheight>198</geoidheight>
	</trkpt>
	<trkpt lat="50.712205" lon="6.195394">
		<ele>244</ele>
		<time>2011-09-11T09:32:59.888Z</time>
		<geoidheight>198</geoidheight>
	</trkpt>
	<trkpt lat="50.712197" lon="6.195400">
		<ele>244</ele>
		<time>2011-09-11T09:33:00.890Z</time>
		<geoidheight>198</geoidheight>
	</trkpt>
	<trkpt lat="50.712192" lon="6.195403">
		<ele>244</ele>
		<time>2011-09-11T09:33:01.883Z</time>
		<geoidheight>198</geoidheight>
	</trkpt>
	<trkpt lat="50.712185" lon="6.195406">
		<ele>244</ele>
		<time>2011-09-11T09:33:02.902Z</time>
		<geoidheight>198</geoidheight>
	</trkpt>
	<trkpt lat="50.712177" lon="6.195408">
		<ele>244</ele>
		<time>2011-09-11T09:33:03.899Z</time>
		<geoidheight>198</geoidheight>
	</trkpt>
	<trkpt lat="50.712169" lon="6.195409">
		<ele>244</ele>
		<time>2011-09-11T09:33:04.903Z</time>
		<geoidheight>198</geoidheight>
	</trkpt>
	<trkpt lat="50.712159" lon="6.195410">
		<ele>244</ele>
		<time>2011-09-11T09:33:05.887Z</time>
		<geoidheight>198</geoidheight>
	</trkpt>
	<trkpt lat="50.712149" lon="6.195410">
		<ele>244</ele>
		<time>2011-09-11T09:33:06.886Z</time>
		<geoidheight>198</geoidheight>
	</trkpt>
	<trkpt lat="50.712139" lon="6.195410">
		<ele>244</ele>
		<time>2011-09-11T09:33:07.894Z</time>
		<geoidheight>198</geoidheight>
	</trkpt>
	<trkpt lat="50.712127" lon="6.195410">
		<ele>244</ele>
		<time>2011-09-11T09:33:08.881Z</time>
		<geoidheight>198</geoidheight>
	</trkpt>
	<trkpt lat="50.712116" lon="6.195410">
		<ele>244</ele>
		<time>2011-09-11T09:33:09.882Z</time>
		<geoidheight>198</geoidheight>
	</trkpt>
	<trkpt lat="50.712104" lon="6.195412">
		<ele>244</ele>
		<time>2011-09-11T09:33:10.880Z</time>
		<geoidheight>198</geoidheight>
	</trkpt>
	<trkpt lat="50.712091" lon="6.195415">
		<ele>244</ele>
		<time>2011-09-11T09:33:11.880Z</time>
		<geoidheight>198</geoidheight>
	</trkpt>
	<trkpt lat="50.712091" lon="6.195415">
		<ele>244</ele>
		<time>2011-09-11T09:33:12.882Z</time>
		<geoidheight>198</geoidheight>
	</trkpt>
	<trkpt lat="50.712091" lon="6.195415">
		<ele>244</ele>
		<time>2011-09-11T09:33:13.881Z</time>
		<geoidheight>198</geoidheight>
	</trkpt>
	<trkpt lat="50.712056" lon="6.195419">
		<ele>244</ele>
		<time>2011-09-11T09:33:14.880Z</time>
		<geoidheight>198</geoidheight>
	</trkpt>
	<trkpt lat="50.712045" lon="6.195420">
		<ele>244</ele>
		<time>2011-09-11T09:33:15.880Z</time>
		<geoidheight>198</geoidheight>
	</trkpt>
	<trkpt lat="50.712035" lon="6.195423">
		<ele>244</ele>
		<time>2011-09-11T09:33:16.882Z</time>
		<geoidheight>198</geoidheight>
	</trkpt>
	<trkpt lat="50.712023" lon="6.195427">
		<ele>244</ele>
		<time>2011-09-11T09:33:17.886Z</time>
		<geoidheight>198</geoidheight>
	</trkpt>
	<trkpt lat="50.712011" lon="6.195428">
		<ele>243</ele>
		<time>2011-09-11T09:33:18.880Z</time>
		<geoidheight>197</geoidheight>
	</trkpt>
	<trkpt lat="50.711999" lon="6.195428">
		<ele>243</ele>
		<time>2011-09-11T09:33:19.882Z</time>
		<geoidheight>197</geoidheight>
	</trkpt>
	<trkpt lat="50.711985" lon="6.195429">
		<ele>243</ele>
		<time>2011-09-11T09:33:20.879Z</time>
		<geoidheight>197</geoidheight>
	</trkpt>
	<trkpt lat="50.711971" lon="6.195428">
		<ele>243</ele>
		<time>2011-09-11T09:33:21.880Z</time>
		<geoidheight>197</geoidheight>
	</trkpt>
	<trkpt lat="50.711956" lon="6.195428">
		<ele>243</ele>
		<time>2011-09-11T09:33:22.882Z</time>
		<geoidheight>197</geoidheight>
	</trkpt>
	<trkpt lat="50.711943" lon="6.195425">
		<ele>243</ele>
		<time>2011-09-11T09:33:23.880Z</time>
		<geoidheight>197</geoidheight>
	</trkpt>
	<trkpt lat="50.711931" lon="6.195425">
		<ele>243</ele>
		<time>2011-09-11T09:33:24.879Z</time>
		<geoidheight>197</geoidheight>
	</trkpt>
	<trkpt lat="50.711917" lon="6.195426">
		<ele>243</ele>
		<time>2011-09-11T09:33:25.882Z</time>
		<geoidheight>197</geoidheight>
	</trkpt>
	<trkpt lat="50.711903" lon="6.195428">
		<ele>243</ele>
		<time>2011-09-11T09:33:26.883Z</time>
		<geoidheight>197</geoidheight>
	</trkpt>
	<trkpt lat="50.711888" lon="6.195430">
		<ele>243</ele>
		<time>2011-09-11T09:33:27.882Z</time>
		<geoidheight>197</geoidheight>
	</trkpt>
	<trkpt lat="50.711873" lon="6.195433">
		<ele>243</ele>
		<time>2011-09-11T09:33:28.882Z</time>
		<geoidheight>197</geoidheight>
	</trkpt>
	<trkpt lat="50.711858" lon="6.195440">
		<ele>242</ele>
		<time>2011-09-11T09:33:29.881Z</time>
		<geoidheight>196</geoidheight>
	</trkpt>
	<trkpt lat="50.711842" lon="6.195443">
		<ele>242</ele>
		<time>2011-09-11T09:33:30.883Z</time>
		<geoidheight>196</geoidheight>
	</trkpt>
	<trkpt lat="50.711827" lon="6.195451">
		<ele>242</ele>
		<time>2011-09-11T09:33:31.881Z</time>
		<geoidheight>196</geoidheight>
	</trkpt>
	<trkpt lat="50.711814" lon="6.195461">
		<ele>242</ele>
		<time>2011-09-11T09:33:32.881Z</time>
		<geoidheight>196</geoidheight>
	</trkpt>
	<trkpt lat="50.711801" lon="6.195473">
		<ele>242</ele>
		<time>2011-09-11T09:33:33.880Z</time>
		<geoidheight>196</geoidheight>
	</trkpt>
	<trkpt lat="50.711789" lon="6.195483">
		<ele>242</ele>
		<time>2011-09-11T09:33:34.882Z</time>
		<geoidheight>196</geoidheight>
	</trkpt>
	<trkpt lat="50.711778" lon="6.195494">
		<ele>242</ele>
		<time>2011-09-11T09:33:35.881Z</time>
		<geoidheight>196</geoidheight>
	</trkpt>
	<trkpt lat="50.711767" lon="6.195504">
		<ele>242</ele>
		<time>2011-09-11T09:33:36.881Z</time>
		<geoidheight>196</geoidheight>
	</trkpt>
	<trkpt lat="50.711757" lon="6.195512">
		<ele>242</ele>
		<time>2011-09-11T09:33:37.879Z</time>
		<geoidheight>196</geoidheight>
	</trkpt>
	<trkpt lat="50.711747" lon="6.195519">
		<ele>242</ele>
		<time>2011-09-11T09:33:38.884Z</time>
		<geoidheight>196</geoidheight>
	</trkpt>
	<trkpt lat="50.711737" lon="6.195523">
		<ele>241</ele>
		<time>2011-09-11T09:33:39.881Z</time>
		<geoidheight>195</geoidheight>
	</trkpt>
	<trkpt lat="50.711726" lon="6.195526">
		<ele>241</ele>
		<time>2011-09-11T09:33:40.880Z</time>
		<geoidheight>195</geoidheight>
	</trkpt>
	<trkpt lat="50.711716" lon="6.195532">
		<ele>241</ele>
		<time>2011-09-11T09:33:41.878Z</time>
		<geoidheight>195</geoidheight>
	</trkpt>
	<trkpt lat="50.711707" lon="6.195538">
		<ele>241</ele>
		<time>2011-09-11T09:33:42.881Z</time>
		<geoidheight>195</geoidheight>
	</trkpt>
	<trkpt lat="50.711698" lon="6.195548">
		<ele>241</ele>
		<time>2011-09-11T09:33:43.880Z</time>
		<geoidheight>195</geoidheight>
	</trkpt>
	<trkpt lat="50.711690" lon="6.195558">
		<ele>241</ele>
		<time>2011-09-11T09:33:44.886Z</time>
		<geoidheight>195</geoidheight>
	</trkpt>
	<trkpt lat="50.711681" lon="6.195571">
		<ele>241</ele>
		<time>2011-09-11T09:33:45.883Z</time>
		<geoidheight>195</geoidheight>
	</trkpt>
	<trkpt lat="50.711670" lon="6.195585">
		<ele>241</ele>
		<time>2011-09-11T09:33:46.899Z</time>
		<geoidheight>195</geoidheight>
	</trkpt>
	<trkpt lat="50.711658" lon="6.195597">
		<ele>241</ele>
		<time>2011-09-11T09:33:47.879Z</time>
		<geoidheight>195</geoidheight>
	</trkpt>
	<trkpt lat="50.711645" lon="6.195609">
		<ele>240</ele>
		<time>2011-09-11T09:33:48.889Z</time>
		<geoidheight>194</geoidheight>
	</trkpt>
	<trkpt lat="50.711631" lon="6.195621">
		<ele>240</ele>
		<time>2011-09-11T09:33:49.880Z</time>
		<geoidheight>194</geoidheight>
	</trkpt>
	<trkpt lat="50.711616" lon="6.195630">
		<ele>240</ele>
		<time>2011-09-11T09:33:50.880Z</time>
		<geoidheight>194</geoidheight>
	</trkpt>
	<trkpt lat="50.711600" lon="6.195645">
		<ele>240</ele>
		<time>2011-09-11T09:33:51.880Z</time>
		<geoidheight>194</geoidheight>
	</trkpt>
	<trkpt lat="50.711587" lon="6.195659">
		<ele>240</ele>
		<time>2011-09-11T09:33:52.881Z</time>
		<geoidheight>194</geoidheight>
	</trkpt>
	<trkpt lat="50.711573" lon="6.195672">
		<ele>240</ele>
		<time>2011-09-11T09:33:53.879Z</time>
		<geoidheight>194</geoidheight>
	</trkpt>
	<trkpt lat="50.711556" lon="6.195687">
		<ele>240</ele>
		<time>2011-09-11T09:33:54.882Z</time>
		<geoidheight>194</geoidheight>
	</trkpt>
	<trkpt lat="50.711539" lon="6.195698">
		<ele>239</ele>
		<time>2011-09-11T09:33:55.880Z</time>
		<geoidheight>193</geoidheight>
	</trkpt>
	<trkpt lat="50.711524" lon="6.195702">
		<ele>239</ele>
		<time>2011-09-11T09:33:56.880Z</time>
		<geoidheight>193</geoidheight>
	</trkpt>
	<trkpt lat="50.711507" lon="6.195697">
		<ele>239</ele>
		<time>2011-09-11T09:33:57.882Z</time>
		<geoidheight>193</geoidheight>
	</trkpt>
	<trkpt lat="50.711489" lon="6.195687">
		<ele>239</ele>
		<time>2011-09-11T09:33:58.881Z</time>
		<geoidheight>193</geoidheight>
	</trkpt>
	<trkpt lat="50.711474" lon="6.195674">
		<ele>239</ele>
		<time>2011-09-11T09:33:59.878Z</time>
		<geoidheight>193</geoidheight>
	</trkpt>
	<trkpt lat="50.711462" lon="6.195662">
		<ele>239</ele>
		<time>2011-09-11T09:34:00.883Z</time>
		<geoidheight>193</geoidheight>
	</trkpt>
	<trkpt lat="50.711452" lon="6.195647">
		<ele>239</ele>
		<time>2011-09-11T09:34:01.883Z</time>
		<geoidheight>193</geoidheight>
	</trkpt>
	<trkpt lat="50.711442" lon="6.195633">
		<ele>239</ele>
		<time>2011-09-11T09:34:02.883Z</time>
		<geoidheight>193</geoidheight>
	</trkpt>
	<trkpt lat="50.711435" lon="6.195615">
		<ele>238</ele>
		<time>2011-09-11T09:34:03.883Z</time>
		<geoidheight>192</geoidheight>
	</trkpt>
	<trkpt lat="50.711427" lon="6.195599">
		<ele>238</ele>
		<time>2011-09-11T09:34:04.884Z</time>
		<geoidheight>192</geoidheight>
	</trkpt>
	<trkpt lat="50.711415" lon="6.195588">
		<ele>238</ele>
		<time>2011-09-11T09:34:05.881Z</time>
		<geoidheight>192</geoidheight>
	</trkpt>
	<trkpt lat="50.711403" lon="6.195578">
		<ele>238</ele>
		<time>2011-09-11T09:34:06.880Z</time>
		<geoidheight>192</geoidheight>
	</trkpt>
	<trkpt lat="50.711394" lon="6.195565">
		<ele>238</ele>
		<time>2011-09-11T09:34:07.885Z</time>
		<geoidheight>192</geoidheight>
	</trkpt>
	<trkpt lat="50.711383" lon="6.195549">
		<ele>238</ele>
		<time>2011-09-11T09:34:08.880Z</time>
		<geoidheight>192</geoidheight>
	</trkpt>
	<trkpt lat="50.711373" lon="6.195530">
		<ele>238</ele>
		<time>2011-09-11T09:34:09.881Z</time>
		<geoidheight>192</geoidheight>
	</trkpt>
	<trkpt lat="50.711362" lon="6.195511">
		<ele>238</ele>
		<time>2011-09-11T09:34:10.882Z</time>
		<geoidheight>192</geoidheight>
	</trkpt>
	<trkpt lat="50.711351" lon="6.195493">
		<ele>238</ele>
		<time>2011-09-11T09:34:11.891Z</time>
		<geoidheight>192</geoidheight>
	</trkpt>
	<trkpt lat="50.711342" lon="6.195474">
		<ele>238</ele>
		<time>2011-09-11T09:34:12.886Z</time>
		<geoidheight>192</geoidheight>
	</trkpt>
	<trkpt lat="50.711333" lon="6.195454">
		<ele>238</ele>
		<time>2011-09-11T09:34:13.883Z</time>
		<geoidheight>192</geoidheight>
	</trkpt>
	<trkpt lat="50.711323" lon="6.195434">
		<ele>237</ele>
		<time>2011-09-11T09:34:14.881Z</time>
		<geoidheight>191</geoidheight>
	</trkpt>
	<trkpt lat="50.711314" lon="6.195415">
		<ele>237</ele>
		<time>2011-09-11T09:34:15.881Z</time>
		<geoidheight>191</geoidheight>
	</trkpt>
	<trkpt lat="50.711306" lon="6.195393">
		<ele>237</ele>
		<time>2011-09-11T09:34:16.883Z</time>
		<geoidheight>191</geoidheight>
	</trkpt>
	<trkpt lat="50.711301" lon="6.195376">
		<ele>237</ele>
		<time>2011-09-11T09:34:17.882Z</time>
		<geoidheight>191</geoidheight>
	</trkpt>
	<trkpt lat="50.711297" lon="6.195359">
		<ele>237</ele>
		<time>2011-09-11T09:34:18.881Z</time>
		<geoidheight>191</geoidheight>
	</trkpt>
	<trkpt lat="50.711293" lon="6.195344">
		<ele>237</ele>
		<time>2011-09-11T09:34:19.884Z</time>
		<geoidheight>191</geoidheight>
	</trkpt>
	<trkpt lat="50.711290" lon="6.195330">
		<ele>237</ele>
		<time>2011-09-11T09:34:20.880Z</time>
		<geoidheight>191</geoidheight>
	</trkpt>
	<trkpt lat="50.711286" lon="6.195318">
		<ele>237</ele>
		<time>2011-09-11T09:34:21.882Z</time>
		<geoidheight>191</geoidheight>
	</trkpt>
	<trkpt lat="50.711279" lon="6.195307">
		<ele>237</ele>
		<time>2011-09-11T09:34:22.881Z</time>
		<geoidheight>191</geoidheight>
	</trkpt>
	<trkpt lat="50.711272" lon="6.195296">
		<ele>237</ele>
		<time>2011-09-11T09:34:23.883Z</time>
		<geoidheight>191</geoidheight>
	</trkpt>
	<trkpt lat="50.711264" lon="6.195283">
		<ele>237</ele>
		<time>2011-09-11T09:34:24.880Z</time>
		<geoidheight>191</geoidheight>
	</trkpt>
	<trkpt lat="50.711255" lon="6.195272">
		<ele>237</ele>
		<time>2011-09-11T09:34:25.881Z</time>
		<geoidheight>191</geoidheight>
	</trkpt>
	<trkpt lat="50.711247" lon="6.195263">
		<ele>237</ele>
		<time>2011-09-11T09:34:26.881Z</time>
		<geoidheight>191</geoidheight>
	</trkpt>
	<trkpt lat="50.711240" lon="6.195250">
		<ele>237</ele>
		<time>2011-09-11T09:34:27.883Z</time>
		<geoidheight>191</geoidheight>
	</trkpt>
	<trkpt lat="50.711232" lon="6.195235">
		<ele>237</ele>
		<time>2011-09-11T09:34:28.881Z</time>
		<geoidheight>191</geoidheight>
	</trkpt>
	<trkpt lat="50.711224" lon="6.195220">
		<ele>237</ele>
		<time>2011-09-11T09:34:29.884Z</time>
		<geoidheight>191</geoidheight>
	</trkpt>
	<trkpt lat="50.711216" lon="6.195204">
		<ele>236</ele>
		<time>2011-09-11T09:34:30.896Z</time>
		<geoidheight>190</geoidheight>
	</trkpt>
	<trkpt lat="50.711208" lon="6.195187">
		<ele>236</ele>
		<time>2011-09-11T09:34:31.882Z</time>
		<geoidheight>190</geoidheight>
	</trkpt>
	<trkpt lat="50.711198" lon="6.195169">
		<ele>236</ele>
		<time>2011-09-11T09:34:32.882Z</time>
		<geoidheight>190</geoidheight>
	</trkpt>
	<trkpt lat="50.711189" lon="6.195149">
		<ele>236</ele>
		<time>2011-09-11T09:34:33.882Z</time>
		<geoidheight>190</geoidheight>
	</trkpt>
	<trkpt lat="50.711178" lon="6.195129">
		<ele>236</ele>
		<time>2011-09-11T09:34:34.882Z</time>
		<geoidheight>190</geoidheight>
	</trkpt>
	<trkpt lat="50.711167" lon="6.195108">
		<ele>236</ele>
		<time>2011-09-11T09:34:35.883Z</time>
		<geoidheight>190</geoidheight>
	</trkpt>
	<trkpt lat="50.711158" lon="6.195088">
		<ele>236</ele>
		<time>2011-09-11T09:34:36.882Z</time>
		<geoidheight>190</geoidheight>
	</trkpt>
	<trkpt lat="50.711146" lon="6.195066">
		<ele>236</ele>
		<time>2011-09-11T09:34:37.893Z</time>
		<geoidheight>190</geoidheight>
	</trkpt>
	<trkpt lat="50.711137" lon="6.195047">
		<ele>236</ele>
		<time>2011-09-11T09:34:38.881Z</time>
		<geoidheight>190</geoidheight>
	</trkpt>
	<trkpt lat="50.711125" lon="6.195033">
		<ele>236</ele>
		<time>2011-09-11T09:34:39.883Z</time>
		<geoidheight>190</geoidheight>
	</trkpt>
	<trkpt lat="50.711115" lon="6.195018">
		<ele>236</ele>
		<time>2011-09-11T09:34:40.880Z</time>
		<geoidheight>190</geoidheight>
	</trkpt>
	<trkpt lat="50.711108" lon="6.194999">
		<ele>236</ele>
		<time>2011-09-11T09:34:41.892Z</time>
		<geoidheight>190</geoidheight>
	</trkpt>
	<trkpt lat="50.711101" lon="6.194982">
		<ele>235</ele>
		<time>2011-09-11T09:34:42.889Z</time>
		<geoidheight>189</geoidheight>
	</trkpt>
	<trkpt lat="50.711093" lon="6.194965">
		<ele>235</ele>
		<time>2011-09-11T09:34:43.890Z</time>
		<geoidheight>189</geoidheight>
	</trkpt>
	<trkpt lat="50.711085" lon="6.194947">
		<ele>235</ele>
		<time>2011-09-11T09:34:44.899Z</time>
		<geoidheight>189</geoidheight>
	</trkpt>
	<trkpt lat="50.711077" lon="6.194929">
		<ele>235</ele>
		<time>2011-09-11T09:34:45.893Z</time>
		<geoidheight>189</geoidheight>
	</trkpt>
	<trkpt lat="50.711069" lon="6.194911">
		<ele>235</ele>
		<time>2011-09-11T09:34:46.880Z</time>
		<geoidheight>189</geoidheight>
	</trkpt>
	<trkpt lat="50.711060" lon="6.194890">
		<ele>235</ele>
		<time>2011-09-11T09:34:47.880Z</time>
		<geoidheight>189</geoidheight>
	</trkpt>
	<trkpt lat="50.711051" lon="6.194867">
		<ele>235</ele>
		<time>2011-09-11T09:34:48.883Z</time>
		<geoidheight>189</geoidheight>
	</trkpt>
	<trkpt lat="50.711040" lon="6.194843">
		<ele>235</ele>
		<time>2011-09-11T09:34:49.881Z</time>
		<geoidheight>189</geoidheight>
	</trkpt>
	<trkpt lat="50.711030" lon="6.194819">
		<ele>235</ele>
		<time>2011-09-11T09:34:50.884Z</time>
		<geoidheight>189</geoidheight>
	</trkpt>
	<trkpt lat="50.711022" lon="6.194795">
		<ele>235</ele>
		<time>2011-09-11T09:34:51.882Z</time>
		<geoidheight>189</geoidheight>
	</trkpt>
	<trkpt lat="50.711013" lon="6.194775">
		<ele>235</ele>
		<time>2011-09-11T09:34:52.882Z</time>
		<geoidheight>189</geoidheight>
	</trkpt>
	<trkpt lat="50.711003" lon="6.194750">
		<ele>235</ele>
		<time>2011-09-11T09:34:53.881Z</time>
		<geoidheight>189</geoidheight>
	</trkpt>
	<trkpt lat="50.710996" lon="6.194730">
		<ele>235</ele>
		<time>2011-09-11T09:34:54.882Z</time>
		<geoidheight>189</geoidheight>
	</trkpt>
	<trkpt lat="50.710990" lon="6.194709">
		<ele>235</ele>
		<time>2011-09-11T09:34:55.887Z</time>
		<geoidheight>189</geoidheight>
	</trkpt>
	<trkpt lat="50.710984" lon="6.194692">
		<ele>235</ele>
		<time>2011-09-11T09:34:56.880Z</time>
		<geoidheight>189</geoidheight>
	</trkpt>
	<trkpt lat="50.710981" lon="6.194672">
		<ele>235</ele>
		<time>2011-09-11T09:34:57.881Z</time>
		<geoidheight>189</geoidheight>
	</trkpt>
	<trkpt lat="50.710979" lon="6.194655">
		<ele>235</ele>
		<time>2011-09-11T09:34:58.888Z</time>
		<geoidheight>189</geoidheight>
	</trkpt>
	<trkpt lat="50.710979" lon="6.194655">
		<ele>235</ele>
		<time>2011-09-11T09:34:59.881Z</time>
		<geoidheight>189</geoidheight>
	</trkpt>
	<trkpt lat="50.710983" lon="6.194666">
		<ele>234</ele>
		<time>2011-09-11T09:35:15.895Z</time>
		<geoidheight>188</geoidheight>
	</trkpt>
	<trkpt lat="50.710983" lon="6.194672">
		<ele>234</ele>
		<time>2011-09-11T09:35:16.881Z</time>
		<geoidheight>188</geoidheight>
	</trkpt>
	<trkpt lat="50.710984" lon="6.194676">
		<ele>234</ele>
		<time>2011-09-11T09:35:22.898Z</time>
		<geoidheight>188</geoidheight>
	</trkpt>
	<trkpt lat="50.710971" lon="6.194680">
		<ele>234</ele>
		<time>2011-09-11T09:35:23.908Z</time>
		<geoidheight>188</geoidheight>
	</trkpt>
	<trkpt lat="50.710963" lon="6.194687">
		<ele>234</ele>
		<time>2011-09-11T09:35:24.905Z</time>
		<geoidheight>188</geoidheight>
	</trkpt>
	<trkpt lat="50.710953" lon="6.194698">
		<ele>234</ele>
		<time>2011-09-11T09:35:25.890Z</time>
		<geoidheight>188</geoidheight>
	</trkpt>
	<trkpt lat="50.710942" lon="6.194708">
		<ele>234</ele>
		<time>2011-09-11T09:35:26.892Z</time>
		<geoidheight>188</geoidheight>
	</trkpt>
	<trkpt lat="50.710931" lon="6.194720">
		<ele>234</ele>
		<time>2011-09-11T09:35:27.885Z</time>
		<geoidheight>188</geoidheight>
	</trkpt>
	<trkpt lat="50.710921" lon="6.194732">
		<ele>234</ele>
		<time>2011-09-11T09:35:28.889Z</time>
		<geoidheight>188</geoidheight>
	</trkpt>
	<trkpt lat="50.710911" lon="6.194745">
		<ele>234</ele>
		<time>2011-09-11T09:35:29.892Z</time>
		<geoidheight>188</geoidheight>
	</trkpt>
	<trkpt lat="50.710900" lon="6.194759">
		<ele>234</ele>
		<time>2011-09-11T09:35:30.893Z</time>
		<geoidheight>188</geoidheight>
	</trkpt>
	<trkpt lat="50.710890" lon="6.194773">
		<ele>234</ele>
		<time>2011-09-11T09:35:31.897Z</time>
		<geoidheight>188</geoidheight>
	</trkpt>
	<trkpt lat="50.710880" lon="6.194788">
		<ele>234</ele>
		<time>2011-09-11T09:35:32.891Z</time>
		<geoidheight>188</geoidheight>
	</trkpt>
	<trkpt lat="50.710870" lon="6.194800">
		<ele>234</ele>
		<time>2011-09-11T09:35:33.882Z</time>
		<geoidheight>188</geoidheight>
	</trkpt>
	<trkpt lat="50.710858" lon="6.194816">
		<ele>234</ele>
		<time>2011-09-11T09:35:34.881Z</time>
		<geoidheight>188</geoidheight>
	</trkpt>
	<trkpt lat="50.710845" lon="6.194830">
		<ele>234</ele>
		<time>2011-09-11T09:35:35.880Z</time>
		<geoidheight>188</geoidheight>
	</trkpt>
	<trkpt lat="50.710831" lon="6.194836">
		<ele>234</ele>
		<time>2011-09-11T09:35:36.882Z</time>
		<geoidheight>188</geoidheight>
	</trkpt>
	<trkpt lat="50.710818" lon="6.194832">
		<ele>233</ele>
		<time>2011-09-11T09:35:37.881Z</time>
		<geoidheight>187</geoidheight>
	</trkpt>
	<trkpt lat="50.710805" lon="6.194823">
		<ele>233</ele>
		<time>2011-09-11T09:35:38.881Z</time>
		<geoidheight>187</geoidheight>
	</trkpt>
	<trkpt lat="50.710793" lon="6.194808">
		<ele>233</ele>
		<time>2011-09-11T09:35:39.882Z</time>
		<geoidheight>187</geoidheight>
	</trkpt>
	<trkpt lat="50.710781" lon="6.194792">
		<ele>233</ele>
		<time>2011-09-11T09:35:40.897Z</time>
		<geoidheight>187</geoidheight>
	</trkpt>
	<trkpt lat="50.710769" lon="6.194778">
		<ele>233</ele>
		<time>2011-09-11T09:35:41.880Z</time>
		<geoidheight>187</geoidheight>
	</trkpt>
	<trkpt lat="50.710759" lon="6.194763">
		<ele>233</ele>
		<time>2011-09-11T09:35:42.894Z</time>
		<geoidheight>187</geoidheight>
	</trkpt>
	<trkpt lat="50.710750" lon="6.194745">
		<ele>233</ele>
		<time>2011-09-11T09:35:43.881Z</time>
		<geoidheight>187</geoidheight>
	</trkpt>
	<trkpt lat="50.710743" lon="6.194727">
		<ele>233</ele>
		<time>2011-09-11T09:35:44.890Z</time>
		<geoidheight>187</geoidheight>
	</trkpt>
	<trkpt lat="50.710734" lon="6.194710">
		<ele>233</ele>
		<time>2011-09-11T09:35:45.882Z</time>
		<geoidheight>187</geoidheight>
	</trkpt>
	<trkpt lat="50.710726" lon="6.194693">
		<ele>233</ele>
		<time>2011-09-11T09:35:46.882Z</time>
		<geoidheight>187</geoidheight>
	</trkpt>
	<trkpt lat="50.710719" lon="6.194675">
		<ele>233</ele>
		<time>2011-09-11T09:35:47.881Z</time>
		<geoidheight>187</geoidheight>
	</trkpt>
	<trkpt lat="50.710714" lon="6.194657">
		<ele>233</ele>
		<time>2011-09-11T09:35:48.882Z</time>
		<geoidheight>187</geoidheight>
	</trkpt>
	<trkpt lat="50.710710" lon="6.194639">
		<ele>233</ele>
		<time>2011-09-11T09:35:49.883Z</time>
		<geoidheight>187</geoidheight>
	</trkpt>
	<trkpt lat="50.710706" lon="6.194622">
		<ele>232</ele>
		<time>2011-09-11T09:35:50.881Z</time>
		<geoidheight>186</geoidheight>
	</trkpt>
	<trkpt lat="50.710703" lon="6.194604">
		<ele>232</ele>
		<time>2011-09-11T09:35:51.882Z</time>
		<geoidheight>186</geoidheight>
	</trkpt>
	<trkpt lat="50.710699" lon="6.194587">
		<ele>232</ele>
		<time>2011-09-11T09:35:52.883Z</time>
		<geoidheight>186</geoidheight>
	</trkpt>
	<trkpt lat="50.710695" lon="6.194571">
		<ele>232</ele>
		<time>2011-09-11T09:35:53.880Z</time>
		<geoidheight>186</geoidheight>
	</trkpt>
	<trkpt lat="50.710689" lon="6.194555">
		<ele>232</ele>
		<time>2011-09-11T09:35:54.882Z</time>
		<geoidheight>186</geoidheight>
	</trkpt>
	<trkpt lat="50.710682" lon="6.194538">
		<ele>232</ele>
		<time>2011-09-11T09:35:55.882Z</time>
		<geoidheight>186</geoidheight>
	</trkpt>
	<trkpt lat="50.710675" lon="6.194521">
		<ele>232</ele>
		<time>2011-09-11T09:35:56.882Z</time>
		<geoidheight>186</geoidheight>
	</trkpt>
	<trkpt lat="50.710669" lon="6.194504">
		<ele>232</ele>
		<time>2011-09-11T09:35:57.891Z</time>
		<geoidheight>186</geoidheight>
	</trkpt>
	<trkpt lat="50.710662" lon="6.194487">
		<ele>232</ele>
		<time>2011-09-11T09:35:58.883Z</time>
		<geoidheight>186</geoidheight>
	</trkpt>
	<trkpt lat="50.710648" lon="6.194451">
		<ele>232</ele>
		<time>2011-09-11T09:35:59.881Z</time>
		<geoidheight>186</geoidheight>
	</trkpt>
	<trkpt lat="50.710641" lon="6.194431">
		<ele>232</ele>
		<time>2011-09-11T09:36:00.882Z</time>
		<geoidheight>186</geoidheight>
	</trkpt>
	<trkpt lat="50.710637" lon="6.194410">
		<ele>232</ele>
		<time>2011-09-11T09:36:01.882Z</time>
		<geoidheight>186</geoidheight>
	</trkpt>
	<trkpt lat="50.710629" lon="6.194386">
		<ele>232</ele>
		<time>2011-09-11T09:36:02.880Z</time>
		<geoidheight>186</geoidheight>
	</trkpt>
	<trkpt lat="50.710621" lon="6.194357">
		<ele>232</ele>
		<time>2011-09-11T09:36:03.899Z</time>
		<geoidheight>186</geoidheight>
	</trkpt>
	<trkpt lat="50.710617" lon="6.194332">
		<ele>232</ele>
		<time>2011-09-11T09:36:04.884Z</time>
		<geoidheight>186</geoidheight>
	</trkpt>
	<trkpt lat="50.710610" lon="6.194307">
		<ele>232</ele>
		<time>2011-09-11T09:36:05.890Z</time>
		<geoidheight>186</geoidheight>
	</trkpt>
	<trkpt lat="50.710602" lon="6.194285">
		<ele>232</ele>
		<time>2011-09-11T09:36:06.897Z</time>
		<geoidheight>186</geoidheight>
	</trkpt>
	<trkpt lat="50.710592" lon="6.194263">
		<ele>232</ele>
		<time>2011-09-11T09:36:07.894Z</time>
		<geoidheight>186</geoidheight>
	</trkpt>
	<trkpt lat="50.710581" lon="6.194245">
		<ele>232</ele>
		<time>2011-09-11T09:36:08.901Z</time>
		<geoidheight>186</geoidheight>
	</trkpt>
	<trkpt lat="50.710571" lon="6.194237">
		<ele>232</ele>
		<time>2011-09-11T09:36:09.883Z</time>
		<geoidheight>186</geoidheight>
	</trkpt>
	<trkpt lat="50.710563" lon="6.194223">
		<ele>232</ele>
		<time>2011-09-11T09:36:10.881Z</time>
		<geoidheight>186</geoidheight>
	</trkpt>
	<trkpt lat="50.710557" lon="6.194210">
		<ele>232</ele>
		<time>2011-09-11T09:36:11.882Z</time>
		<geoidheight>186</geoidheight>
	</trkpt>
	<trkpt lat="50.710552" lon="6.194197">
		<ele>232</ele>
		<time>2011-09-11T09:36:12.881Z</time>
		<geoidheight>186</geoidheight>
	</trkpt>
	<trkpt lat="50.710545" lon="6.194186">
		<ele>232</ele>
		<time>2011-09-11T09:36:13.881Z</time>
		<geoidheight>186</geoidheight>
	</trkpt>
	<trkpt lat="50.710538" lon="6.194175">
		<ele>232</ele>
		<time>2011-09-11T09:36:14.884Z</time>
		<geoidheight>186</geoidheight>
	</trkpt>
	<trkpt lat="50.710531" lon="6.194161">
		<ele>231</ele>
		<time>2011-09-11T09:36:15.882Z</time>
		<geoidheight>185</geoidheight>
	</trkpt>
	<trkpt lat="50.710524" lon="6.194148">
		<ele>231</ele>
		<time>2011-09-11T09:36:16.881Z</time>
		<geoidheight>185</geoidheight>
	</trkpt>
	<trkpt lat="50.710508" lon="6.194144">
		<ele>231</ele>
		<time>2011-09-11T09:36:17.883Z</time>
		<geoidheight>185</geoidheight>
	</trkpt>
	<trkpt lat="50.710494" lon="6.194140">
		<ele>231</ele>
		<time>2011-09-11T09:36:18.881Z</time>
		<geoidheight>185</geoidheight>
	</trkpt>
	<trkpt lat="50.710483" lon="6.194132">
		<ele>231</ele>
		<time>2011-09-11T09:36:19.882Z</time>
		<geoidheight>185</geoidheight>
	</trkpt>
	<trkpt lat="50.710474" lon="6.194124">
		<ele>231</ele>
		<time>2011-09-11T09:36:20.883Z</time>
		<geoidheight>185</geoidheight>
	</trkpt>
	<trkpt lat="50.710465" lon="6.194112">
		<ele>231</ele>
		<time>2011-09-11T09:36:21.882Z</time>
		<geoidheight>185</geoidheight>
	</trkpt>
	<trkpt lat="50.710452" lon="6.194102">
		<ele>231</ele>
		<time>2011-09-11T09:36:22.882Z</time>
		<geoidheight>185</geoidheight>
	</trkpt>
	<trkpt lat="50.710444" lon="6.194097">
		<ele>231</ele>
		<time>2011-09-11T09:36:23.881Z</time>
		<geoidheight>185</geoidheight>
	</trkpt>
	<trkpt lat="50.710444" lon="6.194097">
		<ele>231</ele>
		<time>2011-09-11T09:36:25.882Z</time>
		<geoidheight>185</geoidheight>
	</trkpt>
	<trkpt lat="50.710413" lon="6.194081">
		<ele>231</ele>
		<time>2011-09-11T09:36:26.882Z</time>
		<geoidheight>185</geoidheight>
	</trkpt>
	<trkpt lat="50.710402" lon="6.194076">
		<ele>231</ele>
		<time>2011-09-11T09:36:27.883Z</time>
		<geoidheight>185</geoidheight>
	</trkpt>
	<trkpt lat="50.710390" lon="6.194066">
		<ele>231</ele>
		<time>2011-09-11T09:36:28.883Z</time>
		<geoidheight>185</geoidheight>
	</trkpt>
	<trkpt lat="50.710380" lon="6.194056">
		<ele>231</ele>
		<time>2011-09-11T09:36:29.882Z</time>
		<geoidheight>185</geoidheight>
	</trkpt>
	<trkpt lat="50.710370" lon="6.194047">
		<ele>231</ele>
		<time>2011-09-11T09:36:30.897Z</time>
		<geoidheight>185</geoidheight>
	</trkpt>
	<trkpt lat="50.710359" lon="6.194041">
		<ele>231</ele>
		<time>2011-09-11T09:36:31.881Z</time>
		<geoidheight>185</geoidheight>
	</trkpt>
	<trkpt lat="50.710347" lon="6.194032">
		<ele>231</ele>
		<time>2011-09-11T09:36:32.881Z</time>
		<geoidheight>185</geoidheight>
	</trkpt>
	<trkpt lat="50.710334" lon="6.194023">
		<ele>231</ele>
		<time>2011-09-11T09:36:33.883Z</time>
		<geoidheight>185</geoidheight>
	</trkpt>
	<trkpt lat="50.710321" lon="6.194014">
		<ele>231</ele>
		<time>2011-09-11T09:36:34.882Z</time>
		<geoidheight>185</geoidheight>
	</trkpt>
	<trkpt lat="50.710308" lon="6.194007">
		<ele>231</ele>
		<time>2011-09-11T09:36:35.883Z</time>
		<geoidheight>185</geoidheight>
	</trkpt>
	<trkpt lat="50.710296" lon="6.194001">
		<ele>231</ele>
		<time>2011-09-11T09:36:36.888Z</time>
		<geoidheight>185</geoidheight>
	</trkpt>
	<trkpt lat="50.710282" lon="6.193992">
		<ele>231</ele>
		<time>2011-09-11T09:36:37.881Z</time>
		<geoidheight>185</geoidheight>
	</trkpt>
	<trkpt lat="50.710268" lon="6.193982">
		<ele>231</ele>
		<time>2011-09-11T09:36:38.893Z</time>
		<geoidheight>185</geoidheight>
	</trkpt>
	<trkpt lat="50.710254" lon="6.193975">
		<ele>231</ele>
		<time>2011-09-11T09:36:39.891Z</time>
		<geoidheight>185</geoidheight>
	</trkpt>
	<trkpt lat="50.710241" lon="6.193967">
		<ele>231</ele>
		<time>2011-09-11T09:36:40.888Z</time>
		<geoidheight>185</geoidheight>
	</trkpt>
	<trkpt lat="50.710229" lon="6.193956">
		<ele>231</ele>
		<time>2011-09-11T09:36:41.892Z</time>
		<geoidheight>185</geoidheight>
	</trkpt>
	<trkpt lat="50.710217" lon="6.193947">
		<ele>231</ele>
		<time>2011-09-11T09:36:42.893Z</time>
		<geoidheight>185</geoidheight>
	</trkpt>
	<trkpt lat="50.710205" lon="6.193936">
		<ele>231</ele>
		<time>2011-09-11T09:36:43.893Z</time>
		<geoidheight>185</geoidheight>
	</trkpt>
	<trkpt lat="50.710194" lon="6.193923">
		<ele>231</ele>
		<time>2011-09-11T09:36:44.882Z</time>
		<geoidheight>185</geoidheight>
	</trkpt>
	<trkpt lat="50.710184" lon="6.193911">
		<ele>231</ele>
		<time>2011-09-11T09:36:45.881Z</time>
		<geoidheight>185</geoidheight>
	</trkpt>
	<trkpt lat="50.710174" lon="6.193900">
		<ele>231</ele>
		<time>2011-09-11T09:36:46.883Z</time>
		<geoidheight>185</geoidheight>
	</trkpt>
	<trkpt lat="50.710162" lon="6.193893">
		<ele>231</ele>
		<time>2011-09-11T09:36:47.881Z</time>
		<geoidheight>185</geoidheight>
	</trkpt>
	<trkpt lat="50.710152" lon="6.193882">
		<ele>231</ele>
		<time>2011-09-11T09:36:48.881Z</time>
		<geoidheight>185</geoidheight>
	</trkpt>
	<trkpt lat="50.710140" lon="6.193871">
		<ele>231</ele>
		<time>2011-09-11T09:36:49.883Z</time>
		<geoidheight>185</geoidheight>
	</trkpt>
	<trkpt lat="50.710129" lon="6.193860">
		<ele>231</ele>
		<time>2011-09-11T09:36:50.882Z</time>
		<geoidheight>185</geoidheight>
	</trkpt>
	<trkpt lat="50.710118" lon="6.193850">
		<ele>231</ele>
		<time>2011-09-11T09:36:51.883Z</time>
		<geoidheight>185</geoidheight>
	</trkpt>
	<trkpt lat="50.710106" lon="6.193844">
		<ele>231</ele>
		<time>2011-09-11T09:36:52.883Z</time>
		<geoidheight>185</geoidheight>
	</trkpt>
	<trkpt lat="50.710094" lon="6.193838">
		<ele>231</ele>
		<time>2011-09-11T09:36:53.882Z</time>
		<geoidheight>185</geoidheight>
	</trkpt>
	<trkpt lat="50.710082" lon="6.193832">
		<ele>231</ele>
		<time>2011-09-11T09:36:54.882Z</time>
		<geoidheight>185</geoidheight>
	</trkpt>
	<trkpt lat="50.710071" lon="6.193824">
		<ele>231</ele>
		<time>2011-09-11T09:36:55.884Z</time>
		<geoidheight>185</geoidheight>
	</trkpt>
	<trkpt lat="50.710059" lon="6.193813">
		<ele>231</ele>
		<time>2011-09-11T09:36:56.884Z</time>
		<geoidheight>185</geoidheight>
	</trkpt>
	<trkpt lat="50.710046" lon="6.193805">
		<ele>231</ele>
		<time>2011-09-11T09:36:57.882Z</time>
		<geoidheight>185</geoidheight>
	</trkpt>
	<trkpt lat="50.710032" lon="6.193797">
		<ele>231</ele>
		<time>2011-09-11T09:36:58.884Z</time>
		<geoidheight>185</geoidheight>
	</trkpt>
	<trkpt lat="50.710019" lon="6.193789">
		<ele>231</ele>
		<time>2011-09-11T09:36:59.883Z</time>
		<geoidheight>185</geoidheight>
	</trkpt>
	<trkpt lat="50.710006" lon="6.193779">
		<ele>231</ele>
		<time>2011-09-11T09:37:00.881Z</time>
		<geoidheight>185</geoidheight>
	</trkpt>
	<trkpt lat="50.709995" lon="6.193768">
		<ele>231</ele>
		<time>2011-09-11T09:37:01.883Z</time>
		<geoidheight>185</geoidheight>
	</trkpt>
	<trkpt lat="50.709983" lon="6.193757">
		<ele>231</ele>
		<time>2011-09-11T09:37:02.884Z</time>
		<geoidheight>185</geoidheight>
	</trkpt>
	<trkpt lat="50.709972" lon="6.193747">
		<ele>231</ele>
		<time>2011-09-11T09:37:03.882Z</time>
		<geoidheight>185</geoidheight>
	</trkpt>
	<trkpt lat="50.709962" lon="6.193738">
		<ele>231</ele>
		<time>2011-09-11T09:37:04.882Z</time>
		<geoidheight>185</geoidheight>
	</trkpt>
	<trkpt lat="50.709953" lon="6.193730">
		<ele>231</ele>
		<time>2011-09-11T09:37:05.884Z</time>
		<geoidheight>185</geoidheight>
	</trkpt>
	<trkpt lat="50.709944" lon="6.193726">
		<ele>231</ele>
		<time>2011-09-11T09:37:06.882Z</time>
		<geoidheight>185</geoidheight>
	</trkpt>
	<trkpt lat="50.709935" lon="6.193717">
		<ele>231</ele>
		<time>2011-09-11T09:37:07.882Z</time>
		<geoidheight>185</geoidheight>
	</trkpt>
	<trkpt lat="50.709925" lon="6.193707">
		<ele>231</ele>
		<time>2011-09-11T09:37:08.883Z</time>
		<geoidheight>185</geoidheight>
	</trkpt>
	<trkpt lat="50.709914" lon="6.193696">
		<ele>231</ele>
		<time>2011-09-11T09:37:09.881Z</time>
		<geoidheight>185</geoidheight>
	</trkpt>
	<trkpt lat="50.709902" lon="6.193685">
		<ele>231</ele>
		<time>2011-09-11T09:37:10.881Z</time>
		<geoidheight>185</geoidheight>
	</trkpt>
	<trkpt lat="50.709888" lon="6.193677">
		<ele>231</ele>
		<time>2011-09-11T09:37:11.883Z</time>
		<geoidheight>185</geoidheight>
	</trkpt>
	<trkpt lat="50.709873" lon="6.193665">
		<ele>231</ele>
		<time>2011-09-11T09:37:12.884Z</time>
		<geoidheight>185</geoidheight>
	</trkpt>
	<trkpt lat="50.709859" lon="6.193656">
		<ele>231</ele>
		<time>2011-09-11T09:37:13.882Z</time>
		<geoidheight>185</geoidheight>
	</trkpt>
	<trkpt lat="50.709846" lon="6.193646">
		<ele>230</ele>
		<time>2011-09-11T09:37:14.883Z</time>
		<geoidheight>184</geoidheight>
	</trkpt>
	<trkpt lat="50.709833" lon="6.193640">
		<ele>230</ele>
		<time>2011-09-11T09:37:15.882Z</time>
		<geoidheight>184</geoidheight>
	</trkpt>
	<trkpt lat="50.709820" lon="6.193635">
		<ele>230</ele>
		<time>2011-09-11T09:37:16.882Z</time>
		<geoidheight>184</geoidheight>
	</trkpt>
	<trkpt lat="50.709810" lon="6.193633">
		<ele>230</ele>
		<time>2011-09-11T09:37:17.885Z</time>
		<geoidheight>184</geoidheight>
	</trkpt>
	<trkpt lat="50.709800" lon="6.193630">
		<ele>230</ele>
		<time>2011-09-11T09:37:18.883Z</time>
		<geoidheight>184</geoidheight>
	</trkpt>
	<trkpt lat="50.709789" lon="6.193622">
		<ele>230</ele>
		<time>2011-09-11T09:37:19.882Z</time>
		<geoidheight>184</geoidheight>
	</trkpt>
	<trkpt lat="50.709777" lon="6.193610">
		<ele>230</ele>
		<time>2011-09-11T09:37:20.882Z</time>
		<geoidheight>184</geoidheight>
	</trkpt>
	<trkpt lat="50.709764" lon="6.193593">
		<ele>230</ele>
		<time>2011-09-11T09:37:21.884Z</time>
		<geoidheight>184</geoidheight>
	</trkpt>
	<trkpt lat="50.709753" lon="6.193576">
		<ele>230</ele>
		<time>2011-09-11T09:37:22.882Z</time>
		<geoidheight>184</geoidheight>
	</trkpt>
	<trkpt lat="50.709741" lon="6.193561">
		<ele>230</ele>
		<time>2011-09-11T09:37:23.883Z</time>
		<geoidheight>184</geoidheight>
	</trkpt>
	<trkpt lat="50.709730" lon="6.193547">
		<ele>230</ele>
		<time>2011-09-11T09:37:24.883Z</time>
		<geoidheight>184</geoidheight>
	</trkpt>
	<trkpt lat="50.709724" lon="6.193536">
		<ele>230</ele>
		<time>2011-09-11T09:37:25.882Z</time>
		<geoidheight>184</geoidheight>
	</trkpt>
	<trkpt lat="50.709718" lon="6.193526">
		<ele>230</ele>
		<time>2011-09-11T09:37:26.881Z</time>
		<geoidheight>184</geoidheight>
	</trkpt>
	<trkpt lat="50.709709" lon="6.193517">
		<ele>230</ele>
		<time>2011-09-11T09:37:27.884Z</time>
		<geoidheight>184</geoidheight>
	</trkpt>
	<trkpt lat="50.709698" lon="6.193506">
		<ele>230</ele>
		<time>2011-09-11T09:37:28.883Z</time>
		<geoidheight>184</geoidheight>
	</trkpt>
	<trkpt lat="50.709688" lon="6.193494">
		<ele>230</ele>
		<time>2011-09-11T09:37:29.881Z</time>
		<geoidheight>184</geoidheight>
	</trkpt>
	<trkpt lat="50.709676" lon="6.193486">
		<ele>230</ele>
		<time>2011-09-11T09:37:30.883Z</time>
		<geoidheight>184</geoidheight>
	</trkpt>
	<trkpt lat="50.709662" lon="6.193481">
		<ele>230</ele>
		<time>2011-09-11T09:37:31.882Z</time>
		<geoidheight>184</geoidheight>
	</trkpt>
	<trkpt lat="50.709651" lon="6.193473">
		<ele>230</ele>
		<time>2011-09-11T09:37:32.883Z</time>
		<geoidheight>184</geoidheight>
	</trkpt>
	<trkpt lat="50.709642" lon="6.193458">
		<ele>230</ele>
		<time>2011-09-11T09:37:33.885Z</time>
		<geoidheight>184</geoidheight>
	</trkpt>
	<trkpt lat="50.709628" lon="6.193448">
		<ele>230</ele>
		<time>2011-09-11T09:37:34.892Z</time>
		<geoidheight>184</geoidheight>
	</trkpt>
	<trkpt lat="50.709617" lon="6.193439">
		<ele>230</ele>
		<time>2011-09-11T09:37:35.882Z</time>
		<geoidheight>184</geoidheight>
	</trkpt>
	<trkpt lat="50.709606" lon="6.193426">
		<ele>230</ele>
		<time>2011-09-11T09:37:36.881Z</time>
		<geoidheight>184</geoidheight>
	</trkpt>
	<trkpt lat="50.709597" lon="6.193413">
		<ele>229</ele>
		<time>2011-09-11T09:37:37.883Z</time>
		<geoidheight>183</geoidheight>
	</trkpt>
	<trkpt lat="50.709583" lon="6.193397">
		<ele>229</ele>
		<time>2011-09-11T09:37:38.881Z</time>
		<geoidheight>183</geoidheight>
	</trkpt>
	<trkpt lat="50.709570" lon="6.193383">
		<ele>229</ele>
		<time>2011-09-11T09:37:39.883Z</time>
		<geoidheight>183</geoidheight>
	</trkpt>
	<trkpt lat="50.709557" lon="6.193371">
		<ele>229</ele>
		<time>2011-09-11T09:37:40.883Z</time>
		<geoidheight>183</geoidheight>
	</trkpt>
	<trkpt lat="50.709548" lon="6.193361">
		<ele>229</ele>
		<time>2011-09-11T09:37:41.881Z</time>
		<geoidheight>183</geoidheight>
	</trkpt>
	<trkpt lat="50.709540" lon="6.193351">
		<ele>229</ele>
		<time>2011-09-11T09:37:42.881Z</time>
		<geoidheight>183</geoidheight>
	</trkpt>
	<trkpt lat="50.709534" lon="6.193342">
		<ele>229</ele>
		<time>2011-09-11T09:37:43.882Z</time>
		<geoidheight>183</geoidheight>
	</trkpt>
	<trkpt lat="50.709531" lon="6.193331">
		<ele>229</ele>
		<time>2011-09-11T09:37:44.881Z</time>
		<geoidheight>183</geoidheight>
	</trkpt>
	<trkpt lat="50.709519" lon="6.193320">
		<ele>229</ele>
		<time>2011-09-11T09:37:45.881Z</time>
		<geoidheight>183</geoidheight>
	</trkpt>
	<trkpt lat="50.709506" lon="6.193309">
		<ele>229</ele>
		<time>2011-09-11T09:37:46.884Z</time>
		<geoidheight>183</geoidheight>
	</trkpt>
	<trkpt lat="50.709494" lon="6.193295">
		<ele>229</ele>
		<time>2011-09-11T09:37:47.882Z</time>
		<geoidheight>183</geoidheight>
	</trkpt>
	<trkpt lat="50.709484" lon="6.193280">
		<ele>229</ele>
		<time>2011-09-11T09:37:48.883Z</time>
		<geoidheight>183</geoidheight>
	</trkpt>
	<trkpt lat="50.709474" lon="6.193266">
		<ele>229</ele>
		<time>2011-09-11T09:37:49.884Z</time>
		<geoidheight>183</geoidheight>
	</trkpt>
	<trkpt lat="50.709461" lon="6.193253">
		<ele>229</ele>
		<time>2011-09-11T09:37:50.882Z</time>
		<geoidheight>183</geoidheight>
	</trkpt>
	<trkpt lat="50.709448" lon="6.193242">
		<ele>229</ele>
		<time>2011-09-11T09:37:51.882Z</time>
		<geoidheight>183</geoidheight>
	</trkpt>
	<trkpt lat="50.709436" lon="6.193227">
		<ele>229</ele>
		<time>2011-09-11T09:37:52.897Z</time>
		<geoidheight>183</geoidheight>
	</trkpt>
	<trkpt lat="50.709426" lon="6.193206">
		<ele>229</ele>
		<time>2011-09-11T09:37:53.883Z</time>
		<geoidheight>183</geoidheight>
	</trkpt>
	<trkpt lat="50.709418" lon="6.193186">
		<ele>229</ele>
		<time>2011-09-11T09:37:54.881Z</time>
		<geoidheight>183</geoidheight>
	</trkpt>
	<trkpt lat="50.709410" lon="6.193166">
		<ele>229</ele>
		<time>2011-09-11T09:37:55.883Z</time>
		<geoidheight>183</geoidheight>
	</trkpt>
	<trkpt lat="50.709402" lon="6.193146">
		<ele>229</ele>
		<time>2011-09-11T09:37:56.884Z</time>
		<geoidheight>183</geoidheight>
	</trkpt>
	<trkpt lat="50.709392" lon="6.193128">
		<ele>229</ele>
		<time>2011-09-11T09:37:57.883Z</time>
		<geoidheight>183</geoidheight>
	</trkpt>
	<trkpt lat="50.709384" lon="6.193110">
		<ele>229</ele>
		<time>2011-09-11T09:37:58.882Z</time>
		<geoidheight>183</geoidheight>
	</trkpt>
	<trkpt lat="50.709374" lon="6.193094">
		<ele>229</ele>
		<time>2011-09-11T09:37:59.884Z</time>
		<geoidheight>183</geoidheight>
	</trkpt>
	<trkpt lat="50.709363" lon="6.193077">
		<ele>230</ele>
		<time>2011-09-11T09:38:00.882Z</time>
		<geoidheight>184</geoidheight>
	</trkpt>
	<trkpt lat="50.709352" lon="6.193060">
		<ele>230</ele>
		<time>2011-09-11T09:38:01.890Z</time>
		<geoidheight>184</geoidheight>
	</trkpt>
	<trkpt lat="50.709340" lon="6.193044">
		<ele>230</ele>
		<time>2011-09-11T09:38:02.884Z</time>
		<geoidheight>184</geoidheight>
	</trkpt>
	<trkpt lat="50.709335" lon="6.193029">
		<ele>230</ele>
		<time>2011-09-11T09:38:03.882Z</time>
		<geoidheight>184</geoidheight>
	</trkpt>
	<trkpt lat="50.709324" lon="6.193017">
		<ele>230</ele>
		<time>2011-09-11T09:38:04.881Z</time>
		<geoidheight>184</geoidheight>
	</trkpt>
	<trkpt lat="50.709313" lon="6.193004">
		<ele>230</ele>
		<time>2011-09-11T09:38:05.884Z</time>
		<geoidheight>184</geoidheight>
	</trkpt>
	<trkpt lat="50.709302" lon="6.192987">
		<ele>230</ele>
		<time>2011-09-11T09:38:06.883Z</time>
		<geoidheight>184</geoidheight>
	</trkpt>
	<trkpt lat="50.709291" lon="6.192966">
		<ele>230</ele>
		<time>2011-09-11T09:38:07.881Z</time>
		<geoidheight>184</geoidheight>
	</trkpt>
	<trkpt lat="50.709281" lon="6.192944">
		<ele>230</ele>
		<time>2011-09-11T09:38:08.884Z</time>
		<geoidheight>184</geoidheight>
	</trkpt>
	<trkpt lat="50.709269" lon="6.192926">
		<ele>230</ele>
		<time>2011-09-11T09:38:09.882Z</time>
		<geoidheight>184</geoidheight>
	</trkpt>
	<trkpt lat="50.709258" lon="6.192910">
		<ele>230</ele>
		<time>2011-09-11T09:38:10.883Z</time>
		<geoidheight>184</geoidheight>
	</trkpt>
	<trkpt lat="50.709249" lon="6.192896">
		<ele>230</ele>
		<time>2011-09-11T09:38:11.882Z</time>
		<geoidheight>184</geoidheight>
	</trkpt>
	<trkpt lat="50.709238" lon="6.192881">
		<ele>230</ele>
		<time>2011-09-11T09:38:12.884Z</time>
		<geoidheight>184</geoidheight>
	</trkpt>
	<trkpt lat="50.709226" lon="6.192867">
		<ele>230</ele>
		<time>2011-09-11T09:38:13.883Z</time>
		<geoidheight>184</geoidheight>
	</trkpt>
	<trkpt lat="50.709215" lon="6.192854">
		<ele>230</ele>
		<time>2011-09-11T09:38:14.886Z</time>
		<geoidheight>184</geoidheight>
	</trkpt>
	<trkpt lat="50.709209" lon="6.192840">
		<ele>230</ele>
		<time>2011-09-11T09:38:15.886Z</time>
		<geoidheight>184</geoidheight>
	</trkpt>
	<trkpt lat="50.709206" lon="6.192827">
		<ele>231</ele>
		<time>2011-09-11T09:38:16.883Z</time>
		<geoidheight>185</geoidheight>
	</trkpt>
	<trkpt lat="50.709200" lon="6.192811">
		<ele>231</ele>
		<time>2011-09-11T09:38:17.884Z</time>
		<geoidheight>185</geoidheight>
	</trkpt>
	<trkpt lat="50.709198" lon="6.192795">
		<ele>231</ele>
		<time>2011-09-11T09:38:18.885Z</time>
		<geoidheight>185</geoidheight>
	</trkpt>
	<trkpt lat="50.709196" lon="6.192781">
		<ele>231</ele>
		<time>2011-09-11T09:38:19.888Z</time>
		<geoidheight>185</geoidheight>
	</trkpt>
	<trkpt lat="50.709195" lon="6.192769">
		<ele>231</ele>
		<time>2011-09-11T09:38:20.896Z</time>
		<geoidheight>185</geoidheight>
	</trkpt>
	<trkpt lat="50.709192" lon="6.192758">
		<ele>231</ele>
		<time>2011-09-11T09:38:21.901Z</time>
		<geoidheight>185</geoidheight>
	</trkpt>
	<trkpt lat="50.709187" lon="6.192749">
		<ele>231</ele>
		<time>2011-09-11T09:38:22.884Z</time>
		<geoidheight>185</geoidheight>
	</trkpt>
	<trkpt lat="50.709179" lon="6.192740">
		<ele>231</ele>
		<time>2011-09-11T09:38:23.882Z</time>
		<geoidheight>185</geoidheight>
	</trkpt>
	<trkpt lat="50.709169" lon="6.192727">
		<ele>231</ele>
		<time>2011-09-11T09:38:24.887Z</time>
		<geoidheight>185</geoidheight>
	</trkpt>
	<trkpt lat="50.709159" lon="6.192714">
		<ele>231</ele>
		<time>2011-09-11T09:38:25.882Z</time>
		<geoidheight>185</geoidheight>
	</trkpt>
	<trkpt lat="50.709150" lon="6.192700">
		<ele>231</ele>
		<time>2011-09-11T09:38:26.886Z</time>
		<geoidheight>185</geoidheight>
	</trkpt>
	<trkpt lat="50.709138" lon="6.192686">
		<ele>231</ele>
		<time>2011-09-11T09:38:27.884Z</time>
		<geoidheight>185</geoidheight>
	</trkpt>
	<trkpt lat="50.709129" lon="6.192670">
		<ele>231</ele>
		<time>2011-09-11T09:38:28.883Z</time>
		<geoidheight>185</geoidheight>
	</trkpt>
	<trkpt lat="50.709119" lon="6.192654">
		<ele>231</ele>
		<time>2011-09-11T09:38:29.884Z</time>
		<geoidheight>185</geoidheight>
	</trkpt>
	<trkpt lat="50.709109" lon="6.192635">
		<ele>231</ele>
		<time>2011-09-11T09:38:30.884Z</time>
		<geoidheight>185</geoidheight>
	</trkpt>
	<trkpt lat="50.709100" lon="6.192616">
		<ele>231</ele>
		<time>2011-09-11T09:38:31.883Z</time>
		<geoidheight>185</geoidheight>
	</trkpt>
	<trkpt lat="50.709091" lon="6.192599">
		<ele>231</ele>
		<time>2011-09-11T09:38:32.886Z</time>
		<geoidheight>185</geoidheight>
	</trkpt>
	<trkpt lat="50.709078" lon="6.192584">
		<ele>231</ele>
		<time>2011-09-11T09:38:33.888Z</time>
		<geoidheight>185</geoidheight>
	</trkpt>
	<trkpt lat="50.709067" lon="6.192569">
		<ele>231</ele>
		<time>2011-09-11T09:38:34.886Z</time>
		<geoidheight>185</geoidheight>
	</trkpt>
	<trkpt lat="50.709061" lon="6.192550">
		<ele>231</ele>
		<time>2011-09-11T09:38:35.886Z</time>
		<geoidheight>185</geoidheight>
	</trkpt>
	<trkpt lat="50.709058" lon="6.192530">
		<ele>231</ele>
		<time>2011-09-11T09:38:36.884Z</time>
		<geoidheight>185</geoidheight>
	</trkpt>
	<trkpt lat="50.709055" lon="6.192510">
		<ele>231</ele>
		<time>2011-09-11T09:38:37.891Z</time>
		<geoidheight>185</geoidheight>
	</trkpt>
	<trkpt lat="50.709053" lon="6.192492">
		<ele>231</ele>
		<time>2011-09-11T09:38:38.900Z</time>
		<geoidheight>185</geoidheight>
	</trkpt>
	<trkpt lat="50.709049" lon="6.192473">
		<ele>231</ele>
		<time>2011-09-11T09:38:39.903Z</time>
		<geoidheight>185</geoidheight>
	</trkpt>
	<trkpt lat="50.709039" lon="6.192459">
		<ele>231</ele>
		<time>2011-09-11T09:38:40.906Z</time>
		<geoidheight>185</geoidheight>
	</trkpt>
	<trkpt lat="50.709028" lon="6.192446">
		<ele>231</ele>
		<time>2011-09-11T09:38:41.908Z</time>
		<geoidheight>185</geoidheight>
	</trkpt>
	<trkpt lat="50.709012" lon="6.192423">
		<ele>231</ele>
		<time>2011-09-11T09:38:42.914Z</time>
		<geoidheight>185</geoidheight>
	</trkpt>
	<trkpt lat="50.709002" lon="6.192396">
		<ele>231</ele>
		<time>2011-09-11T09:38:43.916Z</time>
		<geoidheight>185</geoidheight>
	</trkpt>
	<trkpt lat="50.708992" lon="6.192370">
		<ele>231</ele>
		<time>2011-09-11T09:38:44.906Z</time>
		<geoidheight>185</geoidheight>
	</trkpt>
	<trkpt lat="50.708983" lon="6.192345">
		<ele>231</ele>
		<time>2011-09-11T09:38:45.905Z</time>
		<geoidheight>185</geoidheight>
	</trkpt>
	<trkpt lat="50.708973" lon="6.192323">
		<ele>231</ele>
		<time>2011-09-11T09:38:46.912Z</time>
		<geoidheight>185</geoidheight>
	</trkpt>
	<trkpt lat="50.708960" lon="6.192305">
		<ele>231</ele>
		<time>2011-09-11T09:38:47.900Z</time>
		<geoidheight>185</geoidheight>
	</trkpt>
	<trkpt lat="50.708946" lon="6.192288">
		<ele>231</ele>
		<time>2011-09-11T09:38:48.903Z</time>
		<geoidheight>185</geoidheight>
	</trkpt>
	<trkpt lat="50.708933" lon="6.192271">
		<ele>231</ele>
		<time>2011-09-11T09:38:49.892Z</time>
		<geoidheight>185</geoidheight>
	</trkpt>
	<trkpt lat="50.708921" lon="6.192255">
		<ele>231</ele>
		<time>2011-09-11T09:38:50.889Z</time>
		<geoidheight>185</geoidheight>
	</trkpt>
	<trkpt lat="50.708909" lon="6.192244">
		<ele>231</ele>
		<time>2011-09-11T09:38:51.885Z</time>
		<geoidheight>185</geoidheight>
	</trkpt>
	<trkpt lat="50.708896" lon="6.192233">
		<ele>231</ele>
		<time>2011-09-11T09:38:52.882Z</time>
		<geoidheight>185</geoidheight>
	</trkpt>
	<trkpt lat="50.708884" lon="6.192220">
		<ele>231</ele>
		<time>2011-09-11T09:38:53.884Z</time>
		<geoidheight>185</geoidheight>
	</trkpt>
	<trkpt lat="50.708874" lon="6.192205">
		<ele>231</ele>
		<time>2011-09-11T09:38:54.884Z</time>
		<geoidheight>185</geoidheight>
	</trkpt>
	<trkpt lat="50.708863" lon="6.192192">
		<ele>231</ele>
		<time>2011-09-11T09:38:55.882Z</time>
		<geoidheight>185</geoidheight>
	</trkpt>
	<trkpt lat="50.708855" lon="6.192177">
		<ele>231</ele>
		<time>2011-09-11T09:38:56.888Z</time>
		<geoidheight>185</geoidheight>
	</trkpt>
	<trkpt lat="50.708850" lon="6.192167">
		<ele>231</ele>
		<time>2011-09-11T09:38:57.884Z</time>
		<geoidheight>185</geoidheight>
	</trkpt>
	<trkpt lat="50.708846" lon="6.192156">
		<ele>231</ele>
		<time>2011-09-11T09:38:58.882Z</time>
		<geoidheight>185</geoidheight>
	</trkpt>
	<trkpt lat="50.708842" lon="6.192146">
		<ele>231</ele>
		<time>2011-09-11T09:38:59.884Z</time>
		<geoidheight>185</geoidheight>
	</trkpt>
	<trkpt lat="50.708840" lon="6.192141">
		<ele>231</ele>
		<time>2011-09-11T09:39:00.885Z</time>
		<geoidheight>185</geoidheight>
	</trkpt>
	<trkpt lat="50.708836" lon="6.192132">
		<ele>231</ele>
		<time>2011-09-11T09:39:02.882Z</time>
		<geoidheight>185</geoidheight>
	</trkpt>
	<trkpt lat="50.708833" lon="6.192131">
		<ele>231</ele>
		<time>2011-09-11T09:39:03.884Z</time>
		<geoidheight>185</geoidheight>
	</trkpt>
	<trkpt lat="50.708829" lon="6.192129">
		<ele>232</ele>
		<time>2011-09-11T09:39:16.882Z</time>
		<geoidheight>186</geoidheight>
	</trkpt>
	<trkpt lat="50.708815" lon="6.192060">
		<ele>232</ele>
		<time>2011-09-11T09:39:17.897Z</time>
		<geoidheight>186</geoidheight>
	</trkpt>
	<trkpt lat="50.708815" lon="6.192060">
		<ele>232</ele>
		<time>2011-09-11T09:39:21.894Z</time>
		<geoidheight>186</geoidheight>
	</trkpt>
	<trkpt lat="50.708796" lon="6.191987">
		<ele>232</ele>
		<time>2011-09-11T09:39:22.883Z</time>
		<geoidheight>186</geoidheight>
	</trkpt>
	<trkpt lat="50.708796" lon="6.191987">
		<ele>232</ele>
		<time>2011-09-11T09:39:26.887Z</time>
		<geoidheight>186</geoidheight>
	</trkpt>
	<trkpt lat="50.708777" lon="6.191909">
		<ele>232</ele>
		<time>2011-09-11T09:39:27.892Z</time>
		<geoidheight>186</geoidheight>
	</trkpt>
	<trkpt lat="50.708777" lon="6.191909">
		<ele>232</ele>
		<time>2011-09-11T09:39:30.884Z</time>
		<geoidheight>186</geoidheight>
	</trkpt>
	<trkpt lat="50.708749" lon="6.191850">
		<ele>232</ele>
		<time>2011-09-11T09:39:31.899Z</time>
		<geoidheight>186</geoidheight>
	</trkpt>
	<trkpt lat="50.708749" lon="6.191850">
		<ele>232</ele>
		<time>2011-09-11T09:39:34.890Z</time>
		<geoidheight>186</geoidheight>
	</trkpt>
	<trkpt lat="50.708735" lon="6.191779">
		<ele>232</ele>
		<time>2011-09-11T09:39:35.882Z</time>
		<geoidheight>186</geoidheight>
	</trkpt>
	<trkpt lat="50.708735" lon="6.191779">
		<ele>232</ele>
		<time>2011-09-11T09:39:41.903Z</time>
		<geoidheight>186</geoidheight>
	</trkpt>
	<trkpt lat="50.708720" lon="6.191707">
		<ele>232</ele>
		<time>2011-09-11T09:39:42.899Z</time>
		<geoidheight>186</geoidheight>
	</trkpt>
	<trkpt lat="50.708720" lon="6.191707">
		<ele>233</ele>
		<time>2011-09-11T09:40:25.899Z</time>
		<geoidheight>187</geoidheight>
	</trkpt>
	<trkpt lat="50.708705" lon="6.191638">
		<ele>233</ele>
		<time>2011-09-11T09:40:26.898Z</time>
		<geoidheight>187</geoidheight>
	</trkpt>
	<trkpt lat="50.708705" lon="6.191638">
		<ele>235</ele>
		<time>2011-09-11T09:40:54.909Z</time>
		<geoidheight>189</geoidheight>
	</trkpt>
	<trkpt lat="50.708747" lon="6.191603">
		<ele>235</ele>
		<time>2011-09-11T09:40:55.908Z</time>
		<geoidheight>189</geoidheight>
	</trkpt>
	<trkpt lat="50.708747" lon="6.191603">
		<ele>235</ele>
		<time>2011-09-11T09:40:58.910Z</time>
		<geoidheight>189</geoidheight>
	</trkpt>
	<trkpt lat="50.708780" lon="6.191573">
		<ele>235</ele>
		<time>2011-09-11T09:40:59.894Z</time>
		<geoidheight>189</geoidheight>
	</trkpt>
	<trkpt lat="50.708787" lon="6.191559">
		<ele>235</ele>
		<time>2011-09-11T09:41:00.896Z</time>
		<geoidheight>189</geoidheight>
	</trkpt>
	<trkpt lat="50.708791" lon="6.191542">
		<ele>235</ele>
		<time>2011-09-11T09:41:01.921Z</time>
		<geoidheight>189</geoidheight>
	</trkpt>
	<trkpt lat="50.708794" lon="6.191523">
		<ele>236</ele>
		<time>2011-09-11T09:41:02.912Z</time>
		<geoidheight>190</geoidheight>
	</trkpt>
	<trkpt lat="50.708795" lon="6.191503">
		<ele>236</ele>
		<time>2011-09-11T09:41:03.893Z</time>
		<geoidheight>190</geoidheight>
	</trkpt>
	<trkpt lat="50.708796" lon="6.191483">
		<ele>236</ele>
		<time>2011-09-11T09:41:04.902Z</time>
		<geoidheight>190</geoidheight>
	</trkpt>
	<trkpt lat="50.708793" lon="6.191466">
		<ele>236</ele>
		<time>2011-09-11T09:41:05.891Z</time>
		<geoidheight>190</geoidheight>
	</trkpt>
	<trkpt lat="50.708791" lon="6.191449">
		<ele>236</ele>
		<time>2011-09-11T09:41:06.889Z</time>
		<geoidheight>190</geoidheight>
	</trkpt>
	<trkpt lat="50.708789" lon="6.191433">
		<ele>236</ele>
		<time>2011-09-11T09:41:07.884Z</time>
		<geoidheight>190</geoidheight>
	</trkpt>
	<trkpt lat="50.708787" lon="6.191416">
		<ele>236</ele>
		<time>2011-09-11T09:41:08.884Z</time>
		<geoidheight>190</geoidheight>
	</trkpt>
	<trkpt lat="50.708786" lon="6.191399">
		<ele>236</ele>
		<time>2011-09-11T09:41:09.885Z</time>
		<geoidheight>190</geoidheight>
	</trkpt>
	<trkpt lat="50.708783" lon="6.191377">
		<ele>236</ele>
		<time>2011-09-11T09:41:10.885Z</time>
		<geoidheight>190</geoidheight>
	</trkpt>
	<trkpt lat="50.708779" lon="6.191348">
		<ele>236</ele>
		<time>2011-09-11T09:41:11.884Z</time>
		<geoidheight>190</geoidheight>
	</trkpt>
	<trkpt lat="50.708774" lon="6.191320">
		<ele>237</ele>
		<time>2011-09-11T09:41:12.885Z</time>
		<geoidheight>191</geoidheight>
	</trkpt>
	<trkpt lat="50.708772" lon="6.191295">
		<ele>237</ele>
		<time>2011-09-11T09:41:13.883Z</time>
		<geoidheight>191</geoidheight>
	</trkpt>
	<trkpt lat="50.708770" lon="6.191271">
		<ele>237</ele>
		<time>2011-09-11T09:41:14.883Z</time>
		<geoidheight>191</geoidheight>
	</trkpt>
	<trkpt lat="50.708770" lon="6.191248">
		<ele>237</ele>
		<time>2011-09-11T09:41:15.884Z</time>
		<geoidheight>191</geoidheight>
	</trkpt>
	<trkpt lat="50.708772" lon="6.191227">
		<ele>237</ele>
		<time>2011-09-11T09:41:16.883Z</time>
		<geoidheight>191</geoidheight>
	</trkpt>
	<trkpt lat="50.708774" lon="6.191205">
		<ele>237</ele>
		<time>2011-09-11T09:41:17.884Z</time>
		<geoidheight>191</geoidheight>
	</trkpt>
	<trkpt lat="50.708775" lon="6.191182">
		<ele>237</ele>
		<time>2011-09-11T09:41:18.883Z</time>
		<geoidheight>191</geoidheight>
	</trkpt>
	<trkpt lat="50.708776" lon="6.191159">
		<ele>238</ele>
		<time>2011-09-11T09:41:19.885Z</time>
		<geoidheight>192</geoidheight>
	</trkpt>
	<trkpt lat="50.708780" lon="6.191136">
		<ele>238</ele>
		<time>2011-09-11T09:41:20.884Z</time>
		<geoidheight>192</geoidheight>
	</trkpt>
	<trkpt lat="50.708786" lon="6.191117">
		<ele>238</ele>
		<time>2011-09-11T09:41:21.893Z</time>
		<geoidheight>192</geoidheight>
	</trkpt>
	<trkpt lat="50.708794" lon="6.191100">
		<ele>238</ele>
		<time>2011-09-11T09:41:22.884Z</time>
		<geoidheight>192</geoidheight>
	</trkpt>
	<trkpt lat="50.708804" lon="6.191084">
		<ele>238</ele>
		<time>2011-09-11T09:41:23.884Z</time>
		<geoidheight>192</geoidheight>
	</trkpt>
	<trkpt lat="50.708811" lon="6.191065">
		<ele>238</ele>
		<time>2011-09-11T09:41:24.892Z</time>
		<geoidheight>192</geoidheight>
	</trkpt>
	<trkpt lat="50.708819" lon="6.191044">
		<ele>239</ele>
		<time>2011-09-11T09:41:25.897Z</time>
		<geoidheight>193</geoidheight>
	</trkpt>
	<trkpt lat="50.708826" lon="6.191026">
		<ele>239</ele>
		<time>2011-09-11T09:41:26.885Z</time>
		<geoidheight>193</geoidheight>
	</trkpt>
	<trkpt lat="50.708831" lon="6.191009">
		<ele>239</ele>
		<time>2011-09-11T09:41:27.883Z</time>
		<geoidheight>193</geoidheight>
	</trkpt>
	<trkpt lat="50.708834" lon="6.190991">
		<ele>239</ele>
		<time>2011-09-11T09:41:28.886Z</time>
		<geoidheight>193</geoidheight>
	</trkpt>
	<trkpt lat="50.708835" lon="6.190970">
		<ele>239</ele>
		<time>2011-09-11T09:41:29.885Z</time>
		<geoidheight>193</geoidheight>
	</trkpt>
	<trkpt lat="50.708833" lon="6.190946">
		<ele>239</ele>
		<time>2011-09-11T09:41:30.887Z</time>
		<geoidheight>193</geoidheight>
	</trkpt>
	<trkpt lat="50.708833" lon="6.190923">
		<ele>239</ele>
		<time>2011-09-11T09:41:31.886Z</time>
		<geoidheight>193</geoidheight>
	</trkpt>
	<trkpt lat="50.708831" lon="6.190901">
		<ele>239</ele>
		<time>2011-09-11T09:41:32.887Z</time>
		<geoidheight>193</geoidheight>
	</trkpt>
	<trkpt lat="50.708829" lon="6.190881">
		<ele>240</ele>
		<time>2011-09-11T09:41:33.884Z</time>
		<geoidheight>194</geoidheight>
	</trkpt>
	<trkpt lat="50.708824" lon="6.190862">
		<ele>240</ele>
		<time>2011-09-11T09:41:34.886Z</time>
		<geoidheight>194</geoidheight>
	</trkpt>
	<trkpt lat="50.708819" lon="6.190846">
		<ele>240</ele>
		<time>2011-09-11T09:41:35.886Z</time>
		<geoidheight>194</geoidheight>
	</trkpt>
	<trkpt lat="50.708819" lon="6.190846">
		<ele>240</ele>
		<time>2011-09-11T09:41:40.888Z</time>
		<geoidheight>194</geoidheight>
	</trkpt>
	<trkpt lat="50.708814" lon="6.190759">
		<ele>240</ele>
		<time>2011-09-11T09:41:41.886Z</time>
		<geoidheight>194</geoidheight>
	</trkpt>
	<trkpt lat="50.708814" lon="6.190737">
		<ele>240</ele>
		<time>2011-09-11T09:41:42.886Z</time>
		<geoidheight>194</geoidheight>
	</trkpt>
	<trkpt lat="50.708812" lon="6.190714">
		<ele>240</ele>
		<time>2011-09-11T09:41:43.884Z</time>
		<geoidheight>194</geoidheight>
	</trkpt>
	<trkpt lat="50.708808" lon="6.190688">
		<ele>240</ele>
		<time>2011-09-11T09:41:44.886Z</time>
		<geoidheight>194</geoidheight>
	</trkpt>
	<trkpt lat="50.708803" lon="6.190658">
		<ele>240</ele>
		<time>2011-09-11T09:41:45.884Z</time>
		<geoidheight>194</geoidheight>
	</trkpt>
	<trkpt lat="50.708800" lon="6.190631">
		<ele>240</ele>
		<time>2011-09-11T09:41:46.885Z</time>
		<geoidheight>194</geoidheight>
	</trkpt>
	<trkpt lat="50.708796" lon="6.190604">
		<ele>240</ele>
		<time>2011-09-11T09:41:47.885Z</time>
		<geoidheight>194</geoidheight>
	</trkpt>
	<trkpt lat="50.708792" lon="6.190577">
		<ele>240</ele>
		<time>2011-09-11T09:41:48.883Z</time>
		<geoidheight>194</geoidheight>
	</trkpt>
	<trkpt lat="50.708788" lon="6.190553">
		<ele>240</ele>
		<time>2011-09-11T09:41:49.884Z</time>
		<geoidheight>194</geoidheight>
	</trkpt>
	<trkpt lat="50.708786" lon="6.190530">
		<ele>240</ele>
		<time>2011-09-11T09:41:50.887Z</time>
		<geoidheight>194</geoidheight>
	</trkpt>
	<trkpt lat="50.708784" lon="6.190510">
		<ele>240</ele>
		<time>2011-09-11T09:41:51.885Z</time>
		<geoidheight>194</geoidheight>
	</trkpt>
	<trkpt lat="50.708783" lon="6.190493">
		<ele>240</ele>
		<time>2011-09-11T09:41:52.897Z</time>
		<geoidheight>194</geoidheight>
	</trkpt>
	<trkpt lat="50.708782" lon="6.190477">
		<ele>240</ele>
		<time>2011-09-11T09:41:53.884Z</time>
		<geoidheight>194</geoidheight>
	</trkpt>
	<trkpt lat="50.708779" lon="6.190460">
		<ele>240</ele>
		<time>2011-09-11T09:41:54.885Z</time>
		<geoidheight>194</geoidheight>
	</trkpt>
	<trkpt lat="50.708776" lon="6.190437">
		<ele>240</ele>
		<time>2011-09-11T09:41:55.884Z</time>
		<geoidheight>194</geoidheight>
	</trkpt>
	<trkpt lat="50.708772" lon="6.190412">
		<ele>240</ele>
		<time>2011-09-11T09:41:56.884Z</time>
		<geoidheight>194</geoidheight>
	</trkpt>
	<trkpt lat="50.708770" lon="6.190386">
		<ele>240</ele>
		<time>2011-09-11T09:41:57.886Z</time>
		<geoidheight>194</geoidheight>
	</trkpt>
	<trkpt lat="50.708767" lon="6.190359">
		<ele>240</ele>
		<time>2011-09-11T09:41:58.885Z</time>
		<geoidheight>194</geoidheight>
	</trkpt>
	<trkpt lat="50.708762" lon="6.190328">
		<ele>240</ele>
		<time>2011-09-11T09:41:59.885Z</time>
		<geoidheight>194</geoidheight>
	</trkpt>
	<trkpt lat="50.708757" lon="6.190294">
		<ele>240</ele>
		<time>2011-09-11T09:42:00.886Z</time>
		<geoidheight>194</geoidheight>
	</trkpt>
	<trkpt lat="50.708752" lon="6.190262">
		<ele>240</ele>
		<time>2011-09-11T09:42:01.884Z</time>
		<geoidheight>194</geoidheight>
	</trkpt>
	<trkpt lat="50.708747" lon="6.190231">
		<ele>240</ele>
		<time>2011-09-11T09:42:02.884Z</time>
		<geoidheight>194</geoidheight>
	</trkpt>
	<trkpt lat="50.708742" lon="6.190202">
		<ele>240</ele>
		<time>2011-09-11T09:42:03.886Z</time>
		<geoidheight>194</geoidheight>
	</trkpt>
	<trkpt lat="50.708738" lon="6.190175">
		<ele>240</ele>
		<time>2011-09-11T09:42:04.885Z</time>
		<geoidheight>194</geoidheight>
	</trkpt>
	<trkpt lat="50.708733" lon="6.190149">
		<ele>240</ele>
		<time>2011-09-11T09:42:05.885Z</time>
		<geoidheight>194</geoidheight>
	</trkpt>
	<trkpt lat="50.708729" lon="6.190123">
		<ele>240</ele>
		<time>2011-09-11T09:42:06.886Z</time>
		<geoidheight>194</geoidheight>
	</trkpt>
	<trkpt lat="50.708726" lon="6.190098">
		<ele>240</ele>
		<time>2011-09-11T09:42:07.884Z</time>
		<geoidheight>194</geoidheight>
	</trkpt>
	<trkpt lat="50.708724" lon="6.190074">
		<ele>240</ele>
		<time>2011-09-11T09:42:08.886Z</time>
		<geoidheight>194</geoidheight>
	</trkpt>
	<trkpt lat="50.708722" lon="6.190053">
		<ele>240</ele>
		<time>2011-09-11T09:42:09.887Z</time>
		<geoidheight>194</geoidheight>
	</trkpt>
	<trkpt lat="50.708720" lon="6.190031">
		<ele>240</ele>
		<time>2011-09-11T09:42:10.884Z</time>
		<geoidheight>194</geoidheight>
	</trkpt>
	<trkpt lat="50.708718" lon="6.190010">
		<ele>240</ele>
		<time>2011-09-11T09:42:11.885Z</time>
		<geoidheight>194</geoidheight>
	</trkpt>
	<trkpt lat="50.708717" lon="6.189990">
		<ele>240</ele>
		<time>2011-09-11T09:42:12.886Z</time>
		<geoidheight>194</geoidheight>
	</trkpt>
	<trkpt lat="50.708715" lon="6.189972">
		<ele>240</ele>
		<time>2011-09-11T09:42:13.886Z</time>
		<geoidheight>194</geoidheight>
	</trkpt>
	<trkpt lat="50.708714" lon="6.189956">
		<ele>240</ele>
		<time>2011-09-11T09:42:14.885Z</time>
		<geoidheight>194</geoidheight>
	</trkpt>
	<trkpt lat="50.708713" lon="6.189941">
		<ele>240</ele>
		<time>2011-09-11T09:42:15.886Z</time>
		<geoidheight>194</geoidheight>
	</trkpt>
	<trkpt lat="50.708711" lon="6.189923">
		<ele>240</ele>
		<time>2011-09-11T09:42:16.886Z</time>
		<geoidheight>194</geoidheight>
	</trkpt>
	<trkpt lat="50.708709" lon="6.189902">
		<ele>240</ele>
		<time>2011-09-11T09:42:17.885Z</time>
		<geoidheight>194</geoidheight>
	</trkpt>
	<trkpt lat="50.708708" lon="6.189882">
		<ele>240</ele>
		<time>2011-09-11T09:42:18.884Z</time>
		<geoidheight>194</geoidheight>
	</trkpt>
	<trkpt lat="50.708706" lon="6.189863">
		<ele>239</ele>
		<time>2011-09-11T09:42:19.887Z</time>
		<geoidheight>193</geoidheight>
	</trkpt>
	<trkpt lat="50.708705" lon="6.189845">
		<ele>239</ele>
		<time>2011-09-11T09:42:20.885Z</time>
		<geoidheight>193</geoidheight>
	</trkpt>
	<trkpt lat="50.708705" lon="6.189828">
		<ele>239</ele>
		<time>2011-09-11T09:42:21.885Z</time>
		<geoidheight>193</geoidheight>
	</trkpt>
	<trkpt lat="50.708705" lon="6.189810">
		<ele>239</ele>
		<time>2011-09-11T09:42:22.886Z</time>
		<geoidheight>193</geoidheight>
	</trkpt>
	<trkpt lat="50.708706" lon="6.189793">
		<ele>239</ele>
		<time>2011-09-11T09:42:23.884Z</time>
		<geoidheight>193</geoidheight>
	</trkpt>
	<trkpt lat="50.708707" lon="6.189776">
		<ele>239</ele>
		<time>2011-09-11T09:42:24.885Z</time>
		<geoidheight>193</geoidheight>
	</trkpt>
	<trkpt lat="50.708709" lon="6.189760">
		<ele>239</ele>
		<time>2011-09-11T09:42:25.890Z</time>
		<geoidheight>193</geoidheight>
	</trkpt>
	<trkpt lat="50.708709" lon="6.189741">
		<ele>239</ele>
		<time>2011-09-11T09:42:26.884Z</time>
		<geoidheight>193</geoidheight>
	</trkpt>
	<trkpt lat="50.708709" lon="6.189722">
		<ele>239</ele>
		<time>2011-09-11T09:42:27.884Z</time>
		<geoidheight>193</geoidheight>
	</trkpt>
	<trkpt lat="50.708707" lon="6.189702">
		<ele>240</ele>
		<time>2011-09-11T09:42:28.886Z</time>
		<geoidheight>194</geoidheight>
	</trkpt>
	<trkpt lat="50.708703" lon="6.189683">
		<ele>240</ele>
		<time>2011-09-11T09:42:29.885Z</time>
		<geoidheight>194</geoidheight>
	</trkpt>
	<trkpt lat="50.708697" lon="6.189665">
		<ele>240</ele>
		<time>2011-09-11T09:42:30.884Z</time>
		<geoidheight>194</geoidheight>
	</trkpt>
	<trkpt lat="50.708691" lon="6.189647">
		<ele>240</ele>
		<time>2011-09-11T09:42:31.884Z</time>
		<geoidheight>194</geoidheight>
	</trkpt>
	<trkpt lat="50.708684" lon="6.189627">
		<ele>240</ele>
		<time>2011-09-11T09:42:32.884Z</time>
		<geoidheight>194</geoidheight>
	</trkpt>
	<trkpt lat="50.708678" lon="6.189605">
		<ele>240</ele>
		<time>2011-09-11T09:42:33.885Z</time>
		<geoidheight>194</geoidheight>
	</trkpt>
	<trkpt lat="50.708669" lon="6.189582">
		<ele>240</ele>
		<time>2011-09-11T09:42:34.885Z</time>
		<geoidheight>194</geoidheight>
	</trkpt>
	<trkpt lat="50.708656" lon="6.189560">
		<ele>240</ele>
		<time>2011-09-11T09:42:35.885Z</time>
		<geoidheight>194</geoidheight>
	</trkpt>
	<trkpt lat="50.708643" lon="6.189540">
		<ele>240</ele>
		<time>2011-09-11T09:42:36.885Z</time>
		<geoidheight>194</geoidheight>
	</trkpt>
	<trkpt lat="50.708631" lon="6.189519">
		<ele>240</ele>
		<time>2011-09-11T09:42:37.884Z</time>
		<geoidheight>194</geoidheight>
	</trkpt>
	<trkpt lat="50.708621" lon="6.189499">
		<ele>240</ele>
		<time>2011-09-11T09:42:38.886Z</time>
		<geoidheight>194</geoidheight>
	</trkpt>
	<trkpt lat="50.708612" lon="6.189482">
		<ele>240</ele>
		<time>2011-09-11T09:42:39.886Z</time>
		<geoidheight>194</geoidheight>
	</trkpt>
	<trkpt lat="50.708604" lon="6.189463">
		<ele>240</ele>
		<time>2011-09-11T09:42:40.884Z</time>
		<geoidheight>194</geoidheight>
	</trkpt>
	<trkpt lat="50.708595" lon="6.189448">
		<ele>240</ele>
		<time>2011-09-11T09:42:41.886Z</time>
		<geoidheight>194</geoidheight>
	</trkpt>
	<trkpt lat="50.708587" lon="6.189435">
		<ele>240</ele>
		<time>2011-09-11T09:42:42.885Z</time>
		<geoidheight>194</geoidheight>
	</trkpt>
	<trkpt lat="50.708579" lon="6.189423">
		<ele>240</ele>
		<time>2011-09-11T09:42:43.884Z</time>
		<geoidheight>194</geoidheight>
	</trkpt>
	<trkpt lat="50.708571" lon="6.189413">
		<ele>240</ele>
		<time>2011-09-11T09:42:44.886Z</time>
		<geoidheight>194</geoidheight>
	</trkpt>
	<trkpt lat="50.708563" lon="6.189402">
		<ele>240</ele>
		<time>2011-09-11T09:42:45.886Z</time>
		<geoidheight>194</geoidheight>
	</trkpt>
	<trkpt lat="50.708556" lon="6.189391">
		<ele>240</ele>
		<time>2011-09-11T09:42:46.884Z</time>
		<geoidheight>194</geoidheight>
	</trkpt>
	<trkpt lat="50.708549" lon="6.189381">
		<ele>239</ele>
		<time>2011-09-11T09:42:47.886Z</time>
		<geoidheight>193</geoidheight>
	</trkpt>
	<trkpt lat="50.708542" lon="6.189371">
		<ele>239</ele>
		<time>2011-09-11T09:42:48.885Z</time>
		<geoidheight>193</geoidheight>
	</trkpt>
	<trkpt lat="50.708537" lon="6.189361">
		<ele>239</ele>
		<time>2011-09-11T09:42:49.884Z</time>
		<geoidheight>193</geoidheight>
	</trkpt>
	<trkpt lat="50.708530" lon="6.189354">
		<ele>239</ele>
		<time>2011-09-11T09:42:50.885Z</time>
		<geoidheight>193</geoidheight>
	</trkpt>
	<trkpt lat="50.708525" lon="6.189344">
		<ele>239</ele>
		<time>2011-09-11T09:42:51.885Z</time>
		<geoidheight>193</geoidheight>
	</trkpt>
	<trkpt lat="50.708521" lon="6.189333">
		<ele>239</ele>
		<time>2011-09-11T09:42:52.885Z</time>
		<geoidheight>193</geoidheight>
	</trkpt>
	<trkpt lat="50.708515" lon="6.189326">
		<ele>239</ele>
		<time>2011-09-11T09:42:53.884Z</time>
		<geoidheight>193</geoidheight>
	</trkpt>
	<trkpt lat="50.708507" lon="6.189319">
		<ele>239</ele>
		<time>2011-09-11T09:42:54.885Z</time>
		<geoidheight>193</geoidheight>
	</trkpt>
	<trkpt lat="50.708498" lon="6.189310">
		<ele>239</ele>
		<time>2011-09-11T09:42:55.885Z</time>
		<geoidheight>193</geoidheight>
	</trkpt>
	<trkpt lat="50.708488" lon="6.189302">
		<ele>239</ele>
		<time>2011-09-11T09:42:56.884Z</time>
		<geoidheight>193</geoidheight>
	</trkpt>
	<trkpt lat="50.708477" lon="6.189293">
		<ele>238</ele>
		<time>2011-09-11T09:42:57.886Z</time>
		<geoidheight>192</geoidheight>
	</trkpt>
	<trkpt lat="50.708466" lon="6.189285">
		<ele>238</ele>
		<time>2011-09-11T09:42:58.885Z</time>
		<geoidheight>192</geoidheight>
	</trkpt>
	<trkpt lat="50.708456" lon="6.189275">
		<ele>238</ele>
		<time>2011-09-11T09:42:59.884Z</time>
		<geoidheight>192</geoidheight>
	</trkpt>
	<trkpt lat="50.708446" lon="6.189265">
		<ele>238</ele>
		<time>2011-09-11T09:43:00.885Z</time>
		<geoidheight>192</geoidheight>
	</trkpt>
	<trkpt lat="50.708436" lon="6.189255">
		<ele>238</ele>
		<time>2011-09-11T09:43:01.886Z</time>
		<geoidheight>192</geoidheight>
	</trkpt>
	<trkpt lat="50.708426" lon="6.189244">
		<ele>238</ele>
		<time>2011-09-11T09:43:02.884Z</time>
		<geoidheight>192</geoidheight>
	</trkpt>
	<trkpt lat="50.708416" lon="6.189234">
		<ele>238</ele>
		<time>2011-09-11T09:43:03.886Z</time>
		<geoidheight>192</geoidheight>
	</trkpt>
	<trkpt lat="50.708405" lon="6.189221">
		<ele>238</ele>
		<time>2011-09-11T09:43:04.886Z</time>
		<geoidheight>192</geoidheight>
	</trkpt>
	<trkpt lat="50.708393" lon="6.189208">
		<ele>238</ele>
		<time>2011-09-11T09:43:05.886Z</time>
		<geoidheight>192</geoidheight>
	</trkpt>
	<trkpt lat="50.708381" lon="6.189193">
		<ele>238</ele>
		<time>2011-09-11T09:43:06.887Z</time>
		<geoidheight>192</geoidheight>
	</trkpt>
	<trkpt lat="50.708369" lon="6.189179">
		<ele>238</ele>
		<time>2011-09-11T09:43:07.885Z</time>
		<geoidheight>192</geoidheight>
	</trkpt>
	<trkpt lat="50.708357" lon="6.189165">
		<ele>237</ele>
		<time>2011-09-11T09:43:08.885Z</time>
		<geoidheight>191</geoidheight>
	</trkpt>
	<trkpt lat="50.708346" lon="6.189154">
		<ele>237</ele>
		<time>2011-09-11T09:43:09.897Z</time>
		<geoidheight>191</geoidheight>
	</trkpt>
	<trkpt lat="50.708336" lon="6.189141">
		<ele>237</ele>
		<time>2011-09-11T09:43:10.889Z</time>
		<geoidheight>191</geoidheight>
	</trkpt>
	<trkpt lat="50.708324" lon="6.189128">
		<ele>237</ele>
		<time>2011-09-11T09:43:11.895Z</time>
		<geoidheight>191</geoidheight>
	</trkpt>
	<trkpt lat="50.708310" lon="6.189115">
		<ele>237</ele>
		<time>2011-09-11T09:43:12.893Z</time>
		<geoidheight>191</geoidheight>
	</trkpt>
	<trkpt lat="50.708296" lon="6.189103">
		<ele>237</ele>
		<time>2011-09-11T09:43:13.892Z</time>
		<geoidheight>191</geoidheight>
	</trkpt>
	<trkpt lat="50.708282" lon="6.189092">
		<ele>237</ele>
		<time>2011-09-11T09:43:14.892Z</time>
		<geoidheight>191</geoidheight>
	</trkpt>
	<trkpt lat="50.708269" lon="6.189079">
		<ele>237</ele>
		<time>2011-09-11T09:43:15.895Z</time>
		<geoidheight>191</geoidheight>
	</trkpt>
	<trkpt lat="50.708257" lon="6.189066">
		<ele>237</ele>
		<time>2011-09-11T09:43:16.891Z</time>
		<geoidheight>191</geoidheight>
	</trkpt>
	<trkpt lat="50.708244" lon="6.189052">
		<ele>237</ele>
		<time>2011-09-11T09:43:17.909Z</time>
		<geoidheight>191</geoidheight>
	</trkpt>
	<trkpt lat="50.708231" lon="6.189039">
		<ele>236</ele>
		<time>2011-09-11T09:43:18.914Z</time>
		<geoidheight>190</geoidheight>
	</trkpt>
	<trkpt lat="50.708218" lon="6.189026">
		<ele>236</ele>
		<time>2011-09-11T09:43:19.899Z</time>
		<geoidheight>190</geoidheight>
	</trkpt>
	<trkpt lat="50.708205" lon="6.189014">
		<ele>236</ele>
		<time>2011-09-11T09:43:20.910Z</time>
		<geoidheight>190</geoidheight>
	</trkpt>
	<trkpt lat="50.708191" lon="6.189000">
		<ele>236</ele>
		<time>2011-09-11T09:43:21.898Z</time>
		<geoidheight>190</geoidheight>
	</trkpt>
	<trkpt lat="50.708178" lon="6.188987">
		<ele>236</ele>
		<time>2011-09-11T09:43:22.912Z</time>
		<geoidheight>190</geoidheight>
	</trkpt>
	<trkpt lat="50.708165" lon="6.188972">
		<ele>236</ele>
		<time>2011-09-11T09:43:23.905Z</time>
		<geoidheight>190</geoidheight>
	</trkpt>
	<trkpt lat="50.708152" lon="6.188958">
		<ele>236</ele>
		<time>2011-09-11T09:43:24.892Z</time>
		<geoidheight>190</geoidheight>
	</trkpt>
	<trkpt lat="50.708138" lon="6.188945">
		<ele>236</ele>
		<time>2011-09-11T09:43:25.893Z</time>
		<geoidheight>190</geoidheight>
	</trkpt>
	<trkpt lat="50.708124" lon="6.188934">
		<ele>235</ele>
		<time>2011-09-11T09:43:26.900Z</time>
		<geoidheight>189</geoidheight>
	</trkpt>
	<trkpt lat="50.708110" lon="6.188921">
		<ele>235</ele>
		<time>2011-09-11T09:43:27.895Z</time>
		<geoidheight>189</geoidheight>
	</trkpt>
	<trkpt lat="50.708096" lon="6.188906">
		<ele>235</ele>
		<time>2011-09-11T09:43:28.896Z</time>
		<geoidheight>189</geoidheight>
	</trkpt>
	<trkpt lat="50.708083" lon="6.188891">
		<ele>235</ele>
		<time>2011-09-11T09:43:29.893Z</time>
		<geoidheight>189</geoidheight>
	</trkpt>
	<trkpt lat="50.708070" lon="6.188877">
		<ele>235</ele>
		<time>2011-09-11T09:43:30.901Z</time>
		<geoidheight>189</geoidheight>
	</trkpt>
	<trkpt lat="50.708057" lon="6.188863">
		<ele>235</ele>
		<time>2011-09-11T09:43:31.896Z</time>
		<geoidheight>189</geoidheight>
	</trkpt>
	<trkpt lat="50.708045" lon="6.188850">
		<ele>235</ele>
		<time>2011-09-11T09:43:32.890Z</time>
		<geoidheight>189</geoidheight>
	</trkpt>
	<trkpt lat="50.708033" lon="6.188839">
		<ele>235</ele>
		<time>2011-09-11T09:43:33.899Z</time>
		<geoidheight>189</geoidheight>
	</trkpt>
	<trkpt lat="50.708021" lon="6.188831">
		<ele>235</ele>
		<time>2011-09-11T09:43:34.894Z</time>
		<geoidheight>189</geoidheight>
	</trkpt>
	<trkpt lat="50.708008" lon="6.188823">
		<ele>235</ele>
		<time>2011-09-11T09:43:35.895Z</time>
		<geoidheight>189</geoidheight>
	</trkpt>
	<trkpt lat="50.707997" lon="6.188817">
		<ele>235</ele>
		<time>2011-09-11T09:43:36.898Z</time>
		<geoidheight>189</geoidheight>
	</trkpt>
	<trkpt lat="50.707985" lon="6.188811">
		<ele>235</ele>
		<time>2011-09-11T09:43:37.892Z</time>
		<geoidheight>189</geoidheight>
	</trkpt>
	<trkpt lat="50.707973" lon="6.188804">
		<ele>235</ele>
		<time>2011-09-11T09:43:38.889Z</time>
		<geoidheight>189</geoidheight>
	</trkpt>
	<trkpt lat="50.707961" lon="6.188802">
		<ele>235</ele>
		<time>2011-09-11T09:43:39.892Z</time>
		<geoidheight>189</geoidheight>
	</trkpt>
	<trkpt lat="50.707949" lon="6.188802">
		<ele>235</ele>
		<time>2011-09-11T09:43:40.894Z</time>
		<geoidheight>189</geoidheight>
	</trkpt>
	<trkpt lat="50.707937" lon="6.188802">
		<ele>234</ele>
		<time>2011-09-11T09:43:41.891Z</time>
		<geoidheight>188</geoidheight>
	</trkpt>
	<trkpt lat="50.707926" lon="6.188801">
		<ele>234</ele>
		<time>2011-09-11T09:43:42.889Z</time>
		<geoidheight>188</geoidheight>
	</trkpt>
	<trkpt lat="50.707914" lon="6.188801">
		<ele>234</ele>
		<time>2011-09-11T09:43:43.903Z</time>
		<geoidheight>188</geoidheight>
	</trkpt>
	<trkpt lat="50.707903" lon="6.188804">
		<ele>234</ele>
		<time>2011-09-11T09:43:44.893Z</time>
		<geoidheight>188</geoidheight>
	</trkpt>
	<trkpt lat="50.707891" lon="6.188809">
		<ele>234</ele>
		<time>2011-09-11T09:43:45.885Z</time>
		<geoidheight>188</geoidheight>
	</trkpt>
	<trkpt lat="50.707880" lon="6.188815">
		<ele>234</ele>
		<time>2011-09-11T09:43:46.887Z</time>
		<geoidheight>188</geoidheight>
	</trkpt>
	<trkpt lat="50.707870" lon="6.188823">
		<ele>234</ele>
		<time>2011-09-11T09:43:47.884Z</time>
		<geoidheight>188</geoidheight>
	</trkpt>
	<trkpt lat="50.707860" lon="6.188831">
		<ele>234</ele>
		<time>2011-09-11T09:43:48.884Z</time>
		<geoidheight>188</geoidheight>
	</trkpt>
	<trkpt lat="50.707851" lon="6.188840">
		<ele>234</ele>
		<time>2011-09-11T09:43:49.886Z</time>
		<geoidheight>188</geoidheight>
	</trkpt>
	<trkpt lat="50.707843" lon="6.188850">
		<ele>234</ele>
		<time>2011-09-11T09:43:50.884Z</time>
		<geoidheight>188</geoidheight>
	</trkpt>
	<trkpt lat="50.707835" lon="6.188862">
		<ele>234</ele>
		<time>2011-09-11T09:43:51.886Z</time>
		<geoidheight>188</geoidheight>
	</trkpt>
	<trkpt lat="50.707826" lon="6.188872">
		<ele>234</ele>
		<time>2011-09-11T09:43:52.884Z</time>
		<geoidheight>188</geoidheight>
	</trkpt>
	<trkpt lat="50.707815" lon="6.188880">
		<ele>234</ele>
		<time>2011-09-11T09:43:53.885Z</time>
		<geoidheight>188</geoidheight>
	</trkpt>
	<trkpt lat="50.707804" lon="6.188888">
		<ele>234</ele>
		<time>2011-09-11T09:43:54.888Z</time>
		<geoidheight>188</geoidheight>
	</trkpt>
	<trkpt lat="50.707793" lon="6.188896">
		<ele>234</ele>
		<time>2011-09-11T09:43:55.886Z</time>
		<geoidheight>188</geoidheight>
	</trkpt>
	<trkpt lat="50.707782" lon="6.188901">
		<ele>234</ele>
		<time>2011-09-11T09:43:56.896Z</time>
		<geoidheight>188</geoidheight>
	</trkpt>
	<trkpt lat="50.707771" lon="6.188908">
		<ele>234</ele>
		<time>2011-09-11T09:43:57.886Z</time>
		<geoidheight>188</geoidheight>
	</trkpt>
	<trkpt lat="50.707760" lon="6.188915">
		<ele>234</ele>
		<time>2011-09-11T09:43:58.886Z</time>
		<geoidheight>188</geoidheight>
	</trkpt>
	<trkpt lat="50.707749" lon="6.188923">
		<ele>233</ele>
		<time>2011-09-11T09:43:59.886Z</time>
		<geoidheight>187</geoidheight>
	</trkpt>
	<trkpt lat="50.707740" lon="6.188933">
		<ele>233</ele>
		<time>2011-09-11T09:44:00.887Z</time>
		<geoidheight>187</geoidheight>
	</trkpt>
	<trkpt lat="50.707732" lon="6.188945">
		<ele>233</ele>
		<time>2011-09-11T09:44:01.884Z</time>
		<geoidheight>187</geoidheight>
	</trkpt>
	<trkpt lat="50.707722" lon="6.188958">
		<ele>233</ele>
		<time>2011-09-11T09:44:02.885Z</time>
		<geoidheight>187</geoidheight>
	</trkpt>
	<trkpt lat="50.707710" lon="6.188969">
		<ele>233</ele>
		<time>2011-09-11T09:44:03.886Z</time>
		<geoidheight>187</geoidheight>
	</trkpt>
	<trkpt lat="50.707696" lon="6.188984">
		<ele>233</ele>
		<time>2011-09-11T09:44:04.889Z</time>
		<geoidheight>187</geoidheight>
	</trkpt>
	<trkpt lat="50.707680" lon="6.189002">
		<ele>233</ele>
		<time>2011-09-11T09:44:05.886Z</time>
		<geoidheight>187</geoidheight>
	</trkpt>
	<trkpt lat="50.707663" lon="6.189022">
		<ele>233</ele>
		<time>2011-09-11T09:44:06.888Z</time>
		<geoidheight>187</geoidheight>
	</trkpt>
	<trkpt lat="50.707646" lon="6.189038">
		<ele>233</ele>
		<time>2011-09-11T09:44:07.886Z</time>
		<geoidheight>187</geoidheight>
	</trkpt>
	<trkpt lat="50.707629" lon="6.189052">
		<ele>233</ele>
		<time>2011-09-11T09:44:08.886Z</time>
		<geoidheight>187</geoidheight>
	</trkpt>
	<trkpt lat="50.707614" lon="6.189066">
		<ele>233</ele>
		<time>2011-09-11T09:44:09.886Z</time>
		<geoidheight>187</geoidheight>
	</trkpt>
	<trkpt lat="50.707601" lon="6.189078">
		<ele>233</ele>
		<time>2011-09-11T09:44:10.888Z</time>
		<geoidheight>187</geoidheight>
	</trkpt>
	<trkpt lat="50.707589" lon="6.189089">
		<ele>232</ele>
		<time>2011-09-11T09:44:11.884Z</time>
		<geoidheight>186</geoidheight>
	</trkpt>
	<trkpt lat="50.707578" lon="6.189097">
		<ele>232</ele>
		<time>2011-09-11T09:44:12.884Z</time>
		<geoidheight>186</geoidheight>
	</trkpt>
	<trkpt lat="50.707568" lon="6.189106">
		<ele>232</ele>
		<time>2011-09-11T09:44:13.886Z</time>
		<geoidheight>186</geoidheight>
	</trkpt>
	<trkpt lat="50.707558" lon="6.189114">
		<ele>232</ele>
		<time>2011-09-11T09:44:14.885Z</time>
		<geoidheight>186</geoidheight>
	</trkpt>
	<trkpt lat="50.707548" lon="6.189123">
		<ele>232</ele>
		<time>2011-09-11T09:44:15.885Z</time>
		<geoidheight>186</geoidheight>
	</trkpt>
	<trkpt lat="50.707539" lon="6.189131">
		<ele>232</ele>
		<time>2011-09-11T09:44:16.887Z</time>
		<geoidheight>186</geoidheight>
	</trkpt>
	<trkpt lat="50.707529" lon="6.189139">
		<ele>232</ele>
		<time>2011-09-11T09:44:17.885Z</time>
		<geoidheight>186</geoidheight>
	</trkpt>
	<trkpt lat="50.707519" lon="6.189145">
		<ele>232</ele>
		<time>2011-09-11T09:44:18.888Z</time>
		<geoidheight>186</geoidheight>
	</trkpt>
	<trkpt lat="50.707508" lon="6.189152">
		<ele>232</ele>
		<time>2011-09-11T09:44:19.887Z</time>
		<geoidheight>186</geoidheight>
	</trkpt>
	<trkpt lat="50.707498" lon="6.189159">
		<ele>232</ele>
		<time>2011-09-11T09:44:20.886Z</time>
		<geoidheight>186</geoidheight>
	</trkpt>
	<trkpt lat="50.707489" lon="6.189167">
		<ele>232</ele>
		<time>2011-09-11T09:44:21.885Z</time>
		<geoidheight>186</geoidheight>
	</trkpt>
	<trkpt lat="50.707480" lon="6.189176">
		<ele>232</ele>
		<time>2011-09-11T09:44:22.887Z</time>
		<geoidheight>186</geoidheight>
	</trkpt>
	<trkpt lat="50.707472" lon="6.189181">
		<ele>232</ele>
		<time>2011-09-11T09:44:23.884Z</time>
		<geoidheight>186</geoidheight>
	</trkpt>
	<trkpt lat="50.707464" lon="6.189185">
		<ele>232</ele>
		<time>2011-09-11T09:44:24.886Z</time>
		<geoidheight>186</geoidheight>
	</trkpt>
	<trkpt lat="50.707459" lon="6.189194">
		<ele>232</ele>
		<time>2011-09-11T09:44:25.884Z</time>
		<geoidheight>186</geoidheight>
	</trkpt>
	<trkpt lat="50.707459" lon="6.189194">
		<ele>232</ele>
		<time>2011-09-11T09:44:26.885Z</time>
		<geoidheight>186</geoidheight>
	</trkpt>
	<trkpt lat="50.707450" lon="6.189206">
		<ele>232</ele>
		<time>2011-09-11T09:44:27.885Z</time>
		<geoidheight>186</geoidheight>
	</trkpt>
	<trkpt lat="50.707441" lon="6.189205">
		<ele>232</ele>
		<time>2011-09-11T09:44:28.885Z</time>
		<geoidheight>186</geoidheight>
	</trkpt>
	<trkpt lat="50.707432" lon="6.189204">
		<ele>232</ele>
		<time>2011-09-11T09:44:29.887Z</time>
		<geoidheight>186</geoidheight>
	</trkpt>
	<trkpt lat="50.707423" lon="6.189206">
		<ele>232</ele>
		<time>2011-09-11T09:44:32.886Z</time>
		<geoidheight>186</geoidheight>
	</trkpt>
	<trkpt lat="50.707407" lon="6.189219">
		<ele>232</ele>
		<time>2011-09-11T09:44:33.885Z</time>
		<geoidheight>186</geoidheight>
	</trkpt>
	<trkpt lat="50.707399" lon="6.189224">
		<ele>232</ele>
		<time>2011-09-11T09:44:34.886Z</time>
		<geoidheight>186</geoidheight>
	</trkpt>
	<trkpt lat="50.707391" lon="6.189225">
		<ele>232</ele>
		<time>2011-09-11T09:44:35.886Z</time>
		<geoidheight>186</geoidheight>
	</trkpt>
	<trkpt lat="50.707381" lon="6.189225">
		<ele>232</ele>
		<time>2011-09-11T09:44:36.885Z</time>
		<geoidheight>186</geoidheight>
	</trkpt>
	<trkpt lat="50.707371" lon="6.189224">
		<ele>232</ele>
		<time>2011-09-11T09:44:37.885Z</time>
		<geoidheight>186</geoidheight>
	</trkpt>
	<trkpt lat="50.707361" lon="6.189224">
		<ele>232</ele>
		<time>2011-09-11T09:44:38.887Z</time>
		<geoidheight>186</geoidheight>
	</trkpt>
	<trkpt lat="50.707351" lon="6.189229">
		<ele>232</ele>
		<time>2011-09-11T09:44:39.889Z</time>
		<geoidheight>186</geoidheight>
	</trkpt>
	<trkpt lat="50.707340" lon="6.189233">
		<ele>232</ele>
		<time>2011-09-11T09:44:40.885Z</time>
		<geoidheight>186</geoidheight>
	</trkpt>
	<trkpt lat="50.707331" lon="6.189233">
		<ele>232</ele>
		<time>2011-09-11T09:44:41.889Z</time>
		<geoidheight>186</geoidheight>
	</trkpt>
	<trkpt lat="50.707322" lon="6.189231">
		<ele>232</ele>
		<time>2011-09-11T09:44:42.886Z</time>
		<geoidheight>186</geoidheight>
	</trkpt>
	<trkpt lat="50.707313" lon="6.189227">
		<ele>232</ele>
		<time>2011-09-11T09:44:43.886Z</time>
		<geoidheight>186</geoidheight>
	</trkpt>
	<trkpt lat="50.707305" lon="6.189223">
		<ele>232</ele>
		<time>2011-09-11T09:44:44.888Z</time>
		<geoidheight>186</geoidheight>
	</trkpt>
	<trkpt lat="50.707296" lon="6.189221">
		<ele>232</ele>
		<time>2011-09-11T09:44:45.885Z</time>
		<geoidheight>186</geoidheight>
	</trkpt>
	<trkpt lat="50.707288" lon="6.189220">
		<ele>232</ele>
		<time>2011-09-11T09:44:46.885Z</time>
		<geoidheight>186</geoidheight>
	</trkpt>
	<trkpt lat="50.707280" lon="6.189218">
		<ele>232</ele>
		<time>2011-09-11T09:44:47.884Z</time>
		<geoidheight>186</geoidheight>
	</trkpt>
	<trkpt lat="50.707271" lon="6.189216">
		<ele>232</ele>
		<time>2011-09-11T09:44:48.887Z</time>
		<geoidheight>186</geoidheight>
	</trkpt>
	<trkpt lat="50.707262" lon="6.189215">
		<ele>232</ele>
		<time>2011-09-11T09:44:49.887Z</time>
		<geoidheight>186</geoidheight>
	</trkpt>
	<trkpt lat="50.707253" lon="6.189214">
		<ele>232</ele>
		<time>2011-09-11T09:44:50.886Z</time>
		<geoidheight>186</geoidheight>
	</trkpt>
	<trkpt lat="50.707244" lon="6.189211">
		<ele>232</ele>
		<time>2011-09-11T09:44:51.886Z</time>
		<geoidheight>186</geoidheight>
	</trkpt>
	<trkpt lat="50.707236" lon="6.189207">
		<ele>232</ele>
		<time>2011-09-11T09:44:52.886Z</time>
		<geoidheight>186</geoidheight>
	</trkpt>
	<trkpt lat="50.707227" lon="6.189201">
		<ele>232</ele>
		<time>2011-09-11T09:44:53.885Z</time>
		<geoidheight>186</geoidheight>
	</trkpt>
	<trkpt lat="50.707227" lon="6.189201">
		<ele>232</ele>
		<time>2011-09-11T09:45:00.897Z</time>
		<geoidheight>186</geoidheight>
	</trkpt>
	<trkpt lat="50.707184" lon="6.189171">
		<ele>232</ele>
		<time>2011-09-11T09:45:01.886Z</time>
		<geoidheight>186</geoidheight>
	</trkpt>
	<trkpt lat="50.707184" lon="6.189171">
		<ele>232</ele>
		<time>2011-09-11T09:45:02.885Z</time>
		<geoidheight>186</geoidheight>
	</trkpt>
	<trkpt lat="50.707170" lon="6.189161">
		<ele>232</ele>
		<time>2011-09-11T09:45:03.889Z</time>
		<geoidheight>186</geoidheight>
	</trkpt>
	<trkpt lat="50.707156" lon="6.189154">
		<ele>232</ele>
		<time>2011-09-11T09:45:04.886Z</time>
		<geoidheight>186</geoidheight>
	</trkpt>
	<trkpt lat="50.707141" lon="6.189148">
		<ele>232</ele>
		<time>2011-09-11T09:45:05.885Z</time>
		<geoidheight>186</geoidheight>
	</trkpt>
	<trkpt lat="50.707141" lon="6.189148">
		<ele>232</ele>
		<time>2011-09-11T09:45:06.885Z</time>
		<geoidheight>186</geoidheight>
	</trkpt>
	<trkpt lat="50.707107" lon="6.189139">
		<ele>232</ele>
		<time>2011-09-11T09:45:07.887Z</time>
		<geoidheight>186</geoidheight>
	</trkpt>
	<trkpt lat="50.707090" lon="6.189138">
		<ele>232</ele>
		<time>2011-09-11T09:45:08.886Z</time>
		<geoidheight>186</geoidheight>
	</trkpt>
	<trkpt lat="50.707074" lon="6.189134">
		<ele>232</ele>
		<time>2011-09-11T09:45:09.886Z</time>
		<geoidheight>186</geoidheight>
	</trkpt>
	<trkpt lat="50.707059" lon="6.189129">
		<ele>232</ele>
		<time>2011-09-11T09:45:10.887Z</time>
		<geoidheight>186</geoidheight>
	</trkpt>
	<trkpt lat="50.707046" lon="6.189123">
		<ele>232</ele>
		<time>2011-09-11T09:45:11.887Z</time>
		<geoidheight>186</geoidheight>
	</trkpt>
	<trkpt lat="50.707046" lon="6.189123">
		<ele>232</ele>
		<time>2011-09-11T09:45:14.886Z</time>
		<geoidheight>186</geoidheight>
	</trkpt>
	<trkpt lat="50.707002" lon="6.189096">
		<ele>232</ele>
		<time>2011-09-11T09:45:15.887Z</time>
		<geoidheight>186</geoidheight>
	</trkpt>
	<trkpt lat="50.706991" lon="6.189091">
		<ele>232</ele>
		<time>2011-09-11T09:45:16.904Z</time>
		<geoidheight>186</geoidheight>
	</trkpt>
	<trkpt lat="50.706991" lon="6.189091">
		<ele>232</ele>
		<time>2011-09-11T09:45:18.898Z</time>
		<geoidheight>186</geoidheight>
	</trkpt>
	<trkpt lat="50.706958" lon="6.189073">
		<ele>232</ele>
		<time>2011-09-11T09:45:19.897Z</time>
		<geoidheight>186</geoidheight>
	</trkpt>
	<trkpt lat="50.706945" lon="6.189066">
		<ele>232</ele>
		<time>2011-09-11T09:45:20.897Z</time>
		<geoidheight>186</geoidheight>
	</trkpt>
	<trkpt lat="50.706936" lon="6.189057">
		<ele>232</ele>
		<time>2011-09-11T09:45:21.889Z</time>
		<geoidheight>186</geoidheight>
	</trkpt>
	<trkpt lat="50.706927" lon="6.189047">
		<ele>232</ele>
		<time>2011-09-11T09:45:22.899Z</time>
		<geoidheight>186</geoidheight>
	</trkpt>
	<trkpt lat="50.706917" lon="6.189038">
		<ele>232</ele>
		<time>2011-09-11T09:45:23.887Z</time>
		<geoidheight>186</geoidheight>
	</trkpt>
	<trkpt lat="50.706906" lon="6.189029">
		<ele>232</ele>
		<time>2011-09-11T09:45:24.888Z</time>
		<geoidheight>186</geoidheight>
	</trkpt>
	<trkpt lat="50.706895" lon="6.189019">
		<ele>232</ele>
		<time>2011-09-11T09:45:25.887Z</time>
		<geoidheight>186</geoidheight>
	</trkpt>
	<trkpt lat="50.706895" lon="6.189019">
		<ele>232</ele>
		<time>2011-09-11T09:45:30.894Z</time>
		<geoidheight>186</geoidheight>
	</trkpt>
	<trkpt lat="50.706848" lon="6.189010">
		<ele>232</ele>
		<time>2011-09-11T09:45:31.902Z</time>
		<geoidheight>186</geoidheight>
	</trkpt>
	<trkpt lat="50.706848" lon="6.189010">
		<ele>233</ele>
		<time>2011-09-11T09:45:36.920Z</time>
		<geoidheight>187</geoidheight>
	</trkpt>
	<trkpt lat="50.706805" lon="6.189039">
		<ele>233</ele>
		<time>2011-09-11T09:45:37.915Z</time>
		<geoidheight>187</geoidheight>
	</trkpt>
	<trkpt lat="50.706805" lon="6.189039">
		<ele>233</ele>
		<time>2011-09-11T09:45:51.907Z</time>
		<geoidheight>187</geoidheight>
	</trkpt>
	<trkpt lat="50.706777" lon="6.189098">
		<ele>234</ele>
		<time>2011-09-11T09:45:52.903Z</time>
		<geoidheight>188</geoidheight>
	</trkpt>
	<trkpt lat="50.706777" lon="6.189098">
		<ele>236</ele>
		<time>2011-09-11T09:46:28.893Z</time>
		<geoidheight>190</geoidheight>
	</trkpt>
	<trkpt lat="50.706761" lon="6.189032">
		<ele>236</ele>
		<time>2011-09-11T09:46:29.886Z</time>
		<geoidheight>190</geoidheight>
	</trkpt>
	<trkpt lat="50.706761" lon="6.189032">
		<ele>237</ele>
		<time>2011-09-11T09:46:50.911Z</time>
		<geoidheight>191</geoidheight>
	</trkpt>
	<trkpt lat="50.706733" lon="6.189093">
		<ele>237</ele>
		<time>2011-09-11T09:46:51.910Z</time>
		<geoidheight>191</geoidheight>
	</trkpt>
	<trkpt lat="50.706733" lon="6.189093">
		<ele>239</ele>
		<time>2011-09-11T09:47:21.896Z</time>
		<geoidheight>193</geoidheight>
	</trkpt>
	<trkpt lat="50.706732" lon="6.189020">
		<ele>240</ele>
		<time>2011-09-11T09:47:22.902Z</time>
		<geoidheight>194</geoidheight>
	</trkpt>
	<trkpt lat="50.706732" lon="6.189020">
		<ele>240</ele>
		<time>2011-09-11T09:47:26.893Z</time>
		<geoidheight>194</geoidheight>
	</trkpt>
	<trkpt lat="50.706703" lon="6.188961">
		<ele>240</ele>
		<time>2011-09-11T09:47:27.892Z</time>
		<geoidheight>194</geoidheight>
	</trkpt>
	<trkpt lat="50.706703" lon="6.188961">
		<ele>241</ele>
		<time>2011-09-11T09:47:40.901Z</time>
		<geoidheight>195</geoidheight>
	</trkpt>
	<trkpt lat="50.706676" lon="6.188902">
		<ele>241</ele>
		<time>2011-09-11T09:47:41.903Z</time>
		<geoidheight>195</geoidheight>
	</trkpt>
	<trkpt lat="50.706676" lon="6.188902">
		<ele>242</ele>
		<time>2011-09-11T09:47:52.908Z</time>
		<geoidheight>196</geoidheight>
	</trkpt>
	<trkpt lat="50.706649" lon="6.188858">
		<ele>242</ele>
		<time>2011-09-11T09:47:53.901Z</time>
		<geoidheight>196</geoidheight>
	</trkpt>
	<trkpt lat="50.706643" lon="6.188847">
		<ele>242</ele>
		<time>2011-09-11T09:47:54.897Z</time>
		<geoidheight>196</geoidheight>
	</trkpt>
	<trkpt lat="50.706637" lon="6.188836">
		<ele>243</ele>
		<time>2011-09-11T09:47:55.896Z</time>
		<geoidheight>197</geoidheight>
	</trkpt>
	<trkpt lat="50.706637" lon="6.188836">
		<ele>243</ele>
		<time>2011-09-11T09:48:00.911Z</time>
		<geoidheight>197</geoidheight>
	</trkpt>
	<trkpt lat="50.706601" lon="6.188785">
		<ele>243</ele>
		<time>2011-09-11T09:48:01.907Z</time>
		<geoidheight>197</geoidheight>
	</trkpt>
	<trkpt lat="50.706601" lon="6.188785">
		<ele>244</ele>
		<time>2011-09-11T09:48:12.904Z</time>
		<geoidheight>198</geoidheight>
	</trkpt>
	<trkpt lat="50.706583" lon="6.188719">
		<ele>244</ele>
		<time>2011-09-11T09:48:13.906Z</time>
		<geoidheight>198</geoidheight>
	</trkpt>
	<trkpt lat="50.706583" lon="6.188719">
		<ele>244</ele>
		<time>2011-09-11T09:48:16.903Z</time>
		<geoidheight>198</geoidheight>
	</trkpt>
	<trkpt lat="50.706580" lon="6.188687">
		<ele>245</ele>
		<time>2011-09-11T09:48:17.904Z</time>
		<geoidheight>199</geoidheight>
	</trkpt>
	<trkpt lat="50.706580" lon="6.188687">
		<ele>245</ele>
		<time>2011-09-11T09:48:18.896Z</time>
		<geoidheight>199</geoidheight>
	</trkpt>
	<trkpt lat="50.706569" lon="6.188667">
		<ele>245</ele>
		<time>2011-09-11T09:48:19.905Z</time>
		<geoidheight>199</geoidheight>
	</trkpt>
	<trkpt lat="50.706569" lon="6.188667">
		<ele>245</ele>
		<time>2011-09-11T09:48:24.888Z</time>
		<geoidheight>199</geoidheight>
	</trkpt>
	<trkpt lat="50.706534" lon="6.188607">
		<ele>245</ele>
		<time>2011-09-11T09:48:25.886Z</time>
		<geoidheight>199</geoidheight>
	</trkpt>
	<trkpt lat="50.706534" lon="6.188607">
		<ele>244</ele>
		<time>2011-09-11T09:48:29.898Z</time>
		<geoidheight>198</geoidheight>
	</trkpt>
	<trkpt lat="50.706510" lon="6.188530">
		<ele>244</ele>
		<time>2011-09-11T09:48:30.896Z</time>
		<geoidheight>198</geoidheight>
	</trkpt>
	<trkpt lat="50.706510" lon="6.188530">
		<ele>244</ele>
		<time>2011-09-11T09:48:32.899Z</time>
		<geoidheight>198</geoidheight>
	</trkpt>
	<trkpt lat="50.706478" lon="6.188487">
		<ele>244</ele>
		<time>2011-09-11T09:48:33.896Z</time>
		<geoidheight>198</geoidheight>
	</trkpt>
	<trkpt lat="50.706478" lon="6.188487">
		<ele>244</ele>
		<time>2011-09-11T09:48:36.895Z</time>
		<geoidheight>198</geoidheight>
	</trkpt>
	<trkpt lat="50.706449" lon="6.188418">
		<ele>244</ele>
		<time>2011-09-11T09:48:37.898Z</time>
		<geoidheight>198</geoidheight>
	</trkpt>
	<trkpt lat="50.706449" lon="6.188418">
		<ele>243</ele>
		<time>2011-09-11T09:48:39.904Z</time>
		<geoidheight>197</geoidheight>
	</trkpt>
	<trkpt lat="50.706413" lon="6.188359">
		<ele>243</ele>
		<time>2011-09-11T09:48:40.898Z</time>
		<geoidheight>197</geoidheight>
	</trkpt>
	<trkpt lat="50.706399" lon="6.188340">
		<ele>243</ele>
		<time>2011-09-11T09:48:41.901Z</time>
		<geoidheight>197</geoidheight>
	</trkpt>
	<trkpt lat="50.706384" lon="6.188322">
		<ele>243</ele>
		<time>2011-09-11T09:48:42.897Z</time>
		<geoidheight>197</geoidheight>
	</trkpt>
	<trkpt lat="50.706369" lon="6.188301">
		<ele>242</ele>
		<time>2011-09-11T09:48:43.899Z</time>
		<geoidheight>196</geoidheight>
	</trkpt>
	<trkpt lat="50.706356" lon="6.188279">
		<ele>242</ele>
		<time>2011-09-11T09:48:44.897Z</time>
		<geoidheight>196</geoidheight>
	</trkpt>
	<trkpt lat="50.706342" lon="6.188256">
		<ele>242</ele>
		<time>2011-09-11T09:48:45.895Z</time>
		<geoidheight>196</geoidheight>
	</trkpt>
	<trkpt lat="50.706329" lon="6.188235">
		<ele>242</ele>
		<time>2011-09-11T09:48:46.896Z</time>
		<geoidheight>196</geoidheight>
	</trkpt>
	<trkpt lat="50.706315" lon="6.188215">
		<ele>242</ele>
		<time>2011-09-11T09:48:47.900Z</time>
		<geoidheight>196</geoidheight>
	</trkpt>
	<trkpt lat="50.706302" lon="6.188195">
		<ele>242</ele>
		<time>2011-09-11T09:48:48.902Z</time>
		<geoidheight>196</geoidheight>
	</trkpt>
	<trkpt lat="50.706288" lon="6.188179">
		<ele>242</ele>
		<time>2011-09-11T09:48:49.902Z</time>
		<geoidheight>196</geoidheight>
	</trkpt>
	<trkpt lat="50.706274" lon="6.188167">
		<ele>241</ele>
		<time>2011-09-11T09:48:50.899Z</time>
		<geoidheight>195</geoidheight>
	</trkpt>
	<trkpt lat="50.706260" lon="6.188157">
		<ele>241</ele>
		<time>2011-09-11T09:48:51.898Z</time>
		<geoidheight>195</geoidheight>
	</trkpt>
	<trkpt lat="50.706247" lon="6.188147">
		<ele>241</ele>
		<time>2011-09-11T09:48:52.895Z</time>
		<geoidheight>195</geoidheight>
	</trkpt>
	<trkpt lat="50.706233" lon="6.188136">
		<ele>241</ele>
		<time>2011-09-11T09:48:53.896Z</time>
		<geoidheight>195</geoidheight>
	</trkpt>
	<trkpt lat="50.706220" lon="6.188126">
		<ele>241</ele>
		<time>2011-09-11T09:48:54.894Z</time>
		<geoidheight>195</geoidheight>
	</trkpt>
	<trkpt lat="50.706208" lon="6.188119">
		<ele>241</ele>
		<time>2011-09-11T09:48:55.896Z</time>
		<geoidheight>195</geoidheight>
	</trkpt>
	<trkpt lat="50.706196" lon="6.188112">
		<ele>241</ele>
		<time>2011-09-11T09:48:56.910Z</time>
		<geoidheight>195</geoidheight>
	</trkpt>
	<trkpt lat="50.706196" lon="6.188112">
		<ele>241</ele>
		<time>2011-09-11T09:48:57.899Z</time>
		<geoidheight>195</geoidheight>
	</trkpt>
	<trkpt lat="50.706173" lon="6.188100">
		<ele>240</ele>
		<time>2011-09-11T09:48:58.903Z</time>
		<geoidheight>194</geoidheight>
	</trkpt>
	<trkpt lat="50.706162" lon="6.188092">
		<ele>240</ele>
		<time>2011-09-11T09:48:59.901Z</time>
		<geoidheight>194</geoidheight>
	</trkpt>
	<trkpt lat="50.706151" lon="6.188084">
		<ele>240</ele>
		<time>2011-09-11T09:49:00.896Z</time>
		<geoidheight>194</geoidheight>
	</trkpt>
	<trkpt lat="50.706142" lon="6.188073">
		<ele>240</ele>
		<time>2011-09-11T09:49:01.900Z</time>
		<geoidheight>194</geoidheight>
	</trkpt>
	<trkpt lat="50.706142" lon="6.188073">
		<ele>240</ele>
		<time>2011-09-11T09:49:06.902Z</time>
		<geoidheight>194</geoidheight>
	</trkpt>
	<trkpt lat="50.706110" lon="6.188023">
		<ele>240</ele>
		<time>2011-09-11T09:49:07.891Z</time>
		<geoidheight>194</geoidheight>
	</trkpt>
	<trkpt lat="50.706110" lon="6.188023">
		<ele>240</ele>
		<time>2011-09-11T09:49:12.898Z</time>
		<geoidheight>194</geoidheight>
	</trkpt>
	<trkpt lat="50.706059" lon="6.187982">
		<ele>240</ele>
		<time>2011-09-11T09:49:13.909Z</time>
		<geoidheight>194</geoidheight>
	</trkpt>
	<trkpt lat="50.706059" lon="6.187982">
		<ele>240</ele>
		<time>2011-09-11T09:49:15.890Z</time>
		<geoidheight>194</geoidheight>
	</trkpt>
	<trkpt lat="50.706009" lon="6.187947">
		<ele>240</ele>
		<time>2011-09-11T09:49:16.889Z</time>
		<geoidheight>194</geoidheight>
	</trkpt>
	<trkpt lat="50.706009" lon="6.187947">
		<ele>240</ele>
		<time>2011-09-11T09:49:18.887Z</time>
		<geoidheight>194</geoidheight>
	</trkpt>
	<trkpt lat="50.705950" lon="6.187910">
		<ele>240</ele>
		<time>2011-09-11T09:49:19.893Z</time>
		<geoidheight>194</geoidheight>
	</trkpt>
	<trkpt lat="50.705950" lon="6.187910">
		<ele>240</ele>
		<time>2011-09-11T09:49:21.888Z</time>
		<geoidheight>194</geoidheight>
	</trkpt>
	<trkpt lat="50.705904" lon="6.187873">
		<ele>240</ele>
		<time>2011-09-11T09:49:22.888Z</time>
		<geoidheight>194</geoidheight>
	</trkpt>
	<trkpt lat="50.705904" lon="6.187873">
		<ele>240</ele>
		<time>2011-09-11T09:49:23.888Z</time>
		<geoidheight>194</geoidheight>
	</trkpt>
	<trkpt lat="50.705876" lon="6.187850">
		<ele>240</ele>
		<time>2011-09-11T09:49:24.889Z</time>
		<geoidheight>194</geoidheight>
	</trkpt>
	<trkpt lat="50.705861" lon="6.187840">
		<ele>240</ele>
		<time>2011-09-11T09:49:25.887Z</time>
		<geoidheight>194</geoidheight>
	</trkpt>
	<trkpt lat="50.705845" lon="6.187828">
		<ele>240</ele>
		<time>2011-09-11T09:49:26.889Z</time>
		<geoidheight>194</geoidheight>
	</trkpt>
	<trkpt lat="50.705828" lon="6.187815">
		<ele>240</ele>
		<time>2011-09-11T09:49:27.887Z</time>
		<geoidheight>194</geoidheight>
	</trkpt>
	<trkpt lat="50.705810" lon="6.187802">
		<ele>240</ele>
		<time>2011-09-11T09:49:28.888Z</time>
		<geoidheight>194</geoidheight>
	</trkpt>
	<trkpt lat="50.705793" lon="6.187791">
		<ele>240</ele>
		<time>2011-09-11T09:49:29.889Z</time>
		<geoidheight>194</geoidheight>
	</trkpt>
	<trkpt lat="50.705775" lon="6.187780">
		<ele>241</ele>
		<time>2011-09-11T09:49:30.888Z</time>
		<geoidheight>195</geoidheight>
	</trkpt>
	<trkpt lat="50.705759" lon="6.187768">
		<ele>241</ele>
		<time>2011-09-11T09:49:31.889Z</time>
		<geoidheight>195</geoidheight>
	</trkpt>
	<trkpt lat="50.705742" lon="6.187754">
		<ele>241</ele>
		<time>2011-09-11T09:49:32.889Z</time>
		<geoidheight>195</geoidheight>
	</trkpt>
	<trkpt lat="50.705726" lon="6.187740">
		<ele>241</ele>
		<time>2011-09-11T09:49:33.888Z</time>
		<geoidheight>195</geoidheight>
	</trkpt>
	<trkpt lat="50.705710" lon="6.187726">
		<ele>241</ele>
		<time>2011-09-11T09:49:34.889Z</time>
		<geoidheight>195</geoidheight>
	</trkpt>
	<trkpt lat="50.705693" lon="6.187715">
		<ele>241</ele>
		<time>2011-09-11T09:49:35.892Z</time>
		<geoidheight>195</geoidheight>
	</trkpt>
	<trkpt lat="50.705674" lon="6.187706">
		<ele>241</ele>
		<time>2011-09-11T09:49:36.898Z</time>
		<geoidheight>195</geoidheight>
	</trkpt>
	<trkpt lat="50.705654" lon="6.187699">
		<ele>241</ele>
		<time>2011-09-11T09:49:37.901Z</time>
		<geoidheight>195</geoidheight>
	</trkpt>
	<trkpt lat="50.705635" lon="6.187693">
		<ele>241</ele>
		<time>2011-09-11T09:49:38.895Z</time>
		<geoidheight>195</geoidheight>
	</trkpt>
	<trkpt lat="50.705617" lon="6.187688">
		<ele>241</ele>
		<time>2011-09-11T09:49:39.896Z</time>
		<geoidheight>195</geoidheight>
	</trkpt>
	<trkpt lat="50.705617" lon="6.187688">
		<ele>241</ele>
		<time>2011-09-11T09:49:40.897Z</time>
		<geoidheight>195</geoidheight>
	</trkpt>
	<trkpt lat="50.705586" lon="6.187679">
		<ele>241</ele>
		<time>2011-09-11T09:49:41.898Z</time>
		<geoidheight>195</geoidheight>
	</trkpt>
	<trkpt lat="50.705570" lon="6.187674">
		<ele>241</ele>
		<time>2011-09-11T09:49:42.897Z</time>
		<geoidheight>195</geoidheight>
	</trkpt>
	<trkpt lat="50.705555" lon="6.187670">
		<ele>241</ele>
		<time>2011-09-11T09:49:43.888Z</time>
		<geoidheight>195</geoidheight>
	</trkpt>
	<trkpt lat="50.705540" lon="6.187667">
		<ele>241</ele>
		<time>2011-09-11T09:49:44.890Z</time>
		<geoidheight>195</geoidheight>
	</trkpt>
	<trkpt lat="50.705526" lon="6.187665">
		<ele>241</ele>
		<time>2011-09-11T09:49:45.889Z</time>
		<geoidheight>195</geoidheight>
	</trkpt>
	<trkpt lat="50.705512" lon="6.187664">
		<ele>241</ele>
		<time>2011-09-11T09:49:46.888Z</time>
		<geoidheight>195</geoidheight>
	</trkpt>
	<trkpt lat="50.705498" lon="6.187663">
		<ele>241</ele>
		<time>2011-09-11T09:49:47.888Z</time>
		<geoidheight>195</geoidheight>
	</trkpt>
	<trkpt lat="50.705483" lon="6.187661">
		<ele>241</ele>
		<time>2011-09-11T09:49:48.888Z</time>
		<geoidheight>195</geoidheight>
	</trkpt>
	<trkpt lat="50.705468" lon="6.187660">
		<ele>241</ele>
		<time>2011-09-11T09:49:49.888Z</time>
		<geoidheight>195</geoidheight>
	</trkpt>
	<trkpt lat="50.705454" lon="6.187665">
		<ele>241</ele>
		<time>2011-09-11T09:49:50.888Z</time>
		<geoidheight>195</geoidheight>
	</trkpt>
	<trkpt lat="50.705454" lon="6.187665">
		<ele>241</ele>
		<time>2011-09-11T09:49:53.888Z</time>
		<geoidheight>195</geoidheight>
	</trkpt>
	<trkpt lat="50.705407" lon="6.187673">
		<ele>241</ele>
		<time>2011-09-11T09:49:54.889Z</time>
		<geoidheight>195</geoidheight>
	</trkpt>
	<trkpt lat="50.705396" lon="6.187674">
		<ele>241</ele>
		<time>2011-09-11T09:49:55.889Z</time>
		<geoidheight>195</geoidheight>
	</trkpt>
	<trkpt lat="50.705384" lon="6.187674">
		<ele>241</ele>
		<time>2011-09-11T09:49:56.887Z</time>
		<geoidheight>195</geoidheight>
	</trkpt>
	<trkpt lat="50.705372" lon="6.187674">
		<ele>241</ele>
		<time>2011-09-11T09:49:57.893Z</time>
		<geoidheight>195</geoidheight>
	</trkpt>
	<trkpt lat="50.705359" lon="6.187672">
		<ele>241</ele>
		<time>2011-09-11T09:49:58.888Z</time>
		<geoidheight>195</geoidheight>
	</trkpt>
	<trkpt lat="50.705359" lon="6.187672">
		<ele>241</ele>
		<time>2011-09-11T09:50:00.888Z</time>
		<geoidheight>195</geoidheight>
	</trkpt>
	<trkpt lat="50.705319" lon="6.187671">
		<ele>241</ele>
		<time>2011-09-11T09:50:01.889Z</time>
		<geoidheight>195</geoidheight>
	</trkpt>
	<trkpt lat="50.705319" lon="6.187671">
		<ele>240</ele>
		<time>2011-09-11T09:50:04.891Z</time>
		<geoidheight>194</geoidheight>
	</trkpt>
	<trkpt lat="50.705270" lon="6.187683">
		<ele>240</ele>
		<time>2011-09-11T09:50:05.887Z</time>
		<geoidheight>194</geoidheight>
	</trkpt>
	<trkpt lat="50.705270" lon="6.187683">
		<ele>240</ele>
		<time>2011-09-11T09:50:09.889Z</time>
		<geoidheight>194</geoidheight>
	</trkpt>
	<trkpt lat="50.705218" lon="6.187696">
		<ele>240</ele>
		<time>2011-09-11T09:50:10.897Z</time>
		<geoidheight>194</geoidheight>
	</trkpt>
	<trkpt lat="50.705204" lon="6.187695">
		<ele>240</ele>
		<time>2011-09-11T09:50:11.888Z</time>
		<geoidheight>194</geoidheight>
	</trkpt>
	<trkpt lat="50.705187" lon="6.187690">
		<ele>240</ele>
		<time>2011-09-11T09:50:12.888Z</time>
		<geoidheight>194</geoidheight>
	</trkpt>
	<trkpt lat="50.705171" lon="6.187685">
		<ele>240</ele>
		<time>2011-09-11T09:50:13.889Z</time>
		<geoidheight>194</geoidheight>
	</trkpt>
	<trkpt lat="50.705155" lon="6.187679">
		<ele>240</ele>
		<time>2011-09-11T09:50:14.888Z</time>
		<geoidheight>194</geoidheight>
	</trkpt>
	<trkpt lat="50.705141" lon="6.187675">
		<ele>240</ele>
		<time>2011-09-11T09:50:15.888Z</time>
		<geoidheight>194</geoidheight>
	</trkpt>
	<trkpt lat="50.705128" lon="6.187671">
		<ele>240</ele>
		<time>2011-09-11T09:50:16.891Z</time>
		<geoidheight>194</geoidheight>
	</trkpt>
	<trkpt lat="50.705128" lon="6.187671">
		<ele>240</ele>
		<time>2011-09-11T09:50:18.887Z</time>
		<geoidheight>194</geoidheight>
	</trkpt>
	<trkpt lat="50.705094" lon="6.187660">
		<ele>240</ele>
		<time>2011-09-11T09:50:19.890Z</time>
		<geoidheight>194</geoidheight>
	</trkpt>
	<trkpt lat="50.705094" lon="6.187660">
		<ele>240</ele>
		<time>2011-09-11T09:50:20.888Z</time>
		<geoidheight>194</geoidheight>
	</trkpt>
	<trkpt lat="50.705072" lon="6.187649">
		<ele>240</ele>
		<time>2011-09-11T09:50:21.888Z</time>
		<geoidheight>194</geoidheight>
	</trkpt>
	<trkpt lat="50.705061" lon="6.187644">
		<ele>240</ele>
		<time>2011-09-11T09:50:22.889Z</time>
		<geoidheight>194</geoidheight>
	</trkpt>
	<trkpt lat="50.705061" lon="6.187644">
		<ele>240</ele>
		<time>2011-09-11T09:50:27.888Z</time>
		<geoidheight>194</geoidheight>
	</trkpt>
	<trkpt lat="50.705015" lon="6.187640">
		<ele>240</ele>
		<time>2011-09-11T09:50:28.888Z</time>
		<geoidheight>194</geoidheight>
	</trkpt>
	<trkpt lat="50.705015" lon="6.187640">
		<ele>240</ele>
		<time>2011-09-11T09:50:32.892Z</time>
		<geoidheight>194</geoidheight>
	</trkpt>
	<trkpt lat="50.704969" lon="6.187662">
		<ele>240</ele>
		<time>2011-09-11T09:50:33.887Z</time>
		<geoidheight>194</geoidheight>
	</trkpt>
	<trkpt lat="50.704969" lon="6.187662">
		<ele>240</ele>
		<time>2011-09-11T09:50:36.898Z</time>
		<geoidheight>194</geoidheight>
	</trkpt>
	<trkpt lat="50.704923" lon="6.187669">
		<ele>240</ele>
		<time>2011-09-11T09:50:37.888Z</time>
		<geoidheight>194</geoidheight>
	</trkpt>
	<trkpt lat="50.704923" lon="6.187669">
		<ele>240</ele>
		<time>2011-09-11T09:50:42.889Z</time>
		<geoidheight>194</geoidheight>
	</trkpt>
	<trkpt lat="50.704872" lon="6.187689">
		<ele>240</ele>
		<time>2011-09-11T09:50:43.889Z</time>
		<geoidheight>194</geoidheight>
	</trkpt>
	<trkpt lat="50.704872" lon="6.187689">
		<ele>240</ele>
		<time>2011-09-11T09:50:57.888Z</time>
		<geoidheight>194</geoidheight>
	</trkpt>
	<trkpt lat="50.704827" lon="6.187677">
		<ele>240</ele>
		<time>2011-09-11T09:50:58.889Z</time>
		<geoidheight>194</geoidheight>
	</trkpt>
	<trkpt lat="50.704827" lon="6.187677">
		<ele>240</ele>
		<time>2011-09-11T09:51:06.888Z</time>
		<geoidheight>194</geoidheight>
	</trkpt>
	<trkpt lat="50.704782" lon="6.187654">
		<ele>240</ele>
		<time>2011-09-11T09:51:07.890Z</time>
		<geoidheight>194</geoidheight>
	</trkpt>
	<trkpt lat="50.704782" lon="6.187654">
		<ele>240</ele>
		<time>2011-09-11T09:51:11.888Z</time>
		<geoidheight>194</geoidheight>
	</trkpt>
	<trkpt lat="50.704734" lon="6.187629">
		<ele>240</ele>
		<time>2011-09-11T09:51:12.890Z</time>
		<geoidheight>194</geoidheight>
	</trkpt>
	<trkpt lat="50.704734" lon="6.187629">
		<ele>240</ele>
		<time>2011-09-11T09:51:14.887Z</time>
		<geoidheight>194</geoidheight>
	</trkpt>
	<trkpt lat="50.704690" lon="6.187613">
		<ele>240</ele>
		<time>2011-09-11T09:51:15.890Z</time>
		<geoidheight>194</geoidheight>
	</trkpt>
	<trkpt lat="50.704690" lon="6.187613">
		<ele>241</ele>
		<time>2011-09-11T09:51:35.910Z</time>
		<geoidheight>195</geoidheight>
	</trkpt>
	<trkpt lat="50.704703" lon="6.187586">
		<ele>241</ele>
		<time>2011-09-11T09:51:36.908Z</time>
		<geoidheight>195</geoidheight>
	</trkpt>
	<trkpt lat="50.704710" lon="6.187585">
		<ele>241</ele>
		<time>2011-09-11T09:51:37.911Z</time>
		<geoidheight>195</geoidheight>
	</trkpt>
	<trkpt lat="50.704716" lon="6.187585">
		<ele>241</ele>
		<time>2011-09-11T09:51:38.904Z</time>
		<geoidheight>195</geoidheight>
	</trkpt>
	<trkpt lat="50.704724" lon="6.187585">
		<ele>241</ele>
		<time>2011-09-11T09:51:39.895Z</time>
		<geoidheight>195</geoidheight>
	</trkpt>
	<trkpt lat="50.704732" lon="6.187585">
		<ele>241</ele>
		<time>2011-09-11T09:51:40.897Z</time>
		<geoidheight>195</geoidheight>
	</trkpt>
	<trkpt lat="50.704738" lon="6.187584">
		<ele>241</ele>
		<time>2011-09-11T09:52:10.890Z</time>
		<geoidheight>195</geoidheight>
	</trkpt>
	<trkpt lat="50.704761" lon="6.187575">
		<ele>241</ele>
		<time>2011-09-11T09:52:11.888Z</time>
		<geoidheight>195</geoidheight>
	</trkpt>
	<trkpt lat="50.704761" lon="6.187574">
		<ele>240</ele>
		<time>2011-09-11T09:52:31.889Z</time>
		<geoidheight>194</geoidheight>
	</trkpt>
	<trkpt lat="50.704761" lon="6.187501">
		<ele>240</ele>
		<time>2011-09-11T09:52:32.890Z</time>
		<geoidheight>194</geoidheight>
	</trkpt>
	<trkpt lat="50.704761" lon="6.187501">
		<ele>240</ele>
		<time>2011-09-11T09:52:54.887Z</time>
		<geoidheight>194</geoidheight>
	</trkpt>
	<trkpt lat="50.704721" lon="6.187463">
		<ele>240</ele>
		<time>2011-09-11T09:52:55.889Z</time>
		<geoidheight>194</geoidheight>
	</trkpt>
	<trkpt lat="50.704721" lon="6.187463">
		<ele>240</ele>
		<time>2011-09-11T09:53:04.891Z</time>
		<geoidheight>194</geoidheight>
	</trkpt>
	<trkpt lat="50.704697" lon="6.187530">
		<ele>240</ele>
		<time>2011-09-11T09:53:05.890Z</time>
		<geoidheight>194</geoidheight>
	</trkpt>
	<trkpt lat="50.704697" lon="6.187530">
		<ele>241</ele>
		<time>2011-09-11T09:53:23.890Z</time>
		<geoidheight>195</geoidheight>
	</trkpt>
	<trkpt lat="50.704685" lon="6.187600">
		<ele>241</ele>
		<time>2011-09-11T09:53:24.889Z</time>
		<geoidheight>195</geoidheight>
	</trkpt>
	<trkpt lat="50.704685" lon="6.187600">
		<ele>241</ele>
		<time>2011-09-11T09:53:34.889Z</time>
		<geoidheight>195</geoidheight>
	</trkpt>
	<trkpt lat="50.704703" lon="6.187665">
		<ele>241</ele>
		<time>2011-09-11T09:53:35.891Z</time>
		<geoidheight>195</geoidheight>
	</trkpt>
	<trkpt lat="50.704703" lon="6.187665">
		<ele>241</ele>
		<time>2011-09-11T09:53:45.890Z</time>
		<geoidheight>195</geoidheight>
	</trkpt>
	<trkpt lat="50.704733" lon="6.187592">
		<ele>241</ele>
		<time>2011-09-11T09:53:46.890Z</time>
		<geoidheight>195</geoidheight>
	</trkpt>
	<trkpt lat="50.704733" lon="6.187592">
		<ele>241</ele>
		<time>2011-09-11T09:53:48.890Z</time>
		<geoidheight>195</geoidheight>
	</trkpt>
	<trkpt lat="50.704732" lon="6.187508">
		<ele>241</ele>
		<time>2011-09-11T09:53:49.890Z</time>
		<geoidheight>195</geoidheight>
	</trkpt>
	<trkpt lat="50.704732" lon="6.187508">
		<ele>241</ele>
		<time>2011-09-11T09:53:51.892Z</time>
		<geoidheight>195</geoidheight>
	</trkpt>
	<trkpt lat="50.704730" lon="6.187429">
		<ele>241</ele>
		<time>2011-09-11T09:53:52.893Z</time>
		<geoidheight>195</geoidheight>
	</trkpt>
	<trkpt lat="50.704729" lon="6.187403">
		<ele>241</ele>
		<time>2011-09-11T09:53:53.899Z</time>
		<geoidheight>195</geoidheight>
	</trkpt>
	<trkpt lat="50.704727" lon="6.187380">
		<ele>241</ele>
		<time>2011-09-11T09:53:54.912Z</time>
		<geoidheight>195</geoidheight>
	</trkpt>
	<trkpt lat="50.704722" lon="6.187356">
		<ele>241</ele>
		<time>2011-09-11T09:53:55.900Z</time>
		<geoidheight>195</geoidheight>
	</trkpt>
	<trkpt lat="50.704718" lon="6.187335">
		<ele>241</ele>
		<time>2011-09-11T09:53:56.919Z</time>
		<geoidheight>195</geoidheight>
	</trkpt>
	<trkpt lat="50.704715" lon="6.187314">
		<ele>241</ele>
		<time>2011-09-11T09:53:57.915Z</time>
		<geoidheight>195</geoidheight>
	</trkpt>
	<trkpt lat="50.704711" lon="6.187294">
		<ele>241</ele>
		<time>2011-09-11T09:53:58.912Z</time>
		<geoidheight>195</geoidheight>
	</trkpt>
	<trkpt lat="50.704707" lon="6.187277">
		<ele>241</ele>
		<time>2011-09-11T09:53:59.921Z</time>
		<geoidheight>195</geoidheight>
	</trkpt>
	<trkpt lat="50.704704" lon="6.187259">
		<ele>241</ele>
		<time>2011-09-11T09:54:00.917Z</time>
		<geoidheight>195</geoidheight>
	</trkpt>
	<trkpt lat="50.704702" lon="6.187243">
		<ele>241</ele>
		<time>2011-09-11T09:54:01.917Z</time>
		<geoidheight>195</geoidheight>
	</trkpt>
	<trkpt lat="50.704700" lon="6.187227">
		<ele>241</ele>
		<time>2011-09-11T09:54:02.910Z</time>
		<geoidheight>195</geoidheight>
	</trkpt>
	<trkpt lat="50.704698" lon="6.187213">
		<ele>241</ele>
		<time>2011-09-11T09:54:03.911Z</time>
		<geoidheight>195</geoidheight>
	</trkpt>
	<trkpt lat="50.704695" lon="6.187200">
		<ele>241</ele>
		<time>2011-09-11T09:54:04.893Z</time>
		<geoidheight>195</geoidheight>
	</trkpt>
	<trkpt lat="50.704693" lon="6.187188">
		<ele>241</ele>
		<time>2011-09-11T09:54:05.892Z</time>
		<geoidheight>195</geoidheight>
	</trkpt>
	<trkpt lat="50.704692" lon="6.187177">
		<ele>241</ele>
		<time>2011-09-11T09:54:06.890Z</time>
		<geoidheight>195</geoidheight>
	</trkpt>
	<trkpt lat="50.704690" lon="6.187166">
		<ele>241</ele>
		<time>2011-09-11T09:54:07.891Z</time>
		<geoidheight>195</geoidheight>
	</trkpt>
	<trkpt lat="50.704689" lon="6.187156">
		<ele>241</ele>
		<time>2011-09-11T09:54:08.891Z</time>
		<geoidheight>195</geoidheight>
	</trkpt>
	<trkpt lat="50.704687" lon="6.187146">
		<ele>241</ele>
		<time>2011-09-11T09:54:09.889Z</time>
		<geoidheight>195</geoidheight>
	</trkpt>
	<trkpt lat="50.704686" lon="6.187136">
		<ele>241</ele>
		<time>2011-09-11T09:54:10.893Z</time>
		<geoidheight>195</geoidheight>
	</trkpt>
	<trkpt lat="50.704684" lon="6.187126">
		<ele>241</ele>
		<time>2011-09-11T09:54:11.890Z</time>
		<geoidheight>195</geoidheight>
	</trkpt>
	<trkpt lat="50.704683" lon="6.187116">
		<ele>241</ele>
		<time>2011-09-11T09:54:12.888Z</time>
		<geoidheight>195</geoidheight>
	</trkpt>
	<trkpt lat="50.704679" lon="6.187102">
		<ele>241</ele>
		<time>2011-09-11T09:54:13.891Z</time>
		<geoidheight>195</geoidheight>
	</trkpt>
	<trkpt lat="50.704675" lon="6.187088">
		<ele>241</ele>
		<time>2011-09-11T09:54:14.897Z</time>
		<geoidheight>195</geoidheight>
	</trkpt>
	<trkpt lat="50.704671" lon="6.187075">
		<ele>241</ele>
		<time>2011-09-11T09:54:15.890Z</time>
		<geoidheight>195</geoidheight>
	</trkpt>
	<trkpt lat="50.704668" lon="6.187063">
		<ele>241</ele>
		<time>2011-09-11T09:54:16.890Z</time>
		<geoidheight>195</geoidheight>
	</trkpt>
	<trkpt lat="50.704664" lon="6.187051">
		<ele>241</ele>
		<time>2011-09-11T09:54:17.890Z</time>
		<geoidheight>195</geoidheight>
	</trkpt>
	<trkpt lat="50.704661" lon="6.187036">
		<ele>241</ele>
		<time>2011-09-11T09:54:18.889Z</time>
		<geoidheight>195</geoidheight>
	</trkpt>
	<trkpt lat="50.704657" lon="6.187022">
		<ele>241</ele>
		<time>2011-09-11T09:54:19.889Z</time>
		<geoidheight>195</geoidheight>
	</trkpt>
	<trkpt lat="50.704653" lon="6.187008">
		<ele>241</ele>
		<time>2011-09-11T09:54:20.902Z</time>
		<geoidheight>195</geoidheight>
	</trkpt>
	<trkpt lat="50.704648" lon="6.186996">
		<ele>242</ele>
		<time>2011-09-11T09:54:21.890Z</time>
		<geoidheight>196</geoidheight>
	</trkpt>
	<trkpt lat="50.704641" lon="6.186984">
		<ele>242</ele>
		<time>2011-09-11T09:54:22.889Z</time>
		<geoidheight>196</geoidheight>
	</trkpt>
	<trkpt lat="50.704633" lon="6.186972">
		<ele>242</ele>
		<time>2011-09-11T09:54:23.891Z</time>
		<geoidheight>196</geoidheight>
	</trkpt>
	<trkpt lat="50.704624" lon="6.186962">
		<ele>242</ele>
		<time>2011-09-11T09:54:24.891Z</time>
		<geoidheight>196</geoidheight>
	</trkpt>
	<trkpt lat="50.704617" lon="6.186949">
		<ele>242</ele>
		<time>2011-09-11T09:54:25.890Z</time>
		<geoidheight>196</geoidheight>
	</trkpt>
	<trkpt lat="50.704609" lon="6.186936">
		<ele>242</ele>
		<time>2011-09-11T09:54:26.892Z</time>
		<geoidheight>196</geoidheight>
	</trkpt>
	<trkpt lat="50.704601" lon="6.186923">
		<ele>242</ele>
		<time>2011-09-11T09:54:27.890Z</time>
		<geoidheight>196</geoidheight>
	</trkpt>
	<trkpt lat="50.704593" lon="6.186910">
		<ele>242</ele>
		<time>2011-09-11T09:54:28.891Z</time>
		<geoidheight>196</geoidheight>
	</trkpt>
	<trkpt lat="50.704585" lon="6.186896">
		<ele>242</ele>
		<time>2011-09-11T09:54:29.891Z</time>
		<geoidheight>196</geoidheight>
	</trkpt>
	<trkpt lat="50.704577" lon="6.186881">
		<ele>242</ele>
		<time>2011-09-11T09:54:30.889Z</time>
		<geoidheight>196</geoidheight>
	</trkpt>
	<trkpt lat="50.704567" lon="6.186865">
		<ele>242</ele>
		<time>2011-09-11T09:54:31.889Z</time>
		<geoidheight>196</geoidheight>
	</trkpt>
	<trkpt lat="50.704556" lon="6.186849">
		<ele>242</ele>
		<time>2011-09-11T09:54:32.891Z</time>
		<geoidheight>196</geoidheight>
	</trkpt>
	<trkpt lat="50.704545" lon="6.186832">
		<ele>242</ele>
		<time>2011-09-11T09:54:33.889Z</time>
		<geoidheight>196</geoidheight>
	</trkpt>
	<trkpt lat="50.704533" lon="6.186815">
		<ele>242</ele>
		<time>2011-09-11T09:54:34.890Z</time>
		<geoidheight>196</geoidheight>
	</trkpt>
	<trkpt lat="50.704521" lon="6.186796">
		<ele>242</ele>
		<time>2011-09-11T09:54:35.893Z</time>
		<geoidheight>196</geoidheight>
	</trkpt>
	<trkpt lat="50.704508" lon="6.186780">
		<ele>242</ele>
		<time>2011-09-11T09:54:36.890Z</time>
		<geoidheight>196</geoidheight>
	</trkpt>
	<trkpt lat="50.704505" lon="6.186765">
		<ele>242</ele>
		<time>2011-09-11T09:54:37.889Z</time>
		<geoidheight>196</geoidheight>
	</trkpt>
	<trkpt lat="50.704494" lon="6.186747">
		<ele>242</ele>
		<time>2011-09-11T09:54:38.889Z</time>
		<geoidheight>196</geoidheight>
	</trkpt>
	<trkpt lat="50.704483" lon="6.186728">
		<ele>242</ele>
		<time>2011-09-11T09:54:39.892Z</time>
		<geoidheight>196</geoidheight>
	</trkpt>
	<trkpt lat="50.704473" lon="6.186709">
		<ele>242</ele>
		<time>2011-09-11T09:54:40.891Z</time>
		<geoidheight>196</geoidheight>
	</trkpt>
	<trkpt lat="50.704461" lon="6.186689">
		<ele>242</ele>
		<time>2011-09-11T09:54:41.890Z</time>
		<geoidheight>196</geoidheight>
	</trkpt>
	<trkpt lat="50.704449" lon="6.186670">
		<ele>242</ele>
		<time>2011-09-11T09:54:42.888Z</time>
		<geoidheight>196</geoidheight>
	</trkpt>
	<trkpt lat="50.704433" lon="6.186652">
		<ele>242</ele>
		<time>2011-09-11T09:54:43.889Z</time>
		<geoidheight>196</geoidheight>
	</trkpt>
	<trkpt lat="50.704418" lon="6.186635">
		<ele>242</ele>
		<time>2011-09-11T09:54:44.889Z</time>
		<geoidheight>196</geoidheight>
	</trkpt>
	<trkpt lat="50.704402" lon="6.186616">
		<ele>242</ele>
		<time>2011-09-11T09:54:45.892Z</time>
		<geoidheight>196</geoidheight>
	</trkpt>
	<trkpt lat="50.704388" lon="6.186598">
		<ele>242</ele>
		<time>2011-09-11T09:54:46.899Z</time>
		<geoidheight>196</geoidheight>
	</trkpt>
	<trkpt lat="50.704376" lon="6.186578">
		<ele>242</ele>
		<time>2011-09-11T09:54:47.890Z</time>
		<geoidheight>196</geoidheight>
	</trkpt>
	<trkpt lat="50.704364" lon="6.186559">
		<ele>242</ele>
		<time>2011-09-11T09:54:48.891Z</time>
		<geoidheight>196</geoidheight>
	</trkpt>
	<trkpt lat="50.704353" lon="6.186539">
		<ele>242</ele>
		<time>2011-09-11T09:54:49.892Z</time>
		<geoidheight>196</geoidheight>
	</trkpt>
	<trkpt lat="50.704343" lon="6.186517">
		<ele>242</ele>
		<time>2011-09-11T09:54:50.891Z</time>
		<geoidheight>196</geoidheight>
	</trkpt>
	<trkpt lat="50.704334" lon="6.186496">
		<ele>242</ele>
		<time>2011-09-11T09:54:51.890Z</time>
		<geoidheight>196</geoidheight>
	</trkpt>
	<trkpt lat="50.704327" lon="6.186475">
		<ele>242</ele>
		<time>2011-09-11T09:54:52.890Z</time>
		<geoidheight>196</geoidheight>
	</trkpt>
	<trkpt lat="50.704320" lon="6.186454">
		<ele>242</ele>
		<time>2011-09-11T09:54:53.890Z</time>
		<geoidheight>196</geoidheight>
	</trkpt>
	<trkpt lat="50.704325" lon="6.186438">
		<ele>242</ele>
		<time>2011-09-11T09:54:54.889Z</time>
		<geoidheight>196</geoidheight>
	</trkpt>
	<trkpt lat="50.704330" lon="6.186422">
		<ele>242</ele>
		<time>2011-09-11T09:54:55.892Z</time>
		<geoidheight>196</geoidheight>
	</trkpt>
	<trkpt lat="50.704324" lon="6.186401">
		<ele>242</ele>
		<time>2011-09-11T09:54:56.889Z</time>
		<geoidheight>196</geoidheight>
	</trkpt>
	<trkpt lat="50.704315" lon="6.186382">
		<ele>242</ele>
		<time>2011-09-11T09:54:57.890Z</time>
		<geoidheight>196</geoidheight>
	</trkpt>
	<trkpt lat="50.704320" lon="6.186368">
		<ele>242</ele>
		<time>2011-09-11T09:54:58.891Z</time>
		<geoidheight>196</geoidheight>
	</trkpt>
	<trkpt lat="50.704328" lon="6.186367">
		<ele>242</ele>
		<time>2011-09-11T09:54:59.890Z</time>
		<geoidheight>196</geoidheight>
	</trkpt>
	<trkpt lat="50.704336" lon="6.186366">
		<ele>242</ele>
		<time>2011-09-11T09:55:00.889Z</time>
		<geoidheight>196</geoidheight>
	</trkpt>
	<trkpt lat="50.704332" lon="6.186354">
		<ele>242</ele>
		<time>2011-09-11T09:55:01.891Z</time>
		<geoidheight>196</geoidheight>
	</trkpt>
	<trkpt lat="50.704325" lon="6.186343">
		<ele>242</ele>
		<time>2011-09-11T09:55:02.889Z</time>
		<geoidheight>196</geoidheight>
	</trkpt>
	<trkpt lat="50.704328" lon="6.186334">
		<ele>242</ele>
		<time>2011-09-11T09:55:03.898Z</time>
		<geoidheight>196</geoidheight>
	</trkpt>
	<trkpt lat="50.704332" lon="6.186329">
		<ele>242</ele>
		<time>2011-09-11T09:55:04.891Z</time>
		<geoidheight>196</geoidheight>
	</trkpt>
	<trkpt lat="50.704339" lon="6.186330">
		<ele>242</ele>
		<time>2011-09-11T09:55:05.890Z</time>
		<geoidheight>196</geoidheight>
	</trkpt>
	<trkpt lat="50.704346" lon="6.186331">
		<ele>242</ele>
		<time>2011-09-11T09:55:06.889Z</time>
		<geoidheight>196</geoidheight>
	</trkpt>
	<trkpt lat="50.704353" lon="6.186333">
		<ele>242</ele>
		<time>2011-09-11T09:55:07.891Z</time>
		<geoidheight>196</geoidheight>
	</trkpt>
	<trkpt lat="50.704360" lon="6.186333">
		<ele>242</ele>
		<time>2011-09-11T09:55:08.889Z</time>
		<geoidheight>196</geoidheight>
	</trkpt>
	<trkpt lat="50.704354" lon="6.186325">
		<ele>242</ele>
		<time>2011-09-11T09:55:09.890Z</time>
		<geoidheight>196</geoidheight>
	</trkpt>
	<trkpt lat="50.704357" lon="6.186318">
		<ele>242</ele>
		<time>2011-09-11T09:55:10.893Z</time>
		<geoidheight>196</geoidheight>
	</trkpt>
	<trkpt lat="50.704360" lon="6.186310">
		<ele>242</ele>
		<time>2011-09-11T09:55:11.890Z</time>
		<geoidheight>196</geoidheight>
	</trkpt>
	<trkpt lat="50.704353" lon="6.186300">
		<ele>242</ele>
		<time>2011-09-11T09:55:12.890Z</time>
		<geoidheight>196</geoidheight>
	</trkpt>
	<trkpt lat="50.704344" lon="6.186289">
		<ele>242</ele>
		<time>2011-09-11T09:55:13.890Z</time>
		<geoidheight>196</geoidheight>
	</trkpt>
	<trkpt lat="50.704335" lon="6.186279">
		<ele>242</ele>
		<time>2011-09-11T09:55:14.890Z</time>
		<geoidheight>196</geoidheight>
	</trkpt>
	<trkpt lat="50.704326" lon="6.186269">
		<ele>242</ele>
		<time>2011-09-11T09:55:15.889Z</time>
		<geoidheight>196</geoidheight>
	</trkpt>
	<trkpt lat="50.704318" lon="6.186258">
		<ele>242</ele>
		<time>2011-09-11T09:55:16.889Z</time>
		<geoidheight>196</geoidheight>
	</trkpt>
	<trkpt lat="50.704309" lon="6.186246">
		<ele>242</ele>
		<time>2011-09-11T09:55:17.891Z</time>
		<geoidheight>196</geoidheight>
	</trkpt>
	<trkpt lat="50.704312" lon="6.186235">
		<ele>242</ele>
		<time>2011-09-11T09:55:18.889Z</time>
		<geoidheight>196</geoidheight>
	</trkpt>
	<trkpt lat="50.704314" lon="6.186220">
		<ele>242</ele>
		<time>2011-09-11T09:55:19.891Z</time>
		<geoidheight>196</geoidheight>
	</trkpt>
	<trkpt lat="50.704308" lon="6.186202">
		<ele>242</ele>
		<time>2011-09-11T09:55:20.891Z</time>
		<geoidheight>196</geoidheight>
	</trkpt>
	<trkpt lat="50.704301" lon="6.186183">
		<ele>242</ele>
		<time>2011-09-11T09:55:21.890Z</time>
		<geoidheight>196</geoidheight>
	</trkpt>
	<trkpt lat="50.704293" lon="6.186165">
		<ele>242</ele>
		<time>2011-09-11T09:55:22.891Z</time>
		<geoidheight>196</geoidheight>
	</trkpt>
	<trkpt lat="50.704285" lon="6.186147">
		<ele>242</ele>
		<time>2011-09-11T09:55:23.891Z</time>
		<geoidheight>196</geoidheight>
	</trkpt>
	<trkpt lat="50.704278" lon="6.186130">
		<ele>242</ele>
		<time>2011-09-11T09:55:24.892Z</time>
		<geoidheight>196</geoidheight>
	</trkpt>
	<trkpt lat="50.704271" lon="6.186114">
		<ele>242</ele>
		<time>2011-09-11T09:55:25.889Z</time>
		<geoidheight>196</geoidheight>
	</trkpt>
	<trkpt lat="50.704264" lon="6.186096">
		<ele>242</ele>
		<time>2011-09-11T09:55:26.890Z</time>
		<geoidheight>196</geoidheight>
	</trkpt>
	<trkpt lat="50.704268" lon="6.186083">
		<ele>242</ele>
		<time>2011-09-11T09:55:27.890Z</time>
		<geoidheight>196</geoidheight>
	</trkpt>
	<trkpt lat="50.704273" lon="6.186072">
		<ele>242</ele>
		<time>2011-09-11T09:55:28.890Z</time>
		<geoidheight>196</geoidheight>
	</trkpt>
	<trkpt lat="50.704278" lon="6.186060">
		<ele>242</ele>
		<time>2011-09-11T09:55:29.891Z</time>
		<geoidheight>196</geoidheight>
	</trkpt>
	<trkpt lat="50.704275" lon="6.186057">
		<ele>242</ele>
		<time>2011-09-11T09:55:30.891Z</time>
		<geoidheight>196</geoidheight>
	</trkpt>
	<trkpt lat="50.704271" lon="6.186050">
		<ele>242</ele>
		<time>2011-09-11T09:55:31.889Z</time>
		<geoidheight>196</geoidheight>
	</trkpt>
	<trkpt lat="50.704256" lon="6.186038">
		<ele>242</ele>
		<time>2011-09-11T09:55:32.891Z</time>
		<geoidheight>196</geoidheight>
	</trkpt>
	<trkpt lat="50.704239" lon="6.186027">
		<ele>242</ele>
		<time>2011-09-11T09:55:33.891Z</time>
		<geoidheight>196</geoidheight>
	</trkpt>
	<trkpt lat="50.704223" lon="6.186014">
		<ele>242</ele>
		<time>2011-09-11T09:55:34.892Z</time>
		<geoidheight>196</geoidheight>
	</trkpt>
	<trkpt lat="50.704208" lon="6.186002">
		<ele>242</ele>
		<time>2011-09-11T09:55:35.889Z</time>
		<geoidheight>196</geoidheight>
	</trkpt>
	<trkpt lat="50.704193" lon="6.185989">
		<ele>242</ele>
		<time>2011-09-11T09:55:36.892Z</time>
		<geoidheight>196</geoidheight>
	</trkpt>
	<trkpt lat="50.704179" lon="6.185975">
		<ele>242</ele>
		<time>2011-09-11T09:55:37.890Z</time>
		<geoidheight>196</geoidheight>
	</trkpt>
	<trkpt lat="50.704165" lon="6.185961">
		<ele>242</ele>
		<time>2011-09-11T09:55:38.890Z</time>
		<geoidheight>196</geoidheight>
	</trkpt>
	<trkpt lat="50.704152" lon="6.185947">
		<ele>242</ele>
		<time>2011-09-11T09:55:39.892Z</time>
		<geoidheight>196</geoidheight>
	</trkpt>
	<trkpt lat="50.704151" lon="6.185934">
		<ele>242</ele>
		<time>2011-09-11T09:55:40.889Z</time>
		<geoidheight>196</geoidheight>
	</trkpt>
	<trkpt lat="50.704153" lon="6.185928">
		<ele>242</ele>
		<time>2011-09-11T09:55:41.890Z</time>
		<geoidheight>196</geoidheight>
	</trkpt>
	<trkpt lat="50.704151" lon="6.185925">
		<ele>242</ele>
		<time>2011-09-11T09:55:43.891Z</time>
		<geoidheight>196</geoidheight>
	</trkpt>
	<trkpt lat="50.704135" lon="6.185915">
		<ele>242</ele>
		<time>2011-09-11T09:55:44.892Z</time>
		<geoidheight>196</geoidheight>
	</trkpt>
	<trkpt lat="50.704116" lon="6.185896">
		<ele>242</ele>
		<time>2011-09-11T09:55:45.899Z</time>
		<geoidheight>196</geoidheight>
	</trkpt>
	<trkpt lat="50.704096" lon="6.185874">
		<ele>242</ele>
		<time>2011-09-11T09:55:46.899Z</time>
		<geoidheight>196</geoidheight>
	</trkpt>
	<trkpt lat="50.704073" lon="6.185851">
		<ele>242</ele>
		<time>2011-09-11T09:55:47.903Z</time>
		<geoidheight>196</geoidheight>
	</trkpt>
	<trkpt lat="50.704049" lon="6.185831">
		<ele>242</ele>
		<time>2011-09-11T09:55:48.909Z</time>
		<geoidheight>196</geoidheight>
	</trkpt>
	<trkpt lat="50.704025" lon="6.185812">
		<ele>242</ele>
		<time>2011-09-11T09:55:49.911Z</time>
		<geoidheight>196</geoidheight>
	</trkpt>
	<trkpt lat="50.703997" lon="6.185799">
		<ele>242</ele>
		<time>2011-09-11T09:55:50.918Z</time>
		<geoidheight>196</geoidheight>
	</trkpt>
	<trkpt lat="50.703967" lon="6.185788">
		<ele>242</ele>
		<time>2011-09-11T09:55:51.910Z</time>
		<geoidheight>196</geoidheight>
	</trkpt>
	<trkpt lat="50.703940" lon="6.185778">
		<ele>242</ele>
		<time>2011-09-11T09:55:52.911Z</time>
		<geoidheight>196</geoidheight>
	</trkpt>
	<trkpt lat="50.703912" lon="6.185768">
		<ele>242</ele>
		<time>2011-09-11T09:55:53.901Z</time>
		<geoidheight>196</geoidheight>
	</trkpt>
	<trkpt lat="50.703881" lon="6.185761">
		<ele>242</ele>
		<time>2011-09-11T09:55:54.910Z</time>
		<geoidheight>196</geoidheight>
	</trkpt>
	<trkpt lat="50.703849" lon="6.185751">
		<ele>242</ele>
		<time>2011-09-11T09:55:55.912Z</time>
		<geoidheight>196</geoidheight>
	</trkpt>
	<trkpt lat="50.703817" lon="6.185740">
		<ele>242</ele>
		<time>2011-09-11T09:55:56.912Z</time>
		<geoidheight>196</geoidheight>
	</trkpt>
	<trkpt lat="50.703785" lon="6.185728">
		<ele>242</ele>
		<time>2011-09-11T09:55:57.920Z</time>
		<geoidheight>196</geoidheight>
	</trkpt>
	<trkpt lat="50.703785" lon="6.185728">
		<ele>242</ele>
		<time>2011-09-11T09:55:58.915Z</time>
		<geoidheight>196</geoidheight>
	</trkpt>
	<trkpt lat="50.703785" lon="6.185728">
		<ele>242</ele>
		<time>2011-09-11T09:55:59.931Z</time>
		<geoidheight>196</geoidheight>
	</trkpt>
	<trkpt lat="50.703725" lon="6.185718">
		<ele>242</ele>
		<time>2011-09-11T09:56:00.931Z</time>
		<geoidheight>196</geoidheight>
	</trkpt>
	<trkpt lat="50.703725" lon="6.185718">
		<ele>242</ele>
		<time>2011-09-11T09:56:02.931Z</time>
		<geoidheight>196</geoidheight>
	</trkpt>
	<trkpt lat="50.703677" lon="6.185688">
		<ele>242</ele>
		<time>2011-09-11T09:56:03.927Z</time>
		<geoidheight>196</geoidheight>
	</trkpt>
	<trkpt lat="50.703677" lon="6.185688">
		<ele>242</ele>
		<time>2011-09-11T09:56:05.924Z</time>
		<geoidheight>196</geoidheight>
	</trkpt>
	<trkpt lat="50.703634" lon="6.185651">
		<ele>242</ele>
		<time>2011-09-11T09:56:06.914Z</time>
		<geoidheight>196</geoidheight>
	</trkpt>
	<trkpt lat="50.703634" lon="6.185651">
		<ele>242</ele>
		<time>2011-09-11T09:56:08.915Z</time>
		<geoidheight>196</geoidheight>
	</trkpt>
	<trkpt lat="50.703598" lon="6.185600">
		<ele>242</ele>
		<time>2011-09-11T09:56:09.926Z</time>
		<geoidheight>196</geoidheight>
	</trkpt>
	<trkpt lat="50.703598" lon="6.185600">
		<ele>242</ele>
		<time>2011-09-11T09:56:11.921Z</time>
		<geoidheight>196</geoidheight>
	</trkpt>
	<trkpt lat="50.703564" lon="6.185542">
		<ele>242</ele>
		<time>2011-09-11T09:56:12.926Z</time>
		<geoidheight>196</geoidheight>
	</trkpt>
	<trkpt lat="50.703564" lon="6.185542">
		<ele>242</ele>
		<time>2011-09-11T09:56:14.895Z</time>
		<geoidheight>196</geoidheight>
	</trkpt>
	<trkpt lat="50.703532" lon="6.185483">
		<ele>242</ele>
		<time>2011-09-11T09:56:15.892Z</time>
		<geoidheight>196</geoidheight>
	</trkpt>
	<trkpt lat="50.703523" lon="6.185462">
		<ele>242</ele>
		<time>2011-09-11T09:56:16.908Z</time>
		<geoidheight>196</geoidheight>
	</trkpt>
	<trkpt lat="50.703523" lon="6.185462">
		<ele>242</ele>
		<time>2011-09-11T09:56:17.903Z</time>
		<geoidheight>196</geoidheight>
	</trkpt>
	<trkpt lat="50.703502" lon="6.185416">
		<ele>243</ele>
		<time>2011-09-11T09:56:18.905Z</time>
		<geoidheight>197</geoidheight>
	</trkpt>
	<trkpt lat="50.703489" lon="6.185391">
		<ele>243</ele>
		<time>2011-09-11T09:56:19.903Z</time>
		<geoidheight>197</geoidheight>
	</trkpt>
	<trkpt lat="50.703477" lon="6.185367">
		<ele>243</ele>
		<time>2011-09-11T09:56:20.899Z</time>
		<geoidheight>197</geoidheight>
	</trkpt>
	<trkpt lat="50.703466" lon="6.185343">
		<ele>243</ele>
		<time>2011-09-11T09:56:21.898Z</time>
		<geoidheight>197</geoidheight>
	</trkpt>
	<trkpt lat="50.703456" lon="6.185321">
		<ele>243</ele>
		<time>2011-09-11T09:56:22.901Z</time>
		<geoidheight>197</geoidheight>
	</trkpt>
	<trkpt lat="50.703446" lon="6.185301">
		<ele>243</ele>
		<time>2011-09-11T09:56:23.893Z</time>
		<geoidheight>197</geoidheight>
	</trkpt>
	<trkpt lat="50.703435" lon="6.185284">
		<ele>243</ele>
		<time>2011-09-11T09:56:24.891Z</time>
		<geoidheight>197</geoidheight>
	</trkpt>
	<trkpt lat="50.703424" lon="6.185267">
		<ele>243</ele>
		<time>2011-09-11T09:56:25.892Z</time>
		<geoidheight>197</geoidheight>
	</trkpt>
	<trkpt lat="50.703414" lon="6.185250">
		<ele>243</ele>
		<time>2011-09-11T09:56:26.891Z</time>
		<geoidheight>197</geoidheight>
	</trkpt>
	<trkpt lat="50.703405" lon="6.185237">
		<ele>243</ele>
		<time>2011-09-11T09:56:27.892Z</time>
		<geoidheight>197</geoidheight>
	</trkpt>
	<trkpt lat="50.703395" lon="6.185222">
		<ele>243</ele>
		<time>2011-09-11T09:56:28.893Z</time>
		<geoidheight>197</geoidheight>
	</trkpt>
	<trkpt lat="50.703383" lon="6.185207">
		<ele>243</ele>
		<time>2011-09-11T09:56:29.891Z</time>
		<geoidheight>197</geoidheight>
	</trkpt>
	<trkpt lat="50.703374" lon="6.185190">
		<ele>243</ele>
		<time>2011-09-11T09:56:30.891Z</time>
		<geoidheight>197</geoidheight>
	</trkpt>
	<trkpt lat="50.703367" lon="6.185167">
		<ele>243</ele>
		<time>2011-09-11T09:56:31.891Z</time>
		<geoidheight>197</geoidheight>
	</trkpt>
	<trkpt lat="50.703361" lon="6.185142">
		<ele>243</ele>
		<time>2011-09-11T09:56:32.891Z</time>
		<geoidheight>197</geoidheight>
	</trkpt>
	<trkpt lat="50.703355" lon="6.185119">
		<ele>243</ele>
		<time>2011-09-11T09:56:33.891Z</time>
		<geoidheight>197</geoidheight>
	</trkpt>
	<trkpt lat="50.703351" lon="6.185095">
		<ele>243</ele>
		<time>2011-09-11T09:56:34.891Z</time>
		<geoidheight>197</geoidheight>
	</trkpt>
	<trkpt lat="50.703346" lon="6.185070">
		<ele>243</ele>
		<time>2011-09-11T09:56:35.893Z</time>
		<geoidheight>197</geoidheight>
	</trkpt>
	<trkpt lat="50.703338" lon="6.185049">
		<ele>243</ele>
		<time>2011-09-11T09:56:36.890Z</time>
		<geoidheight>197</geoidheight>
	</trkpt>
	<trkpt lat="50.703330" lon="6.185026">
		<ele>243</ele>
		<time>2011-09-11T09:56:37.891Z</time>
		<geoidheight>197</geoidheight>
	</trkpt>
	<trkpt lat="50.703324" lon="6.185007">
		<ele>243</ele>
		<time>2011-09-11T09:56:38.892Z</time>
		<geoidheight>197</geoidheight>
	</trkpt>
	<trkpt lat="50.703317" lon="6.184992">
		<ele>243</ele>
		<time>2011-09-11T09:56:39.892Z</time>
		<geoidheight>197</geoidheight>
	</trkpt>
	<trkpt lat="50.703311" lon="6.184978">
		<ele>243</ele>
		<time>2011-09-11T09:56:40.900Z</time>
		<geoidheight>197</geoidheight>
	</trkpt>
	<trkpt lat="50.703306" lon="6.184976">
		<ele>243</ele>
		<time>2011-09-11T09:56:41.896Z</time>
		<geoidheight>197</geoidheight>
	</trkpt>
	<trkpt lat="50.703302" lon="6.184973">
		<ele>243</ele>
		<time>2011-09-11T09:56:42.907Z</time>
		<geoidheight>197</geoidheight>
	</trkpt>
	<trkpt lat="50.703303" lon="6.184963">
		<ele>243</ele>
		<time>2011-09-11T09:56:43.891Z</time>
		<geoidheight>197</geoidheight>
	</trkpt>
	<trkpt lat="50.703307" lon="6.184955">
		<ele>243</ele>
		<time>2011-09-11T09:56:44.894Z</time>
		<geoidheight>197</geoidheight>
	</trkpt>
	<trkpt lat="50.703319" lon="6.184892">
		<ele>244</ele>
		<time>2011-09-11T09:56:45.914Z</time>
		<geoidheight>198</geoidheight>
	</trkpt>
	<trkpt lat="50.703340" lon="6.184838">
		<ele>244</ele>
		<time>2011-09-11T09:56:46.897Z</time>
		<geoidheight>198</geoidheight>
	</trkpt>
	<trkpt lat="50.703357" lon="6.184793">
		<ele>244</ele>
		<time>2011-09-11T09:56:47.898Z</time>
		<geoidheight>198</geoidheight>
	</trkpt>
	<trkpt lat="50.703364" lon="6.184789">
		<ele>244</ele>
		<time>2011-09-11T09:56:48.899Z</time>
		<geoidheight>198</geoidheight>
	</trkpt>
	<trkpt lat="50.703369" lon="6.184781">
		<ele>245</ele>
		<time>2011-09-11T09:56:50.897Z</time>
		<geoidheight>199</geoidheight>
	</trkpt>
	<trkpt lat="50.703373" lon="6.184773">
		<ele>245</ele>
		<time>2011-09-11T09:56:51.892Z</time>
		<geoidheight>199</geoidheight>
	</trkpt>
	<trkpt lat="50.703376" lon="6.184769">
		<ele>245</ele>
		<time>2011-09-11T09:56:52.899Z</time>
		<geoidheight>199</geoidheight>
	</trkpt>
	<trkpt lat="50.703384" lon="6.184773">
		<ele>245</ele>
		<time>2011-09-11T09:56:53.903Z</time>
		<geoidheight>199</geoidheight>
	</trkpt>
	<trkpt lat="50.703391" lon="6.184779">
		<ele>245</ele>
		<time>2011-09-11T09:56:54.901Z</time>
		<geoidheight>199</geoidheight>
	</trkpt>
	<trkpt lat="50.703396" lon="6.184789">
		<ele>245</ele>
		<time>2011-09-11T09:56:55.905Z</time>
		<geoidheight>199</geoidheight>
	</trkpt>
	<trkpt lat="50.703396" lon="6.184789">
		<ele>246</ele>
		<time>2011-09-11T09:57:05.898Z</time>
		<geoidheight>200</geoidheight>
	</trkpt>
	<trkpt lat="50.703408" lon="6.184812">
		<ele>246</ele>
		<time>2011-09-11T09:57:06.901Z</time>
		<geoidheight>200</geoidheight>
	</trkpt>
	<trkpt lat="50.703412" lon="6.184806">
		<ele>246</ele>
		<time>2011-09-11T09:57:07.899Z</time>
		<geoidheight>200</geoidheight>
	</trkpt>
	<trkpt lat="50.703415" lon="6.184796">
		<ele>246</ele>
		<time>2011-09-11T09:57:08.905Z</time>
		<geoidheight>200</geoidheight>
	</trkpt>
	<trkpt lat="50.703421" lon="6.184795">
		<ele>246</ele>
		<time>2011-09-11T09:57:09.897Z</time>
		<geoidheight>200</geoidheight>
	</trkpt>
	<trkpt lat="50.703426" lon="6.184796">
		<ele>246</ele>
		<time>2011-09-11T09:57:10.895Z</time>
		<geoidheight>200</geoidheight>
	</trkpt>
	<trkpt lat="50.703430" lon="6.184798">
		<ele>246</ele>
		<time>2011-09-11T09:57:11.892Z</time>
		<geoidheight>200</geoidheight>
	</trkpt>
	<trkpt lat="50.703436" lon="6.184796">
		<ele>246</ele>
		<time>2011-09-11T09:57:12.904Z</time>
		<geoidheight>200</geoidheight>
	</trkpt>
	<trkpt lat="50.703441" lon="6.184785">
		<ele>246</ele>
		<time>2011-09-11T09:57:13.912Z</time>
		<geoidheight>200</geoidheight>
	</trkpt>
	<trkpt lat="50.703446" lon="6.184780">
		<ele>246</ele>
		<time>2011-09-11T09:57:14.911Z</time>
		<geoidheight>200</geoidheight>
	</trkpt>
	<trkpt lat="50.703448" lon="6.184774">
		<ele>247</ele>
		<time>2011-09-11T09:57:15.905Z</time>
		<geoidheight>201</geoidheight>
	</trkpt>
	<trkpt lat="50.703455" lon="6.184765">
		<ele>247</ele>
		<time>2011-09-11T09:57:35.908Z</time>
		<geoidheight>201</geoidheight>
	</trkpt>
	<trkpt lat="50.703462" lon="6.184783">
		<ele>247</ele>
		<time>2011-09-11T09:57:36.914Z</time>
		<geoidheight>201</geoidheight>
	</trkpt>
	<trkpt lat="50.703462" lon="6.184783">
		<ele>247</ele>
		<time>2011-09-11T09:57:37.912Z</time>
		<geoidheight>201</geoidheight>
	</trkpt>
	<trkpt lat="50.703456" lon="6.184769">
		<ele>247</ele>
		<time>2011-09-11T09:57:38.910Z</time>
		<geoidheight>201</geoidheight>
	</trkpt>
	<trkpt lat="50.703452" lon="6.184759">
		<ele>247</ele>
		<time>2011-09-11T09:57:39.904Z</time>
		<geoidheight>201</geoidheight>
	</trkpt>
	<trkpt lat="50.703448" lon="6.184747">
		<ele>247</ele>
		<time>2011-09-11T09:57:40.904Z</time>
		<geoidheight>201</geoidheight>
	</trkpt>
	<trkpt lat="50.703443" lon="6.184734">
		<ele>248</ele>
		<time>2011-09-11T09:57:41.899Z</time>
		<geoidheight>202</geoidheight>
	</trkpt>
	<trkpt lat="50.703436" lon="6.184720">
		<ele>248</ele>
		<time>2011-09-11T09:57:42.914Z</time>
		<geoidheight>202</geoidheight>
	</trkpt>
	<trkpt lat="50.703428" lon="6.184706">
		<ele>248</ele>
		<time>2011-09-11T09:57:43.914Z</time>
		<geoidheight>202</geoidheight>
	</trkpt>
	<trkpt lat="50.703418" lon="6.184690">
		<ele>248</ele>
		<time>2011-09-11T09:57:44.919Z</time>
		<geoidheight>202</geoidheight>
	</trkpt>
	<trkpt lat="50.703408" lon="6.184673">
		<ele>248</ele>
		<time>2011-09-11T09:57:45.914Z</time>
		<geoidheight>202</geoidheight>
	</trkpt>
	<trkpt lat="50.703398" lon="6.184632">
		<ele>248</ele>
		<time>2011-09-11T09:57:46.913Z</time>
		<geoidheight>202</geoidheight>
	</trkpt>
	<trkpt lat="50.703384" lon="6.184595">
		<ele>248</ele>
		<time>2011-09-11T09:57:47.916Z</time>
		<geoidheight>202</geoidheight>
	</trkpt>
	<trkpt lat="50.703369" lon="6.184563">
		<ele>248</ele>
		<time>2011-09-11T09:57:48.915Z</time>
		<geoidheight>202</geoidheight>
	</trkpt>
	<trkpt lat="50.703355" lon="6.184536">
		<ele>248</ele>
		<time>2011-09-11T09:57:49.913Z</time>
		<geoidheight>202</geoidheight>
	</trkpt>
	<trkpt lat="50.703340" lon="6.184503">
		<ele>248</ele>
		<time>2011-09-11T09:57:50.911Z</time>
		<geoidheight>202</geoidheight>
	</trkpt>
	<trkpt lat="50.703328" lon="6.184478">
		<ele>248</ele>
		<time>2011-09-11T09:57:51.919Z</time>
		<geoidheight>202</geoidheight>
	</trkpt>
	<trkpt lat="50.703313" lon="6.184452">
		<ele>249</ele>
		<time>2011-09-11T09:57:52.917Z</time>
		<geoidheight>203</geoidheight>
	</trkpt>
	<trkpt lat="50.703297" lon="6.184431">
		<ele>249</ele>
		<time>2011-09-11T09:57:53.912Z</time>
		<geoidheight>203</geoidheight>
	</trkpt>
	<trkpt lat="50.703279" lon="6.184410">
		<ele>249</ele>
		<time>2011-09-11T09:57:54.913Z</time>
		<geoidheight>203</geoidheight>
	</trkpt>
	<trkpt lat="50.703261" lon="6.184391">
		<ele>249</ele>
		<time>2011-09-11T09:57:55.918Z</time>
		<geoidheight>203</geoidheight>
	</trkpt>
	<trkpt lat="50.703245" lon="6.184377">
		<ele>249</ele>
		<time>2011-09-11T09:57:56.916Z</time>
		<geoidheight>203</geoidheight>
	</trkpt>
	<trkpt lat="50.703229" lon="6.184365">
		<ele>249</ele>
		<time>2011-09-11T09:57:57.920Z</time>
		<geoidheight>203</geoidheight>
	</trkpt>
	<trkpt lat="50.703215" lon="6.184349">
		<ele>249</ele>
		<time>2011-09-11T09:57:58.900Z</time>
		<geoidheight>203</geoidheight>
	</trkpt>
	<trkpt lat="50.703200" lon="6.184336">
		<ele>249</ele>
		<time>2011-09-11T09:57:59.904Z</time>
		<geoidheight>203</geoidheight>
	</trkpt>
	<trkpt lat="50.703187" lon="6.184322">
		<ele>249</ele>
		<time>2011-09-11T09:58:00.910Z</time>
		<geoidheight>203</geoidheight>
	</trkpt>
	<trkpt lat="50.703174" lon="6.184309">
		<ele>249</ele>
		<time>2011-09-11T09:58:01.914Z</time>
		<geoidheight>203</geoidheight>
	</trkpt>
	<trkpt lat="50.703163" lon="6.184298">
		<ele>249</ele>
		<time>2011-09-11T09:58:02.912Z</time>
		<geoidheight>203</geoidheight>
	</trkpt>
	<trkpt lat="50.703154" lon="6.184291">
		<ele>249</ele>
		<time>2011-09-11T09:58:03.911Z</time>
		<geoidheight>203</geoidheight>
	</trkpt>
	<trkpt lat="50.703146" lon="6.184295">
		<ele>249</ele>
		<time>2011-09-11T09:58:04.905Z</time>
		<geoidheight>203</geoidheight>
	</trkpt>
	<trkpt lat="50.703139" lon="6.184296">
		<ele>249</ele>
		<time>2011-09-11T09:58:05.900Z</time>
		<geoidheight>203</geoidheight>
	</trkpt>
	<trkpt lat="50.703133" lon="6.184292">
		<ele>249</ele>
		<time>2011-09-11T09:58:06.902Z</time>
		<geoidheight>203</geoidheight>
	</trkpt>
	<trkpt lat="50.703126" lon="6.184287">
		<ele>249</ele>
		<time>2011-09-11T09:58:07.891Z</time>
		<geoidheight>203</geoidheight>
	</trkpt>
	<trkpt lat="50.703118" lon="6.184286">
		<ele>250</ele>
		<time>2011-09-11T09:58:08.894Z</time>
		<geoidheight>204</geoidheight>
	</trkpt>
	<trkpt lat="50.703112" lon="6.184288">
		<ele>250</ele>
		<time>2011-09-11T09:58:09.891Z</time>
		<geoidheight>204</geoidheight>
	</trkpt>
	<trkpt lat="50.703105" lon="6.184291">
		<ele>250</ele>
		<time>2011-09-11T09:58:10.897Z</time>
		<geoidheight>204</geoidheight>
	</trkpt>
	<trkpt lat="50.703098" lon="6.184297">
		<ele>250</ele>
		<time>2011-09-11T09:58:11.898Z</time>
		<geoidheight>204</geoidheight>
	</trkpt>
	<trkpt lat="50.703091" lon="6.184308">
		<ele>250</ele>
		<time>2011-09-11T09:58:12.894Z</time>
		<geoidheight>204</geoidheight>
	</trkpt>
	<trkpt lat="50.703084" lon="6.184317">
		<ele>250</ele>
		<time>2011-09-11T09:58:13.897Z</time>
		<geoidheight>204</geoidheight>
	</trkpt>
	<trkpt lat="50.703077" lon="6.184327">
		<ele>250</ele>
		<time>2011-09-11T09:58:14.893Z</time>
		<geoidheight>204</geoidheight>
	</trkpt>
	<trkpt lat="50.703072" lon="6.184335">
		<ele>250</ele>
		<time>2011-09-11T09:58:31.892Z</time>
		<geoidheight>204</geoidheight>
	</trkpt>
	<trkpt lat="50.703069" lon="6.184411">
		<ele>250</ele>
		<time>2011-09-11T09:58:32.892Z</time>
		<geoidheight>204</geoidheight>
	</trkpt>
	<trkpt lat="50.703069" lon="6.184411">
		<ele>250</ele>
		<time>2011-09-11T09:59:04.892Z</time>
		<geoidheight>204</geoidheight>
	</trkpt>
	<trkpt lat="50.703081" lon="6.184412">
		<ele>250</ele>
		<time>2011-09-11T09:59:05.893Z</time>
		<geoidheight>204</geoidheight>
	</trkpt>
	<trkpt lat="50.703078" lon="6.184412">
		<ele>251</ele>
		<time>2011-09-11T09:59:25.893Z</time>
		<geoidheight>205</geoidheight>
	</trkpt>
	<trkpt lat="50.703074" lon="6.184325">
		<ele>251</ele>
		<time>2011-09-11T09:59:26.892Z</time>
		<geoidheight>205</geoidheight>
	</trkpt>
	<trkpt lat="50.703070" lon="6.184307">
		<ele>251</ele>
		<time>2011-09-11T09:59:27.896Z</time>
		<geoidheight>205</geoidheight>
	</trkpt>
	<trkpt lat="50.703065" lon="6.184287">
		<ele>251</ele>
		<time>2011-09-11T09:59:28.893Z</time>
		<geoidheight>205</geoidheight>
	</trkpt>
	<trkpt lat="50.703059" lon="6.184268">
		<ele>251</ele>
		<time>2011-09-11T09:59:29.893Z</time>
		<geoidheight>205</geoidheight>
	</trkpt>
	<trkpt lat="50.703052" lon="6.184250">
		<ele>251</ele>
		<time>2011-09-11T09:59:30.900Z</time>
		<geoidheight>205</geoidheight>
	</trkpt>
	<trkpt lat="50.703044" lon="6.184235">
		<ele>251</ele>
		<time>2011-09-11T09:59:31.894Z</time>
		<geoidheight>205</geoidheight>
	</trkpt>
	<trkpt lat="50.703038" lon="6.184216">
		<ele>251</ele>
		<time>2011-09-11T09:59:32.893Z</time>
		<geoidheight>205</geoidheight>
	</trkpt>
	<trkpt lat="50.703033" lon="6.184199">
		<ele>251</ele>
		<time>2011-09-11T09:59:33.892Z</time>
		<geoidheight>205</geoidheight>
	</trkpt>
	<trkpt lat="50.703027" lon="6.184183">
		<ele>251</ele>
		<time>2011-09-11T09:59:34.894Z</time>
		<geoidheight>205</geoidheight>
	</trkpt>
	<trkpt lat="50.703021" lon="6.184168">
		<ele>251</ele>
		<time>2011-09-11T09:59:35.893Z</time>
		<geoidheight>205</geoidheight>
	</trkpt>
	<trkpt lat="50.703015" lon="6.184157">
		<ele>251</ele>
		<time>2011-09-11T09:59:36.892Z</time>
		<geoidheight>205</geoidheight>
	</trkpt>
	<trkpt lat="50.703006" lon="6.184152">
		<ele>251</ele>
		<time>2011-09-11T09:59:37.895Z</time>
		<geoidheight>205</geoidheight>
	</trkpt>
	<trkpt lat="50.703003" lon="6.184141">
		<ele>251</ele>
		<time>2011-09-11T09:59:38.892Z</time>
		<geoidheight>205</geoidheight>
	</trkpt>
	<trkpt lat="50.703000" lon="6.184133">
		<ele>251</ele>
		<time>2011-09-11T09:59:39.892Z</time>
		<geoidheight>205</geoidheight>
	</trkpt>
	<trkpt lat="50.702997" lon="6.184127">
		<ele>251</ele>
		<time>2011-09-11T09:59:40.893Z</time>
		<geoidheight>205</geoidheight>
	</trkpt>
	<trkpt lat="50.702990" lon="6.184124">
		<ele>251</ele>
		<time>2011-09-11T09:59:41.892Z</time>
		<geoidheight>205</geoidheight>
	</trkpt>
	<trkpt lat="50.702984" lon="6.184118">
		<ele>251</ele>
		<time>2011-09-11T09:59:42.894Z</time>
		<geoidheight>205</geoidheight>
	</trkpt>
	<trkpt lat="50.702977" lon="6.184111">
		<ele>252</ele>
		<time>2011-09-11T09:59:43.896Z</time>
		<geoidheight>206</geoidheight>
	</trkpt>
	<trkpt lat="50.702971" lon="6.184102">
		<ele>252</ele>
		<time>2011-09-11T09:59:44.894Z</time>
		<geoidheight>206</geoidheight>
	</trkpt>
	<trkpt lat="50.702964" lon="6.184092">
		<ele>252</ele>
		<time>2011-09-11T09:59:45.893Z</time>
		<geoidheight>206</geoidheight>
	</trkpt>
	<trkpt lat="50.702957" lon="6.184082">
		<ele>252</ele>
		<time>2011-09-11T09:59:46.902Z</time>
		<geoidheight>206</geoidheight>
	</trkpt>
	<trkpt lat="50.702950" lon="6.184073">
		<ele>252</ele>
		<time>2011-09-11T09:59:47.894Z</time>
		<geoidheight>206</geoidheight>
	</trkpt>
	<trkpt lat="50.702938" lon="6.184066">
		<ele>252</ele>
		<time>2011-09-11T09:59:48.894Z</time>
		<geoidheight>206</geoidheight>
	</trkpt>
	<trkpt lat="50.702916" lon="6.184070">
		<ele>252</ele>
		<time>2011-09-11T09:59:49.901Z</time>
		<geoidheight>206</geoidheight>
	</trkpt>
	<trkpt lat="50.702904" lon="6.184075">
		<ele>252</ele>
		<time>2011-09-11T09:59:50.900Z</time>
		<geoidheight>206</geoidheight>
	</trkpt>
	<trkpt lat="50.702893" lon="6.184076">
		<ele>252</ele>
		<time>2011-09-11T09:59:51.913Z</time>
		<geoidheight>206</geoidheight>
	</trkpt>
	<trkpt lat="50.702890" lon="6.184054">
		<ele>252</ele>
		<time>2011-09-11T09:59:52.904Z</time>
		<geoidheight>206</geoidheight>
	</trkpt>
	<trkpt lat="50.702888" lon="6.184034">
		<ele>252</ele>
		<time>2011-09-11T09:59:53.900Z</time>
		<geoidheight>206</geoidheight>
	</trkpt>
	<trkpt lat="50.702881" lon="6.184020">
		<ele>252</ele>
		<time>2011-09-11T09:59:54.893Z</time>
		<geoidheight>206</geoidheight>
	</trkpt>
	<trkpt lat="50.702873" lon="6.184009">
		<ele>252</ele>
		<time>2011-09-11T09:59:55.903Z</time>
		<geoidheight>206</geoidheight>
	</trkpt>
	<trkpt lat="50.702865" lon="6.183998">
		<ele>252</ele>
		<time>2011-09-11T09:59:56.901Z</time>
		<geoidheight>206</geoidheight>
	</trkpt>
	<trkpt lat="50.702859" lon="6.183986">
		<ele>252</ele>
		<time>2011-09-11T09:59:57.894Z</time>
		<geoidheight>206</geoidheight>
	</trkpt>
	<trkpt lat="50.702854" lon="6.183972">
		<ele>252</ele>
		<time>2011-09-11T09:59:58.894Z</time>
		<geoidheight>206</geoidheight>
	</trkpt>
	<trkpt lat="50.702852" lon="6.183961">
		<ele>252</ele>
		<time>2011-09-11T09:59:59.893Z</time>
		<geoidheight>206</geoidheight>
	</trkpt>
	<trkpt lat="50.702847" lon="6.183950">
		<ele>252</ele>
		<time>2011-09-11T10:00:00.903Z</time>
		<geoidheight>206</geoidheight>
	</trkpt>
	<trkpt lat="50.702842" lon="6.183943">
		<ele>252</ele>
		<time>2011-09-11T10:00:01.904Z</time>
		<geoidheight>206</geoidheight>
	</trkpt>
	<trkpt lat="50.702837" lon="6.183935">
		<ele>252</ele>
		<time>2011-09-11T10:00:02.897Z</time>
		<geoidheight>206</geoidheight>
	</trkpt>
	<trkpt lat="50.702837" lon="6.183925">
		<ele>252</ele>
		<time>2011-09-11T10:00:04.893Z</time>
		<geoidheight>206</geoidheight>
	</trkpt>
	<trkpt lat="50.702835" lon="6.183919">
		<ele>252</ele>
		<time>2011-09-11T10:00:05.904Z</time>
		<geoidheight>206</geoidheight>
	</trkpt>
	<trkpt lat="50.702832" lon="6.183912">
		<ele>252</ele>
		<time>2011-09-11T10:00:07.894Z</time>
		<geoidheight>206</geoidheight>
	</trkpt>
	<trkpt lat="50.702825" lon="6.183918">
		<ele>252</ele>
		<time>2011-09-11T10:00:08.894Z</time>
		<geoidheight>206</geoidheight>
	</trkpt>
	<trkpt lat="50.702822" lon="6.183931">
		<ele>252</ele>
		<time>2011-09-11T10:00:09.894Z</time>
		<geoidheight>206</geoidheight>
	</trkpt>
	<trkpt lat="50.702819" lon="6.183945">
		<ele>252</ele>
		<time>2011-09-11T10:00:10.913Z</time>
		<geoidheight>206</geoidheight>
	</trkpt>
	<trkpt lat="50.702816" lon="6.183958">
		<ele>252</ele>
		<time>2011-09-11T10:00:11.893Z</time>
		<geoidheight>206</geoidheight>
	</trkpt>
	<trkpt lat="50.702814" lon="6.183975">
		<ele>252</ele>
		<time>2011-09-11T10:00:12.894Z</time>
		<geoidheight>206</geoidheight>
	</trkpt>
	<trkpt lat="50.702813" lon="6.183994">
		<ele>252</ele>
		<time>2011-09-11T10:00:13.895Z</time>
		<geoidheight>206</geoidheight>
	</trkpt>
	<trkpt lat="50.702812" lon="6.184014">
		<ele>252</ele>
		<time>2011-09-11T10:00:14.895Z</time>
		<geoidheight>206</geoidheight>
	</trkpt>
	<trkpt lat="50.702813" lon="6.184034">
		<ele>252</ele>
		<time>2011-09-11T10:00:15.893Z</time>
		<geoidheight>206</geoidheight>
	</trkpt>
	<trkpt lat="50.702814" lon="6.184049">
		<ele>252</ele>
		<time>2011-09-11T10:00:16.893Z</time>
		<geoidheight>206</geoidheight>
	</trkpt>
	<trkpt lat="50.702816" lon="6.184064">
		<ele>252</ele>
		<time>2011-09-11T10:00:17.894Z</time>
		<geoidheight>206</geoidheight>
	</trkpt>
	<trkpt lat="50.702816" lon="6.184077">
		<ele>252</ele>
		<time>2011-09-11T10:00:18.892Z</time>
		<geoidheight>206</geoidheight>
	</trkpt>
	<trkpt lat="50.702815" lon="6.184089">
		<ele>252</ele>
		<time>2011-09-11T10:00:19.895Z</time>
		<geoidheight>206</geoidheight>
	</trkpt>
	<trkpt lat="50.702813" lon="6.184101">
		<ele>252</ele>
		<time>2011-09-11T10:00:21.892Z</time>
		<geoidheight>206</geoidheight>
	</trkpt>
	<trkpt lat="50.702813" lon="6.184101">
		<ele>252</ele>
		<time>2011-09-11T10:00:22.894Z</time>
		<geoidheight>206</geoidheight>
	</trkpt>
	<trkpt lat="50.702813" lon="6.184101">
		<ele>252</ele>
		<time>2011-09-11T10:00:35.894Z</time>
		<geoidheight>206</geoidheight>
	</trkpt>
	<trkpt lat="50.702802" lon="6.184087">
		<ele>252</ele>
		<time>2011-09-11T10:00:36.893Z</time>
		<geoidheight>206</geoidheight>
	</trkpt>
	<trkpt lat="50.702794" lon="6.184095">
		<ele>253</ele>
		<time>2011-09-11T10:00:37.893Z</time>
		<geoidheight>207</geoidheight>
	</trkpt>
	<trkpt lat="50.702787" lon="6.184101">
		<ele>253</ele>
		<time>2011-09-11T10:00:38.895Z</time>
		<geoidheight>207</geoidheight>
	</trkpt>
	<trkpt lat="50.702781" lon="6.184107">
		<ele>253</ele>
		<time>2011-09-11T10:00:39.893Z</time>
		<geoidheight>207</geoidheight>
	</trkpt>
	<trkpt lat="50.702775" lon="6.184113">
		<ele>253</ele>
		<time>2011-09-11T10:00:40.894Z</time>
		<geoidheight>207</geoidheight>
	</trkpt>
	<trkpt lat="50.702770" lon="6.184114">
		<ele>253</ele>
		<time>2011-09-11T10:00:41.897Z</time>
		<geoidheight>207</geoidheight>
	</trkpt>
	<trkpt lat="50.702768" lon="6.184127">
		<ele>253</ele>
		<time>2011-09-11T10:00:42.895Z</time>
		<geoidheight>207</geoidheight>
	</trkpt>
	<trkpt lat="50.702763" lon="6.184134">
		<ele>253</ele>
		<time>2011-09-11T10:00:43.894Z</time>
		<geoidheight>207</geoidheight>
	</trkpt>
	<trkpt lat="50.702758" lon="6.184143">
		<ele>253</ele>
		<time>2011-09-11T10:00:44.896Z</time>
		<geoidheight>207</geoidheight>
	</trkpt>
	<trkpt lat="50.702749" lon="6.184155">
		<ele>253</ele>
		<time>2011-09-11T10:00:45.896Z</time>
		<geoidheight>207</geoidheight>
	</trkpt>
	<trkpt lat="50.702742" lon="6.184165">
		<ele>253</ele>
		<time>2011-09-11T10:00:46.893Z</time>
		<geoidheight>207</geoidheight>
	</trkpt>
	<trkpt lat="50.702736" lon="6.184174">
		<ele>253</ele>
		<time>2011-09-11T10:00:47.896Z</time>
		<geoidheight>207</geoidheight>
	</trkpt>
	<trkpt lat="50.702732" lon="6.184182">
		<ele>253</ele>
		<time>2011-09-11T10:00:48.895Z</time>
		<geoidheight>207</geoidheight>
	</trkpt>
	<trkpt lat="50.702734" lon="6.184191">
		<ele>253</ele>
		<time>2011-09-11T10:00:49.895Z</time>
		<geoidheight>207</geoidheight>
	</trkpt>
	<trkpt lat="50.702745" lon="6.184197">
		<ele>253</ele>
		<time>2011-09-11T10:00:50.893Z</time>
		<geoidheight>207</geoidheight>
	</trkpt>
	<trkpt lat="50.702753" lon="6.184203">
		<ele>253</ele>
		<time>2011-09-11T10:00:51.894Z</time>
		<geoidheight>207</geoidheight>
	</trkpt>
	<trkpt lat="50.702759" lon="6.184209">
		<ele>253</ele>
		<time>2011-09-11T10:00:52.894Z</time>
		<geoidheight>207</geoidheight>
	</trkpt>
	<trkpt lat="50.702763" lon="6.184217">
		<ele>253</ele>
		<time>2011-09-11T10:00:53.895Z</time>
		<geoidheight>207</geoidheight>
	</trkpt>
	<trkpt lat="50.702759" lon="6.184228">
		<ele>253</ele>
		<time>2011-09-11T10:00:54.895Z</time>
		<geoidheight>207</geoidheight>
	</trkpt>
	<trkpt lat="50.702758" lon="6.184235">
		<ele>253</ele>
		<time>2011-09-11T10:00:55.894Z</time>
		<geoidheight>207</geoidheight>
	</trkpt>
	<trkpt lat="50.702759" lon="6.184249">
		<ele>253</ele>
		<time>2011-09-11T10:00:59.895Z</time>
		<geoidheight>207</geoidheight>
	</trkpt>
	<trkpt lat="50.702753" lon="6.184257">
		<ele>253</ele>
		<time>2011-09-11T10:01:00.893Z</time>
		<geoidheight>207</geoidheight>
	</trkpt>
	<trkpt lat="50.702754" lon="6.184264">
		<ele>254</ele>
		<time>2011-09-11T10:01:15.893Z</time>
		<geoidheight>208</geoidheight>
	</trkpt>
	<trkpt lat="50.702787" lon="6.184218">
		<ele>254</ele>
		<time>2011-09-11T10:01:16.899Z</time>
		<geoidheight>208</geoidheight>
	</trkpt>
	<trkpt lat="50.702787" lon="6.184218">
		<ele>254</ele>
		<time>2011-09-11T10:01:17.895Z</time>
		<geoidheight>208</geoidheight>
	</trkpt>
	<trkpt lat="50.702796" lon="6.184199">
		<ele>254</ele>
		<time>2011-09-11T10:01:18.894Z</time>
		<geoidheight>208</geoidheight>
	</trkpt>
	<trkpt lat="50.702799" lon="6.184191">
		<ele>254</ele>
		<time>2011-09-11T10:01:19.895Z</time>
		<geoidheight>208</geoidheight>
	</trkpt>
	<trkpt lat="50.702800" lon="6.184183">
		<ele>254</ele>
		<time>2011-09-11T10:01:20.895Z</time>
		<geoidheight>208</geoidheight>
	</trkpt>
	<trkpt lat="50.702802" lon="6.184175">
		<ele>255</ele>
		<time>2011-09-11T10:01:21.895Z</time>
		<geoidheight>209</geoidheight>
	</trkpt>
	<trkpt lat="50.702806" lon="6.184167">
		<ele>255</ele>
		<time>2011-09-11T10:01:22.893Z</time>
		<geoidheight>209</geoidheight>
	</trkpt>
	<trkpt lat="50.702810" lon="6.184159">
		<ele>255</ele>
		<time>2011-09-11T10:01:23.903Z</time>
		<geoidheight>209</geoidheight>
	</trkpt>
	<trkpt lat="50.702814" lon="6.184154">
		<ele>255</ele>
		<time>2011-09-11T10:01:24.897Z</time>
		<geoidheight>209</geoidheight>
	</trkpt>
	<trkpt lat="50.702819" lon="6.184148">
		<ele>255</ele>
		<time>2011-09-11T10:01:25.894Z</time>
		<geoidheight>209</geoidheight>
	</trkpt>
	<trkpt lat="50.702821" lon="6.184140">
		<ele>255</ele>
		<time>2011-09-11T10:01:26.893Z</time>
		<geoidheight>209</geoidheight>
	</trkpt>
	<trkpt lat="50.702824" lon="6.184132">
		<ele>255</ele>
		<time>2011-09-11T10:01:43.895Z</time>
		<geoidheight>209</geoidheight>
	</trkpt>
	<trkpt lat="50.702787" lon="6.184106">
		<ele>255</ele>
		<time>2011-09-11T10:01:44.893Z</time>
		<geoidheight>209</geoidheight>
	</trkpt>
	<trkpt lat="50.702786" lon="6.184093">
		<ele>255</ele>
		<time>2011-09-11T10:01:45.895Z</time>
		<geoidheight>209</geoidheight>
	</trkpt>
	<trkpt lat="50.702785" lon="6.184079">
		<ele>255</ele>
		<time>2011-09-11T10:01:46.896Z</time>
		<geoidheight>209</geoidheight>
	</trkpt>
	<trkpt lat="50.702783" lon="6.184064">
		<ele>255</ele>
		<time>2011-09-11T10:01:47.892Z</time>
		<geoidheight>209</geoidheight>
	</trkpt>
	<trkpt lat="50.702781" lon="6.184047">
		<ele>255</ele>
		<time>2011-09-11T10:01:48.893Z</time>
		<geoidheight>209</geoidheight>
	</trkpt>
	<trkpt lat="50.702778" lon="6.184029">
		<ele>255</ele>
		<time>2011-09-11T10:01:49.897Z</time>
		<geoidheight>209</geoidheight>
	</trkpt>
	<trkpt lat="50.702778" lon="6.184010">
		<ele>255</ele>
		<time>2011-09-11T10:01:50.893Z</time>
		<geoidheight>209</geoidheight>
	</trkpt>
	<trkpt lat="50.702779" lon="6.183991">
		<ele>255</ele>
		<time>2011-09-11T10:01:51.895Z</time>
		<geoidheight>209</geoidheight>
	</trkpt>
	<trkpt lat="50.702780" lon="6.183972">
		<ele>255</ele>
		<time>2011-09-11T10:01:52.895Z</time>
		<geoidheight>209</geoidheight>
	</trkpt>
	<trkpt lat="50.702781" lon="6.183951">
		<ele>255</ele>
		<time>2011-09-11T10:01:53.893Z</time>
		<geoidheight>209</geoidheight>
	</trkpt>
	<trkpt lat="50.702786" lon="6.183924">
		<ele>255</ele>
		<time>2011-09-11T10:01:54.902Z</time>
		<geoidheight>209</geoidheight>
	</trkpt>
	<trkpt lat="50.702787" lon="6.183892">
		<ele>255</ele>
		<time>2011-09-11T10:01:55.895Z</time>
		<geoidheight>209</geoidheight>
	</trkpt>
	<trkpt lat="50.702786" lon="6.183867">
		<ele>255</ele>
		<time>2011-09-11T10:01:56.898Z</time>
		<geoidheight>209</geoidheight>
	</trkpt>
	<trkpt lat="50.702781" lon="6.183848">
		<ele>255</ele>
		<time>2011-09-11T10:01:57.894Z</time>
		<geoidheight>209</geoidheight>
	</trkpt>
	<trkpt lat="50.702773" lon="6.183828">
		<ele>255</ele>
		<time>2011-09-11T10:01:58.894Z</time>
		<geoidheight>209</geoidheight>
	</trkpt>
	<trkpt lat="50.702767" lon="6.183809">
		<ele>255</ele>
		<time>2011-09-11T10:01:59.912Z</time>
		<geoidheight>209</geoidheight>
	</trkpt>
	<trkpt lat="50.702760" lon="6.183790">
		<ele>255</ele>
		<time>2011-09-11T10:02:00.900Z</time>
		<geoidheight>209</geoidheight>
	</trkpt>
	<trkpt lat="50.702754" lon="6.183771">
		<ele>255</ele>
		<time>2011-09-11T10:02:01.894Z</time>
		<geoidheight>209</geoidheight>
	</trkpt>
	<trkpt lat="50.702748" lon="6.183752">
		<ele>255</ele>
		<time>2011-09-11T10:02:02.895Z</time>
		<geoidheight>209</geoidheight>
	</trkpt>
	<trkpt lat="50.702752" lon="6.183735">
		<ele>255</ele>
		<time>2011-09-11T10:02:03.893Z</time>
		<geoidheight>209</geoidheight>
	</trkpt>
	<trkpt lat="50.702754" lon="6.183718">
		<ele>255</ele>
		<time>2011-09-11T10:02:04.908Z</time>
		<geoidheight>209</geoidheight>
	</trkpt>
	<trkpt lat="50.702751" lon="6.183705">
		<ele>255</ele>
		<time>2011-09-11T10:02:05.910Z</time>
		<geoidheight>209</geoidheight>
	</trkpt>
	<trkpt lat="50.702747" lon="6.183690">
		<ele>255</ele>
		<time>2011-09-11T10:02:06.893Z</time>
		<geoidheight>209</geoidheight>
	</trkpt>
	<trkpt lat="50.702750" lon="6.183675">
		<ele>254</ele>
		<time>2011-09-11T10:02:07.894Z</time>
		<geoidheight>208</geoidheight>
	</trkpt>
	<trkpt lat="50.702757" lon="6.183663">
		<ele>254</ele>
		<time>2011-09-11T10:02:08.893Z</time>
		<geoidheight>208</geoidheight>
	</trkpt>
	<trkpt lat="50.702761" lon="6.183649">
		<ele>254</ele>
		<time>2011-09-11T10:02:09.894Z</time>
		<geoidheight>208</geoidheight>
	</trkpt>
	<trkpt lat="50.702768" lon="6.183639">
		<ele>254</ele>
		<time>2011-09-11T10:02:10.907Z</time>
		<geoidheight>208</geoidheight>
	</trkpt>
	<trkpt lat="50.702776" lon="6.183630">
		<ele>254</ele>
		<time>2011-09-11T10:02:11.905Z</time>
		<geoidheight>208</geoidheight>
	</trkpt>
	<trkpt lat="50.702767" lon="6.183620">
		<ele>254</ele>
		<time>2011-09-11T10:02:12.904Z</time>
		<geoidheight>208</geoidheight>
	</trkpt>
	<trkpt lat="50.702760" lon="6.183607">
		<ele>254</ele>
		<time>2011-09-11T10:02:13.896Z</time>
		<geoidheight>208</geoidheight>
	</trkpt>
	<trkpt lat="50.702760" lon="6.183589">
		<ele>254</ele>
		<time>2011-09-11T10:02:14.908Z</time>
		<geoidheight>208</geoidheight>
	</trkpt>
	<trkpt lat="50.702759" lon="6.183570">
		<ele>254</ele>
		<time>2011-09-11T10:02:15.916Z</time>
		<geoidheight>208</geoidheight>
	</trkpt>
	<trkpt lat="50.702761" lon="6.183550">
		<ele>254</ele>
		<time>2011-09-11T10:02:16.918Z</time>
		<geoidheight>208</geoidheight>
	</trkpt>
	<trkpt lat="50.702763" lon="6.183531">
		<ele>254</ele>
		<time>2011-09-11T10:02:17.911Z</time>
		<geoidheight>208</geoidheight>
	</trkpt>
	<trkpt lat="50.702765" lon="6.183513">
		<ele>254</ele>
		<time>2011-09-11T10:02:18.913Z</time>
		<geoidheight>208</geoidheight>
	</trkpt>
	<trkpt lat="50.702766" lon="6.183494">
		<ele>254</ele>
		<time>2011-09-11T10:02:19.929Z</time>
		<geoidheight>208</geoidheight>
	</trkpt>
	<trkpt lat="50.702761" lon="6.183481">
		<ele>254</ele>
		<time>2011-09-11T10:02:20.904Z</time>
		<geoidheight>208</geoidheight>
	</trkpt>
	<trkpt lat="50.702754" lon="6.183467">
		<ele>254</ele>
		<time>2011-09-11T10:02:21.896Z</time>
		<geoidheight>208</geoidheight>
	</trkpt>
	<trkpt lat="50.702750" lon="6.183453">
		<ele>254</ele>
		<time>2011-09-11T10:02:22.895Z</time>
		<geoidheight>208</geoidheight>
	</trkpt>
	<trkpt lat="50.702754" lon="6.183434">
		<ele>254</ele>
		<time>2011-09-11T10:02:23.894Z</time>
		<geoidheight>208</geoidheight>
	</trkpt>
	<trkpt lat="50.702764" lon="6.183418">
		<ele>254</ele>
		<time>2011-09-11T10:02:24.896Z</time>
		<geoidheight>208</geoidheight>
	</trkpt>
	<trkpt lat="50.702774" lon="6.183401">
		<ele>254</ele>
		<time>2011-09-11T10:02:25.898Z</time>
		<geoidheight>208</geoidheight>
	</trkpt>
	<trkpt lat="50.702779" lon="6.183386">
		<ele>254</ele>
		<time>2011-09-11T10:02:26.896Z</time>
		<geoidheight>208</geoidheight>
	</trkpt>
	<trkpt lat="50.702776" lon="6.183372">
		<ele>254</ele>
		<time>2011-09-11T10:02:27.893Z</time>
		<geoidheight>208</geoidheight>
	</trkpt>
	<trkpt lat="50.702774" lon="6.183357">
		<ele>254</ele>
		<time>2011-09-11T10:02:28.898Z</time>
		<geoidheight>208</geoidheight>
	</trkpt>
	<trkpt lat="50.702779" lon="6.183341">
		<ele>254</ele>
		<time>2011-09-11T10:02:29.896Z</time>
		<geoidheight>208</geoidheight>
	</trkpt>
	<trkpt lat="50.702786" lon="6.183325">
		<ele>254</ele>
		<time>2011-09-11T10:02:30.895Z</time>
		<geoidheight>208</geoidheight>
	</trkpt>
	<trkpt lat="50.702793" lon="6.183309">
		<ele>254</ele>
		<time>2011-09-11T10:02:31.900Z</time>
		<geoidheight>208</geoidheight>
	</trkpt>
	<trkpt lat="50.702810" lon="6.183291">
		<ele>254</ele>
		<time>2011-09-11T10:02:32.894Z</time>
		<geoidheight>208</geoidheight>
	</trkpt>
	<trkpt lat="50.702826" lon="6.183275">
		<ele>254</ele>
		<time>2011-09-11T10:02:33.901Z</time>
		<geoidheight>208</geoidheight>
	</trkpt>
	<trkpt lat="50.702834" lon="6.183258">
		<ele>254</ele>
		<time>2011-09-11T10:02:34.901Z</time>
		<geoidheight>208</geoidheight>
	</trkpt>
	<trkpt lat="50.702844" lon="6.183244">
		<ele>254</ele>
		<time>2011-09-11T10:02:35.898Z</time>
		<geoidheight>208</geoidheight>
	</trkpt>
	<trkpt lat="50.702855" lon="6.183232">
		<ele>254</ele>
		<time>2011-09-11T10:02:36.925Z</time>
		<geoidheight>208</geoidheight>
	</trkpt>
	<trkpt lat="50.702864" lon="6.183218">
		<ele>254</ele>
		<time>2011-09-11T10:02:37.903Z</time>
		<geoidheight>208</geoidheight>
	</trkpt>
	<trkpt lat="50.702879" lon="6.183203">
		<ele>254</ele>
		<time>2011-09-11T10:02:38.902Z</time>
		<geoidheight>208</geoidheight>
	</trkpt>
	<trkpt lat="50.702892" lon="6.183191">
		<ele>254</ele>
		<time>2011-09-11T10:02:39.899Z</time>
		<geoidheight>208</geoidheight>
	</trkpt>
	<trkpt lat="50.702906" lon="6.183180">
		<ele>254</ele>
		<time>2011-09-11T10:02:40.902Z</time>
		<geoidheight>208</geoidheight>
	</trkpt>
	<trkpt lat="50.702919" lon="6.183173">
		<ele>254</ele>
		<time>2011-09-11T10:02:41.903Z</time>
		<geoidheight>208</geoidheight>
	</trkpt>
	<trkpt lat="50.702933" lon="6.183169">
		<ele>254</ele>
		<time>2011-09-11T10:02:42.906Z</time>
		<geoidheight>208</geoidheight>
	</trkpt>
	<trkpt lat="50.702946" lon="6.183164">
		<ele>254</ele>
		<time>2011-09-11T10:02:43.910Z</time>
		<geoidheight>208</geoidheight>
	</trkpt>
	<trkpt lat="50.702957" lon="6.183156">
		<ele>254</ele>
		<time>2011-09-11T10:02:44.900Z</time>
		<geoidheight>208</geoidheight>
	</trkpt>
	<trkpt lat="50.702967" lon="6.183143">
		<ele>255</ele>
		<time>2011-09-11T10:02:45.898Z</time>
		<geoidheight>209</geoidheight>
	</trkpt>
	<trkpt lat="50.702977" lon="6.183130">
		<ele>255</ele>
		<time>2011-09-11T10:02:46.903Z</time>
		<geoidheight>209</geoidheight>
	</trkpt>
	<trkpt lat="50.702987" lon="6.183117">
		<ele>255</ele>
		<time>2011-09-11T10:02:47.897Z</time>
		<geoidheight>209</geoidheight>
	</trkpt>
	<trkpt lat="50.703000" lon="6.183105">
		<ele>255</ele>
		<time>2011-09-11T10:02:48.896Z</time>
		<geoidheight>209</geoidheight>
	</trkpt>
	<trkpt lat="50.703009" lon="6.183091">
		<ele>255</ele>
		<time>2011-09-11T10:02:49.904Z</time>
		<geoidheight>209</geoidheight>
	</trkpt>
	<trkpt lat="50.703019" lon="6.183077">
		<ele>255</ele>
		<time>2011-09-11T10:02:50.897Z</time>
		<geoidheight>209</geoidheight>
	</trkpt>
	<trkpt lat="50.703029" lon="6.183067">
		<ele>255</ele>
		<time>2011-09-11T10:02:51.899Z</time>
		<geoidheight>209</geoidheight>
	</trkpt>
	<trkpt lat="50.703043" lon="6.183054">
		<ele>255</ele>
		<time>2011-09-11T10:02:52.894Z</time>
		<geoidheight>209</geoidheight>
	</trkpt>
	<trkpt lat="50.703058" lon="6.183036">
		<ele>255</ele>
		<time>2011-09-11T10:02:53.894Z</time>
		<geoidheight>209</geoidheight>
	</trkpt>
	<trkpt lat="50.703076" lon="6.183031">
		<ele>255</ele>
		<time>2011-09-11T10:02:54.895Z</time>
		<geoidheight>209</geoidheight>
	</trkpt>
	<trkpt lat="50.703094" lon="6.183034">
		<ele>255</ele>
		<time>2011-09-11T10:02:55.894Z</time>
		<geoidheight>209</geoidheight>
	</trkpt>
	<trkpt lat="50.703109" lon="6.183032">
		<ele>255</ele>
		<time>2011-09-11T10:02:56.894Z</time>
		<geoidheight>209</geoidheight>
	</trkpt>
	<trkpt lat="50.703124" lon="6.183027">
		<ele>255</ele>
		<time>2011-09-11T10:02:57.895Z</time>
		<geoidheight>209</geoidheight>
	</trkpt>
	<trkpt lat="50.703138" lon="6.183020">
		<ele>255</ele>
		<time>2011-09-11T10:02:58.899Z</time>
		<geoidheight>209</geoidheight>
	</trkpt>
	<trkpt lat="50.703151" lon="6.183011">
		<ele>255</ele>
		<time>2011-09-11T10:02:59.894Z</time>
		<geoidheight>209</geoidheight>
	</trkpt>
	<trkpt lat="50.703163" lon="6.182996">
		<ele>255</ele>
		<time>2011-09-11T10:03:00.900Z</time>
		<geoidheight>209</geoidheight>
	</trkpt>
	<trkpt lat="50.703177" lon="6.182986">
		<ele>255</ele>
		<time>2011-09-11T10:03:01.893Z</time>
		<geoidheight>209</geoidheight>
	</trkpt>
	<trkpt lat="50.703188" lon="6.182971">
		<ele>255</ele>
		<time>2011-09-11T10:03:02.894Z</time>
		<geoidheight>209</geoidheight>
	</trkpt>
	<trkpt lat="50.703199" lon="6.182958">
		<ele>255</ele>
		<time>2011-09-11T10:03:03.896Z</time>
		<geoidheight>209</geoidheight>
	</trkpt>
	<trkpt lat="50.703209" lon="6.182945">
		<ele>255</ele>
		<time>2011-09-11T10:03:04.895Z</time>
		<geoidheight>209</geoidheight>
	</trkpt>
	<trkpt lat="50.703219" lon="6.182935">
		<ele>255</ele>
		<time>2011-09-11T10:03:05.896Z</time>
		<geoidheight>209</geoidheight>
	</trkpt>
	<trkpt lat="50.703229" lon="6.182924">
		<ele>255</ele>
		<time>2011-09-11T10:03:06.898Z</time>
		<geoidheight>209</geoidheight>
	</trkpt>
	<trkpt lat="50.703240" lon="6.182910">
		<ele>256</ele>
		<time>2011-09-11T10:03:07.894Z</time>
		<geoidheight>210</geoidheight>
	</trkpt>
	<trkpt lat="50.703251" lon="6.182896">
		<ele>256</ele>
		<time>2011-09-11T10:03:08.896Z</time>
		<geoidheight>210</geoidheight>
	</trkpt>
	<trkpt lat="50.703260" lon="6.182883">
		<ele>256</ele>
		<time>2011-09-11T10:03:09.894Z</time>
		<geoidheight>210</geoidheight>
	</trkpt>
	<trkpt lat="50.703275" lon="6.182874">
		<ele>256</ele>
		<time>2011-09-11T10:03:10.896Z</time>
		<geoidheight>210</geoidheight>
	</trkpt>
	<trkpt lat="50.703286" lon="6.182864">
		<ele>256</ele>
		<time>2011-09-11T10:03:11.895Z</time>
		<geoidheight>210</geoidheight>
	</trkpt>
	<trkpt lat="50.703295" lon="6.182852">
		<ele>256</ele>
		<time>2011-09-11T10:03:12.895Z</time>
		<geoidheight>210</geoidheight>
	</trkpt>
	<trkpt lat="50.703303" lon="6.182839">
		<ele>256</ele>
		<time>2011-09-11T10:03:13.896Z</time>
		<geoidheight>210</geoidheight>
	</trkpt>
	<trkpt lat="50.703309" lon="6.182821">
		<ele>256</ele>
		<time>2011-09-11T10:03:14.895Z</time>
		<geoidheight>210</geoidheight>
	</trkpt>
	<trkpt lat="50.703322" lon="6.182804">
		<ele>256</ele>
		<time>2011-09-11T10:03:15.894Z</time>
		<geoidheight>210</geoidheight>
	</trkpt>
	<trkpt lat="50.703322" lon="6.182804">
		<ele>256</ele>
		<time>2011-09-11T10:03:16.897Z</time>
		<geoidheight>210</geoidheight>
	</trkpt>
	<trkpt lat="50.703322" lon="6.182804">
		<ele>256</ele>
		<time>2011-09-11T10:03:17.894Z</time>
		<geoidheight>210</geoidheight>
	</trkpt>
	<trkpt lat="50.703357" lon="6.182751">
		<ele>257</ele>
		<time>2011-09-11T10:03:18.895Z</time>
		<geoidheight>211</geoidheight>
	</trkpt>
	<trkpt lat="50.703360" lon="6.182734">
		<ele>257</ele>
		<time>2011-09-11T10:03:19.896Z</time>
		<geoidheight>211</geoidheight>
	</trkpt>
	<trkpt lat="50.703361" lon="6.182720">
		<ele>257</ele>
		<time>2011-09-11T10:03:20.895Z</time>
		<geoidheight>211</geoidheight>
	</trkpt>
	<trkpt lat="50.703362" lon="6.182706">
		<ele>257</ele>
		<time>2011-09-11T10:03:21.899Z</time>
		<geoidheight>211</geoidheight>
	</trkpt>
	<trkpt lat="50.703359" lon="6.182696">
		<ele>257</ele>
		<time>2011-09-11T10:03:22.894Z</time>
		<geoidheight>211</geoidheight>
	</trkpt>
	<trkpt lat="50.703357" lon="6.182688">
		<ele>258</ele>
		<time>2011-09-11T10:03:23.896Z</time>
		<geoidheight>212</geoidheight>
	</trkpt>
	<trkpt lat="50.703352" lon="6.182692">
		<ele>258</ele>
		<time>2011-09-11T10:03:26.897Z</time>
		<geoidheight>212</geoidheight>
	</trkpt>
	<trkpt lat="50.703355" lon="6.182702">
		<ele>258</ele>
		<time>2011-09-11T10:03:27.894Z</time>
		<geoidheight>212</geoidheight>
	</trkpt>
	<trkpt lat="50.703360" lon="6.182708">
		<ele>259</ele>
		<time>2011-09-11T10:03:40.896Z</time>
		<geoidheight>213</geoidheight>
	</trkpt>
	<trkpt lat="50.703366" lon="6.182750">
		<ele>259</ele>
		<time>2011-09-11T10:03:41.896Z</time>
		<geoidheight>213</geoidheight>
	</trkpt>
	<trkpt lat="50.703360" lon="6.182746">
		<ele>259</ele>
		<time>2011-09-11T10:03:42.898Z</time>
		<geoidheight>213</geoidheight>
	</trkpt>
	<trkpt lat="50.703353" lon="6.182743">
		<ele>260</ele>
		<time>2011-09-11T10:03:43.894Z</time>
		<geoidheight>214</geoidheight>
	</trkpt>
	<trkpt lat="50.703346" lon="6.182738">
		<ele>260</ele>
		<time>2011-09-11T10:03:44.896Z</time>
		<geoidheight>214</geoidheight>
	</trkpt>
	<trkpt lat="50.703339" lon="6.182735">
		<ele>260</ele>
		<time>2011-09-11T10:03:45.897Z</time>
		<geoidheight>214</geoidheight>
	</trkpt>
	<trkpt lat="50.703335" lon="6.182729">
		<ele>261</ele>
		<time>2011-09-11T10:04:06.898Z</time>
		<geoidheight>215</geoidheight>
	</trkpt>
	<trkpt lat="50.703289" lon="6.182697">
		<ele>261</ele>
		<time>2011-09-11T10:04:07.894Z</time>
		<geoidheight>215</geoidheight>
	</trkpt>
	<trkpt lat="50.703282" lon="6.182689">
		<ele>262</ele>
		<time>2011-09-11T10:04:09.896Z</time>
		<geoidheight>216</geoidheight>
	</trkpt>
	<trkpt lat="50.703266" lon="6.182679">
		<ele>262</ele>
		<time>2011-09-11T10:04:10.894Z</time>
		<geoidheight>216</geoidheight>
	</trkpt>
	<trkpt lat="50.703258" lon="6.182678">
		<ele>262</ele>
		<time>2011-09-11T10:04:11.898Z</time>
		<geoidheight>216</geoidheight>
	</trkpt>
	<trkpt lat="50.703249" lon="6.182679">
		<ele>262</ele>
		<time>2011-09-11T10:04:12.895Z</time>
		<geoidheight>216</geoidheight>
	</trkpt>
	<trkpt lat="50.703249" lon="6.182679">
		<ele>262</ele>
		<time>2011-09-11T10:04:13.895Z</time>
		<geoidheight>216</geoidheight>
	</trkpt>
	<trkpt lat="50.703238" lon="6.182678">
		<ele>262</ele>
		<time>2011-09-11T10:04:14.901Z</time>
		<geoidheight>216</geoidheight>
	</trkpt>
	<trkpt lat="50.703228" lon="6.182675">
		<ele>262</ele>
		<time>2011-09-11T10:04:15.895Z</time>
		<geoidheight>216</geoidheight>
	</trkpt>
	<trkpt lat="50.703219" lon="6.182670">
		<ele>262</ele>
		<time>2011-09-11T10:04:16.896Z</time>
		<geoidheight>216</geoidheight>
	</trkpt>
	<trkpt lat="50.703209" lon="6.182666">
		<ele>262</ele>
		<time>2011-09-11T10:04:17.897Z</time>
		<geoidheight>216</geoidheight>
	</trkpt>
	<trkpt lat="50.703200" lon="6.182666">
		<ele>262</ele>
		<time>2011-09-11T10:04:18.904Z</time>
		<geoidheight>216</geoidheight>
	</trkpt>
	<trkpt lat="50.703192" lon="6.182665">
		<ele>262</ele>
		<time>2011-09-11T10:04:19.901Z</time>
		<geoidheight>216</geoidheight>
	</trkpt>
	<trkpt lat="50.703184" lon="6.182664">
		<ele>262</ele>
		<time>2011-09-11T10:04:20.899Z</time>
		<geoidheight>216</geoidheight>
	</trkpt>
	<trkpt lat="50.703176" lon="6.182662">
		<ele>262</ele>
		<time>2011-09-11T10:04:21.899Z</time>
		<geoidheight>216</geoidheight>
	</trkpt>
	<trkpt lat="50.703168" lon="6.182659">
		<ele>262</ele>
		<time>2011-09-11T10:04:22.896Z</time>
		<geoidheight>216</geoidheight>
	</trkpt>
	<trkpt lat="50.703157" lon="6.182663">
		<ele>262</ele>
		<time>2011-09-11T10:04:23.894Z</time>
		<geoidheight>216</geoidheight>
	</trkpt>
	<trkpt lat="50.703147" lon="6.182669">
		<ele>262</ele>
		<time>2011-09-11T10:04:24.897Z</time>
		<geoidheight>216</geoidheight>
	</trkpt>
	<trkpt lat="50.703136" lon="6.182678">
		<ele>262</ele>
		<time>2011-09-11T10:04:25.893Z</time>
		<geoidheight>216</geoidheight>
	</trkpt>
	<trkpt lat="50.703136" lon="6.182678">
		<ele>262</ele>
		<time>2011-09-11T10:04:31.897Z</time>
		<geoidheight>216</geoidheight>
	</trkpt>
	<trkpt lat="50.703094" lon="6.182711">
		<ele>262</ele>
		<time>2011-09-11T10:04:32.897Z</time>
		<geoidheight>216</geoidheight>
	</trkpt>
	<trkpt lat="50.703094" lon="6.182711">
		<ele>262</ele>
		<time>2011-09-11T10:04:39.917Z</time>
		<geoidheight>216</geoidheight>
	</trkpt>
	<trkpt lat="50.703049" lon="6.182696">
		<ele>262</ele>
		<time>2011-09-11T10:04:40.896Z</time>
		<geoidheight>216</geoidheight>
	</trkpt>
	<trkpt lat="50.703049" lon="6.182696">
		<ele>262</ele>
		<time>2011-09-11T10:04:49.893Z</time>
		<geoidheight>216</geoidheight>
	</trkpt>
	<trkpt lat="50.703007" lon="6.182687">
		<ele>262</ele>
		<time>2011-09-11T10:04:50.896Z</time>
		<geoidheight>216</geoidheight>
	</trkpt>
	<trkpt lat="50.702998" lon="6.182690">
		<ele>262</ele>
		<time>2011-09-11T10:04:52.895Z</time>
		<geoidheight>216</geoidheight>
	</trkpt>
	<trkpt lat="50.702993" lon="6.182691">
		<ele>262</ele>
		<time>2011-09-11T10:04:53.899Z</time>
		<geoidheight>216</geoidheight>
	</trkpt>
	<trkpt lat="50.702985" lon="6.182692">
		<ele>262</ele>
		<time>2011-09-11T10:04:55.892Z</time>
		<geoidheight>216</geoidheight>
	</trkpt>
	<trkpt lat="50.702980" lon="6.182691">
		<ele>262</ele>
		<time>2011-09-11T10:04:56.902Z</time>
		<geoidheight>216</geoidheight>
	</trkpt>
	<trkpt lat="50.702973" lon="6.182690">
		<ele>261</ele>
		<time>2011-09-11T10:04:58.894Z</time>
		<geoidheight>215</geoidheight>
	</trkpt>
	<trkpt lat="50.702969" lon="6.182691">
		<ele>261</ele>
		<time>2011-09-11T10:04:59.893Z</time>
		<geoidheight>215</geoidheight>
	</trkpt>
	<trkpt lat="50.702962" lon="6.182691">
		<ele>261</ele>
		<time>2011-09-11T10:05:01.894Z</time>
		<geoidheight>215</geoidheight>
	</trkpt>
	<trkpt lat="50.702959" lon="6.182691">
		<ele>261</ele>
		<time>2011-09-11T10:05:02.894Z</time>
		<geoidheight>215</geoidheight>
	</trkpt>
	<trkpt lat="50.702952" lon="6.182684">
		<ele>261</ele>
		<time>2011-09-11T10:05:13.896Z</time>
		<geoidheight>215</geoidheight>
	</trkpt>
	<trkpt lat="50.702951" lon="6.182683">
		<ele>261</ele>
		<time>2011-09-11T10:05:14.893Z</time>
		<geoidheight>215</geoidheight>
	</trkpt>
	<trkpt lat="50.702944" lon="6.182692">
		<ele>261</ele>
		<time>2011-09-11T10:05:18.895Z</time>
		<geoidheight>215</geoidheight>
	</trkpt>
	<trkpt lat="50.702941" lon="6.182697">
		<ele>261</ele>
		<time>2011-09-11T10:05:19.897Z</time>
		<geoidheight>215</geoidheight>
	</trkpt>
	<trkpt lat="50.702938" lon="6.182704">
		<ele>260</ele>
		<time>2011-09-11T10:05:20.894Z</time>
		<geoidheight>214</geoidheight>
	</trkpt>
	<trkpt lat="50.702934" lon="6.182714">
		<ele>260</ele>
		<time>2011-09-11T10:05:21.894Z</time>
		<geoidheight>214</geoidheight>
	</trkpt>
	<trkpt lat="50.702929" lon="6.182724">
		<ele>260</ele>
		<time>2011-09-11T10:05:22.896Z</time>
		<geoidheight>214</geoidheight>
	</trkpt>
	<trkpt lat="50.702922" lon="6.182735">
		<ele>260</ele>
		<time>2011-09-11T10:05:23.894Z</time>
		<geoidheight>214</geoidheight>
	</trkpt>
	<trkpt lat="50.702916" lon="6.182746">
		<ele>260</ele>
		<time>2011-09-11T10:05:24.902Z</time>
		<geoidheight>214</geoidheight>
	</trkpt>
	<trkpt lat="50.702910" lon="6.182756">
		<ele>260</ele>
		<time>2011-09-11T10:05:25.896Z</time>
		<geoidheight>214</geoidheight>
	</trkpt>
	<trkpt lat="50.702902" lon="6.182766">
		<ele>260</ele>
		<time>2011-09-11T10:05:26.895Z</time>
		<geoidheight>214</geoidheight>
	</trkpt>
	<trkpt lat="50.702895" lon="6.182776">
		<ele>260</ele>
		<time>2011-09-11T10:05:27.894Z</time>
		<geoidheight>214</geoidheight>
	</trkpt>
	<trkpt lat="50.702887" lon="6.182786">
		<ele>260</ele>
		<time>2011-09-11T10:05:28.894Z</time>
		<geoidheight>214</geoidheight>
	</trkpt>
	<trkpt lat="50.702880" lon="6.182795">
		<ele>260</ele>
		<time>2011-09-11T10:05:29.894Z</time>
		<geoidheight>214</geoidheight>
	</trkpt>
	<trkpt lat="50.702871" lon="6.182804">
		<ele>260</ele>
		<time>2011-09-11T10:05:30.894Z</time>
		<geoidheight>214</geoidheight>
	</trkpt>
	<trkpt lat="50.702862" lon="6.182813">
		<ele>260</ele>
		<time>2011-09-11T10:05:31.894Z</time>
		<geoidheight>214</geoidheight>
	</trkpt>
	<trkpt lat="50.702852" lon="6.182821">
		<ele>260</ele>
		<time>2011-09-11T10:05:32.895Z</time>
		<geoidheight>214</geoidheight>
	</trkpt>
	<trkpt lat="50.702842" lon="6.182829">
		<ele>260</ele>
		<time>2011-09-11T10:05:33.895Z</time>
		<geoidheight>214</geoidheight>
	</trkpt>
	<trkpt lat="50.702832" lon="6.182833">
		<ele>260</ele>
		<time>2011-09-11T10:05:34.896Z</time>
		<geoidheight>214</geoidheight>
	</trkpt>
	<trkpt lat="50.702823" lon="6.182837">
		<ele>260</ele>
		<time>2011-09-11T10:05:35.896Z</time>
		<geoidheight>214</geoidheight>
	</trkpt>
	<trkpt lat="50.702813" lon="6.182839">
		<ele>260</ele>
		<time>2011-09-11T10:05:36.895Z</time>
		<geoidheight>214</geoidheight>
	</trkpt>
	<trkpt lat="50.702803" lon="6.182841">
		<ele>260</ele>
		<time>2011-09-11T10:05:37.895Z</time>
		<geoidheight>214</geoidheight>
	</trkpt>
	<trkpt lat="50.702792" lon="6.182842">
		<ele>260</ele>
		<time>2011-09-11T10:05:38.896Z</time>
		<geoidheight>214</geoidheight>
	</trkpt>
	<trkpt lat="50.702781" lon="6.182843">
		<ele>260</ele>
		<time>2011-09-11T10:05:39.893Z</time>
		<geoidheight>214</geoidheight>
	</trkpt>
	<trkpt lat="50.702768" lon="6.182844">
		<ele>260</ele>
		<time>2011-09-11T10:05:40.895Z</time>
		<geoidheight>214</geoidheight>
	</trkpt>
	<trkpt lat="50.702755" lon="6.182845">
		<ele>260</ele>
		<time>2011-09-11T10:05:41.897Z</time>
		<geoidheight>214</geoidheight>
	</trkpt>
	<trkpt lat="50.702741" lon="6.182847">
		<ele>260</ele>
		<time>2011-09-11T10:05:42.895Z</time>
		<geoidheight>214</geoidheight>
	</trkpt>
	<trkpt lat="50.702727" lon="6.182850">
		<ele>260</ele>
		<time>2011-09-11T10:05:43.894Z</time>
		<geoidheight>214</geoidheight>
	</trkpt>
	<trkpt lat="50.702713" lon="6.182854">
		<ele>260</ele>
		<time>2011-09-11T10:05:44.895Z</time>
		<geoidheight>214</geoidheight>
	</trkpt>
	<trkpt lat="50.702699" lon="6.182860">
		<ele>260</ele>
		<time>2011-09-11T10:05:45.895Z</time>
		<geoidheight>214</geoidheight>
	</trkpt>
	<trkpt lat="50.702683" lon="6.182854">
		<ele>260</ele>
		<time>2011-09-11T10:05:46.894Z</time>
		<geoidheight>214</geoidheight>
	</trkpt>
	<trkpt lat="50.702669" lon="6.182848">
		<ele>260</ele>
		<time>2011-09-11T10:05:47.896Z</time>
		<geoidheight>214</geoidheight>
	</trkpt>
	<trkpt lat="50.702647" lon="6.182842">
		<ele>260</ele>
		<time>2011-09-11T10:05:48.899Z</time>
		<geoidheight>214</geoidheight>
	</trkpt>
	<trkpt lat="50.702620" lon="6.182834">
		<ele>260</ele>
		<time>2011-09-11T10:05:49.903Z</time>
		<geoidheight>214</geoidheight>
	</trkpt>
	<trkpt lat="50.702593" lon="6.182833">
		<ele>260</ele>
		<time>2011-09-11T10:05:50.894Z</time>
		<geoidheight>214</geoidheight>
	</trkpt>
	<trkpt lat="50.702563" lon="6.182827">
		<ele>260</ele>
		<time>2011-09-11T10:05:51.900Z</time>
		<geoidheight>214</geoidheight>
	</trkpt>
	<trkpt lat="50.702537" lon="6.182820">
		<ele>260</ele>
		<time>2011-09-11T10:05:52.895Z</time>
		<geoidheight>214</geoidheight>
	</trkpt>
	<trkpt lat="50.702514" lon="6.182814">
		<ele>260</ele>
		<time>2011-09-11T10:05:53.894Z</time>
		<geoidheight>214</geoidheight>
	</trkpt>
	<trkpt lat="50.702491" lon="6.182814">
		<ele>260</ele>
		<time>2011-09-11T10:05:54.898Z</time>
		<geoidheight>214</geoidheight>
	</trkpt>
	<trkpt lat="50.702470" lon="6.182816">
		<ele>260</ele>
		<time>2011-09-11T10:05:55.896Z</time>
		<geoidheight>214</geoidheight>
	</trkpt>
	<trkpt lat="50.702451" lon="6.182820">
		<ele>260</ele>
		<time>2011-09-11T10:05:56.895Z</time>
		<geoidheight>214</geoidheight>
	</trkpt>
	<trkpt lat="50.702432" lon="6.182825">
		<ele>260</ele>
		<time>2011-09-11T10:05:57.900Z</time>
		<geoidheight>214</geoidheight>
	</trkpt>
	<trkpt lat="50.702413" lon="6.182834">
		<ele>260</ele>
		<time>2011-09-11T10:05:58.895Z</time>
		<geoidheight>214</geoidheight>
	</trkpt>
	<trkpt lat="50.702395" lon="6.182843">
		<ele>260</ele>
		<time>2011-09-11T10:05:59.896Z</time>
		<geoidheight>214</geoidheight>
	</trkpt>
	<trkpt lat="50.702377" lon="6.182853">
		<ele>260</ele>
		<time>2011-09-11T10:06:00.895Z</time>
		<geoidheight>214</geoidheight>
	</trkpt>
	<trkpt lat="50.702359" lon="6.182862">
		<ele>260</ele>
		<time>2011-09-11T10:06:01.897Z</time>
		<geoidheight>214</geoidheight>
	</trkpt>
	<trkpt lat="50.702342" lon="6.182872">
		<ele>260</ele>
		<time>2011-09-11T10:06:02.895Z</time>
		<geoidheight>214</geoidheight>
	</trkpt>
	<trkpt lat="50.702326" lon="6.182881">
		<ele>260</ele>
		<time>2011-09-11T10:06:03.896Z</time>
		<geoidheight>214</geoidheight>
	</trkpt>
	<trkpt lat="50.702309" lon="6.182887">
		<ele>260</ele>
		<time>2011-09-11T10:06:04.896Z</time>
		<geoidheight>214</geoidheight>
	</trkpt>
	<trkpt lat="50.702294" lon="6.182886">
		<ele>260</ele>
		<time>2011-09-11T10:06:05.897Z</time>
		<geoidheight>214</geoidheight>
	</trkpt>
	<trkpt lat="50.702278" lon="6.182889">
		<ele>260</ele>
		<time>2011-09-11T10:06:06.895Z</time>
		<geoidheight>214</geoidheight>
	</trkpt>
	<trkpt lat="50.702258" lon="6.182899">
		<ele>260</ele>
		<time>2011-09-11T10:06:07.896Z</time>
		<geoidheight>214</geoidheight>
	</trkpt>
	<trkpt lat="50.702236" lon="6.182904">
		<ele>260</ele>
		<time>2011-09-11T10:06:08.897Z</time>
		<geoidheight>214</geoidheight>
	</trkpt>
	<trkpt lat="50.702212" lon="6.182901">
		<ele>260</ele>
		<time>2011-09-11T10:06:09.895Z</time>
		<geoidheight>214</geoidheight>
	</trkpt>
	<trkpt lat="50.702189" lon="6.182899">
		<ele>260</ele>
		<time>2011-09-11T10:06:10.897Z</time>
		<geoidheight>214</geoidheight>
	</trkpt>
	<trkpt lat="50.702166" lon="6.182898">
		<ele>260</ele>
		<time>2011-09-11T10:06:11.896Z</time>
		<geoidheight>214</geoidheight>
	</trkpt>
	<trkpt lat="50.702141" lon="6.182893">
		<ele>260</ele>
		<time>2011-09-11T10:06:12.898Z</time>
		<geoidheight>214</geoidheight>
	</trkpt>
	<trkpt lat="50.702118" lon="6.182890">
		<ele>260</ele>
		<time>2011-09-11T10:06:13.895Z</time>
		<geoidheight>214</geoidheight>
	</trkpt>
	<trkpt lat="50.702094" lon="6.182886">
		<ele>260</ele>
		<time>2011-09-11T10:06:14.896Z</time>
		<geoidheight>214</geoidheight>
	</trkpt>
	<trkpt lat="50.702072" lon="6.182881">
		<ele>260</ele>
		<time>2011-09-11T10:06:15.895Z</time>
		<geoidheight>214</geoidheight>
	</trkpt>
	<trkpt lat="50.702051" lon="6.182877">
		<ele>260</ele>
		<time>2011-09-11T10:06:16.896Z</time>
		<geoidheight>214</geoidheight>
	</trkpt>
	<trkpt lat="50.702031" lon="6.182875">
		<ele>260</ele>
		<time>2011-09-11T10:06:17.897Z</time>
		<geoidheight>214</geoidheight>
	</trkpt>
	<trkpt lat="50.702011" lon="6.182874">
		<ele>260</ele>
		<time>2011-09-11T10:06:18.895Z</time>
		<geoidheight>214</geoidheight>
	</trkpt>
	<trkpt lat="50.701992" lon="6.182872">
		<ele>260</ele>
		<time>2011-09-11T10:06:19.896Z</time>
		<geoidheight>214</geoidheight>
	</trkpt>
	<trkpt lat="50.701974" lon="6.182868">
		<ele>260</ele>
		<time>2011-09-11T10:06:20.897Z</time>
		<geoidheight>214</geoidheight>
	</trkpt>
	<trkpt lat="50.701954" lon="6.182864">
		<ele>260</ele>
		<time>2011-09-11T10:06:21.896Z</time>
		<geoidheight>214</geoidheight>
	</trkpt>
	<trkpt lat="50.701933" lon="6.182858">
		<ele>260</ele>
		<time>2011-09-11T10:06:22.895Z</time>
		<geoidheight>214</geoidheight>
	</trkpt>
	<trkpt lat="50.701913" lon="6.182856">
		<ele>260</ele>
		<time>2011-09-11T10:06:23.897Z</time>
		<geoidheight>214</geoidheight>
	</trkpt>
	<trkpt lat="50.701893" lon="6.182854">
		<ele>260</ele>
		<time>2011-09-11T10:06:24.895Z</time>
		<geoidheight>214</geoidheight>
	</trkpt>
	<trkpt lat="50.701872" lon="6.182855">
		<ele>260</ele>
		<time>2011-09-11T10:06:25.896Z</time>
		<geoidheight>214</geoidheight>
	</trkpt>
	<trkpt lat="50.701852" lon="6.182857">
		<ele>260</ele>
		<time>2011-09-11T10:06:26.899Z</time>
		<geoidheight>214</geoidheight>
	</trkpt>
	<trkpt lat="50.701830" lon="6.182856">
		<ele>260</ele>
		<time>2011-09-11T10:06:27.897Z</time>
		<geoidheight>214</geoidheight>
	</trkpt>
	<trkpt lat="50.701808" lon="6.182857">
		<ele>260</ele>
		<time>2011-09-11T10:06:28.901Z</time>
		<geoidheight>214</geoidheight>
	</trkpt>
	<trkpt lat="50.701788" lon="6.182856">
		<ele>260</ele>
		<time>2011-09-11T10:06:29.904Z</time>
		<geoidheight>214</geoidheight>
	</trkpt>
	<trkpt lat="50.701769" lon="6.182854">
		<ele>260</ele>
		<time>2011-09-11T10:06:30.900Z</time>
		<geoidheight>214</geoidheight>
	</trkpt>
	<trkpt lat="50.701750" lon="6.182853">
		<ele>260</ele>
		<time>2011-09-11T10:06:31.898Z</time>
		<geoidheight>214</geoidheight>
	</trkpt>
	<trkpt lat="50.701734" lon="6.182845">
		<ele>260</ele>
		<time>2011-09-11T10:06:32.903Z</time>
		<geoidheight>214</geoidheight>
	</trkpt>
	<trkpt lat="50.701718" lon="6.182834">
		<ele>260</ele>
		<time>2011-09-11T10:06:33.897Z</time>
		<geoidheight>214</geoidheight>
	</trkpt>
	<trkpt lat="50.701703" lon="6.182825">
		<ele>260</ele>
		<time>2011-09-11T10:06:34.895Z</time>
		<geoidheight>214</geoidheight>
	</trkpt>
	<trkpt lat="50.701690" lon="6.182814">
		<ele>260</ele>
		<time>2011-09-11T10:06:35.905Z</time>
		<geoidheight>214</geoidheight>
	</trkpt>
	<trkpt lat="50.701678" lon="6.182805">
		<ele>260</ele>
		<time>2011-09-11T10:06:36.903Z</time>
		<geoidheight>214</geoidheight>
	</trkpt>
	<trkpt lat="50.701666" lon="6.182796">
		<ele>260</ele>
		<time>2011-09-11T10:06:37.912Z</time>
		<geoidheight>214</geoidheight>
	</trkpt>
	<trkpt lat="50.701655" lon="6.182786">
		<ele>260</ele>
		<time>2011-09-11T10:06:38.908Z</time>
		<geoidheight>214</geoidheight>
	</trkpt>
	<trkpt lat="50.701641" lon="6.182777">
		<ele>260</ele>
		<time>2011-09-11T10:06:39.901Z</time>
		<geoidheight>214</geoidheight>
	</trkpt>
	<trkpt lat="50.701625" lon="6.182771">
		<ele>260</ele>
		<time>2011-09-11T10:06:40.897Z</time>
		<geoidheight>214</geoidheight>
	</trkpt>
	<trkpt lat="50.701609" lon="6.182765">
		<ele>260</ele>
		<time>2011-09-11T10:06:41.900Z</time>
		<geoidheight>214</geoidheight>
	</trkpt>
	<trkpt lat="50.701593" lon="6.182755">
		<ele>259</ele>
		<time>2011-09-11T10:06:42.898Z</time>
		<geoidheight>213</geoidheight>
	</trkpt>
	<trkpt lat="50.701578" lon="6.182744">
		<ele>259</ele>
		<time>2011-09-11T10:06:43.897Z</time>
		<geoidheight>213</geoidheight>
	</trkpt>
	<trkpt lat="50.701558" lon="6.182733">
		<ele>259</ele>
		<time>2011-09-11T10:06:44.899Z</time>
		<geoidheight>213</geoidheight>
	</trkpt>
	<trkpt lat="50.701539" lon="6.182718">
		<ele>260</ele>
		<time>2011-09-11T10:06:45.905Z</time>
		<geoidheight>214</geoidheight>
	</trkpt>
	<trkpt lat="50.701521" lon="6.182701">
		<ele>260</ele>
		<time>2011-09-11T10:06:46.910Z</time>
		<geoidheight>214</geoidheight>
	</trkpt>
	<trkpt lat="50.701506" lon="6.182684">
		<ele>260</ele>
		<time>2011-09-11T10:06:47.900Z</time>
		<geoidheight>214</geoidheight>
	</trkpt>
	<trkpt lat="50.701492" lon="6.182669">
		<ele>260</ele>
		<time>2011-09-11T10:06:48.907Z</time>
		<geoidheight>214</geoidheight>
	</trkpt>
	<trkpt lat="50.701478" lon="6.182657">
		<ele>260</ele>
		<time>2011-09-11T10:06:49.898Z</time>
		<geoidheight>214</geoidheight>
	</trkpt>
	<trkpt lat="50.701464" lon="6.182647">
		<ele>260</ele>
		<time>2011-09-11T10:06:50.896Z</time>
		<geoidheight>214</geoidheight>
	</trkpt>
	<trkpt lat="50.701454" lon="6.182636">
		<ele>260</ele>
		<time>2011-09-11T10:06:51.898Z</time>
		<geoidheight>214</geoidheight>
	</trkpt>
	<trkpt lat="50.701443" lon="6.182630">
		<ele>260</ele>
		<time>2011-09-11T10:06:52.904Z</time>
		<geoidheight>214</geoidheight>
	</trkpt>
	<trkpt lat="50.701432" lon="6.182625">
		<ele>260</ele>
		<time>2011-09-11T10:06:53.898Z</time>
		<geoidheight>214</geoidheight>
	</trkpt>
	<trkpt lat="50.701421" lon="6.182616">
		<ele>260</ele>
		<time>2011-09-11T10:06:54.896Z</time>
		<geoidheight>214</geoidheight>
	</trkpt>
	<trkpt lat="50.701411" lon="6.182607">
		<ele>260</ele>
		<time>2011-09-11T10:06:55.896Z</time>
		<geoidheight>214</geoidheight>
	</trkpt>
	<trkpt lat="50.701400" lon="6.182600">
		<ele>260</ele>
		<time>2011-09-11T10:06:56.898Z</time>
		<geoidheight>214</geoidheight>
	</trkpt>
	<trkpt lat="50.701390" lon="6.182598">
		<ele>260</ele>
		<time>2011-09-11T10:06:57.902Z</time>
		<geoidheight>214</geoidheight>
	</trkpt>
	<trkpt lat="50.701379" lon="6.182608">
		<ele>260</ele>
		<time>2011-09-11T10:06:58.903Z</time>
		<geoidheight>214</geoidheight>
	</trkpt>
	<trkpt lat="50.701369" lon="6.182598">
		<ele>260</ele>
		<time>2011-09-11T10:06:59.897Z</time>
		<geoidheight>214</geoidheight>
	</trkpt>
	<trkpt lat="50.701359" lon="6.182591">
		<ele>260</ele>
		<time>2011-09-11T10:07:00.895Z</time>
		<geoidheight>214</geoidheight>
	</trkpt>
	<trkpt lat="50.701349" lon="6.182583">
		<ele>260</ele>
		<time>2011-09-11T10:07:01.896Z</time>
		<geoidheight>214</geoidheight>
	</trkpt>
	<trkpt lat="50.701340" lon="6.182575">
		<ele>260</ele>
		<time>2011-09-11T10:07:02.899Z</time>
		<geoidheight>214</geoidheight>
	</trkpt>
	<trkpt lat="50.701333" lon="6.182562">
		<ele>260</ele>
		<time>2011-09-11T10:07:03.896Z</time>
		<geoidheight>214</geoidheight>
	</trkpt>
	<trkpt lat="50.701325" lon="6.182545">
		<ele>260</ele>
		<time>2011-09-11T10:07:04.900Z</time>
		<geoidheight>214</geoidheight>
	</trkpt>
	<trkpt lat="50.701320" lon="6.182535">
		<ele>260</ele>
		<time>2011-09-11T10:07:05.898Z</time>
		<geoidheight>214</geoidheight>
	</trkpt>
	<trkpt lat="50.701311" lon="6.182530">
		<ele>260</ele>
		<time>2011-09-11T10:07:06.896Z</time>
		<geoidheight>214</geoidheight>
	</trkpt>
	<trkpt lat="50.701303" lon="6.182526">
		<ele>260</ele>
		<time>2011-09-11T10:07:07.896Z</time>
		<geoidheight>214</geoidheight>
	</trkpt>
	<trkpt lat="50.701295" lon="6.182523">
		<ele>260</ele>
		<time>2011-09-11T10:07:08.904Z</time>
		<geoidheight>214</geoidheight>
	</trkpt>
	<trkpt lat="50.701285" lon="6.182520">
		<ele>260</ele>
		<time>2011-09-11T10:07:09.912Z</time>
		<geoidheight>214</geoidheight>
	</trkpt>
	<trkpt lat="50.701275" lon="6.182517">
		<ele>260</ele>
		<time>2011-09-11T10:07:10.913Z</time>
		<geoidheight>214</geoidheight>
	</trkpt>
	<trkpt lat="50.701265" lon="6.182515">
		<ele>260</ele>
		<time>2011-09-11T10:07:11.904Z</time>
		<geoidheight>214</geoidheight>
	</trkpt>
	<trkpt lat="50.701254" lon="6.182511">
		<ele>260</ele>
		<time>2011-09-11T10:07:12.901Z</time>
		<geoidheight>214</geoidheight>
	</trkpt>
	<trkpt lat="50.701244" lon="6.182508">
		<ele>260</ele>
		<time>2011-09-11T10:07:13.913Z</time>
		<geoidheight>214</geoidheight>
	</trkpt>
	<trkpt lat="50.701232" lon="6.182508">
		<ele>260</ele>
		<time>2011-09-11T10:07:14.912Z</time>
		<geoidheight>214</geoidheight>
	</trkpt>
	<trkpt lat="50.701221" lon="6.182507">
		<ele>260</ele>
		<time>2011-09-11T10:07:15.899Z</time>
		<geoidheight>214</geoidheight>
	</trkpt>
	<trkpt lat="50.701210" lon="6.182503">
		<ele>260</ele>
		<time>2011-09-11T10:07:16.898Z</time>
		<geoidheight>214</geoidheight>
	</trkpt>
	<trkpt lat="50.701199" lon="6.182499">
		<ele>260</ele>
		<time>2011-09-11T10:07:17.897Z</time>
		<geoidheight>214</geoidheight>
	</trkpt>
	<trkpt lat="50.701188" lon="6.182494">
		<ele>260</ele>
		<time>2011-09-11T10:07:18.897Z</time>
		<geoidheight>214</geoidheight>
	</trkpt>
	<trkpt lat="50.701179" lon="6.182487">
		<ele>260</ele>
		<time>2011-09-11T10:07:19.897Z</time>
		<geoidheight>214</geoidheight>
	</trkpt>
	<trkpt lat="50.701169" lon="6.182480">
		<ele>260</ele>
		<time>2011-09-11T10:07:20.900Z</time>
		<geoidheight>214</geoidheight>
	</trkpt>
	<trkpt lat="50.701167" lon="6.182481">
		<ele>260</ele>
		<time>2011-09-11T10:07:21.899Z</time>
		<geoidheight>214</geoidheight>
	</trkpt>
	<trkpt lat="50.701167" lon="6.182481">
		<ele>260</ele>
		<time>2011-09-11T10:07:22.897Z</time>
		<geoidheight>214</geoidheight>
	</trkpt>
	<trkpt lat="50.701167" lon="6.182481">
		<ele>260</ele>
		<time>2011-09-11T10:07:31.898Z</time>
		<geoidheight>214</geoidheight>
	</trkpt>
	<trkpt lat="50.701141" lon="6.182500">
		<ele>260</ele>
		<time>2011-09-11T10:07:32.897Z</time>
		<geoidheight>214</geoidheight>
	</trkpt>
	<trkpt lat="50.701133" lon="6.182502">
		<ele>260</ele>
		<time>2011-09-11T10:07:33.897Z</time>
		<geoidheight>214</geoidheight>
	</trkpt>
	<trkpt lat="50.701125" lon="6.182506">
		<ele>260</ele>
		<time>2011-09-11T10:07:34.898Z</time>
		<geoidheight>214</geoidheight>
	</trkpt>
	<trkpt lat="50.701117" lon="6.182510">
		<ele>260</ele>
		<time>2011-09-11T10:07:35.896Z</time>
		<geoidheight>214</geoidheight>
	</trkpt>
	<trkpt lat="50.701110" lon="6.182516">
		<ele>260</ele>
		<time>2011-09-11T10:07:36.896Z</time>
		<geoidheight>214</geoidheight>
	</trkpt>
	<trkpt lat="50.701104" lon="6.182518">
		<ele>260</ele>
		<time>2011-09-11T10:07:37.899Z</time>
		<geoidheight>214</geoidheight>
	</trkpt>
	<trkpt lat="50.701100" lon="6.182518">
		<ele>260</ele>
		<time>2011-09-11T10:07:38.897Z</time>
		<geoidheight>214</geoidheight>
	</trkpt>
	<trkpt lat="50.701094" lon="6.182522">
		<ele>260</ele>
		<time>2011-09-11T10:07:39.896Z</time>
		<geoidheight>214</geoidheight>
	</trkpt>
	<trkpt lat="50.701087" lon="6.182525">
		<ele>260</ele>
		<time>2011-09-11T10:07:40.903Z</time>
		<geoidheight>214</geoidheight>
	</trkpt>
	<trkpt lat="50.701080" lon="6.182532">
		<ele>260</ele>
		<time>2011-09-11T10:07:41.917Z</time>
		<geoidheight>214</geoidheight>
	</trkpt>
	<trkpt lat="50.701076" lon="6.182530">
		<ele>260</ele>
		<time>2011-09-11T10:07:42.913Z</time>
		<geoidheight>214</geoidheight>
	</trkpt>
	<trkpt lat="50.701071" lon="6.182530">
		<ele>260</ele>
		<time>2011-09-11T10:07:43.915Z</time>
		<geoidheight>214</geoidheight>
	</trkpt>
	<trkpt lat="50.701063" lon="6.182533">
		<ele>260</ele>
		<time>2011-09-11T10:07:44.910Z</time>
		<geoidheight>214</geoidheight>
	</trkpt>
	<trkpt lat="50.701053" lon="6.182542">
		<ele>260</ele>
		<time>2011-09-11T10:07:45.924Z</time>
		<geoidheight>214</geoidheight>
	</trkpt>
	<trkpt lat="50.701043" lon="6.182551">
		<ele>260</ele>
		<time>2011-09-11T10:07:46.897Z</time>
		<geoidheight>214</geoidheight>
	</trkpt>
	<trkpt lat="50.701033" lon="6.182559">
		<ele>260</ele>
		<time>2011-09-11T10:07:47.898Z</time>
		<geoidheight>214</geoidheight>
	</trkpt>
	<trkpt lat="50.701023" lon="6.182570">
		<ele>260</ele>
		<time>2011-09-11T10:07:48.895Z</time>
		<geoidheight>214</geoidheight>
	</trkpt>
	<trkpt lat="50.701014" lon="6.182581">
		<ele>260</ele>
		<time>2011-09-11T10:07:49.895Z</time>
		<geoidheight>214</geoidheight>
	</trkpt>
	<trkpt lat="50.701004" lon="6.182596">
		<ele>260</ele>
		<time>2011-09-11T10:07:50.898Z</time>
		<geoidheight>214</geoidheight>
	</trkpt>
	<trkpt lat="50.700994" lon="6.182611">
		<ele>260</ele>
		<time>2011-09-11T10:07:51.905Z</time>
		<geoidheight>214</geoidheight>
	</trkpt>
	<trkpt lat="50.700994" lon="6.182611">
		<ele>260</ele>
		<time>2011-09-11T10:07:55.909Z</time>
		<geoidheight>214</geoidheight>
	</trkpt>
	<trkpt lat="50.700959" lon="6.182674">
		<ele>259</ele>
		<time>2011-09-11T10:07:56.905Z</time>
		<geoidheight>213</geoidheight>
	</trkpt>
	<trkpt lat="50.700959" lon="6.182674">
		<ele>259</ele>
		<time>2011-09-11T10:07:58.896Z</time>
		<geoidheight>213</geoidheight>
	</trkpt>
	<trkpt lat="50.700933" lon="6.182702">
		<ele>259</ele>
		<time>2011-09-11T10:07:59.895Z</time>
		<geoidheight>213</geoidheight>
	</trkpt>
	<trkpt lat="50.700923" lon="6.182710">
		<ele>259</ele>
		<time>2011-09-11T10:08:00.896Z</time>
		<geoidheight>213</geoidheight>
	</trkpt>
	<trkpt lat="50.700913" lon="6.182717">
		<ele>259</ele>
		<time>2011-09-11T10:08:01.897Z</time>
		<geoidheight>213</geoidheight>
	</trkpt>
	<trkpt lat="50.700902" lon="6.182724">
		<ele>259</ele>
		<time>2011-09-11T10:08:02.896Z</time>
		<geoidheight>213</geoidheight>
	</trkpt>
	<trkpt lat="50.700890" lon="6.182732">
		<ele>259</ele>
		<time>2011-09-11T10:08:03.898Z</time>
		<geoidheight>213</geoidheight>
	</trkpt>
	<trkpt lat="50.700878" lon="6.182740">
		<ele>259</ele>
		<time>2011-09-11T10:08:04.896Z</time>
		<geoidheight>213</geoidheight>
	</trkpt>
	<trkpt lat="50.700866" lon="6.182747">
		<ele>259</ele>
		<time>2011-09-11T10:08:05.896Z</time>
		<geoidheight>213</geoidheight>
	</trkpt>
	<trkpt lat="50.700854" lon="6.182754">
		<ele>259</ele>
		<time>2011-09-11T10:08:06.899Z</time>
		<geoidheight>213</geoidheight>
	</trkpt>
	<trkpt lat="50.700841" lon="6.182760">
		<ele>259</ele>
		<time>2011-09-11T10:08:07.898Z</time>
		<geoidheight>213</geoidheight>
	</trkpt>
	<trkpt lat="50.700834" lon="6.182774">
		<ele>259</ele>
		<time>2011-09-11T10:08:08.897Z</time>
		<geoidheight>213</geoidheight>
	</trkpt>
	<trkpt lat="50.700834" lon="6.182774">
		<ele>259</ele>
		<time>2011-09-11T10:08:13.897Z</time>
		<geoidheight>213</geoidheight>
	</trkpt>
	<trkpt lat="50.700790" lon="6.182821">
		<ele>259</ele>
		<time>2011-09-11T10:08:14.896Z</time>
		<geoidheight>213</geoidheight>
	</trkpt>
	<trkpt lat="50.700790" lon="6.182821">
		<ele>259</ele>
		<time>2011-09-11T10:08:17.896Z</time>
		<geoidheight>213</geoidheight>
	</trkpt>
	<trkpt lat="50.700750" lon="6.182867">
		<ele>259</ele>
		<time>2011-09-11T10:08:18.896Z</time>
		<geoidheight>213</geoidheight>
	</trkpt>
	<trkpt lat="50.700750" lon="6.182867">
		<ele>259</ele>
		<time>2011-09-11T10:08:21.896Z</time>
		<geoidheight>213</geoidheight>
	</trkpt>
	<trkpt lat="50.700713" lon="6.182913">
		<ele>259</ele>
		<time>2011-09-11T10:08:22.898Z</time>
		<geoidheight>213</geoidheight>
	</trkpt>
	<trkpt lat="50.700713" lon="6.182913">
		<ele>259</ele>
		<time>2011-09-11T10:08:23.896Z</time>
		<geoidheight>213</geoidheight>
	</trkpt>
	<trkpt lat="50.700694" lon="6.182935">
		<ele>259</ele>
		<time>2011-09-11T10:08:24.896Z</time>
		<geoidheight>213</geoidheight>
	</trkpt>
	<trkpt lat="50.700694" lon="6.182935">
		<ele>259</ele>
		<time>2011-09-11T10:08:25.905Z</time>
		<geoidheight>213</geoidheight>
	</trkpt>
	<trkpt lat="50.700672" lon="6.182955">
		<ele>259</ele>
		<time>2011-09-11T10:08:26.910Z</time>
		<geoidheight>213</geoidheight>
	</trkpt>
	<trkpt lat="50.700662" lon="6.182966">
		<ele>259</ele>
		<time>2011-09-11T10:08:27.913Z</time>
		<geoidheight>213</geoidheight>
	</trkpt>
	<trkpt lat="50.700652" lon="6.182977">
		<ele>259</ele>
		<time>2011-09-11T10:08:28.897Z</time>
		<geoidheight>213</geoidheight>
	</trkpt>
	<trkpt lat="50.700644" lon="6.182985">
		<ele>259</ele>
		<time>2011-09-11T10:08:29.898Z</time>
		<geoidheight>213</geoidheight>
	</trkpt>
	<trkpt lat="50.700634" lon="6.182993">
		<ele>259</ele>
		<time>2011-09-11T10:08:30.896Z</time>
		<geoidheight>213</geoidheight>
	</trkpt>
	<trkpt lat="50.700624" lon="6.183000">
		<ele>259</ele>
		<time>2011-09-11T10:08:31.898Z</time>
		<geoidheight>213</geoidheight>
	</trkpt>
	<trkpt lat="50.700614" lon="6.183009">
		<ele>259</ele>
		<time>2011-09-11T10:08:32.898Z</time>
		<geoidheight>213</geoidheight>
	</trkpt>
	<trkpt lat="50.700600" lon="6.183013">
		<ele>259</ele>
		<time>2011-09-11T10:08:33.896Z</time>
		<geoidheight>213</geoidheight>
	</trkpt>
	<trkpt lat="50.700587" lon="6.183018">
		<ele>259</ele>
		<time>2011-09-11T10:08:34.897Z</time>
		<geoidheight>213</geoidheight>
	</trkpt>
	<trkpt lat="50.700573" lon="6.183023">
		<ele>259</ele>
		<time>2011-09-11T10:08:35.897Z</time>
		<geoidheight>213</geoidheight>
	</trkpt>
	<trkpt lat="50.700558" lon="6.183027">
		<ele>259</ele>
		<time>2011-09-11T10:08:36.897Z</time>
		<geoidheight>213</geoidheight>
	</trkpt>
	<trkpt lat="50.700544" lon="6.183032">
		<ele>259</ele>
		<time>2011-09-11T10:08:37.897Z</time>
		<geoidheight>213</geoidheight>
	</trkpt>
	<trkpt lat="50.700544" lon="6.183032">
		<ele>259</ele>
		<time>2011-09-11T10:08:40.898Z</time>
		<geoidheight>213</geoidheight>
	</trkpt>
	<trkpt lat="50.700500" lon="6.183051">
		<ele>259</ele>
		<time>2011-09-11T10:08:41.896Z</time>
		<geoidheight>213</geoidheight>
	</trkpt>
	<trkpt lat="50.700500" lon="6.183051">
		<ele>259</ele>
		<time>2011-09-11T10:08:44.913Z</time>
		<geoidheight>213</geoidheight>
	</trkpt>
	<trkpt lat="50.700456" lon="6.183080">
		<ele>259</ele>
		<time>2011-09-11T10:08:45.903Z</time>
		<geoidheight>213</geoidheight>
	</trkpt>
	<trkpt lat="50.700456" lon="6.183080">
		<ele>259</ele>
		<time>2011-09-11T10:08:48.898Z</time>
		<geoidheight>213</geoidheight>
	</trkpt>
	<trkpt lat="50.700409" lon="6.183116">
		<ele>259</ele>
		<time>2011-09-11T10:08:49.906Z</time>
		<geoidheight>213</geoidheight>
	</trkpt>
	<trkpt lat="50.700409" lon="6.183116">
		<ele>259</ele>
		<time>2011-09-11T10:08:50.896Z</time>
		<geoidheight>213</geoidheight>
	</trkpt>
	<trkpt lat="50.700389" lon="6.183139">
		<ele>259</ele>
		<time>2011-09-11T10:08:51.898Z</time>
		<geoidheight>213</geoidheight>
	</trkpt>
	<trkpt lat="50.700380" lon="6.183152">
		<ele>259</ele>
		<time>2011-09-11T10:08:52.897Z</time>
		<geoidheight>213</geoidheight>
	</trkpt>
	<trkpt lat="50.700371" lon="6.183164">
		<ele>259</ele>
		<time>2011-09-11T10:08:53.905Z</time>
		<geoidheight>213</geoidheight>
	</trkpt>
	<trkpt lat="50.700361" lon="6.183176">
		<ele>259</ele>
		<time>2011-09-11T10:08:54.898Z</time>
		<geoidheight>213</geoidheight>
	</trkpt>
	<trkpt lat="50.700352" lon="6.183187">
		<ele>259</ele>
		<time>2011-09-11T10:08:55.899Z</time>
		<geoidheight>213</geoidheight>
	</trkpt>
	<trkpt lat="50.700343" lon="6.183197">
		<ele>259</ele>
		<time>2011-09-11T10:08:56.896Z</time>
		<geoidheight>213</geoidheight>
	</trkpt>
	<trkpt lat="50.700335" lon="6.183207">
		<ele>259</ele>
		<time>2011-09-11T10:08:57.896Z</time>
		<geoidheight>213</geoidheight>
	</trkpt>
	<trkpt lat="50.700327" lon="6.183219">
		<ele>259</ele>
		<time>2011-09-11T10:08:58.897Z</time>
		<geoidheight>213</geoidheight>
	</trkpt>
	<trkpt lat="50.700321" lon="6.183232">
		<ele>259</ele>
		<time>2011-09-11T10:08:59.897Z</time>
		<geoidheight>213</geoidheight>
	</trkpt>
	<trkpt lat="50.700316" lon="6.183247">
		<ele>259</ele>
		<time>2011-09-11T10:09:00.896Z</time>
		<geoidheight>213</geoidheight>
	</trkpt>
	<trkpt lat="50.700311" lon="6.183259">
		<ele>259</ele>
		<time>2011-09-11T10:09:01.898Z</time>
		<geoidheight>213</geoidheight>
	</trkpt>
	<trkpt lat="50.700305" lon="6.183270">
		<ele>259</ele>
		<time>2011-09-11T10:09:02.896Z</time>
		<geoidheight>213</geoidheight>
	</trkpt>
	<trkpt lat="50.700298" lon="6.183281">
		<ele>259</ele>
		<time>2011-09-11T10:09:03.896Z</time>
		<geoidheight>213</geoidheight>
	</trkpt>
	<trkpt lat="50.700291" lon="6.183290">
		<ele>259</ele>
		<time>2011-09-11T10:09:04.898Z</time>
		<geoidheight>213</geoidheight>
	</trkpt>
	<trkpt lat="50.700283" lon="6.183300">
		<ele>259</ele>
		<time>2011-09-11T10:09:05.897Z</time>
		<geoidheight>213</geoidheight>
	</trkpt>
	<trkpt lat="50.700274" lon="6.183309">
		<ele>259</ele>
		<time>2011-09-11T10:09:06.896Z</time>
		<geoidheight>213</geoidheight>
	</trkpt>
	<trkpt lat="50.700264" lon="6.183318">
		<ele>259</ele>
		<time>2011-09-11T10:09:07.898Z</time>
		<geoidheight>213</geoidheight>
	</trkpt>
	<trkpt lat="50.700252" lon="6.183327">
		<ele>259</ele>
		<time>2011-09-11T10:09:08.897Z</time>
		<geoidheight>213</geoidheight>
	</trkpt>
	<trkpt lat="50.700238" lon="6.183336">
		<ele>259</ele>
		<time>2011-09-11T10:09:09.906Z</time>
		<geoidheight>213</geoidheight>
	</trkpt>
	<trkpt lat="50.700219" lon="6.183348">
		<ele>259</ele>
		<time>2011-09-11T10:09:10.910Z</time>
		<geoidheight>213</geoidheight>
	</trkpt>
	<trkpt lat="50.700197" lon="6.183368">
		<ele>259</ele>
		<time>2011-09-11T10:09:11.912Z</time>
		<geoidheight>213</geoidheight>
	</trkpt>
	<trkpt lat="50.700172" lon="6.183393">
		<ele>259</ele>
		<time>2011-09-11T10:09:12.913Z</time>
		<geoidheight>213</geoidheight>
	</trkpt>
	<trkpt lat="50.700150" lon="6.183415">
		<ele>259</ele>
		<time>2011-09-11T10:09:13.909Z</time>
		<geoidheight>213</geoidheight>
	</trkpt>
	<trkpt lat="50.700132" lon="6.183439">
		<ele>259</ele>
		<time>2011-09-11T10:09:14.905Z</time>
		<geoidheight>213</geoidheight>
	</trkpt>
	<trkpt lat="50.700114" lon="6.183459">
		<ele>259</ele>
		<time>2011-09-11T10:09:15.911Z</time>
		<geoidheight>213</geoidheight>
	</trkpt>
	<trkpt lat="50.700098" lon="6.183477">
		<ele>259</ele>
		<time>2011-09-11T10:09:16.897Z</time>
		<geoidheight>213</geoidheight>
	</trkpt>
	<trkpt lat="50.700083" lon="6.183493">
		<ele>259</ele>
		<time>2011-09-11T10:09:17.897Z</time>
		<geoidheight>213</geoidheight>
	</trkpt>
	<trkpt lat="50.700069" lon="6.183512">
		<ele>259</ele>
		<time>2011-09-11T10:09:18.897Z</time>
		<geoidheight>213</geoidheight>
	</trkpt>
	<trkpt lat="50.700055" lon="6.183531">
		<ele>259</ele>
		<time>2011-09-11T10:09:19.897Z</time>
		<geoidheight>213</geoidheight>
	</trkpt>
	<trkpt lat="50.700042" lon="6.183550">
		<ele>259</ele>
		<time>2011-09-11T10:09:20.898Z</time>
		<geoidheight>213</geoidheight>
	</trkpt>
	<trkpt lat="50.700029" lon="6.183568">
		<ele>259</ele>
		<time>2011-09-11T10:09:21.901Z</time>
		<geoidheight>213</geoidheight>
	</trkpt>
	<trkpt lat="50.700017" lon="6.183586">
		<ele>259</ele>
		<time>2011-09-11T10:09:22.896Z</time>
		<geoidheight>213</geoidheight>
	</trkpt>
	<trkpt lat="50.700004" lon="6.183604">
		<ele>259</ele>
		<time>2011-09-11T10:09:23.898Z</time>
		<geoidheight>213</geoidheight>
	</trkpt>
	<trkpt lat="50.699992" lon="6.183621">
		<ele>259</ele>
		<time>2011-09-11T10:09:24.896Z</time>
		<geoidheight>213</geoidheight>
	</trkpt>
	<trkpt lat="50.699981" lon="6.183638">
		<ele>259</ele>
		<time>2011-09-11T10:09:25.897Z</time>
		<geoidheight>213</geoidheight>
	</trkpt>
	<trkpt lat="50.699968" lon="6.183654">
		<ele>259</ele>
		<time>2011-09-11T10:09:26.899Z</time>
		<geoidheight>213</geoidheight>
	</trkpt>
	<trkpt lat="50.699955" lon="6.183672">
		<ele>259</ele>
		<time>2011-09-11T10:09:27.897Z</time>
		<geoidheight>213</geoidheight>
	</trkpt>
	<trkpt lat="50.699944" lon="6.183690">
		<ele>259</ele>
		<time>2011-09-11T10:09:28.897Z</time>
		<geoidheight>213</geoidheight>
	</trkpt>
	<trkpt lat="50.699932" lon="6.183702">
		<ele>259</ele>
		<time>2011-09-11T10:09:29.897Z</time>
		<geoidheight>213</geoidheight>
	</trkpt>
	<trkpt lat="50.699920" lon="6.183715">
		<ele>259</ele>
		<time>2011-09-11T10:09:30.899Z</time>
		<geoidheight>213</geoidheight>
	</trkpt>
	<trkpt lat="50.699907" lon="6.183728">
		<ele>259</ele>
		<time>2011-09-11T10:09:31.897Z</time>
		<geoidheight>213</geoidheight>
	</trkpt>
	<trkpt lat="50.699895" lon="6.183738">
		<ele>259</ele>
		<time>2011-09-11T10:09:32.897Z</time>
		<geoidheight>213</geoidheight>
	</trkpt>
	<trkpt lat="50.699882" lon="6.183749">
		<ele>259</ele>
		<time>2011-09-11T10:09:33.898Z</time>
		<geoidheight>213</geoidheight>
	</trkpt>
	<trkpt lat="50.699870" lon="6.183768">
		<ele>259</ele>
		<time>2011-09-11T10:09:34.899Z</time>
		<geoidheight>213</geoidheight>
	</trkpt>
	<trkpt lat="50.699858" lon="6.183789">
		<ele>259</ele>
		<time>2011-09-11T10:09:35.898Z</time>
		<geoidheight>213</geoidheight>
	</trkpt>
	<trkpt lat="50.699844" lon="6.183810">
		<ele>259</ele>
		<time>2011-09-11T10:09:36.899Z</time>
		<geoidheight>213</geoidheight>
	</trkpt>
	<trkpt lat="50.699832" lon="6.183832">
		<ele>259</ele>
		<time>2011-09-11T10:09:37.897Z</time>
		<geoidheight>213</geoidheight>
	</trkpt>
	<trkpt lat="50.699819" lon="6.183855">
		<ele>259</ele>
		<time>2011-09-11T10:09:38.897Z</time>
		<geoidheight>213</geoidheight>
	</trkpt>
	<trkpt lat="50.699807" lon="6.183879">
		<ele>259</ele>
		<time>2011-09-11T10:09:39.898Z</time>
		<geoidheight>213</geoidheight>
	</trkpt>
	<trkpt lat="50.699793" lon="6.183899">
		<ele>259</ele>
		<time>2011-09-11T10:09:40.898Z</time>
		<geoidheight>213</geoidheight>
	</trkpt>
	<trkpt lat="50.699782" lon="6.183924">
		<ele>259</ele>
		<time>2011-09-11T10:09:41.896Z</time>
		<geoidheight>213</geoidheight>
	</trkpt>
	<trkpt lat="50.699770" lon="6.183951">
		<ele>259</ele>
		<time>2011-09-11T10:09:42.897Z</time>
		<geoidheight>213</geoidheight>
	</trkpt>
	<trkpt lat="50.699760" lon="6.183977">
		<ele>259</ele>
		<time>2011-09-11T10:09:43.896Z</time>
		<geoidheight>213</geoidheight>
	</trkpt>
	<trkpt lat="50.699751" lon="6.184002">
		<ele>259</ele>
		<time>2011-09-11T10:09:44.897Z</time>
		<geoidheight>213</geoidheight>
	</trkpt>
	<trkpt lat="50.699745" lon="6.184026">
		<ele>259</ele>
		<time>2011-09-11T10:09:45.896Z</time>
		<geoidheight>213</geoidheight>
	</trkpt>
	<trkpt lat="50.699741" lon="6.184054">
		<ele>259</ele>
		<time>2011-09-11T10:09:46.899Z</time>
		<geoidheight>213</geoidheight>
	</trkpt>
	<trkpt lat="50.699736" lon="6.184080">
		<ele>259</ele>
		<time>2011-09-11T10:09:47.897Z</time>
		<geoidheight>213</geoidheight>
	</trkpt>
	<trkpt lat="50.699726" lon="6.184099">
		<ele>259</ele>
		<time>2011-09-11T10:09:48.896Z</time>
		<geoidheight>213</geoidheight>
	</trkpt>
	<trkpt lat="50.699717" lon="6.184118">
		<ele>259</ele>
		<time>2011-09-11T10:09:49.900Z</time>
		<geoidheight>213</geoidheight>
	</trkpt>
	<trkpt lat="50.699709" lon="6.184140">
		<ele>259</ele>
		<time>2011-09-11T10:09:50.898Z</time>
		<geoidheight>213</geoidheight>
	</trkpt>
	<trkpt lat="50.699703" lon="6.184159">
		<ele>259</ele>
		<time>2011-09-11T10:09:51.896Z</time>
		<geoidheight>213</geoidheight>
	</trkpt>
	<trkpt lat="50.699700" lon="6.184177">
		<ele>259</ele>
		<time>2011-09-11T10:09:52.899Z</time>
		<geoidheight>213</geoidheight>
	</trkpt>
	<trkpt lat="50.699700" lon="6.184177">
		<ele>259</ele>
		<time>2011-09-11T10:09:58.907Z</time>
		<geoidheight>213</geoidheight>
	</trkpt>
	<trkpt lat="50.699662" lon="6.184237">
		<ele>259</ele>
		<time>2011-09-11T10:09:59.902Z</time>
		<geoidheight>213</geoidheight>
	</trkpt>
	<trkpt lat="50.699662" lon="6.184237">
		<ele>259</ele>
		<time>2011-09-11T10:10:00.898Z</time>
		<geoidheight>213</geoidheight>
	</trkpt>
	<trkpt lat="50.699646" lon="6.184262">
		<ele>259</ele>
		<time>2011-09-11T10:10:01.897Z</time>
		<geoidheight>213</geoidheight>
	</trkpt>
	<trkpt lat="50.699620" lon="6.184292">
		<ele>259</ele>
		<time>2011-09-11T10:10:02.898Z</time>
		<geoidheight>213</geoidheight>
	</trkpt>
	<trkpt lat="50.699590" lon="6.184327">
		<ele>259</ele>
		<time>2011-09-11T10:10:03.897Z</time>
		<geoidheight>213</geoidheight>
	</trkpt>
	<trkpt lat="50.699561" lon="6.184361">
		<ele>259</ele>
		<time>2011-09-11T10:10:04.911Z</time>
		<geoidheight>213</geoidheight>
	</trkpt>
	<trkpt lat="50.699534" lon="6.184396">
		<ele>259</ele>
		<time>2011-09-11T10:10:05.898Z</time>
		<geoidheight>213</geoidheight>
	</trkpt>
	<trkpt lat="50.699520" lon="6.184434">
		<ele>259</ele>
		<time>2011-09-11T10:10:06.897Z</time>
		<geoidheight>213</geoidheight>
	</trkpt>
	<trkpt lat="50.699510" lon="6.184466">
		<ele>259</ele>
		<time>2011-09-11T10:10:07.898Z</time>
		<geoidheight>213</geoidheight>
	</trkpt>
	<trkpt lat="50.699507" lon="6.184488">
		<ele>259</ele>
		<time>2011-09-11T10:10:08.899Z</time>
		<geoidheight>213</geoidheight>
	</trkpt>
	<trkpt lat="50.699516" lon="6.184495">
		<ele>259</ele>
		<time>2011-09-11T10:10:09.898Z</time>
		<geoidheight>213</geoidheight>
	</trkpt>
	<trkpt lat="50.699520" lon="6.184516">
		<ele>259</ele>
		<time>2011-09-11T10:10:10.898Z</time>
		<geoidheight>213</geoidheight>
	</trkpt>
	<trkpt lat="50.699523" lon="6.184541">
		<ele>259</ele>
		<time>2011-09-11T10:10:11.904Z</time>
		<geoidheight>213</geoidheight>
	</trkpt>
	<trkpt lat="50.699527" lon="6.184564">
		<ele>259</ele>
		<time>2011-09-11T10:10:12.902Z</time>
		<geoidheight>213</geoidheight>
	</trkpt>
	<trkpt lat="50.699528" lon="6.184582">
		<ele>259</ele>
		<time>2011-09-11T10:10:13.903Z</time>
		<geoidheight>213</geoidheight>
	</trkpt>
	<trkpt lat="50.699530" lon="6.184598">
		<ele>259</ele>
		<time>2011-09-11T10:10:14.898Z</time>
		<geoidheight>213</geoidheight>
	</trkpt>
	<trkpt lat="50.699531" lon="6.184616">
		<ele>259</ele>
		<time>2011-09-11T10:10:15.902Z</time>
		<geoidheight>213</geoidheight>
	</trkpt>
	<trkpt lat="50.699533" lon="6.184636">
		<ele>259</ele>
		<time>2011-09-11T10:10:16.920Z</time>
		<geoidheight>213</geoidheight>
	</trkpt>
	<trkpt lat="50.699538" lon="6.184653">
		<ele>259</ele>
		<time>2011-09-11T10:10:17.906Z</time>
		<geoidheight>213</geoidheight>
	</trkpt>
	<trkpt lat="50.699540" lon="6.184668">
		<ele>259</ele>
		<time>2011-09-11T10:10:18.911Z</time>
		<geoidheight>213</geoidheight>
	</trkpt>
	<trkpt lat="50.699541" lon="6.184686">
		<ele>259</ele>
		<time>2011-09-11T10:10:19.898Z</time>
		<geoidheight>213</geoidheight>
	</trkpt>
	<trkpt lat="50.699538" lon="6.184702">
		<ele>259</ele>
		<time>2011-09-11T10:10:20.897Z</time>
		<geoidheight>213</geoidheight>
	</trkpt>
	<trkpt lat="50.699537" lon="6.184720">
		<ele>259</ele>
		<time>2011-09-11T10:10:21.899Z</time>
		<geoidheight>213</geoidheight>
	</trkpt>
	<trkpt lat="50.699536" lon="6.184738">
		<ele>259</ele>
		<time>2011-09-11T10:10:22.899Z</time>
		<geoidheight>213</geoidheight>
	</trkpt>
	<trkpt lat="50.699535" lon="6.184754">
		<ele>259</ele>
		<time>2011-09-11T10:10:23.898Z</time>
		<geoidheight>213</geoidheight>
	</trkpt>
	<trkpt lat="50.699535" lon="6.184770">
		<ele>259</ele>
		<time>2011-09-11T10:10:24.900Z</time>
		<geoidheight>213</geoidheight>
	</trkpt>
	<trkpt lat="50.699540" lon="6.184787">
		<ele>259</ele>
		<time>2011-09-11T10:10:25.898Z</time>
		<geoidheight>213</geoidheight>
	</trkpt>
	<trkpt lat="50.699544" lon="6.184804">
		<ele>259</ele>
		<time>2011-09-11T10:10:26.897Z</time>
		<geoidheight>213</geoidheight>
	</trkpt>
	<trkpt lat="50.699547" lon="6.184822">
		<ele>259</ele>
		<time>2011-09-11T10:10:27.897Z</time>
		<geoidheight>213</geoidheight>
	</trkpt>
	<trkpt lat="50.699550" lon="6.184840">
		<ele>259</ele>
		<time>2011-09-11T10:10:28.897Z</time>
		<geoidheight>213</geoidheight>
	</trkpt>
	<trkpt lat="50.699554" lon="6.184856">
		<ele>259</ele>
		<time>2011-09-11T10:10:29.897Z</time>
		<geoidheight>213</geoidheight>
	</trkpt>
	<trkpt lat="50.699559" lon="6.184868">
		<ele>259</ele>
		<time>2011-09-11T10:10:30.905Z</time>
		<geoidheight>213</geoidheight>
	</trkpt>
	<trkpt lat="50.699565" lon="6.184877">
		<ele>259</ele>
		<time>2011-09-11T10:10:31.904Z</time>
		<geoidheight>213</geoidheight>
	</trkpt>
	<trkpt lat="50.699565" lon="6.184877">
		<ele>259</ele>
		<time>2011-09-11T10:10:32.913Z</time>
		<geoidheight>213</geoidheight>
	</trkpt>
	<trkpt lat="50.699565" lon="6.184877">
		<ele>259</ele>
		<time>2011-09-11T10:10:35.900Z</time>
		<geoidheight>213</geoidheight>
	</trkpt>
	<trkpt lat="50.699563" lon="6.184918">
		<ele>259</ele>
		<time>2011-09-11T10:10:36.897Z</time>
		<geoidheight>213</geoidheight>
	</trkpt>
	<trkpt lat="50.699559" lon="6.184936">
		<ele>259</ele>
		<time>2011-09-11T10:10:37.899Z</time>
		<geoidheight>213</geoidheight>
	</trkpt>
	<trkpt lat="50.699554" lon="6.184954">
		<ele>259</ele>
		<time>2011-09-11T10:10:38.897Z</time>
		<geoidheight>213</geoidheight>
	</trkpt>
	<trkpt lat="50.699548" lon="6.184972">
		<ele>259</ele>
		<time>2011-09-11T10:10:39.897Z</time>
		<geoidheight>213</geoidheight>
	</trkpt>
	<trkpt lat="50.699542" lon="6.184989">
		<ele>259</ele>
		<time>2011-09-11T10:10:40.899Z</time>
		<geoidheight>213</geoidheight>
	</trkpt>
	<trkpt lat="50.699536" lon="6.185004">
		<ele>259</ele>
		<time>2011-09-11T10:10:41.898Z</time>
		<geoidheight>213</geoidheight>
	</trkpt>
	<trkpt lat="50.699528" lon="6.185017">
		<ele>259</ele>
		<time>2011-09-11T10:10:42.897Z</time>
		<geoidheight>213</geoidheight>
	</trkpt>
	<trkpt lat="50.699520" lon="6.185027">
		<ele>260</ele>
		<time>2011-09-11T10:10:43.916Z</time>
		<geoidheight>214</geoidheight>
	</trkpt>
	<trkpt lat="50.699509" lon="6.185039">
		<ele>260</ele>
		<time>2011-09-11T10:10:44.897Z</time>
		<geoidheight>214</geoidheight>
	</trkpt>
	<trkpt lat="50.699509" lon="6.185039">
		<ele>260</ele>
		<time>2011-09-11T10:10:50.899Z</time>
		<geoidheight>214</geoidheight>
	</trkpt>
	<trkpt lat="50.699467" lon="6.185069">
		<ele>260</ele>
		<time>2011-09-11T10:10:51.897Z</time>
		<geoidheight>214</geoidheight>
	</trkpt>
	<trkpt lat="50.699467" lon="6.185069">
		<ele>260</ele>
		<time>2011-09-11T10:10:57.897Z</time>
		<geoidheight>214</geoidheight>
	</trkpt>
	<trkpt lat="50.699440" lon="6.185070">
		<ele>260</ele>
		<time>2011-09-11T10:10:58.898Z</time>
		<geoidheight>214</geoidheight>
	</trkpt>
	<trkpt lat="50.699429" lon="6.185058">
		<ele>260</ele>
		<time>2011-09-11T10:10:59.897Z</time>
		<geoidheight>214</geoidheight>
	</trkpt>
	<trkpt lat="50.699417" lon="6.185043">
		<ele>259</ele>
		<time>2011-09-11T10:11:00.899Z</time>
		<geoidheight>213</geoidheight>
	</trkpt>
	<trkpt lat="50.699403" lon="6.185032">
		<ele>259</ele>
		<time>2011-09-11T10:11:01.897Z</time>
		<geoidheight>213</geoidheight>
	</trkpt>
	<trkpt lat="50.699386" lon="6.185024">
		<ele>259</ele>
		<time>2011-09-11T10:11:02.898Z</time>
		<geoidheight>213</geoidheight>
	</trkpt>
	<trkpt lat="50.699360" lon="6.185019">
		<ele>259</ele>
		<time>2011-09-11T10:11:03.898Z</time>
		<geoidheight>213</geoidheight>
	</trkpt>
	<trkpt lat="50.699321" lon="6.185024">
		<ele>259</ele>
		<time>2011-09-11T10:11:04.898Z</time>
		<geoidheight>213</geoidheight>
	</trkpt>
	<trkpt lat="50.699291" lon="6.185022">
		<ele>259</ele>
		<time>2011-09-11T10:11:05.897Z</time>
		<geoidheight>213</geoidheight>
	</trkpt>
	<trkpt lat="50.699267" lon="6.185017">
		<ele>260</ele>
		<time>2011-09-11T10:11:06.900Z</time>
		<geoidheight>214</geoidheight>
	</trkpt>
	<trkpt lat="50.699254" lon="6.185013">
		<ele>260</ele>
		<time>2011-09-11T10:11:07.897Z</time>
		<geoidheight>214</geoidheight>
	</trkpt>
	<trkpt lat="50.699240" lon="6.185011">
		<ele>260</ele>
		<time>2011-09-11T10:11:08.898Z</time>
		<geoidheight>214</geoidheight>
	</trkpt>
	<trkpt lat="50.699231" lon="6.185007">
		<ele>260</ele>
		<time>2011-09-11T10:11:09.900Z</time>
		<geoidheight>214</geoidheight>
	</trkpt>
	<trkpt lat="50.699218" lon="6.185002">
		<ele>260</ele>
		<time>2011-09-11T10:11:10.898Z</time>
		<geoidheight>214</geoidheight>
	</trkpt>
	<trkpt lat="50.699207" lon="6.184994">
		<ele>260</ele>
		<time>2011-09-11T10:11:11.900Z</time>
		<geoidheight>214</geoidheight>
	</trkpt>
	<trkpt lat="50.699200" lon="6.184983">
		<ele>260</ele>
		<time>2011-09-11T10:11:12.900Z</time>
		<geoidheight>214</geoidheight>
	</trkpt>
	<trkpt lat="50.699192" lon="6.184972">
		<ele>260</ele>
		<time>2011-09-11T10:11:13.899Z</time>
		<geoidheight>214</geoidheight>
	</trkpt>
	<trkpt lat="50.699183" lon="6.184960">
		<ele>260</ele>
		<time>2011-09-11T10:11:14.898Z</time>
		<geoidheight>214</geoidheight>
	</trkpt>
	<trkpt lat="50.699173" lon="6.184947">
		<ele>260</ele>
		<time>2011-09-11T10:11:15.900Z</time>
		<geoidheight>214</geoidheight>
	</trkpt>
	<trkpt lat="50.699161" lon="6.184937">
		<ele>260</ele>
		<time>2011-09-11T10:11:16.900Z</time>
		<geoidheight>214</geoidheight>
	</trkpt>
	<trkpt lat="50.699150" lon="6.184927">
		<ele>260</ele>
		<time>2011-09-11T10:11:17.897Z</time>
		<geoidheight>214</geoidheight>
	</trkpt>
	<trkpt lat="50.699141" lon="6.184911">
		<ele>260</ele>
		<time>2011-09-11T10:11:18.897Z</time>
		<geoidheight>214</geoidheight>
	</trkpt>
	<trkpt lat="50.699133" lon="6.184901">
		<ele>260</ele>
		<time>2011-09-11T10:11:19.898Z</time>
		<geoidheight>214</geoidheight>
	</trkpt>
	<trkpt lat="50.699127" lon="6.184892">
		<ele>260</ele>
		<time>2011-09-11T10:11:20.897Z</time>
		<geoidheight>214</geoidheight>
	</trkpt>
	<trkpt lat="50.699128" lon="6.184880">
		<ele>260</ele>
		<time>2011-09-11T10:11:21.900Z</time>
		<geoidheight>214</geoidheight>
	</trkpt>
	<trkpt lat="50.699130" lon="6.184867">
		<ele>260</ele>
		<time>2011-09-11T10:11:22.899Z</time>
		<geoidheight>214</geoidheight>
	</trkpt>
	<trkpt lat="50.699125" lon="6.184857">
		<ele>260</ele>
		<time>2011-09-11T10:11:23.899Z</time>
		<geoidheight>214</geoidheight>
	</trkpt>
	<trkpt lat="50.699121" lon="6.184849">
		<ele>260</ele>
		<time>2011-09-11T10:11:24.899Z</time>
		<geoidheight>214</geoidheight>
	</trkpt>
	<trkpt lat="50.699117" lon="6.184842">
		<ele>260</ele>
		<time>2011-09-11T10:11:25.900Z</time>
		<geoidheight>214</geoidheight>
	</trkpt>
	<trkpt lat="50.699112" lon="6.184835">
		<ele>260</ele>
		<time>2011-09-11T10:11:26.899Z</time>
		<geoidheight>214</geoidheight>
	</trkpt>
	<trkpt lat="50.699105" lon="6.184825">
		<ele>260</ele>
		<time>2011-09-11T10:11:27.898Z</time>
		<geoidheight>214</geoidheight>
	</trkpt>
	<trkpt lat="50.699098" lon="6.184817">
		<ele>260</ele>
		<time>2011-09-11T10:11:28.901Z</time>
		<geoidheight>214</geoidheight>
	</trkpt>
	<trkpt lat="50.699089" lon="6.184812">
		<ele>260</ele>
		<time>2011-09-11T10:11:29.898Z</time>
		<geoidheight>214</geoidheight>
	</trkpt>
	<trkpt lat="50.699080" lon="6.184805">
		<ele>260</ele>
		<time>2011-09-11T10:11:30.899Z</time>
		<geoidheight>214</geoidheight>
	</trkpt>
	<trkpt lat="50.699072" lon="6.184798">
		<ele>260</ele>
		<time>2011-09-11T10:11:31.898Z</time>
		<geoidheight>214</geoidheight>
	</trkpt>
	<trkpt lat="50.699063" lon="6.184791">
		<ele>260</ele>
		<time>2011-09-11T10:11:32.901Z</time>
		<geoidheight>214</geoidheight>
	</trkpt>
	<trkpt lat="50.699052" lon="6.184784">
		<ele>260</ele>
		<time>2011-09-11T10:11:33.898Z</time>
		<geoidheight>214</geoidheight>
	</trkpt>
	<trkpt lat="50.699041" lon="6.184779">
		<ele>260</ele>
		<time>2011-09-11T10:11:34.899Z</time>
		<geoidheight>214</geoidheight>
	</trkpt>
	<trkpt lat="50.699031" lon="6.184772">
		<ele>260</ele>
		<time>2011-09-11T10:11:35.899Z</time>
		<geoidheight>214</geoidheight>
	</trkpt>
	<trkpt lat="50.699021" lon="6.184766">
		<ele>260</ele>
		<time>2011-09-11T10:11:36.898Z</time>
		<geoidheight>214</geoidheight>
	</trkpt>
	<trkpt lat="50.699011" lon="6.184757">
		<ele>260</ele>
		<time>2011-09-11T10:11:37.899Z</time>
		<geoidheight>214</geoidheight>
	</trkpt>
	<trkpt lat="50.699001" lon="6.184751">
		<ele>260</ele>
		<time>2011-09-11T10:11:38.901Z</time>
		<geoidheight>214</geoidheight>
	</trkpt>
	<trkpt lat="50.698992" lon="6.184743">
		<ele>260</ele>
		<time>2011-09-11T10:11:39.898Z</time>
		<geoidheight>214</geoidheight>
	</trkpt>
	<trkpt lat="50.698983" lon="6.184735">
		<ele>260</ele>
		<time>2011-09-11T10:11:40.903Z</time>
		<geoidheight>214</geoidheight>
	</trkpt>
	<trkpt lat="50.698972" lon="6.184730">
		<ele>260</ele>
		<time>2011-09-11T10:11:41.900Z</time>
		<geoidheight>214</geoidheight>
	</trkpt>
	<trkpt lat="50.698962" lon="6.184720">
		<ele>260</ele>
		<time>2011-09-11T10:11:42.900Z</time>
		<geoidheight>214</geoidheight>
	</trkpt>
	<trkpt lat="50.698953" lon="6.184709">
		<ele>260</ele>
		<time>2011-09-11T10:11:43.898Z</time>
		<geoidheight>214</geoidheight>
	</trkpt>
	<trkpt lat="50.698944" lon="6.184699">
		<ele>260</ele>
		<time>2011-09-11T10:11:44.900Z</time>
		<geoidheight>214</geoidheight>
	</trkpt>
	<trkpt lat="50.698934" lon="6.184690">
		<ele>260</ele>
		<time>2011-09-11T10:11:45.903Z</time>
		<geoidheight>214</geoidheight>
	</trkpt>
	<trkpt lat="50.698925" lon="6.184683">
		<ele>260</ele>
		<time>2011-09-11T10:11:46.900Z</time>
		<geoidheight>214</geoidheight>
	</trkpt>
	<trkpt lat="50.698913" lon="6.184679">
		<ele>260</ele>
		<time>2011-09-11T10:11:47.898Z</time>
		<geoidheight>214</geoidheight>
	</trkpt>
	<trkpt lat="50.698900" lon="6.184674">
		<ele>260</ele>
		<time>2011-09-11T10:11:48.901Z</time>
		<geoidheight>214</geoidheight>
	</trkpt>
	<trkpt lat="50.698889" lon="6.184656">
		<ele>259</ele>
		<time>2011-09-11T10:11:49.898Z</time>
		<geoidheight>213</geoidheight>
	</trkpt>
	<trkpt lat="50.698876" lon="6.184637">
		<ele>259</ele>
		<time>2011-09-11T10:11:50.898Z</time>
		<geoidheight>213</geoidheight>
	</trkpt>
	<trkpt lat="50.698866" lon="6.184618">
		<ele>259</ele>
		<time>2011-09-11T10:11:51.900Z</time>
		<geoidheight>213</geoidheight>
	</trkpt>
	<trkpt lat="50.698857" lon="6.184598">
		<ele>258</ele>
		<time>2011-09-11T10:11:52.899Z</time>
		<geoidheight>212</geoidheight>
	</trkpt>
	<trkpt lat="50.698847" lon="6.184577">
		<ele>258</ele>
		<time>2011-09-11T10:11:53.900Z</time>
		<geoidheight>212</geoidheight>
	</trkpt>
	<trkpt lat="50.698847" lon="6.184577">
		<ele>258</ele>
		<time>2011-09-11T10:11:54.900Z</time>
		<geoidheight>212</geoidheight>
	</trkpt>
	<trkpt lat="50.698847" lon="6.184577">
		<ele>258</ele>
		<time>2011-09-11T10:11:56.898Z</time>
		<geoidheight>212</geoidheight>
	</trkpt>
	<trkpt lat="50.698799" lon="6.184554">
		<ele>257</ele>
		<time>2011-09-11T10:11:57.898Z</time>
		<geoidheight>211</geoidheight>
	</trkpt>
	<trkpt lat="50.698799" lon="6.184554">
		<ele>256</ele>
		<time>2011-09-11T10:11:59.916Z</time>
		<geoidheight>210</geoidheight>
	</trkpt>
	<trkpt lat="50.698770" lon="6.184547">
		<ele>255</ele>
		<time>2011-09-11T10:12:00.910Z</time>
		<geoidheight>209</geoidheight>
	</trkpt>
	<trkpt lat="50.698762" lon="6.184546">
		<ele>255</ele>
		<time>2011-09-11T10:12:01.917Z</time>
		<geoidheight>209</geoidheight>
	</trkpt>
	<trkpt lat="50.698755" lon="6.184545">
		<ele>254</ele>
		<time>2011-09-11T10:12:02.911Z</time>
		<geoidheight>208</geoidheight>
	</trkpt>
	<trkpt lat="50.698745" lon="6.184526">
		<ele>254</ele>
		<time>2011-09-11T10:12:03.899Z</time>
		<geoidheight>208</geoidheight>
	</trkpt>
	<trkpt lat="50.698741" lon="6.184510">
		<ele>253</ele>
		<time>2011-09-11T10:12:04.901Z</time>
		<geoidheight>207</geoidheight>
	</trkpt>
	<trkpt lat="50.698742" lon="6.184487">
		<ele>253</ele>
		<time>2011-09-11T10:12:05.897Z</time>
		<geoidheight>207</geoidheight>
	</trkpt>
	<trkpt lat="50.698744" lon="6.184467">
		<ele>253</ele>
		<time>2011-09-11T10:12:06.898Z</time>
		<geoidheight>207</geoidheight>
	</trkpt>
	<trkpt lat="50.698748" lon="6.184448">
		<ele>252</ele>
		<time>2011-09-11T10:12:07.904Z</time>
		<geoidheight>206</geoidheight>
	</trkpt>
	<trkpt lat="50.698748" lon="6.184448">
		<ele>252</ele>
		<time>2011-09-11T10:12:09.897Z</time>
		<geoidheight>206</geoidheight>
	</trkpt>
	<trkpt lat="50.698757" lon="6.184411">
		<ele>252</ele>
		<time>2011-09-11T10:12:10.900Z</time>
		<geoidheight>206</geoidheight>
	</trkpt>
	<trkpt lat="50.698760" lon="6.184395">
		<ele>252</ele>
		<time>2011-09-11T10:12:11.897Z</time>
		<geoidheight>206</geoidheight>
	</trkpt>
	<trkpt lat="50.698760" lon="6.184376">
		<ele>252</ele>
		<time>2011-09-11T10:12:12.898Z</time>
		<geoidheight>206</geoidheight>
	</trkpt>
	<trkpt lat="50.698764" lon="6.184356">
		<ele>251</ele>
		<time>2011-09-11T10:12:13.900Z</time>
		<geoidheight>205</geoidheight>
	</trkpt>
	<trkpt lat="50.698767" lon="6.184336">
		<ele>251</ele>
		<time>2011-09-11T10:12:14.913Z</time>
		<geoidheight>205</geoidheight>
	</trkpt>
	<trkpt lat="50.698770" lon="6.184315">
		<ele>251</ele>
		<time>2011-09-11T10:12:15.899Z</time>
		<geoidheight>205</geoidheight>
	</trkpt>
	<trkpt lat="50.698771" lon="6.184291">
		<ele>251</ele>
		<time>2011-09-11T10:12:16.898Z</time>
		<geoidheight>205</geoidheight>
	</trkpt>
	<trkpt lat="50.698772" lon="6.184265">
		<ele>251</ele>
		<time>2011-09-11T10:12:17.899Z</time>
		<geoidheight>205</geoidheight>
	</trkpt>
	<trkpt lat="50.698770" lon="6.184237">
		<ele>251</ele>
		<time>2011-09-11T10:12:18.899Z</time>
		<geoidheight>205</geoidheight>
	</trkpt>
	<trkpt lat="50.698768" lon="6.184211">
		<ele>251</ele>
		<time>2011-09-11T10:12:19.900Z</time>
		<geoidheight>205</geoidheight>
	</trkpt>
	<trkpt lat="50.698766" lon="6.184183">
		<ele>251</ele>
		<time>2011-09-11T10:12:20.900Z</time>
		<geoidheight>205</geoidheight>
	</trkpt>
	<trkpt lat="50.698764" lon="6.184154">
		<ele>251</ele>
		<time>2011-09-11T10:12:21.928Z</time>
		<geoidheight>205</geoidheight>
	</trkpt>
	<trkpt lat="50.698758" lon="6.184133">
		<ele>250</ele>
		<time>2011-09-11T10:12:22.903Z</time>
		<geoidheight>204</geoidheight>
	</trkpt>
	<trkpt lat="50.698751" lon="6.184115">
		<ele>250</ele>
		<time>2011-09-11T10:12:23.902Z</time>
		<geoidheight>204</geoidheight>
	</trkpt>
	<trkpt lat="50.698743" lon="6.184102">
		<ele>250</ele>
		<time>2011-09-11T10:12:24.898Z</time>
		<geoidheight>204</geoidheight>
	</trkpt>
	<trkpt lat="50.698733" lon="6.184095">
		<ele>250</ele>
		<time>2011-09-11T10:12:25.901Z</time>
		<geoidheight>204</geoidheight>
	</trkpt>
	<trkpt lat="50.698722" lon="6.184084">
		<ele>250</ele>
		<time>2011-09-11T10:12:26.910Z</time>
		<geoidheight>204</geoidheight>
	</trkpt>
	<trkpt lat="50.698713" lon="6.184081">
		<ele>250</ele>
		<time>2011-09-11T10:12:27.901Z</time>
		<geoidheight>204</geoidheight>
	</trkpt>
	<trkpt lat="50.698705" lon="6.184079">
		<ele>250</ele>
		<time>2011-09-11T10:12:28.916Z</time>
		<geoidheight>204</geoidheight>
	</trkpt>
	<trkpt lat="50.698697" lon="6.184079">
		<ele>250</ele>
		<time>2011-09-11T10:12:29.913Z</time>
		<geoidheight>204</geoidheight>
	</trkpt>
	<trkpt lat="50.698689" lon="6.184079">
		<ele>250</ele>
		<time>2011-09-11T10:12:30.903Z</time>
		<geoidheight>204</geoidheight>
	</trkpt>
	<trkpt lat="50.698682" lon="6.184080">
		<ele>249</ele>
		<time>2011-09-11T10:12:31.912Z</time>
		<geoidheight>203</geoidheight>
	</trkpt>
	<trkpt lat="50.698677" lon="6.184085">
		<ele>249</ele>
		<time>2011-09-11T10:12:32.912Z</time>
		<geoidheight>203</geoidheight>
	</trkpt>
	<trkpt lat="50.698672" lon="6.184092">
		<ele>249</ele>
		<time>2011-09-11T10:12:33.911Z</time>
		<geoidheight>203</geoidheight>
	</trkpt>
	<trkpt lat="50.698666" lon="6.184096">
		<ele>249</ele>
		<time>2011-09-11T10:12:34.912Z</time>
		<geoidheight>203</geoidheight>
	</trkpt>
	<trkpt lat="50.698659" lon="6.184097">
		<ele>249</ele>
		<time>2011-09-11T10:12:35.906Z</time>
		<geoidheight>203</geoidheight>
	</trkpt>
	<trkpt lat="50.698651" lon="6.184099">
		<ele>249</ele>
		<time>2011-09-11T10:12:36.904Z</time>
		<geoidheight>203</geoidheight>
	</trkpt>
	<trkpt lat="50.698644" lon="6.184108">
		<ele>249</ele>
		<time>2011-09-11T10:12:37.913Z</time>
		<geoidheight>203</geoidheight>
	</trkpt>
	<trkpt lat="50.698638" lon="6.184115">
		<ele>249</ele>
		<time>2011-09-11T10:12:38.905Z</time>
		<geoidheight>203</geoidheight>
	</trkpt>
	<trkpt lat="50.698632" lon="6.184118">
		<ele>249</ele>
		<time>2011-09-11T10:12:39.903Z</time>
		<geoidheight>203</geoidheight>
	</trkpt>
	<trkpt lat="50.698623" lon="6.184116">
		<ele>249</ele>
		<time>2011-09-11T10:12:40.899Z</time>
		<geoidheight>203</geoidheight>
	</trkpt>
	<trkpt lat="50.698614" lon="6.184118">
		<ele>249</ele>
		<time>2011-09-11T10:12:41.907Z</time>
		<geoidheight>203</geoidheight>
	</trkpt>
	<trkpt lat="50.698604" lon="6.184125">
		<ele>249</ele>
		<time>2011-09-11T10:12:42.912Z</time>
		<geoidheight>203</geoidheight>
	</trkpt>
	<trkpt lat="50.698595" lon="6.184135">
		<ele>249</ele>
		<time>2011-09-11T10:12:43.896Z</time>
		<geoidheight>203</geoidheight>
	</trkpt>
	<trkpt lat="50.698586" lon="6.184143">
		<ele>249</ele>
		<time>2011-09-11T10:12:44.898Z</time>
		<geoidheight>203</geoidheight>
	</trkpt>
	<trkpt lat="50.698576" lon="6.184150">
		<ele>249</ele>
		<time>2011-09-11T10:12:45.898Z</time>
		<geoidheight>203</geoidheight>
	</trkpt>
	<trkpt lat="50.698566" lon="6.184156">
		<ele>249</ele>
		<time>2011-09-11T10:12:46.900Z</time>
		<geoidheight>203</geoidheight>
	</trkpt>
	<trkpt lat="50.698559" lon="6.184164">
		<ele>249</ele>
		<time>2011-09-11T10:12:47.898Z</time>
		<geoidheight>203</geoidheight>
	</trkpt>
	<trkpt lat="50.698552" lon="6.184171">
		<ele>249</ele>
		<time>2011-09-11T10:12:48.898Z</time>
		<geoidheight>203</geoidheight>
	</trkpt>
	<trkpt lat="50.698544" lon="6.184181">
		<ele>249</ele>
		<time>2011-09-11T10:12:49.901Z</time>
		<geoidheight>203</geoidheight>
	</trkpt>
	<trkpt lat="50.698535" lon="6.184187">
		<ele>249</ele>
		<time>2011-09-11T10:12:50.899Z</time>
		<geoidheight>203</geoidheight>
	</trkpt>
	<trkpt lat="50.698526" lon="6.184194">
		<ele>249</ele>
		<time>2011-09-11T10:12:51.899Z</time>
		<geoidheight>203</geoidheight>
	</trkpt>
	<trkpt lat="50.698517" lon="6.184202">
		<ele>249</ele>
		<time>2011-09-11T10:12:52.901Z</time>
		<geoidheight>203</geoidheight>
	</trkpt>
	<trkpt lat="50.698507" lon="6.184204">
		<ele>249</ele>
		<time>2011-09-11T10:12:53.903Z</time>
		<geoidheight>203</geoidheight>
	</trkpt>
	<trkpt lat="50.698495" lon="6.184210">
		<ele>249</ele>
		<time>2011-09-11T10:12:54.899Z</time>
		<geoidheight>203</geoidheight>
	</trkpt>
	<trkpt lat="50.698485" lon="6.184207">
		<ele>249</ele>
		<time>2011-09-11T10:12:55.900Z</time>
		<geoidheight>203</geoidheight>
	</trkpt>
	<trkpt lat="50.698475" lon="6.184207">
		<ele>249</ele>
		<time>2011-09-11T10:12:56.898Z</time>
		<geoidheight>203</geoidheight>
	</trkpt>
	<trkpt lat="50.698463" lon="6.184218">
		<ele>249</ele>
		<time>2011-09-11T10:12:57.898Z</time>
		<geoidheight>203</geoidheight>
	</trkpt>
	<trkpt lat="50.698451" lon="6.184229">
		<ele>249</ele>
		<time>2011-09-11T10:12:58.901Z</time>
		<geoidheight>203</geoidheight>
	</trkpt>
	<trkpt lat="50.698438" lon="6.184240">
		<ele>249</ele>
		<time>2011-09-11T10:12:59.899Z</time>
		<geoidheight>203</geoidheight>
	</trkpt>
	<trkpt lat="50.698425" lon="6.184248">
		<ele>249</ele>
		<time>2011-09-11T10:13:00.898Z</time>
		<geoidheight>203</geoidheight>
	</trkpt>
	<trkpt lat="50.698414" lon="6.184272">
		<ele>249</ele>
		<time>2011-09-11T10:13:01.898Z</time>
		<geoidheight>203</geoidheight>
	</trkpt>
	<trkpt lat="50.698405" lon="6.184300">
		<ele>249</ele>
		<time>2011-09-11T10:13:02.897Z</time>
		<geoidheight>203</geoidheight>
	</trkpt>
	<trkpt lat="50.698394" lon="6.184318">
		<ele>249</ele>
		<time>2011-09-11T10:13:03.899Z</time>
		<geoidheight>203</geoidheight>
	</trkpt>
	<trkpt lat="50.698383" lon="6.184335">
		<ele>249</ele>
		<time>2011-09-11T10:13:04.898Z</time>
		<geoidheight>203</geoidheight>
	</trkpt>
	<trkpt lat="50.698370" lon="6.184346">
		<ele>249</ele>
		<time>2011-09-11T10:13:05.900Z</time>
		<geoidheight>203</geoidheight>
	</trkpt>
	<trkpt lat="50.698355" lon="6.184353">
		<ele>249</ele>
		<time>2011-09-11T10:13:06.897Z</time>
		<geoidheight>203</geoidheight>
	</trkpt>
	<trkpt lat="50.698343" lon="6.184358">
		<ele>249</ele>
		<time>2011-09-11T10:13:07.898Z</time>
		<geoidheight>203</geoidheight>
	</trkpt>
	<trkpt lat="50.698336" lon="6.184369">
		<ele>249</ele>
		<time>2011-09-11T10:13:08.900Z</time>
		<geoidheight>203</geoidheight>
	</trkpt>
	<trkpt lat="50.698328" lon="6.184382">
		<ele>249</ele>
		<time>2011-09-11T10:13:09.898Z</time>
		<geoidheight>203</geoidheight>
	</trkpt>
	<trkpt lat="50.698321" lon="6.184395">
		<ele>249</ele>
		<time>2011-09-11T10:13:10.898Z</time>
		<geoidheight>203</geoidheight>
	</trkpt>
	<trkpt lat="50.698313" lon="6.184400">
		<ele>249</ele>
		<time>2011-09-11T10:13:11.900Z</time>
		<geoidheight>203</geoidheight>
	</trkpt>
	<trkpt lat="50.698307" lon="6.184403">
		<ele>249</ele>
		<time>2011-09-11T10:13:12.898Z</time>
		<geoidheight>203</geoidheight>
	</trkpt>
	<trkpt lat="50.698300" lon="6.184404">
		<ele>250</ele>
		<time>2011-09-11T10:13:13.897Z</time>
		<geoidheight>204</geoidheight>
	</trkpt>
	<trkpt lat="50.698293" lon="6.184406">
		<ele>250</ele>
		<time>2011-09-11T10:13:14.898Z</time>
		<geoidheight>204</geoidheight>
	</trkpt>
	<trkpt lat="50.698286" lon="6.184410">
		<ele>250</ele>
		<time>2011-09-11T10:13:15.899Z</time>
		<geoidheight>204</geoidheight>
	</trkpt>
	<trkpt lat="50.698280" lon="6.184420">
		<ele>250</ele>
		<time>2011-09-11T10:13:16.899Z</time>
		<geoidheight>204</geoidheight>
	</trkpt>
	<trkpt lat="50.698272" lon="6.184429">
		<ele>250</ele>
		<time>2011-09-11T10:13:17.902Z</time>
		<geoidheight>204</geoidheight>
	</trkpt>
	<trkpt lat="50.698262" lon="6.184441">
		<ele>250</ele>
		<time>2011-09-11T10:13:18.900Z</time>
		<geoidheight>204</geoidheight>
	</trkpt>
	<trkpt lat="50.698251" lon="6.184452">
		<ele>250</ele>
		<time>2011-09-11T10:13:19.918Z</time>
		<geoidheight>204</geoidheight>
	</trkpt>
	<trkpt lat="50.698241" lon="6.184459">
		<ele>250</ele>
		<time>2011-09-11T10:13:20.912Z</time>
		<geoidheight>204</geoidheight>
	</trkpt>
	<trkpt lat="50.698229" lon="6.184468">
		<ele>250</ele>
		<time>2011-09-11T10:13:21.911Z</time>
		<geoidheight>204</geoidheight>
	</trkpt>
	<trkpt lat="50.698217" lon="6.184478">
		<ele>250</ele>
		<time>2011-09-11T10:13:22.902Z</time>
		<geoidheight>204</geoidheight>
	</trkpt>
	<trkpt lat="50.698204" lon="6.184491">
		<ele>250</ele>
		<time>2011-09-11T10:13:23.906Z</time>
		<geoidheight>204</geoidheight>
	</trkpt>
	<trkpt lat="50.698190" lon="6.184510">
		<ele>250</ele>
		<time>2011-09-11T10:13:24.905Z</time>
		<geoidheight>204</geoidheight>
	</trkpt>
	<trkpt lat="50.698176" lon="6.184524">
		<ele>250</ele>
		<time>2011-09-11T10:13:25.913Z</time>
		<geoidheight>204</geoidheight>
	</trkpt>
	<trkpt lat="50.698163" lon="6.184530">
		<ele>250</ele>
		<time>2011-09-11T10:13:26.912Z</time>
		<geoidheight>204</geoidheight>
	</trkpt>
	<trkpt lat="50.698149" lon="6.184546">
		<ele>250</ele>
		<time>2011-09-11T10:13:27.911Z</time>
		<geoidheight>204</geoidheight>
	</trkpt>
	<trkpt lat="50.698136" lon="6.184561">
		<ele>250</ele>
		<time>2011-09-11T10:13:28.913Z</time>
		<geoidheight>204</geoidheight>
	</trkpt>
	<trkpt lat="50.698123" lon="6.184578">
		<ele>250</ele>
		<time>2011-09-11T10:13:29.913Z</time>
		<geoidheight>204</geoidheight>
	</trkpt>
	<trkpt lat="50.698109" lon="6.184593">
		<ele>250</ele>
		<time>2011-09-11T10:13:30.907Z</time>
		<geoidheight>204</geoidheight>
	</trkpt>
	<trkpt lat="50.698095" lon="6.184608">
		<ele>250</ele>
		<time>2011-09-11T10:13:31.912Z</time>
		<geoidheight>204</geoidheight>
	</trkpt>
	<trkpt lat="50.698080" lon="6.184628">
		<ele>250</ele>
		<time>2011-09-11T10:13:32.906Z</time>
		<geoidheight>204</geoidheight>
	</trkpt>
	<trkpt lat="50.698065" lon="6.184646">
		<ele>251</ele>
		<time>2011-09-11T10:13:33.914Z</time>
		<geoidheight>205</geoidheight>
	</trkpt>
	<trkpt lat="50.698049" lon="6.184658">
		<ele>251</ele>
		<time>2011-09-11T10:13:34.911Z</time>
		<geoidheight>205</geoidheight>
	</trkpt>
	<trkpt lat="50.698034" lon="6.184671">
		<ele>251</ele>
		<time>2011-09-11T10:13:35.913Z</time>
		<geoidheight>205</geoidheight>
	</trkpt>
	<trkpt lat="50.698019" lon="6.184683">
		<ele>251</ele>
		<time>2011-09-11T10:13:36.912Z</time>
		<geoidheight>205</geoidheight>
	</trkpt>
	<trkpt lat="50.698005" lon="6.184693">
		<ele>251</ele>
		<time>2011-09-11T10:13:37.906Z</time>
		<geoidheight>205</geoidheight>
	</trkpt>
	<trkpt lat="50.697991" lon="6.184705">
		<ele>251</ele>
		<time>2011-09-11T10:13:38.911Z</time>
		<geoidheight>205</geoidheight>
	</trkpt>
	<trkpt lat="50.697977" lon="6.184718">
		<ele>251</ele>
		<time>2011-09-11T10:13:39.912Z</time>
		<geoidheight>205</geoidheight>
	</trkpt>
	<trkpt lat="50.697962" lon="6.184728">
		<ele>251</ele>
		<time>2011-09-11T10:13:40.902Z</time>
		<geoidheight>205</geoidheight>
	</trkpt>
	<trkpt lat="50.697948" lon="6.184738">
		<ele>251</ele>
		<time>2011-09-11T10:13:41.900Z</time>
		<geoidheight>205</geoidheight>
	</trkpt>
	<trkpt lat="50.697933" lon="6.184747">
		<ele>251</ele>
		<time>2011-09-11T10:13:42.899Z</time>
		<geoidheight>205</geoidheight>
	</trkpt>
	<trkpt lat="50.697918" lon="6.184750">
		<ele>251</ele>
		<time>2011-09-11T10:13:43.896Z</time>
		<geoidheight>205</geoidheight>
	</trkpt>
	<trkpt lat="50.697904" lon="6.184757">
		<ele>251</ele>
		<time>2011-09-11T10:13:44.910Z</time>
		<geoidheight>205</geoidheight>
	</trkpt>
	<trkpt lat="50.697890" lon="6.184771">
		<ele>251</ele>
		<time>2011-09-11T10:13:45.912Z</time>
		<geoidheight>205</geoidheight>
	</trkpt>
	<trkpt lat="50.697876" lon="6.184785">
		<ele>251</ele>
		<time>2011-09-11T10:13:46.912Z</time>
		<geoidheight>205</geoidheight>
	</trkpt>
	<trkpt lat="50.697862" lon="6.184797">
		<ele>251</ele>
		<time>2011-09-11T10:13:47.913Z</time>
		<geoidheight>205</geoidheight>
	</trkpt>
	<trkpt lat="50.697848" lon="6.184808">
		<ele>251</ele>
		<time>2011-09-11T10:13:48.906Z</time>
		<geoidheight>205</geoidheight>
	</trkpt>
	<trkpt lat="50.697833" lon="6.184821">
		<ele>251</ele>
		<time>2011-09-11T10:13:49.912Z</time>
		<geoidheight>205</geoidheight>
	</trkpt>
	<trkpt lat="50.697818" lon="6.184836">
		<ele>251</ele>
		<time>2011-09-11T10:13:50.913Z</time>
		<geoidheight>205</geoidheight>
	</trkpt>
	<trkpt lat="50.697803" lon="6.184849">
		<ele>251</ele>
		<time>2011-09-11T10:13:51.911Z</time>
		<geoidheight>205</geoidheight>
	</trkpt>
	<trkpt lat="50.697787" lon="6.184862">
		<ele>251</ele>
		<time>2011-09-11T10:13:52.911Z</time>
		<geoidheight>205</geoidheight>
	</trkpt>
	<trkpt lat="50.697771" lon="6.184874">
		<ele>251</ele>
		<time>2011-09-11T10:13:53.911Z</time>
		<geoidheight>205</geoidheight>
	</trkpt>
	<trkpt lat="50.697756" lon="6.184885">
		<ele>251</ele>
		<time>2011-09-11T10:13:54.910Z</time>
		<geoidheight>205</geoidheight>
	</trkpt>
	<trkpt lat="50.697740" lon="6.184896">
		<ele>251</ele>
		<time>2011-09-11T10:13:55.912Z</time>
		<geoidheight>205</geoidheight>
	</trkpt>
	<trkpt lat="50.697723" lon="6.184906">
		<ele>251</ele>
		<time>2011-09-11T10:13:56.900Z</time>
		<geoidheight>205</geoidheight>
	</trkpt>
	<trkpt lat="50.697707" lon="6.184916">
		<ele>251</ele>
		<time>2011-09-11T10:13:57.899Z</time>
		<geoidheight>205</geoidheight>
	</trkpt>
	<trkpt lat="50.697692" lon="6.184919">
		<ele>251</ele>
		<time>2011-09-11T10:13:58.899Z</time>
		<geoidheight>205</geoidheight>
	</trkpt>
	<trkpt lat="50.697677" lon="6.184916">
		<ele>252</ele>
		<time>2011-09-11T10:13:59.899Z</time>
		<geoidheight>206</geoidheight>
	</trkpt>
	<trkpt lat="50.697666" lon="6.184909">
		<ele>252</ele>
		<time>2011-09-11T10:14:00.900Z</time>
		<geoidheight>206</geoidheight>
	</trkpt>
	<trkpt lat="50.697655" lon="6.184901">
		<ele>252</ele>
		<time>2011-09-11T10:14:01.900Z</time>
		<geoidheight>206</geoidheight>
	</trkpt>
	<trkpt lat="50.697645" lon="6.184887">
		<ele>252</ele>
		<time>2011-09-11T10:14:02.899Z</time>
		<geoidheight>206</geoidheight>
	</trkpt>
	<trkpt lat="50.697632" lon="6.184877">
		<ele>252</ele>
		<time>2011-09-11T10:14:03.899Z</time>
		<geoidheight>206</geoidheight>
	</trkpt>
	<trkpt lat="50.697618" lon="6.184872">
		<ele>252</ele>
		<time>2011-09-11T10:14:04.901Z</time>
		<geoidheight>206</geoidheight>
	</trkpt>
	<trkpt lat="50.697603" lon="6.184865">
		<ele>252</ele>
		<time>2011-09-11T10:14:05.899Z</time>
		<geoidheight>206</geoidheight>
	</trkpt>
	<trkpt lat="50.697588" lon="6.184856">
		<ele>252</ele>
		<time>2011-09-11T10:14:06.899Z</time>
		<geoidheight>206</geoidheight>
	</trkpt>
	<trkpt lat="50.697555" lon="6.184825">
		<ele>252</ele>
		<time>2011-09-11T10:14:07.902Z</time>
		<geoidheight>206</geoidheight>
	</trkpt>
	<trkpt lat="50.697525" lon="6.184781">
		<ele>252</ele>
		<time>2011-09-11T10:14:08.899Z</time>
		<geoidheight>206</geoidheight>
	</trkpt>
	<trkpt lat="50.697497" lon="6.184749">
		<ele>252</ele>
		<time>2011-09-11T10:14:09.898Z</time>
		<geoidheight>206</geoidheight>
	</trkpt>
	<trkpt lat="50.697473" lon="6.184718">
		<ele>252</ele>
		<time>2011-09-11T10:14:10.900Z</time>
		<geoidheight>206</geoidheight>
	</trkpt>
	<trkpt lat="50.697461" lon="6.184703">
		<ele>252</ele>
		<time>2011-09-11T10:14:11.901Z</time>
		<geoidheight>206</geoidheight>
	</trkpt>
	<trkpt lat="50.697450" lon="6.184687">
		<ele>252</ele>
		<time>2011-09-11T10:14:12.899Z</time>
		<geoidheight>206</geoidheight>
	</trkpt>
	<trkpt lat="50.697438" lon="6.184673">
		<ele>252</ele>
		<time>2011-09-11T10:14:13.897Z</time>
		<geoidheight>206</geoidheight>
	</trkpt>
	<trkpt lat="50.697427" lon="6.184660">
		<ele>252</ele>
		<time>2011-09-11T10:14:14.900Z</time>
		<geoidheight>206</geoidheight>
	</trkpt>
	<trkpt lat="50.697416" lon="6.184646">
		<ele>253</ele>
		<time>2011-09-11T10:14:15.898Z</time>
		<geoidheight>207</geoidheight>
	</trkpt>
	<trkpt lat="50.697406" lon="6.184634">
		<ele>253</ele>
		<time>2011-09-11T10:14:16.900Z</time>
		<geoidheight>207</geoidheight>
	</trkpt>
	<trkpt lat="50.697393" lon="6.184631">
		<ele>253</ele>
		<time>2011-09-11T10:14:17.900Z</time>
		<geoidheight>207</geoidheight>
	</trkpt>
	<trkpt lat="50.697381" lon="6.184629">
		<ele>253</ele>
		<time>2011-09-11T10:14:18.904Z</time>
		<geoidheight>207</geoidheight>
	</trkpt>
	<trkpt lat="50.697369" lon="6.184634">
		<ele>253</ele>
		<time>2011-09-11T10:14:19.905Z</time>
		<geoidheight>207</geoidheight>
	</trkpt>
	<trkpt lat="50.697357" lon="6.184637">
		<ele>253</ele>
		<time>2011-09-11T10:14:20.918Z</time>
		<geoidheight>207</geoidheight>
	</trkpt>
	<trkpt lat="50.697345" lon="6.184640">
		<ele>253</ele>
		<time>2011-09-11T10:14:21.922Z</time>
		<geoidheight>207</geoidheight>
	</trkpt>
	<trkpt lat="50.697334" lon="6.184640">
		<ele>253</ele>
		<time>2011-09-11T10:14:22.918Z</time>
		<geoidheight>207</geoidheight>
	</trkpt>
	<trkpt lat="50.697324" lon="6.184640">
		<ele>253</ele>
		<time>2011-09-11T10:14:23.907Z</time>
		<geoidheight>207</geoidheight>
	</trkpt>
	<trkpt lat="50.697313" lon="6.184640">
		<ele>253</ele>
		<time>2011-09-11T10:14:24.904Z</time>
		<geoidheight>207</geoidheight>
	</trkpt>
	<trkpt lat="50.697303" lon="6.184638">
		<ele>253</ele>
		<time>2011-09-11T10:14:25.905Z</time>
		<geoidheight>207</geoidheight>
	</trkpt>
	<trkpt lat="50.697293" lon="6.184637">
		<ele>253</ele>
		<time>2011-09-11T10:14:26.912Z</time>
		<geoidheight>207</geoidheight>
	</trkpt>
	<trkpt lat="50.697285" lon="6.184634">
		<ele>253</ele>
		<time>2011-09-11T10:14:27.901Z</time>
		<geoidheight>207</geoidheight>
	</trkpt>
	<trkpt lat="50.697278" lon="6.184639">
		<ele>253</ele>
		<time>2011-09-11T10:14:28.899Z</time>
		<geoidheight>207</geoidheight>
	</trkpt>
	<trkpt lat="50.697271" lon="6.184648">
		<ele>253</ele>
		<time>2011-09-11T10:14:29.899Z</time>
		<geoidheight>207</geoidheight>
	</trkpt>
	<trkpt lat="50.697263" lon="6.184655">
		<ele>253</ele>
		<time>2011-09-11T10:14:30.900Z</time>
		<geoidheight>207</geoidheight>
	</trkpt>
	<trkpt lat="50.697256" lon="6.184663">
		<ele>253</ele>
		<time>2011-09-11T10:14:31.898Z</time>
		<geoidheight>207</geoidheight>
	</trkpt>
	<trkpt lat="50.697248" lon="6.184672">
		<ele>253</ele>
		<time>2011-09-11T10:14:32.899Z</time>
		<geoidheight>207</geoidheight>
	</trkpt>
	<trkpt lat="50.697239" lon="6.184680">
		<ele>253</ele>
		<time>2011-09-11T10:14:33.901Z</time>
		<geoidheight>207</geoidheight>
	</trkpt>
	<trkpt lat="50.697230" lon="6.184686">
		<ele>253</ele>
		<time>2011-09-11T10:14:34.899Z</time>
		<geoidheight>207</geoidheight>
	</trkpt>
	<trkpt lat="50.697219" lon="6.184683">
		<ele>253</ele>
		<time>2011-09-11T10:14:35.899Z</time>
		<geoidheight>207</geoidheight>
	</trkpt>
	<trkpt lat="50.697210" lon="6.184678">
		<ele>253</ele>
		<time>2011-09-11T10:14:36.901Z</time>
		<geoidheight>207</geoidheight>
	</trkpt>
	<trkpt lat="50.697200" lon="6.184675">
		<ele>253</ele>
		<time>2011-09-11T10:14:37.899Z</time>
		<geoidheight>207</geoidheight>
	</trkpt>
	<trkpt lat="50.697189" lon="6.184671">
		<ele>253</ele>
		<time>2011-09-11T10:14:38.898Z</time>
		<geoidheight>207</geoidheight>
	</trkpt>
	<trkpt lat="50.697179" lon="6.184668">
		<ele>253</ele>
		<time>2011-09-11T10:14:39.900Z</time>
		<geoidheight>207</geoidheight>
	</trkpt>
	<trkpt lat="50.697167" lon="6.184664">
		<ele>253</ele>
		<time>2011-09-11T10:14:40.899Z</time>
		<geoidheight>207</geoidheight>
	</trkpt>
	<trkpt lat="50.697154" lon="6.184660">
		<ele>253</ele>
		<time>2011-09-11T10:14:41.900Z</time>
		<geoidheight>207</geoidheight>
	</trkpt>
	<trkpt lat="50.697141" lon="6.184658">
		<ele>253</ele>
		<time>2011-09-11T10:14:42.900Z</time>
		<geoidheight>207</geoidheight>
	</trkpt>
	<trkpt lat="50.697129" lon="6.184648">
		<ele>253</ele>
		<time>2011-09-11T10:14:43.899Z</time>
		<geoidheight>207</geoidheight>
	</trkpt>
	<trkpt lat="50.697116" lon="6.184642">
		<ele>253</ele>
		<time>2011-09-11T10:14:44.900Z</time>
		<geoidheight>207</geoidheight>
	</trkpt>
	<trkpt lat="50.697102" lon="6.184639">
		<ele>253</ele>
		<time>2011-09-11T10:14:45.899Z</time>
		<geoidheight>207</geoidheight>
	</trkpt>
	<trkpt lat="50.697088" lon="6.184643">
		<ele>253</ele>
		<time>2011-09-11T10:14:46.903Z</time>
		<geoidheight>207</geoidheight>
	</trkpt>
	<trkpt lat="50.697074" lon="6.184645">
		<ele>253</ele>
		<time>2011-09-11T10:14:47.900Z</time>
		<geoidheight>207</geoidheight>
	</trkpt>
	<trkpt lat="50.697060" lon="6.184642">
		<ele>253</ele>
		<time>2011-09-11T10:14:48.898Z</time>
		<geoidheight>207</geoidheight>
	</trkpt>
	<trkpt lat="50.697046" lon="6.184644">
		<ele>253</ele>
		<time>2011-09-11T10:14:49.901Z</time>
		<geoidheight>207</geoidheight>
	</trkpt>
	<trkpt lat="50.697032" lon="6.184650">
		<ele>253</ele>
		<time>2011-09-11T10:14:50.899Z</time>
		<geoidheight>207</geoidheight>
	</trkpt>
	<trkpt lat="50.697016" lon="6.184649">
		<ele>253</ele>
		<time>2011-09-11T10:14:51.912Z</time>
		<geoidheight>207</geoidheight>
	</trkpt>
	<trkpt lat="50.696999" lon="6.184650">
		<ele>253</ele>
		<time>2011-09-11T10:14:52.904Z</time>
		<geoidheight>207</geoidheight>
	</trkpt>
	<trkpt lat="50.696984" lon="6.184653">
		<ele>253</ele>
		<time>2011-09-11T10:14:53.912Z</time>
		<geoidheight>207</geoidheight>
	</trkpt>
	<trkpt lat="50.696968" lon="6.184655">
		<ele>253</ele>
		<time>2011-09-11T10:14:54.898Z</time>
		<geoidheight>207</geoidheight>
	</trkpt>
	<trkpt lat="50.696953" lon="6.184656">
		<ele>253</ele>
		<time>2011-09-11T10:14:55.900Z</time>
		<geoidheight>207</geoidheight>
	</trkpt>
	<trkpt lat="50.696940" lon="6.184654">
		<ele>253</ele>
		<time>2011-09-11T10:14:56.900Z</time>
		<geoidheight>207</geoidheight>
	</trkpt>
	<trkpt lat="50.696926" lon="6.184653">
		<ele>253</ele>
		<time>2011-09-11T10:14:57.900Z</time>
		<geoidheight>207</geoidheight>
	</trkpt>
	<trkpt lat="50.696914" lon="6.184659">
		<ele>253</ele>
		<time>2011-09-11T10:14:58.901Z</time>
		<geoidheight>207</geoidheight>
	</trkpt>
	<trkpt lat="50.696902" lon="6.184662">
		<ele>253</ele>
		<time>2011-09-11T10:14:59.900Z</time>
		<geoidheight>207</geoidheight>
	</trkpt>
	<trkpt lat="50.696890" lon="6.184668">
		<ele>253</ele>
		<time>2011-09-11T10:15:00.900Z</time>
		<geoidheight>207</geoidheight>
	</trkpt>
	<trkpt lat="50.696878" lon="6.184671">
		<ele>253</ele>
		<time>2011-09-11T10:15:01.899Z</time>
		<geoidheight>207</geoidheight>
	</trkpt>
	<trkpt lat="50.696865" lon="6.184671">
		<ele>253</ele>
		<time>2011-09-11T10:15:02.901Z</time>
		<geoidheight>207</geoidheight>
	</trkpt>
	<trkpt lat="50.696851" lon="6.184672">
		<ele>253</ele>
		<time>2011-09-11T10:15:03.900Z</time>
		<geoidheight>207</geoidheight>
	</trkpt>
	<trkpt lat="50.696837" lon="6.184671">
		<ele>253</ele>
		<time>2011-09-11T10:15:04.900Z</time>
		<geoidheight>207</geoidheight>
	</trkpt>
	<trkpt lat="50.696823" lon="6.184673">
		<ele>253</ele>
		<time>2011-09-11T10:15:05.901Z</time>
		<geoidheight>207</geoidheight>
	</trkpt>
	<trkpt lat="50.696809" lon="6.184674">
		<ele>253</ele>
		<time>2011-09-11T10:15:06.901Z</time>
		<geoidheight>207</geoidheight>
	</trkpt>
	<trkpt lat="50.696794" lon="6.184675">
		<ele>253</ele>
		<time>2011-09-11T10:15:07.900Z</time>
		<geoidheight>207</geoidheight>
	</trkpt>
	<trkpt lat="50.696753" lon="6.184679">
		<ele>253</ele>
		<time>2011-09-11T10:15:08.904Z</time>
		<geoidheight>207</geoidheight>
	</trkpt>
	<trkpt lat="50.696712" lon="6.184680">
		<ele>254</ele>
		<time>2011-09-11T10:15:09.899Z</time>
		<geoidheight>208</geoidheight>
	</trkpt>
	<trkpt lat="50.696686" lon="6.184682">
		<ele>254</ele>
		<time>2011-09-11T10:15:10.901Z</time>
		<geoidheight>208</geoidheight>
	</trkpt>
	<trkpt lat="50.696675" lon="6.184683">
		<ele>254</ele>
		<time>2011-09-11T10:15:11.900Z</time>
		<geoidheight>208</geoidheight>
	</trkpt>
	<trkpt lat="50.696664" lon="6.184685">
		<ele>254</ele>
		<time>2011-09-11T10:15:12.903Z</time>
		<geoidheight>208</geoidheight>
	</trkpt>
	<trkpt lat="50.696660" lon="6.184684">
		<ele>254</ele>
		<time>2011-09-11T10:15:13.898Z</time>
		<geoidheight>208</geoidheight>
	</trkpt>
	<trkpt lat="50.696653" lon="6.184685">
		<ele>254</ele>
		<time>2011-09-11T10:15:14.900Z</time>
		<geoidheight>208</geoidheight>
	</trkpt>
	<trkpt lat="50.696644" lon="6.184687">
		<ele>254</ele>
		<time>2011-09-11T10:15:15.901Z</time>
		<geoidheight>208</geoidheight>
	</trkpt>
	<trkpt lat="50.696633" lon="6.184688">
		<ele>254</ele>
		<time>2011-09-11T10:15:16.900Z</time>
		<geoidheight>208</geoidheight>
	</trkpt>
	<trkpt lat="50.696616" lon="6.184690">
		<ele>254</ele>
		<time>2011-09-11T10:15:17.900Z</time>
		<geoidheight>208</geoidheight>
	</trkpt>
	<trkpt lat="50.696600" lon="6.184689">
		<ele>254</ele>
		<time>2011-09-11T10:15:18.902Z</time>
		<geoidheight>208</geoidheight>
	</trkpt>
	<trkpt lat="50.696585" lon="6.184688">
		<ele>254</ele>
		<time>2011-09-11T10:15:19.903Z</time>
		<geoidheight>208</geoidheight>
	</trkpt>
	<trkpt lat="50.696571" lon="6.184688">
		<ele>254</ele>
		<time>2011-09-11T10:15:20.900Z</time>
		<geoidheight>208</geoidheight>
	</trkpt>
	<trkpt lat="50.696557" lon="6.184686">
		<ele>254</ele>
		<time>2011-09-11T10:15:21.902Z</time>
		<geoidheight>208</geoidheight>
	</trkpt>
	<trkpt lat="50.696542" lon="6.184686">
		<ele>254</ele>
		<time>2011-09-11T10:15:22.902Z</time>
		<geoidheight>208</geoidheight>
	</trkpt>
	<trkpt lat="50.696527" lon="6.184685">
		<ele>254</ele>
		<time>2011-09-11T10:15:23.900Z</time>
		<geoidheight>208</geoidheight>
	</trkpt>
	<trkpt lat="50.696514" lon="6.184685">
		<ele>254</ele>
		<time>2011-09-11T10:15:24.902Z</time>
		<geoidheight>208</geoidheight>
	</trkpt>
	<trkpt lat="50.696500" lon="6.184683">
		<ele>255</ele>
		<time>2011-09-11T10:15:25.901Z</time>
		<geoidheight>209</geoidheight>
	</trkpt>
	<trkpt lat="50.696488" lon="6.184685">
		<ele>255</ele>
		<time>2011-09-11T10:15:26.901Z</time>
		<geoidheight>209</geoidheight>
	</trkpt>
	<trkpt lat="50.696476" lon="6.184684">
		<ele>255</ele>
		<time>2011-09-11T10:15:27.904Z</time>
		<geoidheight>209</geoidheight>
	</trkpt>
	<trkpt lat="50.696464" lon="6.184686">
		<ele>255</ele>
		<time>2011-09-11T10:15:28.901Z</time>
		<geoidheight>209</geoidheight>
	</trkpt>
	<trkpt lat="50.696454" lon="6.184688">
		<ele>255</ele>
		<time>2011-09-11T10:15:29.901Z</time>
		<geoidheight>209</geoidheight>
	</trkpt>
	<trkpt lat="50.696443" lon="6.184690">
		<ele>255</ele>
		<time>2011-09-11T10:15:30.900Z</time>
		<geoidheight>209</geoidheight>
	</trkpt>
	<trkpt lat="50.696433" lon="6.184692">
		<ele>255</ele>
		<time>2011-09-11T10:15:31.901Z</time>
		<geoidheight>209</geoidheight>
	</trkpt>
	<trkpt lat="50.696422" lon="6.184697">
		<ele>255</ele>
		<time>2011-09-11T10:15:32.904Z</time>
		<geoidheight>209</geoidheight>
	</trkpt>
	<trkpt lat="50.696411" lon="6.184702">
		<ele>255</ele>
		<time>2011-09-11T10:15:33.901Z</time>
		<geoidheight>209</geoidheight>
	</trkpt>
	<trkpt lat="50.696401" lon="6.184705">
		<ele>255</ele>
		<time>2011-09-11T10:15:34.902Z</time>
		<geoidheight>209</geoidheight>
	</trkpt>
	<trkpt lat="50.696391" lon="6.184706">
		<ele>255</ele>
		<time>2011-09-11T10:15:35.901Z</time>
		<geoidheight>209</geoidheight>
	</trkpt>
	<trkpt lat="50.696381" lon="6.184710">
		<ele>255</ele>
		<time>2011-09-11T10:15:36.900Z</time>
		<geoidheight>209</geoidheight>
	</trkpt>
	<trkpt lat="50.696371" lon="6.184715">
		<ele>256</ele>
		<time>2011-09-11T10:15:37.903Z</time>
		<geoidheight>210</geoidheight>
	</trkpt>
	<trkpt lat="50.696362" lon="6.184719">
		<ele>256</ele>
		<time>2011-09-11T10:15:38.911Z</time>
		<geoidheight>210</geoidheight>
	</trkpt>
	<trkpt lat="50.696353" lon="6.184722">
		<ele>256</ele>
		<time>2011-09-11T10:15:39.903Z</time>
		<geoidheight>210</geoidheight>
	</trkpt>
	<trkpt lat="50.696347" lon="6.184724">
		<ele>256</ele>
		<time>2011-09-11T10:15:40.902Z</time>
		<geoidheight>210</geoidheight>
	</trkpt>
	<trkpt lat="50.696340" lon="6.184724">
		<ele>256</ele>
		<time>2011-09-11T10:15:41.911Z</time>
		<geoidheight>210</geoidheight>
	</trkpt>
	<trkpt lat="50.696332" lon="6.184723">
		<ele>256</ele>
		<time>2011-09-11T10:15:42.912Z</time>
		<geoidheight>210</geoidheight>
	</trkpt>
	<trkpt lat="50.696323" lon="6.184722">
		<ele>256</ele>
		<time>2011-09-11T10:15:43.912Z</time>
		<geoidheight>210</geoidheight>
	</trkpt>
	<trkpt lat="50.696316" lon="6.184727">
		<ele>256</ele>
		<time>2011-09-11T10:15:44.911Z</time>
		<geoidheight>210</geoidheight>
	</trkpt>
	<trkpt lat="50.696307" lon="6.184731">
		<ele>256</ele>
		<time>2011-09-11T10:15:45.900Z</time>
		<geoidheight>210</geoidheight>
	</trkpt>
	<trkpt lat="50.696297" lon="6.184735">
		<ele>256</ele>
		<time>2011-09-11T10:15:46.917Z</time>
		<geoidheight>210</geoidheight>
	</trkpt>
	<trkpt lat="50.696287" lon="6.184737">
		<ele>256</ele>
		<time>2011-09-11T10:15:47.901Z</time>
		<geoidheight>210</geoidheight>
	</trkpt>
	<trkpt lat="50.696277" lon="6.184747">
		<ele>256</ele>
		<time>2011-09-11T10:15:48.901Z</time>
		<geoidheight>210</geoidheight>
	</trkpt>
	<trkpt lat="50.696267" lon="6.184758">
		<ele>256</ele>
		<time>2011-09-11T10:15:49.900Z</time>
		<geoidheight>210</geoidheight>
	</trkpt>
	<trkpt lat="50.696257" lon="6.184771">
		<ele>256</ele>
		<time>2011-09-11T10:15:50.901Z</time>
		<geoidheight>210</geoidheight>
	</trkpt>
	<trkpt lat="50.696247" lon="6.184783">
		<ele>256</ele>
		<time>2011-09-11T10:15:51.899Z</time>
		<geoidheight>210</geoidheight>
	</trkpt>
	<trkpt lat="50.696237" lon="6.184796">
		<ele>256</ele>
		<time>2011-09-11T10:15:52.899Z</time>
		<geoidheight>210</geoidheight>
	</trkpt>
	<trkpt lat="50.696229" lon="6.184807">
		<ele>256</ele>
		<time>2011-09-11T10:15:53.903Z</time>
		<geoidheight>210</geoidheight>
	</trkpt>
	<trkpt lat="50.696220" lon="6.184817">
		<ele>256</ele>
		<time>2011-09-11T10:15:54.900Z</time>
		<geoidheight>210</geoidheight>
	</trkpt>
	<trkpt lat="50.696210" lon="6.184826">
		<ele>256</ele>
		<time>2011-09-11T10:15:55.899Z</time>
		<geoidheight>210</geoidheight>
	</trkpt>
	<trkpt lat="50.696201" lon="6.184829">
		<ele>256</ele>
		<time>2011-09-11T10:15:56.900Z</time>
		<geoidheight>210</geoidheight>
	</trkpt>
	<trkpt lat="50.696190" lon="6.184837">
		<ele>256</ele>
		<time>2011-09-11T10:15:57.898Z</time>
		<geoidheight>210</geoidheight>
	</trkpt>
	<trkpt lat="50.696179" lon="6.184845">
		<ele>257</ele>
		<time>2011-09-11T10:15:58.900Z</time>
		<geoidheight>211</geoidheight>
	</trkpt>
	<trkpt lat="50.696168" lon="6.184850">
		<ele>257</ele>
		<time>2011-09-11T10:15:59.899Z</time>
		<geoidheight>211</geoidheight>
	</trkpt>
	<trkpt lat="50.696157" lon="6.184857">
		<ele>257</ele>
		<time>2011-09-11T10:16:00.902Z</time>
		<geoidheight>211</geoidheight>
	</trkpt>
	<trkpt lat="50.696146" lon="6.184863">
		<ele>257</ele>
		<time>2011-09-11T10:16:01.900Z</time>
		<geoidheight>211</geoidheight>
	</trkpt>
	<trkpt lat="50.696135" lon="6.184869">
		<ele>257</ele>
		<time>2011-09-11T10:16:02.902Z</time>
		<geoidheight>211</geoidheight>
	</trkpt>
	<trkpt lat="50.696135" lon="6.184869">
		<ele>257</ele>
		<time>2011-09-11T10:16:03.902Z</time>
		<geoidheight>211</geoidheight>
	</trkpt>
	<trkpt lat="50.696135" lon="6.184869">
		<ele>257</ele>
		<time>2011-09-11T10:16:07.902Z</time>
		<geoidheight>211</geoidheight>
	</trkpt>
	<trkpt lat="50.696095" lon="6.184903">
		<ele>257</ele>
		<time>2011-09-11T10:16:08.901Z</time>
		<geoidheight>211</geoidheight>
	</trkpt>
	<trkpt lat="50.696080" lon="6.184916">
		<ele>257</ele>
		<time>2011-09-11T10:16:09.901Z</time>
		<geoidheight>211</geoidheight>
	</trkpt>
	<trkpt lat="50.696051" lon="6.184932">
		<ele>257</ele>
		<time>2011-09-11T10:16:10.901Z</time>
		<geoidheight>211</geoidheight>
	</trkpt>
	<trkpt lat="50.696028" lon="6.184945">
		<ele>257</ele>
		<time>2011-09-11T10:16:11.900Z</time>
		<geoidheight>211</geoidheight>
	</trkpt>
	<trkpt lat="50.696013" lon="6.184959">
		<ele>257</ele>
		<time>2011-09-11T10:16:12.901Z</time>
		<geoidheight>211</geoidheight>
	</trkpt>
	<trkpt lat="50.696002" lon="6.184972">
		<ele>257</ele>
		<time>2011-09-11T10:16:13.903Z</time>
		<geoidheight>211</geoidheight>
	</trkpt>
	<trkpt lat="50.695989" lon="6.184986">
		<ele>257</ele>
		<time>2011-09-11T10:16:14.901Z</time>
		<geoidheight>211</geoidheight>
	</trkpt>
	<trkpt lat="50.695980" lon="6.185001">
		<ele>257</ele>
		<time>2011-09-11T10:16:15.912Z</time>
		<geoidheight>211</geoidheight>
	</trkpt>
	<trkpt lat="50.695972" lon="6.185014">
		<ele>257</ele>
		<time>2011-09-11T10:16:16.911Z</time>
		<geoidheight>211</geoidheight>
	</trkpt>
	<trkpt lat="50.695967" lon="6.185025">
		<ele>257</ele>
		<time>2011-09-11T10:16:17.907Z</time>
		<geoidheight>211</geoidheight>
	</trkpt>
	<trkpt lat="50.695959" lon="6.185033">
		<ele>257</ele>
		<time>2011-09-11T10:16:18.900Z</time>
		<geoidheight>211</geoidheight>
	</trkpt>
	<trkpt lat="50.695951" lon="6.185040">
		<ele>257</ele>
		<time>2011-09-11T10:16:19.910Z</time>
		<geoidheight>211</geoidheight>
	</trkpt>
	<trkpt lat="50.695941" lon="6.185043">
		<ele>257</ele>
		<time>2011-09-11T10:16:20.913Z</time>
		<geoidheight>211</geoidheight>
	</trkpt>
	<trkpt lat="50.695931" lon="6.185045">
		<ele>257</ele>
		<time>2011-09-11T10:16:21.912Z</time>
		<geoidheight>211</geoidheight>
	</trkpt>
	<trkpt lat="50.695917" lon="6.185046">
		<ele>257</ele>
		<time>2011-09-11T10:16:22.911Z</time>
		<geoidheight>211</geoidheight>
	</trkpt>
	<trkpt lat="50.695905" lon="6.185048">
		<ele>257</ele>
		<time>2011-09-11T10:16:23.903Z</time>
		<geoidheight>211</geoidheight>
	</trkpt>
	<trkpt lat="50.695893" lon="6.185053">
		<ele>257</ele>
		<time>2011-09-11T10:16:24.905Z</time>
		<geoidheight>211</geoidheight>
	</trkpt>
	<trkpt lat="50.695881" lon="6.185058">
		<ele>257</ele>
		<time>2011-09-11T10:16:25.912Z</time>
		<geoidheight>211</geoidheight>
	</trkpt>
	<trkpt lat="50.695870" lon="6.185056">
		<ele>257</ele>
		<time>2011-09-11T10:16:26.904Z</time>
		<geoidheight>211</geoidheight>
	</trkpt>
	<trkpt lat="50.695859" lon="6.185057">
		<ele>257</ele>
		<time>2011-09-11T10:16:27.913Z</time>
		<geoidheight>211</geoidheight>
	</trkpt>
	<trkpt lat="50.695852" lon="6.185059">
		<ele>257</ele>
		<time>2011-09-11T10:16:28.911Z</time>
		<geoidheight>211</geoidheight>
	</trkpt>
	<trkpt lat="50.695845" lon="6.185061">
		<ele>257</ele>
		<time>2011-09-11T10:16:29.910Z</time>
		<geoidheight>211</geoidheight>
	</trkpt>
	<trkpt lat="50.695845" lon="6.185061">
		<ele>257</ele>
		<time>2011-09-11T10:16:34.909Z</time>
		<geoidheight>211</geoidheight>
	</trkpt>
	<trkpt lat="50.695820" lon="6.185105">
		<ele>257</ele>
		<time>2011-09-11T10:16:35.911Z</time>
		<geoidheight>211</geoidheight>
	</trkpt>
	<trkpt lat="50.695818" lon="6.185118">
		<ele>257</ele>
		<time>2011-09-11T10:16:36.913Z</time>
		<geoidheight>211</geoidheight>
	</trkpt>
	<trkpt lat="50.695815" lon="6.185132">
		<ele>257</ele>
		<time>2011-09-11T10:16:37.912Z</time>
		<geoidheight>211</geoidheight>
	</trkpt>
	<trkpt lat="50.695813" lon="6.185146">
		<ele>257</ele>
		<time>2011-09-11T10:16:38.903Z</time>
		<geoidheight>211</geoidheight>
	</trkpt>
	<trkpt lat="50.695809" lon="6.185159">
		<ele>257</ele>
		<time>2011-09-11T10:16:39.900Z</time>
		<geoidheight>211</geoidheight>
	</trkpt>
	<trkpt lat="50.695806" lon="6.185173">
		<ele>257</ele>
		<time>2011-09-11T10:16:40.904Z</time>
		<geoidheight>211</geoidheight>
	</trkpt>
	<trkpt lat="50.695802" lon="6.185185">
		<ele>257</ele>
		<time>2011-09-11T10:16:41.907Z</time>
		<geoidheight>211</geoidheight>
	</trkpt>
	<trkpt lat="50.695800" lon="6.185198">
		<ele>257</ele>
		<time>2011-09-11T10:16:42.900Z</time>
		<geoidheight>211</geoidheight>
	</trkpt>
	<trkpt lat="50.695802" lon="6.185211">
		<ele>257</ele>
		<time>2011-09-11T10:16:43.904Z</time>
		<geoidheight>211</geoidheight>
	</trkpt>
	<trkpt lat="50.695803" lon="6.185224">
		<ele>257</ele>
		<time>2011-09-11T10:16:44.911Z</time>
		<geoidheight>211</geoidheight>
	</trkpt>
	<trkpt lat="50.695805" lon="6.185240">
		<ele>257</ele>
		<time>2011-09-11T10:16:45.912Z</time>
		<geoidheight>211</geoidheight>
	</trkpt>
	<trkpt lat="50.695806" lon="6.185254">
		<ele>257</ele>
		<time>2011-09-11T10:16:46.910Z</time>
		<geoidheight>211</geoidheight>
	</trkpt>
	<trkpt lat="50.695804" lon="6.185269">
		<ele>257</ele>
		<time>2011-09-11T10:16:47.914Z</time>
		<geoidheight>211</geoidheight>
	</trkpt>
	<trkpt lat="50.695803" lon="6.185283">
		<ele>257</ele>
		<time>2011-09-11T10:16:48.910Z</time>
		<geoidheight>211</geoidheight>
	</trkpt>
	<trkpt lat="50.695802" lon="6.185298">
		<ele>257</ele>
		<time>2011-09-11T10:16:49.913Z</time>
		<geoidheight>211</geoidheight>
	</trkpt>
	<trkpt lat="50.695804" lon="6.185310">
		<ele>257</ele>
		<time>2011-09-11T10:16:50.911Z</time>
		<geoidheight>211</geoidheight>
	</trkpt>
	<trkpt lat="50.695806" lon="6.185322">
		<ele>257</ele>
		<time>2011-09-11T10:16:51.906Z</time>
		<geoidheight>211</geoidheight>
	</trkpt>
	<trkpt lat="50.695805" lon="6.185334">
		<ele>257</ele>
		<time>2011-09-11T10:16:52.904Z</time>
		<geoidheight>211</geoidheight>
	</trkpt>
	<trkpt lat="50.695804" lon="6.185347">
		<ele>257</ele>
		<time>2011-09-11T10:16:53.912Z</time>
		<geoidheight>211</geoidheight>
	</trkpt>
	<trkpt lat="50.695803" lon="6.185359">
		<ele>257</ele>
		<time>2011-09-11T10:16:54.909Z</time>
		<geoidheight>211</geoidheight>
	</trkpt>
	<trkpt lat="50.695803" lon="6.185371">
		<ele>257</ele>
		<time>2011-09-11T10:16:55.911Z</time>
		<geoidheight>211</geoidheight>
	</trkpt>
	<trkpt lat="50.695803" lon="6.185387">
		<ele>257</ele>
		<time>2011-09-11T10:16:56.911Z</time>
		<geoidheight>211</geoidheight>
	</trkpt>
	<trkpt lat="50.695803" lon="6.185403">
		<ele>257</ele>
		<time>2011-09-11T10:16:57.906Z</time>
		<geoidheight>211</geoidheight>
	</trkpt>
	<trkpt lat="50.695804" lon="6.185422">
		<ele>257</ele>
		<time>2011-09-11T10:16:58.910Z</time>
		<geoidheight>211</geoidheight>
	</trkpt>
	<trkpt lat="50.695807" lon="6.185439">
		<ele>257</ele>
		<time>2011-09-11T10:16:59.912Z</time>
		<geoidheight>211</geoidheight>
	</trkpt>
	<trkpt lat="50.695809" lon="6.185458">
		<ele>257</ele>
		<time>2011-09-11T10:17:00.912Z</time>
		<geoidheight>211</geoidheight>
	</trkpt>
	<trkpt lat="50.695812" lon="6.185476">
		<ele>257</ele>
		<time>2011-09-11T10:17:01.902Z</time>
		<geoidheight>211</geoidheight>
	</trkpt>
	<trkpt lat="50.695815" lon="6.185495">
		<ele>257</ele>
		<time>2011-09-11T10:17:02.899Z</time>
		<geoidheight>211</geoidheight>
	</trkpt>
	<trkpt lat="50.695819" lon="6.185514">
		<ele>257</ele>
		<time>2011-09-11T10:17:03.900Z</time>
		<geoidheight>211</geoidheight>
	</trkpt>
	<trkpt lat="50.695822" lon="6.185533">
		<ele>257</ele>
		<time>2011-09-11T10:17:04.902Z</time>
		<geoidheight>211</geoidheight>
	</trkpt>
	<trkpt lat="50.695827" lon="6.185552">
		<ele>257</ele>
		<time>2011-09-11T10:17:05.903Z</time>
		<geoidheight>211</geoidheight>
	</trkpt>
	<trkpt lat="50.695832" lon="6.185572">
		<ele>257</ele>
		<time>2011-09-11T10:17:06.900Z</time>
		<geoidheight>211</geoidheight>
	</trkpt>
	<trkpt lat="50.695837" lon="6.185592">
		<ele>257</ele>
		<time>2011-09-11T10:17:07.902Z</time>
		<geoidheight>211</geoidheight>
	</trkpt>
	<trkpt lat="50.695843" lon="6.185612">
		<ele>257</ele>
		<time>2011-09-11T10:17:08.900Z</time>
		<geoidheight>211</geoidheight>
	</trkpt>
	<trkpt lat="50.695849" lon="6.185632">
		<ele>257</ele>
		<time>2011-09-11T10:17:09.900Z</time>
		<geoidheight>211</geoidheight>
	</trkpt>
	<trkpt lat="50.695854" lon="6.185653">
		<ele>257</ele>
		<time>2011-09-11T10:17:10.901Z</time>
		<geoidheight>211</geoidheight>
	</trkpt>
	<trkpt lat="50.695861" lon="6.185673">
		<ele>257</ele>
		<time>2011-09-11T10:17:11.900Z</time>
		<geoidheight>211</geoidheight>
	</trkpt>
	<trkpt lat="50.695865" lon="6.185701">
		<ele>257</ele>
		<time>2011-09-11T10:17:12.900Z</time>
		<geoidheight>211</geoidheight>
	</trkpt>
	<trkpt lat="50.695871" lon="6.185730">
		<ele>257</ele>
		<time>2011-09-11T10:17:13.900Z</time>
		<geoidheight>211</geoidheight>
	</trkpt>
	<trkpt lat="50.695876" lon="6.185759">
		<ele>257</ele>
		<time>2011-09-11T10:17:14.899Z</time>
		<geoidheight>211</geoidheight>
	</trkpt>
	<trkpt lat="50.695881" lon="6.185786">
		<ele>257</ele>
		<time>2011-09-11T10:17:15.899Z</time>
		<geoidheight>211</geoidheight>
	</trkpt>
	<trkpt lat="50.695885" lon="6.185814">
		<ele>257</ele>
		<time>2011-09-11T10:17:16.900Z</time>
		<geoidheight>211</geoidheight>
	</trkpt>
	<trkpt lat="50.695890" lon="6.185841">
		<ele>257</ele>
		<time>2011-09-11T10:17:17.901Z</time>
		<geoidheight>211</geoidheight>
	</trkpt>
	<trkpt lat="50.695894" lon="6.185867">
		<ele>257</ele>
		<time>2011-09-11T10:17:18.900Z</time>
		<geoidheight>211</geoidheight>
	</trkpt>
	<trkpt lat="50.695898" lon="6.185894">
		<ele>257</ele>
		<time>2011-09-11T10:17:19.900Z</time>
		<geoidheight>211</geoidheight>
	</trkpt>
	<trkpt lat="50.695902" lon="6.185923">
		<ele>257</ele>
		<time>2011-09-11T10:17:20.901Z</time>
		<geoidheight>211</geoidheight>
	</trkpt>
	<trkpt lat="50.695907" lon="6.185951">
		<ele>257</ele>
		<time>2011-09-11T10:17:21.901Z</time>
		<geoidheight>211</geoidheight>
	</trkpt>
	<trkpt lat="50.695912" lon="6.185978">
		<ele>257</ele>
		<time>2011-09-11T10:17:22.900Z</time>
		<geoidheight>211</geoidheight>
	</trkpt>
	<trkpt lat="50.695915" lon="6.186005">
		<ele>257</ele>
		<time>2011-09-11T10:17:23.902Z</time>
		<geoidheight>211</geoidheight>
	</trkpt>
	<trkpt lat="50.695919" lon="6.186031">
		<ele>257</ele>
		<time>2011-09-11T10:17:24.900Z</time>
		<geoidheight>211</geoidheight>
	</trkpt>
	<trkpt lat="50.695924" lon="6.186055">
		<ele>257</ele>
		<time>2011-09-11T10:17:25.901Z</time>
		<geoidheight>211</geoidheight>
	</trkpt>
	<trkpt lat="50.695928" lon="6.186079">
		<ele>257</ele>
		<time>2011-09-11T10:17:26.900Z</time>
		<geoidheight>211</geoidheight>
	</trkpt>
	<trkpt lat="50.695932" lon="6.186103">
		<ele>257</ele>
		<time>2011-09-11T10:17:27.900Z</time>
		<geoidheight>211</geoidheight>
	</trkpt>
	<trkpt lat="50.695937" lon="6.186125">
		<ele>257</ele>
		<time>2011-09-11T10:17:28.901Z</time>
		<geoidheight>211</geoidheight>
	</trkpt>
	<trkpt lat="50.695941" lon="6.186147">
		<ele>256</ele>
		<time>2011-09-11T10:17:29.900Z</time>
		<geoidheight>210</geoidheight>
	</trkpt>
	<trkpt lat="50.695935" lon="6.186166">
		<ele>256</ele>
		<time>2011-09-11T10:17:30.903Z</time>
		<geoidheight>210</geoidheight>
	</trkpt>
	<trkpt lat="50.695929" lon="6.186185">
		<ele>256</ele>
		<time>2011-09-11T10:17:31.913Z</time>
		<geoidheight>210</geoidheight>
	</trkpt>
	<trkpt lat="50.695933" lon="6.186208">
		<ele>256</ele>
		<time>2011-09-11T10:17:32.900Z</time>
		<geoidheight>210</geoidheight>
	</trkpt>
	<trkpt lat="50.695938" lon="6.186229">
		<ele>256</ele>
		<time>2011-09-11T10:17:33.902Z</time>
		<geoidheight>210</geoidheight>
	</trkpt>
	<trkpt lat="50.695945" lon="6.186250">
		<ele>256</ele>
		<time>2011-09-11T10:17:34.900Z</time>
		<geoidheight>210</geoidheight>
	</trkpt>
	<trkpt lat="50.695951" lon="6.186272">
		<ele>256</ele>
		<time>2011-09-11T10:17:35.900Z</time>
		<geoidheight>210</geoidheight>
	</trkpt>
	<trkpt lat="50.695958" lon="6.186293">
		<ele>256</ele>
		<time>2011-09-11T10:17:36.902Z</time>
		<geoidheight>210</geoidheight>
	</trkpt>
	<trkpt lat="50.695965" lon="6.186312">
		<ele>256</ele>
		<time>2011-09-11T10:17:37.901Z</time>
		<geoidheight>210</geoidheight>
	</trkpt>
	<trkpt lat="50.695972" lon="6.186332">
		<ele>256</ele>
		<time>2011-09-11T10:17:38.900Z</time>
		<geoidheight>210</geoidheight>
	</trkpt>
	<trkpt lat="50.695980" lon="6.186349">
		<ele>256</ele>
		<time>2011-09-11T10:17:39.901Z</time>
		<geoidheight>210</geoidheight>
	</trkpt>
	<trkpt lat="50.695988" lon="6.186367">
		<ele>256</ele>
		<time>2011-09-11T10:17:40.901Z</time>
		<geoidheight>210</geoidheight>
	</trkpt>
	<trkpt lat="50.695980" lon="6.186372">
		<ele>256</ele>
		<time>2011-09-11T10:17:41.900Z</time>
		<geoidheight>210</geoidheight>
	</trkpt>
	<trkpt lat="50.695972" lon="6.186378">
		<ele>256</ele>
		<time>2011-09-11T10:17:42.900Z</time>
		<geoidheight>210</geoidheight>
	</trkpt>
	<trkpt lat="50.695976" lon="6.186398">
		<ele>256</ele>
		<time>2011-09-11T10:17:43.901Z</time>
		<geoidheight>210</geoidheight>
	</trkpt>
	<trkpt lat="50.695983" lon="6.186416">
		<ele>256</ele>
		<time>2011-09-11T10:17:44.903Z</time>
		<geoidheight>210</geoidheight>
	</trkpt>
	<trkpt lat="50.695990" lon="6.186438">
		<ele>256</ele>
		<time>2011-09-11T10:17:45.905Z</time>
		<geoidheight>210</geoidheight>
	</trkpt>
	<trkpt lat="50.695996" lon="6.186458">
		<ele>256</ele>
		<time>2011-09-11T10:17:46.903Z</time>
		<geoidheight>210</geoidheight>
	</trkpt>
	<trkpt lat="50.696010" lon="6.186473">
		<ele>256</ele>
		<time>2011-09-11T10:17:47.902Z</time>
		<geoidheight>210</geoidheight>
	</trkpt>
	<trkpt lat="50.696022" lon="6.186493">
		<ele>256</ele>
		<time>2011-09-11T10:17:48.902Z</time>
		<geoidheight>210</geoidheight>
	</trkpt>
	<trkpt lat="50.696031" lon="6.186518">
		<ele>256</ele>
		<time>2011-09-11T10:17:49.910Z</time>
		<geoidheight>210</geoidheight>
	</trkpt>
	<trkpt lat="50.696039" lon="6.186543">
		<ele>256</ele>
		<time>2011-09-11T10:17:50.909Z</time>
		<geoidheight>210</geoidheight>
	</trkpt>
	<trkpt lat="50.696046" lon="6.186566">
		<ele>256</ele>
		<time>2011-09-11T10:17:51.900Z</time>
		<geoidheight>210</geoidheight>
	</trkpt>
	<trkpt lat="50.696054" lon="6.186589">
		<ele>256</ele>
		<time>2011-09-11T10:17:52.902Z</time>
		<geoidheight>210</geoidheight>
	</trkpt>
	<trkpt lat="50.696060" lon="6.186611">
		<ele>256</ele>
		<time>2011-09-11T10:17:53.900Z</time>
		<geoidheight>210</geoidheight>
	</trkpt>
	<trkpt lat="50.696063" lon="6.186636">
		<ele>256</ele>
		<time>2011-09-11T10:17:54.911Z</time>
		<geoidheight>210</geoidheight>
	</trkpt>
	<trkpt lat="50.696067" lon="6.186660">
		<ele>256</ele>
		<time>2011-09-11T10:17:55.904Z</time>
		<geoidheight>210</geoidheight>
	</trkpt>
	<trkpt lat="50.696071" lon="6.186686">
		<ele>256</ele>
		<time>2011-09-11T10:17:56.901Z</time>
		<geoidheight>210</geoidheight>
	</trkpt>
	<trkpt lat="50.696075" lon="6.186711">
		<ele>256</ele>
		<time>2011-09-11T10:17:57.900Z</time>
		<geoidheight>210</geoidheight>
	</trkpt>
	<trkpt lat="50.696080" lon="6.186736">
		<ele>256</ele>
		<time>2011-09-11T10:17:58.901Z</time>
		<geoidheight>210</geoidheight>
	</trkpt>
	<trkpt lat="50.696084" lon="6.186760">
		<ele>256</ele>
		<time>2011-09-11T10:17:59.901Z</time>
		<geoidheight>210</geoidheight>
	</trkpt>
	<trkpt lat="50.696092" lon="6.186779">
		<ele>256</ele>
		<time>2011-09-11T10:18:00.902Z</time>
		<geoidheight>210</geoidheight>
	</trkpt>
	<trkpt lat="50.696098" lon="6.186796">
		<ele>256</ele>
		<time>2011-09-11T10:18:01.900Z</time>
		<geoidheight>210</geoidheight>
	</trkpt>
	<trkpt lat="50.696101" lon="6.186814">
		<ele>256</ele>
		<time>2011-09-11T10:18:02.901Z</time>
		<geoidheight>210</geoidheight>
	</trkpt>
	<trkpt lat="50.696102" lon="6.186831">
		<ele>256</ele>
		<time>2011-09-11T10:18:03.901Z</time>
		<geoidheight>210</geoidheight>
	</trkpt>
	<trkpt lat="50.696102" lon="6.186847">
		<ele>256</ele>
		<time>2011-09-11T10:18:04.901Z</time>
		<geoidheight>210</geoidheight>
	</trkpt>
	<trkpt lat="50.696101" lon="6.186863">
		<ele>256</ele>
		<time>2011-09-11T10:18:05.901Z</time>
		<geoidheight>210</geoidheight>
	</trkpt>
	<trkpt lat="50.696101" lon="6.186878">
		<ele>256</ele>
		<time>2011-09-11T10:18:06.900Z</time>
		<geoidheight>210</geoidheight>
	</trkpt>
	<trkpt lat="50.696101" lon="6.186892">
		<ele>256</ele>
		<time>2011-09-11T10:18:07.901Z</time>
		<geoidheight>210</geoidheight>
	</trkpt>
	<trkpt lat="50.696101" lon="6.186907">
		<ele>256</ele>
		<time>2011-09-11T10:18:08.911Z</time>
		<geoidheight>210</geoidheight>
	</trkpt>
	<trkpt lat="50.696101" lon="6.186922">
		<ele>256</ele>
		<time>2011-09-11T10:18:09.910Z</time>
		<geoidheight>210</geoidheight>
	</trkpt>
	<trkpt lat="50.696100" lon="6.186937">
		<ele>256</ele>
		<time>2011-09-11T10:18:10.902Z</time>
		<geoidheight>210</geoidheight>
	</trkpt>
	<trkpt lat="50.696100" lon="6.186951">
		<ele>256</ele>
		<time>2011-09-11T10:18:11.912Z</time>
		<geoidheight>210</geoidheight>
	</trkpt>
	<trkpt lat="50.696100" lon="6.186966">
		<ele>256</ele>
		<time>2011-09-11T10:18:12.901Z</time>
		<geoidheight>210</geoidheight>
	</trkpt>
	<trkpt lat="50.696096" lon="6.186980">
		<ele>256</ele>
		<time>2011-09-11T10:18:13.900Z</time>
		<geoidheight>210</geoidheight>
	</trkpt>
	<trkpt lat="50.696092" lon="6.186994">
		<ele>256</ele>
		<time>2011-09-11T10:18:14.900Z</time>
		<geoidheight>210</geoidheight>
	</trkpt>
	<trkpt lat="50.696082" lon="6.186999">
		<ele>256</ele>
		<time>2011-09-11T10:18:15.911Z</time>
		<geoidheight>210</geoidheight>
	</trkpt>
	<trkpt lat="50.696071" lon="6.187006">
		<ele>256</ele>
		<time>2011-09-11T10:18:16.901Z</time>
		<geoidheight>210</geoidheight>
	</trkpt>
	<trkpt lat="50.696062" lon="6.187017">
		<ele>256</ele>
		<time>2011-09-11T10:18:17.900Z</time>
		<geoidheight>210</geoidheight>
	</trkpt>
	<trkpt lat="50.696050" lon="6.187019">
		<ele>256</ele>
		<time>2011-09-11T10:18:18.902Z</time>
		<geoidheight>210</geoidheight>
	</trkpt>
	<trkpt lat="50.696040" lon="6.187026">
		<ele>256</ele>
		<time>2011-09-11T10:18:19.900Z</time>
		<geoidheight>210</geoidheight>
	</trkpt>
	<trkpt lat="50.696036" lon="6.187044">
		<ele>256</ele>
		<time>2011-09-11T10:18:20.902Z</time>
		<geoidheight>210</geoidheight>
	</trkpt>
	<trkpt lat="50.696041" lon="6.187063">
		<ele>256</ele>
		<time>2011-09-11T10:18:21.908Z</time>
		<geoidheight>210</geoidheight>
	</trkpt>
	<trkpt lat="50.696047" lon="6.187082">
		<ele>256</ele>
		<time>2011-09-11T10:18:22.902Z</time>
		<geoidheight>210</geoidheight>
	</trkpt>
	<trkpt lat="50.696050" lon="6.187101">
		<ele>256</ele>
		<time>2011-09-11T10:18:23.900Z</time>
		<geoidheight>210</geoidheight>
	</trkpt>
	<trkpt lat="50.696053" lon="6.187120">
		<ele>256</ele>
		<time>2011-09-11T10:18:24.903Z</time>
		<geoidheight>210</geoidheight>
	</trkpt>
	<trkpt lat="50.696055" lon="6.187137">
		<ele>256</ele>
		<time>2011-09-11T10:18:25.903Z</time>
		<geoidheight>210</geoidheight>
	</trkpt>
	<trkpt lat="50.696057" lon="6.187154">
		<ele>256</ele>
		<time>2011-09-11T10:18:26.901Z</time>
		<geoidheight>210</geoidheight>
	</trkpt>
	<trkpt lat="50.696064" lon="6.187167">
		<ele>256</ele>
		<time>2011-09-11T10:18:27.900Z</time>
		<geoidheight>210</geoidheight>
	</trkpt>
	<trkpt lat="50.696065" lon="6.187184">
		<ele>256</ele>
		<time>2011-09-11T10:18:28.900Z</time>
		<geoidheight>210</geoidheight>
	</trkpt>
	<trkpt lat="50.696066" lon="6.187202">
		<ele>256</ele>
		<time>2011-09-11T10:18:29.901Z</time>
		<geoidheight>210</geoidheight>
	</trkpt>
	<trkpt lat="50.696058" lon="6.187216">
		<ele>256</ele>
		<time>2011-09-11T10:18:30.902Z</time>
		<geoidheight>210</geoidheight>
	</trkpt>
	<trkpt lat="50.696052" lon="6.187232">
		<ele>256</ele>
		<time>2011-09-11T10:18:31.904Z</time>
		<geoidheight>210</geoidheight>
	</trkpt>
	<trkpt lat="50.696051" lon="6.187250">
		<ele>256</ele>
		<time>2011-09-11T10:18:32.911Z</time>
		<geoidheight>210</geoidheight>
	</trkpt>
	<trkpt lat="50.696053" lon="6.187268">
		<ele>256</ele>
		<time>2011-09-11T10:18:33.912Z</time>
		<geoidheight>210</geoidheight>
	</trkpt>
	<trkpt lat="50.696055" lon="6.187285">
		<ele>256</ele>
		<time>2011-09-11T10:18:34.910Z</time>
		<geoidheight>210</geoidheight>
	</trkpt>
	<trkpt lat="50.696057" lon="6.187301">
		<ele>256</ele>
		<time>2011-09-11T10:18:35.903Z</time>
		<geoidheight>210</geoidheight>
	</trkpt>
	<trkpt lat="50.696060" lon="6.187317">
		<ele>256</ele>
		<time>2011-09-11T10:18:36.901Z</time>
		<geoidheight>210</geoidheight>
	</trkpt>
	<trkpt lat="50.696062" lon="6.187332">
		<ele>256</ele>
		<time>2011-09-11T10:18:37.902Z</time>
		<geoidheight>210</geoidheight>
	</trkpt>
	<trkpt lat="50.696065" lon="6.187346">
		<ele>256</ele>
		<time>2011-09-11T10:18:38.900Z</time>
		<geoidheight>210</geoidheight>
	</trkpt>
	<trkpt lat="50.696073" lon="6.187352">
		<ele>256</ele>
		<time>2011-09-11T10:18:39.900Z</time>
		<geoidheight>210</geoidheight>
	</trkpt>
	<trkpt lat="50.696082" lon="6.187354">
		<ele>256</ele>
		<time>2011-09-11T10:18:40.903Z</time>
		<geoidheight>210</geoidheight>
	</trkpt>
	<trkpt lat="50.696091" lon="6.187356">
		<ele>256</ele>
		<time>2011-09-11T10:18:41.901Z</time>
		<geoidheight>210</geoidheight>
	</trkpt>
	<trkpt lat="50.696098" lon="6.187361">
		<ele>256</ele>
		<time>2011-09-11T10:18:42.900Z</time>
		<geoidheight>210</geoidheight>
	</trkpt>
	<trkpt lat="50.696104" lon="6.187370">
		<ele>256</ele>
		<time>2011-09-11T10:18:43.900Z</time>
		<geoidheight>210</geoidheight>
	</trkpt>
	<trkpt lat="50.696110" lon="6.187379">
		<ele>256</ele>
		<time>2011-09-11T10:18:44.909Z</time>
		<geoidheight>210</geoidheight>
	</trkpt>
	<trkpt lat="50.696115" lon="6.187392">
		<ele>256</ele>
		<time>2011-09-11T10:18:45.900Z</time>
		<geoidheight>210</geoidheight>
	</trkpt>
	<trkpt lat="50.696119" lon="6.187405">
		<ele>256</ele>
		<time>2011-09-11T10:18:46.900Z</time>
		<geoidheight>210</geoidheight>
	</trkpt>
	<trkpt lat="50.696106" lon="6.187412">
		<ele>256</ele>
		<time>2011-09-11T10:18:47.903Z</time>
		<geoidheight>210</geoidheight>
	</trkpt>
	<trkpt lat="50.696094" lon="6.187419">
		<ele>256</ele>
		<time>2011-09-11T10:18:48.900Z</time>
		<geoidheight>210</geoidheight>
	</trkpt>
	<trkpt lat="50.696094" lon="6.187419">
		<ele>256</ele>
		<time>2011-09-11T10:18:53.924Z</time>
		<geoidheight>210</geoidheight>
	</trkpt>
	<trkpt lat="50.696058" lon="6.187418">
		<ele>256</ele>
		<time>2011-09-11T10:18:54.921Z</time>
		<geoidheight>210</geoidheight>
	</trkpt>
	<trkpt lat="50.696052" lon="6.187416">
		<ele>256</ele>
		<time>2011-09-11T10:18:55.913Z</time>
		<geoidheight>210</geoidheight>
	</trkpt>
	<trkpt lat="50.696046" lon="6.187414">
		<ele>256</ele>
		<time>2011-09-11T10:18:56.912Z</time>
		<geoidheight>210</geoidheight>
	</trkpt>
	<trkpt lat="50.696040" lon="6.187404">
		<ele>256</ele>
		<time>2011-09-11T10:19:10.906Z</time>
		<geoidheight>210</geoidheight>
	</trkpt>
	<trkpt lat="50.696086" lon="6.187431">
		<ele>256</ele>
		<time>2011-09-11T10:19:11.903Z</time>
		<geoidheight>210</geoidheight>
	</trkpt>
	<trkpt lat="50.696086" lon="6.187431">
		<ele>256</ele>
		<time>2011-09-11T10:19:19.903Z</time>
		<geoidheight>210</geoidheight>
	</trkpt>
	<trkpt lat="50.696139" lon="6.187420">
		<ele>256</ele>
		<time>2011-09-11T10:19:20.902Z</time>
		<geoidheight>210</geoidheight>
	</trkpt>
	<trkpt lat="50.696139" lon="6.187420">
		<ele>256</ele>
		<time>2011-09-11T10:19:25.907Z</time>
		<geoidheight>210</geoidheight>
	</trkpt>
	<trkpt lat="50.696185" lon="6.187410">
		<ele>256</ele>
		<time>2011-09-11T10:19:26.902Z</time>
		<geoidheight>210</geoidheight>
	</trkpt>
	<trkpt lat="50.696192" lon="6.187404">
		<ele>256</ele>
		<time>2011-09-11T10:19:27.900Z</time>
		<geoidheight>210</geoidheight>
	</trkpt>
	<trkpt lat="50.696198" lon="6.187401">
		<ele>256</ele>
		<time>2011-09-11T10:19:28.905Z</time>
		<geoidheight>210</geoidheight>
	</trkpt>
	<trkpt lat="50.696206" lon="6.187400">
		<ele>256</ele>
		<time>2011-09-11T10:19:48.912Z</time>
		<geoidheight>210</geoidheight>
	</trkpt>
	<trkpt lat="50.696172" lon="6.187342">
		<ele>256</ele>
		<time>2011-09-11T10:19:49.902Z</time>
		<geoidheight>210</geoidheight>
	</trkpt>
	<trkpt lat="50.696172" lon="6.187342">
		<ele>256</ele>
		<time>2011-09-11T10:19:55.902Z</time>
		<geoidheight>210</geoidheight>
	</trkpt>
	<trkpt lat="50.696126" lon="6.187353">
		<ele>256</ele>
		<time>2011-09-11T10:19:56.904Z</time>
		<geoidheight>210</geoidheight>
	</trkpt>
	<trkpt lat="50.696126" lon="6.187353">
		<ele>256</ele>
		<time>2011-09-11T10:20:05.907Z</time>
		<geoidheight>210</geoidheight>
	</trkpt>
	<trkpt lat="50.696080" lon="6.187374">
		<ele>256</ele>
		<time>2011-09-11T10:20:06.905Z</time>
		<geoidheight>210</geoidheight>
	</trkpt>
	<trkpt lat="50.696080" lon="6.187374">
		<ele>256</ele>
		<time>2011-09-11T10:20:16.902Z</time>
		<geoidheight>210</geoidheight>
	</trkpt>
	<trkpt lat="50.696038" lon="6.187361">
		<ele>256</ele>
		<time>2011-09-11T10:20:17.903Z</time>
		<geoidheight>210</geoidheight>
	</trkpt>
	<trkpt lat="50.696038" lon="6.187361">
		<ele>256</ele>
		<time>2011-09-11T10:20:21.924Z</time>
		<geoidheight>210</geoidheight>
	</trkpt>
	<trkpt lat="50.695997" lon="6.187308">
		<ele>256</ele>
		<time>2011-09-11T10:20:22.925Z</time>
		<geoidheight>210</geoidheight>
	</trkpt>
	<trkpt lat="50.695997" lon="6.187308">
		<ele>258</ele>
		<time>2011-09-11T10:20:57.904Z</time>
		<geoidheight>212</geoidheight>
	</trkpt>
	<trkpt lat="50.696004" lon="6.187230">
		<ele>259</ele>
		<time>2011-09-11T10:20:58.905Z</time>
		<geoidheight>213</geoidheight>
	</trkpt>
	<trkpt lat="50.696004" lon="6.187230">
		<ele>261</ele>
		<time>2011-09-11T10:21:09.906Z</time>
		<geoidheight>215</geoidheight>
	</trkpt>
	<trkpt lat="50.696037" lon="6.187181">
		<ele>261</ele>
		<time>2011-09-11T10:21:10.907Z</time>
		<geoidheight>215</geoidheight>
	</trkpt>
	<trkpt lat="50.696037" lon="6.187181">
		<ele>263</ele>
		<time>2011-09-11T10:21:16.904Z</time>
		<geoidheight>217</geoidheight>
	</trkpt>
	<trkpt lat="50.696068" lon="6.187240">
		<ele>263</ele>
		<time>2011-09-11T10:21:17.910Z</time>
		<geoidheight>217</geoidheight>
	</trkpt>
	<trkpt lat="50.696068" lon="6.187240">
		<ele>264</ele>
		<time>2011-09-11T10:21:18.904Z</time>
		<geoidheight>218</geoidheight>
	</trkpt>
	<trkpt lat="50.696067" lon="6.187273">
		<ele>264</ele>
		<time>2011-09-11T10:21:19.914Z</time>
		<geoidheight>218</geoidheight>
	</trkpt>
	<trkpt lat="50.696064" lon="6.187291">
		<ele>265</ele>
		<time>2011-09-11T10:21:20.903Z</time>
		<geoidheight>219</geoidheight>
	</trkpt>
	<trkpt lat="50.696062" lon="6.187311">
		<ele>265</ele>
		<time>2011-09-11T10:21:21.904Z</time>
		<geoidheight>219</geoidheight>
	</trkpt>
	<trkpt lat="50.696059" lon="6.187332">
		<ele>265</ele>
		<time>2011-09-11T10:21:22.913Z</time>
		<geoidheight>219</geoidheight>
	</trkpt>
	<trkpt lat="50.696053" lon="6.187354">
		<ele>266</ele>
		<time>2011-09-11T10:21:23.903Z</time>
		<geoidheight>220</geoidheight>
	</trkpt>
	<trkpt lat="50.696043" lon="6.187379">
		<ele>266</ele>
		<time>2011-09-11T10:21:24.909Z</time>
		<geoidheight>220</geoidheight>
	</trkpt>
	<trkpt lat="50.696034" lon="6.187403">
		<ele>267</ele>
		<time>2011-09-11T10:21:25.910Z</time>
		<geoidheight>221</geoidheight>
	</trkpt>
	<trkpt lat="50.696027" lon="6.187425">
		<ele>267</ele>
		<time>2011-09-11T10:21:26.914Z</time>
		<geoidheight>221</geoidheight>
	</trkpt>
	<trkpt lat="50.696018" lon="6.187448">
		<ele>268</ele>
		<time>2011-09-11T10:21:27.907Z</time>
		<geoidheight>222</geoidheight>
	</trkpt>
	<trkpt lat="50.696011" lon="6.187472">
		<ele>268</ele>
		<time>2011-09-11T10:21:28.903Z</time>
		<geoidheight>222</geoidheight>
	</trkpt>
	<trkpt lat="50.695998" lon="6.187500">
		<ele>269</ele>
		<time>2011-09-11T10:21:29.904Z</time>
		<geoidheight>223</geoidheight>
	</trkpt>
	<trkpt lat="50.695984" lon="6.187531">
		<ele>269</ele>
		<time>2011-09-11T10:21:30.913Z</time>
		<geoidheight>223</geoidheight>
	</trkpt>
	<trkpt lat="50.695971" lon="6.187563">
		<ele>270</ele>
		<time>2011-09-11T10:21:31.909Z</time>
		<geoidheight>224</geoidheight>
	</trkpt>
	<trkpt lat="50.695960" lon="6.187595">
		<ele>271</ele>
		<time>2011-09-11T10:21:32.903Z</time>
		<geoidheight>225</geoidheight>
	</trkpt>
	<trkpt lat="50.695951" lon="6.187626">
		<ele>271</ele>
		<time>2011-09-11T10:21:33.905Z</time>
		<geoidheight>225</geoidheight>
	</trkpt>
	<trkpt lat="50.695942" lon="6.187654">
		<ele>272</ele>
		<time>2011-09-11T10:21:34.904Z</time>
		<geoidheight>226</geoidheight>
	</trkpt>
	<trkpt lat="50.695935" lon="6.187679">
		<ele>272</ele>
		<time>2011-09-11T10:21:35.913Z</time>
		<geoidheight>226</geoidheight>
	</trkpt>
	<trkpt lat="50.695931" lon="6.187702">
		<ele>273</ele>
		<time>2011-09-11T10:21:36.903Z</time>
		<geoidheight>227</geoidheight>
	</trkpt>
	<trkpt lat="50.695922" lon="6.187728">
		<ele>273</ele>
		<time>2011-09-11T10:21:37.906Z</time>
		<geoidheight>227</geoidheight>
	</trkpt>
	<trkpt lat="50.695912" lon="6.187754">
		<ele>274</ele>
		<time>2011-09-11T10:21:38.903Z</time>
		<geoidheight>228</geoidheight>
	</trkpt>
	<trkpt lat="50.695906" lon="6.187780">
		<ele>274</ele>
		<time>2011-09-11T10:21:39.903Z</time>
		<geoidheight>228</geoidheight>
	</trkpt>
	<trkpt lat="50.695904" lon="6.187803">
		<ele>275</ele>
		<time>2011-09-11T10:21:40.906Z</time>
		<geoidheight>229</geoidheight>
	</trkpt>
	<trkpt lat="50.695903" lon="6.187827">
		<ele>276</ele>
		<time>2011-09-11T10:21:41.904Z</time>
		<geoidheight>230</geoidheight>
	</trkpt>
	<trkpt lat="50.695904" lon="6.187851">
		<ele>276</ele>
		<time>2011-09-11T10:21:42.912Z</time>
		<geoidheight>230</geoidheight>
	</trkpt>
	<trkpt lat="50.695905" lon="6.187873">
		<ele>277</ele>
		<time>2011-09-11T10:21:43.904Z</time>
		<geoidheight>231</geoidheight>
	</trkpt>
	<trkpt lat="50.695908" lon="6.187892">
		<ele>277</ele>
		<time>2011-09-11T10:21:44.913Z</time>
		<geoidheight>231</geoidheight>
	</trkpt>
	<trkpt lat="50.695911" lon="6.187912">
		<ele>278</ele>
		<time>2011-09-11T10:21:45.905Z</time>
		<geoidheight>232</geoidheight>
	</trkpt>
	<trkpt lat="50.695914" lon="6.187932">
		<ele>278</ele>
		<time>2011-09-11T10:21:46.903Z</time>
		<geoidheight>232</geoidheight>
	</trkpt>
	<trkpt lat="50.695917" lon="6.187953">
		<ele>279</ele>
		<time>2011-09-11T10:21:47.913Z</time>
		<geoidheight>233</geoidheight>
	</trkpt>
	<trkpt lat="50.695920" lon="6.187974">
		<ele>279</ele>
		<time>2011-09-11T10:21:48.912Z</time>
		<geoidheight>233</geoidheight>
	</trkpt>
	<trkpt lat="50.695923" lon="6.187995">
		<ele>279</ele>
		<time>2011-09-11T10:21:49.912Z</time>
		<geoidheight>233</geoidheight>
	</trkpt>
	<trkpt lat="50.695925" lon="6.188016">
		<ele>280</ele>
		<time>2011-09-11T10:21:50.913Z</time>
		<geoidheight>234</geoidheight>
	</trkpt>
	<trkpt lat="50.695929" lon="6.188036">
		<ele>280</ele>
		<time>2011-09-11T10:21:51.911Z</time>
		<geoidheight>234</geoidheight>
	</trkpt>
	<trkpt lat="50.695934" lon="6.188054">
		<ele>281</ele>
		<time>2011-09-11T10:21:52.904Z</time>
		<geoidheight>235</geoidheight>
	</trkpt>
	<trkpt lat="50.695938" lon="6.188072">
		<ele>281</ele>
		<time>2011-09-11T10:21:53.913Z</time>
		<geoidheight>235</geoidheight>
	</trkpt>
	<trkpt lat="50.695943" lon="6.188090">
		<ele>281</ele>
		<time>2011-09-11T10:21:54.905Z</time>
		<geoidheight>235</geoidheight>
	</trkpt>
	<trkpt lat="50.695948" lon="6.188107">
		<ele>282</ele>
		<time>2011-09-11T10:21:55.903Z</time>
		<geoidheight>236</geoidheight>
	</trkpt>
	<trkpt lat="50.695954" lon="6.188124">
		<ele>282</ele>
		<time>2011-09-11T10:21:56.904Z</time>
		<geoidheight>236</geoidheight>
	</trkpt>
	<trkpt lat="50.695959" lon="6.188140">
		<ele>283</ele>
		<time>2011-09-11T10:21:57.904Z</time>
		<geoidheight>237</geoidheight>
	</trkpt>
	<trkpt lat="50.695965" lon="6.188155">
		<ele>283</ele>
		<time>2011-09-11T10:21:58.904Z</time>
		<geoidheight>237</geoidheight>
	</trkpt>
	<trkpt lat="50.695970" lon="6.188170">
		<ele>283</ele>
		<time>2011-09-11T10:21:59.913Z</time>
		<geoidheight>237</geoidheight>
	</trkpt>
	<trkpt lat="50.695975" lon="6.188183">
		<ele>284</ele>
		<time>2011-09-11T10:22:00.903Z</time>
		<geoidheight>238</geoidheight>
	</trkpt>
	<trkpt lat="50.695979" lon="6.188196">
		<ele>284</ele>
		<time>2011-09-11T10:22:01.912Z</time>
		<geoidheight>238</geoidheight>
	</trkpt>
	<trkpt lat="50.695984" lon="6.188207">
		<ele>285</ele>
		<time>2011-09-11T10:22:02.904Z</time>
		<geoidheight>239</geoidheight>
	</trkpt>
	<trkpt lat="50.695988" lon="6.188218">
		<ele>285</ele>
		<time>2011-09-11T10:22:03.911Z</time>
		<geoidheight>239</geoidheight>
	</trkpt>
	<trkpt lat="50.695992" lon="6.188229">
		<ele>285</ele>
		<time>2011-09-11T10:22:04.911Z</time>
		<geoidheight>239</geoidheight>
	</trkpt>
	<trkpt lat="50.695997" lon="6.188240">
		<ele>286</ele>
		<time>2011-09-11T10:22:05.904Z</time>
		<geoidheight>240</geoidheight>
	</trkpt>
	<trkpt lat="50.696002" lon="6.188253">
		<ele>286</ele>
		<time>2011-09-11T10:22:06.904Z</time>
		<geoidheight>240</geoidheight>
	</trkpt>
	<trkpt lat="50.696007" lon="6.188268">
		<ele>286</ele>
		<time>2011-09-11T10:22:07.906Z</time>
		<geoidheight>240</geoidheight>
	</trkpt>
	<trkpt lat="50.696011" lon="6.188282">
		<ele>287</ele>
		<time>2011-09-11T10:22:08.912Z</time>
		<geoidheight>241</geoidheight>
	</trkpt>
	<trkpt lat="50.696015" lon="6.188297">
		<ele>287</ele>
		<time>2011-09-11T10:22:09.939Z</time>
		<geoidheight>241</geoidheight>
	</trkpt>
	<trkpt lat="50.696017" lon="6.188312">
		<ele>288</ele>
		<time>2011-09-11T10:22:10.918Z</time>
		<geoidheight>242</geoidheight>
	</trkpt>
	<trkpt lat="50.696019" lon="6.188329">
		<ele>288</ele>
		<time>2011-09-11T10:22:11.921Z</time>
		<geoidheight>242</geoidheight>
	</trkpt>
	<trkpt lat="50.696022" lon="6.188346">
		<ele>288</ele>
		<time>2011-09-11T10:22:12.919Z</time>
		<geoidheight>242</geoidheight>
	</trkpt>
	<trkpt lat="50.696026" lon="6.188366">
		<ele>289</ele>
		<time>2011-09-11T10:22:13.932Z</time>
		<geoidheight>243</geoidheight>
	</trkpt>
	<trkpt lat="50.696029" lon="6.188389">
		<ele>289</ele>
		<time>2011-09-11T10:22:14.924Z</time>
		<geoidheight>243</geoidheight>
	</trkpt>
	<trkpt lat="50.696032" lon="6.188414">
		<ele>289</ele>
		<time>2011-09-11T10:22:15.920Z</time>
		<geoidheight>243</geoidheight>
	</trkpt>
	<trkpt lat="50.696035" lon="6.188437">
		<ele>290</ele>
		<time>2011-09-11T10:22:16.922Z</time>
		<geoidheight>244</geoidheight>
	</trkpt>
	<trkpt lat="50.696037" lon="6.188457">
		<ele>290</ele>
		<time>2011-09-11T10:22:17.923Z</time>
		<geoidheight>244</geoidheight>
	</trkpt>
	<trkpt lat="50.696037" lon="6.188475">
		<ele>290</ele>
		<time>2011-09-11T10:22:18.921Z</time>
		<geoidheight>244</geoidheight>
	</trkpt>
	<trkpt lat="50.696037" lon="6.188490">
		<ele>291</ele>
		<time>2011-09-11T10:22:19.926Z</time>
		<geoidheight>245</geoidheight>
	</trkpt>
	<trkpt lat="50.696039" lon="6.188503">
		<ele>291</ele>
		<time>2011-09-11T10:22:20.925Z</time>
		<geoidheight>245</geoidheight>
	</trkpt>
	<trkpt lat="50.696041" lon="6.188517">
		<ele>291</ele>
		<time>2011-09-11T10:22:21.922Z</time>
		<geoidheight>245</geoidheight>
	</trkpt>
	<trkpt lat="50.696042" lon="6.188532">
		<ele>292</ele>
		<time>2011-09-11T10:22:22.920Z</time>
		<geoidheight>246</geoidheight>
	</trkpt>
	<trkpt lat="50.696043" lon="6.188549">
		<ele>292</ele>
		<time>2011-09-11T10:22:23.918Z</time>
		<geoidheight>246</geoidheight>
	</trkpt>
	<trkpt lat="50.696044" lon="6.188567">
		<ele>292</ele>
		<time>2011-09-11T10:22:24.916Z</time>
		<geoidheight>246</geoidheight>
	</trkpt>
	<trkpt lat="50.696045" lon="6.188587">
		<ele>293</ele>
		<time>2011-09-11T10:22:25.925Z</time>
		<geoidheight>247</geoidheight>
	</trkpt>
	<trkpt lat="50.696047" lon="6.188607">
		<ele>293</ele>
		<time>2011-09-11T10:22:26.917Z</time>
		<geoidheight>247</geoidheight>
	</trkpt>
	<trkpt lat="50.696050" lon="6.188624">
		<ele>293</ele>
		<time>2011-09-11T10:22:27.924Z</time>
		<geoidheight>247</geoidheight>
	</trkpt>
	<trkpt lat="50.696052" lon="6.188641">
		<ele>294</ele>
		<time>2011-09-11T10:22:28.921Z</time>
		<geoidheight>248</geoidheight>
	</trkpt>
	<trkpt lat="50.696054" lon="6.188657">
		<ele>294</ele>
		<time>2011-09-11T10:22:29.919Z</time>
		<geoidheight>248</geoidheight>
	</trkpt>
	<trkpt lat="50.696058" lon="6.188673">
		<ele>294</ele>
		<time>2011-09-11T10:22:30.927Z</time>
		<geoidheight>248</geoidheight>
	</trkpt>
	<trkpt lat="50.696061" lon="6.188692">
		<ele>295</ele>
		<time>2011-09-11T10:22:31.924Z</time>
		<geoidheight>249</geoidheight>
	</trkpt>
	<trkpt lat="50.696066" lon="6.188713">
		<ele>295</ele>
		<time>2011-09-11T10:22:32.920Z</time>
		<geoidheight>249</geoidheight>
	</trkpt>
	<trkpt lat="50.696071" lon="6.188735">
		<ele>295</ele>
		<time>2011-09-11T10:22:33.928Z</time>
		<geoidheight>249</geoidheight>
	</trkpt>
	<trkpt lat="50.696078" lon="6.188759">
		<ele>295</ele>
		<time>2011-09-11T10:22:34.920Z</time>
		<geoidheight>249</geoidheight>
	</trkpt>
	<trkpt lat="50.696087" lon="6.188783">
		<ele>296</ele>
		<time>2011-09-11T10:22:35.927Z</time>
		<geoidheight>250</geoidheight>
	</trkpt>
	<trkpt lat="50.696095" lon="6.188807">
		<ele>296</ele>
		<time>2011-09-11T10:22:36.925Z</time>
		<geoidheight>250</geoidheight>
	</trkpt>
	<trkpt lat="50.696104" lon="6.188831">
		<ele>296</ele>
		<time>2011-09-11T10:22:37.922Z</time>
		<geoidheight>250</geoidheight>
	</trkpt>
	<trkpt lat="50.696112" lon="6.188853">
		<ele>296</ele>
		<time>2011-09-11T10:22:38.919Z</time>
		<geoidheight>250</geoidheight>
	</trkpt>
	<trkpt lat="50.696120" lon="6.188872">
		<ele>297</ele>
		<time>2011-09-11T10:22:39.923Z</time>
		<geoidheight>251</geoidheight>
	</trkpt>
	<trkpt lat="50.696129" lon="6.188888">
		<ele>297</ele>
		<time>2011-09-11T10:22:40.922Z</time>
		<geoidheight>251</geoidheight>
	</trkpt>
	<trkpt lat="50.696137" lon="6.188903">
		<ele>297</ele>
		<time>2011-09-11T10:22:41.921Z</time>
		<geoidheight>251</geoidheight>
	</trkpt>
	<trkpt lat="50.696144" lon="6.188918">
		<ele>297</ele>
		<time>2011-09-11T10:22:42.919Z</time>
		<geoidheight>251</geoidheight>
	</trkpt>
	<trkpt lat="50.696150" lon="6.188935">
		<ele>298</ele>
		<time>2011-09-11T10:22:43.920Z</time>
		<geoidheight>252</geoidheight>
	</trkpt>
	<trkpt lat="50.696156" lon="6.188952">
		<ele>298</ele>
		<time>2011-09-11T10:22:44.904Z</time>
		<geoidheight>252</geoidheight>
	</trkpt>
	<trkpt lat="50.696161" lon="6.188968">
		<ele>298</ele>
		<time>2011-09-11T10:22:45.906Z</time>
		<geoidheight>252</geoidheight>
	</trkpt>
	<trkpt lat="50.696168" lon="6.188987">
		<ele>298</ele>
		<time>2011-09-11T10:22:46.905Z</time>
		<geoidheight>252</geoidheight>
	</trkpt>
	<trkpt lat="50.696174" lon="6.189008">
		<ele>299</ele>
		<time>2011-09-11T10:22:47.905Z</time>
		<geoidheight>253</geoidheight>
	</trkpt>
	<trkpt lat="50.696182" lon="6.189026">
		<ele>299</ele>
		<time>2011-09-11T10:22:48.904Z</time>
		<geoidheight>253</geoidheight>
	</trkpt>
	<trkpt lat="50.696191" lon="6.189045">
		<ele>299</ele>
		<time>2011-09-11T10:22:49.904Z</time>
		<geoidheight>253</geoidheight>
	</trkpt>
	<trkpt lat="50.696199" lon="6.189066">
		<ele>299</ele>
		<time>2011-09-11T10:22:50.904Z</time>
		<geoidheight>253</geoidheight>
	</trkpt>
	<trkpt lat="50.696208" lon="6.189089">
		<ele>300</ele>
		<time>2011-09-11T10:22:51.903Z</time>
		<geoidheight>254</geoidheight>
	</trkpt>
	<trkpt lat="50.696214" lon="6.189110">
		<ele>300</ele>
		<time>2011-09-11T10:22:52.906Z</time>
		<geoidheight>254</geoidheight>
	</trkpt>
	<trkpt lat="50.696220" lon="6.189131">
		<ele>300</ele>
		<time>2011-09-11T10:22:53.904Z</time>
		<geoidheight>254</geoidheight>
	</trkpt>
	<trkpt lat="50.696225" lon="6.189150">
		<ele>300</ele>
		<time>2011-09-11T10:22:54.904Z</time>
		<geoidheight>254</geoidheight>
	</trkpt>
	<trkpt lat="50.696230" lon="6.189167">
		<ele>301</ele>
		<time>2011-09-11T10:22:55.905Z</time>
		<geoidheight>255</geoidheight>
	</trkpt>
	<trkpt lat="50.696235" lon="6.189183">
		<ele>301</ele>
		<time>2011-09-11T10:22:56.905Z</time>
		<geoidheight>255</geoidheight>
	</trkpt>
	<trkpt lat="50.696241" lon="6.189196">
		<ele>301</ele>
		<time>2011-09-11T10:22:57.905Z</time>
		<geoidheight>255</geoidheight>
	</trkpt>
	<trkpt lat="50.696247" lon="6.189209">
		<ele>301</ele>
		<time>2011-09-11T10:22:58.907Z</time>
		<geoidheight>255</geoidheight>
	</trkpt>
	<trkpt lat="50.696253" lon="6.189222">
		<ele>302</ele>
		<time>2011-09-11T10:22:59.903Z</time>
		<geoidheight>256</geoidheight>
	</trkpt>
	<trkpt lat="50.696257" lon="6.189236">
		<ele>302</ele>
		<time>2011-09-11T10:23:00.904Z</time>
		<geoidheight>256</geoidheight>
	</trkpt>
	<trkpt lat="50.696261" lon="6.189249">
		<ele>302</ele>
		<time>2011-09-11T10:23:01.906Z</time>
		<geoidheight>256</geoidheight>
	</trkpt>
	<trkpt lat="50.696264" lon="6.189262">
		<ele>302</ele>
		<time>2011-09-11T10:23:02.904Z</time>
		<geoidheight>256</geoidheight>
	</trkpt>
	<trkpt lat="50.696266" lon="6.189274">
		<ele>302</ele>
		<time>2011-09-11T10:23:03.904Z</time>
		<geoidheight>256</geoidheight>
	</trkpt>
	<trkpt lat="50.696265" lon="6.189287">
		<ele>303</ele>
		<time>2011-09-11T10:23:04.906Z</time>
		<geoidheight>257</geoidheight>
	</trkpt>
	<trkpt lat="50.696262" lon="6.189299">
		<ele>303</ele>
		<time>2011-09-11T10:23:05.905Z</time>
		<geoidheight>257</geoidheight>
	</trkpt>
	<trkpt lat="50.696259" lon="6.189312">
		<ele>303</ele>
		<time>2011-09-11T10:23:06.904Z</time>
		<geoidheight>257</geoidheight>
	</trkpt>
	<trkpt lat="50.696257" lon="6.189327">
		<ele>303</ele>
		<time>2011-09-11T10:23:07.904Z</time>
		<geoidheight>257</geoidheight>
	</trkpt>
	<trkpt lat="50.696255" lon="6.189343">
		<ele>303</ele>
		<time>2011-09-11T10:23:08.912Z</time>
		<geoidheight>257</geoidheight>
	</trkpt>
	<trkpt lat="50.696253" lon="6.189361">
		<ele>304</ele>
		<time>2011-09-11T10:23:09.904Z</time>
		<geoidheight>258</geoidheight>
	</trkpt>
	<trkpt lat="50.696252" lon="6.189384">
		<ele>304</ele>
		<time>2011-09-11T10:23:10.904Z</time>
		<geoidheight>258</geoidheight>
	</trkpt>
	<trkpt lat="50.696252" lon="6.189411">
		<ele>304</ele>
		<time>2011-09-11T10:23:11.906Z</time>
		<geoidheight>258</geoidheight>
	</trkpt>
	<trkpt lat="50.696252" lon="6.189441">
		<ele>304</ele>
		<time>2011-09-11T10:23:12.904Z</time>
		<geoidheight>258</geoidheight>
	</trkpt>
	<trkpt lat="50.696254" lon="6.189470">
		<ele>304</ele>
		<time>2011-09-11T10:23:13.904Z</time>
		<geoidheight>258</geoidheight>
	</trkpt>
	<trkpt lat="50.696257" lon="6.189497">
		<ele>305</ele>
		<time>2011-09-11T10:23:14.912Z</time>
		<geoidheight>259</geoidheight>
	</trkpt>
	<trkpt lat="50.696261" lon="6.189521">
		<ele>305</ele>
		<time>2011-09-11T10:23:15.905Z</time>
		<geoidheight>259</geoidheight>
	</trkpt>
	<trkpt lat="50.696264" lon="6.189545">
		<ele>305</ele>
		<time>2011-09-11T10:23:16.904Z</time>
		<geoidheight>259</geoidheight>
	</trkpt>
	<trkpt lat="50.696267" lon="6.189572">
		<ele>305</ele>
		<time>2011-09-11T10:23:17.906Z</time>
		<geoidheight>259</geoidheight>
	</trkpt>
	<trkpt lat="50.696271" lon="6.189599">
		<ele>305</ele>
		<time>2011-09-11T10:23:18.903Z</time>
		<geoidheight>259</geoidheight>
	</trkpt>
	<trkpt lat="50.696275" lon="6.189627">
		<ele>306</ele>
		<time>2011-09-11T10:23:19.905Z</time>
		<geoidheight>260</geoidheight>
	</trkpt>
	<trkpt lat="50.696280" lon="6.189656">
		<ele>306</ele>
		<time>2011-09-11T10:23:20.906Z</time>
		<geoidheight>260</geoidheight>
	</trkpt>
	<trkpt lat="50.696283" lon="6.189682">
		<ele>306</ele>
		<time>2011-09-11T10:23:21.905Z</time>
		<geoidheight>260</geoidheight>
	</trkpt>
	<trkpt lat="50.696286" lon="6.189707">
		<ele>306</ele>
		<time>2011-09-11T10:23:22.905Z</time>
		<geoidheight>260</geoidheight>
	</trkpt>
	<trkpt lat="50.696289" lon="6.189732">
		<ele>306</ele>
		<time>2011-09-11T10:23:23.904Z</time>
		<geoidheight>260</geoidheight>
	</trkpt>
	<trkpt lat="50.696291" lon="6.189756">
		<ele>306</ele>
		<time>2011-09-11T10:23:24.905Z</time>
		<geoidheight>260</geoidheight>
	</trkpt>
	<trkpt lat="50.696293" lon="6.189778">
		<ele>306</ele>
		<time>2011-09-11T10:23:25.904Z</time>
		<geoidheight>260</geoidheight>
	</trkpt>
	<trkpt lat="50.696295" lon="6.189797">
		<ele>306</ele>
		<time>2011-09-11T10:23:26.903Z</time>
		<geoidheight>260</geoidheight>
	</trkpt>
	<trkpt lat="50.696295" lon="6.189797">
		<ele>306</ele>
		<time>2011-09-11T10:23:27.912Z</time>
		<geoidheight>260</geoidheight>
	</trkpt>
	<trkpt lat="50.696295" lon="6.189797">
		<ele>307</ele>
		<time>2011-09-11T10:23:28.904Z</time>
		<geoidheight>261</geoidheight>
	</trkpt>
	<trkpt lat="50.696295" lon="6.189797">
		<ele>307</ele>
		<time>2011-09-11T10:23:36.911Z</time>
		<geoidheight>261</geoidheight>
	</trkpt>
	<trkpt lat="50.696256" lon="6.189840">
		<ele>307</ele>
		<time>2011-09-11T10:23:37.905Z</time>
		<geoidheight>261</geoidheight>
	</trkpt>
	<trkpt lat="50.696254" lon="6.189854">
		<ele>307</ele>
		<time>2011-09-11T10:23:38.905Z</time>
		<geoidheight>261</geoidheight>
	</trkpt>
	<trkpt lat="50.696254" lon="6.189871">
		<ele>307</ele>
		<time>2011-09-11T10:23:39.904Z</time>
		<geoidheight>261</geoidheight>
	</trkpt>
	<trkpt lat="50.696255" lon="6.189891">
		<ele>307</ele>
		<time>2011-09-11T10:23:40.908Z</time>
		<geoidheight>261</geoidheight>
	</trkpt>
	<trkpt lat="50.696258" lon="6.189910">
		<ele>307</ele>
		<time>2011-09-11T10:23:41.908Z</time>
		<geoidheight>261</geoidheight>
	</trkpt>
	<trkpt lat="50.696261" lon="6.189927">
		<ele>307</ele>
		<time>2011-09-11T10:23:42.905Z</time>
		<geoidheight>261</geoidheight>
	</trkpt>
	<trkpt lat="50.696261" lon="6.189927">
		<ele>307</ele>
		<time>2011-09-11T10:23:45.904Z</time>
		<geoidheight>261</geoidheight>
	</trkpt>
	<trkpt lat="50.696275" lon="6.189983">
		<ele>307</ele>
		<time>2011-09-11T10:23:46.905Z</time>
		<geoidheight>261</geoidheight>
	</trkpt>
	<trkpt lat="50.696278" lon="6.189997">
		<ele>307</ele>
		<time>2011-09-11T10:23:47.904Z</time>
		<geoidheight>261</geoidheight>
	</trkpt>
	<trkpt lat="50.696280" lon="6.190011">
		<ele>307</ele>
		<time>2011-09-11T10:23:48.918Z</time>
		<geoidheight>261</geoidheight>
	</trkpt>
	<trkpt lat="50.696283" lon="6.190025">
		<ele>307</ele>
		<time>2011-09-11T10:23:49.913Z</time>
		<geoidheight>261</geoidheight>
	</trkpt>
	<trkpt lat="50.696286" lon="6.190038">
		<ele>307</ele>
		<time>2011-09-11T10:23:51.904Z</time>
		<geoidheight>261</geoidheight>
	</trkpt>
	<trkpt lat="50.696294" lon="6.190062">
		<ele>307</ele>
		<time>2011-09-11T10:23:52.914Z</time>
		<geoidheight>261</geoidheight>
	</trkpt>
	<trkpt lat="50.696297" lon="6.190071">
		<ele>307</ele>
		<time>2011-09-11T10:23:53.904Z</time>
		<geoidheight>261</geoidheight>
	</trkpt>
	<trkpt lat="50.696300" lon="6.190079">
		<ele>307</ele>
		<time>2011-09-11T10:23:54.912Z</time>
		<geoidheight>261</geoidheight>
	</trkpt>
	<trkpt lat="50.696301" lon="6.190087">
		<ele>307</ele>
		<time>2011-09-11T10:23:55.911Z</time>
		<geoidheight>261</geoidheight>
	</trkpt>
	<trkpt lat="50.696302" lon="6.190095">
		<ele>307</ele>
		<time>2011-09-11T10:23:56.909Z</time>
		<geoidheight>261</geoidheight>
	</trkpt>
	<trkpt lat="50.696302" lon="6.190104">
		<ele>307</ele>
		<time>2011-09-11T10:23:57.910Z</time>
		<geoidheight>261</geoidheight>
	</trkpt>
	<trkpt lat="50.696302" lon="6.190114">
		<ele>307</ele>
		<time>2011-09-11T10:23:58.914Z</time>
		<geoidheight>261</geoidheight>
	</trkpt>
	<trkpt lat="50.696303" lon="6.190125">
		<ele>307</ele>
		<time>2011-09-11T10:23:59.911Z</time>
		<geoidheight>261</geoidheight>
	</trkpt>
	<trkpt lat="50.696302" lon="6.190134">
		<ele>307</ele>
		<time>2011-09-11T10:24:00.911Z</time>
		<geoidheight>261</geoidheight>
	</trkpt>
	<trkpt lat="50.696301" lon="6.190144">
		<ele>308</ele>
		<time>2011-09-11T10:24:01.912Z</time>
		<geoidheight>262</geoidheight>
	</trkpt>
	<trkpt lat="50.696298" lon="6.190153">
		<ele>308</ele>
		<time>2011-09-11T10:24:02.913Z</time>
		<geoidheight>262</geoidheight>
	</trkpt>
	<trkpt lat="50.696296" lon="6.190164">
		<ele>308</ele>
		<time>2011-09-11T10:24:03.913Z</time>
		<geoidheight>262</geoidheight>
	</trkpt>
	<trkpt lat="50.696293" lon="6.190175">
		<ele>308</ele>
		<time>2011-09-11T10:24:04.913Z</time>
		<geoidheight>262</geoidheight>
	</trkpt>
	<trkpt lat="50.696291" lon="6.190187">
		<ele>309</ele>
		<time>2011-09-11T10:24:05.912Z</time>
		<geoidheight>263</geoidheight>
	</trkpt>
	<trkpt lat="50.696288" lon="6.190200">
		<ele>309</ele>
		<time>2011-09-11T10:24:06.904Z</time>
		<geoidheight>263</geoidheight>
	</trkpt>
	<trkpt lat="50.696285" lon="6.190214">
		<ele>309</ele>
		<time>2011-09-11T10:24:07.913Z</time>
		<geoidheight>263</geoidheight>
	</trkpt>
	<trkpt lat="50.696283" lon="6.190228">
		<ele>309</ele>
		<time>2011-09-11T10:24:08.906Z</time>
		<geoidheight>263</geoidheight>
	</trkpt>
	<trkpt lat="50.696280" lon="6.190242">
		<ele>309</ele>
		<time>2011-09-11T10:24:09.907Z</time>
		<geoidheight>263</geoidheight>
	</trkpt>
	<trkpt lat="50.696277" lon="6.190253">
		<ele>310</ele>
		<time>2011-09-11T10:24:10.904Z</time>
		<geoidheight>264</geoidheight>
	</trkpt>
	<trkpt lat="50.696274" lon="6.190263">
		<ele>310</ele>
		<time>2011-09-11T10:24:11.912Z</time>
		<geoidheight>264</geoidheight>
	</trkpt>
	<trkpt lat="50.696270" lon="6.190271">
		<ele>310</ele>
		<time>2011-09-11T10:24:12.906Z</time>
		<geoidheight>264</geoidheight>
	</trkpt>
	<trkpt lat="50.696267" lon="6.190280">
		<ele>310</ele>
		<time>2011-09-11T10:24:13.905Z</time>
		<geoidheight>264</geoidheight>
	</trkpt>
	<trkpt lat="50.696263" lon="6.190289">
		<ele>311</ele>
		<time>2011-09-11T10:24:14.907Z</time>
		<geoidheight>265</geoidheight>
	</trkpt>
	<trkpt lat="50.696263" lon="6.190289">
		<ele>311</ele>
		<time>2011-09-11T10:24:20.903Z</time>
		<geoidheight>265</geoidheight>
	</trkpt>
	<trkpt lat="50.696272" lon="6.190370">
		<ele>310</ele>
		<time>2011-09-11T10:24:21.905Z</time>
		<geoidheight>264</geoidheight>
	</trkpt>
	<trkpt lat="50.696272" lon="6.190370">
		<ele>310</ele>
		<time>2011-09-11T10:24:23.904Z</time>
		<geoidheight>264</geoidheight>
	</trkpt>
	<trkpt lat="50.696280" lon="6.190461">
		<ele>310</ele>
		<time>2011-09-11T10:24:24.905Z</time>
		<geoidheight>264</geoidheight>
	</trkpt>
	<trkpt lat="50.696280" lon="6.190461">
		<ele>309</ele>
		<time>2011-09-11T10:24:26.904Z</time>
		<geoidheight>263</geoidheight>
	</trkpt>
	<trkpt lat="50.696275" lon="6.190535">
		<ele>309</ele>
		<time>2011-09-11T10:24:27.907Z</time>
		<geoidheight>263</geoidheight>
	</trkpt>
	<trkpt lat="50.696275" lon="6.190535">
		<ele>308</ele>
		<time>2011-09-11T10:24:31.916Z</time>
		<geoidheight>262</geoidheight>
	</trkpt>
	<trkpt lat="50.696273" lon="6.190616">
		<ele>308</ele>
		<time>2011-09-11T10:24:32.916Z</time>
		<geoidheight>262</geoidheight>
	</trkpt>
	<trkpt lat="50.696273" lon="6.190616">
		<ele>306</ele>
		<time>2011-09-11T10:24:41.912Z</time>
		<geoidheight>260</geoidheight>
	</trkpt>
	<trkpt lat="50.696284" lon="6.190691">
		<ele>305</ele>
		<time>2011-09-11T10:24:42.914Z</time>
		<geoidheight>259</geoidheight>
	</trkpt>
	<trkpt lat="50.696284" lon="6.190691">
		<ele>304</ele>
		<time>2011-09-11T10:24:44.921Z</time>
		<geoidheight>258</geoidheight>
	</trkpt>
	<trkpt lat="50.696287" lon="6.190725">
		<ele>304</ele>
		<time>2011-09-11T10:24:45.915Z</time>
		<geoidheight>258</geoidheight>
	</trkpt>
	<trkpt lat="50.696290" lon="6.190736">
		<ele>304</ele>
		<time>2011-09-11T10:24:46.912Z</time>
		<geoidheight>258</geoidheight>
	</trkpt>
	<trkpt lat="50.696291" lon="6.190748">
		<ele>303</ele>
		<time>2011-09-11T10:24:47.913Z</time>
		<geoidheight>257</geoidheight>
	</trkpt>
	<trkpt lat="50.696293" lon="6.190759">
		<ele>303</ele>
		<time>2011-09-11T10:24:48.920Z</time>
		<geoidheight>257</geoidheight>
	</trkpt>
	<trkpt lat="50.696297" lon="6.190772">
		<ele>303</ele>
		<time>2011-09-11T10:24:49.913Z</time>
		<geoidheight>257</geoidheight>
	</trkpt>
	<trkpt lat="50.696301" lon="6.190784">
		<ele>302</ele>
		<time>2011-09-11T10:24:50.911Z</time>
		<geoidheight>256</geoidheight>
	</trkpt>
	<trkpt lat="50.696306" lon="6.190799">
		<ele>302</ele>
		<time>2011-09-11T10:24:51.911Z</time>
		<geoidheight>256</geoidheight>
	</trkpt>
	<trkpt lat="50.696309" lon="6.190814">
		<ele>301</ele>
		<time>2011-09-11T10:24:52.916Z</time>
		<geoidheight>255</geoidheight>
	</trkpt>
	<trkpt lat="50.696313" lon="6.190830">
		<ele>301</ele>
		<time>2011-09-11T10:24:53.912Z</time>
		<geoidheight>255</geoidheight>
	</trkpt>
	<trkpt lat="50.696316" lon="6.190845">
		<ele>301</ele>
		<time>2011-09-11T10:24:54.910Z</time>
		<geoidheight>255</geoidheight>
	</trkpt>
	<trkpt lat="50.696318" lon="6.190860">
		<ele>300</ele>
		<time>2011-09-11T10:24:55.913Z</time>
		<geoidheight>254</geoidheight>
	</trkpt>
	<trkpt lat="50.696320" lon="6.190875">
		<ele>300</ele>
		<time>2011-09-11T10:24:56.913Z</time>
		<geoidheight>254</geoidheight>
	</trkpt>
	<trkpt lat="50.696322" lon="6.190891">
		<ele>300</ele>
		<time>2011-09-11T10:24:57.911Z</time>
		<geoidheight>254</geoidheight>
	</trkpt>
	<trkpt lat="50.696324" lon="6.190907">
		<ele>299</ele>
		<time>2011-09-11T10:24:58.913Z</time>
		<geoidheight>253</geoidheight>
	</trkpt>
	<trkpt lat="50.696324" lon="6.190924">
		<ele>299</ele>
		<time>2011-09-11T10:24:59.913Z</time>
		<geoidheight>253</geoidheight>
	</trkpt>
	<trkpt lat="50.696325" lon="6.190940">
		<ele>299</ele>
		<time>2011-09-11T10:25:00.911Z</time>
		<geoidheight>253</geoidheight>
	</trkpt>
	<trkpt lat="50.696324" lon="6.190956">
		<ele>298</ele>
		<time>2011-09-11T10:25:01.913Z</time>
		<geoidheight>252</geoidheight>
	</trkpt>
	<trkpt lat="50.696324" lon="6.190973">
		<ele>298</ele>
		<time>2011-09-11T10:25:02.914Z</time>
		<geoidheight>252</geoidheight>
	</trkpt>
	<trkpt lat="50.696324" lon="6.190989">
		<ele>298</ele>
		<time>2011-09-11T10:25:03.914Z</time>
		<geoidheight>252</geoidheight>
	</trkpt>
	<trkpt lat="50.696324" lon="6.191005">
		<ele>298</ele>
		<time>2011-09-11T10:25:04.916Z</time>
		<geoidheight>252</geoidheight>
	</trkpt>
	<trkpt lat="50.696325" lon="6.191021">
		<ele>297</ele>
		<time>2011-09-11T10:25:05.913Z</time>
		<geoidheight>251</geoidheight>
	</trkpt>
	<trkpt lat="50.696325" lon="6.191036">
		<ele>297</ele>
		<time>2011-09-11T10:25:06.914Z</time>
		<geoidheight>251</geoidheight>
	</trkpt>
	<trkpt lat="50.696325" lon="6.191053">
		<ele>297</ele>
		<time>2011-09-11T10:25:07.914Z</time>
		<geoidheight>251</geoidheight>
	</trkpt>
	<trkpt lat="50.696325" lon="6.191069">
		<ele>297</ele>
		<time>2011-09-11T10:25:08.905Z</time>
		<geoidheight>251</geoidheight>
	</trkpt>
	<trkpt lat="50.696325" lon="6.191086">
		<ele>296</ele>
		<time>2011-09-11T10:25:09.905Z</time>
		<geoidheight>250</geoidheight>
	</trkpt>
	<trkpt lat="50.696324" lon="6.191103">
		<ele>296</ele>
		<time>2011-09-11T10:25:10.905Z</time>
		<geoidheight>250</geoidheight>
	</trkpt>
	<trkpt lat="50.696323" lon="6.191120">
		<ele>296</ele>
		<time>2011-09-11T10:25:11.904Z</time>
		<geoidheight>250</geoidheight>
	</trkpt>
	<trkpt lat="50.696321" lon="6.191137">
		<ele>296</ele>
		<time>2011-09-11T10:25:12.909Z</time>
		<geoidheight>250</geoidheight>
	</trkpt>
	<trkpt lat="50.696320" lon="6.191153">
		<ele>296</ele>
		<time>2011-09-11T10:25:13.913Z</time>
		<geoidheight>250</geoidheight>
	</trkpt>
	<trkpt lat="50.696319" lon="6.191170">
		<ele>296</ele>
		<time>2011-09-11T10:25:14.905Z</time>
		<geoidheight>250</geoidheight>
	</trkpt>
	<trkpt lat="50.696319" lon="6.191187">
		<ele>295</ele>
		<time>2011-09-11T10:25:15.906Z</time>
		<geoidheight>249</geoidheight>
	</trkpt>
	<trkpt lat="50.696321" lon="6.191210">
		<ele>295</ele>
		<time>2011-09-11T10:25:16.905Z</time>
		<geoidheight>249</geoidheight>
	</trkpt>
	<trkpt lat="50.696323" lon="6.191233">
		<ele>295</ele>
		<time>2011-09-11T10:25:17.910Z</time>
		<geoidheight>249</geoidheight>
	</trkpt>
	<trkpt lat="50.696325" lon="6.191255">
		<ele>295</ele>
		<time>2011-09-11T10:25:18.908Z</time>
		<geoidheight>249</geoidheight>
	</trkpt>
	<trkpt lat="50.696326" lon="6.191277">
		<ele>295</ele>
		<time>2011-09-11T10:25:19.905Z</time>
		<geoidheight>249</geoidheight>
	</trkpt>
	<trkpt lat="50.696326" lon="6.191298">
		<ele>295</ele>
		<time>2011-09-11T10:25:20.904Z</time>
		<geoidheight>249</geoidheight>
	</trkpt>
	<trkpt lat="50.696325" lon="6.191319">
		<ele>294</ele>
		<time>2011-09-11T10:25:21.919Z</time>
		<geoidheight>248</geoidheight>
	</trkpt>
	<trkpt lat="50.696323" lon="6.191340">
		<ele>294</ele>
		<time>2011-09-11T10:25:22.905Z</time>
		<geoidheight>248</geoidheight>
	</trkpt>
	<trkpt lat="50.696321" lon="6.191360">
		<ele>294</ele>
		<time>2011-09-11T10:25:23.913Z</time>
		<geoidheight>248</geoidheight>
	</trkpt>
	<trkpt lat="50.696319" lon="6.191378">
		<ele>294</ele>
		<time>2011-09-11T10:25:24.912Z</time>
		<geoidheight>248</geoidheight>
	</trkpt>
	<trkpt lat="50.696317" lon="6.191395">
		<ele>294</ele>
		<time>2011-09-11T10:25:25.905Z</time>
		<geoidheight>248</geoidheight>
	</trkpt>
	<trkpt lat="50.696316" lon="6.191410">
		<ele>293</ele>
		<time>2011-09-11T10:25:26.905Z</time>
		<geoidheight>247</geoidheight>
	</trkpt>
	<trkpt lat="50.696315" lon="6.191426">
		<ele>293</ele>
		<time>2011-09-11T10:25:27.913Z</time>
		<geoidheight>247</geoidheight>
	</trkpt>
	<trkpt lat="50.696314" lon="6.191442">
		<ele>293</ele>
		<time>2011-09-11T10:25:28.907Z</time>
		<geoidheight>247</geoidheight>
	</trkpt>
	<trkpt lat="50.696314" lon="6.191459">
		<ele>293</ele>
		<time>2011-09-11T10:25:29.912Z</time>
		<geoidheight>247</geoidheight>
	</trkpt>
	<trkpt lat="50.696314" lon="6.191476">
		<ele>293</ele>
		<time>2011-09-11T10:25:30.912Z</time>
		<geoidheight>247</geoidheight>
	</trkpt>
	<trkpt lat="50.696317" lon="6.191494">
		<ele>293</ele>
		<time>2011-09-11T10:25:31.912Z</time>
		<geoidheight>247</geoidheight>
	</trkpt>
	<trkpt lat="50.696319" lon="6.191514">
		<ele>293</ele>
		<time>2011-09-11T10:25:32.911Z</time>
		<geoidheight>247</geoidheight>
	</trkpt>
	<trkpt lat="50.696324" lon="6.191538">
		<ele>293</ele>
		<time>2011-09-11T10:25:33.906Z</time>
		<geoidheight>247</geoidheight>
	</trkpt>
	<trkpt lat="50.696330" lon="6.191562">
		<ele>293</ele>
		<time>2011-09-11T10:25:34.907Z</time>
		<geoidheight>247</geoidheight>
	</trkpt>
	<trkpt lat="50.696330" lon="6.191562">
		<ele>293</ele>
		<time>2011-09-11T10:25:35.911Z</time>
		<geoidheight>247</geoidheight>
	</trkpt>
	<trkpt lat="50.696343" lon="6.191605">
		<ele>293</ele>
		<time>2011-09-11T10:25:36.913Z</time>
		<geoidheight>247</geoidheight>
	</trkpt>
	<trkpt lat="50.696351" lon="6.191630">
		<ele>293</ele>
		<time>2011-09-11T10:25:37.912Z</time>
		<geoidheight>247</geoidheight>
	</trkpt>
	<trkpt lat="50.696357" lon="6.191651">
		<ele>293</ele>
		<time>2011-09-11T10:25:38.911Z</time>
		<geoidheight>247</geoidheight>
	</trkpt>
	<trkpt lat="50.696357" lon="6.191651">
		<ele>293</ele>
		<time>2011-09-11T10:25:42.911Z</time>
		<geoidheight>247</geoidheight>
	</trkpt>
	<trkpt lat="50.696387" lon="6.191719">
		<ele>293</ele>
		<time>2011-09-11T10:25:43.908Z</time>
		<geoidheight>247</geoidheight>
	</trkpt>
	<trkpt lat="50.696393" lon="6.191734">
		<ele>294</ele>
		<time>2011-09-11T10:25:44.911Z</time>
		<geoidheight>248</geoidheight>
	</trkpt>
	<trkpt lat="50.696398" lon="6.191752">
		<ele>294</ele>
		<time>2011-09-11T10:25:45.905Z</time>
		<geoidheight>248</geoidheight>
	</trkpt>
	<trkpt lat="50.696402" lon="6.191770">
		<ele>294</ele>
		<time>2011-09-11T10:25:46.913Z</time>
		<geoidheight>248</geoidheight>
	</trkpt>
	<trkpt lat="50.696406" lon="6.191787">
		<ele>294</ele>
		<time>2011-09-11T10:25:47.905Z</time>
		<geoidheight>248</geoidheight>
	</trkpt>
	<trkpt lat="50.696409" lon="6.191804">
		<ele>295</ele>
		<time>2011-09-11T10:25:48.906Z</time>
		<geoidheight>249</geoidheight>
	</trkpt>
	<trkpt lat="50.696412" lon="6.191820">
		<ele>295</ele>
		<time>2011-09-11T10:25:49.929Z</time>
		<geoidheight>249</geoidheight>
	</trkpt>
	<trkpt lat="50.696414" lon="6.191834">
		<ele>295</ele>
		<time>2011-09-11T10:25:50.907Z</time>
		<geoidheight>249</geoidheight>
	</trkpt>
	<trkpt lat="50.696418" lon="6.191846">
		<ele>295</ele>
		<time>2011-09-11T10:25:51.905Z</time>
		<geoidheight>249</geoidheight>
	</trkpt>
	<trkpt lat="50.696422" lon="6.191857">
		<ele>295</ele>
		<time>2011-09-11T10:25:52.907Z</time>
		<geoidheight>249</geoidheight>
	</trkpt>
	<trkpt lat="50.696424" lon="6.191870">
		<ele>296</ele>
		<time>2011-09-11T10:25:53.913Z</time>
		<geoidheight>250</geoidheight>
	</trkpt>
	<trkpt lat="50.696427" lon="6.191882">
		<ele>296</ele>
		<time>2011-09-11T10:25:54.911Z</time>
		<geoidheight>250</geoidheight>
	</trkpt>
	<trkpt lat="50.696431" lon="6.191894">
		<ele>296</ele>
		<time>2011-09-11T10:25:55.912Z</time>
		<geoidheight>250</geoidheight>
	</trkpt>
	<trkpt lat="50.696436" lon="6.191906">
		<ele>296</ele>
		<time>2011-09-11T10:25:56.908Z</time>
		<geoidheight>250</geoidheight>
	</trkpt>
	<trkpt lat="50.696441" lon="6.191918">
		<ele>296</ele>
		<time>2011-09-11T10:25:57.911Z</time>
		<geoidheight>250</geoidheight>
	</trkpt>
	<trkpt lat="50.696446" lon="6.191934">
		<ele>297</ele>
		<time>2011-09-11T10:25:58.917Z</time>
		<geoidheight>251</geoidheight>
	</trkpt>
	<trkpt lat="50.696450" lon="6.191953">
		<ele>297</ele>
		<time>2011-09-11T10:25:59.907Z</time>
		<geoidheight>251</geoidheight>
	</trkpt>
	<trkpt lat="50.696453" lon="6.191973">
		<ele>297</ele>
		<time>2011-09-11T10:26:00.905Z</time>
		<geoidheight>251</geoidheight>
	</trkpt>
	<trkpt lat="50.696456" lon="6.191993">
		<ele>297</ele>
		<time>2011-09-11T10:26:01.909Z</time>
		<geoidheight>251</geoidheight>
	</trkpt>
	<trkpt lat="50.696456" lon="6.191993">
		<ele>298</ele>
		<time>2011-09-11T10:26:02.914Z</time>
		<geoidheight>252</geoidheight>
	</trkpt>
	<trkpt lat="50.696461" lon="6.192037">
		<ele>298</ele>
		<time>2011-09-11T10:26:03.910Z</time>
		<geoidheight>252</geoidheight>
	</trkpt>
	<trkpt lat="50.696461" lon="6.192037">
		<ele>298</ele>
		<time>2011-09-11T10:26:05.905Z</time>
		<geoidheight>252</geoidheight>
	</trkpt>
	<trkpt lat="50.696464" lon="6.192097">
		<ele>299</ele>
		<time>2011-09-11T10:26:06.907Z</time>
		<geoidheight>253</geoidheight>
	</trkpt>
	<trkpt lat="50.696466" lon="6.192120">
		<ele>299</ele>
		<time>2011-09-11T10:26:07.910Z</time>
		<geoidheight>253</geoidheight>
	</trkpt>
	<trkpt lat="50.696470" lon="6.192145">
		<ele>299</ele>
		<time>2011-09-11T10:26:08.905Z</time>
		<geoidheight>253</geoidheight>
	</trkpt>
	<trkpt lat="50.696474" lon="6.192168">
		<ele>299</ele>
		<time>2011-09-11T10:26:09.912Z</time>
		<geoidheight>253</geoidheight>
	</trkpt>
	<trkpt lat="50.696474" lon="6.192168">
		<ele>300</ele>
		<time>2011-09-11T10:26:10.910Z</time>
		<geoidheight>254</geoidheight>
	</trkpt>
	<trkpt lat="50.696482" lon="6.192209">
		<ele>300</ele>
		<time>2011-09-11T10:26:11.905Z</time>
		<geoidheight>254</geoidheight>
	</trkpt>
	<trkpt lat="50.696482" lon="6.192209">
		<ele>300</ele>
		<time>2011-09-11T10:26:13.912Z</time>
		<geoidheight>254</geoidheight>
	</trkpt>
	<trkpt lat="50.696496" lon="6.192258">
		<ele>301</ele>
		<time>2011-09-11T10:26:14.907Z</time>
		<geoidheight>255</geoidheight>
	</trkpt>
	<trkpt lat="50.696501" lon="6.192273">
		<ele>301</ele>
		<time>2011-09-11T10:26:15.912Z</time>
		<geoidheight>255</geoidheight>
	</trkpt>
	<trkpt lat="50.696504" lon="6.192289">
		<ele>301</ele>
		<time>2011-09-11T10:26:16.911Z</time>
		<geoidheight>255</geoidheight>
	</trkpt>
	<trkpt lat="50.696508" lon="6.192304">
		<ele>301</ele>
		<time>2011-09-11T10:26:17.912Z</time>
		<geoidheight>255</geoidheight>
	</trkpt>
	<trkpt lat="50.696512" lon="6.192321">
		<ele>302</ele>
		<time>2011-09-11T10:26:18.918Z</time>
		<geoidheight>256</geoidheight>
	</trkpt>
	<trkpt lat="50.696514" lon="6.192337">
		<ele>302</ele>
		<time>2011-09-11T10:26:19.906Z</time>
		<geoidheight>256</geoidheight>
	</trkpt>
	<trkpt lat="50.696514" lon="6.192354">
		<ele>302</ele>
		<time>2011-09-11T10:26:20.904Z</time>
		<geoidheight>256</geoidheight>
	</trkpt>
	<trkpt lat="50.696516" lon="6.192371">
		<ele>303</ele>
		<time>2011-09-11T10:26:21.933Z</time>
		<geoidheight>257</geoidheight>
	</trkpt>
	<trkpt lat="50.696515" lon="6.192390">
		<ele>303</ele>
		<time>2011-09-11T10:26:22.922Z</time>
		<geoidheight>257</geoidheight>
	</trkpt>
	<trkpt lat="50.696512" lon="6.192409">
		<ele>303</ele>
		<time>2011-09-11T10:26:23.919Z</time>
		<geoidheight>257</geoidheight>
	</trkpt>
	<trkpt lat="50.696509" lon="6.192429">
		<ele>303</ele>
		<time>2011-09-11T10:26:24.913Z</time>
		<geoidheight>257</geoidheight>
	</trkpt>
	<trkpt lat="50.696506" lon="6.192448">
		<ele>304</ele>
		<time>2011-09-11T10:26:25.920Z</time>
		<geoidheight>258</geoidheight>
	</trkpt>
	<trkpt lat="50.696503" lon="6.192469">
		<ele>304</ele>
		<time>2011-09-11T10:26:26.910Z</time>
		<geoidheight>258</geoidheight>
	</trkpt>
	<trkpt lat="50.696501" lon="6.192492">
		<ele>304</ele>
		<time>2011-09-11T10:26:27.914Z</time>
		<geoidheight>258</geoidheight>
	</trkpt>
	<trkpt lat="50.696500" lon="6.192515">
		<ele>304</ele>
		<time>2011-09-11T10:26:28.914Z</time>
		<geoidheight>258</geoidheight>
	</trkpt>
	<trkpt lat="50.696499" lon="6.192538">
		<ele>304</ele>
		<time>2011-09-11T10:26:29.923Z</time>
		<geoidheight>258</geoidheight>
	</trkpt>
	<trkpt lat="50.696500" lon="6.192559">
		<ele>305</ele>
		<time>2011-09-11T10:26:30.922Z</time>
		<geoidheight>259</geoidheight>
	</trkpt>
	<trkpt lat="50.696501" lon="6.192580">
		<ele>305</ele>
		<time>2011-09-11T10:26:31.919Z</time>
		<geoidheight>259</geoidheight>
	</trkpt>
	<trkpt lat="50.696502" lon="6.192599">
		<ele>305</ele>
		<time>2011-09-11T10:26:32.920Z</time>
		<geoidheight>259</geoidheight>
	</trkpt>
	<trkpt lat="50.696502" lon="6.192618">
		<ele>305</ele>
		<time>2011-09-11T10:26:33.917Z</time>
		<geoidheight>259</geoidheight>
	</trkpt>
	<trkpt lat="50.696501" lon="6.192636">
		<ele>306</ele>
		<time>2011-09-11T10:26:34.922Z</time>
		<geoidheight>260</geoidheight>
	</trkpt>
	<trkpt lat="50.696500" lon="6.192653">
		<ele>306</ele>
		<time>2011-09-11T10:26:35.915Z</time>
		<geoidheight>260</geoidheight>
	</trkpt>
	<trkpt lat="50.696498" lon="6.192668">
		<ele>306</ele>
		<time>2011-09-11T10:26:36.921Z</time>
		<geoidheight>260</geoidheight>
	</trkpt>
	<trkpt lat="50.696495" lon="6.192683">
		<ele>306</ele>
		<time>2011-09-11T10:26:37.920Z</time>
		<geoidheight>260</geoidheight>
	</trkpt>
	<trkpt lat="50.696492" lon="6.192697">
		<ele>307</ele>
		<time>2011-09-11T10:26:38.916Z</time>
		<geoidheight>261</geoidheight>
	</trkpt>
	<trkpt lat="50.696489" lon="6.192711">
		<ele>307</ele>
		<time>2011-09-11T10:26:39.937Z</time>
		<geoidheight>261</geoidheight>
	</trkpt>
	<trkpt lat="50.696486" lon="6.192726">
		<ele>307</ele>
		<time>2011-09-11T10:26:40.921Z</time>
		<geoidheight>261</geoidheight>
	</trkpt>
	<trkpt lat="50.696484" lon="6.192741">
		<ele>308</ele>
		<time>2011-09-11T10:26:41.919Z</time>
		<geoidheight>262</geoidheight>
	</trkpt>
	<trkpt lat="50.696482" lon="6.192755">
		<ele>308</ele>
		<time>2011-09-11T10:26:42.915Z</time>
		<geoidheight>262</geoidheight>
	</trkpt>
	<trkpt lat="50.696480" lon="6.192769">
		<ele>308</ele>
		<time>2011-09-11T10:26:43.913Z</time>
		<geoidheight>262</geoidheight>
	</trkpt>
	<trkpt lat="50.696478" lon="6.192784">
		<ele>308</ele>
		<time>2011-09-11T10:26:44.918Z</time>
		<geoidheight>262</geoidheight>
	</trkpt>
	<trkpt lat="50.696478" lon="6.192798">
		<ele>309</ele>
		<time>2011-09-11T10:26:45.919Z</time>
		<geoidheight>263</geoidheight>
	</trkpt>
	<trkpt lat="50.696478" lon="6.192815">
		<ele>309</ele>
		<time>2011-09-11T10:26:46.913Z</time>
		<geoidheight>263</geoidheight>
	</trkpt>
	<trkpt lat="50.696478" lon="6.192834">
		<ele>309</ele>
		<time>2011-09-11T10:26:47.916Z</time>
		<geoidheight>263</geoidheight>
	</trkpt>
	<trkpt lat="50.696477" lon="6.192855">
		<ele>309</ele>
		<time>2011-09-11T10:26:48.922Z</time>
		<geoidheight>263</geoidheight>
	</trkpt>
	<trkpt lat="50.696476" lon="6.192875">
		<ele>309</ele>
		<time>2011-09-11T10:26:49.924Z</time>
		<geoidheight>263</geoidheight>
	</trkpt>
	<trkpt lat="50.696475" lon="6.192895">
		<ele>310</ele>
		<time>2011-09-11T10:26:50.914Z</time>
		<geoidheight>264</geoidheight>
	</trkpt>
	<trkpt lat="50.696473" lon="6.192913">
		<ele>310</ele>
		<time>2011-09-11T10:26:51.910Z</time>
		<geoidheight>264</geoidheight>
	</trkpt>
	<trkpt lat="50.696472" lon="6.192930">
		<ele>310</ele>
		<time>2011-09-11T10:26:52.914Z</time>
		<geoidheight>264</geoidheight>
	</trkpt>
	<trkpt lat="50.696474" lon="6.192948">
		<ele>310</ele>
		<time>2011-09-11T10:26:53.913Z</time>
		<geoidheight>264</geoidheight>
	</trkpt>
	<trkpt lat="50.696475" lon="6.192972">
		<ele>310</ele>
		<time>2011-09-11T10:26:54.914Z</time>
		<geoidheight>264</geoidheight>
	</trkpt>
	<trkpt lat="50.696478" lon="6.193004">
		<ele>310</ele>
		<time>2011-09-11T10:26:55.923Z</time>
		<geoidheight>264</geoidheight>
	</trkpt>
	<trkpt lat="50.696481" lon="6.193037">
		<ele>311</ele>
		<time>2011-09-11T10:26:56.923Z</time>
		<geoidheight>265</geoidheight>
	</trkpt>
	<trkpt lat="50.696484" lon="6.193070">
		<ele>311</ele>
		<time>2011-09-11T10:26:57.913Z</time>
		<geoidheight>265</geoidheight>
	</trkpt>
	<trkpt lat="50.696487" lon="6.193102">
		<ele>311</ele>
		<time>2011-09-11T10:26:58.919Z</time>
		<geoidheight>265</geoidheight>
	</trkpt>
	<trkpt lat="50.696490" lon="6.193136">
		<ele>311</ele>
		<time>2011-09-11T10:26:59.929Z</time>
		<geoidheight>265</geoidheight>
	</trkpt>
	<trkpt lat="50.696493" lon="6.193171">
		<ele>311</ele>
		<time>2011-09-11T10:27:00.911Z</time>
		<geoidheight>265</geoidheight>
	</trkpt>
	<trkpt lat="50.696497" lon="6.193205">
		<ele>311</ele>
		<time>2011-09-11T10:27:01.911Z</time>
		<geoidheight>265</geoidheight>
	</trkpt>
	<trkpt lat="50.696502" lon="6.193238">
		<ele>311</ele>
		<time>2011-09-11T10:27:02.905Z</time>
		<geoidheight>265</geoidheight>
	</trkpt>
	<trkpt lat="50.696507" lon="6.193268">
		<ele>311</ele>
		<time>2011-09-11T10:27:03.913Z</time>
		<geoidheight>265</geoidheight>
	</trkpt>
	<trkpt lat="50.696512" lon="6.193299">
		<ele>311</ele>
		<time>2011-09-11T10:27:04.911Z</time>
		<geoidheight>265</geoidheight>
	</trkpt>
	<trkpt lat="50.696516" lon="6.193331">
		<ele>311</ele>
		<time>2011-09-11T10:27:05.912Z</time>
		<geoidheight>265</geoidheight>
	</trkpt>
	<trkpt lat="50.696519" lon="6.193361">
		<ele>311</ele>
		<time>2011-09-11T10:27:06.912Z</time>
		<geoidheight>265</geoidheight>
	</trkpt>
	<trkpt lat="50.696520" lon="6.193392">
		<ele>311</ele>
		<time>2011-09-11T10:27:07.913Z</time>
		<geoidheight>265</geoidheight>
	</trkpt>
	<trkpt lat="50.696521" lon="6.193421">
		<ele>311</ele>
		<time>2011-09-11T10:27:08.914Z</time>
		<geoidheight>265</geoidheight>
	</trkpt>
	<trkpt lat="50.696522" lon="6.193449">
		<ele>311</ele>
		<time>2011-09-11T10:27:09.913Z</time>
		<geoidheight>265</geoidheight>
	</trkpt>
	<trkpt lat="50.696523" lon="6.193477">
		<ele>311</ele>
		<time>2011-09-11T10:27:10.905Z</time>
		<geoidheight>265</geoidheight>
	</trkpt>
	<trkpt lat="50.696523" lon="6.193504">
		<ele>311</ele>
		<time>2011-09-11T10:27:11.913Z</time>
		<geoidheight>265</geoidheight>
	</trkpt>
	<trkpt lat="50.696524" lon="6.193531">
		<ele>311</ele>
		<time>2011-09-11T10:27:12.912Z</time>
		<geoidheight>265</geoidheight>
	</trkpt>
	<trkpt lat="50.696522" lon="6.193556">
		<ele>311</ele>
		<time>2011-09-11T10:27:13.913Z</time>
		<geoidheight>265</geoidheight>
	</trkpt>
	<trkpt lat="50.696520" lon="6.193583">
		<ele>311</ele>
		<time>2011-09-11T10:27:14.910Z</time>
		<geoidheight>265</geoidheight>
	</trkpt>
	<trkpt lat="50.696513" lon="6.193613">
		<ele>311</ele>
		<time>2011-09-11T10:27:15.916Z</time>
		<geoidheight>265</geoidheight>
	</trkpt>
	<trkpt lat="50.696504" lon="6.193638">
		<ele>311</ele>
		<time>2011-09-11T10:27:16.905Z</time>
		<geoidheight>265</geoidheight>
	</trkpt>
	<trkpt lat="50.696496" lon="6.193660">
		<ele>311</ele>
		<time>2011-09-11T10:27:17.911Z</time>
		<geoidheight>265</geoidheight>
	</trkpt>
	<trkpt lat="50.696488" lon="6.193678">
		<ele>311</ele>
		<time>2011-09-11T10:27:18.913Z</time>
		<geoidheight>265</geoidheight>
	</trkpt>
	<trkpt lat="50.696482" lon="6.193693">
		<ele>311</ele>
		<time>2011-09-11T10:27:19.912Z</time>
		<geoidheight>265</geoidheight>
	</trkpt>
	<trkpt lat="50.696480" lon="6.193703">
		<ele>311</ele>
		<time>2011-09-11T10:27:20.911Z</time>
		<geoidheight>265</geoidheight>
	</trkpt>
	<trkpt lat="50.696478" lon="6.193710">
		<ele>312</ele>
		<time>2011-09-11T10:27:21.913Z</time>
		<geoidheight>266</geoidheight>
	</trkpt>
	<trkpt lat="50.696475" lon="6.193718">
		<ele>312</ele>
		<time>2011-09-11T10:27:22.907Z</time>
		<geoidheight>266</geoidheight>
	</trkpt>
	<trkpt lat="50.696471" lon="6.193725">
		<ele>312</ele>
		<time>2011-09-11T10:27:23.913Z</time>
		<geoidheight>266</geoidheight>
	</trkpt>
	<trkpt lat="50.696466" lon="6.193733">
		<ele>312</ele>
		<time>2011-09-11T10:27:24.913Z</time>
		<geoidheight>266</geoidheight>
	</trkpt>
	<trkpt lat="50.696462" lon="6.193744">
		<ele>312</ele>
		<time>2011-09-11T10:27:25.916Z</time>
		<geoidheight>266</geoidheight>
	</trkpt>
	<trkpt lat="50.696462" lon="6.193755">
		<ele>312</ele>
		<time>2011-09-11T10:27:26.910Z</time>
		<geoidheight>266</geoidheight>
	</trkpt>
	<trkpt lat="50.696461" lon="6.193768">
		<ele>312</ele>
		<time>2011-09-11T10:27:27.906Z</time>
		<geoidheight>266</geoidheight>
	</trkpt>
	<trkpt lat="50.696460" lon="6.193787">
		<ele>312</ele>
		<time>2011-09-11T10:27:28.913Z</time>
		<geoidheight>266</geoidheight>
	</trkpt>
	<trkpt lat="50.696457" lon="6.193809">
		<ele>313</ele>
		<time>2011-09-11T10:27:29.912Z</time>
		<geoidheight>267</geoidheight>
	</trkpt>
	<trkpt lat="50.696454" lon="6.193831">
		<ele>313</ele>
		<time>2011-09-11T10:27:30.913Z</time>
		<geoidheight>267</geoidheight>
	</trkpt>
	<trkpt lat="50.696453" lon="6.193851">
		<ele>313</ele>
		<time>2011-09-11T10:27:31.913Z</time>
		<geoidheight>267</geoidheight>
	</trkpt>
	<trkpt lat="50.696451" lon="6.193871">
		<ele>313</ele>
		<time>2011-09-11T10:27:32.906Z</time>
		<geoidheight>267</geoidheight>
	</trkpt>
	<trkpt lat="50.696450" lon="6.193892">
		<ele>313</ele>
		<time>2011-09-11T10:27:33.914Z</time>
		<geoidheight>267</geoidheight>
	</trkpt>
	<trkpt lat="50.696447" lon="6.193913">
		<ele>313</ele>
		<time>2011-09-11T10:27:34.908Z</time>
		<geoidheight>267</geoidheight>
	</trkpt>
	<trkpt lat="50.696444" lon="6.193932">
		<ele>314</ele>
		<time>2011-09-11T10:27:35.906Z</time>
		<geoidheight>268</geoidheight>
	</trkpt>
	<trkpt lat="50.696442" lon="6.193950">
		<ele>314</ele>
		<time>2011-09-11T10:27:36.911Z</time>
		<geoidheight>268</geoidheight>
	</trkpt>
	<trkpt lat="50.696441" lon="6.193967">
		<ele>314</ele>
		<time>2011-09-11T10:27:37.913Z</time>
		<geoidheight>268</geoidheight>
	</trkpt>
	<trkpt lat="50.696442" lon="6.193981">
		<ele>314</ele>
		<time>2011-09-11T10:27:38.912Z</time>
		<geoidheight>268</geoidheight>
	</trkpt>
	<trkpt lat="50.696441" lon="6.193996">
		<ele>314</ele>
		<time>2011-09-11T10:27:39.910Z</time>
		<geoidheight>268</geoidheight>
	</trkpt>
	<trkpt lat="50.696439" lon="6.194012">
		<ele>314</ele>
		<time>2011-09-11T10:27:40.913Z</time>
		<geoidheight>268</geoidheight>
	</trkpt>
	<trkpt lat="50.696438" lon="6.194026">
		<ele>315</ele>
		<time>2011-09-11T10:27:41.912Z</time>
		<geoidheight>269</geoidheight>
	</trkpt>
	<trkpt lat="50.696437" lon="6.194040">
		<ele>315</ele>
		<time>2011-09-11T10:27:42.912Z</time>
		<geoidheight>269</geoidheight>
	</trkpt>
	<trkpt lat="50.696437" lon="6.194054">
		<ele>315</ele>
		<time>2011-09-11T10:27:43.913Z</time>
		<geoidheight>269</geoidheight>
	</trkpt>
	<trkpt lat="50.696437" lon="6.194070">
		<ele>315</ele>
		<time>2011-09-11T10:27:44.913Z</time>
		<geoidheight>269</geoidheight>
	</trkpt>
	<trkpt lat="50.696440" lon="6.194085">
		<ele>315</ele>
		<time>2011-09-11T10:27:45.911Z</time>
		<geoidheight>269</geoidheight>
	</trkpt>
	<trkpt lat="50.696439" lon="6.194104">
		<ele>315</ele>
		<time>2011-09-11T10:27:46.912Z</time>
		<geoidheight>269</geoidheight>
	</trkpt>
	<trkpt lat="50.696434" lon="6.194128">
		<ele>315</ele>
		<time>2011-09-11T10:27:47.913Z</time>
		<geoidheight>269</geoidheight>
	</trkpt>
	<trkpt lat="50.696428" lon="6.194154">
		<ele>316</ele>
		<time>2011-09-11T10:27:48.911Z</time>
		<geoidheight>270</geoidheight>
	</trkpt>
	<trkpt lat="50.696424" lon="6.194180">
		<ele>316</ele>
		<time>2011-09-11T10:27:49.913Z</time>
		<geoidheight>270</geoidheight>
	</trkpt>
	<trkpt lat="50.696419" lon="6.194203">
		<ele>316</ele>
		<time>2011-09-11T10:27:50.913Z</time>
		<geoidheight>270</geoidheight>
	</trkpt>
	<trkpt lat="50.696414" lon="6.194225">
		<ele>316</ele>
		<time>2011-09-11T10:27:51.911Z</time>
		<geoidheight>270</geoidheight>
	</trkpt>
	<trkpt lat="50.696408" lon="6.194244">
		<ele>317</ele>
		<time>2011-09-11T10:27:52.911Z</time>
		<geoidheight>271</geoidheight>
	</trkpt>
	<trkpt lat="50.696404" lon="6.194260">
		<ele>317</ele>
		<time>2011-09-11T10:27:53.912Z</time>
		<geoidheight>271</geoidheight>
	</trkpt>
	<trkpt lat="50.696402" lon="6.194274">
		<ele>317</ele>
		<time>2011-09-11T10:27:54.924Z</time>
		<geoidheight>271</geoidheight>
	</trkpt>
	<trkpt lat="50.696399" lon="6.194287">
		<ele>317</ele>
		<time>2011-09-11T10:27:55.913Z</time>
		<geoidheight>271</geoidheight>
	</trkpt>
	<trkpt lat="50.696396" lon="6.194300">
		<ele>317</ele>
		<time>2011-09-11T10:27:56.912Z</time>
		<geoidheight>271</geoidheight>
	</trkpt>
	<trkpt lat="50.696394" lon="6.194311">
		<ele>318</ele>
		<time>2011-09-11T10:27:57.912Z</time>
		<geoidheight>272</geoidheight>
	</trkpt>
	<trkpt lat="50.696392" lon="6.194322">
		<ele>318</ele>
		<time>2011-09-11T10:27:58.906Z</time>
		<geoidheight>272</geoidheight>
	</trkpt>
	<trkpt lat="50.696393" lon="6.194333">
		<ele>318</ele>
		<time>2011-09-11T10:27:59.912Z</time>
		<geoidheight>272</geoidheight>
	</trkpt>
	<trkpt lat="50.696394" lon="6.194345">
		<ele>318</ele>
		<time>2011-09-11T10:28:00.908Z</time>
		<geoidheight>272</geoidheight>
	</trkpt>
	<trkpt lat="50.696395" lon="6.194359">
		<ele>319</ele>
		<time>2011-09-11T10:28:01.910Z</time>
		<geoidheight>273</geoidheight>
	</trkpt>
	<trkpt lat="50.696396" lon="6.194375">
		<ele>319</ele>
		<time>2011-09-11T10:28:02.905Z</time>
		<geoidheight>273</geoidheight>
	</trkpt>
	<trkpt lat="50.696396" lon="6.194392">
		<ele>319</ele>
		<time>2011-09-11T10:28:03.912Z</time>
		<geoidheight>273</geoidheight>
	</trkpt>
	<trkpt lat="50.696399" lon="6.194409">
		<ele>319</ele>
		<time>2011-09-11T10:28:04.910Z</time>
		<geoidheight>273</geoidheight>
	</trkpt>
	<trkpt lat="50.696402" lon="6.194431">
		<ele>319</ele>
		<time>2011-09-11T10:28:05.913Z</time>
		<geoidheight>273</geoidheight>
	</trkpt>
	<trkpt lat="50.696404" lon="6.194452">
		<ele>320</ele>
		<time>2011-09-11T10:28:06.907Z</time>
		<geoidheight>274</geoidheight>
	</trkpt>
	<trkpt lat="50.696406" lon="6.194472">
		<ele>320</ele>
		<time>2011-09-11T10:28:07.911Z</time>
		<geoidheight>274</geoidheight>
	</trkpt>
	<trkpt lat="50.696408" lon="6.194492">
		<ele>320</ele>
		<time>2011-09-11T10:28:08.905Z</time>
		<geoidheight>274</geoidheight>
	</trkpt>
	<trkpt lat="50.696409" lon="6.194514">
		<ele>320</ele>
		<time>2011-09-11T10:28:09.912Z</time>
		<geoidheight>274</geoidheight>
	</trkpt>
	<trkpt lat="50.696410" lon="6.194539">
		<ele>320</ele>
		<time>2011-09-11T10:28:10.912Z</time>
		<geoidheight>274</geoidheight>
	</trkpt>
	<trkpt lat="50.696412" lon="6.194569">
		<ele>320</ele>
		<time>2011-09-11T10:28:11.917Z</time>
		<geoidheight>274</geoidheight>
	</trkpt>
	<trkpt lat="50.696415" lon="6.194600">
		<ele>320</ele>
		<time>2011-09-11T10:28:12.907Z</time>
		<geoidheight>274</geoidheight>
	</trkpt>
	<trkpt lat="50.696416" lon="6.194631">
		<ele>320</ele>
		<time>2011-09-11T10:28:13.914Z</time>
		<geoidheight>274</geoidheight>
	</trkpt>
	<trkpt lat="50.696418" lon="6.194661">
		<ele>320</ele>
		<time>2011-09-11T10:28:14.905Z</time>
		<geoidheight>274</geoidheight>
	</trkpt>
	<trkpt lat="50.696419" lon="6.194687">
		<ele>321</ele>
		<time>2011-09-11T10:28:15.915Z</time>
		<geoidheight>275</geoidheight>
	</trkpt>
	<trkpt lat="50.696422" lon="6.194711">
		<ele>321</ele>
		<time>2011-09-11T10:28:16.911Z</time>
		<geoidheight>275</geoidheight>
	</trkpt>
	<trkpt lat="50.696424" lon="6.194731">
		<ele>321</ele>
		<time>2011-09-11T10:28:17.910Z</time>
		<geoidheight>275</geoidheight>
	</trkpt>
	<trkpt lat="50.696427" lon="6.194747">
		<ele>321</ele>
		<time>2011-09-11T10:28:18.914Z</time>
		<geoidheight>275</geoidheight>
	</trkpt>
	<trkpt lat="50.696430" lon="6.194760">
		<ele>321</ele>
		<time>2011-09-11T10:28:19.911Z</time>
		<geoidheight>275</geoidheight>
	</trkpt>
	<trkpt lat="50.696433" lon="6.194771">
		<ele>321</ele>
		<time>2011-09-11T10:28:20.924Z</time>
		<geoidheight>275</geoidheight>
	</trkpt>
	<trkpt lat="50.696436" lon="6.194780">
		<ele>321</ele>
		<time>2011-09-11T10:28:21.913Z</time>
		<geoidheight>275</geoidheight>
	</trkpt>
	<trkpt lat="50.696440" lon="6.194789">
		<ele>321</ele>
		<time>2011-09-11T10:28:22.913Z</time>
		<geoidheight>275</geoidheight>
	</trkpt>
	<trkpt lat="50.696443" lon="6.194797">
		<ele>321</ele>
		<time>2011-09-11T10:28:23.910Z</time>
		<geoidheight>275</geoidheight>
	</trkpt>
	<trkpt lat="50.696447" lon="6.194805">
		<ele>321</ele>
		<time>2011-09-11T10:28:24.912Z</time>
		<geoidheight>275</geoidheight>
	</trkpt>
	<trkpt lat="50.696451" lon="6.194812">
		<ele>321</ele>
		<time>2011-09-11T10:28:25.912Z</time>
		<geoidheight>275</geoidheight>
	</trkpt>
	<trkpt lat="50.696455" lon="6.194819">
		<ele>321</ele>
		<time>2011-09-11T10:28:26.913Z</time>
		<geoidheight>275</geoidheight>
	</trkpt>
	<trkpt lat="50.696458" lon="6.194827">
		<ele>321</ele>
		<time>2011-09-11T10:28:27.912Z</time>
		<geoidheight>275</geoidheight>
	</trkpt>
	<trkpt lat="50.696461" lon="6.194837">
		<ele>321</ele>
		<time>2011-09-11T10:28:28.913Z</time>
		<geoidheight>275</geoidheight>
	</trkpt>
	<trkpt lat="50.696463" lon="6.194848">
		<ele>321</ele>
		<time>2011-09-11T10:28:29.915Z</time>
		<geoidheight>275</geoidheight>
	</trkpt>
	<trkpt lat="50.696466" lon="6.194860">
		<ele>321</ele>
		<time>2011-09-11T10:28:30.913Z</time>
		<geoidheight>275</geoidheight>
	</trkpt>
	<trkpt lat="50.696469" lon="6.194874">
		<ele>321</ele>
		<time>2011-09-11T10:28:31.913Z</time>
		<geoidheight>275</geoidheight>
	</trkpt>
	<trkpt lat="50.696473" lon="6.194890">
		<ele>321</ele>
		<time>2011-09-11T10:28:32.906Z</time>
		<geoidheight>275</geoidheight>
	</trkpt>
	<trkpt lat="50.696476" lon="6.194911">
		<ele>321</ele>
		<time>2011-09-11T10:28:33.905Z</time>
		<geoidheight>275</geoidheight>
	</trkpt>
	<trkpt lat="50.696480" lon="6.194933">
		<ele>321</ele>
		<time>2011-09-11T10:28:34.913Z</time>
		<geoidheight>275</geoidheight>
	</trkpt>
	<trkpt lat="50.696484" lon="6.194955">
		<ele>321</ele>
		<time>2011-09-11T10:28:35.910Z</time>
		<geoidheight>275</geoidheight>
	</trkpt>
	<trkpt lat="50.696487" lon="6.194979">
		<ele>321</ele>
		<time>2011-09-11T10:28:36.914Z</time>
		<geoidheight>275</geoidheight>
	</trkpt>
	<trkpt lat="50.696490" lon="6.195005">
		<ele>320</ele>
		<time>2011-09-11T10:28:37.912Z</time>
		<geoidheight>274</geoidheight>
	</trkpt>
	<trkpt lat="50.696493" lon="6.195029">
		<ele>320</ele>
		<time>2011-09-11T10:28:38.911Z</time>
		<geoidheight>274</geoidheight>
	</trkpt>
	<trkpt lat="50.696496" lon="6.195053">
		<ele>320</ele>
		<time>2011-09-11T10:28:39.909Z</time>
		<geoidheight>274</geoidheight>
	</trkpt>
	<trkpt lat="50.696500" lon="6.195078">
		<ele>320</ele>
		<time>2011-09-11T10:28:40.913Z</time>
		<geoidheight>274</geoidheight>
	</trkpt>
	<trkpt lat="50.696503" lon="6.195105">
		<ele>320</ele>
		<time>2011-09-11T10:28:41.912Z</time>
		<geoidheight>274</geoidheight>
	</trkpt>
	<trkpt lat="50.696508" lon="6.195130">
		<ele>320</ele>
		<time>2011-09-11T10:28:42.911Z</time>
		<geoidheight>274</geoidheight>
	</trkpt>
	<trkpt lat="50.696512" lon="6.195153">
		<ele>320</ele>
		<time>2011-09-11T10:28:43.916Z</time>
		<geoidheight>274</geoidheight>
	</trkpt>
	<trkpt lat="50.696515" lon="6.195174">
		<ele>320</ele>
		<time>2011-09-11T10:28:44.914Z</time>
		<geoidheight>274</geoidheight>
	</trkpt>
	<trkpt lat="50.696517" lon="6.195193">
		<ele>320</ele>
		<time>2011-09-11T10:28:45.917Z</time>
		<geoidheight>274</geoidheight>
	</trkpt>
	<trkpt lat="50.696520" lon="6.195210">
		<ele>320</ele>
		<time>2011-09-11T10:28:46.915Z</time>
		<geoidheight>274</geoidheight>
	</trkpt>
	<trkpt lat="50.696525" lon="6.195227">
		<ele>320</ele>
		<time>2011-09-11T10:28:47.916Z</time>
		<geoidheight>274</geoidheight>
	</trkpt>
	<trkpt lat="50.696528" lon="6.195244">
		<ele>320</ele>
		<time>2011-09-11T10:28:48.913Z</time>
		<geoidheight>274</geoidheight>
	</trkpt>
	<trkpt lat="50.696532" lon="6.195260">
		<ele>320</ele>
		<time>2011-09-11T10:28:49.915Z</time>
		<geoidheight>274</geoidheight>
	</trkpt>
	<trkpt lat="50.696534" lon="6.195275">
		<ele>320</ele>
		<time>2011-09-11T10:28:50.912Z</time>
		<geoidheight>274</geoidheight>
	</trkpt>
	<trkpt lat="50.696534" lon="6.195289">
		<ele>321</ele>
		<time>2011-09-11T10:28:51.915Z</time>
		<geoidheight>275</geoidheight>
	</trkpt>
	<trkpt lat="50.696534" lon="6.195302">
		<ele>321</ele>
		<time>2011-09-11T10:28:52.920Z</time>
		<geoidheight>275</geoidheight>
	</trkpt>
	<trkpt lat="50.696536" lon="6.195316">
		<ele>321</ele>
		<time>2011-09-11T10:28:53.918Z</time>
		<geoidheight>275</geoidheight>
	</trkpt>
	<trkpt lat="50.696539" lon="6.195332">
		<ele>321</ele>
		<time>2011-09-11T10:28:54.914Z</time>
		<geoidheight>275</geoidheight>
	</trkpt>
	<trkpt lat="50.696542" lon="6.195349">
		<ele>321</ele>
		<time>2011-09-11T10:28:55.916Z</time>
		<geoidheight>275</geoidheight>
	</trkpt>
	<trkpt lat="50.696546" lon="6.195365">
		<ele>321</ele>
		<time>2011-09-11T10:28:56.918Z</time>
		<geoidheight>275</geoidheight>
	</trkpt>
	<trkpt lat="50.696549" lon="6.195380">
		<ele>321</ele>
		<time>2011-09-11T10:28:57.915Z</time>
		<geoidheight>275</geoidheight>
	</trkpt>
	<trkpt lat="50.696548" lon="6.195399">
		<ele>321</ele>
		<time>2011-09-11T10:28:58.918Z</time>
		<geoidheight>275</geoidheight>
	</trkpt>
	<trkpt lat="50.696547" lon="6.195420">
		<ele>321</ele>
		<time>2011-09-11T10:28:59.915Z</time>
		<geoidheight>275</geoidheight>
	</trkpt>
	<trkpt lat="50.696544" lon="6.195441">
		<ele>321</ele>
		<time>2011-09-11T10:29:00.918Z</time>
		<geoidheight>275</geoidheight>
	</trkpt>
	<trkpt lat="50.696541" lon="6.195463">
		<ele>321</ele>
		<time>2011-09-11T10:29:01.918Z</time>
		<geoidheight>275</geoidheight>
	</trkpt>
	<trkpt lat="50.696537" lon="6.195485">
		<ele>321</ele>
		<time>2011-09-11T10:29:02.916Z</time>
		<geoidheight>275</geoidheight>
	</trkpt>
	<trkpt lat="50.696534" lon="6.195507">
		<ele>321</ele>
		<time>2011-09-11T10:29:03.913Z</time>
		<geoidheight>275</geoidheight>
	</trkpt>
	<trkpt lat="50.696533" lon="6.195527">
		<ele>321</ele>
		<time>2011-09-11T10:29:04.916Z</time>
		<geoidheight>275</geoidheight>
	</trkpt>
	<trkpt lat="50.696530" lon="6.195548">
		<ele>321</ele>
		<time>2011-09-11T10:29:05.914Z</time>
		<geoidheight>275</geoidheight>
	</trkpt>
	<trkpt lat="50.696527" lon="6.195572">
		<ele>321</ele>
		<time>2011-09-11T10:29:06.917Z</time>
		<geoidheight>275</geoidheight>
	</trkpt>
	<trkpt lat="50.696525" lon="6.195596">
		<ele>321</ele>
		<time>2011-09-11T10:29:07.917Z</time>
		<geoidheight>275</geoidheight>
	</trkpt>
	<trkpt lat="50.696524" lon="6.195622">
		<ele>322</ele>
		<time>2011-09-11T10:29:08.910Z</time>
		<geoidheight>276</geoidheight>
	</trkpt>
	<trkpt lat="50.696523" lon="6.195648">
		<ele>322</ele>
		<time>2011-09-11T10:29:09.913Z</time>
		<geoidheight>276</geoidheight>
	</trkpt>
	<trkpt lat="50.696522" lon="6.195673">
		<ele>322</ele>
		<time>2011-09-11T10:29:10.912Z</time>
		<geoidheight>276</geoidheight>
	</trkpt>
	<trkpt lat="50.696521" lon="6.195696">
		<ele>322</ele>
		<time>2011-09-11T10:29:11.916Z</time>
		<geoidheight>276</geoidheight>
	</trkpt>
	<trkpt lat="50.696519" lon="6.195717">
		<ele>322</ele>
		<time>2011-09-11T10:29:12.912Z</time>
		<geoidheight>276</geoidheight>
	</trkpt>
	<trkpt lat="50.696517" lon="6.195740">
		<ele>322</ele>
		<time>2011-09-11T10:29:13.911Z</time>
		<geoidheight>276</geoidheight>
	</trkpt>
	<trkpt lat="50.696515" lon="6.195765">
		<ele>322</ele>
		<time>2011-09-11T10:29:14.912Z</time>
		<geoidheight>276</geoidheight>
	</trkpt>
	<trkpt lat="50.696513" lon="6.195789">
		<ele>322</ele>
		<time>2011-09-11T10:29:15.913Z</time>
		<geoidheight>276</geoidheight>
	</trkpt>
	<trkpt lat="50.696511" lon="6.195813">
		<ele>322</ele>
		<time>2011-09-11T10:29:16.913Z</time>
		<geoidheight>276</geoidheight>
	</trkpt>
	<trkpt lat="50.696510" lon="6.195834">
		<ele>322</ele>
		<time>2011-09-11T10:29:17.911Z</time>
		<geoidheight>276</geoidheight>
	</trkpt>
	<trkpt lat="50.696510" lon="6.195850">
		<ele>322</ele>
		<time>2011-09-11T10:29:18.913Z</time>
		<geoidheight>276</geoidheight>
	</trkpt>
	<trkpt lat="50.696509" lon="6.195872">
		<ele>323</ele>
		<time>2011-09-11T10:29:19.912Z</time>
		<geoidheight>277</geoidheight>
	</trkpt>
	<trkpt lat="50.696506" lon="6.195882">
		<ele>323</ele>
		<time>2011-09-11T10:29:20.911Z</time>
		<geoidheight>277</geoidheight>
	</trkpt>
	<trkpt lat="50.696502" lon="6.195893">
		<ele>323</ele>
		<time>2011-09-11T10:29:21.916Z</time>
		<geoidheight>277</geoidheight>
	</trkpt>
	<trkpt lat="50.696498" lon="6.195904">
		<ele>323</ele>
		<time>2011-09-11T10:29:22.913Z</time>
		<geoidheight>277</geoidheight>
	</trkpt>
	<trkpt lat="50.696494" lon="6.195913">
		<ele>323</ele>
		<time>2011-09-11T10:29:23.911Z</time>
		<geoidheight>277</geoidheight>
	</trkpt>
	<trkpt lat="50.696490" lon="6.195923">
		<ele>323</ele>
		<time>2011-09-11T10:29:24.912Z</time>
		<geoidheight>277</geoidheight>
	</trkpt>
	<trkpt lat="50.696488" lon="6.195936">
		<ele>323</ele>
		<time>2011-09-11T10:29:25.913Z</time>
		<geoidheight>277</geoidheight>
	</trkpt>
	<trkpt lat="50.696486" lon="6.195949">
		<ele>323</ele>
		<time>2011-09-11T10:29:26.917Z</time>
		<geoidheight>277</geoidheight>
	</trkpt>
	<trkpt lat="50.696483" lon="6.195962">
		<ele>323</ele>
		<time>2011-09-11T10:29:27.911Z</time>
		<geoidheight>277</geoidheight>
	</trkpt>
	<trkpt lat="50.696481" lon="6.195977">
		<ele>323</ele>
		<time>2011-09-11T10:29:28.911Z</time>
		<geoidheight>277</geoidheight>
	</trkpt>
	<trkpt lat="50.696476" lon="6.195997">
		<ele>324</ele>
		<time>2011-09-11T10:29:29.910Z</time>
		<geoidheight>278</geoidheight>
	</trkpt>
	<trkpt lat="50.696470" lon="6.196017">
		<ele>324</ele>
		<time>2011-09-11T10:29:30.913Z</time>
		<geoidheight>278</geoidheight>
	</trkpt>
	<trkpt lat="50.696462" lon="6.196035">
		<ele>324</ele>
		<time>2011-09-11T10:29:31.907Z</time>
		<geoidheight>278</geoidheight>
	</trkpt>
	<trkpt lat="50.696456" lon="6.196052">
		<ele>324</ele>
		<time>2011-09-11T10:29:32.913Z</time>
		<geoidheight>278</geoidheight>
	</trkpt>
	<trkpt lat="50.696453" lon="6.196072">
		<ele>324</ele>
		<time>2011-09-11T10:29:33.912Z</time>
		<geoidheight>278</geoidheight>
	</trkpt>
	<trkpt lat="50.696452" lon="6.196092">
		<ele>324</ele>
		<time>2011-09-11T10:29:34.906Z</time>
		<geoidheight>278</geoidheight>
	</trkpt>
	<trkpt lat="50.696450" lon="6.196114">
		<ele>324</ele>
		<time>2011-09-11T10:29:35.915Z</time>
		<geoidheight>278</geoidheight>
	</trkpt>
	<trkpt lat="50.696448" lon="6.196135">
		<ele>324</ele>
		<time>2011-09-11T10:29:36.913Z</time>
		<geoidheight>278</geoidheight>
	</trkpt>
	<trkpt lat="50.696446" lon="6.196155">
		<ele>324</ele>
		<time>2011-09-11T10:29:37.912Z</time>
		<geoidheight>278</geoidheight>
	</trkpt>
	<trkpt lat="50.696443" lon="6.196177">
		<ele>325</ele>
		<time>2011-09-11T10:29:38.911Z</time>
		<geoidheight>279</geoidheight>
	</trkpt>
	<trkpt lat="50.696441" lon="6.196199">
		<ele>325</ele>
		<time>2011-09-11T10:29:39.912Z</time>
		<geoidheight>279</geoidheight>
	</trkpt>
	<trkpt lat="50.696438" lon="6.196214">
		<ele>325</ele>
		<time>2011-09-11T10:29:40.913Z</time>
		<geoidheight>279</geoidheight>
	</trkpt>
	<trkpt lat="50.696432" lon="6.196228">
		<ele>325</ele>
		<time>2011-09-11T10:29:41.912Z</time>
		<geoidheight>279</geoidheight>
	</trkpt>
	<trkpt lat="50.696427" lon="6.196239">
		<ele>325</ele>
		<time>2011-09-11T10:29:42.913Z</time>
		<geoidheight>279</geoidheight>
	</trkpt>
	<trkpt lat="50.696421" lon="6.196248">
		<ele>325</ele>
		<time>2011-09-11T10:29:43.912Z</time>
		<geoidheight>279</geoidheight>
	</trkpt>
	<trkpt lat="50.696415" lon="6.196262">
		<ele>325</ele>
		<time>2011-09-11T10:29:44.911Z</time>
		<geoidheight>279</geoidheight>
	</trkpt>
	<trkpt lat="50.696404" lon="6.196276">
		<ele>325</ele>
		<time>2011-09-11T10:29:45.912Z</time>
		<geoidheight>279</geoidheight>
	</trkpt>
	<trkpt lat="50.696395" lon="6.196286">
		<ele>326</ele>
		<time>2011-09-11T10:29:46.913Z</time>
		<geoidheight>280</geoidheight>
	</trkpt>
	<trkpt lat="50.696388" lon="6.196296">
		<ele>326</ele>
		<time>2011-09-11T10:29:47.910Z</time>
		<geoidheight>280</geoidheight>
	</trkpt>
	<trkpt lat="50.696381" lon="6.196312">
		<ele>326</ele>
		<time>2011-09-11T10:29:48.912Z</time>
		<geoidheight>280</geoidheight>
	</trkpt>
	<trkpt lat="50.696373" lon="6.196324">
		<ele>326</ele>
		<time>2011-09-11T10:29:49.911Z</time>
		<geoidheight>280</geoidheight>
	</trkpt>
	<trkpt lat="50.696368" lon="6.196338">
		<ele>326</ele>
		<time>2011-09-11T10:29:50.912Z</time>
		<geoidheight>280</geoidheight>
	</trkpt>
	<trkpt lat="50.696362" lon="6.196347">
		<ele>326</ele>
		<time>2011-09-11T10:29:51.913Z</time>
		<geoidheight>280</geoidheight>
	</trkpt>
	<trkpt lat="50.696357" lon="6.196352">
		<ele>326</ele>
		<time>2011-09-11T10:29:52.914Z</time>
		<geoidheight>280</geoidheight>
	</trkpt>
	<trkpt lat="50.696355" lon="6.196358">
		<ele>327</ele>
		<time>2011-09-11T10:29:53.906Z</time>
		<geoidheight>281</geoidheight>
	</trkpt>
	<trkpt lat="50.696356" lon="6.196363">
		<ele>327</ele>
		<time>2011-09-11T10:29:54.910Z</time>
		<geoidheight>281</geoidheight>
	</trkpt>
	<trkpt lat="50.696355" lon="6.196374">
		<ele>327</ele>
		<time>2011-09-11T10:29:55.913Z</time>
		<geoidheight>281</geoidheight>
	</trkpt>
	<trkpt lat="50.696354" lon="6.196385">
		<ele>327</ele>
		<time>2011-09-11T10:29:56.913Z</time>
		<geoidheight>281</geoidheight>
	</trkpt>
	<trkpt lat="50.696353" lon="6.196398">
		<ele>327</ele>
		<time>2011-09-11T10:29:57.910Z</time>
		<geoidheight>281</geoidheight>
	</trkpt>
	<trkpt lat="50.696351" lon="6.196413">
		<ele>327</ele>
		<time>2011-09-11T10:29:58.913Z</time>
		<geoidheight>281</geoidheight>
	</trkpt>
	<trkpt lat="50.696347" lon="6.196427">
		<ele>327</ele>
		<time>2011-09-11T10:29:59.911Z</time>
		<geoidheight>281</geoidheight>
	</trkpt>
	<trkpt lat="50.696342" lon="6.196440">
		<ele>328</ele>
		<time>2011-09-11T10:30:00.912Z</time>
		<geoidheight>282</geoidheight>
	</trkpt>
	<trkpt lat="50.696338" lon="6.196454">
		<ele>328</ele>
		<time>2011-09-11T10:30:01.913Z</time>
		<geoidheight>282</geoidheight>
	</trkpt>
	<trkpt lat="50.696335" lon="6.196471">
		<ele>328</ele>
		<time>2011-09-11T10:30:02.912Z</time>
		<geoidheight>282</geoidheight>
	</trkpt>
	<trkpt lat="50.696332" lon="6.196492">
		<ele>328</ele>
		<time>2011-09-11T10:30:03.910Z</time>
		<geoidheight>282</geoidheight>
	</trkpt>
	<trkpt lat="50.696330" lon="6.196519">
		<ele>328</ele>
		<time>2011-09-11T10:30:04.913Z</time>
		<geoidheight>282</geoidheight>
	</trkpt>
	<trkpt lat="50.696328" lon="6.196550">
		<ele>328</ele>
		<time>2011-09-11T10:30:05.913Z</time>
		<geoidheight>282</geoidheight>
	</trkpt>
	<trkpt lat="50.696324" lon="6.196582">
		<ele>328</ele>
		<time>2011-09-11T10:30:06.906Z</time>
		<geoidheight>282</geoidheight>
	</trkpt>
	<trkpt lat="50.696322" lon="6.196616">
		<ele>328</ele>
		<time>2011-09-11T10:30:07.922Z</time>
		<geoidheight>282</geoidheight>
	</trkpt>
	<trkpt lat="50.696317" lon="6.196651">
		<ele>329</ele>
		<time>2011-09-11T10:30:08.912Z</time>
		<geoidheight>283</geoidheight>
	</trkpt>
	<trkpt lat="50.696316" lon="6.196685">
		<ele>329</ele>
		<time>2011-09-11T10:30:09.911Z</time>
		<geoidheight>283</geoidheight>
	</trkpt>
	<trkpt lat="50.696311" lon="6.196720">
		<ele>329</ele>
		<time>2011-09-11T10:30:10.913Z</time>
		<geoidheight>283</geoidheight>
	</trkpt>
	<trkpt lat="50.696307" lon="6.196750">
		<ele>329</ele>
		<time>2011-09-11T10:30:11.913Z</time>
		<geoidheight>283</geoidheight>
	</trkpt>
	<trkpt lat="50.696303" lon="6.196774">
		<ele>329</ele>
		<time>2011-09-11T10:30:12.911Z</time>
		<geoidheight>283</geoidheight>
	</trkpt>
	<trkpt lat="50.696299" lon="6.196793">
		<ele>329</ele>
		<time>2011-09-11T10:30:13.912Z</time>
		<geoidheight>283</geoidheight>
	</trkpt>
	<trkpt lat="50.696295" lon="6.196812">
		<ele>329</ele>
		<time>2011-09-11T10:30:14.913Z</time>
		<geoidheight>283</geoidheight>
	</trkpt>
	<trkpt lat="50.696291" lon="6.196827">
		<ele>329</ele>
		<time>2011-09-11T10:30:15.912Z</time>
		<geoidheight>283</geoidheight>
	</trkpt>
	<trkpt lat="50.696289" lon="6.196844">
		<ele>329</ele>
		<time>2011-09-11T10:30:16.911Z</time>
		<geoidheight>283</geoidheight>
	</trkpt>
	<trkpt lat="50.696283" lon="6.196858">
		<ele>330</ele>
		<time>2011-09-11T10:30:17.913Z</time>
		<geoidheight>284</geoidheight>
	</trkpt>
	<trkpt lat="50.696280" lon="6.196873">
		<ele>330</ele>
		<time>2011-09-11T10:30:18.911Z</time>
		<geoidheight>284</geoidheight>
	</trkpt>
	<trkpt lat="50.696279" lon="6.196890">
		<ele>330</ele>
		<time>2011-09-11T10:30:19.911Z</time>
		<geoidheight>284</geoidheight>
	</trkpt>
	<trkpt lat="50.696280" lon="6.196907">
		<ele>330</ele>
		<time>2011-09-11T10:30:20.913Z</time>
		<geoidheight>284</geoidheight>
	</trkpt>
	<trkpt lat="50.696278" lon="6.196930">
		<ele>330</ele>
		<time>2011-09-11T10:30:21.912Z</time>
		<geoidheight>284</geoidheight>
	</trkpt>
	<trkpt lat="50.696274" lon="6.196954">
		<ele>330</ele>
		<time>2011-09-11T10:30:22.911Z</time>
		<geoidheight>284</geoidheight>
	</trkpt>
	<trkpt lat="50.696269" lon="6.196974">
		<ele>330</ele>
		<time>2011-09-11T10:30:23.913Z</time>
		<geoidheight>284</geoidheight>
	</trkpt>
	<trkpt lat="50.696261" lon="6.196997">
		<ele>330</ele>
		<time>2011-09-11T10:30:24.912Z</time>
		<geoidheight>284</geoidheight>
	</trkpt>
	<trkpt lat="50.696254" lon="6.197017">
		<ele>330</ele>
		<time>2011-09-11T10:30:25.912Z</time>
		<geoidheight>284</geoidheight>
	</trkpt>
	<trkpt lat="50.696248" lon="6.197038">
		<ele>330</ele>
		<time>2011-09-11T10:30:26.911Z</time>
		<geoidheight>284</geoidheight>
	</trkpt>
	<trkpt lat="50.696240" lon="6.197062">
		<ele>330</ele>
		<time>2011-09-11T10:30:27.913Z</time>
		<geoidheight>284</geoidheight>
	</trkpt>
	<trkpt lat="50.696236" lon="6.197084">
		<ele>331</ele>
		<time>2011-09-11T10:30:28.911Z</time>
		<geoidheight>285</geoidheight>
	</trkpt>
	<trkpt lat="50.696233" lon="6.197110">
		<ele>331</ele>
		<time>2011-09-11T10:30:29.912Z</time>
		<geoidheight>285</geoidheight>
	</trkpt>
	<trkpt lat="50.696232" lon="6.197128">
		<ele>331</ele>
		<time>2011-09-11T10:30:30.912Z</time>
		<geoidheight>285</geoidheight>
	</trkpt>
	<trkpt lat="50.696226" lon="6.197151">
		<ele>331</ele>
		<time>2011-09-11T10:30:31.910Z</time>
		<geoidheight>285</geoidheight>
	</trkpt>
	<trkpt lat="50.696222" lon="6.197177">
		<ele>331</ele>
		<time>2011-09-11T10:30:32.914Z</time>
		<geoidheight>285</geoidheight>
	</trkpt>
	<trkpt lat="50.696219" lon="6.197197">
		<ele>331</ele>
		<time>2011-09-11T10:30:33.914Z</time>
		<geoidheight>285</geoidheight>
	</trkpt>
	<trkpt lat="50.696214" lon="6.197211">
		<ele>331</ele>
		<time>2011-09-11T10:30:34.912Z</time>
		<geoidheight>285</geoidheight>
	</trkpt>
	<trkpt lat="50.696208" lon="6.197222">
		<ele>331</ele>
		<time>2011-09-11T10:30:35.913Z</time>
		<geoidheight>285</geoidheight>
	</trkpt>
	<trkpt lat="50.696200" lon="6.197229">
		<ele>331</ele>
		<time>2011-09-11T10:30:36.914Z</time>
		<geoidheight>285</geoidheight>
	</trkpt>
	<trkpt lat="50.696195" lon="6.197237">
		<ele>331</ele>
		<time>2011-09-11T10:30:37.912Z</time>
		<geoidheight>285</geoidheight>
	</trkpt>
	<trkpt lat="50.696190" lon="6.197243">
		<ele>331</ele>
		<time>2011-09-11T10:30:38.911Z</time>
		<geoidheight>285</geoidheight>
	</trkpt>
	<trkpt lat="50.696183" lon="6.197247">
		<ele>331</ele>
		<time>2011-09-11T10:30:39.913Z</time>
		<geoidheight>285</geoidheight>
	</trkpt>
	<trkpt lat="50.696176" lon="6.197254">
		<ele>331</ele>
		<time>2011-09-11T10:30:40.912Z</time>
		<geoidheight>285</geoidheight>
	</trkpt>
	<trkpt lat="50.696167" lon="6.197262">
		<ele>331</ele>
		<time>2011-09-11T10:30:41.910Z</time>
		<geoidheight>285</geoidheight>
	</trkpt>
	<trkpt lat="50.696159" lon="6.197271">
		<ele>332</ele>
		<time>2011-09-11T10:30:42.911Z</time>
		<geoidheight>286</geoidheight>
	</trkpt>
	<trkpt lat="50.696150" lon="6.197277">
		<ele>332</ele>
		<time>2011-09-11T10:30:43.913Z</time>
		<geoidheight>286</geoidheight>
	</trkpt>
	<trkpt lat="50.696142" lon="6.197283">
		<ele>332</ele>
		<time>2011-09-11T10:30:44.911Z</time>
		<geoidheight>286</geoidheight>
	</trkpt>
	<trkpt lat="50.696133" lon="6.197285">
		<ele>332</ele>
		<time>2011-09-11T10:30:45.913Z</time>
		<geoidheight>286</geoidheight>
	</trkpt>
	<trkpt lat="50.696126" lon="6.197286">
		<ele>332</ele>
		<time>2011-09-11T10:30:46.914Z</time>
		<geoidheight>286</geoidheight>
	</trkpt>
	<trkpt lat="50.696119" lon="6.197290">
		<ele>332</ele>
		<time>2011-09-11T10:30:47.910Z</time>
		<geoidheight>286</geoidheight>
	</trkpt>
	<trkpt lat="50.696119" lon="6.197290">
		<ele>332</ele>
		<time>2011-09-11T10:30:50.910Z</time>
		<geoidheight>286</geoidheight>
	</trkpt>
	<trkpt lat="50.696113" lon="6.197314">
		<ele>332</ele>
		<time>2011-09-11T10:30:51.908Z</time>
		<geoidheight>286</geoidheight>
	</trkpt>
	<trkpt lat="50.696109" lon="6.197317">
		<ele>332</ele>
		<time>2011-09-11T10:30:52.912Z</time>
		<geoidheight>286</geoidheight>
	</trkpt>
	<trkpt lat="50.696106" lon="6.197324">
		<ele>332</ele>
		<time>2011-09-11T10:30:53.910Z</time>
		<geoidheight>286</geoidheight>
	</trkpt>
	<trkpt lat="50.696102" lon="6.197326">
		<ele>333</ele>
		<time>2011-09-11T10:30:54.911Z</time>
		<geoidheight>287</geoidheight>
	</trkpt>
	<trkpt lat="50.696097" lon="6.197329">
		<ele>333</ele>
		<time>2011-09-11T10:30:55.912Z</time>
		<geoidheight>287</geoidheight>
	</trkpt>
	<trkpt lat="50.696093" lon="6.197331">
		<ele>333</ele>
		<time>2011-09-11T10:30:56.912Z</time>
		<geoidheight>287</geoidheight>
	</trkpt>
	<trkpt lat="50.696089" lon="6.197336">
		<ele>333</ele>
		<time>2011-09-11T10:30:57.911Z</time>
		<geoidheight>287</geoidheight>
	</trkpt>
	<trkpt lat="50.696086" lon="6.197348">
		<ele>333</ele>
		<time>2011-09-11T10:30:58.913Z</time>
		<geoidheight>287</geoidheight>
	</trkpt>
	<trkpt lat="50.696083" lon="6.197360">
		<ele>333</ele>
		<time>2011-09-11T10:30:59.907Z</time>
		<geoidheight>287</geoidheight>
	</trkpt>
	<trkpt lat="50.696080" lon="6.197369">
		<ele>333</ele>
		<time>2011-09-11T10:31:00.913Z</time>
		<geoidheight>287</geoidheight>
	</trkpt>
	<trkpt lat="50.696077" lon="6.197379">
		<ele>334</ele>
		<time>2011-09-11T10:31:01.917Z</time>
		<geoidheight>288</geoidheight>
	</trkpt>
	<trkpt lat="50.696072" lon="6.197385">
		<ele>334</ele>
		<time>2011-09-11T10:31:02.914Z</time>
		<geoidheight>288</geoidheight>
	</trkpt>
	<trkpt lat="50.696067" lon="6.197389">
		<ele>334</ele>
		<time>2011-09-11T10:31:03.910Z</time>
		<geoidheight>288</geoidheight>
	</trkpt>
	<trkpt lat="50.696061" lon="6.197392">
		<ele>334</ele>
		<time>2011-09-11T10:31:04.913Z</time>
		<geoidheight>288</geoidheight>
	</trkpt>
	<trkpt lat="50.696052" lon="6.197393">
		<ele>334</ele>
		<time>2011-09-11T10:31:05.913Z</time>
		<geoidheight>288</geoidheight>
	</trkpt>
	<trkpt lat="50.696042" lon="6.197393">
		<ele>334</ele>
		<time>2011-09-11T10:31:06.914Z</time>
		<geoidheight>288</geoidheight>
	</trkpt>
	<trkpt lat="50.696032" lon="6.197391">
		<ele>334</ele>
		<time>2011-09-11T10:31:07.910Z</time>
		<geoidheight>288</geoidheight>
	</trkpt>
	<trkpt lat="50.696032" lon="6.197391">
		<ele>334</ele>
		<time>2011-09-11T10:31:08.909Z</time>
		<geoidheight>288</geoidheight>
	</trkpt>
	<trkpt lat="50.696023" lon="6.197391">
		<ele>334</ele>
		<time>2011-09-11T10:31:09.909Z</time>
		<geoidheight>288</geoidheight>
	</trkpt>
	<trkpt lat="50.696013" lon="6.197390">
		<ele>334</ele>
		<time>2011-09-11T10:31:10.914Z</time>
		<geoidheight>288</geoidheight>
	</trkpt>
	<trkpt lat="50.696003" lon="6.197388">
		<ele>335</ele>
		<time>2011-09-11T10:31:11.912Z</time>
		<geoidheight>289</geoidheight>
	</trkpt>
	<trkpt lat="50.695993" lon="6.197380">
		<ele>335</ele>
		<time>2011-09-11T10:31:12.912Z</time>
		<geoidheight>289</geoidheight>
	</trkpt>
	<trkpt lat="50.695984" lon="6.197376">
		<ele>335</ele>
		<time>2011-09-11T10:31:13.910Z</time>
		<geoidheight>289</geoidheight>
	</trkpt>
	<trkpt lat="50.695976" lon="6.197371">
		<ele>335</ele>
		<time>2011-09-11T10:31:14.912Z</time>
		<geoidheight>289</geoidheight>
	</trkpt>
	<trkpt lat="50.695966" lon="6.197366">
		<ele>335</ele>
		<time>2011-09-11T10:31:15.911Z</time>
		<geoidheight>289</geoidheight>
	</trkpt>
	<trkpt lat="50.695952" lon="6.197362">
		<ele>335</ele>
		<time>2011-09-11T10:31:16.911Z</time>
		<geoidheight>289</geoidheight>
	</trkpt>
	<trkpt lat="50.695940" lon="6.197355">
		<ele>335</ele>
		<time>2011-09-11T10:31:17.911Z</time>
		<geoidheight>289</geoidheight>
	</trkpt>
	<trkpt lat="50.695923" lon="6.197346">
		<ele>335</ele>
		<time>2011-09-11T10:31:18.912Z</time>
		<geoidheight>289</geoidheight>
	</trkpt>
	<trkpt lat="50.695902" lon="6.197333">
		<ele>335</ele>
		<time>2011-09-11T10:31:19.910Z</time>
		<geoidheight>289</geoidheight>
	</trkpt>
	<trkpt lat="50.695885" lon="6.197320">
		<ele>335</ele>
		<time>2011-09-11T10:31:20.913Z</time>
		<geoidheight>289</geoidheight>
	</trkpt>
	<trkpt lat="50.695863" lon="6.197307">
		<ele>336</ele>
		<time>2011-09-11T10:31:21.911Z</time>
		<geoidheight>290</geoidheight>
	</trkpt>
	<trkpt lat="50.695841" lon="6.197295">
		<ele>336</ele>
		<time>2011-09-11T10:31:22.911Z</time>
		<geoidheight>290</geoidheight>
	</trkpt>
	<trkpt lat="50.695824" lon="6.197288">
		<ele>336</ele>
		<time>2011-09-11T10:31:23.911Z</time>
		<geoidheight>290</geoidheight>
	</trkpt>
	<trkpt lat="50.695810" lon="6.197282">
		<ele>336</ele>
		<time>2011-09-11T10:31:24.909Z</time>
		<geoidheight>290</geoidheight>
	</trkpt>
	<trkpt lat="50.695810" lon="6.197282">
		<ele>336</ele>
		<time>2011-09-11T10:31:28.910Z</time>
		<geoidheight>290</geoidheight>
	</trkpt>
	<trkpt lat="50.695769" lon="6.197270">
		<ele>336</ele>
		<time>2011-09-11T10:31:29.908Z</time>
		<geoidheight>290</geoidheight>
	</trkpt>
	<trkpt lat="50.695751" lon="6.197275">
		<ele>336</ele>
		<time>2011-09-11T10:31:30.913Z</time>
		<geoidheight>290</geoidheight>
	</trkpt>
	<trkpt lat="50.695737" lon="6.197278">
		<ele>336</ele>
		<time>2011-09-11T10:31:31.910Z</time>
		<geoidheight>290</geoidheight>
	</trkpt>
	<trkpt lat="50.695720" lon="6.197279">
		<ele>336</ele>
		<time>2011-09-11T10:31:32.910Z</time>
		<geoidheight>290</geoidheight>
	</trkpt>
	<trkpt lat="50.695702" lon="6.197287">
		<ele>336</ele>
		<time>2011-09-11T10:31:33.911Z</time>
		<geoidheight>290</geoidheight>
	</trkpt>
	<trkpt lat="50.695685" lon="6.197296">
		<ele>336</ele>
		<time>2011-09-11T10:31:34.912Z</time>
		<geoidheight>290</geoidheight>
	</trkpt>
	<trkpt lat="50.695667" lon="6.197306">
		<ele>336</ele>
		<time>2011-09-11T10:31:35.912Z</time>
		<geoidheight>290</geoidheight>
	</trkpt>
	<trkpt lat="50.695650" lon="6.197315">
		<ele>336</ele>
		<time>2011-09-11T10:31:36.912Z</time>
		<geoidheight>290</geoidheight>
	</trkpt>
	<trkpt lat="50.695632" lon="6.197319">
		<ele>336</ele>
		<time>2011-09-11T10:31:37.912Z</time>
		<geoidheight>290</geoidheight>
	</trkpt>
	<trkpt lat="50.695613" lon="6.197319">
		<ele>337</ele>
		<time>2011-09-11T10:31:38.910Z</time>
		<geoidheight>291</geoidheight>
	</trkpt>
	<trkpt lat="50.695595" lon="6.197321">
		<ele>337</ele>
		<time>2011-09-11T10:31:39.912Z</time>
		<geoidheight>291</geoidheight>
	</trkpt>
	<trkpt lat="50.695578" lon="6.197318">
		<ele>337</ele>
		<time>2011-09-11T10:31:40.913Z</time>
		<geoidheight>291</geoidheight>
	</trkpt>
	<trkpt lat="50.695558" lon="6.197320">
		<ele>337</ele>
		<time>2011-09-11T10:31:41.910Z</time>
		<geoidheight>291</geoidheight>
	</trkpt>
	<trkpt lat="50.695537" lon="6.197318">
		<ele>337</ele>
		<time>2011-09-11T10:31:42.912Z</time>
		<geoidheight>291</geoidheight>
	</trkpt>
	<trkpt lat="50.695525" lon="6.197317">
		<ele>337</ele>
		<time>2011-09-11T10:31:43.912Z</time>
		<geoidheight>291</geoidheight>
	</trkpt>
	<trkpt lat="50.695513" lon="6.197324">
		<ele>337</ele>
		<time>2011-09-11T10:31:44.911Z</time>
		<geoidheight>291</geoidheight>
	</trkpt>
	<trkpt lat="50.695500" lon="6.197329">
		<ele>337</ele>
		<time>2011-09-11T10:31:45.913Z</time>
		<geoidheight>291</geoidheight>
	</trkpt>
	<trkpt lat="50.695487" lon="6.197326">
		<ele>337</ele>
		<time>2011-09-11T10:31:46.911Z</time>
		<geoidheight>291</geoidheight>
	</trkpt>
	<trkpt lat="50.695475" lon="6.197323">
		<ele>338</ele>
		<time>2011-09-11T10:31:47.911Z</time>
		<geoidheight>292</geoidheight>
	</trkpt>
	<trkpt lat="50.695460" lon="6.197315">
		<ele>338</ele>
		<time>2011-09-11T10:31:48.910Z</time>
		<geoidheight>292</geoidheight>
	</trkpt>
	<trkpt lat="50.695450" lon="6.197311">
		<ele>338</ele>
		<time>2011-09-11T10:31:49.913Z</time>
		<geoidheight>292</geoidheight>
	</trkpt>
	<trkpt lat="50.695437" lon="6.197306">
		<ele>338</ele>
		<time>2011-09-11T10:31:50.911Z</time>
		<geoidheight>292</geoidheight>
	</trkpt>
	<trkpt lat="50.695437" lon="6.197306">
		<ele>338</ele>
		<time>2011-09-11T10:31:53.918Z</time>
		<geoidheight>292</geoidheight>
	</trkpt>
	<trkpt lat="50.695383" lon="6.197294">
		<ele>338</ele>
		<time>2011-09-11T10:31:54.917Z</time>
		<geoidheight>292</geoidheight>
	</trkpt>
	<trkpt lat="50.695383" lon="6.197294">
		<ele>338</ele>
		<time>2011-09-11T10:31:56.908Z</time>
		<geoidheight>292</geoidheight>
	</trkpt>
	<trkpt lat="50.695325" lon="6.197298">
		<ele>338</ele>
		<time>2011-09-11T10:31:57.908Z</time>
		<geoidheight>292</geoidheight>
	</trkpt>
	<trkpt lat="50.695325" lon="6.197298">
		<ele>338</ele>
		<time>2011-09-11T10:32:01.916Z</time>
		<geoidheight>292</geoidheight>
	</trkpt>
	<trkpt lat="50.695277" lon="6.197294">
		<ele>338</ele>
		<time>2011-09-11T10:32:02.917Z</time>
		<geoidheight>292</geoidheight>
	</trkpt>
	<trkpt lat="50.695277" lon="6.197294">
		<ele>338</ele>
		<time>2011-09-11T10:32:12.908Z</time>
		<geoidheight>292</geoidheight>
	</trkpt>
	<trkpt lat="50.695232" lon="6.197305">
		<ele>338</ele>
		<time>2011-09-11T10:32:13.909Z</time>
		<geoidheight>292</geoidheight>
	</trkpt>
	<trkpt lat="50.695232" lon="6.197305">
		<ele>337</ele>
		<time>2011-09-11T10:32:41.908Z</time>
		<geoidheight>291</geoidheight>
	</trkpt>
	<trkpt lat="50.695215" lon="6.197237">
		<ele>337</ele>
		<time>2011-09-11T10:32:42.908Z</time>
		<geoidheight>291</geoidheight>
	</trkpt>
	<trkpt lat="50.695215" lon="6.197237">
		<ele>337</ele>
		<time>2011-09-11T10:32:51.908Z</time>
		<geoidheight>291</geoidheight>
	</trkpt>
	<trkpt lat="50.695259" lon="6.197201">
		<ele>337</ele>
		<time>2011-09-11T10:32:52.913Z</time>
		<geoidheight>291</geoidheight>
	</trkpt>
	<trkpt lat="50.695259" lon="6.197201">
		<ele>337</ele>
		<time>2011-09-11T10:32:59.909Z</time>
		<geoidheight>291</geoidheight>
	</trkpt>
	<trkpt lat="50.695267" lon="6.197281">
		<ele>337</ele>
		<time>2011-09-11T10:33:00.911Z</time>
		<geoidheight>291</geoidheight>
	</trkpt>
	<trkpt lat="50.695267" lon="6.197281">
		<ele>336</ele>
		<time>2011-09-11T10:33:10.920Z</time>
		<geoidheight>290</geoidheight>
	</trkpt>
	<trkpt lat="50.695243" lon="6.197345">
		<ele>336</ele>
		<time>2011-09-11T10:33:11.913Z</time>
		<geoidheight>290</geoidheight>
	</trkpt>
	<trkpt lat="50.695243" lon="6.197345">
		<ele>336</ele>
		<time>2011-09-11T10:33:23.910Z</time>
		<geoidheight>290</geoidheight>
	</trkpt>
	<trkpt lat="50.695284" lon="6.197389">
		<ele>336</ele>
		<time>2011-09-11T10:33:24.909Z</time>
		<geoidheight>290</geoidheight>
	</trkpt>
	<trkpt lat="50.695284" lon="6.197389">
		<ele>336</ele>
		<time>2011-09-11T10:33:33.914Z</time>
		<geoidheight>290</geoidheight>
	</trkpt>
	<trkpt lat="50.695306" lon="6.197361">
		<ele>336</ele>
		<time>2011-09-11T10:33:34.920Z</time>
		<geoidheight>290</geoidheight>
	</trkpt>
	<trkpt lat="50.695306" lon="6.197378">
		<ele>336</ele>
		<time>2011-09-11T10:33:35.922Z</time>
		<geoidheight>290</geoidheight>
	</trkpt>
	<trkpt lat="50.695306" lon="6.197392">
		<ele>336</ele>
		<time>2011-09-11T10:33:36.915Z</time>
		<geoidheight>290</geoidheight>
	</trkpt>
	<trkpt lat="50.695302" lon="6.197404">
		<ele>336</ele>
		<time>2011-09-11T10:33:37.913Z</time>
		<geoidheight>290</geoidheight>
	</trkpt>
	<trkpt lat="50.695303" lon="6.197425">
		<ele>336</ele>
		<time>2011-09-11T10:33:38.912Z</time>
		<geoidheight>290</geoidheight>
	</trkpt>
	<trkpt lat="50.695301" lon="6.197441">
		<ele>336</ele>
		<time>2011-09-11T10:33:39.915Z</time>
		<geoidheight>290</geoidheight>
	</trkpt>
	<trkpt lat="50.695300" lon="6.197453">
		<ele>336</ele>
		<time>2011-09-11T10:33:40.908Z</time>
		<geoidheight>290</geoidheight>
	</trkpt>
	<trkpt lat="50.695303" lon="6.197463">
		<ele>336</ele>
		<time>2011-09-11T10:33:41.911Z</time>
		<geoidheight>290</geoidheight>
	</trkpt>
	<trkpt lat="50.695308" lon="6.197470">
		<ele>335</ele>
		<time>2011-09-11T10:34:18.914Z</time>
		<geoidheight>289</geoidheight>
	</trkpt>
	<trkpt lat="50.695322" lon="6.197401">
		<ele>335</ele>
		<time>2011-09-11T10:34:19.911Z</time>
		<geoidheight>289</geoidheight>
	</trkpt>
	<trkpt lat="50.695322" lon="6.197401">
		<ele>335</ele>
		<time>2011-09-11T10:34:32.922Z</time>
		<geoidheight>289</geoidheight>
	</trkpt>
	<trkpt lat="50.695321" lon="6.197321">
		<ele>335</ele>
		<time>2011-09-11T10:34:33.907Z</time>
		<geoidheight>289</geoidheight>
	</trkpt>
	<trkpt lat="50.695321" lon="6.197321">
		<ele>335</ele>
		<time>2011-09-11T10:34:35.915Z</time>
		<geoidheight>289</geoidheight>
	</trkpt>
	<trkpt lat="50.695324" lon="6.197304">
		<ele>335</ele>
		<time>2011-09-11T10:34:36.913Z</time>
		<geoidheight>289</geoidheight>
	</trkpt>
	<trkpt lat="50.695325" lon="6.197292">
		<ele>334</ele>
		<time>2011-09-11T10:34:42.912Z</time>
		<geoidheight>288</geoidheight>
	</trkpt>
	<trkpt lat="50.695336" lon="6.197285">
		<ele>334</ele>
		<time>2011-09-11T10:34:43.909Z</time>
		<geoidheight>288</geoidheight>
	</trkpt>
	<trkpt lat="50.695332" lon="6.197273">
		<ele>334</ele>
		<time>2011-09-11T10:34:46.911Z</time>
		<geoidheight>288</geoidheight>
	</trkpt>
	<trkpt lat="50.695332" lon="6.197271">
		<ele>334</ele>
		<time>2011-09-11T10:34:47.911Z</time>
		<geoidheight>288</geoidheight>
	</trkpt>
	<trkpt lat="50.695325" lon="6.197279">
		<ele>334</ele>
		<time>2011-09-11T10:34:49.910Z</time>
		<geoidheight>288</geoidheight>
	</trkpt>
	<trkpt lat="50.695320" lon="6.197283">
		<ele>334</ele>
		<time>2011-09-11T10:34:50.912Z</time>
		<geoidheight>288</geoidheight>
	</trkpt>
	<trkpt lat="50.695315" lon="6.197292">
		<ele>334</ele>
		<time>2011-09-11T10:34:52.911Z</time>
		<geoidheight>288</geoidheight>
	</trkpt>
	<trkpt lat="50.695314" lon="6.197305">
		<ele>334</ele>
		<time>2011-09-11T10:34:53.911Z</time>
		<geoidheight>288</geoidheight>
	</trkpt>
	<trkpt lat="50.695314" lon="6.197305">
		<ele>334</ele>
		<time>2011-09-11T10:34:58.910Z</time>
		<geoidheight>288</geoidheight>
	</trkpt>
	<trkpt lat="50.695331" lon="6.197375">
		<ele>334</ele>
		<time>2011-09-11T10:34:59.910Z</time>
		<geoidheight>288</geoidheight>
	</trkpt>
	<trkpt lat="50.695331" lon="6.197375">
		<ele>334</ele>
		<time>2011-09-11T10:35:13.911Z</time>
		<geoidheight>288</geoidheight>
	</trkpt>
	<trkpt lat="50.695313" lon="6.197448">
		<ele>334</ele>
		<time>2011-09-11T10:35:14.910Z</time>
		<geoidheight>288</geoidheight>
	</trkpt>
	<trkpt lat="50.695313" lon="6.197448">
		<ele>333</ele>
		<time>2011-09-11T10:35:26.911Z</time>
		<geoidheight>287</geoidheight>
	</trkpt>
	<trkpt lat="50.695266" lon="6.197465">
		<ele>333</ele>
		<time>2011-09-11T10:35:27.909Z</time>
		<geoidheight>287</geoidheight>
	</trkpt>
	<trkpt lat="50.695266" lon="6.197465">
		<ele>333</ele>
		<time>2011-09-11T10:35:35.910Z</time>
		<geoidheight>287</geoidheight>
	</trkpt>
	<trkpt lat="50.695221" lon="6.197455">
		<ele>333</ele>
		<time>2011-09-11T10:35:36.910Z</time>
		<geoidheight>287</geoidheight>
	</trkpt>
	<trkpt lat="50.695221" lon="6.197455">
		<ele>333</ele>
		<time>2011-09-11T10:36:01.911Z</time>
		<geoidheight>287</geoidheight>
	</trkpt>
	<trkpt lat="50.695267" lon="6.197458">
		<ele>333</ele>
		<time>2011-09-11T10:36:02.909Z</time>
		<geoidheight>287</geoidheight>
	</trkpt>
	<trkpt lat="50.695267" lon="6.197458">
		<ele>333</ele>
		<time>2011-09-11T10:37:07.912Z</time>
		<geoidheight>287</geoidheight>
	</trkpt>
	<trkpt lat="50.695276" lon="6.197385">
		<ele>333</ele>
		<time>2011-09-11T10:37:08.914Z</time>
		<geoidheight>287</geoidheight>
	</trkpt>
	<trkpt lat="50.695276" lon="6.197385">
		<ele>333</ele>
		<time>2011-09-11T10:37:13.910Z</time>
		<geoidheight>287</geoidheight>
	</trkpt>
	<trkpt lat="50.695241" lon="6.197327">
		<ele>333</ele>
		<time>2011-09-11T10:37:14.910Z</time>
		<geoidheight>287</geoidheight>
	</trkpt>
	<trkpt lat="50.695241" lon="6.197327">
		<ele>333</ele>
		<time>2011-09-11T10:37:31.916Z</time>
		<geoidheight>287</geoidheight>
	</trkpt>
	<trkpt lat="50.695248" lon="6.197401">
		<ele>333</ele>
		<time>2011-09-11T10:37:32.914Z</time>
		<geoidheight>287</geoidheight>
	</trkpt>
	<trkpt lat="50.695248" lon="6.197401">
		<ele>333</ele>
		<time>2011-09-11T10:37:41.915Z</time>
		<geoidheight>287</geoidheight>
	</trkpt>
	<trkpt lat="50.695275" lon="6.197422">
		<ele>333</ele>
		<time>2011-09-11T10:37:42.911Z</time>
		<geoidheight>287</geoidheight>
	</trkpt>
	<trkpt lat="50.695280" lon="6.197415">
		<ele>332</ele>
		<time>2011-09-11T10:37:43.916Z</time>
		<geoidheight>286</geoidheight>
	</trkpt>
	<trkpt lat="50.695287" lon="6.197403">
		<ele>332</ele>
		<time>2011-09-11T10:37:44.912Z</time>
		<geoidheight>286</geoidheight>
	</trkpt>
	<trkpt lat="50.695292" lon="6.197392">
		<ele>332</ele>
		<time>2011-09-11T10:37:45.910Z</time>
		<geoidheight>286</geoidheight>
	</trkpt>
	<trkpt lat="50.695295" lon="6.197385">
		<ele>332</ele>
		<time>2011-09-11T10:37:46.912Z</time>
		<geoidheight>286</geoidheight>
	</trkpt>
	<trkpt lat="50.695295" lon="6.197385">
		<ele>332</ele>
		<time>2011-09-11T10:38:19.910Z</time>
		<geoidheight>286</geoidheight>
	</trkpt>
	<trkpt lat="50.695320" lon="6.197447">
		<ele>332</ele>
		<time>2011-09-11T10:38:20.911Z</time>
		<geoidheight>286</geoidheight>
	</trkpt>
	<trkpt lat="50.695320" lon="6.197447">
		<ele>331</ele>
		<time>2011-09-11T10:38:42.911Z</time>
		<geoidheight>285</geoidheight>
	</trkpt>
	<trkpt lat="50.695342" lon="6.197383">
		<ele>331</ele>
		<time>2011-09-11T10:38:43.911Z</time>
		<geoidheight>285</geoidheight>
	</trkpt>
	<trkpt lat="50.695342" lon="6.197383">
		<ele>331</ele>
		<time>2011-09-11T10:38:47.911Z</time>
		<geoidheight>285</geoidheight>
	</trkpt>
	<trkpt lat="50.695337" lon="6.197367">
		<ele>331</ele>
		<time>2011-09-11T10:38:48.911Z</time>
		<geoidheight>285</geoidheight>
	</trkpt>
	<trkpt lat="50.695336" lon="6.197364">
		<ele>331</ele>
		<time>2011-09-11T10:39:21.912Z</time>
		<geoidheight>285</geoidheight>
	</trkpt>
	<trkpt lat="50.695290" lon="6.197323">
		<ele>331</ele>
		<time>2011-09-11T10:39:22.912Z</time>
		<geoidheight>285</geoidheight>
	</trkpt>
	<trkpt lat="50.695290" lon="6.197323">
		<ele>331</ele>
		<time>2011-09-11T10:39:35.919Z</time>
		<geoidheight>285</geoidheight>
	</trkpt>
	<trkpt lat="50.695252" lon="6.197361">
		<ele>331</ele>
		<time>2011-09-11T10:39:36.916Z</time>
		<geoidheight>285</geoidheight>
	</trkpt>
	<trkpt lat="50.695252" lon="6.197361">
		<ele>331</ele>
		<time>2011-09-11T10:39:46.920Z</time>
		<geoidheight>285</geoidheight>
	</trkpt>
	<trkpt lat="50.695242" lon="6.197379">
		<ele>331</ele>
		<time>2011-09-11T10:39:47.921Z</time>
		<geoidheight>285</geoidheight>
	</trkpt>
	<trkpt lat="50.695233" lon="6.197364">
		<ele>331</ele>
		<time>2011-09-11T10:39:48.911Z</time>
		<geoidheight>285</geoidheight>
	</trkpt>
	<trkpt lat="50.695225" lon="6.197346">
		<ele>331</ele>
		<time>2011-09-11T10:39:49.911Z</time>
		<geoidheight>285</geoidheight>
	</trkpt>
	<trkpt lat="50.695216" lon="6.197326">
		<ele>331</ele>
		<time>2011-09-11T10:39:50.912Z</time>
		<geoidheight>285</geoidheight>
	</trkpt>
	<trkpt lat="50.695206" lon="6.197307">
		<ele>331</ele>
		<time>2011-09-11T10:39:51.918Z</time>
		<geoidheight>285</geoidheight>
	</trkpt>
	<trkpt lat="50.695196" lon="6.197290">
		<ele>331</ele>
		<time>2011-09-11T10:39:52.913Z</time>
		<geoidheight>285</geoidheight>
	</trkpt>
	<trkpt lat="50.695196" lon="6.197290">
		<ele>331</ele>
		<time>2011-09-11T10:40:00.912Z</time>
		<geoidheight>285</geoidheight>
	</trkpt>
	<trkpt lat="50.695165" lon="6.197235">
		<ele>331</ele>
		<time>2011-09-11T10:40:01.914Z</time>
		<geoidheight>285</geoidheight>
	</trkpt>
	<trkpt lat="50.695165" lon="6.197235">
		<ele>331</ele>
		<time>2011-09-11T10:40:13.913Z</time>
		<geoidheight>285</geoidheight>
	</trkpt>
	<trkpt lat="50.695204" lon="6.197277">
		<ele>331</ele>
		<time>2011-09-11T10:40:14.911Z</time>
		<geoidheight>285</geoidheight>
	</trkpt>
	<trkpt lat="50.695204" lon="6.197277">
		<ele>331</ele>
		<time>2011-09-11T10:40:18.920Z</time>
		<geoidheight>285</geoidheight>
	</trkpt>
	<trkpt lat="50.695252" lon="6.197314">
		<ele>331</ele>
		<time>2011-09-11T10:40:19.918Z</time>
		<geoidheight>285</geoidheight>
	</trkpt>
	<trkpt lat="50.695252" lon="6.197314">
		<ele>331</ele>
		<time>2011-09-11T10:40:22.916Z</time>
		<geoidheight>285</geoidheight>
	</trkpt>
	<trkpt lat="50.695295" lon="6.197350">
		<ele>331</ele>
		<time>2011-09-11T10:40:23.917Z</time>
		<geoidheight>285</geoidheight>
	</trkpt>
	<trkpt lat="50.695300" lon="6.197354">
		<ele>332</ele>
		<time>2011-09-11T10:40:47.918Z</time>
		<geoidheight>286</geoidheight>
	</trkpt>
	<trkpt lat="50.695304" lon="6.197354">
		<ele>332</ele>
		<time>2011-09-11T10:40:48.913Z</time>
		<geoidheight>286</geoidheight>
	</trkpt>
	<trkpt lat="50.695310" lon="6.197353">
		<ele>332</ele>
		<time>2011-09-11T10:41:11.911Z</time>
		<geoidheight>286</geoidheight>
	</trkpt>
	<trkpt lat="50.695266" lon="6.197355">
		<ele>332</ele>
		<time>2011-09-11T10:41:12.912Z</time>
		<geoidheight>286</geoidheight>
	</trkpt>
	<trkpt lat="50.695268" lon="6.197362">
		<ele>331</ele>
		<time>2011-09-11T10:41:56.913Z</time>
		<geoidheight>285</geoidheight>
	</trkpt>
	<trkpt lat="50.695227" lon="6.197323">
		<ele>331</ele>
		<time>2011-09-11T10:41:57.912Z</time>
		<geoidheight>285</geoidheight>
	</trkpt>
	<trkpt lat="50.695227" lon="6.197323">
		<ele>332</ele>
		<time>2011-09-11T10:42:31.915Z</time>
		<geoidheight>286</geoidheight>
	</trkpt>
	<trkpt lat="50.695228" lon="6.197398">
		<ele>332</ele>
		<time>2011-09-11T10:42:32.916Z</time>
		<geoidheight>286</geoidheight>
	</trkpt>
	<trkpt lat="50.695228" lon="6.197398">
		<ele>332</ele>
		<time>2011-09-11T10:42:41.932Z</time>
		<geoidheight>286</geoidheight>
	</trkpt>
	<trkpt lat="50.695249" lon="6.197315">
		<ele>332</ele>
		<time>2011-09-11T10:42:42.930Z</time>
		<geoidheight>286</geoidheight>
	</trkpt>
	<trkpt lat="50.695249" lon="6.197315">
		<ele>332</ele>
		<time>2011-09-11T10:42:47.921Z</time>
		<geoidheight>286</geoidheight>
	</trkpt>
	<trkpt lat="50.695270" lon="6.197261">
		<ele>332</ele>
		<time>2011-09-11T10:42:48.928Z</time>
		<geoidheight>286</geoidheight>
	</trkpt>
	<trkpt lat="50.695262" lon="6.197256">
		<ele>333</ele>
		<time>2011-09-11T10:43:05.920Z</time>
		<geoidheight>287</geoidheight>
	</trkpt>
	<trkpt lat="50.695227" lon="6.197319">
		<ele>332</ele>
		<time>2011-09-11T10:43:06.916Z</time>
		<geoidheight>286</geoidheight>
	</trkpt>
	<trkpt lat="50.695227" lon="6.197319">
		<ele>332</ele>
		<time>2011-09-11T10:43:08.921Z</time>
		<geoidheight>286</geoidheight>
	</trkpt>
	<trkpt lat="50.695219" lon="6.197357">
		<ele>332</ele>
		<time>2011-09-11T10:43:09.917Z</time>
		<geoidheight>286</geoidheight>
	</trkpt>
	<trkpt lat="50.695219" lon="6.197357">
		<ele>332</ele>
		<time>2011-09-11T10:43:21.922Z</time>
		<geoidheight>286</geoidheight>
	</trkpt>
	<trkpt lat="50.695238" lon="6.197426">
		<ele>333</ele>
		<time>2011-09-11T10:43:22.920Z</time>
		<geoidheight>287</geoidheight>
	</trkpt>
	<trkpt lat="50.695238" lon="6.197426">
		<ele>333</ele>
		<time>2011-09-11T10:43:31.914Z</time>
		<geoidheight>287</geoidheight>
	</trkpt>
	<trkpt lat="50.695267" lon="6.197484">
		<ele>333</ele>
		<time>2011-09-11T10:43:32.914Z</time>
		<geoidheight>287</geoidheight>
	</trkpt>
	<trkpt lat="50.695267" lon="6.197484">
		<ele>333</ele>
		<time>2011-09-11T10:44:02.921Z</time>
		<geoidheight>287</geoidheight>
	</trkpt>
	<trkpt lat="50.695257" lon="6.197411">
		<ele>333</ele>
		<time>2011-09-11T10:44:03.916Z</time>
		<geoidheight>287</geoidheight>
	</trkpt>
	<trkpt lat="50.695257" lon="6.197411">
		<ele>333</ele>
		<time>2011-09-11T10:44:32.919Z</time>
		<geoidheight>287</geoidheight>
	</trkpt>
	<trkpt lat="50.695242" lon="6.197339">
		<ele>333</ele>
		<time>2011-09-11T10:44:33.916Z</time>
		<geoidheight>287</geoidheight>
	</trkpt>
	<trkpt lat="50.695242" lon="6.197339">
		<ele>333</ele>
		<time>2011-09-11T10:44:37.918Z</time>
		<geoidheight>287</geoidheight>
	</trkpt>
	<trkpt lat="50.695203" lon="6.197304">
		<ele>333</ele>
		<time>2011-09-11T10:44:38.918Z</time>
		<geoidheight>287</geoidheight>
	</trkpt>
	<trkpt lat="50.695203" lon="6.197304">
		<ele>333</ele>
		<time>2011-09-11T10:44:39.919Z</time>
		<geoidheight>287</geoidheight>
	</trkpt>
	<trkpt lat="50.695195" lon="6.197292">
		<ele>333</ele>
		<time>2011-09-11T10:44:40.915Z</time>
		<geoidheight>287</geoidheight>
	</trkpt>
	<trkpt lat="50.695190" lon="6.197280">
		<ele>333</ele>
		<time>2011-09-11T10:44:41.926Z</time>
		<geoidheight>287</geoidheight>
	</trkpt>
	<trkpt lat="50.695186" lon="6.197267">
		<ele>333</ele>
		<time>2011-09-11T10:44:42.929Z</time>
		<geoidheight>287</geoidheight>
	</trkpt>
	<trkpt lat="50.695183" lon="6.197252">
		<ele>334</ele>
		<time>2011-09-11T10:44:43.925Z</time>
		<geoidheight>288</geoidheight>
	</trkpt>
	<trkpt lat="50.695180" lon="6.197238">
		<ele>334</ele>
		<time>2011-09-11T10:44:44.948Z</time>
		<geoidheight>288</geoidheight>
	</trkpt>
	<trkpt lat="50.695179" lon="6.197224">
		<ele>334</ele>
		<time>2011-09-11T10:44:45.928Z</time>
		<geoidheight>288</geoidheight>
	</trkpt>
	<trkpt lat="50.695177" lon="6.197211">
		<ele>334</ele>
		<time>2011-09-11T10:44:46.930Z</time>
		<geoidheight>288</geoidheight>
	</trkpt>
	<trkpt lat="50.695175" lon="6.197199">
		<ele>334</ele>
		<time>2011-09-11T10:44:47.924Z</time>
		<geoidheight>288</geoidheight>
	</trkpt>
	<trkpt lat="50.695172" lon="6.197187">
		<ele>334</ele>
		<time>2011-09-11T10:44:48.927Z</time>
		<geoidheight>288</geoidheight>
	</trkpt>
	<trkpt lat="50.695167" lon="6.197175">
		<ele>334</ele>
		<time>2011-09-11T10:44:49.930Z</time>
		<geoidheight>288</geoidheight>
	</trkpt>
	<trkpt lat="50.695161" lon="6.197165">
		<ele>334</ele>
		<time>2011-09-11T10:44:50.928Z</time>
		<geoidheight>288</geoidheight>
	</trkpt>
	<trkpt lat="50.695158" lon="6.197154">
		<ele>334</ele>
		<time>2011-09-11T10:44:51.925Z</time>
		<geoidheight>288</geoidheight>
	</trkpt>
	<trkpt lat="50.695154" lon="6.197142">
		<ele>334</ele>
		<time>2011-09-11T10:44:52.925Z</time>
		<geoidheight>288</geoidheight>
	</trkpt>
	<trkpt lat="50.695150" lon="6.197134">
		<ele>334</ele>
		<time>2011-09-11T10:44:53.929Z</time>
		<geoidheight>288</geoidheight>
	</trkpt>
	<trkpt lat="50.695144" lon="6.197123">
		<ele>334</ele>
		<time>2011-09-11T10:44:54.925Z</time>
		<geoidheight>288</geoidheight>
	</trkpt>
	<trkpt lat="50.695137" lon="6.197111">
		<ele>334</ele>
		<time>2011-09-11T10:44:55.921Z</time>
		<geoidheight>288</geoidheight>
	</trkpt>
	<trkpt lat="50.695129" lon="6.197099">
		<ele>334</ele>
		<time>2011-09-11T10:44:56.931Z</time>
		<geoidheight>288</geoidheight>
	</trkpt>
	<trkpt lat="50.695129" lon="6.197099">
		<ele>334</ele>
		<time>2011-09-11T10:44:57.924Z</time>
		<geoidheight>288</geoidheight>
	</trkpt>
	<trkpt lat="50.695124" lon="6.197083">
		<ele>334</ele>
		<time>2011-09-11T10:44:58.925Z</time>
		<geoidheight>288</geoidheight>
	</trkpt>
	<trkpt lat="50.695118" lon="6.197070">
		<ele>334</ele>
		<time>2011-09-11T10:44:59.928Z</time>
		<geoidheight>288</geoidheight>
	</trkpt>
	<trkpt lat="50.695112" lon="6.197059">
		<ele>334</ele>
		<time>2011-09-11T10:45:00.923Z</time>
		<geoidheight>288</geoidheight>
	</trkpt>
	<trkpt lat="50.695104" lon="6.197048">
		<ele>334</ele>
		<time>2011-09-11T10:45:01.931Z</time>
		<geoidheight>288</geoidheight>
	</trkpt>
	<trkpt lat="50.695096" lon="6.197037">
		<ele>334</ele>
		<time>2011-09-11T10:45:02.924Z</time>
		<geoidheight>288</geoidheight>
	</trkpt>
	<trkpt lat="50.695088" lon="6.197030">
		<ele>334</ele>
		<time>2011-09-11T10:45:03.924Z</time>
		<geoidheight>288</geoidheight>
	</trkpt>
	<trkpt lat="50.695080" lon="6.197030">
		<ele>334</ele>
		<time>2011-09-11T10:45:04.921Z</time>
		<geoidheight>288</geoidheight>
	</trkpt>
	<trkpt lat="50.695076" lon="6.197023">
		<ele>334</ele>
		<time>2011-09-11T10:45:05.929Z</time>
		<geoidheight>288</geoidheight>
	</trkpt>
	<trkpt lat="50.695072" lon="6.197014">
		<ele>334</ele>
		<time>2011-09-11T10:45:06.927Z</time>
		<geoidheight>288</geoidheight>
	</trkpt>
	<trkpt lat="50.695066" lon="6.197006">
		<ele>334</ele>
		<time>2011-09-11T10:45:07.928Z</time>
		<geoidheight>288</geoidheight>
	</trkpt>
	<trkpt lat="50.695061" lon="6.196997">
		<ele>334</ele>
		<time>2011-09-11T10:45:08.931Z</time>
		<geoidheight>288</geoidheight>
	</trkpt>
	<trkpt lat="50.695056" lon="6.196985">
		<ele>334</ele>
		<time>2011-09-11T10:45:09.928Z</time>
		<geoidheight>288</geoidheight>
	</trkpt>
	<trkpt lat="50.695051" lon="6.196971">
		<ele>334</ele>
		<time>2011-09-11T10:45:10.923Z</time>
		<geoidheight>288</geoidheight>
	</trkpt>
	<trkpt lat="50.695046" lon="6.196954">
		<ele>334</ele>
		<time>2011-09-11T10:45:11.926Z</time>
		<geoidheight>288</geoidheight>
	</trkpt>
	<trkpt lat="50.695039" lon="6.196937">
		<ele>334</ele>
		<time>2011-09-11T10:45:12.926Z</time>
		<geoidheight>288</geoidheight>
	</trkpt>
	<trkpt lat="50.695033" lon="6.196921">
		<ele>334</ele>
		<time>2011-09-11T10:45:13.925Z</time>
		<geoidheight>288</geoidheight>
	</trkpt>
	<trkpt lat="50.695027" lon="6.196905">
		<ele>334</ele>
		<time>2011-09-11T10:45:14.952Z</time>
		<geoidheight>288</geoidheight>
	</trkpt>
	<trkpt lat="50.695020" lon="6.196889">
		<ele>334</ele>
		<time>2011-09-11T10:45:15.932Z</time>
		<geoidheight>288</geoidheight>
	</trkpt>
	<trkpt lat="50.695013" lon="6.196873">
		<ele>333</ele>
		<time>2011-09-11T10:45:16.931Z</time>
		<geoidheight>287</geoidheight>
	</trkpt>
	<trkpt lat="50.695006" lon="6.196854">
		<ele>333</ele>
		<time>2011-09-11T10:45:17.928Z</time>
		<geoidheight>287</geoidheight>
	</trkpt>
	<trkpt lat="50.695000" lon="6.196837">
		<ele>333</ele>
		<time>2011-09-11T10:45:18.925Z</time>
		<geoidheight>287</geoidheight>
	</trkpt>
	<trkpt lat="50.694994" lon="6.196819">
		<ele>333</ele>
		<time>2011-09-11T10:45:19.930Z</time>
		<geoidheight>287</geoidheight>
	</trkpt>
	<trkpt lat="50.694989" lon="6.196800">
		<ele>333</ele>
		<time>2011-09-11T10:45:20.924Z</time>
		<geoidheight>287</geoidheight>
	</trkpt>
	<trkpt lat="50.694984" lon="6.196784">
		<ele>333</ele>
		<time>2011-09-11T10:45:21.931Z</time>
		<geoidheight>287</geoidheight>
	</trkpt>
	<trkpt lat="50.694978" lon="6.196770">
		<ele>333</ele>
		<time>2011-09-11T10:45:22.926Z</time>
		<geoidheight>287</geoidheight>
	</trkpt>
	<trkpt lat="50.694971" lon="6.196760">
		<ele>333</ele>
		<time>2011-09-11T10:45:23.926Z</time>
		<geoidheight>287</geoidheight>
	</trkpt>
	<trkpt lat="50.694964" lon="6.196752">
		<ele>333</ele>
		<time>2011-09-11T10:45:24.930Z</time>
		<geoidheight>287</geoidheight>
	</trkpt>
	<trkpt lat="50.694955" lon="6.196740">
		<ele>333</ele>
		<time>2011-09-11T10:45:25.924Z</time>
		<geoidheight>287</geoidheight>
	</trkpt>
	<trkpt lat="50.694945" lon="6.196727">
		<ele>333</ele>
		<time>2011-09-11T10:45:26.927Z</time>
		<geoidheight>287</geoidheight>
	</trkpt>
	<trkpt lat="50.694935" lon="6.196711">
		<ele>333</ele>
		<time>2011-09-11T10:45:27.930Z</time>
		<geoidheight>287</geoidheight>
	</trkpt>
	<trkpt lat="50.694926" lon="6.196695">
		<ele>333</ele>
		<time>2011-09-11T10:45:28.929Z</time>
		<geoidheight>287</geoidheight>
	</trkpt>
	<trkpt lat="50.694917" lon="6.196681">
		<ele>333</ele>
		<time>2011-09-11T10:45:29.927Z</time>
		<geoidheight>287</geoidheight>
	</trkpt>
	<trkpt lat="50.694908" lon="6.196664">
		<ele>333</ele>
		<time>2011-09-11T10:45:30.929Z</time>
		<geoidheight>287</geoidheight>
	</trkpt>
	<trkpt lat="50.694900" lon="6.196648">
		<ele>332</ele>
		<time>2011-09-11T10:45:31.924Z</time>
		<geoidheight>286</geoidheight>
	</trkpt>
	<trkpt lat="50.694892" lon="6.196634">
		<ele>332</ele>
		<time>2011-09-11T10:45:32.932Z</time>
		<geoidheight>286</geoidheight>
	</trkpt>
	<trkpt lat="50.694883" lon="6.196618">
		<ele>332</ele>
		<time>2011-09-11T10:45:33.936Z</time>
		<geoidheight>286</geoidheight>
	</trkpt>
	<trkpt lat="50.694872" lon="6.196599">
		<ele>332</ele>
		<time>2011-09-11T10:45:34.930Z</time>
		<geoidheight>286</geoidheight>
	</trkpt>
	<trkpt lat="50.694861" lon="6.196577">
		<ele>332</ele>
		<time>2011-09-11T10:45:35.925Z</time>
		<geoidheight>286</geoidheight>
	</trkpt>
	<trkpt lat="50.694850" lon="6.196557">
		<ele>332</ele>
		<time>2011-09-11T10:45:36.926Z</time>
		<geoidheight>286</geoidheight>
	</trkpt>
	<trkpt lat="50.694839" lon="6.196537">
		<ele>332</ele>
		<time>2011-09-11T10:45:37.929Z</time>
		<geoidheight>286</geoidheight>
	</trkpt>
	<trkpt lat="50.694829" lon="6.196516">
		<ele>332</ele>
		<time>2011-09-11T10:45:38.927Z</time>
		<geoidheight>286</geoidheight>
	</trkpt>
	<trkpt lat="50.694820" lon="6.196496">
		<ele>332</ele>
		<time>2011-09-11T10:45:39.933Z</time>
		<geoidheight>286</geoidheight>
	</trkpt>
	<trkpt lat="50.694811" lon="6.196478">
		<ele>332</ele>
		<time>2011-09-11T10:45:40.925Z</time>
		<geoidheight>286</geoidheight>
	</trkpt>
	<trkpt lat="50.694801" lon="6.196461">
		<ele>332</ele>
		<time>2011-09-11T10:45:41.924Z</time>
		<geoidheight>286</geoidheight>
	</trkpt>
	<trkpt lat="50.694792" lon="6.196444">
		<ele>332</ele>
		<time>2011-09-11T10:45:42.926Z</time>
		<geoidheight>286</geoidheight>
	</trkpt>
	<trkpt lat="50.694784" lon="6.196426">
		<ele>332</ele>
		<time>2011-09-11T10:45:43.927Z</time>
		<geoidheight>286</geoidheight>
	</trkpt>
	<trkpt lat="50.694776" lon="6.196410">
		<ele>332</ele>
		<time>2011-09-11T10:45:44.941Z</time>
		<geoidheight>286</geoidheight>
	</trkpt>
	<trkpt lat="50.694768" lon="6.196397">
		<ele>332</ele>
		<time>2011-09-11T10:45:45.930Z</time>
		<geoidheight>286</geoidheight>
	</trkpt>
	<trkpt lat="50.694759" lon="6.196385">
		<ele>332</ele>
		<time>2011-09-11T10:45:46.926Z</time>
		<geoidheight>286</geoidheight>
	</trkpt>
	<trkpt lat="50.694750" lon="6.196375">
		<ele>332</ele>
		<time>2011-09-11T10:45:47.923Z</time>
		<geoidheight>286</geoidheight>
	</trkpt>
	<trkpt lat="50.694741" lon="6.196367">
		<ele>332</ele>
		<time>2011-09-11T10:45:48.929Z</time>
		<geoidheight>286</geoidheight>
	</trkpt>
	<trkpt lat="50.694731" lon="6.196360">
		<ele>332</ele>
		<time>2011-09-11T10:45:49.925Z</time>
		<geoidheight>286</geoidheight>
	</trkpt>
	<trkpt lat="50.694722" lon="6.196351">
		<ele>332</ele>
		<time>2011-09-11T10:45:50.935Z</time>
		<geoidheight>286</geoidheight>
	</trkpt>
	<trkpt lat="50.694714" lon="6.196340">
		<ele>332</ele>
		<time>2011-09-11T10:45:51.933Z</time>
		<geoidheight>286</geoidheight>
	</trkpt>
	<trkpt lat="50.694704" lon="6.196331">
		<ele>332</ele>
		<time>2011-09-11T10:45:52.928Z</time>
		<geoidheight>286</geoidheight>
	</trkpt>
	<trkpt lat="50.694694" lon="6.196319">
		<ele>332</ele>
		<time>2011-09-11T10:45:53.925Z</time>
		<geoidheight>286</geoidheight>
	</trkpt>
	<trkpt lat="50.694686" lon="6.196307">
		<ele>332</ele>
		<time>2011-09-11T10:45:54.925Z</time>
		<geoidheight>286</geoidheight>
	</trkpt>
	<trkpt lat="50.694679" lon="6.196292">
		<ele>332</ele>
		<time>2011-09-11T10:45:55.924Z</time>
		<geoidheight>286</geoidheight>
	</trkpt>
	<trkpt lat="50.694672" lon="6.196278">
		<ele>332</ele>
		<time>2011-09-11T10:45:56.924Z</time>
		<geoidheight>286</geoidheight>
	</trkpt>
	<trkpt lat="50.694664" lon="6.196265">
		<ele>332</ele>
		<time>2011-09-11T10:45:57.923Z</time>
		<geoidheight>286</geoidheight>
	</trkpt>
	<trkpt lat="50.694655" lon="6.196251">
		<ele>332</ele>
		<time>2011-09-11T10:45:58.937Z</time>
		<geoidheight>286</geoidheight>
	</trkpt>
	<trkpt lat="50.694645" lon="6.196236">
		<ele>332</ele>
		<time>2011-09-11T10:45:59.921Z</time>
		<geoidheight>286</geoidheight>
	</trkpt>
	<trkpt lat="50.694634" lon="6.196219">
		<ele>332</ele>
		<time>2011-09-11T10:46:00.934Z</time>
		<geoidheight>286</geoidheight>
	</trkpt>
	<trkpt lat="50.694624" lon="6.196204">
		<ele>332</ele>
		<time>2011-09-11T10:46:01.931Z</time>
		<geoidheight>286</geoidheight>
	</trkpt>
	<trkpt lat="50.694616" lon="6.196187">
		<ele>333</ele>
		<time>2011-09-11T10:46:02.937Z</time>
		<geoidheight>287</geoidheight>
	</trkpt>
	<trkpt lat="50.694607" lon="6.196170">
		<ele>333</ele>
		<time>2011-09-11T10:46:03.927Z</time>
		<geoidheight>287</geoidheight>
	</trkpt>
	<trkpt lat="50.694602" lon="6.196150">
		<ele>333</ele>
		<time>2011-09-11T10:46:04.927Z</time>
		<geoidheight>287</geoidheight>
	</trkpt>
	<trkpt lat="50.694595" lon="6.196133">
		<ele>333</ele>
		<time>2011-09-11T10:46:05.926Z</time>
		<geoidheight>287</geoidheight>
	</trkpt>
	<trkpt lat="50.694589" lon="6.196116">
		<ele>333</ele>
		<time>2011-09-11T10:46:06.934Z</time>
		<geoidheight>287</geoidheight>
	</trkpt>
	<trkpt lat="50.694580" lon="6.196102">
		<ele>333</ele>
		<time>2011-09-11T10:46:07.938Z</time>
		<geoidheight>287</geoidheight>
	</trkpt>
	<trkpt lat="50.694571" lon="6.196087">
		<ele>333</ele>
		<time>2011-09-11T10:46:08.930Z</time>
		<geoidheight>287</geoidheight>
	</trkpt>
	<trkpt lat="50.694565" lon="6.196073">
		<ele>333</ele>
		<time>2011-09-11T10:46:09.932Z</time>
		<geoidheight>287</geoidheight>
	</trkpt>
	<trkpt lat="50.694560" lon="6.196056">
		<ele>333</ele>
		<time>2011-09-11T10:46:10.930Z</time>
		<geoidheight>287</geoidheight>
	</trkpt>
	<trkpt lat="50.694553" lon="6.196042">
		<ele>333</ele>
		<time>2011-09-11T10:46:11.931Z</time>
		<geoidheight>287</geoidheight>
	</trkpt>
	<trkpt lat="50.694547" lon="6.196028">
		<ele>333</ele>
		<time>2011-09-11T10:46:12.926Z</time>
		<geoidheight>287</geoidheight>
	</trkpt>
	<trkpt lat="50.694540" lon="6.196012">
		<ele>333</ele>
		<time>2011-09-11T10:46:13.927Z</time>
		<geoidheight>287</geoidheight>
	</trkpt>
	<trkpt lat="50.694534" lon="6.195995">
		<ele>333</ele>
		<time>2011-09-11T10:46:14.941Z</time>
		<geoidheight>287</geoidheight>
	</trkpt>
	<trkpt lat="50.694526" lon="6.195980">
		<ele>333</ele>
		<time>2011-09-11T10:46:15.953Z</time>
		<geoidheight>287</geoidheight>
	</trkpt>
	<trkpt lat="50.694523" lon="6.195962">
		<ele>333</ele>
		<time>2011-09-11T10:46:16.928Z</time>
		<geoidheight>287</geoidheight>
	</trkpt>
	<trkpt lat="50.694516" lon="6.195947">
		<ele>333</ele>
		<time>2011-09-11T10:46:17.941Z</time>
		<geoidheight>287</geoidheight>
	</trkpt>
	<trkpt lat="50.694512" lon="6.195930">
		<ele>333</ele>
		<time>2011-09-11T10:46:18.931Z</time>
		<geoidheight>287</geoidheight>
	</trkpt>
	<trkpt lat="50.694507" lon="6.195915">
		<ele>333</ele>
		<time>2011-09-11T10:46:19.944Z</time>
		<geoidheight>287</geoidheight>
	</trkpt>
	<trkpt lat="50.694503" lon="6.195899">
		<ele>333</ele>
		<time>2011-09-11T10:46:20.936Z</time>
		<geoidheight>287</geoidheight>
	</trkpt>
	<trkpt lat="50.694502" lon="6.195883">
		<ele>333</ele>
		<time>2011-09-11T10:46:21.937Z</time>
		<geoidheight>287</geoidheight>
	</trkpt>
	<trkpt lat="50.694498" lon="6.195868">
		<ele>334</ele>
		<time>2011-09-11T10:46:22.936Z</time>
		<geoidheight>288</geoidheight>
	</trkpt>
	<trkpt lat="50.694494" lon="6.195852">
		<ele>334</ele>
		<time>2011-09-11T10:46:23.948Z</time>
		<geoidheight>288</geoidheight>
	</trkpt>
	<trkpt lat="50.694487" lon="6.195840">
		<ele>334</ele>
		<time>2011-09-11T10:46:24.926Z</time>
		<geoidheight>288</geoidheight>
	</trkpt>
	<trkpt lat="50.694479" lon="6.195828">
		<ele>334</ele>
		<time>2011-09-11T10:46:25.928Z</time>
		<geoidheight>288</geoidheight>
	</trkpt>
	<trkpt lat="50.694473" lon="6.195817">
		<ele>334</ele>
		<time>2011-09-11T10:46:26.926Z</time>
		<geoidheight>288</geoidheight>
	</trkpt>
	<trkpt lat="50.694465" lon="6.195808">
		<ele>334</ele>
		<time>2011-09-11T10:46:27.928Z</time>
		<geoidheight>288</geoidheight>
	</trkpt>
	<trkpt lat="50.694457" lon="6.195800">
		<ele>334</ele>
		<time>2011-09-11T10:46:28.930Z</time>
		<geoidheight>288</geoidheight>
	</trkpt>
	<trkpt lat="50.694449" lon="6.195790">
		<ele>334</ele>
		<time>2011-09-11T10:46:29.927Z</time>
		<geoidheight>288</geoidheight>
	</trkpt>
	<trkpt lat="50.694440" lon="6.195779">
		<ele>334</ele>
		<time>2011-09-11T10:46:30.920Z</time>
		<geoidheight>288</geoidheight>
	</trkpt>
	<trkpt lat="50.694433" lon="6.195764">
		<ele>334</ele>
		<time>2011-09-11T10:46:31.930Z</time>
		<geoidheight>288</geoidheight>
	</trkpt>
	<trkpt lat="50.694424" lon="6.195746">
		<ele>334</ele>
		<time>2011-09-11T10:46:32.925Z</time>
		<geoidheight>288</geoidheight>
	</trkpt>
	<trkpt lat="50.694413" lon="6.195731">
		<ele>334</ele>
		<time>2011-09-11T10:46:33.922Z</time>
		<geoidheight>288</geoidheight>
	</trkpt>
	<trkpt lat="50.694399" lon="6.195717">
		<ele>334</ele>
		<time>2011-09-11T10:46:34.922Z</time>
		<geoidheight>288</geoidheight>
	</trkpt>
	<trkpt lat="50.694387" lon="6.195707">
		<ele>334</ele>
		<time>2011-09-11T10:46:35.930Z</time>
		<geoidheight>288</geoidheight>
	</trkpt>
	<trkpt lat="50.694377" lon="6.195697">
		<ele>334</ele>
		<time>2011-09-11T10:46:36.931Z</time>
		<geoidheight>288</geoidheight>
	</trkpt>
	<trkpt lat="50.694368" lon="6.195684">
		<ele>334</ele>
		<time>2011-09-11T10:46:37.937Z</time>
		<geoidheight>288</geoidheight>
	</trkpt>
	<trkpt lat="50.694362" lon="6.195668">
		<ele>334</ele>
		<time>2011-09-11T10:46:38.930Z</time>
		<geoidheight>288</geoidheight>
	</trkpt>
	<trkpt lat="50.694354" lon="6.195650">
		<ele>334</ele>
		<time>2011-09-11T10:46:39.930Z</time>
		<geoidheight>288</geoidheight>
	</trkpt>
	<trkpt lat="50.694347" lon="6.195630">
		<ele>334</ele>
		<time>2011-09-11T10:46:40.931Z</time>
		<geoidheight>288</geoidheight>
	</trkpt>
	<trkpt lat="50.694341" lon="6.195614">
		<ele>334</ele>
		<time>2011-09-11T10:46:41.927Z</time>
		<geoidheight>288</geoidheight>
	</trkpt>
	<trkpt lat="50.694338" lon="6.195597">
		<ele>334</ele>
		<time>2011-09-11T10:46:42.926Z</time>
		<geoidheight>288</geoidheight>
	</trkpt>
	<trkpt lat="50.694331" lon="6.195584">
		<ele>334</ele>
		<time>2011-09-11T10:46:43.929Z</time>
		<geoidheight>288</geoidheight>
	</trkpt>
	<trkpt lat="50.694331" lon="6.195584">
		<ele>334</ele>
		<time>2011-09-11T10:46:44.930Z</time>
		<geoidheight>288</geoidheight>
	</trkpt>
	<trkpt lat="50.694326" lon="6.195572">
		<ele>334</ele>
		<time>2011-09-11T10:46:45.929Z</time>
		<geoidheight>288</geoidheight>
	</trkpt>
	<trkpt lat="50.694320" lon="6.195560">
		<ele>334</ele>
		<time>2011-09-11T10:46:46.926Z</time>
		<geoidheight>288</geoidheight>
	</trkpt>
	<trkpt lat="50.694314" lon="6.195549">
		<ele>334</ele>
		<time>2011-09-11T10:46:47.929Z</time>
		<geoidheight>288</geoidheight>
	</trkpt>
	<trkpt lat="50.694307" lon="6.195537">
		<ele>334</ele>
		<time>2011-09-11T10:46:48.930Z</time>
		<geoidheight>288</geoidheight>
	</trkpt>
	<trkpt lat="50.694300" lon="6.195527">
		<ele>334</ele>
		<time>2011-09-11T10:46:49.921Z</time>
		<geoidheight>288</geoidheight>
	</trkpt>
	<trkpt lat="50.694292" lon="6.195520">
		<ele>335</ele>
		<time>2011-09-11T10:46:50.931Z</time>
		<geoidheight>289</geoidheight>
	</trkpt>
	<trkpt lat="50.694286" lon="6.195510">
		<ele>335</ele>
		<time>2011-09-11T10:46:51.928Z</time>
		<geoidheight>289</geoidheight>
	</trkpt>
	<trkpt lat="50.694279" lon="6.195502">
		<ele>335</ele>
		<time>2011-09-11T10:46:52.927Z</time>
		<geoidheight>289</geoidheight>
	</trkpt>
	<trkpt lat="50.694271" lon="6.195494">
		<ele>335</ele>
		<time>2011-09-11T10:46:53.934Z</time>
		<geoidheight>289</geoidheight>
	</trkpt>
	<trkpt lat="50.694263" lon="6.195486">
		<ele>335</ele>
		<time>2011-09-11T10:46:54.927Z</time>
		<geoidheight>289</geoidheight>
	</trkpt>
	<trkpt lat="50.694251" lon="6.195477">
		<ele>335</ele>
		<time>2011-09-11T10:46:55.944Z</time>
		<geoidheight>289</geoidheight>
	</trkpt>
	<trkpt lat="50.694239" lon="6.195468">
		<ele>335</ele>
		<time>2011-09-11T10:46:56.944Z</time>
		<geoidheight>289</geoidheight>
	</trkpt>
	<trkpt lat="50.694228" lon="6.195462">
		<ele>335</ele>
		<time>2011-09-11T10:46:57.925Z</time>
		<geoidheight>289</geoidheight>
	</trkpt>
	<trkpt lat="50.694217" lon="6.195455">
		<ele>335</ele>
		<time>2011-09-11T10:46:58.930Z</time>
		<geoidheight>289</geoidheight>
	</trkpt>
	<trkpt lat="50.694206" lon="6.195450">
		<ele>335</ele>
		<time>2011-09-11T10:46:59.928Z</time>
		<geoidheight>289</geoidheight>
	</trkpt>
	<trkpt lat="50.694196" lon="6.195447">
		<ele>335</ele>
		<time>2011-09-11T10:47:00.925Z</time>
		<geoidheight>289</geoidheight>
	</trkpt>
	<trkpt lat="50.694186" lon="6.195443">
		<ele>335</ele>
		<time>2011-09-11T10:47:01.939Z</time>
		<geoidheight>289</geoidheight>
	</trkpt>
	<trkpt lat="50.694178" lon="6.195441">
		<ele>335</ele>
		<time>2011-09-11T10:47:02.925Z</time>
		<geoidheight>289</geoidheight>
	</trkpt>
	<trkpt lat="50.694170" lon="6.195438">
		<ele>335</ele>
		<time>2011-09-11T10:47:03.934Z</time>
		<geoidheight>289</geoidheight>
	</trkpt>
	<trkpt lat="50.694162" lon="6.195436">
		<ele>335</ele>
		<time>2011-09-11T10:47:04.929Z</time>
		<geoidheight>289</geoidheight>
	</trkpt>
	<trkpt lat="50.694156" lon="6.195433">
		<ele>335</ele>
		<time>2011-09-11T10:47:05.937Z</time>
		<geoidheight>289</geoidheight>
	</trkpt>
	<trkpt lat="50.694146" lon="6.195432">
		<ele>335</ele>
		<time>2011-09-11T10:47:06.936Z</time>
		<geoidheight>289</geoidheight>
	</trkpt>
	<trkpt lat="50.694136" lon="6.195429">
		<ele>335</ele>
		<time>2011-09-11T10:47:07.926Z</time>
		<geoidheight>289</geoidheight>
	</trkpt>
	<trkpt lat="50.694126" lon="6.195429">
		<ele>335</ele>
		<time>2011-09-11T10:47:08.936Z</time>
		<geoidheight>289</geoidheight>
	</trkpt>
	<trkpt lat="50.694115" lon="6.195431">
		<ele>335</ele>
		<time>2011-09-11T10:47:09.934Z</time>
		<geoidheight>289</geoidheight>
	</trkpt>
	<trkpt lat="50.694104" lon="6.195433">
		<ele>335</ele>
		<time>2011-09-11T10:47:10.942Z</time>
		<geoidheight>289</geoidheight>
	</trkpt>
	<trkpt lat="50.694093" lon="6.195430">
		<ele>335</ele>
		<time>2011-09-11T10:47:11.938Z</time>
		<geoidheight>289</geoidheight>
	</trkpt>
	<trkpt lat="50.694082" lon="6.195428">
		<ele>335</ele>
		<time>2011-09-11T10:47:12.941Z</time>
		<geoidheight>289</geoidheight>
	</trkpt>
	<trkpt lat="50.694069" lon="6.195423">
		<ele>336</ele>
		<time>2011-09-11T10:47:13.937Z</time>
		<geoidheight>290</geoidheight>
	</trkpt>
	<trkpt lat="50.694051" lon="6.195419">
		<ele>336</ele>
		<time>2011-09-11T10:47:14.938Z</time>
		<geoidheight>290</geoidheight>
	</trkpt>
	<trkpt lat="50.694030" lon="6.195416">
		<ele>336</ele>
		<time>2011-09-11T10:47:15.938Z</time>
		<geoidheight>290</geoidheight>
	</trkpt>
	<trkpt lat="50.694013" lon="6.195417">
		<ele>336</ele>
		<time>2011-09-11T10:47:16.936Z</time>
		<geoidheight>290</geoidheight>
	</trkpt>
	<trkpt lat="50.693997" lon="6.195417">
		<ele>336</ele>
		<time>2011-09-11T10:47:17.922Z</time>
		<geoidheight>290</geoidheight>
	</trkpt>
	<trkpt lat="50.693981" lon="6.195415">
		<ele>336</ele>
		<time>2011-09-11T10:47:18.925Z</time>
		<geoidheight>290</geoidheight>
	</trkpt>
	<trkpt lat="50.693965" lon="6.195413">
		<ele>336</ele>
		<time>2011-09-11T10:47:19.921Z</time>
		<geoidheight>290</geoidheight>
	</trkpt>
	<trkpt lat="50.693947" lon="6.195411">
		<ele>336</ele>
		<time>2011-09-11T10:47:20.926Z</time>
		<geoidheight>290</geoidheight>
	</trkpt>
	<trkpt lat="50.693931" lon="6.195409">
		<ele>336</ele>
		<time>2011-09-11T10:47:21.932Z</time>
		<geoidheight>290</geoidheight>
	</trkpt>
	<trkpt lat="50.693915" lon="6.195409">
		<ele>336</ele>
		<time>2011-09-11T10:47:22.930Z</time>
		<geoidheight>290</geoidheight>
	</trkpt>
	<trkpt lat="50.693899" lon="6.195408">
		<ele>336</ele>
		<time>2011-09-11T10:47:23.929Z</time>
		<geoidheight>290</geoidheight>
	</trkpt>
	<trkpt lat="50.693883" lon="6.195405">
		<ele>336</ele>
		<time>2011-09-11T10:47:24.929Z</time>
		<geoidheight>290</geoidheight>
	</trkpt>
	<trkpt lat="50.693867" lon="6.195406">
		<ele>337</ele>
		<time>2011-09-11T10:47:25.925Z</time>
		<geoidheight>291</geoidheight>
	</trkpt>
	<trkpt lat="50.693849" lon="6.195405">
		<ele>337</ele>
		<time>2011-09-11T10:47:26.927Z</time>
		<geoidheight>291</geoidheight>
	</trkpt>
	<trkpt lat="50.693832" lon="6.195404">
		<ele>337</ele>
		<time>2011-09-11T10:47:27.924Z</time>
		<geoidheight>291</geoidheight>
	</trkpt>
	<trkpt lat="50.693814" lon="6.195400">
		<ele>337</ele>
		<time>2011-09-11T10:47:28.933Z</time>
		<geoidheight>291</geoidheight>
	</trkpt>
	<trkpt lat="50.693797" lon="6.195399">
		<ele>337</ele>
		<time>2011-09-11T10:47:29.925Z</time>
		<geoidheight>291</geoidheight>
	</trkpt>
	<trkpt lat="50.693781" lon="6.195397">
		<ele>337</ele>
		<time>2011-09-11T10:47:30.930Z</time>
		<geoidheight>291</geoidheight>
	</trkpt>
	<trkpt lat="50.693766" lon="6.195398">
		<ele>337</ele>
		<time>2011-09-11T10:47:31.929Z</time>
		<geoidheight>291</geoidheight>
	</trkpt>
	<trkpt lat="50.693750" lon="6.195398">
		<ele>337</ele>
		<time>2011-09-11T10:47:32.930Z</time>
		<geoidheight>291</geoidheight>
	</trkpt>
	<trkpt lat="50.693736" lon="6.195400">
		<ele>337</ele>
		<time>2011-09-11T10:47:33.924Z</time>
		<geoidheight>291</geoidheight>
	</trkpt>
	<trkpt lat="50.693721" lon="6.195403">
		<ele>337</ele>
		<time>2011-09-11T10:47:34.928Z</time>
		<geoidheight>291</geoidheight>
	</trkpt>
	<trkpt lat="50.693708" lon="6.195408">
		<ele>337</ele>
		<time>2011-09-11T10:47:35.927Z</time>
		<geoidheight>291</geoidheight>
	</trkpt>
	<trkpt lat="50.693695" lon="6.195415">
		<ele>337</ele>
		<time>2011-09-11T10:47:36.924Z</time>
		<geoidheight>291</geoidheight>
	</trkpt>
	<trkpt lat="50.693683" lon="6.195419">
		<ele>337</ele>
		<time>2011-09-11T10:47:37.926Z</time>
		<geoidheight>291</geoidheight>
	</trkpt>
	<trkpt lat="50.693671" lon="6.195422">
		<ele>337</ele>
		<time>2011-09-11T10:47:38.928Z</time>
		<geoidheight>291</geoidheight>
	</trkpt>
	<trkpt lat="50.693659" lon="6.195427">
		<ele>337</ele>
		<time>2011-09-11T10:47:39.936Z</time>
		<geoidheight>291</geoidheight>
	</trkpt>
	<trkpt lat="50.693643" lon="6.195429">
		<ele>338</ele>
		<time>2011-09-11T10:47:40.929Z</time>
		<geoidheight>292</geoidheight>
	</trkpt>
	<trkpt lat="50.693625" lon="6.195428">
		<ele>338</ele>
		<time>2011-09-11T10:47:41.927Z</time>
		<geoidheight>292</geoidheight>
	</trkpt>
	<trkpt lat="50.693605" lon="6.195426">
		<ele>338</ele>
		<time>2011-09-11T10:47:42.921Z</time>
		<geoidheight>292</geoidheight>
	</trkpt>
	<trkpt lat="50.693588" lon="6.195429">
		<ele>338</ele>
		<time>2011-09-11T10:47:43.922Z</time>
		<geoidheight>292</geoidheight>
	</trkpt>
	<trkpt lat="50.693566" lon="6.195428">
		<ele>338</ele>
		<time>2011-09-11T10:47:44.926Z</time>
		<geoidheight>292</geoidheight>
	</trkpt>
	<trkpt lat="50.693548" lon="6.195426">
		<ele>338</ele>
		<time>2011-09-11T10:47:45.925Z</time>
		<geoidheight>292</geoidheight>
	</trkpt>
	<trkpt lat="50.693527" lon="6.195421">
		<ele>338</ele>
		<time>2011-09-11T10:47:46.915Z</time>
		<geoidheight>292</geoidheight>
	</trkpt>
	<trkpt lat="50.693505" lon="6.195417">
		<ele>338</ele>
		<time>2011-09-11T10:47:47.923Z</time>
		<geoidheight>292</geoidheight>
	</trkpt>
	<trkpt lat="50.693483" lon="6.195412">
		<ele>338</ele>
		<time>2011-09-11T10:47:48.942Z</time>
		<geoidheight>292</geoidheight>
	</trkpt>
	<trkpt lat="50.693462" lon="6.195406">
		<ele>338</ele>
		<time>2011-09-11T10:47:49.933Z</time>
		<geoidheight>292</geoidheight>
	</trkpt>
	<trkpt lat="50.693445" lon="6.195401">
		<ele>338</ele>
		<time>2011-09-11T10:47:50.929Z</time>
		<geoidheight>292</geoidheight>
	</trkpt>
	<trkpt lat="50.693425" lon="6.195395">
		<ele>338</ele>
		<time>2011-09-11T10:47:51.923Z</time>
		<geoidheight>292</geoidheight>
	</trkpt>
	<trkpt lat="50.693408" lon="6.195392">
		<ele>338</ele>
		<time>2011-09-11T10:47:52.929Z</time>
		<geoidheight>292</geoidheight>
	</trkpt>
	<trkpt lat="50.693393" lon="6.195389">
		<ele>338</ele>
		<time>2011-09-11T10:47:53.928Z</time>
		<geoidheight>292</geoidheight>
	</trkpt>
	<trkpt lat="50.693378" lon="6.195384">
		<ele>338</ele>
		<time>2011-09-11T10:47:54.927Z</time>
		<geoidheight>292</geoidheight>
	</trkpt>
	<trkpt lat="50.693365" lon="6.195378">
		<ele>338</ele>
		<time>2011-09-11T10:47:55.932Z</time>
		<geoidheight>292</geoidheight>
	</trkpt>
	<trkpt lat="50.693350" lon="6.195372">
		<ele>338</ele>
		<time>2011-09-11T10:47:56.928Z</time>
		<geoidheight>292</geoidheight>
	</trkpt>
	<trkpt lat="50.693335" lon="6.195368">
		<ele>338</ele>
		<time>2011-09-11T10:47:57.932Z</time>
		<geoidheight>292</geoidheight>
	</trkpt>
	<trkpt lat="50.693321" lon="6.195363">
		<ele>338</ele>
		<time>2011-09-11T10:47:58.930Z</time>
		<geoidheight>292</geoidheight>
	</trkpt>
	<trkpt lat="50.693305" lon="6.195354">
		<ele>338</ele>
		<time>2011-09-11T10:47:59.931Z</time>
		<geoidheight>292</geoidheight>
	</trkpt>
	<trkpt lat="50.693288" lon="6.195348">
		<ele>338</ele>
		<time>2011-09-11T10:48:00.930Z</time>
		<geoidheight>292</geoidheight>
	</trkpt>
	<trkpt lat="50.693270" lon="6.195339">
		<ele>338</ele>
		<time>2011-09-11T10:48:01.932Z</time>
		<geoidheight>292</geoidheight>
	</trkpt>
	<trkpt lat="50.693250" lon="6.195329">
		<ele>337</ele>
		<time>2011-09-11T10:48:02.934Z</time>
		<geoidheight>291</geoidheight>
	</trkpt>
	<trkpt lat="50.693230" lon="6.195321">
		<ele>337</ele>
		<time>2011-09-11T10:48:03.929Z</time>
		<geoidheight>291</geoidheight>
	</trkpt>
	<trkpt lat="50.693214" lon="6.195314">
		<ele>337</ele>
		<time>2011-09-11T10:48:04.925Z</time>
		<geoidheight>291</geoidheight>
	</trkpt>
	<trkpt lat="50.693197" lon="6.195310">
		<ele>337</ele>
		<time>2011-09-11T10:48:05.930Z</time>
		<geoidheight>291</geoidheight>
	</trkpt>
	<trkpt lat="50.693180" lon="6.195309">
		<ele>337</ele>
		<time>2011-09-11T10:48:06.928Z</time>
		<geoidheight>291</geoidheight>
	</trkpt>
	<trkpt lat="50.693164" lon="6.195310">
		<ele>337</ele>
		<time>2011-09-11T10:48:07.940Z</time>
		<geoidheight>291</geoidheight>
	</trkpt>
	<trkpt lat="50.693149" lon="6.195309">
		<ele>337</ele>
		<time>2011-09-11T10:48:08.917Z</time>
		<geoidheight>291</geoidheight>
	</trkpt>
	<trkpt lat="50.693134" lon="6.195310">
		<ele>337</ele>
		<time>2011-09-11T10:48:09.918Z</time>
		<geoidheight>291</geoidheight>
	</trkpt>
	<trkpt lat="50.693120" lon="6.195311">
		<ele>337</ele>
		<time>2011-09-11T10:48:10.918Z</time>
		<geoidheight>291</geoidheight>
	</trkpt>
	<trkpt lat="50.693106" lon="6.195311">
		<ele>337</ele>
		<time>2011-09-11T10:48:11.918Z</time>
		<geoidheight>291</geoidheight>
	</trkpt>
	<trkpt lat="50.693092" lon="6.195313">
		<ele>337</ele>
		<time>2011-09-11T10:48:12.917Z</time>
		<geoidheight>291</geoidheight>
	</trkpt>
	<trkpt lat="50.693079" lon="6.195315">
		<ele>337</ele>
		<time>2011-09-11T10:48:13.919Z</time>
		<geoidheight>291</geoidheight>
	</trkpt>
	<trkpt lat="50.693067" lon="6.195316">
		<ele>337</ele>
		<time>2011-09-11T10:48:14.915Z</time>
		<geoidheight>291</geoidheight>
	</trkpt>
	<trkpt lat="50.693056" lon="6.195320">
		<ele>337</ele>
		<time>2011-09-11T10:48:15.919Z</time>
		<geoidheight>291</geoidheight>
	</trkpt>
	<trkpt lat="50.693044" lon="6.195323">
		<ele>337</ele>
		<time>2011-09-11T10:48:16.937Z</time>
		<geoidheight>291</geoidheight>
	</trkpt>
	<trkpt lat="50.693032" lon="6.195327">
		<ele>337</ele>
		<time>2011-09-11T10:48:17.918Z</time>
		<geoidheight>291</geoidheight>
	</trkpt>
	<trkpt lat="50.693020" lon="6.195330">
		<ele>337</ele>
		<time>2011-09-11T10:48:18.916Z</time>
		<geoidheight>291</geoidheight>
	</trkpt>
	<trkpt lat="50.693007" lon="6.195332">
		<ele>337</ele>
		<time>2011-09-11T10:48:19.919Z</time>
		<geoidheight>291</geoidheight>
	</trkpt>
	<trkpt lat="50.692994" lon="6.195331">
		<ele>337</ele>
		<time>2011-09-11T10:48:20.917Z</time>
		<geoidheight>291</geoidheight>
	</trkpt>
	<trkpt lat="50.692980" lon="6.195331">
		<ele>337</ele>
		<time>2011-09-11T10:48:21.917Z</time>
		<geoidheight>291</geoidheight>
	</trkpt>
	<trkpt lat="50.692966" lon="6.195330">
		<ele>337</ele>
		<time>2011-09-11T10:48:22.919Z</time>
		<geoidheight>291</geoidheight>
	</trkpt>
	<trkpt lat="50.692952" lon="6.195332">
		<ele>337</ele>
		<time>2011-09-11T10:48:23.917Z</time>
		<geoidheight>291</geoidheight>
	</trkpt>
	<trkpt lat="50.692937" lon="6.195333">
		<ele>337</ele>
		<time>2011-09-11T10:48:24.915Z</time>
		<geoidheight>291</geoidheight>
	</trkpt>
	<trkpt lat="50.692923" lon="6.195332">
		<ele>337</ele>
		<time>2011-09-11T10:48:25.922Z</time>
		<geoidheight>291</geoidheight>
	</trkpt>
	<trkpt lat="50.692910" lon="6.195334">
		<ele>337</ele>
		<time>2011-09-11T10:48:26.914Z</time>
		<geoidheight>291</geoidheight>
	</trkpt>
	<trkpt lat="50.692895" lon="6.195335">
		<ele>337</ele>
		<time>2011-09-11T10:48:27.927Z</time>
		<geoidheight>291</geoidheight>
	</trkpt>
	<trkpt lat="50.692880" lon="6.195334">
		<ele>337</ele>
		<time>2011-09-11T10:48:28.927Z</time>
		<geoidheight>291</geoidheight>
	</trkpt>
	<trkpt lat="50.692866" lon="6.195331">
		<ele>336</ele>
		<time>2011-09-11T10:48:29.930Z</time>
		<geoidheight>290</geoidheight>
	</trkpt>
	<trkpt lat="50.692852" lon="6.195330">
		<ele>336</ele>
		<time>2011-09-11T10:48:30.923Z</time>
		<geoidheight>290</geoidheight>
	</trkpt>
	<trkpt lat="50.692839" lon="6.195330">
		<ele>336</ele>
		<time>2011-09-11T10:48:31.925Z</time>
		<geoidheight>290</geoidheight>
	</trkpt>
	<trkpt lat="50.692828" lon="6.195330">
		<ele>336</ele>
		<time>2011-09-11T10:48:32.925Z</time>
		<geoidheight>290</geoidheight>
	</trkpt>
	<trkpt lat="50.692818" lon="6.195330">
		<ele>336</ele>
		<time>2011-09-11T10:48:33.934Z</time>
		<geoidheight>290</geoidheight>
	</trkpt>
	<trkpt lat="50.692808" lon="6.195329">
		<ele>336</ele>
		<time>2011-09-11T10:48:34.922Z</time>
		<geoidheight>290</geoidheight>
	</trkpt>
	<trkpt lat="50.692797" lon="6.195328">
		<ele>336</ele>
		<time>2011-09-11T10:48:35.918Z</time>
		<geoidheight>290</geoidheight>
	</trkpt>
	<trkpt lat="50.692786" lon="6.195327">
		<ele>336</ele>
		<time>2011-09-11T10:48:36.916Z</time>
		<geoidheight>290</geoidheight>
	</trkpt>
	<trkpt lat="50.692775" lon="6.195329">
		<ele>336</ele>
		<time>2011-09-11T10:48:37.917Z</time>
		<geoidheight>290</geoidheight>
	</trkpt>
	<trkpt lat="50.692764" lon="6.195329">
		<ele>336</ele>
		<time>2011-09-11T10:48:38.918Z</time>
		<geoidheight>290</geoidheight>
	</trkpt>
	<trkpt lat="50.692753" lon="6.195328">
		<ele>336</ele>
		<time>2011-09-11T10:48:39.917Z</time>
		<geoidheight>290</geoidheight>
	</trkpt>
	<trkpt lat="50.692742" lon="6.195331">
		<ele>336</ele>
		<time>2011-09-11T10:48:40.927Z</time>
		<geoidheight>290</geoidheight>
	</trkpt>
	<trkpt lat="50.692729" lon="6.195332">
		<ele>336</ele>
		<time>2011-09-11T10:48:41.918Z</time>
		<geoidheight>290</geoidheight>
	</trkpt>
	<trkpt lat="50.692717" lon="6.195334">
		<ele>336</ele>
		<time>2011-09-11T10:48:42.918Z</time>
		<geoidheight>290</geoidheight>
	</trkpt>
	<trkpt lat="50.692704" lon="6.195337">
		<ele>336</ele>
		<time>2011-09-11T10:48:43.918Z</time>
		<geoidheight>290</geoidheight>
	</trkpt>
	<trkpt lat="50.692691" lon="6.195341">
		<ele>336</ele>
		<time>2011-09-11T10:48:44.926Z</time>
		<geoidheight>290</geoidheight>
	</trkpt>
	<trkpt lat="50.692679" lon="6.195343">
		<ele>336</ele>
		<time>2011-09-11T10:48:45.916Z</time>
		<geoidheight>290</geoidheight>
	</trkpt>
	<trkpt lat="50.692667" lon="6.195345">
		<ele>336</ele>
		<time>2011-09-11T10:48:46.917Z</time>
		<geoidheight>290</geoidheight>
	</trkpt>
	<trkpt lat="50.692655" lon="6.195346">
		<ele>336</ele>
		<time>2011-09-11T10:48:47.918Z</time>
		<geoidheight>290</geoidheight>
	</trkpt>
	<trkpt lat="50.692644" lon="6.195350">
		<ele>336</ele>
		<time>2011-09-11T10:48:48.917Z</time>
		<geoidheight>290</geoidheight>
	</trkpt>
	<trkpt lat="50.692633" lon="6.195352">
		<ele>336</ele>
		<time>2011-09-11T10:48:49.917Z</time>
		<geoidheight>290</geoidheight>
	</trkpt>
	<trkpt lat="50.692622" lon="6.195356">
		<ele>336</ele>
		<time>2011-09-11T10:48:50.918Z</time>
		<geoidheight>290</geoidheight>
	</trkpt>
	<trkpt lat="50.692611" lon="6.195360">
		<ele>336</ele>
		<time>2011-09-11T10:48:51.916Z</time>
		<geoidheight>290</geoidheight>
	</trkpt>
	<trkpt lat="50.692601" lon="6.195365">
		<ele>336</ele>
		<time>2011-09-11T10:48:52.917Z</time>
		<geoidheight>290</geoidheight>
	</trkpt>
	<trkpt lat="50.692591" lon="6.195371">
		<ele>336</ele>
		<time>2011-09-11T10:48:53.919Z</time>
		<geoidheight>290</geoidheight>
	</trkpt>
	<trkpt lat="50.692581" lon="6.195376">
		<ele>336</ele>
		<time>2011-09-11T10:48:54.918Z</time>
		<geoidheight>290</geoidheight>
	</trkpt>
	<trkpt lat="50.692571" lon="6.195377">
		<ele>336</ele>
		<time>2011-09-11T10:48:55.916Z</time>
		<geoidheight>290</geoidheight>
	</trkpt>
	<trkpt lat="50.692559" lon="6.195375">
		<ele>336</ele>
		<time>2011-09-11T10:48:56.917Z</time>
		<geoidheight>290</geoidheight>
	</trkpt>
	<trkpt lat="50.692547" lon="6.195375">
		<ele>336</ele>
		<time>2011-09-11T10:48:57.917Z</time>
		<geoidheight>290</geoidheight>
	</trkpt>
	<trkpt lat="50.692536" lon="6.195375">
		<ele>336</ele>
		<time>2011-09-11T10:48:58.919Z</time>
		<geoidheight>290</geoidheight>
	</trkpt>
	<trkpt lat="50.692529" lon="6.195374">
		<ele>336</ele>
		<time>2011-09-11T10:48:59.917Z</time>
		<geoidheight>290</geoidheight>
	</trkpt>
	<trkpt lat="50.692522" lon="6.195372">
		<ele>336</ele>
		<time>2011-09-11T10:49:00.919Z</time>
		<geoidheight>290</geoidheight>
	</trkpt>
	<trkpt lat="50.692515" lon="6.195368">
		<ele>336</ele>
		<time>2011-09-11T10:49:01.917Z</time>
		<geoidheight>290</geoidheight>
	</trkpt>
	<trkpt lat="50.692508" lon="6.195365">
		<ele>336</ele>
		<time>2011-09-11T10:49:02.917Z</time>
		<geoidheight>290</geoidheight>
	</trkpt>
	<trkpt lat="50.692502" lon="6.195364">
		<ele>336</ele>
		<time>2011-09-11T10:49:03.918Z</time>
		<geoidheight>290</geoidheight>
	</trkpt>
	<trkpt lat="50.692498" lon="6.195366">
		<ele>336</ele>
		<time>2011-09-11T10:49:04.917Z</time>
		<geoidheight>290</geoidheight>
	</trkpt>
	<trkpt lat="50.692493" lon="6.195369">
		<ele>335</ele>
		<time>2011-09-11T10:49:13.919Z</time>
		<geoidheight>289</geoidheight>
	</trkpt>
	<trkpt lat="50.692490" lon="6.195356">
		<ele>335</ele>
		<time>2011-09-11T10:49:14.915Z</time>
		<geoidheight>289</geoidheight>
	</trkpt>
	<trkpt lat="50.692485" lon="6.195343">
		<ele>335</ele>
		<time>2011-09-11T10:49:15.919Z</time>
		<geoidheight>289</geoidheight>
	</trkpt>
	<trkpt lat="50.692485" lon="6.195334">
		<ele>335</ele>
		<time>2011-09-11T10:49:18.924Z</time>
		<geoidheight>289</geoidheight>
	</trkpt>
	<trkpt lat="50.692480" lon="6.195318">
		<ele>335</ele>
		<time>2011-09-11T10:49:19.921Z</time>
		<geoidheight>289</geoidheight>
	</trkpt>
	<trkpt lat="50.692477" lon="6.195299">
		<ele>335</ele>
		<time>2011-09-11T10:49:20.923Z</time>
		<geoidheight>289</geoidheight>
	</trkpt>
	<trkpt lat="50.692474" lon="6.195281">
		<ele>335</ele>
		<time>2011-09-11T10:49:21.921Z</time>
		<geoidheight>289</geoidheight>
	</trkpt>
	<trkpt lat="50.692472" lon="6.195263">
		<ele>335</ele>
		<time>2011-09-11T10:49:22.916Z</time>
		<geoidheight>289</geoidheight>
	</trkpt>
	<trkpt lat="50.692467" lon="6.195246">
		<ele>335</ele>
		<time>2011-09-11T10:49:23.916Z</time>
		<geoidheight>289</geoidheight>
	</trkpt>
	<trkpt lat="50.692465" lon="6.195228">
		<ele>335</ele>
		<time>2011-09-11T10:49:24.915Z</time>
		<geoidheight>289</geoidheight>
	</trkpt>
	<trkpt lat="50.692464" lon="6.195210">
		<ele>335</ele>
		<time>2011-09-11T10:49:25.916Z</time>
		<geoidheight>289</geoidheight>
	</trkpt>
	<trkpt lat="50.692463" lon="6.195191">
		<ele>335</ele>
		<time>2011-09-11T10:49:26.920Z</time>
		<geoidheight>289</geoidheight>
	</trkpt>
	<trkpt lat="50.692461" lon="6.195174">
		<ele>335</ele>
		<time>2011-09-11T10:49:27.916Z</time>
		<geoidheight>289</geoidheight>
	</trkpt>
	<trkpt lat="50.692458" lon="6.195158">
		<ele>335</ele>
		<time>2011-09-11T10:49:28.923Z</time>
		<geoidheight>289</geoidheight>
	</trkpt>
	<trkpt lat="50.692455" lon="6.195141">
		<ele>335</ele>
		<time>2011-09-11T10:49:29.915Z</time>
		<geoidheight>289</geoidheight>
	</trkpt>
	<trkpt lat="50.692451" lon="6.195124">
		<ele>335</ele>
		<time>2011-09-11T10:49:30.916Z</time>
		<geoidheight>289</geoidheight>
	</trkpt>
	<trkpt lat="50.692445" lon="6.195107">
		<ele>335</ele>
		<time>2011-09-11T10:49:31.922Z</time>
		<geoidheight>289</geoidheight>
	</trkpt>
	<trkpt lat="50.692438" lon="6.195092">
		<ele>335</ele>
		<time>2011-09-11T10:49:32.916Z</time>
		<geoidheight>289</geoidheight>
	</trkpt>
	<trkpt lat="50.692432" lon="6.195078">
		<ele>336</ele>
		<time>2011-09-11T10:49:33.915Z</time>
		<geoidheight>290</geoidheight>
	</trkpt>
	<trkpt lat="50.692423" lon="6.195066">
		<ele>336</ele>
		<time>2011-09-11T10:49:34.925Z</time>
		<geoidheight>290</geoidheight>
	</trkpt>
	<trkpt lat="50.692411" lon="6.195056">
		<ele>336</ele>
		<time>2011-09-11T10:49:35.920Z</time>
		<geoidheight>290</geoidheight>
	</trkpt>
	<trkpt lat="50.692398" lon="6.195047">
		<ele>336</ele>
		<time>2011-09-11T10:49:36.916Z</time>
		<geoidheight>290</geoidheight>
	</trkpt>
	<trkpt lat="50.692384" lon="6.195034">
		<ele>336</ele>
		<time>2011-09-11T10:49:37.933Z</time>
		<geoidheight>290</geoidheight>
	</trkpt>
	<trkpt lat="50.692369" lon="6.195020">
		<ele>336</ele>
		<time>2011-09-11T10:49:38.927Z</time>
		<geoidheight>290</geoidheight>
	</trkpt>
	<trkpt lat="50.692353" lon="6.195006">
		<ele>336</ele>
		<time>2011-09-11T10:49:39.929Z</time>
		<geoidheight>290</geoidheight>
	</trkpt>
	<trkpt lat="50.692340" lon="6.194996">
		<ele>336</ele>
		<time>2011-09-11T10:49:40.928Z</time>
		<geoidheight>290</geoidheight>
	</trkpt>
	<trkpt lat="50.692329" lon="6.194987">
		<ele>336</ele>
		<time>2011-09-11T10:49:41.929Z</time>
		<geoidheight>290</geoidheight>
	</trkpt>
	<trkpt lat="50.692317" lon="6.194979">
		<ele>336</ele>
		<time>2011-09-11T10:49:42.925Z</time>
		<geoidheight>290</geoidheight>
	</trkpt>
	<trkpt lat="50.692306" lon="6.194970">
		<ele>336</ele>
		<time>2011-09-11T10:49:43.927Z</time>
		<geoidheight>290</geoidheight>
	</trkpt>
	<trkpt lat="50.692294" lon="6.194966">
		<ele>336</ele>
		<time>2011-09-11T10:49:44.929Z</time>
		<geoidheight>290</geoidheight>
	</trkpt>
	<trkpt lat="50.692283" lon="6.194965">
		<ele>336</ele>
		<time>2011-09-11T10:49:45.927Z</time>
		<geoidheight>290</geoidheight>
	</trkpt>
	<trkpt lat="50.692272" lon="6.194963">
		<ele>336</ele>
		<time>2011-09-11T10:49:46.928Z</time>
		<geoidheight>290</geoidheight>
	</trkpt>
	<trkpt lat="50.692261" lon="6.194959">
		<ele>336</ele>
		<time>2011-09-11T10:49:47.930Z</time>
		<geoidheight>290</geoidheight>
	</trkpt>
	<trkpt lat="50.692251" lon="6.194961">
		<ele>336</ele>
		<time>2011-09-11T10:49:48.931Z</time>
		<geoidheight>290</geoidheight>
	</trkpt>
	<trkpt lat="50.692240" lon="6.194963">
		<ele>336</ele>
		<time>2011-09-11T10:49:49.925Z</time>
		<geoidheight>290</geoidheight>
	</trkpt>
	<trkpt lat="50.692230" lon="6.194965">
		<ele>336</ele>
		<time>2011-09-11T10:49:50.925Z</time>
		<geoidheight>290</geoidheight>
	</trkpt>
	<trkpt lat="50.692220" lon="6.194970">
		<ele>336</ele>
		<time>2011-09-11T10:49:51.924Z</time>
		<geoidheight>290</geoidheight>
	</trkpt>
	<trkpt lat="50.692209" lon="6.194972">
		<ele>336</ele>
		<time>2011-09-11T10:49:52.924Z</time>
		<geoidheight>290</geoidheight>
	</trkpt>
	<trkpt lat="50.692197" lon="6.194975">
		<ele>336</ele>
		<time>2011-09-11T10:49:53.933Z</time>
		<geoidheight>290</geoidheight>
	</trkpt>
	<trkpt lat="50.692184" lon="6.194979">
		<ele>336</ele>
		<time>2011-09-11T10:49:54.932Z</time>
		<geoidheight>290</geoidheight>
	</trkpt>
	<trkpt lat="50.692172" lon="6.194983">
		<ele>336</ele>
		<time>2011-09-11T10:49:55.928Z</time>
		<geoidheight>290</geoidheight>
	</trkpt>
	<trkpt lat="50.692160" lon="6.194986">
		<ele>336</ele>
		<time>2011-09-11T10:49:56.929Z</time>
		<geoidheight>290</geoidheight>
	</trkpt>
	<trkpt lat="50.692150" lon="6.194991">
		<ele>336</ele>
		<time>2011-09-11T10:49:57.924Z</time>
		<geoidheight>290</geoidheight>
	</trkpt>
	<trkpt lat="50.692141" lon="6.194995">
		<ele>336</ele>
		<time>2011-09-11T10:49:58.928Z</time>
		<geoidheight>290</geoidheight>
	</trkpt>
	<trkpt lat="50.692131" lon="6.194996">
		<ele>336</ele>
		<time>2011-09-11T10:49:59.928Z</time>
		<geoidheight>290</geoidheight>
	</trkpt>
	<trkpt lat="50.692121" lon="6.194998">
		<ele>336</ele>
		<time>2011-09-11T10:50:00.918Z</time>
		<geoidheight>290</geoidheight>
	</trkpt>
	<trkpt lat="50.692110" lon="6.195000">
		<ele>336</ele>
		<time>2011-09-11T10:50:01.918Z</time>
		<geoidheight>290</geoidheight>
	</trkpt>
	<trkpt lat="50.692100" lon="6.195006">
		<ele>336</ele>
		<time>2011-09-11T10:50:02.919Z</time>
		<geoidheight>290</geoidheight>
	</trkpt>
	<trkpt lat="50.692088" lon="6.195012">
		<ele>336</ele>
		<time>2011-09-11T10:50:03.920Z</time>
		<geoidheight>290</geoidheight>
	</trkpt>
	<trkpt lat="50.692077" lon="6.195021">
		<ele>336</ele>
		<time>2011-09-11T10:50:04.918Z</time>
		<geoidheight>290</geoidheight>
	</trkpt>
	<trkpt lat="50.692066" lon="6.195028">
		<ele>336</ele>
		<time>2011-09-11T10:50:05.921Z</time>
		<geoidheight>290</geoidheight>
	</trkpt>
	<trkpt lat="50.692056" lon="6.195034">
		<ele>336</ele>
		<time>2011-09-11T10:50:06.917Z</time>
		<geoidheight>290</geoidheight>
	</trkpt>
	<trkpt lat="50.692046" lon="6.195039">
		<ele>336</ele>
		<time>2011-09-11T10:50:07.929Z</time>
		<geoidheight>290</geoidheight>
	</trkpt>
	<trkpt lat="50.692034" lon="6.195040">
		<ele>336</ele>
		<time>2011-09-11T10:50:08.929Z</time>
		<geoidheight>290</geoidheight>
	</trkpt>
	<trkpt lat="50.692022" lon="6.195040">
		<ele>336</ele>
		<time>2011-09-11T10:50:09.927Z</time>
		<geoidheight>290</geoidheight>
	</trkpt>
	<trkpt lat="50.692009" lon="6.195041">
		<ele>336</ele>
		<time>2011-09-11T10:50:10.928Z</time>
		<geoidheight>290</geoidheight>
	</trkpt>
	<trkpt lat="50.691996" lon="6.195037">
		<ele>336</ele>
		<time>2011-09-11T10:50:11.926Z</time>
		<geoidheight>290</geoidheight>
	</trkpt>
	<trkpt lat="50.691983" lon="6.195037">
		<ele>336</ele>
		<time>2011-09-11T10:50:12.928Z</time>
		<geoidheight>290</geoidheight>
	</trkpt>
	<trkpt lat="50.691971" lon="6.195041">
		<ele>336</ele>
		<time>2011-09-11T10:50:13.931Z</time>
		<geoidheight>290</geoidheight>
	</trkpt>
	<trkpt lat="50.691959" lon="6.195042">
		<ele>336</ele>
		<time>2011-09-11T10:50:14.955Z</time>
		<geoidheight>290</geoidheight>
	</trkpt>
	<trkpt lat="50.691948" lon="6.195045">
		<ele>336</ele>
		<time>2011-09-11T10:50:15.936Z</time>
		<geoidheight>290</geoidheight>
	</trkpt>
	<trkpt lat="50.691937" lon="6.195049">
		<ele>336</ele>
		<time>2011-09-11T10:50:16.926Z</time>
		<geoidheight>290</geoidheight>
	</trkpt>
	<trkpt lat="50.691928" lon="6.195054">
		<ele>336</ele>
		<time>2011-09-11T10:50:17.927Z</time>
		<geoidheight>290</geoidheight>
	</trkpt>
	<trkpt lat="50.691919" lon="6.195059">
		<ele>336</ele>
		<time>2011-09-11T10:50:18.927Z</time>
		<geoidheight>290</geoidheight>
	</trkpt>
	<trkpt lat="50.691910" lon="6.195061">
		<ele>336</ele>
		<time>2011-09-11T10:50:19.931Z</time>
		<geoidheight>290</geoidheight>
	</trkpt>
	<trkpt lat="50.691901" lon="6.195064">
		<ele>336</ele>
		<time>2011-09-11T10:50:20.931Z</time>
		<geoidheight>290</geoidheight>
	</trkpt>
	<trkpt lat="50.691891" lon="6.195065">
		<ele>336</ele>
		<time>2011-09-11T10:50:21.926Z</time>
		<geoidheight>290</geoidheight>
	</trkpt>
	<trkpt lat="50.691880" lon="6.195064">
		<ele>336</ele>
		<time>2011-09-11T10:50:22.923Z</time>
		<geoidheight>290</geoidheight>
	</trkpt>
	<trkpt lat="50.691871" lon="6.195060">
		<ele>336</ele>
		<time>2011-09-11T10:50:23.933Z</time>
		<geoidheight>290</geoidheight>
	</trkpt>
	<trkpt lat="50.691860" lon="6.195059">
		<ele>336</ele>
		<time>2011-09-11T10:50:24.932Z</time>
		<geoidheight>290</geoidheight>
	</trkpt>
	<trkpt lat="50.691850" lon="6.195059">
		<ele>336</ele>
		<time>2011-09-11T10:50:25.925Z</time>
		<geoidheight>290</geoidheight>
	</trkpt>
	<trkpt lat="50.691840" lon="6.195059">
		<ele>336</ele>
		<time>2011-09-11T10:50:26.919Z</time>
		<geoidheight>290</geoidheight>
	</trkpt>
	<trkpt lat="50.691829" lon="6.195059">
		<ele>336</ele>
		<time>2011-09-11T10:50:27.925Z</time>
		<geoidheight>290</geoidheight>
	</trkpt>
	<trkpt lat="50.691819" lon="6.195060">
		<ele>336</ele>
		<time>2011-09-11T10:50:28.926Z</time>
		<geoidheight>290</geoidheight>
	</trkpt>
	<trkpt lat="50.691806" lon="6.195062">
		<ele>336</ele>
		<time>2011-09-11T10:50:29.942Z</time>
		<geoidheight>290</geoidheight>
	</trkpt>
	<trkpt lat="50.691795" lon="6.195068">
		<ele>336</ele>
		<time>2011-09-11T10:50:30.926Z</time>
		<geoidheight>290</geoidheight>
	</trkpt>
	<trkpt lat="50.691784" lon="6.195072">
		<ele>336</ele>
		<time>2011-09-11T10:50:31.930Z</time>
		<geoidheight>290</geoidheight>
	</trkpt>
	<trkpt lat="50.691771" lon="6.195075">
		<ele>336</ele>
		<time>2011-09-11T10:50:32.930Z</time>
		<geoidheight>290</geoidheight>
	</trkpt>
	<trkpt lat="50.691757" lon="6.195079">
		<ele>336</ele>
		<time>2011-09-11T10:50:33.928Z</time>
		<geoidheight>290</geoidheight>
	</trkpt>
	<trkpt lat="50.691743" lon="6.195083">
		<ele>336</ele>
		<time>2011-09-11T10:50:34.938Z</time>
		<geoidheight>290</geoidheight>
	</trkpt>
	<trkpt lat="50.691736" lon="6.195084">
		<ele>336</ele>
		<time>2011-09-11T10:50:35.924Z</time>
		<geoidheight>290</geoidheight>
	</trkpt>
	<trkpt lat="50.691725" lon="6.195085">
		<ele>336</ele>
		<time>2011-09-11T10:50:36.928Z</time>
		<geoidheight>290</geoidheight>
	</trkpt>
	<trkpt lat="50.691713" lon="6.195089">
		<ele>336</ele>
		<time>2011-09-11T10:50:37.930Z</time>
		<geoidheight>290</geoidheight>
	</trkpt>
	<trkpt lat="50.691700" lon="6.195092">
		<ele>336</ele>
		<time>2011-09-11T10:50:38.927Z</time>
		<geoidheight>290</geoidheight>
	</trkpt>
	<trkpt lat="50.691687" lon="6.195097">
		<ele>336</ele>
		<time>2011-09-11T10:50:39.927Z</time>
		<geoidheight>290</geoidheight>
	</trkpt>
	<trkpt lat="50.691675" lon="6.195103">
		<ele>336</ele>
		<time>2011-09-11T10:50:40.927Z</time>
		<geoidheight>290</geoidheight>
	</trkpt>
	<trkpt lat="50.691662" lon="6.195109">
		<ele>336</ele>
		<time>2011-09-11T10:50:41.949Z</time>
		<geoidheight>290</geoidheight>
	</trkpt>
	<trkpt lat="50.691648" lon="6.195115">
		<ele>336</ele>
		<time>2011-09-11T10:50:42.930Z</time>
		<geoidheight>290</geoidheight>
	</trkpt>
	<trkpt lat="50.691635" lon="6.195120">
		<ele>337</ele>
		<time>2011-09-11T10:50:43.925Z</time>
		<geoidheight>291</geoidheight>
	</trkpt>
	<trkpt lat="50.691621" lon="6.195124">
		<ele>337</ele>
		<time>2011-09-11T10:50:44.932Z</time>
		<geoidheight>291</geoidheight>
	</trkpt>
	<trkpt lat="50.691607" lon="6.195127">
		<ele>337</ele>
		<time>2011-09-11T10:50:45.926Z</time>
		<geoidheight>291</geoidheight>
	</trkpt>
	<trkpt lat="50.691593" lon="6.195128">
		<ele>337</ele>
		<time>2011-09-11T10:50:46.926Z</time>
		<geoidheight>291</geoidheight>
	</trkpt>
	<trkpt lat="50.691579" lon="6.195131">
		<ele>337</ele>
		<time>2011-09-11T10:50:47.924Z</time>
		<geoidheight>291</geoidheight>
	</trkpt>
	<trkpt lat="50.691567" lon="6.195133">
		<ele>337</ele>
		<time>2011-09-11T10:50:48.929Z</time>
		<geoidheight>291</geoidheight>
	</trkpt>
	<trkpt lat="50.691554" lon="6.195133">
		<ele>337</ele>
		<time>2011-09-11T10:50:49.931Z</time>
		<geoidheight>291</geoidheight>
	</trkpt>
	<trkpt lat="50.691541" lon="6.195131">
		<ele>337</ele>
		<time>2011-09-11T10:50:50.924Z</time>
		<geoidheight>291</geoidheight>
	</trkpt>
	<trkpt lat="50.691528" lon="6.195124">
		<ele>337</ele>
		<time>2011-09-11T10:50:51.923Z</time>
		<geoidheight>291</geoidheight>
	</trkpt>
	<trkpt lat="50.691516" lon="6.195111">
		<ele>337</ele>
		<time>2011-09-11T10:50:52.924Z</time>
		<geoidheight>291</geoidheight>
	</trkpt>
	<trkpt lat="50.691504" lon="6.195100">
		<ele>337</ele>
		<time>2011-09-11T10:50:53.925Z</time>
		<geoidheight>291</geoidheight>
	</trkpt>
	<trkpt lat="50.691494" lon="6.195095">
		<ele>337</ele>
		<time>2011-09-11T10:50:54.929Z</time>
		<geoidheight>291</geoidheight>
	</trkpt>
	<trkpt lat="50.691487" lon="6.195096">
		<ele>337</ele>
		<time>2011-09-11T10:50:55.924Z</time>
		<geoidheight>291</geoidheight>
	</trkpt>
	<trkpt lat="50.691479" lon="6.195102">
		<ele>337</ele>
		<time>2011-09-11T10:50:56.928Z</time>
		<geoidheight>291</geoidheight>
	</trkpt>
	<trkpt lat="50.691470" lon="6.195109">
		<ele>337</ele>
		<time>2011-09-11T10:50:57.945Z</time>
		<geoidheight>291</geoidheight>
	</trkpt>
	<trkpt lat="50.691460" lon="6.195118">
		<ele>337</ele>
		<time>2011-09-11T10:50:58.927Z</time>
		<geoidheight>291</geoidheight>
	</trkpt>
	<trkpt lat="50.691450" lon="6.195125">
		<ele>338</ele>
		<time>2011-09-11T10:50:59.921Z</time>
		<geoidheight>292</geoidheight>
	</trkpt>
	<trkpt lat="50.691439" lon="6.195132">
		<ele>338</ele>
		<time>2011-09-11T10:51:00.929Z</time>
		<geoidheight>292</geoidheight>
	</trkpt>
	<trkpt lat="50.691427" lon="6.195140">
		<ele>338</ele>
		<time>2011-09-11T10:51:01.924Z</time>
		<geoidheight>292</geoidheight>
	</trkpt>
	<trkpt lat="50.691414" lon="6.195149">
		<ele>338</ele>
		<time>2011-09-11T10:51:02.927Z</time>
		<geoidheight>292</geoidheight>
	</trkpt>
	<trkpt lat="50.691401" lon="6.195159">
		<ele>338</ele>
		<time>2011-09-11T10:51:03.923Z</time>
		<geoidheight>292</geoidheight>
	</trkpt>
	<trkpt lat="50.691389" lon="6.195171">
		<ele>338</ele>
		<time>2011-09-11T10:51:04.925Z</time>
		<geoidheight>292</geoidheight>
	</trkpt>
	<trkpt lat="50.691377" lon="6.195184">
		<ele>338</ele>
		<time>2011-09-11T10:51:05.952Z</time>
		<geoidheight>292</geoidheight>
	</trkpt>
	<trkpt lat="50.691363" lon="6.195191">
		<ele>338</ele>
		<time>2011-09-11T10:51:06.933Z</time>
		<geoidheight>292</geoidheight>
	</trkpt>
	<trkpt lat="50.691348" lon="6.195197">
		<ele>339</ele>
		<time>2011-09-11T10:51:07.930Z</time>
		<geoidheight>293</geoidheight>
	</trkpt>
	<trkpt lat="50.691333" lon="6.195201">
		<ele>339</ele>
		<time>2011-09-11T10:51:08.929Z</time>
		<geoidheight>293</geoidheight>
	</trkpt>
	<trkpt lat="50.691319" lon="6.195205">
		<ele>339</ele>
		<time>2011-09-11T10:51:09.921Z</time>
		<geoidheight>293</geoidheight>
	</trkpt>
	<trkpt lat="50.691305" lon="6.195209">
		<ele>339</ele>
		<time>2011-09-11T10:51:10.934Z</time>
		<geoidheight>293</geoidheight>
	</trkpt>
	<trkpt lat="50.691290" lon="6.195206">
		<ele>339</ele>
		<time>2011-09-11T10:51:11.928Z</time>
		<geoidheight>293</geoidheight>
	</trkpt>
	<trkpt lat="50.691275" lon="6.195201">
		<ele>339</ele>
		<time>2011-09-11T10:51:12.929Z</time>
		<geoidheight>293</geoidheight>
	</trkpt>
	<trkpt lat="50.691258" lon="6.195196">
		<ele>339</ele>
		<time>2011-09-11T10:51:13.926Z</time>
		<geoidheight>293</geoidheight>
	</trkpt>
	<trkpt lat="50.691237" lon="6.195191">
		<ele>340</ele>
		<time>2011-09-11T10:51:14.928Z</time>
		<geoidheight>294</geoidheight>
	</trkpt>
	<trkpt lat="50.691216" lon="6.195187">
		<ele>340</ele>
		<time>2011-09-11T10:51:15.926Z</time>
		<geoidheight>294</geoidheight>
	</trkpt>
	<trkpt lat="50.691196" lon="6.195187">
		<ele>340</ele>
		<time>2011-09-11T10:51:16.931Z</time>
		<geoidheight>294</geoidheight>
	</trkpt>
	<trkpt lat="50.691178" lon="6.195188">
		<ele>340</ele>
		<time>2011-09-11T10:51:17.926Z</time>
		<geoidheight>294</geoidheight>
	</trkpt>
	<trkpt lat="50.691161" lon="6.195190">
		<ele>340</ele>
		<time>2011-09-11T10:51:18.926Z</time>
		<geoidheight>294</geoidheight>
	</trkpt>
	<trkpt lat="50.691145" lon="6.195195">
		<ele>340</ele>
		<time>2011-09-11T10:51:19.929Z</time>
		<geoidheight>294</geoidheight>
	</trkpt>
	<trkpt lat="50.691132" lon="6.195199">
		<ele>340</ele>
		<time>2011-09-11T10:51:20.915Z</time>
		<geoidheight>294</geoidheight>
	</trkpt>
	<trkpt lat="50.691120" lon="6.195205">
		<ele>341</ele>
		<time>2011-09-11T10:51:21.937Z</time>
		<geoidheight>295</geoidheight>
	</trkpt>
	<trkpt lat="50.691108" lon="6.195212">
		<ele>341</ele>
		<time>2011-09-11T10:51:22.926Z</time>
		<geoidheight>295</geoidheight>
	</trkpt>
	<trkpt lat="50.691096" lon="6.195219">
		<ele>341</ele>
		<time>2011-09-11T10:51:23.923Z</time>
		<geoidheight>295</geoidheight>
	</trkpt>
	<trkpt lat="50.691085" lon="6.195228">
		<ele>341</ele>
		<time>2011-09-11T10:51:24.929Z</time>
		<geoidheight>295</geoidheight>
	</trkpt>
	<trkpt lat="50.691075" lon="6.195239">
		<ele>341</ele>
		<time>2011-09-11T10:51:25.930Z</time>
		<geoidheight>295</geoidheight>
	</trkpt>
	<trkpt lat="50.691064" lon="6.195247">
		<ele>341</ele>
		<time>2011-09-11T10:51:26.943Z</time>
		<geoidheight>295</geoidheight>
	</trkpt>
	<trkpt lat="50.691053" lon="6.195252">
		<ele>341</ele>
		<time>2011-09-11T10:51:27.927Z</time>
		<geoidheight>295</geoidheight>
	</trkpt>
	<trkpt lat="50.691043" lon="6.195259">
		<ele>341</ele>
		<time>2011-09-11T10:51:28.926Z</time>
		<geoidheight>295</geoidheight>
	</trkpt>
	<trkpt lat="50.691032" lon="6.195263">
		<ele>342</ele>
		<time>2011-09-11T10:51:29.927Z</time>
		<geoidheight>296</geoidheight>
	</trkpt>
	<trkpt lat="50.691021" lon="6.195270">
		<ele>342</ele>
		<time>2011-09-11T10:51:30.928Z</time>
		<geoidheight>296</geoidheight>
	</trkpt>
	<trkpt lat="50.691011" lon="6.195277">
		<ele>342</ele>
		<time>2011-09-11T10:51:31.926Z</time>
		<geoidheight>296</geoidheight>
	</trkpt>
	<trkpt lat="50.691000" lon="6.195283">
		<ele>342</ele>
		<time>2011-09-11T10:51:32.930Z</time>
		<geoidheight>296</geoidheight>
	</trkpt>
	<trkpt lat="50.690987" lon="6.195287">
		<ele>342</ele>
		<time>2011-09-11T10:51:33.931Z</time>
		<geoidheight>296</geoidheight>
	</trkpt>
	<trkpt lat="50.690973" lon="6.195290">
		<ele>342</ele>
		<time>2011-09-11T10:51:34.933Z</time>
		<geoidheight>296</geoidheight>
	</trkpt>
	<trkpt lat="50.690958" lon="6.195292">
		<ele>342</ele>
		<time>2011-09-11T10:51:35.931Z</time>
		<geoidheight>296</geoidheight>
	</trkpt>
	<trkpt lat="50.690943" lon="6.195295">
		<ele>342</ele>
		<time>2011-09-11T10:51:36.928Z</time>
		<geoidheight>296</geoidheight>
	</trkpt>
	<trkpt lat="50.690928" lon="6.195300">
		<ele>342</ele>
		<time>2011-09-11T10:51:37.926Z</time>
		<geoidheight>296</geoidheight>
	</trkpt>
	<trkpt lat="50.690914" lon="6.195306">
		<ele>342</ele>
		<time>2011-09-11T10:51:38.928Z</time>
		<geoidheight>296</geoidheight>
	</trkpt>
	<trkpt lat="50.690900" lon="6.195310">
		<ele>342</ele>
		<time>2011-09-11T10:51:39.924Z</time>
		<geoidheight>296</geoidheight>
	</trkpt>
	<trkpt lat="50.690886" lon="6.195315">
		<ele>343</ele>
		<time>2011-09-11T10:51:40.927Z</time>
		<geoidheight>297</geoidheight>
	</trkpt>
	<trkpt lat="50.690873" lon="6.195319">
		<ele>343</ele>
		<time>2011-09-11T10:51:41.931Z</time>
		<geoidheight>297</geoidheight>
	</trkpt>
	<trkpt lat="50.690860" lon="6.195324">
		<ele>343</ele>
		<time>2011-09-11T10:51:42.933Z</time>
		<geoidheight>297</geoidheight>
	</trkpt>
	<trkpt lat="50.690847" lon="6.195328">
		<ele>343</ele>
		<time>2011-09-11T10:51:43.936Z</time>
		<geoidheight>297</geoidheight>
	</trkpt>
	<trkpt lat="50.690835" lon="6.195332">
		<ele>343</ele>
		<time>2011-09-11T10:51:44.928Z</time>
		<geoidheight>297</geoidheight>
	</trkpt>
	<trkpt lat="50.690822" lon="6.195337">
		<ele>343</ele>
		<time>2011-09-11T10:51:45.923Z</time>
		<geoidheight>297</geoidheight>
	</trkpt>
	<trkpt lat="50.690810" lon="6.195343">
		<ele>343</ele>
		<time>2011-09-11T10:51:46.924Z</time>
		<geoidheight>297</geoidheight>
	</trkpt>
	<trkpt lat="50.690796" lon="6.195349">
		<ele>343</ele>
		<time>2011-09-11T10:51:47.928Z</time>
		<geoidheight>297</geoidheight>
	</trkpt>
	<trkpt lat="50.690782" lon="6.195353">
		<ele>343</ele>
		<time>2011-09-11T10:51:48.929Z</time>
		<geoidheight>297</geoidheight>
	</trkpt>
	<trkpt lat="50.690767" lon="6.195359">
		<ele>343</ele>
		<time>2011-09-11T10:51:49.928Z</time>
		<geoidheight>297</geoidheight>
	</trkpt>
	<trkpt lat="50.690754" lon="6.195366">
		<ele>343</ele>
		<time>2011-09-11T10:51:50.933Z</time>
		<geoidheight>297</geoidheight>
	</trkpt>
	<trkpt lat="50.690741" lon="6.195369">
		<ele>343</ele>
		<time>2011-09-11T10:51:51.953Z</time>
		<geoidheight>297</geoidheight>
	</trkpt>
	<trkpt lat="50.690729" lon="6.195374">
		<ele>343</ele>
		<time>2011-09-11T10:51:52.936Z</time>
		<geoidheight>297</geoidheight>
	</trkpt>
	<trkpt lat="50.690717" lon="6.195377">
		<ele>343</ele>
		<time>2011-09-11T10:51:53.931Z</time>
		<geoidheight>297</geoidheight>
	</trkpt>
	<trkpt lat="50.690703" lon="6.195379">
		<ele>343</ele>
		<time>2011-09-11T10:51:54.927Z</time>
		<geoidheight>297</geoidheight>
	</trkpt>
	<trkpt lat="50.690689" lon="6.195381">
		<ele>343</ele>
		<time>2011-09-11T10:51:55.924Z</time>
		<geoidheight>297</geoidheight>
	</trkpt>
	<trkpt lat="50.690673" lon="6.195382">
		<ele>343</ele>
		<time>2011-09-11T10:51:56.931Z</time>
		<geoidheight>297</geoidheight>
	</trkpt>
	<trkpt lat="50.690659" lon="6.195385">
		<ele>343</ele>
		<time>2011-09-11T10:51:57.930Z</time>
		<geoidheight>297</geoidheight>
	</trkpt>
	<trkpt lat="50.690645" lon="6.195388">
		<ele>343</ele>
		<time>2011-09-11T10:51:58.922Z</time>
		<geoidheight>297</geoidheight>
	</trkpt>
	<trkpt lat="50.690631" lon="6.195393">
		<ele>343</ele>
		<time>2011-09-11T10:51:59.918Z</time>
		<geoidheight>297</geoidheight>
	</trkpt>
	<trkpt lat="50.690618" lon="6.195396">
		<ele>343</ele>
		<time>2011-09-11T10:52:00.919Z</time>
		<geoidheight>297</geoidheight>
	</trkpt>
	<trkpt lat="50.690605" lon="6.195400">
		<ele>343</ele>
		<time>2011-09-11T10:52:01.920Z</time>
		<geoidheight>297</geoidheight>
	</trkpt>
	<trkpt lat="50.690593" lon="6.195405">
		<ele>343</ele>
		<time>2011-09-11T10:52:02.929Z</time>
		<geoidheight>297</geoidheight>
	</trkpt>
	<trkpt lat="50.690581" lon="6.195410">
		<ele>344</ele>
		<time>2011-09-11T10:52:03.920Z</time>
		<geoidheight>298</geoidheight>
	</trkpt>
	<trkpt lat="50.690569" lon="6.195415">
		<ele>344</ele>
		<time>2011-09-11T10:52:04.921Z</time>
		<geoidheight>298</geoidheight>
	</trkpt>
	<trkpt lat="50.690557" lon="6.195418">
		<ele>344</ele>
		<time>2011-09-11T10:52:05.917Z</time>
		<geoidheight>298</geoidheight>
	</trkpt>
	<trkpt lat="50.690546" lon="6.195422">
		<ele>344</ele>
		<time>2011-09-11T10:52:06.920Z</time>
		<geoidheight>298</geoidheight>
	</trkpt>
	<trkpt lat="50.690534" lon="6.195424">
		<ele>344</ele>
		<time>2011-09-11T10:52:07.920Z</time>
		<geoidheight>298</geoidheight>
	</trkpt>
	<trkpt lat="50.690522" lon="6.195426">
		<ele>344</ele>
		<time>2011-09-11T10:52:08.918Z</time>
		<geoidheight>298</geoidheight>
	</trkpt>
	<trkpt lat="50.690509" lon="6.195428">
		<ele>344</ele>
		<time>2011-09-11T10:52:09.919Z</time>
		<geoidheight>298</geoidheight>
	</trkpt>
	<trkpt lat="50.690496" lon="6.195430">
		<ele>344</ele>
		<time>2011-09-11T10:52:10.920Z</time>
		<geoidheight>298</geoidheight>
	</trkpt>
	<trkpt lat="50.690483" lon="6.195434">
		<ele>344</ele>
		<time>2011-09-11T10:52:11.920Z</time>
		<geoidheight>298</geoidheight>
	</trkpt>
	<trkpt lat="50.690470" lon="6.195438">
		<ele>344</ele>
		<time>2011-09-11T10:52:12.918Z</time>
		<geoidheight>298</geoidheight>
	</trkpt>
	<trkpt lat="50.690458" lon="6.195442">
		<ele>344</ele>
		<time>2011-09-11T10:52:13.921Z</time>
		<geoidheight>298</geoidheight>
	</trkpt>
	<trkpt lat="50.690446" lon="6.195446">
		<ele>344</ele>
		<time>2011-09-11T10:52:14.918Z</time>
		<geoidheight>298</geoidheight>
	</trkpt>
	<trkpt lat="50.690434" lon="6.195449">
		<ele>344</ele>
		<time>2011-09-11T10:52:15.918Z</time>
		<geoidheight>298</geoidheight>
	</trkpt>
	<trkpt lat="50.690422" lon="6.195453">
		<ele>344</ele>
		<time>2011-09-11T10:52:16.928Z</time>
		<geoidheight>298</geoidheight>
	</trkpt>
	<trkpt lat="50.690410" lon="6.195456">
		<ele>344</ele>
		<time>2011-09-11T10:52:17.926Z</time>
		<geoidheight>298</geoidheight>
	</trkpt>
	<trkpt lat="50.690398" lon="6.195459">
		<ele>344</ele>
		<time>2011-09-11T10:52:18.932Z</time>
		<geoidheight>298</geoidheight>
	</trkpt>
	<trkpt lat="50.690385" lon="6.195459">
		<ele>344</ele>
		<time>2011-09-11T10:52:19.927Z</time>
		<geoidheight>298</geoidheight>
	</trkpt>
	<trkpt lat="50.690372" lon="6.195461">
		<ele>344</ele>
		<time>2011-09-11T10:52:20.933Z</time>
		<geoidheight>298</geoidheight>
	</trkpt>
	<trkpt lat="50.690359" lon="6.195462">
		<ele>345</ele>
		<time>2011-09-11T10:52:21.931Z</time>
		<geoidheight>299</geoidheight>
	</trkpt>
	<trkpt lat="50.690348" lon="6.195463">
		<ele>345</ele>
		<time>2011-09-11T10:52:22.932Z</time>
		<geoidheight>299</geoidheight>
	</trkpt>
	<trkpt lat="50.690337" lon="6.195463">
		<ele>345</ele>
		<time>2011-09-11T10:52:23.930Z</time>
		<geoidheight>299</geoidheight>
	</trkpt>
	<trkpt lat="50.690325" lon="6.195463">
		<ele>345</ele>
		<time>2011-09-11T10:52:24.919Z</time>
		<geoidheight>299</geoidheight>
	</trkpt>
	<trkpt lat="50.690313" lon="6.195463">
		<ele>345</ele>
		<time>2011-09-11T10:52:25.919Z</time>
		<geoidheight>299</geoidheight>
	</trkpt>
	<trkpt lat="50.690303" lon="6.195466">
		<ele>345</ele>
		<time>2011-09-11T10:52:26.920Z</time>
		<geoidheight>299</geoidheight>
	</trkpt>
	<trkpt lat="50.690292" lon="6.195468">
		<ele>345</ele>
		<time>2011-09-11T10:52:27.918Z</time>
		<geoidheight>299</geoidheight>
	</trkpt>
	<trkpt lat="50.690282" lon="6.195470">
		<ele>345</ele>
		<time>2011-09-11T10:52:28.919Z</time>
		<geoidheight>299</geoidheight>
	</trkpt>
	<trkpt lat="50.690271" lon="6.195472">
		<ele>345</ele>
		<time>2011-09-11T10:52:29.921Z</time>
		<geoidheight>299</geoidheight>
	</trkpt>
	<trkpt lat="50.690260" lon="6.195473">
		<ele>345</ele>
		<time>2011-09-11T10:52:30.928Z</time>
		<geoidheight>299</geoidheight>
	</trkpt>
	<trkpt lat="50.690248" lon="6.195473">
		<ele>346</ele>
		<time>2011-09-11T10:52:31.930Z</time>
		<geoidheight>300</geoidheight>
	</trkpt>
	<trkpt lat="50.690236" lon="6.195473">
		<ele>346</ele>
		<time>2011-09-11T10:52:32.928Z</time>
		<geoidheight>300</geoidheight>
	</trkpt>
	<trkpt lat="50.690225" lon="6.195473">
		<ele>346</ele>
		<time>2011-09-11T10:52:33.933Z</time>
		<geoidheight>300</geoidheight>
	</trkpt>
	<trkpt lat="50.690214" lon="6.195474">
		<ele>346</ele>
		<time>2011-09-11T10:52:34.927Z</time>
		<geoidheight>300</geoidheight>
	</trkpt>
	<trkpt lat="50.690202" lon="6.195475">
		<ele>346</ele>
		<time>2011-09-11T10:52:35.926Z</time>
		<geoidheight>300</geoidheight>
	</trkpt>
	<trkpt lat="50.690191" lon="6.195475">
		<ele>346</ele>
		<time>2011-09-11T10:52:36.926Z</time>
		<geoidheight>300</geoidheight>
	</trkpt>
	<trkpt lat="50.690179" lon="6.195475">
		<ele>346</ele>
		<time>2011-09-11T10:52:37.937Z</time>
		<geoidheight>300</geoidheight>
	</trkpt>
	<trkpt lat="50.690168" lon="6.195476">
		<ele>346</ele>
		<time>2011-09-11T10:52:38.930Z</time>
		<geoidheight>300</geoidheight>
	</trkpt>
	<trkpt lat="50.690156" lon="6.195477">
		<ele>347</ele>
		<time>2011-09-11T10:52:39.931Z</time>
		<geoidheight>301</geoidheight>
	</trkpt>
	<trkpt lat="50.690146" lon="6.195477">
		<ele>347</ele>
		<time>2011-09-11T10:52:40.931Z</time>
		<geoidheight>301</geoidheight>
	</trkpt>
	<trkpt lat="50.690135" lon="6.195478">
		<ele>347</ele>
		<time>2011-09-11T10:52:41.927Z</time>
		<geoidheight>301</geoidheight>
	</trkpt>
	<trkpt lat="50.690125" lon="6.195480">
		<ele>347</ele>
		<time>2011-09-11T10:52:42.930Z</time>
		<geoidheight>301</geoidheight>
	</trkpt>
	<trkpt lat="50.690115" lon="6.195482">
		<ele>347</ele>
		<time>2011-09-11T10:52:43.933Z</time>
		<geoidheight>301</geoidheight>
	</trkpt>
	<trkpt lat="50.690107" lon="6.195488">
		<ele>347</ele>
		<time>2011-09-11T10:52:44.930Z</time>
		<geoidheight>301</geoidheight>
	</trkpt>
	<trkpt lat="50.690107" lon="6.195488">
		<ele>347</ele>
		<time>2011-09-11T10:52:45.919Z</time>
		<geoidheight>301</geoidheight>
	</trkpt>
	<trkpt lat="50.690107" lon="6.195488">
		<ele>347</ele>
		<time>2011-09-11T10:52:46.931Z</time>
		<geoidheight>301</geoidheight>
	</trkpt>
	<trkpt lat="50.690107" lon="6.195488">
		<ele>348</ele>
		<time>2011-09-11T10:52:47.933Z</time>
		<geoidheight>302</geoidheight>
	</trkpt>
	<trkpt lat="50.690107" lon="6.195488">
		<ele>348</ele>
		<time>2011-09-11T10:52:50.929Z</time>
		<geoidheight>302</geoidheight>
	</trkpt>
	<trkpt lat="50.690063" lon="6.195503">
		<ele>348</ele>
		<time>2011-09-11T10:52:51.927Z</time>
		<geoidheight>302</geoidheight>
	</trkpt>
	<trkpt lat="50.690052" lon="6.195505">
		<ele>348</ele>
		<time>2011-09-11T10:52:52.928Z</time>
		<geoidheight>302</geoidheight>
	</trkpt>
	<trkpt lat="50.690041" lon="6.195507">
		<ele>348</ele>
		<time>2011-09-11T10:52:53.927Z</time>
		<geoidheight>302</geoidheight>
	</trkpt>
	<trkpt lat="50.690029" lon="6.195511">
		<ele>348</ele>
		<time>2011-09-11T10:52:54.929Z</time>
		<geoidheight>302</geoidheight>
	</trkpt>
	<trkpt lat="50.690019" lon="6.195517">
		<ele>349</ele>
		<time>2011-09-11T10:52:55.936Z</time>
		<geoidheight>303</geoidheight>
	</trkpt>
	<trkpt lat="50.690019" lon="6.195517">
		<ele>349</ele>
		<time>2011-09-11T10:52:58.929Z</time>
		<geoidheight>303</geoidheight>
	</trkpt>
	<trkpt lat="50.689976" lon="6.195538">
		<ele>349</ele>
		<time>2011-09-11T10:52:59.930Z</time>
		<geoidheight>303</geoidheight>
	</trkpt>
	<trkpt lat="50.689965" lon="6.195540">
		<ele>349</ele>
		<time>2011-09-11T10:53:00.927Z</time>
		<geoidheight>303</geoidheight>
	</trkpt>
	<trkpt lat="50.689954" lon="6.195543">
		<ele>349</ele>
		<time>2011-09-11T10:53:01.929Z</time>
		<geoidheight>303</geoidheight>
	</trkpt>
	<trkpt lat="50.689942" lon="6.195543">
		<ele>349</ele>
		<time>2011-09-11T10:53:02.933Z</time>
		<geoidheight>303</geoidheight>
	</trkpt>
	<trkpt lat="50.689929" lon="6.195541">
		<ele>350</ele>
		<time>2011-09-11T10:53:03.935Z</time>
		<geoidheight>304</geoidheight>
	</trkpt>
	<trkpt lat="50.689915" lon="6.195537">
		<ele>350</ele>
		<time>2011-09-11T10:53:04.938Z</time>
		<geoidheight>304</geoidheight>
	</trkpt>
	<trkpt lat="50.689903" lon="6.195530">
		<ele>350</ele>
		<time>2011-09-11T10:53:05.932Z</time>
		<geoidheight>304</geoidheight>
	</trkpt>
	<trkpt lat="50.689892" lon="6.195521">
		<ele>350</ele>
		<time>2011-09-11T10:53:06.926Z</time>
		<geoidheight>304</geoidheight>
	</trkpt>
	<trkpt lat="50.689881" lon="6.195513">
		<ele>350</ele>
		<time>2011-09-11T10:53:07.930Z</time>
		<geoidheight>304</geoidheight>
	</trkpt>
	<trkpt lat="50.689881" lon="6.195513">
		<ele>350</ele>
		<time>2011-09-11T10:53:08.954Z</time>
		<geoidheight>304</geoidheight>
	</trkpt>
	<trkpt lat="50.689858" lon="6.195501">
		<ele>351</ele>
		<time>2011-09-11T10:53:09.929Z</time>
		<geoidheight>305</geoidheight>
	</trkpt>
	<trkpt lat="50.689847" lon="6.195497">
		<ele>351</ele>
		<time>2011-09-11T10:53:10.933Z</time>
		<geoidheight>305</geoidheight>
	</trkpt>
	<trkpt lat="50.689837" lon="6.195495">
		<ele>351</ele>
		<time>2011-09-11T10:53:11.918Z</time>
		<geoidheight>305</geoidheight>
	</trkpt>
	<trkpt lat="50.689837" lon="6.195495">
		<ele>351</ele>
		<time>2011-09-11T10:53:12.920Z</time>
		<geoidheight>305</geoidheight>
	</trkpt>
	<trkpt lat="50.689837" lon="6.195495">
		<ele>351</ele>
		<time>2011-09-11T10:53:13.920Z</time>
		<geoidheight>305</geoidheight>
	</trkpt>
	<trkpt lat="50.689837" lon="6.195495">
		<ele>351</ele>
		<time>2011-09-11T10:53:14.921Z</time>
		<geoidheight>305</geoidheight>
	</trkpt>
	<trkpt lat="50.689788" lon="6.195482">
		<ele>352</ele>
		<time>2011-09-11T10:53:15.919Z</time>
		<geoidheight>306</geoidheight>
	</trkpt>
	<trkpt lat="50.689788" lon="6.195482">
		<ele>352</ele>
		<time>2011-09-11T10:53:16.924Z</time>
		<geoidheight>306</geoidheight>
	</trkpt>
	<trkpt lat="50.689749" lon="6.195470">
		<ele>352</ele>
		<time>2011-09-11T10:53:17.920Z</time>
		<geoidheight>306</geoidheight>
	</trkpt>
	<trkpt lat="50.689749" lon="6.195470">
		<ele>352</ele>
		<time>2011-09-11T10:53:19.921Z</time>
		<geoidheight>306</geoidheight>
	</trkpt>
	<trkpt lat="50.689749" lon="6.195470">
		<ele>352</ele>
		<time>2011-09-11T10:53:20.920Z</time>
		<geoidheight>306</geoidheight>
	</trkpt>
	<trkpt lat="50.689698" lon="6.195453">
		<ele>352</ele>
		<time>2011-09-11T10:53:21.946Z</time>
		<geoidheight>306</geoidheight>
	</trkpt>
	<trkpt lat="50.689698" lon="6.195453">
		<ele>352</ele>
		<time>2011-09-11T10:53:22.930Z</time>
		<geoidheight>306</geoidheight>
	</trkpt>
	<trkpt lat="50.689698" lon="6.195453">
		<ele>352</ele>
		<time>2011-09-11T10:53:23.937Z</time>
		<geoidheight>306</geoidheight>
	</trkpt>
	<trkpt lat="50.689698" lon="6.195453">
		<ele>352</ele>
		<time>2011-09-11T10:53:24.936Z</time>
		<geoidheight>306</geoidheight>
	</trkpt>
	<trkpt lat="50.689698" lon="6.195453">
		<ele>353</ele>
		<time>2011-09-11T10:53:25.930Z</time>
		<geoidheight>307</geoidheight>
	</trkpt>
	<trkpt lat="50.689642" lon="6.195458">
		<ele>353</ele>
		<time>2011-09-11T10:53:26.934Z</time>
		<geoidheight>307</geoidheight>
	</trkpt>
	<trkpt lat="50.689642" lon="6.195458">
		<ele>353</ele>
		<time>2011-09-11T10:53:29.920Z</time>
		<geoidheight>307</geoidheight>
	</trkpt>
	<trkpt lat="50.689603" lon="6.195462">
		<ele>353</ele>
		<time>2011-09-11T10:53:30.919Z</time>
		<geoidheight>307</geoidheight>
	</trkpt>
	<trkpt lat="50.689585" lon="6.195468">
		<ele>353</ele>
		<time>2011-09-11T10:53:31.919Z</time>
		<geoidheight>307</geoidheight>
	</trkpt>
	<trkpt lat="50.689566" lon="6.195473">
		<ele>353</ele>
		<time>2011-09-11T10:53:32.920Z</time>
		<geoidheight>307</geoidheight>
	</trkpt>
	<trkpt lat="50.689547" lon="6.195479">
		<ele>353</ele>
		<time>2011-09-11T10:53:33.919Z</time>
		<geoidheight>307</geoidheight>
	</trkpt>
	<trkpt lat="50.689530" lon="6.195484">
		<ele>354</ele>
		<time>2011-09-11T10:53:34.920Z</time>
		<geoidheight>308</geoidheight>
	</trkpt>
	<trkpt lat="50.689514" lon="6.195486">
		<ele>354</ele>
		<time>2011-09-11T10:53:35.922Z</time>
		<geoidheight>308</geoidheight>
	</trkpt>
	<trkpt lat="50.689514" lon="6.195486">
		<ele>354</ele>
		<time>2011-09-11T10:53:36.933Z</time>
		<geoidheight>308</geoidheight>
	</trkpt>
	<trkpt lat="50.689514" lon="6.195486">
		<ele>354</ele>
		<time>2011-09-11T10:53:37.918Z</time>
		<geoidheight>308</geoidheight>
	</trkpt>
	<trkpt lat="50.689474" lon="6.195489">
		<ele>354</ele>
		<time>2011-09-11T10:53:38.921Z</time>
		<geoidheight>308</geoidheight>
	</trkpt>
	<trkpt lat="50.689464" lon="6.195490">
		<ele>354</ele>
		<time>2011-09-11T10:53:39.918Z</time>
		<geoidheight>308</geoidheight>
	</trkpt>
	<trkpt lat="50.689451" lon="6.195498">
		<ele>355</ele>
		<time>2011-09-11T10:53:40.921Z</time>
		<geoidheight>309</geoidheight>
	</trkpt>
	<trkpt lat="50.689437" lon="6.195508">
		<ele>355</ele>
		<time>2011-09-11T10:53:41.938Z</time>
		<geoidheight>309</geoidheight>
	</trkpt>
	<trkpt lat="50.689422" lon="6.195516">
		<ele>355</ele>
		<time>2011-09-11T10:53:42.932Z</time>
		<geoidheight>309</geoidheight>
	</trkpt>
	<trkpt lat="50.689405" lon="6.195522">
		<ele>355</ele>
		<time>2011-09-11T10:53:43.928Z</time>
		<geoidheight>309</geoidheight>
	</trkpt>
	<trkpt lat="50.689390" lon="6.195527">
		<ele>356</ele>
		<time>2011-09-11T10:53:44.930Z</time>
		<geoidheight>310</geoidheight>
	</trkpt>
	<trkpt lat="50.689375" lon="6.195533">
		<ele>356</ele>
		<time>2011-09-11T10:53:45.917Z</time>
		<geoidheight>310</geoidheight>
	</trkpt>
	<trkpt lat="50.689375" lon="6.195533">
		<ele>356</ele>
		<time>2011-09-11T10:53:46.930Z</time>
		<geoidheight>310</geoidheight>
	</trkpt>
	<trkpt lat="50.689375" lon="6.195533">
		<ele>356</ele>
		<time>2011-09-11T10:53:47.929Z</time>
		<geoidheight>310</geoidheight>
	</trkpt>
	<trkpt lat="50.689375" lon="6.195533">
		<ele>356</ele>
		<time>2011-09-11T10:53:48.921Z</time>
		<geoidheight>310</geoidheight>
	</trkpt>
	<trkpt lat="50.689325" lon="6.195563">
		<ele>357</ele>
		<time>2011-09-11T10:53:49.920Z</time>
		<geoidheight>311</geoidheight>
	</trkpt>
	<trkpt lat="50.689325" lon="6.195563">
		<ele>357</ele>
		<time>2011-09-11T10:53:52.923Z</time>
		<geoidheight>311</geoidheight>
	</trkpt>
	<trkpt lat="50.689325" lon="6.195563">
		<ele>357</ele>
		<time>2011-09-11T10:53:53.926Z</time>
		<geoidheight>311</geoidheight>
	</trkpt>
	<trkpt lat="50.689325" lon="6.195563">
		<ele>357</ele>
		<time>2011-09-11T10:53:54.919Z</time>
		<geoidheight>311</geoidheight>
	</trkpt>
	<trkpt lat="50.689275" lon="6.195598">
		<ele>358</ele>
		<time>2011-09-11T10:53:55.920Z</time>
		<geoidheight>312</geoidheight>
	</trkpt>
	<trkpt lat="50.689275" lon="6.195598">
		<ele>358</ele>
		<time>2011-09-11T10:53:57.920Z</time>
		<geoidheight>312</geoidheight>
	</trkpt>
	<trkpt lat="50.689275" lon="6.195598">
		<ele>358</ele>
		<time>2011-09-11T10:53:58.930Z</time>
		<geoidheight>312</geoidheight>
	</trkpt>
	<trkpt lat="50.689231" lon="6.195635">
		<ele>358</ele>
		<time>2011-09-11T10:53:59.922Z</time>
		<geoidheight>312</geoidheight>
	</trkpt>
	<trkpt lat="50.689217" lon="6.195648">
		<ele>359</ele>
		<time>2011-09-11T10:54:00.929Z</time>
		<geoidheight>313</geoidheight>
	</trkpt>
	<trkpt lat="50.689202" lon="6.195661">
		<ele>359</ele>
		<time>2011-09-11T10:54:01.931Z</time>
		<geoidheight>313</geoidheight>
	</trkpt>
	<trkpt lat="50.689187" lon="6.195671">
		<ele>359</ele>
		<time>2011-09-11T10:54:02.920Z</time>
		<geoidheight>313</geoidheight>
	</trkpt>
	<trkpt lat="50.689174" lon="6.195681">
		<ele>359</ele>
		<time>2011-09-11T10:54:03.928Z</time>
		<geoidheight>313</geoidheight>
	</trkpt>
	<trkpt lat="50.689162" lon="6.195688">
		<ele>360</ele>
		<time>2011-09-11T10:54:04.930Z</time>
		<geoidheight>314</geoidheight>
	</trkpt>
	<trkpt lat="50.689149" lon="6.195693">
		<ele>360</ele>
		<time>2011-09-11T10:54:05.929Z</time>
		<geoidheight>314</geoidheight>
	</trkpt>
	<trkpt lat="50.689136" lon="6.195698">
		<ele>360</ele>
		<time>2011-09-11T10:54:06.927Z</time>
		<geoidheight>314</geoidheight>
	</trkpt>
	<trkpt lat="50.689124" lon="6.195703">
		<ele>360</ele>
		<time>2011-09-11T10:54:07.919Z</time>
		<geoidheight>314</geoidheight>
	</trkpt>
	<trkpt lat="50.689124" lon="6.195703">
		<ele>361</ele>
		<time>2011-09-11T10:54:08.920Z</time>
		<geoidheight>315</geoidheight>
	</trkpt>
	<trkpt lat="50.689124" lon="6.195703">
		<ele>361</ele>
		<time>2011-09-11T10:54:10.920Z</time>
		<geoidheight>315</geoidheight>
	</trkpt>
	<trkpt lat="50.689080" lon="6.195726">
		<ele>361</ele>
		<time>2011-09-11T10:54:11.938Z</time>
		<geoidheight>315</geoidheight>
	</trkpt>
	<trkpt lat="50.689069" lon="6.195730">
		<ele>361</ele>
		<time>2011-09-11T10:54:12.922Z</time>
		<geoidheight>315</geoidheight>
	</trkpt>
	<trkpt lat="50.689058" lon="6.195734">
		<ele>362</ele>
		<time>2011-09-11T10:54:13.919Z</time>
		<geoidheight>316</geoidheight>
	</trkpt>
	<trkpt lat="50.689047" lon="6.195736">
		<ele>362</ele>
		<time>2011-09-11T10:54:14.920Z</time>
		<geoidheight>316</geoidheight>
	</trkpt>
	<trkpt lat="50.689035" lon="6.195738">
		<ele>362</ele>
		<time>2011-09-11T10:54:15.918Z</time>
		<geoidheight>316</geoidheight>
	</trkpt>
	<trkpt lat="50.689023" lon="6.195740">
		<ele>362</ele>
		<time>2011-09-11T10:54:16.922Z</time>
		<geoidheight>316</geoidheight>
	</trkpt>
	<trkpt lat="50.689023" lon="6.195740">
		<ele>362</ele>
		<time>2011-09-11T10:54:17.921Z</time>
		<geoidheight>316</geoidheight>
	</trkpt>
	<trkpt lat="50.689023" lon="6.195740">
		<ele>363</ele>
		<time>2011-09-11T10:54:18.927Z</time>
		<geoidheight>317</geoidheight>
	</trkpt>
	<trkpt lat="50.689023" lon="6.195740">
		<ele>363</ele>
		<time>2011-09-11T10:54:19.931Z</time>
		<geoidheight>317</geoidheight>
	</trkpt>
	<trkpt lat="50.689023" lon="6.195740">
		<ele>363</ele>
		<time>2011-09-11T10:54:20.931Z</time>
		<geoidheight>317</geoidheight>
	</trkpt>
	<trkpt lat="50.688967" lon="6.195743">
		<ele>363</ele>
		<time>2011-09-11T10:54:21.927Z</time>
		<geoidheight>317</geoidheight>
	</trkpt>
	<trkpt lat="50.688967" lon="6.195743">
		<ele>363</ele>
		<time>2011-09-11T10:54:22.928Z</time>
		<geoidheight>317</geoidheight>
	</trkpt>
	<trkpt lat="50.688940" lon="6.195740">
		<ele>364</ele>
		<time>2011-09-11T10:54:23.931Z</time>
		<geoidheight>318</geoidheight>
	</trkpt>
	<trkpt lat="50.688940" lon="6.195740">
		<ele>364</ele>
		<time>2011-09-11T10:54:24.945Z</time>
		<geoidheight>318</geoidheight>
	</trkpt>
	<trkpt lat="50.688940" lon="6.195740">
		<ele>364</ele>
		<time>2011-09-11T10:54:25.924Z</time>
		<geoidheight>318</geoidheight>
	</trkpt>
	<trkpt lat="50.688940" lon="6.195740">
		<ele>364</ele>
		<time>2011-09-11T10:54:26.925Z</time>
		<geoidheight>318</geoidheight>
	</trkpt>
	<trkpt lat="50.688940" lon="6.195740">
		<ele>364</ele>
		<time>2011-09-11T10:54:27.921Z</time>
		<geoidheight>318</geoidheight>
	</trkpt>
	<trkpt lat="50.688893" lon="6.195744">
		<ele>364</ele>
		<time>2011-09-11T10:54:28.922Z</time>
		<geoidheight>318</geoidheight>
	</trkpt>
	<trkpt lat="50.688893" lon="6.195744">
		<ele>364</ele>
		<time>2011-09-11T10:54:29.919Z</time>
		<geoidheight>318</geoidheight>
	</trkpt>
	<trkpt lat="50.688893" lon="6.195744">
		<ele>365</ele>
		<time>2011-09-11T10:54:30.919Z</time>
		<geoidheight>319</geoidheight>
	</trkpt>
	<trkpt lat="50.688893" lon="6.195744">
		<ele>365</ele>
		<time>2011-09-11T10:54:31.922Z</time>
		<geoidheight>319</geoidheight>
	</trkpt>
	<trkpt lat="50.688893" lon="6.195744">
		<ele>365</ele>
		<time>2011-09-11T10:54:32.919Z</time>
		<geoidheight>319</geoidheight>
	</trkpt>
	<trkpt lat="50.688893" lon="6.195744">
		<ele>365</ele>
		<time>2011-09-11T10:54:33.924Z</time>
		<geoidheight>319</geoidheight>
	</trkpt>
	<trkpt lat="50.688893" lon="6.195744">
		<ele>365</ele>
		<time>2011-09-11T10:54:34.922Z</time>
		<geoidheight>319</geoidheight>
	</trkpt>
	<trkpt lat="50.688842" lon="6.195755">
		<ele>366</ele>
		<time>2011-09-11T10:54:35.924Z</time>
		<geoidheight>320</geoidheight>
	</trkpt>
	<trkpt lat="50.688842" lon="6.195755">
		<ele>366</ele>
		<time>2011-09-11T10:54:36.922Z</time>
		<geoidheight>320</geoidheight>
	</trkpt>
	<trkpt lat="50.688807" lon="6.195755">
		<ele>366</ele>
		<time>2011-09-11T10:54:37.921Z</time>
		<geoidheight>320</geoidheight>
	</trkpt>
	<trkpt lat="50.688794" lon="6.195754">
		<ele>366</ele>
		<time>2011-09-11T10:54:38.920Z</time>
		<geoidheight>320</geoidheight>
	</trkpt>
	<trkpt lat="50.688783" lon="6.195748">
		<ele>366</ele>
		<time>2011-09-11T10:54:39.939Z</time>
		<geoidheight>320</geoidheight>
	</trkpt>
	<trkpt lat="50.688771" lon="6.195747">
		<ele>367</ele>
		<time>2011-09-11T10:54:40.921Z</time>
		<geoidheight>321</geoidheight>
	</trkpt>
	<trkpt lat="50.688759" lon="6.195749">
		<ele>367</ele>
		<time>2011-09-11T10:54:41.919Z</time>
		<geoidheight>321</geoidheight>
	</trkpt>
	<trkpt lat="50.688746" lon="6.195749">
		<ele>367</ele>
		<time>2011-09-11T10:54:42.920Z</time>
		<geoidheight>321</geoidheight>
	</trkpt>
	<trkpt lat="50.688734" lon="6.195752">
		<ele>367</ele>
		<time>2011-09-11T10:54:43.921Z</time>
		<geoidheight>321</geoidheight>
	</trkpt>
	<trkpt lat="50.688720" lon="6.195767">
		<ele>367</ele>
		<time>2011-09-11T10:54:44.920Z</time>
		<geoidheight>321</geoidheight>
	</trkpt>
	<trkpt lat="50.688707" lon="6.195772">
		<ele>367</ele>
		<time>2011-09-11T10:54:45.917Z</time>
		<geoidheight>321</geoidheight>
	</trkpt>
	<trkpt lat="50.688694" lon="6.195778">
		<ele>368</ele>
		<time>2011-09-11T10:54:46.929Z</time>
		<geoidheight>322</geoidheight>
	</trkpt>
	<trkpt lat="50.688684" lon="6.195787">
		<ele>368</ele>
		<time>2011-09-11T10:54:47.929Z</time>
		<geoidheight>322</geoidheight>
	</trkpt>
	<trkpt lat="50.688672" lon="6.195797">
		<ele>368</ele>
		<time>2011-09-11T10:54:48.931Z</time>
		<geoidheight>322</geoidheight>
	</trkpt>
	<trkpt lat="50.688658" lon="6.195812">
		<ele>368</ele>
		<time>2011-09-11T10:54:49.931Z</time>
		<geoidheight>322</geoidheight>
	</trkpt>
	<trkpt lat="50.688641" lon="6.195827">
		<ele>368</ele>
		<time>2011-09-11T10:54:50.933Z</time>
		<geoidheight>322</geoidheight>
	</trkpt>
	<trkpt lat="50.688625" lon="6.195834">
		<ele>369</ele>
		<time>2011-09-11T10:54:51.937Z</time>
		<geoidheight>323</geoidheight>
	</trkpt>
	<trkpt lat="50.688610" lon="6.195834">
		<ele>369</ele>
		<time>2011-09-11T10:54:52.921Z</time>
		<geoidheight>323</geoidheight>
	</trkpt>
	<trkpt lat="50.688595" lon="6.195838">
		<ele>369</ele>
		<time>2011-09-11T10:54:53.919Z</time>
		<geoidheight>323</geoidheight>
	</trkpt>
	<trkpt lat="50.688595" lon="6.195838">
		<ele>369</ele>
		<time>2011-09-11T10:54:54.920Z</time>
		<geoidheight>323</geoidheight>
	</trkpt>
	<trkpt lat="50.688576" lon="6.195843">
		<ele>369</ele>
		<time>2011-09-11T10:54:55.919Z</time>
		<geoidheight>323</geoidheight>
	</trkpt>
	<trkpt lat="50.688563" lon="6.195845">
		<ele>369</ele>
		<time>2011-09-11T10:54:56.921Z</time>
		<geoidheight>323</geoidheight>
	</trkpt>
	<trkpt lat="50.688547" lon="6.195844">
		<ele>369</ele>
		<time>2011-09-11T10:54:57.927Z</time>
		<geoidheight>323</geoidheight>
	</trkpt>
	<trkpt lat="50.688528" lon="6.195846">
		<ele>370</ele>
		<time>2011-09-11T10:54:58.919Z</time>
		<geoidheight>324</geoidheight>
	</trkpt>
	<trkpt lat="50.688528" lon="6.195846">
		<ele>370</ele>
		<time>2011-09-11T10:55:00.920Z</time>
		<geoidheight>324</geoidheight>
	</trkpt>
	<trkpt lat="50.688492" lon="6.195846">
		<ele>370</ele>
		<time>2011-09-11T10:55:01.922Z</time>
		<geoidheight>324</geoidheight>
	</trkpt>
	<trkpt lat="50.688479" lon="6.195843">
		<ele>370</ele>
		<time>2011-09-11T10:55:02.929Z</time>
		<geoidheight>324</geoidheight>
	</trkpt>
	<trkpt lat="50.688458" lon="6.195837">
		<ele>370</ele>
		<time>2011-09-11T10:55:03.933Z</time>
		<geoidheight>324</geoidheight>
	</trkpt>
	<trkpt lat="50.688439" lon="6.195833">
		<ele>370</ele>
		<time>2011-09-11T10:55:04.928Z</time>
		<geoidheight>324</geoidheight>
	</trkpt>
	<trkpt lat="50.688439" lon="6.195833">
		<ele>370</ele>
		<time>2011-09-11T10:55:05.937Z</time>
		<geoidheight>324</geoidheight>
	</trkpt>
	<trkpt lat="50.688439" lon="6.195833">
		<ele>370</ele>
		<time>2011-09-11T10:55:06.923Z</time>
		<geoidheight>324</geoidheight>
	</trkpt>
	<trkpt lat="50.688394" lon="6.195818">
		<ele>371</ele>
		<time>2011-09-11T10:55:07.929Z</time>
		<geoidheight>325</geoidheight>
	</trkpt>
	<trkpt lat="50.688380" lon="6.195814">
		<ele>371</ele>
		<time>2011-09-11T10:55:08.932Z</time>
		<geoidheight>325</geoidheight>
	</trkpt>
	<trkpt lat="50.688365" lon="6.195811">
		<ele>371</ele>
		<time>2011-09-11T10:55:09.921Z</time>
		<geoidheight>325</geoidheight>
	</trkpt>
	<trkpt lat="50.688348" lon="6.195810">
		<ele>371</ele>
		<time>2011-09-11T10:55:10.920Z</time>
		<geoidheight>325</geoidheight>
	</trkpt>
	<trkpt lat="50.688348" lon="6.195810">
		<ele>371</ele>
		<time>2011-09-11T10:55:11.924Z</time>
		<geoidheight>325</geoidheight>
	</trkpt>
	<trkpt lat="50.688348" lon="6.195810">
		<ele>371</ele>
		<time>2011-09-11T10:55:12.920Z</time>
		<geoidheight>325</geoidheight>
	</trkpt>
	<trkpt lat="50.688318" lon="6.195815">
		<ele>371</ele>
		<time>2011-09-11T10:55:13.921Z</time>
		<geoidheight>325</geoidheight>
	</trkpt>
	<trkpt lat="50.688306" lon="6.195817">
		<ele>371</ele>
		<time>2011-09-11T10:55:14.921Z</time>
		<geoidheight>325</geoidheight>
	</trkpt>
	<trkpt lat="50.688288" lon="6.195818">
		<ele>371</ele>
		<time>2011-09-11T10:55:15.918Z</time>
		<geoidheight>325</geoidheight>
	</trkpt>
	<trkpt lat="50.688274" lon="6.195826">
		<ele>371</ele>
		<time>2011-09-11T10:55:16.920Z</time>
		<geoidheight>325</geoidheight>
	</trkpt>
	<trkpt lat="50.688260" lon="6.195832">
		<ele>372</ele>
		<time>2011-09-11T10:55:17.919Z</time>
		<geoidheight>326</geoidheight>
	</trkpt>
	<trkpt lat="50.688247" lon="6.195840">
		<ele>372</ele>
		<time>2011-09-11T10:55:18.923Z</time>
		<geoidheight>326</geoidheight>
	</trkpt>
	<trkpt lat="50.688238" lon="6.195852">
		<ele>372</ele>
		<time>2011-09-11T10:55:19.920Z</time>
		<geoidheight>326</geoidheight>
	</trkpt>
	<trkpt lat="50.688225" lon="6.195854">
		<ele>372</ele>
		<time>2011-09-11T10:55:20.923Z</time>
		<geoidheight>326</geoidheight>
	</trkpt>
	<trkpt lat="50.688213" lon="6.195855">
		<ele>372</ele>
		<time>2011-09-11T10:55:21.924Z</time>
		<geoidheight>326</geoidheight>
	</trkpt>
	<trkpt lat="50.688200" lon="6.195854">
		<ele>372</ele>
		<time>2011-09-11T10:55:22.921Z</time>
		<geoidheight>326</geoidheight>
	</trkpt>
	<trkpt lat="50.688186" lon="6.195851">
		<ele>372</ele>
		<time>2011-09-11T10:55:23.920Z</time>
		<geoidheight>326</geoidheight>
	</trkpt>
	<trkpt lat="50.688169" lon="6.195849">
		<ele>373</ele>
		<time>2011-09-11T10:55:24.922Z</time>
		<geoidheight>327</geoidheight>
	</trkpt>
	<trkpt lat="50.688148" lon="6.195843">
		<ele>373</ele>
		<time>2011-09-11T10:55:25.920Z</time>
		<geoidheight>327</geoidheight>
	</trkpt>
	<trkpt lat="50.688134" lon="6.195837">
		<ele>373</ele>
		<time>2011-09-11T10:55:26.928Z</time>
		<geoidheight>327</geoidheight>
	</trkpt>
	<trkpt lat="50.688121" lon="6.195829">
		<ele>373</ele>
		<time>2011-09-11T10:55:27.932Z</time>
		<geoidheight>327</geoidheight>
	</trkpt>
	<trkpt lat="50.688107" lon="6.195825">
		<ele>373</ele>
		<time>2011-09-11T10:55:28.930Z</time>
		<geoidheight>327</geoidheight>
	</trkpt>
	<trkpt lat="50.688093" lon="6.195825">
		<ele>373</ele>
		<time>2011-09-11T10:55:29.934Z</time>
		<geoidheight>327</geoidheight>
	</trkpt>
	<trkpt lat="50.688079" lon="6.195826">
		<ele>373</ele>
		<time>2011-09-11T10:55:30.923Z</time>
		<geoidheight>327</geoidheight>
	</trkpt>
	<trkpt lat="50.688065" lon="6.195827">
		<ele>374</ele>
		<time>2011-09-11T10:55:31.936Z</time>
		<geoidheight>328</geoidheight>
	</trkpt>
	<trkpt lat="50.688052" lon="6.195827">
		<ele>374</ele>
		<time>2011-09-11T10:55:32.931Z</time>
		<geoidheight>328</geoidheight>
	</trkpt>
	<trkpt lat="50.688040" lon="6.195828">
		<ele>374</ele>
		<time>2011-09-11T10:55:33.926Z</time>
		<geoidheight>328</geoidheight>
	</trkpt>
	<trkpt lat="50.688029" lon="6.195834">
		<ele>374</ele>
		<time>2011-09-11T10:55:34.922Z</time>
		<geoidheight>328</geoidheight>
	</trkpt>
	<trkpt lat="50.688017" lon="6.195840">
		<ele>374</ele>
		<time>2011-09-11T10:55:35.920Z</time>
		<geoidheight>328</geoidheight>
	</trkpt>
	<trkpt lat="50.688004" lon="6.195851">
		<ele>374</ele>
		<time>2011-09-11T10:55:36.923Z</time>
		<geoidheight>328</geoidheight>
	</trkpt>
	<trkpt lat="50.687991" lon="6.195861">
		<ele>374</ele>
		<time>2011-09-11T10:55:37.921Z</time>
		<geoidheight>328</geoidheight>
	</trkpt>
	<trkpt lat="50.687977" lon="6.195875">
		<ele>374</ele>
		<time>2011-09-11T10:55:38.922Z</time>
		<geoidheight>328</geoidheight>
	</trkpt>
	<trkpt lat="50.687962" lon="6.195885">
		<ele>375</ele>
		<time>2011-09-11T10:55:39.922Z</time>
		<geoidheight>329</geoidheight>
	</trkpt>
	<trkpt lat="50.687948" lon="6.195888">
		<ele>375</ele>
		<time>2011-09-11T10:55:40.921Z</time>
		<geoidheight>329</geoidheight>
	</trkpt>
	<trkpt lat="50.687934" lon="6.195892">
		<ele>375</ele>
		<time>2011-09-11T10:55:41.919Z</time>
		<geoidheight>329</geoidheight>
	</trkpt>
	<trkpt lat="50.687921" lon="6.195899">
		<ele>375</ele>
		<time>2011-09-11T10:55:42.920Z</time>
		<geoidheight>329</geoidheight>
	</trkpt>
	<trkpt lat="50.687907" lon="6.195903">
		<ele>375</ele>
		<time>2011-09-11T10:55:43.922Z</time>
		<geoidheight>329</geoidheight>
	</trkpt>
	<trkpt lat="50.687894" lon="6.195907">
		<ele>375</ele>
		<time>2011-09-11T10:55:44.920Z</time>
		<geoidheight>329</geoidheight>
	</trkpt>
	<trkpt lat="50.687881" lon="6.195910">
		<ele>375</ele>
		<time>2011-09-11T10:55:45.919Z</time>
		<geoidheight>329</geoidheight>
	</trkpt>
	<trkpt lat="50.687867" lon="6.195914">
		<ele>375</ele>
		<time>2011-09-11T10:55:46.924Z</time>
		<geoidheight>329</geoidheight>
	</trkpt>
	<trkpt lat="50.687853" lon="6.195914">
		<ele>375</ele>
		<time>2011-09-11T10:55:47.920Z</time>
		<geoidheight>329</geoidheight>
	</trkpt>
	<trkpt lat="50.687838" lon="6.195921">
		<ele>376</ele>
		<time>2011-09-11T10:55:48.923Z</time>
		<geoidheight>330</geoidheight>
	</trkpt>
	<trkpt lat="50.687825" lon="6.195925">
		<ele>376</ele>
		<time>2011-09-11T10:55:49.921Z</time>
		<geoidheight>330</geoidheight>
	</trkpt>
	<trkpt lat="50.687814" lon="6.195929">
		<ele>376</ele>
		<time>2011-09-11T10:55:50.921Z</time>
		<geoidheight>330</geoidheight>
	</trkpt>
	<trkpt lat="50.687799" lon="6.195932">
		<ele>376</ele>
		<time>2011-09-11T10:55:51.921Z</time>
		<geoidheight>330</geoidheight>
	</trkpt>
	<trkpt lat="50.687783" lon="6.195931">
		<ele>376</ele>
		<time>2011-09-11T10:55:52.925Z</time>
		<geoidheight>330</geoidheight>
	</trkpt>
	<trkpt lat="50.687768" lon="6.195932">
		<ele>376</ele>
		<time>2011-09-11T10:55:53.927Z</time>
		<geoidheight>330</geoidheight>
	</trkpt>
	<trkpt lat="50.687750" lon="6.195936">
		<ele>376</ele>
		<time>2011-09-11T10:55:54.931Z</time>
		<geoidheight>330</geoidheight>
	</trkpt>
	<trkpt lat="50.687728" lon="6.195943">
		<ele>376</ele>
		<time>2011-09-11T10:55:55.928Z</time>
		<geoidheight>330</geoidheight>
	</trkpt>
	<trkpt lat="50.687707" lon="6.195956">
		<ele>376</ele>
		<time>2011-09-11T10:55:56.944Z</time>
		<geoidheight>330</geoidheight>
	</trkpt>
	<trkpt lat="50.687688" lon="6.195972">
		<ele>376</ele>
		<time>2011-09-11T10:55:57.930Z</time>
		<geoidheight>330</geoidheight>
	</trkpt>
	<trkpt lat="50.687669" lon="6.195979">
		<ele>376</ele>
		<time>2011-09-11T10:55:58.929Z</time>
		<geoidheight>330</geoidheight>
	</trkpt>
	<trkpt lat="50.687652" lon="6.195981">
		<ele>377</ele>
		<time>2011-09-11T10:55:59.922Z</time>
		<geoidheight>331</geoidheight>
	</trkpt>
	<trkpt lat="50.687637" lon="6.195985">
		<ele>377</ele>
		<time>2011-09-11T10:56:00.921Z</time>
		<geoidheight>331</geoidheight>
	</trkpt>
	<trkpt lat="50.687624" lon="6.195988">
		<ele>377</ele>
		<time>2011-09-11T10:56:01.922Z</time>
		<geoidheight>331</geoidheight>
	</trkpt>
	<trkpt lat="50.687611" lon="6.195990">
		<ele>377</ele>
		<time>2011-09-11T10:56:02.919Z</time>
		<geoidheight>331</geoidheight>
	</trkpt>
	<trkpt lat="50.687599" lon="6.195994">
		<ele>377</ele>
		<time>2011-09-11T10:56:03.923Z</time>
		<geoidheight>331</geoidheight>
	</trkpt>
	<trkpt lat="50.687589" lon="6.196000">
		<ele>377</ele>
		<time>2011-09-11T10:56:04.923Z</time>
		<geoidheight>331</geoidheight>
	</trkpt>
	<trkpt lat="50.687579" lon="6.196004">
		<ele>377</ele>
		<time>2011-09-11T10:56:05.921Z</time>
		<geoidheight>331</geoidheight>
	</trkpt>
	<trkpt lat="50.687568" lon="6.196004">
		<ele>377</ele>
		<time>2011-09-11T10:56:06.923Z</time>
		<geoidheight>331</geoidheight>
	</trkpt>
	<trkpt lat="50.687556" lon="6.196003">
		<ele>377</ele>
		<time>2011-09-11T10:56:07.923Z</time>
		<geoidheight>331</geoidheight>
	</trkpt>
	<trkpt lat="50.687545" lon="6.196005">
		<ele>377</ele>
		<time>2011-09-11T10:56:08.925Z</time>
		<geoidheight>331</geoidheight>
	</trkpt>
	<trkpt lat="50.687534" lon="6.196011">
		<ele>377</ele>
		<time>2011-09-11T10:56:09.920Z</time>
		<geoidheight>331</geoidheight>
	</trkpt>
	<trkpt lat="50.687521" lon="6.196014">
		<ele>378</ele>
		<time>2011-09-11T10:56:10.932Z</time>
		<geoidheight>332</geoidheight>
	</trkpt>
	<trkpt lat="50.687508" lon="6.196018">
		<ele>378</ele>
		<time>2011-09-11T10:56:11.929Z</time>
		<geoidheight>332</geoidheight>
	</trkpt>
	<trkpt lat="50.687498" lon="6.196021">
		<ele>378</ele>
		<time>2011-09-11T10:56:12.934Z</time>
		<geoidheight>332</geoidheight>
	</trkpt>
	<trkpt lat="50.687487" lon="6.196023">
		<ele>378</ele>
		<time>2011-09-11T10:56:13.933Z</time>
		<geoidheight>332</geoidheight>
	</trkpt>
	<trkpt lat="50.687476" lon="6.196023">
		<ele>378</ele>
		<time>2011-09-11T10:56:14.926Z</time>
		<geoidheight>332</geoidheight>
	</trkpt>
	<trkpt lat="50.687463" lon="6.196027">
		<ele>378</ele>
		<time>2011-09-11T10:56:15.930Z</time>
		<geoidheight>332</geoidheight>
	</trkpt>
	<trkpt lat="50.687451" lon="6.196031">
		<ele>378</ele>
		<time>2011-09-11T10:56:16.928Z</time>
		<geoidheight>332</geoidheight>
	</trkpt>
	<trkpt lat="50.687439" lon="6.196036">
		<ele>378</ele>
		<time>2011-09-11T10:56:17.922Z</time>
		<geoidheight>332</geoidheight>
	</trkpt>
	<trkpt lat="50.687427" lon="6.196040">
		<ele>378</ele>
		<time>2011-09-11T10:56:18.922Z</time>
		<geoidheight>332</geoidheight>
	</trkpt>
	<trkpt lat="50.687415" lon="6.196043">
		<ele>378</ele>
		<time>2011-09-11T10:56:19.920Z</time>
		<geoidheight>332</geoidheight>
	</trkpt>
	<trkpt lat="50.687402" lon="6.196044">
		<ele>379</ele>
		<time>2011-09-11T10:56:20.923Z</time>
		<geoidheight>333</geoidheight>
	</trkpt>
	<trkpt lat="50.687390" lon="6.196047">
		<ele>379</ele>
		<time>2011-09-11T10:56:21.921Z</time>
		<geoidheight>333</geoidheight>
	</trkpt>
	<trkpt lat="50.687379" lon="6.196049">
		<ele>379</ele>
		<time>2011-09-11T10:56:22.921Z</time>
		<geoidheight>333</geoidheight>
	</trkpt>
	<trkpt lat="50.687368" lon="6.196051">
		<ele>379</ele>
		<time>2011-09-11T10:56:23.932Z</time>
		<geoidheight>333</geoidheight>
	</trkpt>
	<trkpt lat="50.687354" lon="6.196062">
		<ele>379</ele>
		<time>2011-09-11T10:56:24.920Z</time>
		<geoidheight>333</geoidheight>
	</trkpt>
	<trkpt lat="50.687337" lon="6.196073">
		<ele>379</ele>
		<time>2011-09-11T10:56:25.921Z</time>
		<geoidheight>333</geoidheight>
	</trkpt>
	<trkpt lat="50.687319" lon="6.196088">
		<ele>379</ele>
		<time>2011-09-11T10:56:26.922Z</time>
		<geoidheight>333</geoidheight>
	</trkpt>
	<trkpt lat="50.687302" lon="6.196096">
		<ele>379</ele>
		<time>2011-09-11T10:56:27.931Z</time>
		<geoidheight>333</geoidheight>
	</trkpt>
	<trkpt lat="50.687287" lon="6.196106">
		<ele>379</ele>
		<time>2011-09-11T10:56:28.922Z</time>
		<geoidheight>333</geoidheight>
	</trkpt>
	<trkpt lat="50.687272" lon="6.196108">
		<ele>380</ele>
		<time>2011-09-11T10:56:29.923Z</time>
		<geoidheight>334</geoidheight>
	</trkpt>
	<trkpt lat="50.687254" lon="6.196110">
		<ele>380</ele>
		<time>2011-09-11T10:56:30.927Z</time>
		<geoidheight>334</geoidheight>
	</trkpt>
	<trkpt lat="50.687241" lon="6.196114">
		<ele>380</ele>
		<time>2011-09-11T10:56:31.920Z</time>
		<geoidheight>334</geoidheight>
	</trkpt>
	<trkpt lat="50.687230" lon="6.196119">
		<ele>380</ele>
		<time>2011-09-11T10:56:32.922Z</time>
		<geoidheight>334</geoidheight>
	</trkpt>
	<trkpt lat="50.687220" lon="6.196125">
		<ele>380</ele>
		<time>2011-09-11T10:56:33.921Z</time>
		<geoidheight>334</geoidheight>
	</trkpt>
	<trkpt lat="50.687209" lon="6.196129">
		<ele>380</ele>
		<time>2011-09-11T10:56:34.921Z</time>
		<geoidheight>334</geoidheight>
	</trkpt>
	<trkpt lat="50.687201" lon="6.196134">
		<ele>380</ele>
		<time>2011-09-11T10:56:35.923Z</time>
		<geoidheight>334</geoidheight>
	</trkpt>
	<trkpt lat="50.687201" lon="6.196134">
		<ele>380</ele>
		<time>2011-09-11T10:56:36.921Z</time>
		<geoidheight>334</geoidheight>
	</trkpt>
	<trkpt lat="50.687195" lon="6.196143">
		<ele>381</ele>
		<time>2011-09-11T10:56:37.924Z</time>
		<geoidheight>335</geoidheight>
	</trkpt>
	<trkpt lat="50.687187" lon="6.196149">
		<ele>381</ele>
		<time>2011-09-11T10:56:38.922Z</time>
		<geoidheight>335</geoidheight>
	</trkpt>
	<trkpt lat="50.687180" lon="6.196152">
		<ele>381</ele>
		<time>2011-09-11T10:56:39.922Z</time>
		<geoidheight>335</geoidheight>
	</trkpt>
	<trkpt lat="50.687173" lon="6.196155">
		<ele>381</ele>
		<time>2011-09-11T10:56:40.920Z</time>
		<geoidheight>335</geoidheight>
	</trkpt>
	<trkpt lat="50.687166" lon="6.196159">
		<ele>381</ele>
		<time>2011-09-11T10:56:41.922Z</time>
		<geoidheight>335</geoidheight>
	</trkpt>
	<trkpt lat="50.687156" lon="6.196164">
		<ele>381</ele>
		<time>2011-09-11T10:56:42.921Z</time>
		<geoidheight>335</geoidheight>
	</trkpt>
	<trkpt lat="50.687146" lon="6.196169">
		<ele>381</ele>
		<time>2011-09-11T10:56:43.922Z</time>
		<geoidheight>335</geoidheight>
	</trkpt>
	<trkpt lat="50.687135" lon="6.196175">
		<ele>381</ele>
		<time>2011-09-11T10:56:44.920Z</time>
		<geoidheight>335</geoidheight>
	</trkpt>
	<trkpt lat="50.687125" lon="6.196179">
		<ele>382</ele>
		<time>2011-09-11T10:56:45.923Z</time>
		<geoidheight>336</geoidheight>
	</trkpt>
	<trkpt lat="50.687113" lon="6.196181">
		<ele>382</ele>
		<time>2011-09-11T10:56:46.921Z</time>
		<geoidheight>336</geoidheight>
	</trkpt>
	<trkpt lat="50.687102" lon="6.196183">
		<ele>382</ele>
		<time>2011-09-11T10:56:47.921Z</time>
		<geoidheight>336</geoidheight>
	</trkpt>
	<trkpt lat="50.687092" lon="6.196187">
		<ele>382</ele>
		<time>2011-09-11T10:56:48.922Z</time>
		<geoidheight>336</geoidheight>
	</trkpt>
	<trkpt lat="50.687092" lon="6.196187">
		<ele>382</ele>
		<time>2011-09-11T10:56:50.921Z</time>
		<geoidheight>336</geoidheight>
	</trkpt>
	<trkpt lat="50.687092" lon="6.196187">
		<ele>382</ele>
		<time>2011-09-11T10:56:51.923Z</time>
		<geoidheight>336</geoidheight>
	</trkpt>
	<trkpt lat="50.687092" lon="6.196187">
		<ele>382</ele>
		<time>2011-09-11T10:56:52.920Z</time>
		<geoidheight>336</geoidheight>
	</trkpt>
	<trkpt lat="50.687092" lon="6.196187">
		<ele>382</ele>
		<time>2011-09-11T10:56:53.920Z</time>
		<geoidheight>336</geoidheight>
	</trkpt>
	<trkpt lat="50.687092" lon="6.196187">
		<ele>382</ele>
		<time>2011-09-11T10:56:54.922Z</time>
		<geoidheight>336</geoidheight>
	</trkpt>
	<trkpt lat="50.687092" lon="6.196187">
		<ele>382</ele>
		<time>2011-09-11T10:56:55.920Z</time>
		<geoidheight>336</geoidheight>
	</trkpt>
	<trkpt lat="50.687044" lon="6.196214">
		<ele>382</ele>
		<time>2011-09-11T10:56:56.942Z</time>
		<geoidheight>336</geoidheight>
	</trkpt>
	<trkpt lat="50.687026" lon="6.196213">
		<ele>382</ele>
		<time>2011-09-11T10:56:57.919Z</time>
		<geoidheight>336</geoidheight>
	</trkpt>
	<trkpt lat="50.687002" lon="6.196209">
		<ele>382</ele>
		<time>2011-09-11T10:56:58.919Z</time>
		<geoidheight>336</geoidheight>
	</trkpt>
	<trkpt lat="50.686978" lon="6.196207">
		<ele>382</ele>
		<time>2011-09-11T10:56:59.919Z</time>
		<geoidheight>336</geoidheight>
	</trkpt>
	<trkpt lat="50.686955" lon="6.196212">
		<ele>383</ele>
		<time>2011-09-11T10:57:00.919Z</time>
		<geoidheight>337</geoidheight>
	</trkpt>
	<trkpt lat="50.686925" lon="6.196208">
		<ele>383</ele>
		<time>2011-09-11T10:57:01.919Z</time>
		<geoidheight>337</geoidheight>
	</trkpt>
	<trkpt lat="50.686900" lon="6.196209">
		<ele>383</ele>
		<time>2011-09-11T10:57:02.919Z</time>
		<geoidheight>337</geoidheight>
	</trkpt>
	<trkpt lat="50.686870" lon="6.196201">
		<ele>383</ele>
		<time>2011-09-11T10:57:03.919Z</time>
		<geoidheight>337</geoidheight>
	</trkpt>
	<trkpt lat="50.686838" lon="6.196190">
		<ele>383</ele>
		<time>2011-09-11T10:57:04.920Z</time>
		<geoidheight>337</geoidheight>
	</trkpt>
	<trkpt lat="50.686811" lon="6.196181">
		<ele>383</ele>
		<time>2011-09-11T10:57:05.919Z</time>
		<geoidheight>337</geoidheight>
	</trkpt>
	<trkpt lat="50.686789" lon="6.196176">
		<ele>383</ele>
		<time>2011-09-11T10:57:06.919Z</time>
		<geoidheight>337</geoidheight>
	</trkpt>
	<trkpt lat="50.686771" lon="6.196175">
		<ele>383</ele>
		<time>2011-09-11T10:57:07.920Z</time>
		<geoidheight>337</geoidheight>
	</trkpt>
	<trkpt lat="50.686756" lon="6.196169">
		<ele>383</ele>
		<time>2011-09-11T10:57:08.919Z</time>
		<geoidheight>337</geoidheight>
	</trkpt>
	<trkpt lat="50.686741" lon="6.196167">
		<ele>383</ele>
		<time>2011-09-11T10:57:09.920Z</time>
		<geoidheight>337</geoidheight>
	</trkpt>
	<trkpt lat="50.686729" lon="6.196160">
		<ele>383</ele>
		<time>2011-09-11T10:57:10.920Z</time>
		<geoidheight>337</geoidheight>
	</trkpt>
	<trkpt lat="50.686718" lon="6.196159">
		<ele>383</ele>
		<time>2011-09-11T10:57:11.919Z</time>
		<geoidheight>337</geoidheight>
	</trkpt>
	<trkpt lat="50.686705" lon="6.196154">
		<ele>383</ele>
		<time>2011-09-11T10:57:12.919Z</time>
		<geoidheight>337</geoidheight>
	</trkpt>
	<trkpt lat="50.686692" lon="6.196150">
		<ele>383</ele>
		<time>2011-09-11T10:57:13.923Z</time>
		<geoidheight>337</geoidheight>
	</trkpt>
	<trkpt lat="50.686682" lon="6.196148">
		<ele>383</ele>
		<time>2011-09-11T10:57:14.919Z</time>
		<geoidheight>337</geoidheight>
	</trkpt>
	<trkpt lat="50.686674" lon="6.196156">
		<ele>383</ele>
		<time>2011-09-11T10:57:15.918Z</time>
		<geoidheight>337</geoidheight>
	</trkpt>
	<trkpt lat="50.686666" lon="6.196162">
		<ele>383</ele>
		<time>2011-09-11T10:57:16.920Z</time>
		<geoidheight>337</geoidheight>
	</trkpt>
	<trkpt lat="50.686659" lon="6.196167">
		<ele>383</ele>
		<time>2011-09-11T10:57:17.921Z</time>
		<geoidheight>337</geoidheight>
	</trkpt>
	<trkpt lat="50.686651" lon="6.196173">
		<ele>384</ele>
		<time>2011-09-11T10:57:18.931Z</time>
		<geoidheight>338</geoidheight>
	</trkpt>
	<trkpt lat="50.686642" lon="6.196179">
		<ele>384</ele>
		<time>2011-09-11T10:57:19.947Z</time>
		<geoidheight>338</geoidheight>
	</trkpt>
	<trkpt lat="50.686630" lon="6.196189">
		<ele>384</ele>
		<time>2011-09-11T10:57:20.926Z</time>
		<geoidheight>338</geoidheight>
	</trkpt>
	<trkpt lat="50.686620" lon="6.196202">
		<ele>384</ele>
		<time>2011-09-11T10:57:21.921Z</time>
		<geoidheight>338</geoidheight>
	</trkpt>
	<trkpt lat="50.686610" lon="6.196209">
		<ele>384</ele>
		<time>2011-09-11T10:57:22.923Z</time>
		<geoidheight>338</geoidheight>
	</trkpt>
	<trkpt lat="50.686600" lon="6.196216">
		<ele>384</ele>
		<time>2011-09-11T10:57:23.922Z</time>
		<geoidheight>338</geoidheight>
	</trkpt>
	<trkpt lat="50.686590" lon="6.196223">
		<ele>384</ele>
		<time>2011-09-11T10:57:24.922Z</time>
		<geoidheight>338</geoidheight>
	</trkpt>
	<trkpt lat="50.686579" lon="6.196228">
		<ele>384</ele>
		<time>2011-09-11T10:57:25.923Z</time>
		<geoidheight>338</geoidheight>
	</trkpt>
	<trkpt lat="50.686567" lon="6.196235">
		<ele>384</ele>
		<time>2011-09-11T10:57:26.924Z</time>
		<geoidheight>338</geoidheight>
	</trkpt>
	<trkpt lat="50.686557" lon="6.196240">
		<ele>385</ele>
		<time>2011-09-11T10:57:27.924Z</time>
		<geoidheight>339</geoidheight>
	</trkpt>
	<trkpt lat="50.686549" lon="6.196246">
		<ele>385</ele>
		<time>2011-09-11T10:57:28.922Z</time>
		<geoidheight>339</geoidheight>
	</trkpt>
	<trkpt lat="50.686541" lon="6.196247">
		<ele>385</ele>
		<time>2011-09-11T10:57:29.923Z</time>
		<geoidheight>339</geoidheight>
	</trkpt>
	<trkpt lat="50.686531" lon="6.196249">
		<ele>385</ele>
		<time>2011-09-11T10:57:30.922Z</time>
		<geoidheight>339</geoidheight>
	</trkpt>
	<trkpt lat="50.686521" lon="6.196250">
		<ele>385</ele>
		<time>2011-09-11T10:57:31.923Z</time>
		<geoidheight>339</geoidheight>
	</trkpt>
	<trkpt lat="50.686510" lon="6.196252">
		<ele>385</ele>
		<time>2011-09-11T10:57:32.922Z</time>
		<geoidheight>339</geoidheight>
	</trkpt>
	<trkpt lat="50.686497" lon="6.196251">
		<ele>385</ele>
		<time>2011-09-11T10:57:33.922Z</time>
		<geoidheight>339</geoidheight>
	</trkpt>
	<trkpt lat="50.686479" lon="6.196253">
		<ele>385</ele>
		<time>2011-09-11T10:57:34.962Z</time>
		<geoidheight>339</geoidheight>
	</trkpt>
	<trkpt lat="50.686464" lon="6.196254">
		<ele>385</ele>
		<time>2011-09-11T10:57:35.921Z</time>
		<geoidheight>339</geoidheight>
	</trkpt>
	<trkpt lat="50.686453" lon="6.196254">
		<ele>385</ele>
		<time>2011-09-11T10:57:36.923Z</time>
		<geoidheight>339</geoidheight>
	</trkpt>
	<trkpt lat="50.686440" lon="6.196251">
		<ele>386</ele>
		<time>2011-09-11T10:57:37.922Z</time>
		<geoidheight>340</geoidheight>
	</trkpt>
	<trkpt lat="50.686429" lon="6.196251">
		<ele>386</ele>
		<time>2011-09-11T10:57:38.921Z</time>
		<geoidheight>340</geoidheight>
	</trkpt>
	<trkpt lat="50.686418" lon="6.196255">
		<ele>386</ele>
		<time>2011-09-11T10:57:39.921Z</time>
		<geoidheight>340</geoidheight>
	</trkpt>
	<trkpt lat="50.686408" lon="6.196256">
		<ele>386</ele>
		<time>2011-09-11T10:57:40.923Z</time>
		<geoidheight>340</geoidheight>
	</trkpt>
	<trkpt lat="50.686398" lon="6.196260">
		<ele>386</ele>
		<time>2011-09-11T10:57:41.923Z</time>
		<geoidheight>340</geoidheight>
	</trkpt>
	<trkpt lat="50.686398" lon="6.196260">
		<ele>386</ele>
		<time>2011-09-11T10:57:44.921Z</time>
		<geoidheight>340</geoidheight>
	</trkpt>
	<trkpt lat="50.686379" lon="6.196290">
		<ele>386</ele>
		<time>2011-09-11T10:57:45.921Z</time>
		<geoidheight>340</geoidheight>
	</trkpt>
	<trkpt lat="50.686371" lon="6.196300">
		<ele>386</ele>
		<time>2011-09-11T10:57:46.923Z</time>
		<geoidheight>340</geoidheight>
	</trkpt>
	<trkpt lat="50.686363" lon="6.196310">
		<ele>386</ele>
		<time>2011-09-11T10:57:47.921Z</time>
		<geoidheight>340</geoidheight>
	</trkpt>
	<trkpt lat="50.686353" lon="6.196316">
		<ele>386</ele>
		<time>2011-09-11T10:57:48.921Z</time>
		<geoidheight>340</geoidheight>
	</trkpt>
	<trkpt lat="50.686342" lon="6.196322">
		<ele>386</ele>
		<time>2011-09-11T10:57:49.936Z</time>
		<geoidheight>340</geoidheight>
	</trkpt>
	<trkpt lat="50.686323" lon="6.196324">
		<ele>386</ele>
		<time>2011-09-11T10:57:50.937Z</time>
		<geoidheight>340</geoidheight>
	</trkpt>
	<trkpt lat="50.686302" lon="6.196324">
		<ele>386</ele>
		<time>2011-09-11T10:57:51.930Z</time>
		<geoidheight>340</geoidheight>
	</trkpt>
	<trkpt lat="50.686286" lon="6.196325">
		<ele>386</ele>
		<time>2011-09-11T10:57:52.936Z</time>
		<geoidheight>340</geoidheight>
	</trkpt>
	<trkpt lat="50.686268" lon="6.196324">
		<ele>386</ele>
		<time>2011-09-11T10:57:53.937Z</time>
		<geoidheight>340</geoidheight>
	</trkpt>
	<trkpt lat="50.686251" lon="6.196323">
		<ele>386</ele>
		<time>2011-09-11T10:57:54.929Z</time>
		<geoidheight>340</geoidheight>
	</trkpt>
	<trkpt lat="50.686236" lon="6.196328">
		<ele>387</ele>
		<time>2011-09-11T10:57:55.929Z</time>
		<geoidheight>341</geoidheight>
	</trkpt>
	<trkpt lat="50.686220" lon="6.196328">
		<ele>387</ele>
		<time>2011-09-11T10:57:56.929Z</time>
		<geoidheight>341</geoidheight>
	</trkpt>
	<trkpt lat="50.686204" lon="6.196330">
		<ele>387</ele>
		<time>2011-09-11T10:57:57.936Z</time>
		<geoidheight>341</geoidheight>
	</trkpt>
	<trkpt lat="50.686187" lon="6.196333">
		<ele>387</ele>
		<time>2011-09-11T10:57:58.929Z</time>
		<geoidheight>341</geoidheight>
	</trkpt>
	<trkpt lat="50.686170" lon="6.196335">
		<ele>387</ele>
		<time>2011-09-11T10:57:59.930Z</time>
		<geoidheight>341</geoidheight>
	</trkpt>
	<trkpt lat="50.686165" lon="6.196344">
		<ele>387</ele>
		<time>2011-09-11T10:58:00.922Z</time>
		<geoidheight>341</geoidheight>
	</trkpt>
	<trkpt lat="50.686163" lon="6.196352">
		<ele>387</ele>
		<time>2011-09-11T10:58:01.931Z</time>
		<geoidheight>341</geoidheight>
	</trkpt>
	<trkpt lat="50.686158" lon="6.196357">
		<ele>387</ele>
		<time>2011-09-11T10:58:02.933Z</time>
		<geoidheight>341</geoidheight>
	</trkpt>
	<trkpt lat="50.686152" lon="6.196366">
		<ele>387</ele>
		<time>2011-09-11T10:58:03.927Z</time>
		<geoidheight>341</geoidheight>
	</trkpt>
	<trkpt lat="50.686144" lon="6.196378">
		<ele>387</ele>
		<time>2011-09-11T10:58:04.931Z</time>
		<geoidheight>341</geoidheight>
	</trkpt>
	<trkpt lat="50.686136" lon="6.196389">
		<ele>387</ele>
		<time>2011-09-11T10:58:05.930Z</time>
		<geoidheight>341</geoidheight>
	</trkpt>
	<trkpt lat="50.686126" lon="6.196394">
		<ele>387</ele>
		<time>2011-09-11T10:58:06.932Z</time>
		<geoidheight>341</geoidheight>
	</trkpt>
	<trkpt lat="50.686114" lon="6.196401">
		<ele>387</ele>
		<time>2011-09-11T10:58:07.932Z</time>
		<geoidheight>341</geoidheight>
	</trkpt>
	<trkpt lat="50.686099" lon="6.196414">
		<ele>387</ele>
		<time>2011-09-11T10:58:08.922Z</time>
		<geoidheight>341</geoidheight>
	</trkpt>
	<trkpt lat="50.686081" lon="6.196431">
		<ele>388</ele>
		<time>2011-09-11T10:58:09.929Z</time>
		<geoidheight>342</geoidheight>
	</trkpt>
	<trkpt lat="50.686063" lon="6.196453">
		<ele>388</ele>
		<time>2011-09-11T10:58:10.927Z</time>
		<geoidheight>342</geoidheight>
	</trkpt>
	<trkpt lat="50.686044" lon="6.196475">
		<ele>388</ele>
		<time>2011-09-11T10:58:11.923Z</time>
		<geoidheight>342</geoidheight>
	</trkpt>
	<trkpt lat="50.686029" lon="6.196492">
		<ele>388</ele>
		<time>2011-09-11T10:58:12.921Z</time>
		<geoidheight>342</geoidheight>
	</trkpt>
	<trkpt lat="50.686019" lon="6.196506">
		<ele>388</ele>
		<time>2011-09-11T10:58:13.921Z</time>
		<geoidheight>342</geoidheight>
	</trkpt>
	<trkpt lat="50.686008" lon="6.196518">
		<ele>388</ele>
		<time>2011-09-11T10:58:14.923Z</time>
		<geoidheight>342</geoidheight>
	</trkpt>
	<trkpt lat="50.685998" lon="6.196524">
		<ele>388</ele>
		<time>2011-09-11T10:58:15.937Z</time>
		<geoidheight>342</geoidheight>
	</trkpt>
	<trkpt lat="50.685987" lon="6.196526">
		<ele>388</ele>
		<time>2011-09-11T10:58:16.921Z</time>
		<geoidheight>342</geoidheight>
	</trkpt>
	<trkpt lat="50.685972" lon="6.196531">
		<ele>388</ele>
		<time>2011-09-11T10:58:17.924Z</time>
		<geoidheight>342</geoidheight>
	</trkpt>
	<trkpt lat="50.685957" lon="6.196537">
		<ele>388</ele>
		<time>2011-09-11T10:58:18.938Z</time>
		<geoidheight>342</geoidheight>
	</trkpt>
	<trkpt lat="50.685943" lon="6.196542">
		<ele>388</ele>
		<time>2011-09-11T10:58:19.922Z</time>
		<geoidheight>342</geoidheight>
	</trkpt>
	<trkpt lat="50.685929" lon="6.196549">
		<ele>389</ele>
		<time>2011-09-11T10:58:20.923Z</time>
		<geoidheight>343</geoidheight>
	</trkpt>
	<trkpt lat="50.685914" lon="6.196556">
		<ele>389</ele>
		<time>2011-09-11T10:58:21.922Z</time>
		<geoidheight>343</geoidheight>
	</trkpt>
	<trkpt lat="50.685899" lon="6.196558">
		<ele>389</ele>
		<time>2011-09-11T10:58:22.922Z</time>
		<geoidheight>343</geoidheight>
	</trkpt>
	<trkpt lat="50.685884" lon="6.196561">
		<ele>389</ele>
		<time>2011-09-11T10:58:23.924Z</time>
		<geoidheight>343</geoidheight>
	</trkpt>
	<trkpt lat="50.685869" lon="6.196562">
		<ele>389</ele>
		<time>2011-09-11T10:58:24.922Z</time>
		<geoidheight>343</geoidheight>
	</trkpt>
	<trkpt lat="50.685853" lon="6.196564">
		<ele>389</ele>
		<time>2011-09-11T10:58:25.922Z</time>
		<geoidheight>343</geoidheight>
	</trkpt>
	<trkpt lat="50.685838" lon="6.196567">
		<ele>389</ele>
		<time>2011-09-11T10:58:26.931Z</time>
		<geoidheight>343</geoidheight>
	</trkpt>
	<trkpt lat="50.685824" lon="6.196572">
		<ele>389</ele>
		<time>2011-09-11T10:58:27.932Z</time>
		<geoidheight>343</geoidheight>
	</trkpt>
	<trkpt lat="50.685813" lon="6.196574">
		<ele>389</ele>
		<time>2011-09-11T10:58:28.933Z</time>
		<geoidheight>343</geoidheight>
	</trkpt>
	<trkpt lat="50.685802" lon="6.196575">
		<ele>389</ele>
		<time>2011-09-11T10:58:29.931Z</time>
		<geoidheight>343</geoidheight>
	</trkpt>
	<trkpt lat="50.685792" lon="6.196573">
		<ele>389</ele>
		<time>2011-09-11T10:58:30.929Z</time>
		<geoidheight>343</geoidheight>
	</trkpt>
	<trkpt lat="50.685780" lon="6.196570">
		<ele>389</ele>
		<time>2011-09-11T10:58:31.933Z</time>
		<geoidheight>343</geoidheight>
	</trkpt>
	<trkpt lat="50.685768" lon="6.196570">
		<ele>389</ele>
		<time>2011-09-11T10:58:32.934Z</time>
		<geoidheight>343</geoidheight>
	</trkpt>
	<trkpt lat="50.685755" lon="6.196575">
		<ele>389</ele>
		<time>2011-09-11T10:58:33.924Z</time>
		<geoidheight>343</geoidheight>
	</trkpt>
	<trkpt lat="50.685740" lon="6.196582">
		<ele>389</ele>
		<time>2011-09-11T10:58:34.927Z</time>
		<geoidheight>343</geoidheight>
	</trkpt>
	<trkpt lat="50.685726" lon="6.196589">
		<ele>389</ele>
		<time>2011-09-11T10:58:35.922Z</time>
		<geoidheight>343</geoidheight>
	</trkpt>
	<trkpt lat="50.685710" lon="6.196601">
		<ele>389</ele>
		<time>2011-09-11T10:58:36.923Z</time>
		<geoidheight>343</geoidheight>
	</trkpt>
	<trkpt lat="50.685695" lon="6.196617">
		<ele>389</ele>
		<time>2011-09-11T10:58:37.922Z</time>
		<geoidheight>343</geoidheight>
	</trkpt>
	<trkpt lat="50.685681" lon="6.196630">
		<ele>389</ele>
		<time>2011-09-11T10:58:38.923Z</time>
		<geoidheight>343</geoidheight>
	</trkpt>
	<trkpt lat="50.685670" lon="6.196641">
		<ele>389</ele>
		<time>2011-09-11T10:58:39.924Z</time>
		<geoidheight>343</geoidheight>
	</trkpt>
	<trkpt lat="50.685660" lon="6.196655">
		<ele>389</ele>
		<time>2011-09-11T10:58:40.930Z</time>
		<geoidheight>343</geoidheight>
	</trkpt>
	<trkpt lat="50.685649" lon="6.196661">
		<ele>389</ele>
		<time>2011-09-11T10:58:41.927Z</time>
		<geoidheight>343</geoidheight>
	</trkpt>
	<trkpt lat="50.685638" lon="6.196666">
		<ele>389</ele>
		<time>2011-09-11T10:58:42.931Z</time>
		<geoidheight>343</geoidheight>
	</trkpt>
	<trkpt lat="50.685627" lon="6.196666">
		<ele>389</ele>
		<time>2011-09-11T10:58:43.934Z</time>
		<geoidheight>343</geoidheight>
	</trkpt>
	<trkpt lat="50.685617" lon="6.196668">
		<ele>389</ele>
		<time>2011-09-11T10:58:44.921Z</time>
		<geoidheight>343</geoidheight>
	</trkpt>
	<trkpt lat="50.685609" lon="6.196670">
		<ele>389</ele>
		<time>2011-09-11T10:58:45.952Z</time>
		<geoidheight>343</geoidheight>
	</trkpt>
	<trkpt lat="50.685600" lon="6.196673">
		<ele>389</ele>
		<time>2011-09-11T10:58:46.937Z</time>
		<geoidheight>343</geoidheight>
	</trkpt>
	<trkpt lat="50.685600" lon="6.196673">
		<ele>389</ele>
		<time>2011-09-11T10:58:47.937Z</time>
		<geoidheight>343</geoidheight>
	</trkpt>
	<trkpt lat="50.685600" lon="6.196673">
		<ele>389</ele>
		<time>2011-09-11T10:58:48.930Z</time>
		<geoidheight>343</geoidheight>
	</trkpt>
	<trkpt lat="50.685600" lon="6.196673">
		<ele>389</ele>
		<time>2011-09-11T10:58:49.929Z</time>
		<geoidheight>343</geoidheight>
	</trkpt>
	<trkpt lat="50.685569" lon="6.196693">
		<ele>389</ele>
		<time>2011-09-11T10:58:50.934Z</time>
		<geoidheight>343</geoidheight>
	</trkpt>
	<trkpt lat="50.685557" lon="6.196699">
		<ele>389</ele>
		<time>2011-09-11T10:58:51.923Z</time>
		<geoidheight>343</geoidheight>
	</trkpt>
	<trkpt lat="50.685545" lon="6.196702">
		<ele>389</ele>
		<time>2011-09-11T10:58:52.924Z</time>
		<geoidheight>343</geoidheight>
	</trkpt>
	<trkpt lat="50.685534" lon="6.196705">
		<ele>389</ele>
		<time>2011-09-11T10:58:53.921Z</time>
		<geoidheight>343</geoidheight>
	</trkpt>
	<trkpt lat="50.685524" lon="6.196710">
		<ele>389</ele>
		<time>2011-09-11T10:58:54.922Z</time>
		<geoidheight>343</geoidheight>
	</trkpt>
	<trkpt lat="50.685514" lon="6.196713">
		<ele>389</ele>
		<time>2011-09-11T10:58:55.934Z</time>
		<geoidheight>343</geoidheight>
	</trkpt>
	<trkpt lat="50.685503" lon="6.196713">
		<ele>389</ele>
		<time>2011-09-11T10:58:56.922Z</time>
		<geoidheight>343</geoidheight>
	</trkpt>
	<trkpt lat="50.685491" lon="6.196709">
		<ele>389</ele>
		<time>2011-09-11T10:58:57.922Z</time>
		<geoidheight>343</geoidheight>
	</trkpt>
	<trkpt lat="50.685479" lon="6.196709">
		<ele>389</ele>
		<time>2011-09-11T10:58:58.923Z</time>
		<geoidheight>343</geoidheight>
	</trkpt>
	<trkpt lat="50.685479" lon="6.196709">
		<ele>389</ele>
		<time>2011-09-11T10:58:59.922Z</time>
		<geoidheight>343</geoidheight>
	</trkpt>
	<trkpt lat="50.685479" lon="6.196709">
		<ele>389</ele>
		<time>2011-09-11T10:59:00.922Z</time>
		<geoidheight>343</geoidheight>
	</trkpt>
	<trkpt lat="50.685479" lon="6.196709">
		<ele>389</ele>
		<time>2011-09-11T10:59:01.930Z</time>
		<geoidheight>343</geoidheight>
	</trkpt>
	<trkpt lat="50.685479" lon="6.196709">
		<ele>389</ele>
		<time>2011-09-11T10:59:02.935Z</time>
		<geoidheight>343</geoidheight>
	</trkpt>
	<trkpt lat="50.685479" lon="6.196709">
		<ele>389</ele>
		<time>2011-09-11T10:59:03.934Z</time>
		<geoidheight>343</geoidheight>
	</trkpt>
	<trkpt lat="50.685426" lon="6.196693">
		<ele>389</ele>
		<time>2011-09-11T10:59:04.943Z</time>
		<geoidheight>343</geoidheight>
	</trkpt>
	<trkpt lat="50.685407" lon="6.196691">
		<ele>389</ele>
		<time>2011-09-11T10:59:05.943Z</time>
		<geoidheight>343</geoidheight>
	</trkpt>
	<trkpt lat="50.685389" lon="6.196687">
		<ele>389</ele>
		<time>2011-09-11T10:59:06.930Z</time>
		<geoidheight>343</geoidheight>
	</trkpt>
	<trkpt lat="50.685371" lon="6.196684">
		<ele>389</ele>
		<time>2011-09-11T10:59:07.932Z</time>
		<geoidheight>343</geoidheight>
	</trkpt>
	<trkpt lat="50.685354" lon="6.196680">
		<ele>389</ele>
		<time>2011-09-11T10:59:08.932Z</time>
		<geoidheight>343</geoidheight>
	</trkpt>
	<trkpt lat="50.685339" lon="6.196675">
		<ele>389</ele>
		<time>2011-09-11T10:59:09.932Z</time>
		<geoidheight>343</geoidheight>
	</trkpt>
	<trkpt lat="50.685324" lon="6.196670">
		<ele>389</ele>
		<time>2011-09-11T10:59:10.929Z</time>
		<geoidheight>343</geoidheight>
	</trkpt>
	<trkpt lat="50.685310" lon="6.196668">
		<ele>389</ele>
		<time>2011-09-11T10:59:11.929Z</time>
		<geoidheight>343</geoidheight>
	</trkpt>
	<trkpt lat="50.685297" lon="6.196663">
		<ele>389</ele>
		<time>2011-09-11T10:59:12.932Z</time>
		<geoidheight>343</geoidheight>
	</trkpt>
	<trkpt lat="50.685284" lon="6.196661">
		<ele>390</ele>
		<time>2011-09-11T10:59:14.010Z</time>
		<geoidheight>344</geoidheight>
	</trkpt>
	<trkpt lat="50.685272" lon="6.196662">
		<ele>390</ele>
		<time>2011-09-11T10:59:14.936Z</time>
		<geoidheight>344</geoidheight>
	</trkpt>
	<trkpt lat="50.685262" lon="6.196662">
		<ele>390</ele>
		<time>2011-09-11T10:59:15.933Z</time>
		<geoidheight>344</geoidheight>
	</trkpt>
	<trkpt lat="50.685251" lon="6.196663">
		<ele>390</ele>
		<time>2011-09-11T10:59:16.934Z</time>
		<geoidheight>344</geoidheight>
	</trkpt>
	<trkpt lat="50.685239" lon="6.196663">
		<ele>390</ele>
		<time>2011-09-11T10:59:17.931Z</time>
		<geoidheight>344</geoidheight>
	</trkpt>
	<trkpt lat="50.685227" lon="6.196664">
		<ele>390</ele>
		<time>2011-09-11T10:59:18.933Z</time>
		<geoidheight>344</geoidheight>
	</trkpt>
	<trkpt lat="50.685216" lon="6.196661">
		<ele>390</ele>
		<time>2011-09-11T10:59:19.929Z</time>
		<geoidheight>344</geoidheight>
	</trkpt>
	<trkpt lat="50.685202" lon="6.196657">
		<ele>390</ele>
		<time>2011-09-11T10:59:20.938Z</time>
		<geoidheight>344</geoidheight>
	</trkpt>
	<trkpt lat="50.685188" lon="6.196654">
		<ele>390</ele>
		<time>2011-09-11T10:59:21.937Z</time>
		<geoidheight>344</geoidheight>
	</trkpt>
	<trkpt lat="50.685174" lon="6.196659">
		<ele>390</ele>
		<time>2011-09-11T10:59:22.934Z</time>
		<geoidheight>344</geoidheight>
	</trkpt>
	<trkpt lat="50.685158" lon="6.196671">
		<ele>390</ele>
		<time>2011-09-11T10:59:23.933Z</time>
		<geoidheight>344</geoidheight>
	</trkpt>
	<trkpt lat="50.685144" lon="6.196678">
		<ele>390</ele>
		<time>2011-09-11T10:59:24.933Z</time>
		<geoidheight>344</geoidheight>
	</trkpt>
	<trkpt lat="50.685129" lon="6.196684">
		<ele>390</ele>
		<time>2011-09-11T10:59:25.931Z</time>
		<geoidheight>344</geoidheight>
	</trkpt>
	<trkpt lat="50.685113" lon="6.196688">
		<ele>390</ele>
		<time>2011-09-11T10:59:26.932Z</time>
		<geoidheight>344</geoidheight>
	</trkpt>
	<trkpt lat="50.685095" lon="6.196692">
		<ele>390</ele>
		<time>2011-09-11T10:59:27.930Z</time>
		<geoidheight>344</geoidheight>
	</trkpt>
	<trkpt lat="50.685075" lon="6.196693">
		<ele>390</ele>
		<time>2011-09-11T10:59:28.931Z</time>
		<geoidheight>344</geoidheight>
	</trkpt>
	<trkpt lat="50.685057" lon="6.196693">
		<ele>390</ele>
		<time>2011-09-11T10:59:29.933Z</time>
		<geoidheight>344</geoidheight>
	</trkpt>
	<trkpt lat="50.685037" lon="6.196695">
		<ele>390</ele>
		<time>2011-09-11T10:59:30.937Z</time>
		<geoidheight>344</geoidheight>
	</trkpt>
	<trkpt lat="50.685015" lon="6.196701">
		<ele>390</ele>
		<time>2011-09-11T10:59:31.935Z</time>
		<geoidheight>344</geoidheight>
	</trkpt>
	<trkpt lat="50.684994" lon="6.196705">
		<ele>390</ele>
		<time>2011-09-11T10:59:32.931Z</time>
		<geoidheight>344</geoidheight>
	</trkpt>
	<trkpt lat="50.684975" lon="6.196708">
		<ele>390</ele>
		<time>2011-09-11T10:59:33.930Z</time>
		<geoidheight>344</geoidheight>
	</trkpt>
	<trkpt lat="50.684958" lon="6.196712">
		<ele>390</ele>
		<time>2011-09-11T10:59:34.935Z</time>
		<geoidheight>344</geoidheight>
	</trkpt>
	<trkpt lat="50.684943" lon="6.196714">
		<ele>390</ele>
		<time>2011-09-11T10:59:35.933Z</time>
		<geoidheight>344</geoidheight>
	</trkpt>
	<trkpt lat="50.684928" lon="6.196717">
		<ele>391</ele>
		<time>2011-09-11T10:59:36.929Z</time>
		<geoidheight>345</geoidheight>
	</trkpt>
	<trkpt lat="50.684915" lon="6.196723">
		<ele>391</ele>
		<time>2011-09-11T10:59:37.932Z</time>
		<geoidheight>345</geoidheight>
	</trkpt>
	<trkpt lat="50.684902" lon="6.196728">
		<ele>391</ele>
		<time>2011-09-11T10:59:38.934Z</time>
		<geoidheight>345</geoidheight>
	</trkpt>
	<trkpt lat="50.684891" lon="6.196734">
		<ele>391</ele>
		<time>2011-09-11T10:59:39.931Z</time>
		<geoidheight>345</geoidheight>
	</trkpt>
	<trkpt lat="50.684876" lon="6.196740">
		<ele>391</ele>
		<time>2011-09-11T10:59:40.930Z</time>
		<geoidheight>345</geoidheight>
	</trkpt>
	<trkpt lat="50.684863" lon="6.196744">
		<ele>391</ele>
		<time>2011-09-11T10:59:41.934Z</time>
		<geoidheight>345</geoidheight>
	</trkpt>
	<trkpt lat="50.684848" lon="6.196747">
		<ele>391</ele>
		<time>2011-09-11T10:59:42.932Z</time>
		<geoidheight>345</geoidheight>
	</trkpt>
	<trkpt lat="50.684835" lon="6.196749">
		<ele>391</ele>
		<time>2011-09-11T10:59:43.934Z</time>
		<geoidheight>345</geoidheight>
	</trkpt>
	<trkpt lat="50.684820" lon="6.196750">
		<ele>391</ele>
		<time>2011-09-11T10:59:44.931Z</time>
		<geoidheight>345</geoidheight>
	</trkpt>
	<trkpt lat="50.684805" lon="6.196754">
		<ele>391</ele>
		<time>2011-09-11T10:59:45.928Z</time>
		<geoidheight>345</geoidheight>
	</trkpt>
	<trkpt lat="50.684791" lon="6.196758">
		<ele>391</ele>
		<time>2011-09-11T10:59:46.932Z</time>
		<geoidheight>345</geoidheight>
	</trkpt>
	<trkpt lat="50.684774" lon="6.196759">
		<ele>391</ele>
		<time>2011-09-11T10:59:47.934Z</time>
		<geoidheight>345</geoidheight>
	</trkpt>
	<trkpt lat="50.684759" lon="6.196762">
		<ele>391</ele>
		<time>2011-09-11T10:59:48.933Z</time>
		<geoidheight>345</geoidheight>
	</trkpt>
	<trkpt lat="50.684742" lon="6.196761">
		<ele>391</ele>
		<time>2011-09-11T10:59:49.934Z</time>
		<geoidheight>345</geoidheight>
	</trkpt>
	<trkpt lat="50.684728" lon="6.196764">
		<ele>391</ele>
		<time>2011-09-11T10:59:50.929Z</time>
		<geoidheight>345</geoidheight>
	</trkpt>
	<trkpt lat="50.684716" lon="6.196763">
		<ele>391</ele>
		<time>2011-09-11T10:59:51.927Z</time>
		<geoidheight>345</geoidheight>
	</trkpt>
	<trkpt lat="50.684706" lon="6.196765">
		<ele>392</ele>
		<time>2011-09-11T10:59:52.934Z</time>
		<geoidheight>346</geoidheight>
	</trkpt>
	<trkpt lat="50.684697" lon="6.196768">
		<ele>392</ele>
		<time>2011-09-11T10:59:53.932Z</time>
		<geoidheight>346</geoidheight>
	</trkpt>
	<trkpt lat="50.684687" lon="6.196769">
		<ele>392</ele>
		<time>2011-09-11T10:59:54.930Z</time>
		<geoidheight>346</geoidheight>
	</trkpt>
	<trkpt lat="50.684677" lon="6.196768">
		<ele>392</ele>
		<time>2011-09-11T10:59:55.931Z</time>
		<geoidheight>346</geoidheight>
	</trkpt>
	<trkpt lat="50.684666" lon="6.196770">
		<ele>392</ele>
		<time>2011-09-11T10:59:56.931Z</time>
		<geoidheight>346</geoidheight>
	</trkpt>
	<trkpt lat="50.684656" lon="6.196772">
		<ele>392</ele>
		<time>2011-09-11T10:59:57.934Z</time>
		<geoidheight>346</geoidheight>
	</trkpt>
	<trkpt lat="50.684645" lon="6.196774">
		<ele>392</ele>
		<time>2011-09-11T10:59:58.934Z</time>
		<geoidheight>346</geoidheight>
	</trkpt>
	<trkpt lat="50.684634" lon="6.196776">
		<ele>392</ele>
		<time>2011-09-11T10:59:59.933Z</time>
		<geoidheight>346</geoidheight>
	</trkpt>
	<trkpt lat="50.684622" lon="6.196774">
		<ele>392</ele>
		<time>2011-09-11T11:00:00.927Z</time>
		<geoidheight>346</geoidheight>
	</trkpt>
	<trkpt lat="50.684608" lon="6.196769">
		<ele>392</ele>
		<time>2011-09-11T11:00:01.932Z</time>
		<geoidheight>346</geoidheight>
	</trkpt>
	<trkpt lat="50.684590" lon="6.196764">
		<ele>392</ele>
		<time>2011-09-11T11:00:02.937Z</time>
		<geoidheight>346</geoidheight>
	</trkpt>
	<trkpt lat="50.684572" lon="6.196762">
		<ele>392</ele>
		<time>2011-09-11T11:00:03.939Z</time>
		<geoidheight>346</geoidheight>
	</trkpt>
	<trkpt lat="50.684557" lon="6.196759">
		<ele>392</ele>
		<time>2011-09-11T11:00:04.932Z</time>
		<geoidheight>346</geoidheight>
	</trkpt>
	<trkpt lat="50.684543" lon="6.196760">
		<ele>392</ele>
		<time>2011-09-11T11:00:05.935Z</time>
		<geoidheight>346</geoidheight>
	</trkpt>
	<trkpt lat="50.684530" lon="6.196761">
		<ele>392</ele>
		<time>2011-09-11T11:00:06.923Z</time>
		<geoidheight>346</geoidheight>
	</trkpt>
	<trkpt lat="50.684518" lon="6.196761">
		<ele>392</ele>
		<time>2011-09-11T11:00:07.923Z</time>
		<geoidheight>346</geoidheight>
	</trkpt>
	<trkpt lat="50.684507" lon="6.196761">
		<ele>392</ele>
		<time>2011-09-11T11:00:08.925Z</time>
		<geoidheight>346</geoidheight>
	</trkpt>
	<trkpt lat="50.684495" lon="6.196759">
		<ele>392</ele>
		<time>2011-09-11T11:00:09.923Z</time>
		<geoidheight>346</geoidheight>
	</trkpt>
	<trkpt lat="50.684488" lon="6.196752">
		<ele>392</ele>
		<time>2011-09-11T11:00:10.925Z</time>
		<geoidheight>346</geoidheight>
	</trkpt>
	<trkpt lat="50.684478" lon="6.196754">
		<ele>392</ele>
		<time>2011-09-11T11:00:11.926Z</time>
		<geoidheight>346</geoidheight>
	</trkpt>
	<trkpt lat="50.684464" lon="6.196756">
		<ele>392</ele>
		<time>2011-09-11T11:00:12.923Z</time>
		<geoidheight>346</geoidheight>
	</trkpt>
	<trkpt lat="50.684451" lon="6.196756">
		<ele>392</ele>
		<time>2011-09-11T11:00:13.924Z</time>
		<geoidheight>346</geoidheight>
	</trkpt>
	<trkpt lat="50.684438" lon="6.196757">
		<ele>393</ele>
		<time>2011-09-11T11:00:14.922Z</time>
		<geoidheight>347</geoidheight>
	</trkpt>
	<trkpt lat="50.684426" lon="6.196762">
		<ele>393</ele>
		<time>2011-09-11T11:00:15.932Z</time>
		<geoidheight>347</geoidheight>
	</trkpt>
	<trkpt lat="50.684426" lon="6.196762">
		<ele>393</ele>
		<time>2011-09-11T11:00:16.933Z</time>
		<geoidheight>347</geoidheight>
	</trkpt>
	<trkpt lat="50.684426" lon="6.196762">
		<ele>393</ele>
		<time>2011-09-11T11:00:17.937Z</time>
		<geoidheight>347</geoidheight>
	</trkpt>
	<trkpt lat="50.684407" lon="6.196773">
		<ele>393</ele>
		<time>2011-09-11T11:00:18.935Z</time>
		<geoidheight>347</geoidheight>
	</trkpt>
	<trkpt lat="50.684398" lon="6.196777">
		<ele>393</ele>
		<time>2011-09-11T11:00:19.932Z</time>
		<geoidheight>347</geoidheight>
	</trkpt>
	<trkpt lat="50.684387" lon="6.196784">
		<ele>393</ele>
		<time>2011-09-11T11:00:20.932Z</time>
		<geoidheight>347</geoidheight>
	</trkpt>
	<trkpt lat="50.684376" lon="6.196791">
		<ele>393</ele>
		<time>2011-09-11T11:00:21.930Z</time>
		<geoidheight>347</geoidheight>
	</trkpt>
	<trkpt lat="50.684364" lon="6.196797">
		<ele>393</ele>
		<time>2011-09-11T11:00:22.932Z</time>
		<geoidheight>347</geoidheight>
	</trkpt>
	<trkpt lat="50.684354" lon="6.196803">
		<ele>393</ele>
		<time>2011-09-11T11:00:23.943Z</time>
		<geoidheight>347</geoidheight>
	</trkpt>
	<trkpt lat="50.684344" lon="6.196812">
		<ele>393</ele>
		<time>2011-09-11T11:00:24.934Z</time>
		<geoidheight>347</geoidheight>
	</trkpt>
	<trkpt lat="50.684335" lon="6.196822">
		<ele>393</ele>
		<time>2011-09-11T11:00:25.923Z</time>
		<geoidheight>347</geoidheight>
	</trkpt>
	<trkpt lat="50.684327" lon="6.196832">
		<ele>393</ele>
		<time>2011-09-11T11:00:26.923Z</time>
		<geoidheight>347</geoidheight>
	</trkpt>
	<trkpt lat="50.684318" lon="6.196839">
		<ele>393</ele>
		<time>2011-09-11T11:00:27.923Z</time>
		<geoidheight>347</geoidheight>
	</trkpt>
	<trkpt lat="50.684308" lon="6.196847">
		<ele>393</ele>
		<time>2011-09-11T11:00:28.926Z</time>
		<geoidheight>347</geoidheight>
	</trkpt>
	<trkpt lat="50.684295" lon="6.196849">
		<ele>393</ele>
		<time>2011-09-11T11:00:29.923Z</time>
		<geoidheight>347</geoidheight>
	</trkpt>
	<trkpt lat="50.684280" lon="6.196847">
		<ele>393</ele>
		<time>2011-09-11T11:00:30.923Z</time>
		<geoidheight>347</geoidheight>
	</trkpt>
	<trkpt lat="50.684268" lon="6.196846">
		<ele>393</ele>
		<time>2011-09-11T11:00:31.927Z</time>
		<geoidheight>347</geoidheight>
	</trkpt>
	<trkpt lat="50.684257" lon="6.196842">
		<ele>393</ele>
		<time>2011-09-11T11:00:32.938Z</time>
		<geoidheight>347</geoidheight>
	</trkpt>
	<trkpt lat="50.684257" lon="6.196842">
		<ele>393</ele>
		<time>2011-09-11T11:00:33.936Z</time>
		<geoidheight>347</geoidheight>
	</trkpt>
	<trkpt lat="50.684257" lon="6.196842">
		<ele>393</ele>
		<time>2011-09-11T11:00:34.930Z</time>
		<geoidheight>347</geoidheight>
	</trkpt>
	<trkpt lat="50.684220" lon="6.196851">
		<ele>393</ele>
		<time>2011-09-11T11:00:35.935Z</time>
		<geoidheight>347</geoidheight>
	</trkpt>
	<trkpt lat="50.684198" lon="6.196856">
		<ele>393</ele>
		<time>2011-09-11T11:00:36.933Z</time>
		<geoidheight>347</geoidheight>
	</trkpt>
	<trkpt lat="50.684176" lon="6.196861">
		<ele>393</ele>
		<time>2011-09-11T11:00:37.931Z</time>
		<geoidheight>347</geoidheight>
	</trkpt>
	<trkpt lat="50.684150" lon="6.196873">
		<ele>393</ele>
		<time>2011-09-11T11:00:38.926Z</time>
		<geoidheight>347</geoidheight>
	</trkpt>
	<trkpt lat="50.684122" lon="6.196886">
		<ele>393</ele>
		<time>2011-09-11T11:00:39.931Z</time>
		<geoidheight>347</geoidheight>
	</trkpt>
	<trkpt lat="50.684097" lon="6.196893">
		<ele>393</ele>
		<time>2011-09-11T11:00:40.929Z</time>
		<geoidheight>347</geoidheight>
	</trkpt>
	<trkpt lat="50.684066" lon="6.196897">
		<ele>393</ele>
		<time>2011-09-11T11:00:41.932Z</time>
		<geoidheight>347</geoidheight>
	</trkpt>
	<trkpt lat="50.684029" lon="6.196893">
		<ele>393</ele>
		<time>2011-09-11T11:00:42.931Z</time>
		<geoidheight>347</geoidheight>
	</trkpt>
	<trkpt lat="50.683998" lon="6.196892">
		<ele>393</ele>
		<time>2011-09-11T11:00:43.941Z</time>
		<geoidheight>347</geoidheight>
	</trkpt>
	<trkpt lat="50.683966" lon="6.196894">
		<ele>393</ele>
		<time>2011-09-11T11:00:44.929Z</time>
		<geoidheight>347</geoidheight>
	</trkpt>
	<trkpt lat="50.683938" lon="6.196894">
		<ele>393</ele>
		<time>2011-09-11T11:00:45.925Z</time>
		<geoidheight>347</geoidheight>
	</trkpt>
	<trkpt lat="50.683915" lon="6.196895">
		<ele>393</ele>
		<time>2011-09-11T11:00:46.929Z</time>
		<geoidheight>347</geoidheight>
	</trkpt>
	<trkpt lat="50.683895" lon="6.196896">
		<ele>393</ele>
		<time>2011-09-11T11:00:47.931Z</time>
		<geoidheight>347</geoidheight>
	</trkpt>
	<trkpt lat="50.683880" lon="6.196900">
		<ele>393</ele>
		<time>2011-09-11T11:00:48.930Z</time>
		<geoidheight>347</geoidheight>
	</trkpt>
	<trkpt lat="50.683867" lon="6.196905">
		<ele>393</ele>
		<time>2011-09-11T11:00:49.931Z</time>
		<geoidheight>347</geoidheight>
	</trkpt>
	<trkpt lat="50.683856" lon="6.196907">
		<ele>393</ele>
		<time>2011-09-11T11:00:50.929Z</time>
		<geoidheight>347</geoidheight>
	</trkpt>
	<trkpt lat="50.683846" lon="6.196913">
		<ele>393</ele>
		<time>2011-09-11T11:00:51.938Z</time>
		<geoidheight>347</geoidheight>
	</trkpt>
	<trkpt lat="50.683835" lon="6.196914">
		<ele>393</ele>
		<time>2011-09-11T11:00:52.937Z</time>
		<geoidheight>347</geoidheight>
	</trkpt>
	<trkpt lat="50.683820" lon="6.196914">
		<ele>393</ele>
		<time>2011-09-11T11:00:53.932Z</time>
		<geoidheight>347</geoidheight>
	</trkpt>
	<trkpt lat="50.683803" lon="6.196918">
		<ele>393</ele>
		<time>2011-09-11T11:00:54.927Z</time>
		<geoidheight>347</geoidheight>
	</trkpt>
	<trkpt lat="50.683788" lon="6.196923">
		<ele>393</ele>
		<time>2011-09-11T11:00:55.937Z</time>
		<geoidheight>347</geoidheight>
	</trkpt>
	<trkpt lat="50.683776" lon="6.196928">
		<ele>393</ele>
		<time>2011-09-11T11:00:56.946Z</time>
		<geoidheight>347</geoidheight>
	</trkpt>
	<trkpt lat="50.683765" lon="6.196934">
		<ele>393</ele>
		<time>2011-09-11T11:00:57.925Z</time>
		<geoidheight>347</geoidheight>
	</trkpt>
	<trkpt lat="50.683760" lon="6.196945">
		<ele>393</ele>
		<time>2011-09-11T11:00:58.928Z</time>
		<geoidheight>347</geoidheight>
	</trkpt>
	<trkpt lat="50.683752" lon="6.196947">
		<ele>393</ele>
		<time>2011-09-11T11:00:59.930Z</time>
		<geoidheight>347</geoidheight>
	</trkpt>
	<trkpt lat="50.683741" lon="6.196949">
		<ele>393</ele>
		<time>2011-09-11T11:01:00.937Z</time>
		<geoidheight>347</geoidheight>
	</trkpt>
	<trkpt lat="50.683731" lon="6.196947">
		<ele>393</ele>
		<time>2011-09-11T11:01:01.934Z</time>
		<geoidheight>347</geoidheight>
	</trkpt>
	<trkpt lat="50.683721" lon="6.196947">
		<ele>393</ele>
		<time>2011-09-11T11:01:02.936Z</time>
		<geoidheight>347</geoidheight>
	</trkpt>
	<trkpt lat="50.683712" lon="6.196948">
		<ele>393</ele>
		<time>2011-09-11T11:01:03.932Z</time>
		<geoidheight>347</geoidheight>
	</trkpt>
	<trkpt lat="50.683702" lon="6.196949">
		<ele>393</ele>
		<time>2011-09-11T11:01:04.934Z</time>
		<geoidheight>347</geoidheight>
	</trkpt>
	<trkpt lat="50.683691" lon="6.196954">
		<ele>393</ele>
		<time>2011-09-11T11:01:05.924Z</time>
		<geoidheight>347</geoidheight>
	</trkpt>
	<trkpt lat="50.683683" lon="6.196956">
		<ele>393</ele>
		<time>2011-09-11T11:01:06.924Z</time>
		<geoidheight>347</geoidheight>
	</trkpt>
	<trkpt lat="50.683675" lon="6.196961">
		<ele>393</ele>
		<time>2011-09-11T11:01:07.924Z</time>
		<geoidheight>347</geoidheight>
	</trkpt>
	<trkpt lat="50.683667" lon="6.196960">
		<ele>393</ele>
		<time>2011-09-11T11:01:08.922Z</time>
		<geoidheight>347</geoidheight>
	</trkpt>
	<trkpt lat="50.683659" lon="6.196962">
		<ele>393</ele>
		<time>2011-09-11T11:01:09.927Z</time>
		<geoidheight>347</geoidheight>
	</trkpt>
	<trkpt lat="50.683650" lon="6.196964">
		<ele>393</ele>
		<time>2011-09-11T11:01:10.923Z</time>
		<geoidheight>347</geoidheight>
	</trkpt>
	<trkpt lat="50.683641" lon="6.196967">
		<ele>393</ele>
		<time>2011-09-11T11:01:11.932Z</time>
		<geoidheight>347</geoidheight>
	</trkpt>
	<trkpt lat="50.683633" lon="6.196969">
		<ele>393</ele>
		<time>2011-09-11T11:01:12.933Z</time>
		<geoidheight>347</geoidheight>
	</trkpt>
	<trkpt lat="50.683625" lon="6.196972">
		<ele>393</ele>
		<time>2011-09-11T11:01:13.934Z</time>
		<geoidheight>347</geoidheight>
	</trkpt>
	<trkpt lat="50.683617" lon="6.196973">
		<ele>393</ele>
		<time>2011-09-11T11:01:14.942Z</time>
		<geoidheight>347</geoidheight>
	</trkpt>
	<trkpt lat="50.683607" lon="6.196975">
		<ele>393</ele>
		<time>2011-09-11T11:01:15.933Z</time>
		<geoidheight>347</geoidheight>
	</trkpt>
	<trkpt lat="50.683598" lon="6.196973">
		<ele>393</ele>
		<time>2011-09-11T11:01:16.932Z</time>
		<geoidheight>347</geoidheight>
	</trkpt>
	<trkpt lat="50.683590" lon="6.196975">
		<ele>393</ele>
		<time>2011-09-11T11:01:17.935Z</time>
		<geoidheight>347</geoidheight>
	</trkpt>
	<trkpt lat="50.683582" lon="6.196976">
		<ele>393</ele>
		<time>2011-09-11T11:01:18.933Z</time>
		<geoidheight>347</geoidheight>
	</trkpt>
	<trkpt lat="50.683571" lon="6.196981">
		<ele>393</ele>
		<time>2011-09-11T11:01:19.933Z</time>
		<geoidheight>347</geoidheight>
	</trkpt>
	<trkpt lat="50.683560" lon="6.196988">
		<ele>393</ele>
		<time>2011-09-11T11:01:20.935Z</time>
		<geoidheight>347</geoidheight>
	</trkpt>
	<trkpt lat="50.683548" lon="6.196995">
		<ele>393</ele>
		<time>2011-09-11T11:01:21.928Z</time>
		<geoidheight>347</geoidheight>
	</trkpt>
	<trkpt lat="50.683548" lon="6.196995">
		<ele>393</ele>
		<time>2011-09-11T11:01:22.933Z</time>
		<geoidheight>347</geoidheight>
	</trkpt>
	<trkpt lat="50.683548" lon="6.196995">
		<ele>393</ele>
		<time>2011-09-11T11:01:23.943Z</time>
		<geoidheight>347</geoidheight>
	</trkpt>
	<trkpt lat="50.683529" lon="6.197013">
		<ele>393</ele>
		<time>2011-09-11T11:01:24.938Z</time>
		<geoidheight>347</geoidheight>
	</trkpt>
	<trkpt lat="50.683517" lon="6.197017">
		<ele>393</ele>
		<time>2011-09-11T11:01:25.934Z</time>
		<geoidheight>347</geoidheight>
	</trkpt>
	<trkpt lat="50.683506" lon="6.197021">
		<ele>393</ele>
		<time>2011-09-11T11:01:26.935Z</time>
		<geoidheight>347</geoidheight>
	</trkpt>
	<trkpt lat="50.683494" lon="6.197026">
		<ele>393</ele>
		<time>2011-09-11T11:01:27.932Z</time>
		<geoidheight>347</geoidheight>
	</trkpt>
	<trkpt lat="50.683482" lon="6.197029">
		<ele>393</ele>
		<time>2011-09-11T11:01:28.934Z</time>
		<geoidheight>347</geoidheight>
	</trkpt>
	<trkpt lat="50.683470" lon="6.197036">
		<ele>393</ele>
		<time>2011-09-11T11:01:29.936Z</time>
		<geoidheight>347</geoidheight>
	</trkpt>
	<trkpt lat="50.683458" lon="6.197043">
		<ele>393</ele>
		<time>2011-09-11T11:01:30.928Z</time>
		<geoidheight>347</geoidheight>
	</trkpt>
	<trkpt lat="50.683458" lon="6.197043">
		<ele>393</ele>
		<time>2011-09-11T11:01:33.933Z</time>
		<geoidheight>347</geoidheight>
	</trkpt>
	<trkpt lat="50.683424" lon="6.197068">
		<ele>393</ele>
		<time>2011-09-11T11:01:34.931Z</time>
		<geoidheight>347</geoidheight>
	</trkpt>
	<trkpt lat="50.683412" lon="6.197067">
		<ele>393</ele>
		<time>2011-09-11T11:01:35.935Z</time>
		<geoidheight>347</geoidheight>
	</trkpt>
	<trkpt lat="50.683400" lon="6.197066">
		<ele>393</ele>
		<time>2011-09-11T11:01:36.923Z</time>
		<geoidheight>347</geoidheight>
	</trkpt>
	<trkpt lat="50.683385" lon="6.197066">
		<ele>393</ele>
		<time>2011-09-11T11:01:37.924Z</time>
		<geoidheight>347</geoidheight>
	</trkpt>
	<trkpt lat="50.683370" lon="6.197065">
		<ele>393</ele>
		<time>2011-09-11T11:01:38.923Z</time>
		<geoidheight>347</geoidheight>
	</trkpt>
	<trkpt lat="50.683356" lon="6.197061">
		<ele>393</ele>
		<time>2011-09-11T11:01:39.923Z</time>
		<geoidheight>347</geoidheight>
	</trkpt>
	<trkpt lat="50.683344" lon="6.197057">
		<ele>393</ele>
		<time>2011-09-11T11:01:40.934Z</time>
		<geoidheight>347</geoidheight>
	</trkpt>
	<trkpt lat="50.683332" lon="6.197051">
		<ele>393</ele>
		<time>2011-09-11T11:01:41.923Z</time>
		<geoidheight>347</geoidheight>
	</trkpt>
	<trkpt lat="50.683321" lon="6.197051">
		<ele>393</ele>
		<time>2011-09-11T11:01:42.923Z</time>
		<geoidheight>347</geoidheight>
	</trkpt>
	<trkpt lat="50.683310" lon="6.197049">
		<ele>393</ele>
		<time>2011-09-11T11:01:43.925Z</time>
		<geoidheight>347</geoidheight>
	</trkpt>
	<trkpt lat="50.683298" lon="6.197049">
		<ele>393</ele>
		<time>2011-09-11T11:01:44.925Z</time>
		<geoidheight>347</geoidheight>
	</trkpt>
	<trkpt lat="50.683298" lon="6.197049">
		<ele>393</ele>
		<time>2011-09-11T11:01:45.924Z</time>
		<geoidheight>347</geoidheight>
	</trkpt>
	<trkpt lat="50.683287" lon="6.197039">
		<ele>393</ele>
		<time>2011-09-11T11:01:46.924Z</time>
		<geoidheight>347</geoidheight>
	</trkpt>
	<trkpt lat="50.683279" lon="6.197033">
		<ele>393</ele>
		<time>2011-09-11T11:01:47.924Z</time>
		<geoidheight>347</geoidheight>
	</trkpt>
	<trkpt lat="50.683270" lon="6.197026">
		<ele>393</ele>
		<time>2011-09-11T11:01:48.926Z</time>
		<geoidheight>347</geoidheight>
	</trkpt>
	<trkpt lat="50.683262" lon="6.197020">
		<ele>393</ele>
		<time>2011-09-11T11:01:49.924Z</time>
		<geoidheight>347</geoidheight>
	</trkpt>
	<trkpt lat="50.683254" lon="6.197017">
		<ele>393</ele>
		<time>2011-09-11T11:01:50.932Z</time>
		<geoidheight>347</geoidheight>
	</trkpt>
	<trkpt lat="50.683245" lon="6.197010">
		<ele>393</ele>
		<time>2011-09-11T11:01:51.933Z</time>
		<geoidheight>347</geoidheight>
	</trkpt>
	<trkpt lat="50.683238" lon="6.197003">
		<ele>393</ele>
		<time>2011-09-11T11:01:52.934Z</time>
		<geoidheight>347</geoidheight>
	</trkpt>
	<trkpt lat="50.683229" lon="6.196998">
		<ele>393</ele>
		<time>2011-09-11T11:01:53.931Z</time>
		<geoidheight>347</geoidheight>
	</trkpt>
	<trkpt lat="50.683221" lon="6.196993">
		<ele>393</ele>
		<time>2011-09-11T11:01:54.934Z</time>
		<geoidheight>347</geoidheight>
	</trkpt>
	<trkpt lat="50.683213" lon="6.196989">
		<ele>393</ele>
		<time>2011-09-11T11:01:55.933Z</time>
		<geoidheight>347</geoidheight>
	</trkpt>
	<trkpt lat="50.683204" lon="6.196986">
		<ele>393</ele>
		<time>2011-09-11T11:01:56.938Z</time>
		<geoidheight>347</geoidheight>
	</trkpt>
	<trkpt lat="50.683191" lon="6.196979">
		<ele>393</ele>
		<time>2011-09-11T11:01:57.926Z</time>
		<geoidheight>347</geoidheight>
	</trkpt>
	<trkpt lat="50.683178" lon="6.196972">
		<ele>393</ele>
		<time>2011-09-11T11:01:58.924Z</time>
		<geoidheight>347</geoidheight>
	</trkpt>
	<trkpt lat="50.683166" lon="6.196967">
		<ele>393</ele>
		<time>2011-09-11T11:01:59.924Z</time>
		<geoidheight>347</geoidheight>
	</trkpt>
	<trkpt lat="50.683151" lon="6.196960">
		<ele>393</ele>
		<time>2011-09-11T11:02:00.926Z</time>
		<geoidheight>347</geoidheight>
	</trkpt>
	<trkpt lat="50.683135" lon="6.196953">
		<ele>393</ele>
		<time>2011-09-11T11:02:01.923Z</time>
		<geoidheight>347</geoidheight>
	</trkpt>
	<trkpt lat="50.683120" lon="6.196947">
		<ele>393</ele>
		<time>2011-09-11T11:02:02.923Z</time>
		<geoidheight>347</geoidheight>
	</trkpt>
	<trkpt lat="50.683106" lon="6.196945">
		<ele>393</ele>
		<time>2011-09-11T11:02:03.923Z</time>
		<geoidheight>347</geoidheight>
	</trkpt>
	<trkpt lat="50.683090" lon="6.196938">
		<ele>393</ele>
		<time>2011-09-11T11:02:04.924Z</time>
		<geoidheight>347</geoidheight>
	</trkpt>
	<trkpt lat="50.683074" lon="6.196933">
		<ele>393</ele>
		<time>2011-09-11T11:02:05.925Z</time>
		<geoidheight>347</geoidheight>
	</trkpt>
	<trkpt lat="50.683058" lon="6.196926">
		<ele>393</ele>
		<time>2011-09-11T11:02:06.927Z</time>
		<geoidheight>347</geoidheight>
	</trkpt>
	<trkpt lat="50.683042" lon="6.196922">
		<ele>393</ele>
		<time>2011-09-11T11:02:07.933Z</time>
		<geoidheight>347</geoidheight>
	</trkpt>
	<trkpt lat="50.683027" lon="6.196917">
		<ele>393</ele>
		<time>2011-09-11T11:02:08.935Z</time>
		<geoidheight>347</geoidheight>
	</trkpt>
	<trkpt lat="50.683012" lon="6.196914">
		<ele>393</ele>
		<time>2011-09-11T11:02:09.928Z</time>
		<geoidheight>347</geoidheight>
	</trkpt>
	<trkpt lat="50.682997" lon="6.196908">
		<ele>393</ele>
		<time>2011-09-11T11:02:10.932Z</time>
		<geoidheight>347</geoidheight>
	</trkpt>
	<trkpt lat="50.682978" lon="6.196899">
		<ele>393</ele>
		<time>2011-09-11T11:02:11.931Z</time>
		<geoidheight>347</geoidheight>
	</trkpt>
	<trkpt lat="50.682978" lon="6.196899">
		<ele>393</ele>
		<time>2011-09-11T11:02:13.942Z</time>
		<geoidheight>347</geoidheight>
	</trkpt>
	<trkpt lat="50.682926" lon="6.196881">
		<ele>393</ele>
		<time>2011-09-11T11:02:14.936Z</time>
		<geoidheight>347</geoidheight>
	</trkpt>
	<trkpt lat="50.682907" lon="6.196880">
		<ele>393</ele>
		<time>2011-09-11T11:02:15.935Z</time>
		<geoidheight>347</geoidheight>
	</trkpt>
	<trkpt lat="50.682887" lon="6.196879">
		<ele>393</ele>
		<time>2011-09-11T11:02:16.932Z</time>
		<geoidheight>347</geoidheight>
	</trkpt>
	<trkpt lat="50.682866" lon="6.196877">
		<ele>393</ele>
		<time>2011-09-11T11:02:17.938Z</time>
		<geoidheight>347</geoidheight>
	</trkpt>
	<trkpt lat="50.682847" lon="6.196873">
		<ele>393</ele>
		<time>2011-09-11T11:02:18.931Z</time>
		<geoidheight>347</geoidheight>
	</trkpt>
	<trkpt lat="50.682825" lon="6.196868">
		<ele>393</ele>
		<time>2011-09-11T11:02:19.931Z</time>
		<geoidheight>347</geoidheight>
	</trkpt>
	<trkpt lat="50.682805" lon="6.196863">
		<ele>393</ele>
		<time>2011-09-11T11:02:20.931Z</time>
		<geoidheight>347</geoidheight>
	</trkpt>
	<trkpt lat="50.682787" lon="6.196856">
		<ele>393</ele>
		<time>2011-09-11T11:02:21.942Z</time>
		<geoidheight>347</geoidheight>
	</trkpt>
	<trkpt lat="50.682772" lon="6.196848">
		<ele>393</ele>
		<time>2011-09-11T11:02:22.935Z</time>
		<geoidheight>347</geoidheight>
	</trkpt>
	<trkpt lat="50.682757" lon="6.196842">
		<ele>393</ele>
		<time>2011-09-11T11:02:23.939Z</time>
		<geoidheight>347</geoidheight>
	</trkpt>
	<trkpt lat="50.682742" lon="6.196838">
		<ele>393</ele>
		<time>2011-09-11T11:02:24.932Z</time>
		<geoidheight>347</geoidheight>
	</trkpt>
	<trkpt lat="50.682728" lon="6.196832">
		<ele>393</ele>
		<time>2011-09-11T11:02:25.946Z</time>
		<geoidheight>347</geoidheight>
	</trkpt>
	<trkpt lat="50.682728" lon="6.196832">
		<ele>393</ele>
		<time>2011-09-11T11:02:26.929Z</time>
		<geoidheight>347</geoidheight>
	</trkpt>
	<trkpt lat="50.682728" lon="6.196832">
		<ele>393</ele>
		<time>2011-09-11T11:02:27.935Z</time>
		<geoidheight>347</geoidheight>
	</trkpt>
	<trkpt lat="50.682728" lon="6.196832">
		<ele>393</ele>
		<time>2011-09-11T11:02:28.942Z</time>
		<geoidheight>347</geoidheight>
	</trkpt>
	<trkpt lat="50.682702" lon="6.196821">
		<ele>393</ele>
		<time>2011-09-11T11:02:29.940Z</time>
		<geoidheight>347</geoidheight>
	</trkpt>
	<trkpt lat="50.682691" lon="6.196816">
		<ele>393</ele>
		<time>2011-09-11T11:02:30.935Z</time>
		<geoidheight>347</geoidheight>
	</trkpt>
	<trkpt lat="50.682681" lon="6.196811">
		<ele>393</ele>
		<time>2011-09-11T11:02:31.932Z</time>
		<geoidheight>347</geoidheight>
	</trkpt>
	<trkpt lat="50.682671" lon="6.196807">
		<ele>393</ele>
		<time>2011-09-11T11:02:32.929Z</time>
		<geoidheight>347</geoidheight>
	</trkpt>
	<trkpt lat="50.682660" lon="6.196802">
		<ele>393</ele>
		<time>2011-09-11T11:02:33.946Z</time>
		<geoidheight>347</geoidheight>
	</trkpt>
	<trkpt lat="50.682647" lon="6.196795">
		<ele>393</ele>
		<time>2011-09-11T11:02:34.934Z</time>
		<geoidheight>347</geoidheight>
	</trkpt>
	<trkpt lat="50.682647" lon="6.196795">
		<ele>393</ele>
		<time>2011-09-11T11:02:36.936Z</time>
		<geoidheight>347</geoidheight>
	</trkpt>
	<trkpt lat="50.682603" lon="6.196771">
		<ele>393</ele>
		<time>2011-09-11T11:02:37.931Z</time>
		<geoidheight>347</geoidheight>
	</trkpt>
	<trkpt lat="50.682585" lon="6.196763">
		<ele>393</ele>
		<time>2011-09-11T11:02:38.937Z</time>
		<geoidheight>347</geoidheight>
	</trkpt>
	<trkpt lat="50.682569" lon="6.196755">
		<ele>393</ele>
		<time>2011-09-11T11:02:39.940Z</time>
		<geoidheight>347</geoidheight>
	</trkpt>
	<trkpt lat="50.682553" lon="6.196749">
		<ele>393</ele>
		<time>2011-09-11T11:02:40.935Z</time>
		<geoidheight>347</geoidheight>
	</trkpt>
	<trkpt lat="50.682538" lon="6.196742">
		<ele>393</ele>
		<time>2011-09-11T11:02:41.934Z</time>
		<geoidheight>347</geoidheight>
	</trkpt>
	<trkpt lat="50.682523" lon="6.196734">
		<ele>392</ele>
		<time>2011-09-11T11:02:42.938Z</time>
		<geoidheight>346</geoidheight>
	</trkpt>
	<trkpt lat="50.682510" lon="6.196727">
		<ele>392</ele>
		<time>2011-09-11T11:02:43.934Z</time>
		<geoidheight>346</geoidheight>
	</trkpt>
	<trkpt lat="50.682497" lon="6.196720">
		<ele>392</ele>
		<time>2011-09-11T11:02:44.934Z</time>
		<geoidheight>346</geoidheight>
	</trkpt>
	<trkpt lat="50.682484" lon="6.196715">
		<ele>392</ele>
		<time>2011-09-11T11:02:45.934Z</time>
		<geoidheight>346</geoidheight>
	</trkpt>
	<trkpt lat="50.682471" lon="6.196712">
		<ele>392</ele>
		<time>2011-09-11T11:02:46.933Z</time>
		<geoidheight>346</geoidheight>
	</trkpt>
	<trkpt lat="50.682456" lon="6.196709">
		<ele>392</ele>
		<time>2011-09-11T11:02:47.931Z</time>
		<geoidheight>346</geoidheight>
	</trkpt>
	<trkpt lat="50.682442" lon="6.196706">
		<ele>392</ele>
		<time>2011-09-11T11:02:48.933Z</time>
		<geoidheight>346</geoidheight>
	</trkpt>
	<trkpt lat="50.682429" lon="6.196700">
		<ele>392</ele>
		<time>2011-09-11T11:02:49.935Z</time>
		<geoidheight>346</geoidheight>
	</trkpt>
	<trkpt lat="50.682420" lon="6.196689">
		<ele>392</ele>
		<time>2011-09-11T11:02:50.940Z</time>
		<geoidheight>346</geoidheight>
	</trkpt>
	<trkpt lat="50.682409" lon="6.196683">
		<ele>392</ele>
		<time>2011-09-11T11:02:51.931Z</time>
		<geoidheight>346</geoidheight>
	</trkpt>
	<trkpt lat="50.682398" lon="6.196679">
		<ele>392</ele>
		<time>2011-09-11T11:02:52.935Z</time>
		<geoidheight>346</geoidheight>
	</trkpt>
	<trkpt lat="50.682384" lon="6.196677">
		<ele>392</ele>
		<time>2011-09-11T11:02:53.929Z</time>
		<geoidheight>346</geoidheight>
	</trkpt>
	<trkpt lat="50.682370" lon="6.196670">
		<ele>392</ele>
		<time>2011-09-11T11:02:54.932Z</time>
		<geoidheight>346</geoidheight>
	</trkpt>
	<trkpt lat="50.682352" lon="6.196658">
		<ele>392</ele>
		<time>2011-09-11T11:02:55.934Z</time>
		<geoidheight>346</geoidheight>
	</trkpt>
	<trkpt lat="50.682328" lon="6.196648">
		<ele>392</ele>
		<time>2011-09-11T11:02:56.933Z</time>
		<geoidheight>346</geoidheight>
	</trkpt>
	<trkpt lat="50.682307" lon="6.196637">
		<ele>392</ele>
		<time>2011-09-11T11:02:57.933Z</time>
		<geoidheight>346</geoidheight>
	</trkpt>
	<trkpt lat="50.682287" lon="6.196624">
		<ele>392</ele>
		<time>2011-09-11T11:02:58.940Z</time>
		<geoidheight>346</geoidheight>
	</trkpt>
	<trkpt lat="50.682271" lon="6.196608">
		<ele>392</ele>
		<time>2011-09-11T11:02:59.931Z</time>
		<geoidheight>346</geoidheight>
	</trkpt>
	<trkpt lat="50.682256" lon="6.196594">
		<ele>392</ele>
		<time>2011-09-11T11:03:00.934Z</time>
		<geoidheight>346</geoidheight>
	</trkpt>
	<trkpt lat="50.682244" lon="6.196578">
		<ele>392</ele>
		<time>2011-09-11T11:03:01.931Z</time>
		<geoidheight>346</geoidheight>
	</trkpt>
	<trkpt lat="50.682228" lon="6.196566">
		<ele>392</ele>
		<time>2011-09-11T11:03:02.932Z</time>
		<geoidheight>346</geoidheight>
	</trkpt>
	<trkpt lat="50.682212" lon="6.196555">
		<ele>392</ele>
		<time>2011-09-11T11:03:03.929Z</time>
		<geoidheight>346</geoidheight>
	</trkpt>
	<trkpt lat="50.682197" lon="6.196547">
		<ele>392</ele>
		<time>2011-09-11T11:03:04.938Z</time>
		<geoidheight>346</geoidheight>
	</trkpt>
	<trkpt lat="50.682186" lon="6.196543">
		<ele>392</ele>
		<time>2011-09-11T11:03:05.931Z</time>
		<geoidheight>346</geoidheight>
	</trkpt>
	<trkpt lat="50.682175" lon="6.196541">
		<ele>392</ele>
		<time>2011-09-11T11:03:06.936Z</time>
		<geoidheight>346</geoidheight>
	</trkpt>
	<trkpt lat="50.682164" lon="6.196538">
		<ele>392</ele>
		<time>2011-09-11T11:03:07.939Z</time>
		<geoidheight>346</geoidheight>
	</trkpt>
	<trkpt lat="50.682154" lon="6.196536">
		<ele>392</ele>
		<time>2011-09-11T11:03:08.936Z</time>
		<geoidheight>346</geoidheight>
	</trkpt>
	<trkpt lat="50.682145" lon="6.196533">
		<ele>392</ele>
		<time>2011-09-11T11:03:09.935Z</time>
		<geoidheight>346</geoidheight>
	</trkpt>
	<trkpt lat="50.682134" lon="6.196525">
		<ele>391</ele>
		<time>2011-09-11T11:03:10.930Z</time>
		<geoidheight>345</geoidheight>
	</trkpt>
	<trkpt lat="50.682121" lon="6.196521">
		<ele>391</ele>
		<time>2011-09-11T11:03:11.931Z</time>
		<geoidheight>345</geoidheight>
	</trkpt>
	<trkpt lat="50.682109" lon="6.196517">
		<ele>391</ele>
		<time>2011-09-11T11:03:12.946Z</time>
		<geoidheight>345</geoidheight>
	</trkpt>
	<trkpt lat="50.682098" lon="6.196513">
		<ele>391</ele>
		<time>2011-09-11T11:03:13.929Z</time>
		<geoidheight>345</geoidheight>
	</trkpt>
	<trkpt lat="50.682089" lon="6.196506">
		<ele>391</ele>
		<time>2011-09-11T11:03:14.938Z</time>
		<geoidheight>345</geoidheight>
	</trkpt>
	<trkpt lat="50.682083" lon="6.196495">
		<ele>391</ele>
		<time>2011-09-11T11:03:15.940Z</time>
		<geoidheight>345</geoidheight>
	</trkpt>
	<trkpt lat="50.682074" lon="6.196486">
		<ele>391</ele>
		<time>2011-09-11T11:03:16.935Z</time>
		<geoidheight>345</geoidheight>
	</trkpt>
	<trkpt lat="50.682064" lon="6.196482">
		<ele>391</ele>
		<time>2011-09-11T11:03:17.933Z</time>
		<geoidheight>345</geoidheight>
	</trkpt>
	<trkpt lat="50.682053" lon="6.196476">
		<ele>391</ele>
		<time>2011-09-11T11:03:18.930Z</time>
		<geoidheight>345</geoidheight>
	</trkpt>
	<trkpt lat="50.682045" lon="6.196465">
		<ele>391</ele>
		<time>2011-09-11T11:03:19.930Z</time>
		<geoidheight>345</geoidheight>
	</trkpt>
	<trkpt lat="50.682036" lon="6.196454">
		<ele>390</ele>
		<time>2011-09-11T11:03:20.931Z</time>
		<geoidheight>344</geoidheight>
	</trkpt>
	<trkpt lat="50.682024" lon="6.196447">
		<ele>390</ele>
		<time>2011-09-11T11:03:21.937Z</time>
		<geoidheight>344</geoidheight>
	</trkpt>
	<trkpt lat="50.682011" lon="6.196442">
		<ele>390</ele>
		<time>2011-09-11T11:03:22.931Z</time>
		<geoidheight>344</geoidheight>
	</trkpt>
	<trkpt lat="50.681998" lon="6.196437">
		<ele>390</ele>
		<time>2011-09-11T11:03:23.927Z</time>
		<geoidheight>344</geoidheight>
	</trkpt>
	<trkpt lat="50.681986" lon="6.196430">
		<ele>390</ele>
		<time>2011-09-11T11:03:24.925Z</time>
		<geoidheight>344</geoidheight>
	</trkpt>
	<trkpt lat="50.681974" lon="6.196424">
		<ele>390</ele>
		<time>2011-09-11T11:03:25.925Z</time>
		<geoidheight>344</geoidheight>
	</trkpt>
	<trkpt lat="50.681963" lon="6.196416">
		<ele>390</ele>
		<time>2011-09-11T11:03:26.927Z</time>
		<geoidheight>344</geoidheight>
	</trkpt>
	<trkpt lat="50.681942" lon="6.196404">
		<ele>390</ele>
		<time>2011-09-11T11:03:27.924Z</time>
		<geoidheight>344</geoidheight>
	</trkpt>
	<trkpt lat="50.681922" lon="6.196392">
		<ele>389</ele>
		<time>2011-09-11T11:03:28.925Z</time>
		<geoidheight>343</geoidheight>
	</trkpt>
	<trkpt lat="50.681902" lon="6.196383">
		<ele>389</ele>
		<time>2011-09-11T11:03:29.926Z</time>
		<geoidheight>343</geoidheight>
	</trkpt>
	<trkpt lat="50.681877" lon="6.196375">
		<ele>389</ele>
		<time>2011-09-11T11:03:30.924Z</time>
		<geoidheight>343</geoidheight>
	</trkpt>
	<trkpt lat="50.681854" lon="6.196369">
		<ele>389</ele>
		<time>2011-09-11T11:03:31.925Z</time>
		<geoidheight>343</geoidheight>
	</trkpt>
	<trkpt lat="50.681833" lon="6.196364">
		<ele>389</ele>
		<time>2011-09-11T11:03:32.926Z</time>
		<geoidheight>343</geoidheight>
	</trkpt>
	<trkpt lat="50.681814" lon="6.196357">
		<ele>389</ele>
		<time>2011-09-11T11:03:33.925Z</time>
		<geoidheight>343</geoidheight>
	</trkpt>
	<trkpt lat="50.681796" lon="6.196349">
		<ele>389</ele>
		<time>2011-09-11T11:03:34.925Z</time>
		<geoidheight>343</geoidheight>
	</trkpt>
	<trkpt lat="50.681782" lon="6.196336">
		<ele>388</ele>
		<time>2011-09-11T11:03:35.927Z</time>
		<geoidheight>342</geoidheight>
	</trkpt>
	<trkpt lat="50.681769" lon="6.196324">
		<ele>388</ele>
		<time>2011-09-11T11:03:36.924Z</time>
		<geoidheight>342</geoidheight>
	</trkpt>
	<trkpt lat="50.681754" lon="6.196311">
		<ele>388</ele>
		<time>2011-09-11T11:03:37.925Z</time>
		<geoidheight>342</geoidheight>
	</trkpt>
	<trkpt lat="50.681740" lon="6.196296">
		<ele>388</ele>
		<time>2011-09-11T11:03:38.924Z</time>
		<geoidheight>342</geoidheight>
	</trkpt>
	<trkpt lat="50.681726" lon="6.196282">
		<ele>388</ele>
		<time>2011-09-11T11:03:39.928Z</time>
		<geoidheight>342</geoidheight>
	</trkpt>
	<trkpt lat="50.681715" lon="6.196271">
		<ele>388</ele>
		<time>2011-09-11T11:03:40.930Z</time>
		<geoidheight>342</geoidheight>
	</trkpt>
	<trkpt lat="50.681705" lon="6.196258">
		<ele>387</ele>
		<time>2011-09-11T11:03:41.933Z</time>
		<geoidheight>341</geoidheight>
	</trkpt>
	<trkpt lat="50.681695" lon="6.196249">
		<ele>387</ele>
		<time>2011-09-11T11:03:42.937Z</time>
		<geoidheight>341</geoidheight>
	</trkpt>
	<trkpt lat="50.681684" lon="6.196245">
		<ele>387</ele>
		<time>2011-09-11T11:03:43.933Z</time>
		<geoidheight>341</geoidheight>
	</trkpt>
	<trkpt lat="50.681671" lon="6.196242">
		<ele>387</ele>
		<time>2011-09-11T11:03:44.933Z</time>
		<geoidheight>341</geoidheight>
	</trkpt>
	<trkpt lat="50.681671" lon="6.196242">
		<ele>387</ele>
		<time>2011-09-11T11:03:50.924Z</time>
		<geoidheight>341</geoidheight>
	</trkpt>
	<trkpt lat="50.681628" lon="6.196205">
		<ele>387</ele>
		<time>2011-09-11T11:03:51.929Z</time>
		<geoidheight>341</geoidheight>
	</trkpt>
	<trkpt lat="50.681628" lon="6.196205">
		<ele>387</ele>
		<time>2011-09-11T11:03:56.935Z</time>
		<geoidheight>341</geoidheight>
	</trkpt>
	<trkpt lat="50.681581" lon="6.196185">
		<ele>387</ele>
		<time>2011-09-11T11:03:57.939Z</time>
		<geoidheight>341</geoidheight>
	</trkpt>
	<trkpt lat="50.681581" lon="6.196185">
		<ele>386</ele>
		<time>2011-09-11T11:04:01.933Z</time>
		<geoidheight>340</geoidheight>
	</trkpt>
	<trkpt lat="50.681574" lon="6.196096">
		<ele>386</ele>
		<time>2011-09-11T11:04:02.934Z</time>
		<geoidheight>340</geoidheight>
	</trkpt>
	<trkpt lat="50.681574" lon="6.196096">
		<ele>386</ele>
		<time>2011-09-11T11:04:08.934Z</time>
		<geoidheight>340</geoidheight>
	</trkpt>
	<trkpt lat="50.681534" lon="6.196043">
		<ele>386</ele>
		<time>2011-09-11T11:04:09.943Z</time>
		<geoidheight>340</geoidheight>
	</trkpt>
	<trkpt lat="50.681534" lon="6.196043">
		<ele>385</ele>
		<time>2011-09-11T11:04:23.932Z</time>
		<geoidheight>339</geoidheight>
	</trkpt>
	<trkpt lat="50.681523" lon="6.196114">
		<ele>385</ele>
		<time>2011-09-11T11:04:24.937Z</time>
		<geoidheight>339</geoidheight>
	</trkpt>
	<trkpt lat="50.681523" lon="6.196114">
		<ele>385</ele>
		<time>2011-09-11T11:04:31.924Z</time>
		<geoidheight>339</geoidheight>
	</trkpt>
	<trkpt lat="50.681568" lon="6.196087">
		<ele>385</ele>
		<time>2011-09-11T11:04:32.924Z</time>
		<geoidheight>339</geoidheight>
	</trkpt>
	<trkpt lat="50.681568" lon="6.196087">
		<ele>385</ele>
		<time>2011-09-11T11:04:35.925Z</time>
		<geoidheight>339</geoidheight>
	</trkpt>
	<trkpt lat="50.681614" lon="6.196121">
		<ele>385</ele>
		<time>2011-09-11T11:04:36.924Z</time>
		<geoidheight>339</geoidheight>
	</trkpt>
	<trkpt lat="50.681614" lon="6.196121">
		<ele>382</ele>
		<time>2011-09-11T11:05:06.925Z</time>
		<geoidheight>336</geoidheight>
	</trkpt>
	<trkpt lat="50.681607" lon="6.196032">
		<ele>382</ele>
		<time>2011-09-11T11:05:07.925Z</time>
		<geoidheight>336</geoidheight>
	</trkpt>
	<trkpt lat="50.681607" lon="6.196032">
		<ele>382</ele>
		<time>2011-09-11T11:05:10.927Z</time>
		<geoidheight>336</geoidheight>
	</trkpt>
	<trkpt lat="50.681610" lon="6.195943">
		<ele>382</ele>
		<time>2011-09-11T11:05:11.925Z</time>
		<geoidheight>336</geoidheight>
	</trkpt>
	<trkpt lat="50.681610" lon="6.195943">
		<ele>382</ele>
		<time>2011-09-11T11:05:14.925Z</time>
		<geoidheight>336</geoidheight>
	</trkpt>
	<trkpt lat="50.681603" lon="6.195865">
		<ele>382</ele>
		<time>2011-09-11T11:05:15.928Z</time>
		<geoidheight>336</geoidheight>
	</trkpt>
	<trkpt lat="50.681603" lon="6.195865">
		<ele>382</ele>
		<time>2011-09-11T11:05:20.926Z</time>
		<geoidheight>336</geoidheight>
	</trkpt>
	<trkpt lat="50.681581" lon="6.195831">
		<ele>382</ele>
		<time>2011-09-11T11:05:21.927Z</time>
		<geoidheight>336</geoidheight>
	</trkpt>
	<trkpt lat="50.681584" lon="6.195837">
		<ele>382</ele>
		<time>2011-09-11T11:05:22.925Z</time>
		<geoidheight>336</geoidheight>
	</trkpt>
	<trkpt lat="50.681587" lon="6.195844">
		<ele>382</ele>
		<time>2011-09-11T11:05:23.926Z</time>
		<geoidheight>336</geoidheight>
	</trkpt>
	<trkpt lat="50.681593" lon="6.195884">
		<ele>382</ele>
		<time>2011-09-11T11:05:24.927Z</time>
		<geoidheight>336</geoidheight>
	</trkpt>
	<trkpt lat="50.681594" lon="6.195925">
		<ele>382</ele>
		<time>2011-09-11T11:05:25.927Z</time>
		<geoidheight>336</geoidheight>
	</trkpt>
	<trkpt lat="50.681592" lon="6.195963">
		<ele>381</ele>
		<time>2011-09-11T11:05:26.925Z</time>
		<geoidheight>335</geoidheight>
	</trkpt>
	<trkpt lat="50.681586" lon="6.195980">
		<ele>381</ele>
		<time>2011-09-11T11:05:27.927Z</time>
		<geoidheight>335</geoidheight>
	</trkpt>
	<trkpt lat="50.681576" lon="6.195992">
		<ele>381</ele>
		<time>2011-09-11T11:05:28.926Z</time>
		<geoidheight>335</geoidheight>
	</trkpt>
	<trkpt lat="50.681566" lon="6.196001">
		<ele>380</ele>
		<time>2011-09-11T11:05:29.925Z</time>
		<geoidheight>334</geoidheight>
	</trkpt>
	<trkpt lat="50.681553" lon="6.196008">
		<ele>380</ele>
		<time>2011-09-11T11:05:30.928Z</time>
		<geoidheight>334</geoidheight>
	</trkpt>
	<trkpt lat="50.681540" lon="6.196018">
		<ele>380</ele>
		<time>2011-09-11T11:05:31.929Z</time>
		<geoidheight>334</geoidheight>
	</trkpt>
	<trkpt lat="50.681534" lon="6.196025">
		<ele>379</ele>
		<time>2011-09-11T11:05:32.925Z</time>
		<geoidheight>333</geoidheight>
	</trkpt>
	<trkpt lat="50.681525" lon="6.196030">
		<ele>379</ele>
		<time>2011-09-11T11:05:33.935Z</time>
		<geoidheight>333</geoidheight>
	</trkpt>
	<trkpt lat="50.681516" lon="6.196029">
		<ele>379</ele>
		<time>2011-09-11T11:05:34.933Z</time>
		<geoidheight>333</geoidheight>
	</trkpt>
	<trkpt lat="50.681504" lon="6.196028">
		<ele>379</ele>
		<time>2011-09-11T11:05:35.931Z</time>
		<geoidheight>333</geoidheight>
	</trkpt>
	<trkpt lat="50.681495" lon="6.196023">
		<ele>378</ele>
		<time>2011-09-11T11:05:36.938Z</time>
		<geoidheight>332</geoidheight>
	</trkpt>
	<trkpt lat="50.681483" lon="6.196021">
		<ele>378</ele>
		<time>2011-09-11T11:05:37.938Z</time>
		<geoidheight>332</geoidheight>
	</trkpt>
	<trkpt lat="50.681470" lon="6.196013">
		<ele>378</ele>
		<time>2011-09-11T11:05:38.931Z</time>
		<geoidheight>332</geoidheight>
	</trkpt>
	<trkpt lat="50.681461" lon="6.196004">
		<ele>378</ele>
		<time>2011-09-11T11:05:39.934Z</time>
		<geoidheight>332</geoidheight>
	</trkpt>
	<trkpt lat="50.681450" lon="6.195994">
		<ele>377</ele>
		<time>2011-09-11T11:05:40.933Z</time>
		<geoidheight>331</geoidheight>
	</trkpt>
	<trkpt lat="50.681438" lon="6.195987">
		<ele>377</ele>
		<time>2011-09-11T11:05:41.938Z</time>
		<geoidheight>331</geoidheight>
	</trkpt>
	<trkpt lat="50.681425" lon="6.195983">
		<ele>377</ele>
		<time>2011-09-11T11:05:42.947Z</time>
		<geoidheight>331</geoidheight>
	</trkpt>
	<trkpt lat="50.681412" lon="6.195977">
		<ele>377</ele>
		<time>2011-09-11T11:05:43.929Z</time>
		<geoidheight>331</geoidheight>
	</trkpt>
	<trkpt lat="50.681400" lon="6.195970">
		<ele>377</ele>
		<time>2011-09-11T11:05:44.925Z</time>
		<geoidheight>331</geoidheight>
	</trkpt>
	<trkpt lat="50.681388" lon="6.195966">
		<ele>376</ele>
		<time>2011-09-11T11:05:45.925Z</time>
		<geoidheight>330</geoidheight>
	</trkpt>
	<trkpt lat="50.681378" lon="6.195957">
		<ele>376</ele>
		<time>2011-09-11T11:05:46.936Z</time>
		<geoidheight>330</geoidheight>
	</trkpt>
	<trkpt lat="50.681368" lon="6.195948">
		<ele>376</ele>
		<time>2011-09-11T11:05:47.931Z</time>
		<geoidheight>330</geoidheight>
	</trkpt>
	<trkpt lat="50.681357" lon="6.195941">
		<ele>376</ele>
		<time>2011-09-11T11:05:48.932Z</time>
		<geoidheight>330</geoidheight>
	</trkpt>
	<trkpt lat="50.681346" lon="6.195934">
		<ele>376</ele>
		<time>2011-09-11T11:05:49.935Z</time>
		<geoidheight>330</geoidheight>
	</trkpt>
	<trkpt lat="50.681337" lon="6.195924">
		<ele>376</ele>
		<time>2011-09-11T11:05:50.936Z</time>
		<geoidheight>330</geoidheight>
	</trkpt>
	<trkpt lat="50.681330" lon="6.195912">
		<ele>375</ele>
		<time>2011-09-11T11:05:51.950Z</time>
		<geoidheight>329</geoidheight>
	</trkpt>
	<trkpt lat="50.681323" lon="6.195905">
		<ele>375</ele>
		<time>2011-09-11T11:05:52.933Z</time>
		<geoidheight>329</geoidheight>
	</trkpt>
	<trkpt lat="50.681314" lon="6.195904">
		<ele>375</ele>
		<time>2011-09-11T11:05:53.936Z</time>
		<geoidheight>329</geoidheight>
	</trkpt>
	<trkpt lat="50.681305" lon="6.195908">
		<ele>375</ele>
		<time>2011-09-11T11:05:54.935Z</time>
		<geoidheight>329</geoidheight>
	</trkpt>
	<trkpt lat="50.681296" lon="6.195911">
		<ele>375</ele>
		<time>2011-09-11T11:05:55.932Z</time>
		<geoidheight>329</geoidheight>
	</trkpt>
	<trkpt lat="50.681296" lon="6.195911">
		<ele>375</ele>
		<time>2011-09-11T11:05:56.932Z</time>
		<geoidheight>329</geoidheight>
	</trkpt>
	<trkpt lat="50.681293" lon="6.195916">
		<ele>375</ele>
		<time>2011-09-11T11:05:57.934Z</time>
		<geoidheight>329</geoidheight>
	</trkpt>
	<trkpt lat="50.681284" lon="6.195912">
		<ele>374</ele>
		<time>2011-09-11T11:05:58.932Z</time>
		<geoidheight>328</geoidheight>
	</trkpt>
	<trkpt lat="50.681275" lon="6.195908">
		<ele>374</ele>
		<time>2011-09-11T11:05:59.950Z</time>
		<geoidheight>328</geoidheight>
	</trkpt>
	<trkpt lat="50.681266" lon="6.195900">
		<ele>374</ele>
		<time>2011-09-11T11:06:00.936Z</time>
		<geoidheight>328</geoidheight>
	</trkpt>
	<trkpt lat="50.681260" lon="6.195890">
		<ele>374</ele>
		<time>2011-09-11T11:06:01.933Z</time>
		<geoidheight>328</geoidheight>
	</trkpt>
	<trkpt lat="50.681252" lon="6.195884">
		<ele>374</ele>
		<time>2011-09-11T11:06:02.935Z</time>
		<geoidheight>328</geoidheight>
	</trkpt>
	<trkpt lat="50.681244" lon="6.195882">
		<ele>374</ele>
		<time>2011-09-11T11:06:03.938Z</time>
		<geoidheight>328</geoidheight>
	</trkpt>
	<trkpt lat="50.681235" lon="6.195874">
		<ele>374</ele>
		<time>2011-09-11T11:06:04.934Z</time>
		<geoidheight>328</geoidheight>
	</trkpt>
	<trkpt lat="50.681227" lon="6.195866">
		<ele>374</ele>
		<time>2011-09-11T11:06:05.940Z</time>
		<geoidheight>328</geoidheight>
	</trkpt>
	<trkpt lat="50.681216" lon="6.195863">
		<ele>374</ele>
		<time>2011-09-11T11:06:06.937Z</time>
		<geoidheight>328</geoidheight>
	</trkpt>
	<trkpt lat="50.681208" lon="6.195858">
		<ele>373</ele>
		<time>2011-09-11T11:06:07.933Z</time>
		<geoidheight>327</geoidheight>
	</trkpt>
	<trkpt lat="50.681200" lon="6.195856">
		<ele>373</ele>
		<time>2011-09-11T11:06:08.927Z</time>
		<geoidheight>327</geoidheight>
	</trkpt>
	<trkpt lat="50.681193" lon="6.195856">
		<ele>373</ele>
		<time>2011-09-11T11:06:09.926Z</time>
		<geoidheight>327</geoidheight>
	</trkpt>
	<trkpt lat="50.681184" lon="6.195852">
		<ele>373</ele>
		<time>2011-09-11T11:06:10.927Z</time>
		<geoidheight>327</geoidheight>
	</trkpt>
	<trkpt lat="50.681175" lon="6.195846">
		<ele>373</ele>
		<time>2011-09-11T11:06:11.927Z</time>
		<geoidheight>327</geoidheight>
	</trkpt>
	<trkpt lat="50.681166" lon="6.195843">
		<ele>373</ele>
		<time>2011-09-11T11:06:12.926Z</time>
		<geoidheight>327</geoidheight>
	</trkpt>
	<trkpt lat="50.681159" lon="6.195839">
		<ele>373</ele>
		<time>2011-09-11T11:06:13.925Z</time>
		<geoidheight>327</geoidheight>
	</trkpt>
	<trkpt lat="50.681151" lon="6.195835">
		<ele>373</ele>
		<time>2011-09-11T11:06:14.927Z</time>
		<geoidheight>327</geoidheight>
	</trkpt>
	<trkpt lat="50.681140" lon="6.195828">
		<ele>373</ele>
		<time>2011-09-11T11:06:15.926Z</time>
		<geoidheight>327</geoidheight>
	</trkpt>
	<trkpt lat="50.681130" lon="6.195823">
		<ele>373</ele>
		<time>2011-09-11T11:06:16.931Z</time>
		<geoidheight>327</geoidheight>
	</trkpt>
	<trkpt lat="50.681123" lon="6.195817">
		<ele>373</ele>
		<time>2011-09-11T11:06:17.926Z</time>
		<geoidheight>327</geoidheight>
	</trkpt>
	<trkpt lat="50.681115" lon="6.195810">
		<ele>373</ele>
		<time>2011-09-11T11:06:18.935Z</time>
		<geoidheight>327</geoidheight>
	</trkpt>
	<trkpt lat="50.681109" lon="6.195800">
		<ele>373</ele>
		<time>2011-09-11T11:06:19.950Z</time>
		<geoidheight>327</geoidheight>
	</trkpt>
	<trkpt lat="50.681099" lon="6.195792">
		<ele>373</ele>
		<time>2011-09-11T11:06:20.932Z</time>
		<geoidheight>327</geoidheight>
	</trkpt>
	<trkpt lat="50.681078" lon="6.195772">
		<ele>373</ele>
		<time>2011-09-11T11:06:21.933Z</time>
		<geoidheight>327</geoidheight>
	</trkpt>
	<trkpt lat="50.681050" lon="6.195759">
		<ele>373</ele>
		<time>2011-09-11T11:06:22.935Z</time>
		<geoidheight>327</geoidheight>
	</trkpt>
	<trkpt lat="50.681024" lon="6.195744">
		<ele>373</ele>
		<time>2011-09-11T11:06:23.936Z</time>
		<geoidheight>327</geoidheight>
	</trkpt>
	<trkpt lat="50.680990" lon="6.195726">
		<ele>373</ele>
		<time>2011-09-11T11:06:24.936Z</time>
		<geoidheight>327</geoidheight>
	</trkpt>
	<trkpt lat="50.680959" lon="6.195714">
		<ele>372</ele>
		<time>2011-09-11T11:06:25.941Z</time>
		<geoidheight>326</geoidheight>
	</trkpt>
	<trkpt lat="50.680932" lon="6.195702">
		<ele>372</ele>
		<time>2011-09-11T11:06:26.945Z</time>
		<geoidheight>326</geoidheight>
	</trkpt>
	<trkpt lat="50.680911" lon="6.195691">
		<ele>372</ele>
		<time>2011-09-11T11:06:27.939Z</time>
		<geoidheight>326</geoidheight>
	</trkpt>
	<trkpt lat="50.680911" lon="6.195691">
		<ele>372</ele>
		<time>2011-09-11T11:06:29.935Z</time>
		<geoidheight>326</geoidheight>
	</trkpt>
	<trkpt lat="50.680870" lon="6.195669">
		<ele>372</ele>
		<time>2011-09-11T11:06:30.939Z</time>
		<geoidheight>326</geoidheight>
	</trkpt>
	<trkpt lat="50.680849" lon="6.195659">
		<ele>372</ele>
		<time>2011-09-11T11:06:31.932Z</time>
		<geoidheight>326</geoidheight>
	</trkpt>
	<trkpt lat="50.680827" lon="6.195650">
		<ele>372</ele>
		<time>2011-09-11T11:06:32.936Z</time>
		<geoidheight>326</geoidheight>
	</trkpt>
	<trkpt lat="50.680809" lon="6.195643">
		<ele>372</ele>
		<time>2011-09-11T11:06:33.940Z</time>
		<geoidheight>326</geoidheight>
	</trkpt>
	<trkpt lat="50.680791" lon="6.195640">
		<ele>372</ele>
		<time>2011-09-11T11:06:34.938Z</time>
		<geoidheight>326</geoidheight>
	</trkpt>
	<trkpt lat="50.680773" lon="6.195636">
		<ele>372</ele>
		<time>2011-09-11T11:06:35.943Z</time>
		<geoidheight>326</geoidheight>
	</trkpt>
	<trkpt lat="50.680755" lon="6.195629">
		<ele>371</ele>
		<time>2011-09-11T11:06:36.938Z</time>
		<geoidheight>325</geoidheight>
	</trkpt>
	<trkpt lat="50.680738" lon="6.195625">
		<ele>371</ele>
		<time>2011-09-11T11:06:37.933Z</time>
		<geoidheight>325</geoidheight>
	</trkpt>
	<trkpt lat="50.680722" lon="6.195619">
		<ele>371</ele>
		<time>2011-09-11T11:06:38.931Z</time>
		<geoidheight>325</geoidheight>
	</trkpt>
	<trkpt lat="50.680708" lon="6.195616">
		<ele>371</ele>
		<time>2011-09-11T11:06:39.943Z</time>
		<geoidheight>325</geoidheight>
	</trkpt>
	<trkpt lat="50.680697" lon="6.195613">
		<ele>371</ele>
		<time>2011-09-11T11:06:40.936Z</time>
		<geoidheight>325</geoidheight>
	</trkpt>
	<trkpt lat="50.680687" lon="6.195611">
		<ele>371</ele>
		<time>2011-09-11T11:06:41.939Z</time>
		<geoidheight>325</geoidheight>
	</trkpt>
	<trkpt lat="50.680678" lon="6.195611">
		<ele>371</ele>
		<time>2011-09-11T11:06:42.946Z</time>
		<geoidheight>325</geoidheight>
	</trkpt>
	<trkpt lat="50.680671" lon="6.195610">
		<ele>371</ele>
		<time>2011-09-11T11:06:43.936Z</time>
		<geoidheight>325</geoidheight>
	</trkpt>
	<trkpt lat="50.680662" lon="6.195608">
		<ele>371</ele>
		<time>2011-09-11T11:06:44.931Z</time>
		<geoidheight>325</geoidheight>
	</trkpt>
	<trkpt lat="50.680653" lon="6.195606">
		<ele>370</ele>
		<time>2011-09-11T11:06:45.932Z</time>
		<geoidheight>324</geoidheight>
	</trkpt>
	<trkpt lat="50.680643" lon="6.195606">
		<ele>370</ele>
		<time>2011-09-11T11:06:46.935Z</time>
		<geoidheight>324</geoidheight>
	</trkpt>
	<trkpt lat="50.680630" lon="6.195605">
		<ele>370</ele>
		<time>2011-09-11T11:06:47.938Z</time>
		<geoidheight>324</geoidheight>
	</trkpt>
	<trkpt lat="50.680616" lon="6.195599">
		<ele>370</ele>
		<time>2011-09-11T11:06:48.932Z</time>
		<geoidheight>324</geoidheight>
	</trkpt>
	<trkpt lat="50.680599" lon="6.195595">
		<ele>370</ele>
		<time>2011-09-11T11:06:49.934Z</time>
		<geoidheight>324</geoidheight>
	</trkpt>
	<trkpt lat="50.680583" lon="6.195596">
		<ele>370</ele>
		<time>2011-09-11T11:06:50.934Z</time>
		<geoidheight>324</geoidheight>
	</trkpt>
	<trkpt lat="50.680562" lon="6.195598">
		<ele>370</ele>
		<time>2011-09-11T11:06:51.935Z</time>
		<geoidheight>324</geoidheight>
	</trkpt>
	<trkpt lat="50.680547" lon="6.195608">
		<ele>370</ele>
		<time>2011-09-11T11:06:52.947Z</time>
		<geoidheight>324</geoidheight>
	</trkpt>
	<trkpt lat="50.680533" lon="6.195619">
		<ele>370</ele>
		<time>2011-09-11T11:06:53.938Z</time>
		<geoidheight>324</geoidheight>
	</trkpt>
	<trkpt lat="50.680522" lon="6.195629">
		<ele>370</ele>
		<time>2011-09-11T11:06:54.944Z</time>
		<geoidheight>324</geoidheight>
	</trkpt>
	<trkpt lat="50.680505" lon="6.195635">
		<ele>369</ele>
		<time>2011-09-11T11:06:55.937Z</time>
		<geoidheight>323</geoidheight>
	</trkpt>
	<trkpt lat="50.680485" lon="6.195639">
		<ele>369</ele>
		<time>2011-09-11T11:06:56.932Z</time>
		<geoidheight>323</geoidheight>
	</trkpt>
	<trkpt lat="50.680466" lon="6.195640">
		<ele>369</ele>
		<time>2011-09-11T11:06:57.937Z</time>
		<geoidheight>323</geoidheight>
	</trkpt>
	<trkpt lat="50.680448" lon="6.195643">
		<ele>369</ele>
		<time>2011-09-11T11:06:58.935Z</time>
		<geoidheight>323</geoidheight>
	</trkpt>
	<trkpt lat="50.680432" lon="6.195647">
		<ele>369</ele>
		<time>2011-09-11T11:06:59.933Z</time>
		<geoidheight>323</geoidheight>
	</trkpt>
	<trkpt lat="50.680416" lon="6.195655">
		<ele>369</ele>
		<time>2011-09-11T11:07:00.926Z</time>
		<geoidheight>323</geoidheight>
	</trkpt>
	<trkpt lat="50.680400" lon="6.195665">
		<ele>369</ele>
		<time>2011-09-11T11:07:01.927Z</time>
		<geoidheight>323</geoidheight>
	</trkpt>
	<trkpt lat="50.680389" lon="6.195682">
		<ele>369</ele>
		<time>2011-09-11T11:07:02.930Z</time>
		<geoidheight>323</geoidheight>
	</trkpt>
	<trkpt lat="50.680375" lon="6.195701">
		<ele>369</ele>
		<time>2011-09-11T11:07:03.929Z</time>
		<geoidheight>323</geoidheight>
	</trkpt>
	<trkpt lat="50.680360" lon="6.195720">
		<ele>368</ele>
		<time>2011-09-11T11:07:04.928Z</time>
		<geoidheight>322</geoidheight>
	</trkpt>
	<trkpt lat="50.680348" lon="6.195743">
		<ele>368</ele>
		<time>2011-09-11T11:07:05.927Z</time>
		<geoidheight>322</geoidheight>
	</trkpt>
	<trkpt lat="50.680338" lon="6.195760">
		<ele>368</ele>
		<time>2011-09-11T11:07:06.929Z</time>
		<geoidheight>322</geoidheight>
	</trkpt>
	<trkpt lat="50.680329" lon="6.195775">
		<ele>368</ele>
		<time>2011-09-11T11:07:07.927Z</time>
		<geoidheight>322</geoidheight>
	</trkpt>
	<trkpt lat="50.680321" lon="6.195787">
		<ele>368</ele>
		<time>2011-09-11T11:07:08.929Z</time>
		<geoidheight>322</geoidheight>
	</trkpt>
	<trkpt lat="50.680313" lon="6.195800">
		<ele>368</ele>
		<time>2011-09-11T11:07:09.927Z</time>
		<geoidheight>322</geoidheight>
	</trkpt>
	<trkpt lat="50.680307" lon="6.195813">
		<ele>368</ele>
		<time>2011-09-11T11:07:10.927Z</time>
		<geoidheight>322</geoidheight>
	</trkpt>
	<trkpt lat="50.680302" lon="6.195828">
		<ele>368</ele>
		<time>2011-09-11T11:07:11.927Z</time>
		<geoidheight>322</geoidheight>
	</trkpt>
	<trkpt lat="50.680298" lon="6.195841">
		<ele>368</ele>
		<time>2011-09-11T11:07:12.929Z</time>
		<geoidheight>322</geoidheight>
	</trkpt>
	<trkpt lat="50.680292" lon="6.195851">
		<ele>367</ele>
		<time>2011-09-11T11:07:13.926Z</time>
		<geoidheight>321</geoidheight>
	</trkpt>
	<trkpt lat="50.680287" lon="6.195864">
		<ele>367</ele>
		<time>2011-09-11T11:07:14.927Z</time>
		<geoidheight>321</geoidheight>
	</trkpt>
	<trkpt lat="50.680280" lon="6.195877">
		<ele>367</ele>
		<time>2011-09-11T11:07:15.928Z</time>
		<geoidheight>321</geoidheight>
	</trkpt>
	<trkpt lat="50.680274" lon="6.195892">
		<ele>367</ele>
		<time>2011-09-11T11:07:16.931Z</time>
		<geoidheight>321</geoidheight>
	</trkpt>
	<trkpt lat="50.680270" lon="6.195912">
		<ele>367</ele>
		<time>2011-09-11T11:07:17.936Z</time>
		<geoidheight>321</geoidheight>
	</trkpt>
	<trkpt lat="50.680264" lon="6.195936">
		<ele>367</ele>
		<time>2011-09-11T11:07:18.947Z</time>
		<geoidheight>321</geoidheight>
	</trkpt>
	<trkpt lat="50.680257" lon="6.195960">
		<ele>367</ele>
		<time>2011-09-11T11:07:19.936Z</time>
		<geoidheight>321</geoidheight>
	</trkpt>
	<trkpt lat="50.680252" lon="6.195990">
		<ele>366</ele>
		<time>2011-09-11T11:07:20.937Z</time>
		<geoidheight>320</geoidheight>
	</trkpt>
	<trkpt lat="50.680247" lon="6.196014">
		<ele>366</ele>
		<time>2011-09-11T11:07:21.937Z</time>
		<geoidheight>320</geoidheight>
	</trkpt>
	<trkpt lat="50.680244" lon="6.196036">
		<ele>366</ele>
		<time>2011-09-11T11:07:22.936Z</time>
		<geoidheight>320</geoidheight>
	</trkpt>
	<trkpt lat="50.680245" lon="6.196058">
		<ele>366</ele>
		<time>2011-09-11T11:07:23.926Z</time>
		<geoidheight>320</geoidheight>
	</trkpt>
	<trkpt lat="50.680243" lon="6.196079">
		<ele>366</ele>
		<time>2011-09-11T11:07:24.928Z</time>
		<geoidheight>320</geoidheight>
	</trkpt>
	<trkpt lat="50.680242" lon="6.196100">
		<ele>366</ele>
		<time>2011-09-11T11:07:25.927Z</time>
		<geoidheight>320</geoidheight>
	</trkpt>
	<trkpt lat="50.680241" lon="6.196121">
		<ele>366</ele>
		<time>2011-09-11T11:07:26.935Z</time>
		<geoidheight>320</geoidheight>
	</trkpt>
	<trkpt lat="50.680238" lon="6.196145">
		<ele>365</ele>
		<time>2011-09-11T11:07:27.929Z</time>
		<geoidheight>319</geoidheight>
	</trkpt>
	<trkpt lat="50.680236" lon="6.196165">
		<ele>365</ele>
		<time>2011-09-11T11:07:28.927Z</time>
		<geoidheight>319</geoidheight>
	</trkpt>
	<trkpt lat="50.680234" lon="6.196185">
		<ele>365</ele>
		<time>2011-09-11T11:07:29.928Z</time>
		<geoidheight>319</geoidheight>
	</trkpt>
	<trkpt lat="50.680232" lon="6.196204">
		<ele>365</ele>
		<time>2011-09-11T11:07:30.944Z</time>
		<geoidheight>319</geoidheight>
	</trkpt>
	<trkpt lat="50.680229" lon="6.196223">
		<ele>365</ele>
		<time>2011-09-11T11:07:31.930Z</time>
		<geoidheight>319</geoidheight>
	</trkpt>
	<trkpt lat="50.680227" lon="6.196241">
		<ele>365</ele>
		<time>2011-09-11T11:07:32.928Z</time>
		<geoidheight>319</geoidheight>
	</trkpt>
	<trkpt lat="50.680225" lon="6.196260">
		<ele>364</ele>
		<time>2011-09-11T11:07:33.926Z</time>
		<geoidheight>318</geoidheight>
	</trkpt>
	<trkpt lat="50.680221" lon="6.196278">
		<ele>364</ele>
		<time>2011-09-11T11:07:34.929Z</time>
		<geoidheight>318</geoidheight>
	</trkpt>
	<trkpt lat="50.680220" lon="6.196298">
		<ele>364</ele>
		<time>2011-09-11T11:07:35.927Z</time>
		<geoidheight>318</geoidheight>
	</trkpt>
	<trkpt lat="50.680220" lon="6.196317">
		<ele>364</ele>
		<time>2011-09-11T11:07:36.930Z</time>
		<geoidheight>318</geoidheight>
	</trkpt>
	<trkpt lat="50.680220" lon="6.196336">
		<ele>364</ele>
		<time>2011-09-11T11:07:37.935Z</time>
		<geoidheight>318</geoidheight>
	</trkpt>
	<trkpt lat="50.680219" lon="6.196360">
		<ele>364</ele>
		<time>2011-09-11T11:07:38.926Z</time>
		<geoidheight>318</geoidheight>
	</trkpt>
	<trkpt lat="50.680217" lon="6.196382">
		<ele>363</ele>
		<time>2011-09-11T11:07:39.936Z</time>
		<geoidheight>317</geoidheight>
	</trkpt>
	<trkpt lat="50.680217" lon="6.196404">
		<ele>363</ele>
		<time>2011-09-11T11:07:40.935Z</time>
		<geoidheight>317</geoidheight>
	</trkpt>
	<trkpt lat="50.680216" lon="6.196425">
		<ele>363</ele>
		<time>2011-09-11T11:07:41.941Z</time>
		<geoidheight>317</geoidheight>
	</trkpt>
	<trkpt lat="50.680215" lon="6.196446">
		<ele>363</ele>
		<time>2011-09-11T11:07:42.940Z</time>
		<geoidheight>317</geoidheight>
	</trkpt>
	<trkpt lat="50.680217" lon="6.196470">
		<ele>363</ele>
		<time>2011-09-11T11:07:43.933Z</time>
		<geoidheight>317</geoidheight>
	</trkpt>
	<trkpt lat="50.680219" lon="6.196502">
		<ele>362</ele>
		<time>2011-09-11T11:07:44.927Z</time>
		<geoidheight>316</geoidheight>
	</trkpt>
	<trkpt lat="50.680222" lon="6.196538">
		<ele>362</ele>
		<time>2011-09-11T11:07:45.938Z</time>
		<geoidheight>316</geoidheight>
	</trkpt>
	<trkpt lat="50.680227" lon="6.196574">
		<ele>362</ele>
		<time>2011-09-11T11:07:46.928Z</time>
		<geoidheight>316</geoidheight>
	</trkpt>
	<trkpt lat="50.680229" lon="6.196603">
		<ele>361</ele>
		<time>2011-09-11T11:07:47.927Z</time>
		<geoidheight>315</geoidheight>
	</trkpt>
	<trkpt lat="50.680230" lon="6.196633">
		<ele>361</ele>
		<time>2011-09-11T11:07:48.928Z</time>
		<geoidheight>315</geoidheight>
	</trkpt>
	<trkpt lat="50.680229" lon="6.196662">
		<ele>361</ele>
		<time>2011-09-11T11:07:49.929Z</time>
		<geoidheight>315</geoidheight>
	</trkpt>
	<trkpt lat="50.680227" lon="6.196687">
		<ele>360</ele>
		<time>2011-09-11T11:07:50.926Z</time>
		<geoidheight>314</geoidheight>
	</trkpt>
	<trkpt lat="50.680225" lon="6.196712">
		<ele>360</ele>
		<time>2011-09-11T11:07:51.926Z</time>
		<geoidheight>314</geoidheight>
	</trkpt>
	<trkpt lat="50.680224" lon="6.196736">
		<ele>360</ele>
		<time>2011-09-11T11:07:52.928Z</time>
		<geoidheight>314</geoidheight>
	</trkpt>
	<trkpt lat="50.680221" lon="6.196758">
		<ele>360</ele>
		<time>2011-09-11T11:07:53.931Z</time>
		<geoidheight>314</geoidheight>
	</trkpt>
	<trkpt lat="50.680220" lon="6.196784">
		<ele>359</ele>
		<time>2011-09-11T11:07:54.927Z</time>
		<geoidheight>313</geoidheight>
	</trkpt>
	<trkpt lat="50.680219" lon="6.196810">
		<ele>359</ele>
		<time>2011-09-11T11:07:55.928Z</time>
		<geoidheight>313</geoidheight>
	</trkpt>
	<trkpt lat="50.680217" lon="6.196833">
		<ele>359</ele>
		<time>2011-09-11T11:07:56.927Z</time>
		<geoidheight>313</geoidheight>
	</trkpt>
	<trkpt lat="50.680217" lon="6.196854">
		<ele>358</ele>
		<time>2011-09-11T11:07:57.927Z</time>
		<geoidheight>312</geoidheight>
	</trkpt>
	<trkpt lat="50.680215" lon="6.196874">
		<ele>358</ele>
		<time>2011-09-11T11:07:58.930Z</time>
		<geoidheight>312</geoidheight>
	</trkpt>
	<trkpt lat="50.680213" lon="6.196894">
		<ele>358</ele>
		<time>2011-09-11T11:07:59.927Z</time>
		<geoidheight>312</geoidheight>
	</trkpt>
	<trkpt lat="50.680213" lon="6.196914">
		<ele>357</ele>
		<time>2011-09-11T11:08:00.927Z</time>
		<geoidheight>311</geoidheight>
	</trkpt>
	<trkpt lat="50.680213" lon="6.196934">
		<ele>357</ele>
		<time>2011-09-11T11:08:01.928Z</time>
		<geoidheight>311</geoidheight>
	</trkpt>
	<trkpt lat="50.680210" lon="6.196954">
		<ele>357</ele>
		<time>2011-09-11T11:08:02.926Z</time>
		<geoidheight>311</geoidheight>
	</trkpt>
	<trkpt lat="50.680209" lon="6.196980">
		<ele>356</ele>
		<time>2011-09-11T11:08:03.928Z</time>
		<geoidheight>310</geoidheight>
	</trkpt>
	<trkpt lat="50.680207" lon="6.197005">
		<ele>356</ele>
		<time>2011-09-11T11:08:04.928Z</time>
		<geoidheight>310</geoidheight>
	</trkpt>
	<trkpt lat="50.680204" lon="6.197030">
		<ele>356</ele>
		<time>2011-09-11T11:08:05.935Z</time>
		<geoidheight>310</geoidheight>
	</trkpt>
	<trkpt lat="50.680202" lon="6.197050">
		<ele>356</ele>
		<time>2011-09-11T11:08:06.927Z</time>
		<geoidheight>310</geoidheight>
	</trkpt>
	<trkpt lat="50.680202" lon="6.197073">
		<ele>355</ele>
		<time>2011-09-11T11:08:07.928Z</time>
		<geoidheight>309</geoidheight>
	</trkpt>
	<trkpt lat="50.680201" lon="6.197092">
		<ele>355</ele>
		<time>2011-09-11T11:08:08.941Z</time>
		<geoidheight>309</geoidheight>
	</trkpt>
	<trkpt lat="50.680200" lon="6.197112">
		<ele>355</ele>
		<time>2011-09-11T11:08:09.928Z</time>
		<geoidheight>309</geoidheight>
	</trkpt>
	<trkpt lat="50.680200" lon="6.197130">
		<ele>354</ele>
		<time>2011-09-11T11:08:10.927Z</time>
		<geoidheight>308</geoidheight>
	</trkpt>
	<trkpt lat="50.680199" lon="6.197151">
		<ele>354</ele>
		<time>2011-09-11T11:08:11.929Z</time>
		<geoidheight>308</geoidheight>
	</trkpt>
	<trkpt lat="50.680198" lon="6.197172">
		<ele>354</ele>
		<time>2011-09-11T11:08:12.928Z</time>
		<geoidheight>308</geoidheight>
	</trkpt>
	<trkpt lat="50.680197" lon="6.197191">
		<ele>354</ele>
		<time>2011-09-11T11:08:13.932Z</time>
		<geoidheight>308</geoidheight>
	</trkpt>
	<trkpt lat="50.680196" lon="6.197209">
		<ele>353</ele>
		<time>2011-09-11T11:08:14.930Z</time>
		<geoidheight>307</geoidheight>
	</trkpt>
	<trkpt lat="50.680194" lon="6.197227">
		<ele>353</ele>
		<time>2011-09-11T11:08:15.928Z</time>
		<geoidheight>307</geoidheight>
	</trkpt>
	<trkpt lat="50.680190" lon="6.197244">
		<ele>353</ele>
		<time>2011-09-11T11:08:16.927Z</time>
		<geoidheight>307</geoidheight>
	</trkpt>
	<trkpt lat="50.680186" lon="6.197260">
		<ele>353</ele>
		<time>2011-09-11T11:08:17.929Z</time>
		<geoidheight>307</geoidheight>
	</trkpt>
	<trkpt lat="50.680184" lon="6.197277">
		<ele>353</ele>
		<time>2011-09-11T11:08:18.927Z</time>
		<geoidheight>307</geoidheight>
	</trkpt>
	<trkpt lat="50.680181" lon="6.197298">
		<ele>352</ele>
		<time>2011-09-11T11:08:19.928Z</time>
		<geoidheight>306</geoidheight>
	</trkpt>
	<trkpt lat="50.680178" lon="6.197318">
		<ele>352</ele>
		<time>2011-09-11T11:08:20.929Z</time>
		<geoidheight>306</geoidheight>
	</trkpt>
	<trkpt lat="50.680175" lon="6.197335">
		<ele>352</ele>
		<time>2011-09-11T11:08:21.928Z</time>
		<geoidheight>306</geoidheight>
	</trkpt>
	<trkpt lat="50.680171" lon="6.197350">
		<ele>352</ele>
		<time>2011-09-11T11:08:22.928Z</time>
		<geoidheight>306</geoidheight>
	</trkpt>
	<trkpt lat="50.680168" lon="6.197369">
		<ele>351</ele>
		<time>2011-09-11T11:08:23.931Z</time>
		<geoidheight>305</geoidheight>
	</trkpt>
	<trkpt lat="50.680165" lon="6.197385">
		<ele>351</ele>
		<time>2011-09-11T11:08:24.927Z</time>
		<geoidheight>305</geoidheight>
	</trkpt>
	<trkpt lat="50.680163" lon="6.197404">
		<ele>351</ele>
		<time>2011-09-11T11:08:25.927Z</time>
		<geoidheight>305</geoidheight>
	</trkpt>
	<trkpt lat="50.680162" lon="6.197422">
		<ele>351</ele>
		<time>2011-09-11T11:08:26.934Z</time>
		<geoidheight>305</geoidheight>
	</trkpt>
	<trkpt lat="50.680163" lon="6.197438">
		<ele>351</ele>
		<time>2011-09-11T11:08:27.928Z</time>
		<geoidheight>305</geoidheight>
	</trkpt>
	<trkpt lat="50.680163" lon="6.197454">
		<ele>350</ele>
		<time>2011-09-11T11:08:28.931Z</time>
		<geoidheight>304</geoidheight>
	</trkpt>
	<trkpt lat="50.680163" lon="6.197470">
		<ele>350</ele>
		<time>2011-09-11T11:08:29.930Z</time>
		<geoidheight>304</geoidheight>
	</trkpt>
	<trkpt lat="50.680162" lon="6.197488">
		<ele>350</ele>
		<time>2011-09-11T11:08:30.929Z</time>
		<geoidheight>304</geoidheight>
	</trkpt>
	<trkpt lat="50.680162" lon="6.197509">
		<ele>350</ele>
		<time>2011-09-11T11:08:31.927Z</time>
		<geoidheight>304</geoidheight>
	</trkpt>
	<trkpt lat="50.680159" lon="6.197527">
		<ele>350</ele>
		<time>2011-09-11T11:08:32.937Z</time>
		<geoidheight>304</geoidheight>
	</trkpt>
	<trkpt lat="50.680158" lon="6.197550">
		<ele>349</ele>
		<time>2011-09-11T11:08:33.928Z</time>
		<geoidheight>303</geoidheight>
	</trkpt>
	<trkpt lat="50.680156" lon="6.197573">
		<ele>349</ele>
		<time>2011-09-11T11:08:34.928Z</time>
		<geoidheight>303</geoidheight>
	</trkpt>
	<trkpt lat="50.680154" lon="6.197593">
		<ele>349</ele>
		<time>2011-09-11T11:08:35.926Z</time>
		<geoidheight>303</geoidheight>
	</trkpt>
	<trkpt lat="50.680153" lon="6.197614">
		<ele>349</ele>
		<time>2011-09-11T11:08:36.929Z</time>
		<geoidheight>303</geoidheight>
	</trkpt>
	<trkpt lat="50.680152" lon="6.197634">
		<ele>349</ele>
		<time>2011-09-11T11:08:37.926Z</time>
		<geoidheight>303</geoidheight>
	</trkpt>
	<trkpt lat="50.680151" lon="6.197657">
		<ele>348</ele>
		<time>2011-09-11T11:08:38.929Z</time>
		<geoidheight>302</geoidheight>
	</trkpt>
	<trkpt lat="50.680150" lon="6.197681">
		<ele>348</ele>
		<time>2011-09-11T11:08:39.927Z</time>
		<geoidheight>302</geoidheight>
	</trkpt>
	<trkpt lat="50.680149" lon="6.197699">
		<ele>348</ele>
		<time>2011-09-11T11:08:40.934Z</time>
		<geoidheight>302</geoidheight>
	</trkpt>
	<trkpt lat="50.680147" lon="6.197713">
		<ele>348</ele>
		<time>2011-09-11T11:08:41.927Z</time>
		<geoidheight>302</geoidheight>
	</trkpt>
	<trkpt lat="50.680146" lon="6.197732">
		<ele>348</ele>
		<time>2011-09-11T11:08:42.930Z</time>
		<geoidheight>302</geoidheight>
	</trkpt>
	<trkpt lat="50.680147" lon="6.197754">
		<ele>348</ele>
		<time>2011-09-11T11:08:43.927Z</time>
		<geoidheight>302</geoidheight>
	</trkpt>
	<trkpt lat="50.680146" lon="6.197776">
		<ele>347</ele>
		<time>2011-09-11T11:08:44.927Z</time>
		<geoidheight>301</geoidheight>
	</trkpt>
	<trkpt lat="50.680146" lon="6.197802">
		<ele>347</ele>
		<time>2011-09-11T11:08:45.929Z</time>
		<geoidheight>301</geoidheight>
	</trkpt>
	<trkpt lat="50.680146" lon="6.197825">
		<ele>347</ele>
		<time>2011-09-11T11:08:46.929Z</time>
		<geoidheight>301</geoidheight>
	</trkpt>
	<trkpt lat="50.680147" lon="6.197847">
		<ele>347</ele>
		<time>2011-09-11T11:08:47.929Z</time>
		<geoidheight>301</geoidheight>
	</trkpt>
	<trkpt lat="50.680144" lon="6.197866">
		<ele>347</ele>
		<time>2011-09-11T11:08:48.940Z</time>
		<geoidheight>301</geoidheight>
	</trkpt>
	<trkpt lat="50.680144" lon="6.197886">
		<ele>347</ele>
		<time>2011-09-11T11:08:49.928Z</time>
		<geoidheight>301</geoidheight>
	</trkpt>
	<trkpt lat="50.680144" lon="6.197905">
		<ele>346</ele>
		<time>2011-09-11T11:08:50.929Z</time>
		<geoidheight>300</geoidheight>
	</trkpt>
	<trkpt lat="50.680143" lon="6.197923">
		<ele>346</ele>
		<time>2011-09-11T11:08:51.928Z</time>
		<geoidheight>300</geoidheight>
	</trkpt>
	<trkpt lat="50.680142" lon="6.197941">
		<ele>346</ele>
		<time>2011-09-11T11:08:52.928Z</time>
		<geoidheight>300</geoidheight>
	</trkpt>
	<trkpt lat="50.680142" lon="6.197961">
		<ele>346</ele>
		<time>2011-09-11T11:08:53.930Z</time>
		<geoidheight>300</geoidheight>
	</trkpt>
	<trkpt lat="50.680141" lon="6.197980">
		<ele>346</ele>
		<time>2011-09-11T11:08:54.927Z</time>
		<geoidheight>300</geoidheight>
	</trkpt>
	<trkpt lat="50.680141" lon="6.198000">
		<ele>346</ele>
		<time>2011-09-11T11:08:55.928Z</time>
		<geoidheight>300</geoidheight>
	</trkpt>
	<trkpt lat="50.680142" lon="6.198020">
		<ele>346</ele>
		<time>2011-09-11T11:08:56.929Z</time>
		<geoidheight>300</geoidheight>
	</trkpt>
	<trkpt lat="50.680143" lon="6.198041">
		<ele>346</ele>
		<time>2011-09-11T11:08:57.929Z</time>
		<geoidheight>300</geoidheight>
	</trkpt>
	<trkpt lat="50.680143" lon="6.198061">
		<ele>345</ele>
		<time>2011-09-11T11:08:58.928Z</time>
		<geoidheight>299</geoidheight>
	</trkpt>
	<trkpt lat="50.680143" lon="6.198085">
		<ele>345</ele>
		<time>2011-09-11T11:08:59.935Z</time>
		<geoidheight>299</geoidheight>
	</trkpt>
	<trkpt lat="50.680143" lon="6.198108">
		<ele>345</ele>
		<time>2011-09-11T11:09:00.931Z</time>
		<geoidheight>299</geoidheight>
	</trkpt>
	<trkpt lat="50.680142" lon="6.198132">
		<ele>345</ele>
		<time>2011-09-11T11:09:01.928Z</time>
		<geoidheight>299</geoidheight>
	</trkpt>
	<trkpt lat="50.680140" lon="6.198155">
		<ele>345</ele>
		<time>2011-09-11T11:09:02.929Z</time>
		<geoidheight>299</geoidheight>
	</trkpt>
	<trkpt lat="50.680139" lon="6.198180">
		<ele>345</ele>
		<time>2011-09-11T11:09:03.928Z</time>
		<geoidheight>299</geoidheight>
	</trkpt>
	<trkpt lat="50.680140" lon="6.198207">
		<ele>345</ele>
		<time>2011-09-11T11:09:04.928Z</time>
		<geoidheight>299</geoidheight>
	</trkpt>
	<trkpt lat="50.680140" lon="6.198233">
		<ele>345</ele>
		<time>2011-09-11T11:09:05.930Z</time>
		<geoidheight>299</geoidheight>
	</trkpt>
	<trkpt lat="50.680141" lon="6.198259">
		<ele>345</ele>
		<time>2011-09-11T11:09:06.929Z</time>
		<geoidheight>299</geoidheight>
	</trkpt>
	<trkpt lat="50.680140" lon="6.198280">
		<ele>344</ele>
		<time>2011-09-11T11:09:07.928Z</time>
		<geoidheight>298</geoidheight>
	</trkpt>
	<trkpt lat="50.680138" lon="6.198300">
		<ele>344</ele>
		<time>2011-09-11T11:09:08.930Z</time>
		<geoidheight>298</geoidheight>
	</trkpt>
	<trkpt lat="50.680138" lon="6.198319">
		<ele>344</ele>
		<time>2011-09-11T11:09:09.929Z</time>
		<geoidheight>298</geoidheight>
	</trkpt>
	<trkpt lat="50.680138" lon="6.198339">
		<ele>344</ele>
		<time>2011-09-11T11:09:10.929Z</time>
		<geoidheight>298</geoidheight>
	</trkpt>
	<trkpt lat="50.680138" lon="6.198358">
		<ele>344</ele>
		<time>2011-09-11T11:09:11.931Z</time>
		<geoidheight>298</geoidheight>
	</trkpt>
	<trkpt lat="50.680137" lon="6.198377">
		<ele>344</ele>
		<time>2011-09-11T11:09:12.929Z</time>
		<geoidheight>298</geoidheight>
	</trkpt>
	<trkpt lat="50.680137" lon="6.198395">
		<ele>344</ele>
		<time>2011-09-11T11:09:13.927Z</time>
		<geoidheight>298</geoidheight>
	</trkpt>
	<trkpt lat="50.680133" lon="6.198413">
		<ele>344</ele>
		<time>2011-09-11T11:09:14.927Z</time>
		<geoidheight>298</geoidheight>
	</trkpt>
	<trkpt lat="50.680130" lon="6.198430">
		<ele>344</ele>
		<time>2011-09-11T11:09:15.929Z</time>
		<geoidheight>298</geoidheight>
	</trkpt>
	<trkpt lat="50.680127" lon="6.198448">
		<ele>344</ele>
		<time>2011-09-11T11:09:16.930Z</time>
		<geoidheight>298</geoidheight>
	</trkpt>
	<trkpt lat="50.680124" lon="6.198465">
		<ele>344</ele>
		<time>2011-09-11T11:09:17.929Z</time>
		<geoidheight>298</geoidheight>
	</trkpt>
	<trkpt lat="50.680122" lon="6.198484">
		<ele>343</ele>
		<time>2011-09-11T11:09:18.928Z</time>
		<geoidheight>297</geoidheight>
	</trkpt>
	<trkpt lat="50.680121" lon="6.198502">
		<ele>343</ele>
		<time>2011-09-11T11:09:19.929Z</time>
		<geoidheight>297</geoidheight>
	</trkpt>
	<trkpt lat="50.680118" lon="6.198520">
		<ele>343</ele>
		<time>2011-09-11T11:09:20.928Z</time>
		<geoidheight>297</geoidheight>
	</trkpt>
	<trkpt lat="50.680115" lon="6.198542">
		<ele>343</ele>
		<time>2011-09-11T11:09:21.927Z</time>
		<geoidheight>297</geoidheight>
	</trkpt>
	<trkpt lat="50.680110" lon="6.198562">
		<ele>343</ele>
		<time>2011-09-11T11:09:22.934Z</time>
		<geoidheight>297</geoidheight>
	</trkpt>
	<trkpt lat="50.680107" lon="6.198581">
		<ele>343</ele>
		<time>2011-09-11T11:09:23.929Z</time>
		<geoidheight>297</geoidheight>
	</trkpt>
	<trkpt lat="50.680102" lon="6.198599">
		<ele>343</ele>
		<time>2011-09-11T11:09:24.928Z</time>
		<geoidheight>297</geoidheight>
	</trkpt>
	<trkpt lat="50.680099" lon="6.198620">
		<ele>343</ele>
		<time>2011-09-11T11:09:25.928Z</time>
		<geoidheight>297</geoidheight>
	</trkpt>
	<trkpt lat="50.680095" lon="6.198641">
		<ele>343</ele>
		<time>2011-09-11T11:09:26.930Z</time>
		<geoidheight>297</geoidheight>
	</trkpt>
	<trkpt lat="50.680090" lon="6.198659">
		<ele>343</ele>
		<time>2011-09-11T11:09:27.928Z</time>
		<geoidheight>297</geoidheight>
	</trkpt>
	<trkpt lat="50.680085" lon="6.198677">
		<ele>343</ele>
		<time>2011-09-11T11:09:28.928Z</time>
		<geoidheight>297</geoidheight>
	</trkpt>
	<trkpt lat="50.680079" lon="6.198697">
		<ele>343</ele>
		<time>2011-09-11T11:09:29.929Z</time>
		<geoidheight>297</geoidheight>
	</trkpt>
	<trkpt lat="50.680075" lon="6.198716">
		<ele>343</ele>
		<time>2011-09-11T11:09:30.929Z</time>
		<geoidheight>297</geoidheight>
	</trkpt>
	<trkpt lat="50.680072" lon="6.198735">
		<ele>343</ele>
		<time>2011-09-11T11:09:31.927Z</time>
		<geoidheight>297</geoidheight>
	</trkpt>
	<trkpt lat="50.680069" lon="6.198757">
		<ele>343</ele>
		<time>2011-09-11T11:09:32.931Z</time>
		<geoidheight>297</geoidheight>
	</trkpt>
	<trkpt lat="50.680067" lon="6.198777">
		<ele>343</ele>
		<time>2011-09-11T11:09:33.928Z</time>
		<geoidheight>297</geoidheight>
	</trkpt>
	<trkpt lat="50.680065" lon="6.198798">
		<ele>342</ele>
		<time>2011-09-11T11:09:34.929Z</time>
		<geoidheight>296</geoidheight>
	</trkpt>
	<trkpt lat="50.680063" lon="6.198823">
		<ele>342</ele>
		<time>2011-09-11T11:09:35.931Z</time>
		<geoidheight>296</geoidheight>
	</trkpt>
	<trkpt lat="50.680064" lon="6.198845">
		<ele>342</ele>
		<time>2011-09-11T11:09:36.928Z</time>
		<geoidheight>296</geoidheight>
	</trkpt>
	<trkpt lat="50.680063" lon="6.198865">
		<ele>342</ele>
		<time>2011-09-11T11:09:37.929Z</time>
		<geoidheight>296</geoidheight>
	</trkpt>
	<trkpt lat="50.680061" lon="6.198886">
		<ele>342</ele>
		<time>2011-09-11T11:09:38.935Z</time>
		<geoidheight>296</geoidheight>
	</trkpt>
	<trkpt lat="50.680056" lon="6.198912">
		<ele>342</ele>
		<time>2011-09-11T11:09:39.927Z</time>
		<geoidheight>296</geoidheight>
	</trkpt>
	<trkpt lat="50.680052" lon="6.198939">
		<ele>342</ele>
		<time>2011-09-11T11:09:40.929Z</time>
		<geoidheight>296</geoidheight>
	</trkpt>
	<trkpt lat="50.680049" lon="6.198966">
		<ele>342</ele>
		<time>2011-09-11T11:09:41.951Z</time>
		<geoidheight>296</geoidheight>
	</trkpt>
	<trkpt lat="50.680047" lon="6.198992">
		<ele>342</ele>
		<time>2011-09-11T11:09:42.928Z</time>
		<geoidheight>296</geoidheight>
	</trkpt>
	<trkpt lat="50.680043" lon="6.199018">
		<ele>342</ele>
		<time>2011-09-11T11:09:43.928Z</time>
		<geoidheight>296</geoidheight>
	</trkpt>
	<trkpt lat="50.680043" lon="6.199044">
		<ele>342</ele>
		<time>2011-09-11T11:09:44.929Z</time>
		<geoidheight>296</geoidheight>
	</trkpt>
	<trkpt lat="50.680041" lon="6.199067">
		<ele>342</ele>
		<time>2011-09-11T11:09:45.928Z</time>
		<geoidheight>296</geoidheight>
	</trkpt>
	<trkpt lat="50.680041" lon="6.199087">
		<ele>342</ele>
		<time>2011-09-11T11:09:46.928Z</time>
		<geoidheight>296</geoidheight>
	</trkpt>
	<trkpt lat="50.680042" lon="6.199110">
		<ele>342</ele>
		<time>2011-09-11T11:09:47.929Z</time>
		<geoidheight>296</geoidheight>
	</trkpt>
	<trkpt lat="50.680043" lon="6.199136">
		<ele>342</ele>
		<time>2011-09-11T11:09:48.928Z</time>
		<geoidheight>296</geoidheight>
	</trkpt>
	<trkpt lat="50.680043" lon="6.199162">
		<ele>342</ele>
		<time>2011-09-11T11:09:49.927Z</time>
		<geoidheight>296</geoidheight>
	</trkpt>
	<trkpt lat="50.680042" lon="6.199181">
		<ele>341</ele>
		<time>2011-09-11T11:09:50.930Z</time>
		<geoidheight>295</geoidheight>
	</trkpt>
	<trkpt lat="50.680041" lon="6.199206">
		<ele>341</ele>
		<time>2011-09-11T11:09:51.930Z</time>
		<geoidheight>295</geoidheight>
	</trkpt>
	<trkpt lat="50.680040" lon="6.199226">
		<ele>341</ele>
		<time>2011-09-11T11:09:52.928Z</time>
		<geoidheight>295</geoidheight>
	</trkpt>
	<trkpt lat="50.680038" lon="6.199246">
		<ele>341</ele>
		<time>2011-09-11T11:09:53.928Z</time>
		<geoidheight>295</geoidheight>
	</trkpt>
	<trkpt lat="50.680037" lon="6.199262">
		<ele>341</ele>
		<time>2011-09-11T11:09:54.930Z</time>
		<geoidheight>295</geoidheight>
	</trkpt>
	<trkpt lat="50.680034" lon="6.199278">
		<ele>341</ele>
		<time>2011-09-11T11:09:55.927Z</time>
		<geoidheight>295</geoidheight>
	</trkpt>
	<trkpt lat="50.680033" lon="6.199297">
		<ele>341</ele>
		<time>2011-09-11T11:09:56.928Z</time>
		<geoidheight>295</geoidheight>
	</trkpt>
	<trkpt lat="50.680031" lon="6.199314">
		<ele>341</ele>
		<time>2011-09-11T11:09:57.935Z</time>
		<geoidheight>295</geoidheight>
	</trkpt>
	<trkpt lat="50.680030" lon="6.199332">
		<ele>341</ele>
		<time>2011-09-11T11:09:58.930Z</time>
		<geoidheight>295</geoidheight>
	</trkpt>
	<trkpt lat="50.680030" lon="6.199349">
		<ele>341</ele>
		<time>2011-09-11T11:09:59.928Z</time>
		<geoidheight>295</geoidheight>
	</trkpt>
	<trkpt lat="50.680029" lon="6.199365">
		<ele>341</ele>
		<time>2011-09-11T11:10:00.930Z</time>
		<geoidheight>295</geoidheight>
	</trkpt>
	<trkpt lat="50.680027" lon="6.199382">
		<ele>341</ele>
		<time>2011-09-11T11:10:01.929Z</time>
		<geoidheight>295</geoidheight>
	</trkpt>
	<trkpt lat="50.680024" lon="6.199401">
		<ele>341</ele>
		<time>2011-09-11T11:10:02.930Z</time>
		<geoidheight>295</geoidheight>
	</trkpt>
	<trkpt lat="50.680023" lon="6.199419">
		<ele>340</ele>
		<time>2011-09-11T11:10:03.933Z</time>
		<geoidheight>294</geoidheight>
	</trkpt>
	<trkpt lat="50.680020" lon="6.199438">
		<ele>340</ele>
		<time>2011-09-11T11:10:04.928Z</time>
		<geoidheight>294</geoidheight>
	</trkpt>
	<trkpt lat="50.680019" lon="6.199457">
		<ele>340</ele>
		<time>2011-09-11T11:10:05.928Z</time>
		<geoidheight>294</geoidheight>
	</trkpt>
	<trkpt lat="50.680017" lon="6.199476">
		<ele>340</ele>
		<time>2011-09-11T11:10:06.931Z</time>
		<geoidheight>294</geoidheight>
	</trkpt>
	<trkpt lat="50.680015" lon="6.199496">
		<ele>340</ele>
		<time>2011-09-11T11:10:07.927Z</time>
		<geoidheight>294</geoidheight>
	</trkpt>
	<trkpt lat="50.680014" lon="6.199516">
		<ele>340</ele>
		<time>2011-09-11T11:10:08.937Z</time>
		<geoidheight>294</geoidheight>
	</trkpt>
	<trkpt lat="50.680014" lon="6.199534">
		<ele>340</ele>
		<time>2011-09-11T11:10:09.929Z</time>
		<geoidheight>294</geoidheight>
	</trkpt>
	<trkpt lat="50.680014" lon="6.199551">
		<ele>340</ele>
		<time>2011-09-11T11:10:10.928Z</time>
		<geoidheight>294</geoidheight>
	</trkpt>
	<trkpt lat="50.680012" lon="6.199568">
		<ele>340</ele>
		<time>2011-09-11T11:10:11.927Z</time>
		<geoidheight>294</geoidheight>
	</trkpt>
	<trkpt lat="50.680010" lon="6.199586">
		<ele>340</ele>
		<time>2011-09-11T11:10:12.930Z</time>
		<geoidheight>294</geoidheight>
	</trkpt>
	<trkpt lat="50.680008" lon="6.199600">
		<ele>340</ele>
		<time>2011-09-11T11:10:13.930Z</time>
		<geoidheight>294</geoidheight>
	</trkpt>
	<trkpt lat="50.680007" lon="6.199615">
		<ele>340</ele>
		<time>2011-09-11T11:10:14.929Z</time>
		<geoidheight>294</geoidheight>
	</trkpt>
	<trkpt lat="50.680007" lon="6.199631">
		<ele>340</ele>
		<time>2011-09-11T11:10:15.930Z</time>
		<geoidheight>294</geoidheight>
	</trkpt>
	<trkpt lat="50.680006" lon="6.199646">
		<ele>340</ele>
		<time>2011-09-11T11:10:16.933Z</time>
		<geoidheight>294</geoidheight>
	</trkpt>
	<trkpt lat="50.680004" lon="6.199663">
		<ele>340</ele>
		<time>2011-09-11T11:10:17.928Z</time>
		<geoidheight>294</geoidheight>
	</trkpt>
	<trkpt lat="50.680000" lon="6.199682">
		<ele>340</ele>
		<time>2011-09-11T11:10:18.927Z</time>
		<geoidheight>294</geoidheight>
	</trkpt>
	<trkpt lat="50.679996" lon="6.199706">
		<ele>339</ele>
		<time>2011-09-11T11:10:19.928Z</time>
		<geoidheight>293</geoidheight>
	</trkpt>
	<trkpt lat="50.679995" lon="6.199727">
		<ele>339</ele>
		<time>2011-09-11T11:10:20.927Z</time>
		<geoidheight>293</geoidheight>
	</trkpt>
	<trkpt lat="50.679992" lon="6.199753">
		<ele>339</ele>
		<time>2011-09-11T11:10:21.937Z</time>
		<geoidheight>293</geoidheight>
	</trkpt>
	<trkpt lat="50.679991" lon="6.199780">
		<ele>339</ele>
		<time>2011-09-11T11:10:22.929Z</time>
		<geoidheight>293</geoidheight>
	</trkpt>
	<trkpt lat="50.679995" lon="6.199799">
		<ele>339</ele>
		<time>2011-09-11T11:10:23.928Z</time>
		<geoidheight>293</geoidheight>
	</trkpt>
	<trkpt lat="50.680000" lon="6.199816">
		<ele>339</ele>
		<time>2011-09-11T11:10:24.928Z</time>
		<geoidheight>293</geoidheight>
	</trkpt>
	<trkpt lat="50.680009" lon="6.199829">
		<ele>339</ele>
		<time>2011-09-11T11:10:25.934Z</time>
		<geoidheight>293</geoidheight>
	</trkpt>
	<trkpt lat="50.680018" lon="6.199844">
		<ele>339</ele>
		<time>2011-09-11T11:10:26.926Z</time>
		<geoidheight>293</geoidheight>
	</trkpt>
	<trkpt lat="50.680031" lon="6.199858">
		<ele>339</ele>
		<time>2011-09-11T11:10:27.929Z</time>
		<geoidheight>293</geoidheight>
	</trkpt>
	<trkpt lat="50.680039" lon="6.199877">
		<ele>339</ele>
		<time>2011-09-11T11:10:28.929Z</time>
		<geoidheight>293</geoidheight>
	</trkpt>
	<trkpt lat="50.680045" lon="6.199896">
		<ele>339</ele>
		<time>2011-09-11T11:10:29.928Z</time>
		<geoidheight>293</geoidheight>
	</trkpt>
	<trkpt lat="50.680052" lon="6.199918">
		<ele>339</ele>
		<time>2011-09-11T11:10:30.928Z</time>
		<geoidheight>293</geoidheight>
	</trkpt>
	<trkpt lat="50.680064" lon="6.199939">
		<ele>339</ele>
		<time>2011-09-11T11:10:31.928Z</time>
		<geoidheight>293</geoidheight>
	</trkpt>
	<trkpt lat="50.680076" lon="6.199959">
		<ele>339</ele>
		<time>2011-09-11T11:10:32.928Z</time>
		<geoidheight>293</geoidheight>
	</trkpt>
	<trkpt lat="50.680086" lon="6.199980">
		<ele>339</ele>
		<time>2011-09-11T11:10:33.928Z</time>
		<geoidheight>293</geoidheight>
	</trkpt>
	<trkpt lat="50.680095" lon="6.199999">
		<ele>339</ele>
		<time>2011-09-11T11:10:34.930Z</time>
		<geoidheight>293</geoidheight>
	</trkpt>
	<trkpt lat="50.680106" lon="6.200011">
		<ele>339</ele>
		<time>2011-09-11T11:10:35.928Z</time>
		<geoidheight>293</geoidheight>
	</trkpt>
	<trkpt lat="50.680118" lon="6.200021">
		<ele>339</ele>
		<time>2011-09-11T11:10:36.928Z</time>
		<geoidheight>293</geoidheight>
	</trkpt>
	<trkpt lat="50.680130" lon="6.200029">
		<ele>339</ele>
		<time>2011-09-11T11:10:37.930Z</time>
		<geoidheight>293</geoidheight>
	</trkpt>
	<trkpt lat="50.680144" lon="6.200033">
		<ele>339</ele>
		<time>2011-09-11T11:10:38.927Z</time>
		<geoidheight>293</geoidheight>
	</trkpt>
	<trkpt lat="50.680157" lon="6.200038">
		<ele>339</ele>
		<time>2011-09-11T11:10:39.928Z</time>
		<geoidheight>293</geoidheight>
	</trkpt>
	<trkpt lat="50.680169" lon="6.200044">
		<ele>339</ele>
		<time>2011-09-11T11:10:40.941Z</time>
		<geoidheight>293</geoidheight>
	</trkpt>
	<trkpt lat="50.680181" lon="6.200051">
		<ele>339</ele>
		<time>2011-09-11T11:10:41.929Z</time>
		<geoidheight>293</geoidheight>
	</trkpt>
	<trkpt lat="50.680192" lon="6.200060">
		<ele>339</ele>
		<time>2011-09-11T11:10:42.928Z</time>
		<geoidheight>293</geoidheight>
	</trkpt>
	<trkpt lat="50.680205" lon="6.200066">
		<ele>339</ele>
		<time>2011-09-11T11:10:43.928Z</time>
		<geoidheight>293</geoidheight>
	</trkpt>
	<trkpt lat="50.680217" lon="6.200072">
		<ele>339</ele>
		<time>2011-09-11T11:10:44.929Z</time>
		<geoidheight>293</geoidheight>
	</trkpt>
	<trkpt lat="50.680226" lon="6.200082">
		<ele>339</ele>
		<time>2011-09-11T11:10:45.928Z</time>
		<geoidheight>293</geoidheight>
	</trkpt>
	<trkpt lat="50.680234" lon="6.200098">
		<ele>339</ele>
		<time>2011-09-11T11:10:46.927Z</time>
		<geoidheight>293</geoidheight>
	</trkpt>
	<trkpt lat="50.680242" lon="6.200115">
		<ele>339</ele>
		<time>2011-09-11T11:10:47.934Z</time>
		<geoidheight>293</geoidheight>
	</trkpt>
	<trkpt lat="50.680253" lon="6.200127">
		<ele>339</ele>
		<time>2011-09-11T11:10:48.928Z</time>
		<geoidheight>293</geoidheight>
	</trkpt>
	<trkpt lat="50.680265" lon="6.200138">
		<ele>339</ele>
		<time>2011-09-11T11:10:49.928Z</time>
		<geoidheight>293</geoidheight>
	</trkpt>
	<trkpt lat="50.680275" lon="6.200150">
		<ele>339</ele>
		<time>2011-09-11T11:10:50.929Z</time>
		<geoidheight>293</geoidheight>
	</trkpt>
	<trkpt lat="50.680285" lon="6.200162">
		<ele>339</ele>
		<time>2011-09-11T11:10:51.939Z</time>
		<geoidheight>293</geoidheight>
	</trkpt>
	<trkpt lat="50.680297" lon="6.200175">
		<ele>339</ele>
		<time>2011-09-11T11:10:52.929Z</time>
		<geoidheight>293</geoidheight>
	</trkpt>
	<trkpt lat="50.680307" lon="6.200187">
		<ele>339</ele>
		<time>2011-09-11T11:10:53.929Z</time>
		<geoidheight>293</geoidheight>
	</trkpt>
	<trkpt lat="50.680317" lon="6.200204">
		<ele>339</ele>
		<time>2011-09-11T11:10:54.943Z</time>
		<geoidheight>293</geoidheight>
	</trkpt>
	<trkpt lat="50.680327" lon="6.200223">
		<ele>339</ele>
		<time>2011-09-11T11:10:55.939Z</time>
		<geoidheight>293</geoidheight>
	</trkpt>
	<trkpt lat="50.680338" lon="6.200237">
		<ele>339</ele>
		<time>2011-09-11T11:10:56.936Z</time>
		<geoidheight>293</geoidheight>
	</trkpt>
	<trkpt lat="50.680348" lon="6.200248">
		<ele>339</ele>
		<time>2011-09-11T11:10:57.930Z</time>
		<geoidheight>293</geoidheight>
	</trkpt>
	<trkpt lat="50.680360" lon="6.200248">
		<ele>339</ele>
		<time>2011-09-11T11:10:58.927Z</time>
		<geoidheight>293</geoidheight>
	</trkpt>
	<trkpt lat="50.680371" lon="6.200249">
		<ele>339</ele>
		<time>2011-09-11T11:10:59.933Z</time>
		<geoidheight>293</geoidheight>
	</trkpt>
	<trkpt lat="50.680378" lon="6.200258">
		<ele>339</ele>
		<time>2011-09-11T11:11:00.928Z</time>
		<geoidheight>293</geoidheight>
	</trkpt>
	<trkpt lat="50.680387" lon="6.200264">
		<ele>339</ele>
		<time>2011-09-11T11:11:01.927Z</time>
		<geoidheight>293</geoidheight>
	</trkpt>
	<trkpt lat="50.680394" lon="6.200272">
		<ele>339</ele>
		<time>2011-09-11T11:11:02.931Z</time>
		<geoidheight>293</geoidheight>
	</trkpt>
	<trkpt lat="50.680402" lon="6.200280">
		<ele>339</ele>
		<time>2011-09-11T11:11:03.928Z</time>
		<geoidheight>293</geoidheight>
	</trkpt>
	<trkpt lat="50.680410" lon="6.200287">
		<ele>339</ele>
		<time>2011-09-11T11:11:04.949Z</time>
		<geoidheight>293</geoidheight>
	</trkpt>
	<trkpt lat="50.680419" lon="6.200285">
		<ele>339</ele>
		<time>2011-09-11T11:11:05.934Z</time>
		<geoidheight>293</geoidheight>
	</trkpt>
	<trkpt lat="50.680427" lon="6.200287">
		<ele>340</ele>
		<time>2011-09-11T11:11:06.929Z</time>
		<geoidheight>294</geoidheight>
	</trkpt>
	<trkpt lat="50.680435" lon="6.200290">
		<ele>340</ele>
		<time>2011-09-11T11:11:07.928Z</time>
		<geoidheight>294</geoidheight>
	</trkpt>
	<trkpt lat="50.680443" lon="6.200298">
		<ele>340</ele>
		<time>2011-09-11T11:11:08.931Z</time>
		<geoidheight>294</geoidheight>
	</trkpt>
	<trkpt lat="50.680451" lon="6.200307">
		<ele>340</ele>
		<time>2011-09-11T11:11:09.928Z</time>
		<geoidheight>294</geoidheight>
	</trkpt>
	<trkpt lat="50.680460" lon="6.200313">
		<ele>340</ele>
		<time>2011-09-11T11:11:10.937Z</time>
		<geoidheight>294</geoidheight>
	</trkpt>
	<trkpt lat="50.680468" lon="6.200318">
		<ele>340</ele>
		<time>2011-09-11T11:11:11.932Z</time>
		<geoidheight>294</geoidheight>
	</trkpt>
	<trkpt lat="50.680475" lon="6.200328">
		<ele>340</ele>
		<time>2011-09-11T11:11:12.939Z</time>
		<geoidheight>294</geoidheight>
	</trkpt>
	<trkpt lat="50.680486" lon="6.200330">
		<ele>340</ele>
		<time>2011-09-11T11:11:13.927Z</time>
		<geoidheight>294</geoidheight>
	</trkpt>
	<trkpt lat="50.680496" lon="6.200335">
		<ele>340</ele>
		<time>2011-09-11T11:11:14.929Z</time>
		<geoidheight>294</geoidheight>
	</trkpt>
	<trkpt lat="50.680508" lon="6.200343">
		<ele>340</ele>
		<time>2011-09-11T11:11:15.929Z</time>
		<geoidheight>294</geoidheight>
	</trkpt>
	<trkpt lat="50.680518" lon="6.200352">
		<ele>340</ele>
		<time>2011-09-11T11:11:16.928Z</time>
		<geoidheight>294</geoidheight>
	</trkpt>
	<trkpt lat="50.680526" lon="6.200363">
		<ele>340</ele>
		<time>2011-09-11T11:11:17.928Z</time>
		<geoidheight>294</geoidheight>
	</trkpt>
	<trkpt lat="50.680534" lon="6.200372">
		<ele>340</ele>
		<time>2011-09-11T11:11:18.929Z</time>
		<geoidheight>294</geoidheight>
	</trkpt>
	<trkpt lat="50.680544" lon="6.200380">
		<ele>340</ele>
		<time>2011-09-11T11:11:19.929Z</time>
		<geoidheight>294</geoidheight>
	</trkpt>
	<trkpt lat="50.680553" lon="6.200388">
		<ele>340</ele>
		<time>2011-09-11T11:11:20.928Z</time>
		<geoidheight>294</geoidheight>
	</trkpt>
	<trkpt lat="50.680563" lon="6.200391">
		<ele>340</ele>
		<time>2011-09-11T11:11:21.929Z</time>
		<geoidheight>294</geoidheight>
	</trkpt>
	<trkpt lat="50.680574" lon="6.200397">
		<ele>341</ele>
		<time>2011-09-11T11:11:22.929Z</time>
		<geoidheight>295</geoidheight>
	</trkpt>
	<trkpt lat="50.680582" lon="6.200407">
		<ele>341</ele>
		<time>2011-09-11T11:11:23.928Z</time>
		<geoidheight>295</geoidheight>
	</trkpt>
	<trkpt lat="50.680592" lon="6.200405">
		<ele>341</ele>
		<time>2011-09-11T11:11:24.929Z</time>
		<geoidheight>295</geoidheight>
	</trkpt>
	<trkpt lat="50.680601" lon="6.200408">
		<ele>341</ele>
		<time>2011-09-11T11:11:25.929Z</time>
		<geoidheight>295</geoidheight>
	</trkpt>
	<trkpt lat="50.680608" lon="6.200421">
		<ele>341</ele>
		<time>2011-09-11T11:11:26.939Z</time>
		<geoidheight>295</geoidheight>
	</trkpt>
	<trkpt lat="50.680613" lon="6.200434">
		<ele>341</ele>
		<time>2011-09-11T11:11:27.937Z</time>
		<geoidheight>295</geoidheight>
	</trkpt>
	<trkpt lat="50.680620" lon="6.200444">
		<ele>341</ele>
		<time>2011-09-11T11:11:28.930Z</time>
		<geoidheight>295</geoidheight>
	</trkpt>
	<trkpt lat="50.680626" lon="6.200456">
		<ele>341</ele>
		<time>2011-09-11T11:11:29.928Z</time>
		<geoidheight>295</geoidheight>
	</trkpt>
	<trkpt lat="50.680636" lon="6.200460">
		<ele>341</ele>
		<time>2011-09-11T11:11:30.929Z</time>
		<geoidheight>295</geoidheight>
	</trkpt>
	<trkpt lat="50.680648" lon="6.200468">
		<ele>341</ele>
		<time>2011-09-11T11:11:31.930Z</time>
		<geoidheight>295</geoidheight>
	</trkpt>
	<trkpt lat="50.680659" lon="6.200483">
		<ele>341</ele>
		<time>2011-09-11T11:11:32.930Z</time>
		<geoidheight>295</geoidheight>
	</trkpt>
	<trkpt lat="50.680671" lon="6.200497">
		<ele>341</ele>
		<time>2011-09-11T11:11:33.934Z</time>
		<geoidheight>295</geoidheight>
	</trkpt>
	<trkpt lat="50.680685" lon="6.200503">
		<ele>342</ele>
		<time>2011-09-11T11:11:34.936Z</time>
		<geoidheight>296</geoidheight>
	</trkpt>
	<trkpt lat="50.680698" lon="6.200511">
		<ele>342</ele>
		<time>2011-09-11T11:11:35.938Z</time>
		<geoidheight>296</geoidheight>
	</trkpt>
	<trkpt lat="50.680711" lon="6.200519">
		<ele>342</ele>
		<time>2011-09-11T11:11:36.935Z</time>
		<geoidheight>296</geoidheight>
	</trkpt>
	<trkpt lat="50.680724" lon="6.200529">
		<ele>342</ele>
		<time>2011-09-11T11:11:37.929Z</time>
		<geoidheight>296</geoidheight>
	</trkpt>
	<trkpt lat="50.680735" lon="6.200541">
		<ele>342</ele>
		<time>2011-09-11T11:11:38.928Z</time>
		<geoidheight>296</geoidheight>
	</trkpt>
	<trkpt lat="50.680747" lon="6.200550">
		<ele>342</ele>
		<time>2011-09-11T11:11:39.928Z</time>
		<geoidheight>296</geoidheight>
	</trkpt>
	<trkpt lat="50.680759" lon="6.200559">
		<ele>342</ele>
		<time>2011-09-11T11:11:40.940Z</time>
		<geoidheight>296</geoidheight>
	</trkpt>
	<trkpt lat="50.680771" lon="6.200570">
		<ele>342</ele>
		<time>2011-09-11T11:11:41.930Z</time>
		<geoidheight>296</geoidheight>
	</trkpt>
	<trkpt lat="50.680781" lon="6.200581">
		<ele>342</ele>
		<time>2011-09-11T11:11:42.932Z</time>
		<geoidheight>296</geoidheight>
	</trkpt>
	<trkpt lat="50.680791" lon="6.200590">
		<ele>342</ele>
		<time>2011-09-11T11:11:43.930Z</time>
		<geoidheight>296</geoidheight>
	</trkpt>
	<trkpt lat="50.680802" lon="6.200600">
		<ele>342</ele>
		<time>2011-09-11T11:11:44.929Z</time>
		<geoidheight>296</geoidheight>
	</trkpt>
	<trkpt lat="50.680815" lon="6.200606">
		<ele>342</ele>
		<time>2011-09-11T11:11:45.928Z</time>
		<geoidheight>296</geoidheight>
	</trkpt>
	<trkpt lat="50.680829" lon="6.200611">
		<ele>343</ele>
		<time>2011-09-11T11:11:46.930Z</time>
		<geoidheight>297</geoidheight>
	</trkpt>
	<trkpt lat="50.680842" lon="6.200619">
		<ele>343</ele>
		<time>2011-09-11T11:11:47.936Z</time>
		<geoidheight>297</geoidheight>
	</trkpt>
	<trkpt lat="50.680856" lon="6.200622">
		<ele>343</ele>
		<time>2011-09-11T11:11:48.929Z</time>
		<geoidheight>297</geoidheight>
	</trkpt>
	<trkpt lat="50.680868" lon="6.200627">
		<ele>343</ele>
		<time>2011-09-11T11:11:49.930Z</time>
		<geoidheight>297</geoidheight>
	</trkpt>
	<trkpt lat="50.680880" lon="6.200633">
		<ele>343</ele>
		<time>2011-09-11T11:11:50.929Z</time>
		<geoidheight>297</geoidheight>
	</trkpt>
	<trkpt lat="50.680892" lon="6.200640">
		<ele>343</ele>
		<time>2011-09-11T11:11:51.929Z</time>
		<geoidheight>297</geoidheight>
	</trkpt>
	<trkpt lat="50.680906" lon="6.200645">
		<ele>343</ele>
		<time>2011-09-11T11:11:52.931Z</time>
		<geoidheight>297</geoidheight>
	</trkpt>
	<trkpt lat="50.680920" lon="6.200648">
		<ele>343</ele>
		<time>2011-09-11T11:11:53.929Z</time>
		<geoidheight>297</geoidheight>
	</trkpt>
	<trkpt lat="50.680935" lon="6.200647">
		<ele>343</ele>
		<time>2011-09-11T11:11:54.928Z</time>
		<geoidheight>297</geoidheight>
	</trkpt>
	<trkpt lat="50.680951" lon="6.200646">
		<ele>343</ele>
		<time>2011-09-11T11:11:55.931Z</time>
		<geoidheight>297</geoidheight>
	</trkpt>
	<trkpt lat="50.680965" lon="6.200645">
		<ele>343</ele>
		<time>2011-09-11T11:11:56.928Z</time>
		<geoidheight>297</geoidheight>
	</trkpt>
	<trkpt lat="50.680973" lon="6.200650">
		<ele>344</ele>
		<time>2011-09-11T11:11:57.928Z</time>
		<geoidheight>298</geoidheight>
	</trkpt>
	<trkpt lat="50.680983" lon="6.200650">
		<ele>344</ele>
		<time>2011-09-11T11:11:58.930Z</time>
		<geoidheight>298</geoidheight>
	</trkpt>
	<trkpt lat="50.680991" lon="6.200655">
		<ele>344</ele>
		<time>2011-09-11T11:11:59.929Z</time>
		<geoidheight>298</geoidheight>
	</trkpt>
	<trkpt lat="50.680995" lon="6.200661">
		<ele>344</ele>
		<time>2011-09-11T11:12:00.929Z</time>
		<geoidheight>298</geoidheight>
	</trkpt>
	<trkpt lat="50.681000" lon="6.200665">
		<ele>344</ele>
		<time>2011-09-11T11:12:01.931Z</time>
		<geoidheight>298</geoidheight>
	</trkpt>
	<trkpt lat="50.681004" lon="6.200669">
		<ele>344</ele>
		<time>2011-09-11T11:12:02.931Z</time>
		<geoidheight>298</geoidheight>
	</trkpt>
	<trkpt lat="50.681007" lon="6.200674">
		<ele>345</ele>
		<time>2011-09-11T11:12:15.929Z</time>
		<geoidheight>299</geoidheight>
	</trkpt>
	<trkpt lat="50.681052" lon="6.200703">
		<ele>345</ele>
		<time>2011-09-11T11:12:16.929Z</time>
		<geoidheight>299</geoidheight>
	</trkpt>
	<trkpt lat="50.681052" lon="6.200703">
		<ele>345</ele>
		<time>2011-09-11T11:12:19.929Z</time>
		<geoidheight>299</geoidheight>
	</trkpt>
	<trkpt lat="50.681085" lon="6.200756">
		<ele>345</ele>
		<time>2011-09-11T11:12:20.930Z</time>
		<geoidheight>299</geoidheight>
	</trkpt>
	<trkpt lat="50.681085" lon="6.200756">
		<ele>345</ele>
		<time>2011-09-11T11:12:22.937Z</time>
		<geoidheight>299</geoidheight>
	</trkpt>
	<trkpt lat="50.681111" lon="6.200815">
		<ele>345</ele>
		<time>2011-09-11T11:12:23.961Z</time>
		<geoidheight>299</geoidheight>
	</trkpt>
	<trkpt lat="50.681111" lon="6.200815">
		<ele>345</ele>
		<time>2011-09-11T11:12:26.952Z</time>
		<geoidheight>299</geoidheight>
	</trkpt>
	<trkpt lat="50.681137" lon="6.200841">
		<ele>345</ele>
		<time>2011-09-11T11:12:27.938Z</time>
		<geoidheight>299</geoidheight>
	</trkpt>
	<trkpt lat="50.681141" lon="6.200851">
		<ele>346</ele>
		<time>2011-09-11T11:12:43.973Z</time>
		<geoidheight>300</geoidheight>
	</trkpt>
	<trkpt lat="50.681103" lon="6.200897">
		<ele>346</ele>
		<time>2011-09-11T11:12:44.975Z</time>
		<geoidheight>300</geoidheight>
	</trkpt>
	<trkpt lat="50.681103" lon="6.200897">
		<ele>346</ele>
		<time>2011-09-11T11:13:00.933Z</time>
		<geoidheight>300</geoidheight>
	</trkpt>
	<trkpt lat="50.681054" lon="6.200884">
		<ele>346</ele>
		<time>2011-09-11T11:13:01.948Z</time>
		<geoidheight>300</geoidheight>
	</trkpt>
	<trkpt lat="50.681054" lon="6.200884">
		<ele>347</ele>
		<time>2011-09-11T11:13:07.931Z</time>
		<geoidheight>301</geoidheight>
	</trkpt>
	<trkpt lat="50.681012" lon="6.200912">
		<ele>347</ele>
		<time>2011-09-11T11:13:08.928Z</time>
		<geoidheight>301</geoidheight>
	</trkpt>
	<trkpt lat="50.681007" lon="6.200906">
		<ele>348</ele>
		<time>2011-09-11T11:13:11.930Z</time>
		<geoidheight>302</geoidheight>
	</trkpt>
	<trkpt lat="50.681007" lon="6.200898">
		<ele>348</ele>
		<time>2011-09-11T11:13:12.929Z</time>
		<geoidheight>302</geoidheight>
	</trkpt>
	<trkpt lat="50.681006" lon="6.200886">
		<ele>348</ele>
		<time>2011-09-11T11:13:13.931Z</time>
		<geoidheight>302</geoidheight>
	</trkpt>
	<trkpt lat="50.681004" lon="6.200878">
		<ele>348</ele>
		<time>2011-09-11T11:13:14.931Z</time>
		<geoidheight>302</geoidheight>
	</trkpt>
	<trkpt lat="50.680998" lon="6.200877">
		<ele>348</ele>
		<time>2011-09-11T11:13:17.930Z</time>
		<geoidheight>302</geoidheight>
	</trkpt>
	<trkpt lat="50.680994" lon="6.200880">
		<ele>348</ele>
		<time>2011-09-11T11:13:18.939Z</time>
		<geoidheight>302</geoidheight>
	</trkpt>
	<trkpt lat="50.680986" lon="6.200885">
		<ele>348</ele>
		<time>2011-09-11T11:13:20.931Z</time>
		<geoidheight>302</geoidheight>
	</trkpt>
	<trkpt lat="50.680984" lon="6.200890">
		<ele>348</ele>
		<time>2011-09-11T11:13:21.929Z</time>
		<geoidheight>302</geoidheight>
	</trkpt>
	<trkpt lat="50.680981" lon="6.200895">
		<ele>348</ele>
		<time>2011-09-11T11:13:22.932Z</time>
		<geoidheight>302</geoidheight>
	</trkpt>
	<trkpt lat="50.680979" lon="6.200904">
		<ele>348</ele>
		<time>2011-09-11T11:13:23.929Z</time>
		<geoidheight>302</geoidheight>
	</trkpt>
	<trkpt lat="50.680973" lon="6.200913">
		<ele>348</ele>
		<time>2011-09-11T11:13:24.931Z</time>
		<geoidheight>302</geoidheight>
	</trkpt>
	<trkpt lat="50.680968" lon="6.200926">
		<ele>348</ele>
		<time>2011-09-11T11:13:25.932Z</time>
		<geoidheight>302</geoidheight>
	</trkpt>
	<trkpt lat="50.680963" lon="6.200938">
		<ele>349</ele>
		<time>2011-09-11T11:13:26.949Z</time>
		<geoidheight>303</geoidheight>
	</trkpt>
	<trkpt lat="50.680955" lon="6.200949">
		<ele>349</ele>
		<time>2011-09-11T11:13:27.931Z</time>
		<geoidheight>303</geoidheight>
	</trkpt>
	<trkpt lat="50.680949" lon="6.200964">
		<ele>349</ele>
		<time>2011-09-11T11:13:28.934Z</time>
		<geoidheight>303</geoidheight>
	</trkpt>
	<trkpt lat="50.680944" lon="6.200978">
		<ele>349</ele>
		<time>2011-09-11T11:13:29.932Z</time>
		<geoidheight>303</geoidheight>
	</trkpt>
	<trkpt lat="50.680940" lon="6.200994">
		<ele>349</ele>
		<time>2011-09-11T11:13:30.931Z</time>
		<geoidheight>303</geoidheight>
	</trkpt>
	<trkpt lat="50.680937" lon="6.201012">
		<ele>349</ele>
		<time>2011-09-11T11:13:31.936Z</time>
		<geoidheight>303</geoidheight>
	</trkpt>
	<trkpt lat="50.680933" lon="6.201027">
		<ele>349</ele>
		<time>2011-09-11T11:13:32.931Z</time>
		<geoidheight>303</geoidheight>
	</trkpt>
	<trkpt lat="50.680934" lon="6.201045">
		<ele>349</ele>
		<time>2011-09-11T11:13:33.929Z</time>
		<geoidheight>303</geoidheight>
	</trkpt>
	<trkpt lat="50.680932" lon="6.201059">
		<ele>349</ele>
		<time>2011-09-11T11:13:34.932Z</time>
		<geoidheight>303</geoidheight>
	</trkpt>
	<trkpt lat="50.680930" lon="6.201070">
		<ele>349</ele>
		<time>2011-09-11T11:13:35.932Z</time>
		<geoidheight>303</geoidheight>
	</trkpt>
	<trkpt lat="50.680926" lon="6.201080">
		<ele>349</ele>
		<time>2011-09-11T11:13:36.930Z</time>
		<geoidheight>303</geoidheight>
	</trkpt>
	<trkpt lat="50.680921" lon="6.201087">
		<ele>349</ele>
		<time>2011-09-11T11:13:37.940Z</time>
		<geoidheight>303</geoidheight>
	</trkpt>
	<trkpt lat="50.680915" lon="6.201090">
		<ele>349</ele>
		<time>2011-09-11T11:13:38.930Z</time>
		<geoidheight>303</geoidheight>
	</trkpt>
	<trkpt lat="50.680911" lon="6.201099">
		<ele>350</ele>
		<time>2011-09-11T11:13:39.931Z</time>
		<geoidheight>304</geoidheight>
	</trkpt>
	<trkpt lat="50.680907" lon="6.201108">
		<ele>350</ele>
		<time>2011-09-11T11:13:40.933Z</time>
		<geoidheight>304</geoidheight>
	</trkpt>
	<trkpt lat="50.680903" lon="6.201115">
		<ele>350</ele>
		<time>2011-09-11T11:13:41.931Z</time>
		<geoidheight>304</geoidheight>
	</trkpt>
	<trkpt lat="50.680897" lon="6.201119">
		<ele>350</ele>
		<time>2011-09-11T11:13:42.930Z</time>
		<geoidheight>304</geoidheight>
	</trkpt>
	<trkpt lat="50.680892" lon="6.201126">
		<ele>350</ele>
		<time>2011-09-11T11:13:43.930Z</time>
		<geoidheight>304</geoidheight>
	</trkpt>
	<trkpt lat="50.680889" lon="6.201135">
		<ele>350</ele>
		<time>2011-09-11T11:13:44.932Z</time>
		<geoidheight>304</geoidheight>
	</trkpt>
	<trkpt lat="50.680884" lon="6.201143">
		<ele>350</ele>
		<time>2011-09-11T11:13:45.930Z</time>
		<geoidheight>304</geoidheight>
	</trkpt>
	<trkpt lat="50.680879" lon="6.201156">
		<ele>350</ele>
		<time>2011-09-11T11:13:46.928Z</time>
		<geoidheight>304</geoidheight>
	</trkpt>
	<trkpt lat="50.680879" lon="6.201156">
		<ele>350</ele>
		<time>2011-09-11T11:13:49.930Z</time>
		<geoidheight>304</geoidheight>
	</trkpt>
	<trkpt lat="50.680870" lon="6.201190">
		<ele>350</ele>
		<time>2011-09-11T11:13:50.933Z</time>
		<geoidheight>304</geoidheight>
	</trkpt>
	<trkpt lat="50.680866" lon="6.201198">
		<ele>350</ele>
		<time>2011-09-11T11:13:51.930Z</time>
		<geoidheight>304</geoidheight>
	</trkpt>
	<trkpt lat="50.680859" lon="6.201202">
		<ele>350</ele>
		<time>2011-09-11T11:13:52.930Z</time>
		<geoidheight>304</geoidheight>
	</trkpt>
	<trkpt lat="50.680855" lon="6.201210">
		<ele>350</ele>
		<time>2011-09-11T11:13:53.931Z</time>
		<geoidheight>304</geoidheight>
	</trkpt>
	<trkpt lat="50.680850" lon="6.201223">
		<ele>350</ele>
		<time>2011-09-11T11:13:54.930Z</time>
		<geoidheight>304</geoidheight>
	</trkpt>
	<trkpt lat="50.680843" lon="6.201232">
		<ele>350</ele>
		<time>2011-09-11T11:13:55.931Z</time>
		<geoidheight>304</geoidheight>
	</trkpt>
	<trkpt lat="50.680837" lon="6.201242">
		<ele>350</ele>
		<time>2011-09-11T11:13:56.932Z</time>
		<geoidheight>304</geoidheight>
	</trkpt>
	<trkpt lat="50.680831" lon="6.201254">
		<ele>351</ele>
		<time>2011-09-11T11:13:57.929Z</time>
		<geoidheight>305</geoidheight>
	</trkpt>
	<trkpt lat="50.680826" lon="6.201266">
		<ele>351</ele>
		<time>2011-09-11T11:13:58.931Z</time>
		<geoidheight>305</geoidheight>
	</trkpt>
	<trkpt lat="50.680822" lon="6.201280">
		<ele>351</ele>
		<time>2011-09-11T11:13:59.930Z</time>
		<geoidheight>305</geoidheight>
	</trkpt>
	<trkpt lat="50.680815" lon="6.201296">
		<ele>351</ele>
		<time>2011-09-11T11:14:00.931Z</time>
		<geoidheight>305</geoidheight>
	</trkpt>
	<trkpt lat="50.680809" lon="6.201315">
		<ele>351</ele>
		<time>2011-09-11T11:14:01.931Z</time>
		<geoidheight>305</geoidheight>
	</trkpt>
	<trkpt lat="50.680801" lon="6.201331">
		<ele>351</ele>
		<time>2011-09-11T11:14:02.931Z</time>
		<geoidheight>305</geoidheight>
	</trkpt>
	<trkpt lat="50.680796" lon="6.201352">
		<ele>351</ele>
		<time>2011-09-11T11:14:03.930Z</time>
		<geoidheight>305</geoidheight>
	</trkpt>
	<trkpt lat="50.680794" lon="6.201375">
		<ele>351</ele>
		<time>2011-09-11T11:14:04.930Z</time>
		<geoidheight>305</geoidheight>
	</trkpt>
	<trkpt lat="50.680791" lon="6.201396">
		<ele>351</ele>
		<time>2011-09-11T11:14:05.940Z</time>
		<geoidheight>305</geoidheight>
	</trkpt>
	<trkpt lat="50.680787" lon="6.201415">
		<ele>352</ele>
		<time>2011-09-11T11:14:06.932Z</time>
		<geoidheight>306</geoidheight>
	</trkpt>
	<trkpt lat="50.680794" lon="6.201437">
		<ele>352</ele>
		<time>2011-09-11T11:14:07.931Z</time>
		<geoidheight>306</geoidheight>
	</trkpt>
	<trkpt lat="50.680793" lon="6.201460">
		<ele>352</ele>
		<time>2011-09-11T11:14:08.930Z</time>
		<geoidheight>306</geoidheight>
	</trkpt>
	<trkpt lat="50.680788" lon="6.201482">
		<ele>352</ele>
		<time>2011-09-11T11:14:09.932Z</time>
		<geoidheight>306</geoidheight>
	</trkpt>
	<trkpt lat="50.680782" lon="6.201498">
		<ele>352</ele>
		<time>2011-09-11T11:14:10.930Z</time>
		<geoidheight>306</geoidheight>
	</trkpt>
	<trkpt lat="50.680774" lon="6.201511">
		<ele>352</ele>
		<time>2011-09-11T11:14:11.931Z</time>
		<geoidheight>306</geoidheight>
	</trkpt>
	<trkpt lat="50.680766" lon="6.201524">
		<ele>353</ele>
		<time>2011-09-11T11:14:12.932Z</time>
		<geoidheight>307</geoidheight>
	</trkpt>
	<trkpt lat="50.680757" lon="6.201536">
		<ele>353</ele>
		<time>2011-09-11T11:14:13.930Z</time>
		<geoidheight>307</geoidheight>
	</trkpt>
	<trkpt lat="50.680750" lon="6.201550">
		<ele>353</ele>
		<time>2011-09-11T11:14:14.933Z</time>
		<geoidheight>307</geoidheight>
	</trkpt>
	<trkpt lat="50.680742" lon="6.201563">
		<ele>353</ele>
		<time>2011-09-11T11:14:15.933Z</time>
		<geoidheight>307</geoidheight>
	</trkpt>
	<trkpt lat="50.680735" lon="6.201577">
		<ele>353</ele>
		<time>2011-09-11T11:14:16.928Z</time>
		<geoidheight>307</geoidheight>
	</trkpt>
	<trkpt lat="50.680731" lon="6.201593">
		<ele>353</ele>
		<time>2011-09-11T11:14:17.930Z</time>
		<geoidheight>307</geoidheight>
	</trkpt>
	<trkpt lat="50.680727" lon="6.201609">
		<ele>354</ele>
		<time>2011-09-11T11:14:18.931Z</time>
		<geoidheight>308</geoidheight>
	</trkpt>
	<trkpt lat="50.680724" lon="6.201623">
		<ele>354</ele>
		<time>2011-09-11T11:14:19.933Z</time>
		<geoidheight>308</geoidheight>
	</trkpt>
	<trkpt lat="50.680718" lon="6.201637">
		<ele>354</ele>
		<time>2011-09-11T11:14:20.931Z</time>
		<geoidheight>308</geoidheight>
	</trkpt>
	<trkpt lat="50.680712" lon="6.201652">
		<ele>354</ele>
		<time>2011-09-11T11:14:21.933Z</time>
		<geoidheight>308</geoidheight>
	</trkpt>
	<trkpt lat="50.680707" lon="6.201670">
		<ele>354</ele>
		<time>2011-09-11T11:14:22.930Z</time>
		<geoidheight>308</geoidheight>
	</trkpt>
	<trkpt lat="50.680699" lon="6.201686">
		<ele>354</ele>
		<time>2011-09-11T11:14:23.930Z</time>
		<geoidheight>308</geoidheight>
	</trkpt>
	<trkpt lat="50.680692" lon="6.201702">
		<ele>354</ele>
		<time>2011-09-11T11:14:24.932Z</time>
		<geoidheight>308</geoidheight>
	</trkpt>
	<trkpt lat="50.680686" lon="6.201720">
		<ele>355</ele>
		<time>2011-09-11T11:14:25.933Z</time>
		<geoidheight>309</geoidheight>
	</trkpt>
	<trkpt lat="50.680679" lon="6.201738">
		<ele>355</ele>
		<time>2011-09-11T11:14:26.933Z</time>
		<geoidheight>309</geoidheight>
	</trkpt>
	<trkpt lat="50.680673" lon="6.201756">
		<ele>355</ele>
		<time>2011-09-11T11:14:27.931Z</time>
		<geoidheight>309</geoidheight>
	</trkpt>
	<trkpt lat="50.680666" lon="6.201771">
		<ele>355</ele>
		<time>2011-09-11T11:14:28.930Z</time>
		<geoidheight>309</geoidheight>
	</trkpt>
	<trkpt lat="50.680659" lon="6.201786">
		<ele>355</ele>
		<time>2011-09-11T11:14:29.931Z</time>
		<geoidheight>309</geoidheight>
	</trkpt>
	<trkpt lat="50.680650" lon="6.201798">
		<ele>355</ele>
		<time>2011-09-11T11:14:30.930Z</time>
		<geoidheight>309</geoidheight>
	</trkpt>
	<trkpt lat="50.680641" lon="6.201810">
		<ele>355</ele>
		<time>2011-09-11T11:14:31.941Z</time>
		<geoidheight>309</geoidheight>
	</trkpt>
	<trkpt lat="50.680628" lon="6.201825">
		<ele>356</ele>
		<time>2011-09-11T11:14:32.944Z</time>
		<geoidheight>310</geoidheight>
	</trkpt>
	<trkpt lat="50.680616" lon="6.201835">
		<ele>356</ele>
		<time>2011-09-11T11:14:33.938Z</time>
		<geoidheight>310</geoidheight>
	</trkpt>
	<trkpt lat="50.680603" lon="6.201839">
		<ele>356</ele>
		<time>2011-09-11T11:14:34.955Z</time>
		<geoidheight>310</geoidheight>
	</trkpt>
	<trkpt lat="50.680591" lon="6.201852">
		<ele>356</ele>
		<time>2011-09-11T11:14:35.942Z</time>
		<geoidheight>310</geoidheight>
	</trkpt>
	<trkpt lat="50.680579" lon="6.201862">
		<ele>356</ele>
		<time>2011-09-11T11:14:36.945Z</time>
		<geoidheight>310</geoidheight>
	</trkpt>
	<trkpt lat="50.680568" lon="6.201872">
		<ele>356</ele>
		<time>2011-09-11T11:14:37.944Z</time>
		<geoidheight>310</geoidheight>
	</trkpt>
	<trkpt lat="50.680557" lon="6.201881">
		<ele>356</ele>
		<time>2011-09-11T11:14:38.964Z</time>
		<geoidheight>310</geoidheight>
	</trkpt>
	<trkpt lat="50.680543" lon="6.201890">
		<ele>357</ele>
		<time>2011-09-11T11:14:39.950Z</time>
		<geoidheight>311</geoidheight>
	</trkpt>
	<trkpt lat="50.680529" lon="6.201901">
		<ele>357</ele>
		<time>2011-09-11T11:14:40.953Z</time>
		<geoidheight>311</geoidheight>
	</trkpt>
	<trkpt lat="50.680513" lon="6.201910">
		<ele>357</ele>
		<time>2011-09-11T11:14:41.948Z</time>
		<geoidheight>311</geoidheight>
	</trkpt>
	<trkpt lat="50.680497" lon="6.201921">
		<ele>357</ele>
		<time>2011-09-11T11:14:42.946Z</time>
		<geoidheight>311</geoidheight>
	</trkpt>
	<trkpt lat="50.680482" lon="6.201933">
		<ele>357</ele>
		<time>2011-09-11T11:14:43.945Z</time>
		<geoidheight>311</geoidheight>
	</trkpt>
	<trkpt lat="50.680465" lon="6.201941">
		<ele>357</ele>
		<time>2011-09-11T11:14:44.949Z</time>
		<geoidheight>311</geoidheight>
	</trkpt>
	<trkpt lat="50.680451" lon="6.201950">
		<ele>357</ele>
		<time>2011-09-11T11:14:45.947Z</time>
		<geoidheight>311</geoidheight>
	</trkpt>
	<trkpt lat="50.680437" lon="6.201959">
		<ele>358</ele>
		<time>2011-09-11T11:14:46.935Z</time>
		<geoidheight>312</geoidheight>
	</trkpt>
	<trkpt lat="50.680424" lon="6.201966">
		<ele>358</ele>
		<time>2011-09-11T11:14:47.948Z</time>
		<geoidheight>312</geoidheight>
	</trkpt>
	<trkpt lat="50.680413" lon="6.201974">
		<ele>358</ele>
		<time>2011-09-11T11:14:48.951Z</time>
		<geoidheight>312</geoidheight>
	</trkpt>
	<trkpt lat="50.680403" lon="6.201982">
		<ele>358</ele>
		<time>2011-09-11T11:14:49.948Z</time>
		<geoidheight>312</geoidheight>
	</trkpt>
	<trkpt lat="50.680390" lon="6.201991">
		<ele>358</ele>
		<time>2011-09-11T11:14:50.949Z</time>
		<geoidheight>312</geoidheight>
	</trkpt>
	<trkpt lat="50.680378" lon="6.202005">
		<ele>358</ele>
		<time>2011-09-11T11:14:51.947Z</time>
		<geoidheight>312</geoidheight>
	</trkpt>
	<trkpt lat="50.680368" lon="6.202014">
		<ele>358</ele>
		<time>2011-09-11T11:14:52.947Z</time>
		<geoidheight>312</geoidheight>
	</trkpt>
	<trkpt lat="50.680359" lon="6.202023">
		<ele>358</ele>
		<time>2011-09-11T11:14:53.948Z</time>
		<geoidheight>312</geoidheight>
	</trkpt>
	<trkpt lat="50.680349" lon="6.202028">
		<ele>359</ele>
		<time>2011-09-11T11:14:54.963Z</time>
		<geoidheight>313</geoidheight>
	</trkpt>
	<trkpt lat="50.680339" lon="6.202033">
		<ele>359</ele>
		<time>2011-09-11T11:14:55.947Z</time>
		<geoidheight>313</geoidheight>
	</trkpt>
	<trkpt lat="50.680329" lon="6.202038">
		<ele>359</ele>
		<time>2011-09-11T11:14:56.949Z</time>
		<geoidheight>313</geoidheight>
	</trkpt>
	<trkpt lat="50.680322" lon="6.202044">
		<ele>359</ele>
		<time>2011-09-11T11:14:57.950Z</time>
		<geoidheight>313</geoidheight>
	</trkpt>
	<trkpt lat="50.680322" lon="6.202044">
		<ele>359</ele>
		<time>2011-09-11T11:14:58.955Z</time>
		<geoidheight>313</geoidheight>
	</trkpt>
	<trkpt lat="50.680317" lon="6.202053">
		<ele>359</ele>
		<time>2011-09-11T11:14:59.963Z</time>
		<geoidheight>313</geoidheight>
	</trkpt>
	<trkpt lat="50.680311" lon="6.202057">
		<ele>359</ele>
		<time>2011-09-11T11:15:00.949Z</time>
		<geoidheight>313</geoidheight>
	</trkpt>
	<trkpt lat="50.680304" lon="6.202064">
		<ele>359</ele>
		<time>2011-09-11T11:15:01.955Z</time>
		<geoidheight>313</geoidheight>
	</trkpt>
	<trkpt lat="50.680296" lon="6.202068">
		<ele>359</ele>
		<time>2011-09-11T11:15:02.953Z</time>
		<geoidheight>313</geoidheight>
	</trkpt>
	<trkpt lat="50.680290" lon="6.202070">
		<ele>359</ele>
		<time>2011-09-11T11:15:03.949Z</time>
		<geoidheight>313</geoidheight>
	</trkpt>
	<trkpt lat="50.680283" lon="6.202072">
		<ele>360</ele>
		<time>2011-09-11T11:15:04.949Z</time>
		<geoidheight>314</geoidheight>
	</trkpt>
	<trkpt lat="50.680275" lon="6.202073">
		<ele>360</ele>
		<time>2011-09-11T11:15:05.954Z</time>
		<geoidheight>314</geoidheight>
	</trkpt>
	<trkpt lat="50.680266" lon="6.202072">
		<ele>360</ele>
		<time>2011-09-11T11:15:06.943Z</time>
		<geoidheight>314</geoidheight>
	</trkpt>
	<trkpt lat="50.680254" lon="6.202071">
		<ele>360</ele>
		<time>2011-09-11T11:15:07.938Z</time>
		<geoidheight>314</geoidheight>
	</trkpt>
	<trkpt lat="50.680241" lon="6.202071">
		<ele>360</ele>
		<time>2011-09-11T11:15:08.937Z</time>
		<geoidheight>314</geoidheight>
	</trkpt>
	<trkpt lat="50.680230" lon="6.202068">
		<ele>360</ele>
		<time>2011-09-11T11:15:09.941Z</time>
		<geoidheight>314</geoidheight>
	</trkpt>
	<trkpt lat="50.680218" lon="6.202066">
		<ele>360</ele>
		<time>2011-09-11T11:15:10.941Z</time>
		<geoidheight>314</geoidheight>
	</trkpt>
	<trkpt lat="50.680208" lon="6.202061">
		<ele>360</ele>
		<time>2011-09-11T11:15:11.934Z</time>
		<geoidheight>314</geoidheight>
	</trkpt>
	<trkpt lat="50.680196" lon="6.202063">
		<ele>360</ele>
		<time>2011-09-11T11:15:12.941Z</time>
		<geoidheight>314</geoidheight>
	</trkpt>
	<trkpt lat="50.680185" lon="6.202064">
		<ele>360</ele>
		<time>2011-09-11T11:15:13.943Z</time>
		<geoidheight>314</geoidheight>
	</trkpt>
	<trkpt lat="50.680175" lon="6.202058">
		<ele>360</ele>
		<time>2011-09-11T11:15:14.943Z</time>
		<geoidheight>314</geoidheight>
	</trkpt>
	<trkpt lat="50.680165" lon="6.202054">
		<ele>361</ele>
		<time>2011-09-11T11:15:15.940Z</time>
		<geoidheight>315</geoidheight>
	</trkpt>
	<trkpt lat="50.680155" lon="6.202052">
		<ele>361</ele>
		<time>2011-09-11T11:15:16.933Z</time>
		<geoidheight>315</geoidheight>
	</trkpt>
	<trkpt lat="50.680146" lon="6.202050">
		<ele>361</ele>
		<time>2011-09-11T11:15:17.938Z</time>
		<geoidheight>315</geoidheight>
	</trkpt>
	<trkpt lat="50.680139" lon="6.202046">
		<ele>361</ele>
		<time>2011-09-11T11:15:18.942Z</time>
		<geoidheight>315</geoidheight>
	</trkpt>
	<trkpt lat="50.680132" lon="6.202042">
		<ele>361</ele>
		<time>2011-09-11T11:15:19.932Z</time>
		<geoidheight>315</geoidheight>
	</trkpt>
	<trkpt lat="50.680122" lon="6.202039">
		<ele>361</ele>
		<time>2011-09-11T11:15:20.931Z</time>
		<geoidheight>315</geoidheight>
	</trkpt>
	<trkpt lat="50.680111" lon="6.202037">
		<ele>361</ele>
		<time>2011-09-11T11:15:21.933Z</time>
		<geoidheight>315</geoidheight>
	</trkpt>
	<trkpt lat="50.680097" lon="6.202033">
		<ele>361</ele>
		<time>2011-09-11T11:15:22.931Z</time>
		<geoidheight>315</geoidheight>
	</trkpt>
	<trkpt lat="50.680085" lon="6.202027">
		<ele>361</ele>
		<time>2011-09-11T11:15:23.931Z</time>
		<geoidheight>315</geoidheight>
	</trkpt>
	<trkpt lat="50.680074" lon="6.202023">
		<ele>361</ele>
		<time>2011-09-11T11:15:24.932Z</time>
		<geoidheight>315</geoidheight>
	</trkpt>
	<trkpt lat="50.680060" lon="6.202018">
		<ele>361</ele>
		<time>2011-09-11T11:15:25.931Z</time>
		<geoidheight>315</geoidheight>
	</trkpt>
	<trkpt lat="50.680044" lon="6.202013">
		<ele>361</ele>
		<time>2011-09-11T11:15:26.939Z</time>
		<geoidheight>315</geoidheight>
	</trkpt>
	<trkpt lat="50.680025" lon="6.202007">
		<ele>361</ele>
		<time>2011-09-11T11:15:27.932Z</time>
		<geoidheight>315</geoidheight>
	</trkpt>
	<trkpt lat="50.680010" lon="6.201998">
		<ele>361</ele>
		<time>2011-09-11T11:15:28.930Z</time>
		<geoidheight>315</geoidheight>
	</trkpt>
	<trkpt lat="50.679996" lon="6.201989">
		<ele>361</ele>
		<time>2011-09-11T11:15:29.932Z</time>
		<geoidheight>315</geoidheight>
	</trkpt>
	<trkpt lat="50.679983" lon="6.201982">
		<ele>361</ele>
		<time>2011-09-11T11:15:30.932Z</time>
		<geoidheight>315</geoidheight>
	</trkpt>
	<trkpt lat="50.679970" lon="6.201978">
		<ele>361</ele>
		<time>2011-09-11T11:15:31.931Z</time>
		<geoidheight>315</geoidheight>
	</trkpt>
	<trkpt lat="50.679958" lon="6.201965">
		<ele>361</ele>
		<time>2011-09-11T11:15:32.930Z</time>
		<geoidheight>315</geoidheight>
	</trkpt>
	<trkpt lat="50.679945" lon="6.201958">
		<ele>361</ele>
		<time>2011-09-11T11:15:33.939Z</time>
		<geoidheight>315</geoidheight>
	</trkpt>
	<trkpt lat="50.679932" lon="6.201953">
		<ele>361</ele>
		<time>2011-09-11T11:15:34.945Z</time>
		<geoidheight>315</geoidheight>
	</trkpt>
	<trkpt lat="50.679917" lon="6.201949">
		<ele>361</ele>
		<time>2011-09-11T11:15:35.942Z</time>
		<geoidheight>315</geoidheight>
	</trkpt>
	<trkpt lat="50.679899" lon="6.201945">
		<ele>361</ele>
		<time>2011-09-11T11:15:36.936Z</time>
		<geoidheight>315</geoidheight>
	</trkpt>
	<trkpt lat="50.679881" lon="6.201938">
		<ele>361</ele>
		<time>2011-09-11T11:15:37.937Z</time>
		<geoidheight>315</geoidheight>
	</trkpt>
	<trkpt lat="50.679864" lon="6.201928">
		<ele>361</ele>
		<time>2011-09-11T11:15:38.939Z</time>
		<geoidheight>315</geoidheight>
	</trkpt>
	<trkpt lat="50.679846" lon="6.201924">
		<ele>361</ele>
		<time>2011-09-11T11:15:39.941Z</time>
		<geoidheight>315</geoidheight>
	</trkpt>
	<trkpt lat="50.679830" lon="6.201920">
		<ele>361</ele>
		<time>2011-09-11T11:15:40.937Z</time>
		<geoidheight>315</geoidheight>
	</trkpt>
	<trkpt lat="50.679815" lon="6.201918">
		<ele>361</ele>
		<time>2011-09-11T11:15:41.944Z</time>
		<geoidheight>315</geoidheight>
	</trkpt>
	<trkpt lat="50.679804" lon="6.201912">
		<ele>361</ele>
		<time>2011-09-11T11:15:42.937Z</time>
		<geoidheight>315</geoidheight>
	</trkpt>
	<trkpt lat="50.679794" lon="6.201908">
		<ele>361</ele>
		<time>2011-09-11T11:15:43.939Z</time>
		<geoidheight>315</geoidheight>
	</trkpt>
	<trkpt lat="50.679786" lon="6.201903">
		<ele>361</ele>
		<time>2011-09-11T11:15:44.953Z</time>
		<geoidheight>315</geoidheight>
	</trkpt>
	<trkpt lat="50.679779" lon="6.201897">
		<ele>362</ele>
		<time>2011-09-11T11:15:45.942Z</time>
		<geoidheight>316</geoidheight>
	</trkpt>
	<trkpt lat="50.679773" lon="6.201893">
		<ele>362</ele>
		<time>2011-09-11T11:15:46.936Z</time>
		<geoidheight>316</geoidheight>
	</trkpt>
	<trkpt lat="50.679767" lon="6.201888">
		<ele>362</ele>
		<time>2011-09-11T11:15:47.940Z</time>
		<geoidheight>316</geoidheight>
	</trkpt>
	<trkpt lat="50.679759" lon="6.201885">
		<ele>362</ele>
		<time>2011-09-11T11:15:48.936Z</time>
		<geoidheight>316</geoidheight>
	</trkpt>
	<trkpt lat="50.679750" lon="6.201881">
		<ele>362</ele>
		<time>2011-09-11T11:15:49.940Z</time>
		<geoidheight>316</geoidheight>
	</trkpt>
	<trkpt lat="50.679741" lon="6.201879">
		<ele>362</ele>
		<time>2011-09-11T11:15:50.942Z</time>
		<geoidheight>316</geoidheight>
	</trkpt>
	<trkpt lat="50.679732" lon="6.201878">
		<ele>362</ele>
		<time>2011-09-11T11:15:51.941Z</time>
		<geoidheight>316</geoidheight>
	</trkpt>
	<trkpt lat="50.679722" lon="6.201879">
		<ele>362</ele>
		<time>2011-09-11T11:15:52.931Z</time>
		<geoidheight>316</geoidheight>
	</trkpt>
	<trkpt lat="50.679711" lon="6.201878">
		<ele>362</ele>
		<time>2011-09-11T11:15:53.933Z</time>
		<geoidheight>316</geoidheight>
	</trkpt>
	<trkpt lat="50.679701" lon="6.201873">
		<ele>362</ele>
		<time>2011-09-11T11:15:54.938Z</time>
		<geoidheight>316</geoidheight>
	</trkpt>
	<trkpt lat="50.679689" lon="6.201871">
		<ele>362</ele>
		<time>2011-09-11T11:15:55.932Z</time>
		<geoidheight>316</geoidheight>
	</trkpt>
	<trkpt lat="50.679676" lon="6.201871">
		<ele>362</ele>
		<time>2011-09-11T11:15:56.932Z</time>
		<geoidheight>316</geoidheight>
	</trkpt>
	<trkpt lat="50.679662" lon="6.201872">
		<ele>362</ele>
		<time>2011-09-11T11:15:57.931Z</time>
		<geoidheight>316</geoidheight>
	</trkpt>
	<trkpt lat="50.679648" lon="6.201872">
		<ele>362</ele>
		<time>2011-09-11T11:15:58.934Z</time>
		<geoidheight>316</geoidheight>
	</trkpt>
	<trkpt lat="50.679636" lon="6.201873">
		<ele>362</ele>
		<time>2011-09-11T11:15:59.931Z</time>
		<geoidheight>316</geoidheight>
	</trkpt>
	<trkpt lat="50.679630" lon="6.201880">
		<ele>363</ele>
		<time>2011-09-11T11:16:00.931Z</time>
		<geoidheight>317</geoidheight>
	</trkpt>
	<trkpt lat="50.679622" lon="6.201884">
		<ele>363</ele>
		<time>2011-09-11T11:16:01.932Z</time>
		<geoidheight>317</geoidheight>
	</trkpt>
	<trkpt lat="50.679617" lon="6.201890">
		<ele>363</ele>
		<time>2011-09-11T11:16:02.931Z</time>
		<geoidheight>317</geoidheight>
	</trkpt>
	<trkpt lat="50.679614" lon="6.201893">
		<ele>363</ele>
		<time>2011-09-11T11:16:03.932Z</time>
		<geoidheight>317</geoidheight>
	</trkpt>
	<trkpt lat="50.679609" lon="6.201893">
		<ele>363</ele>
		<time>2011-09-11T11:16:04.933Z</time>
		<geoidheight>317</geoidheight>
	</trkpt>
	<trkpt lat="50.679602" lon="6.201883">
		<ele>363</ele>
		<time>2011-09-11T11:16:05.930Z</time>
		<geoidheight>317</geoidheight>
	</trkpt>
	<trkpt lat="50.679593" lon="6.201870">
		<ele>363</ele>
		<time>2011-09-11T11:16:06.931Z</time>
		<geoidheight>317</geoidheight>
	</trkpt>
	<trkpt lat="50.679583" lon="6.201860">
		<ele>363</ele>
		<time>2011-09-11T11:16:07.932Z</time>
		<geoidheight>317</geoidheight>
	</trkpt>
	<trkpt lat="50.679574" lon="6.201850">
		<ele>363</ele>
		<time>2011-09-11T11:16:08.930Z</time>
		<geoidheight>317</geoidheight>
	</trkpt>
	<trkpt lat="50.679565" lon="6.201843">
		<ele>363</ele>
		<time>2011-09-11T11:16:09.930Z</time>
		<geoidheight>317</geoidheight>
	</trkpt>
	<trkpt lat="50.679555" lon="6.201838">
		<ele>364</ele>
		<time>2011-09-11T11:16:10.932Z</time>
		<geoidheight>318</geoidheight>
	</trkpt>
	<trkpt lat="50.679544" lon="6.201834">
		<ele>364</ele>
		<time>2011-09-11T11:16:11.933Z</time>
		<geoidheight>318</geoidheight>
	</trkpt>
	<trkpt lat="50.679532" lon="6.201830">
		<ele>364</ele>
		<time>2011-09-11T11:16:12.933Z</time>
		<geoidheight>318</geoidheight>
	</trkpt>
	<trkpt lat="50.679520" lon="6.201823">
		<ele>364</ele>
		<time>2011-09-11T11:16:13.934Z</time>
		<geoidheight>318</geoidheight>
	</trkpt>
	<trkpt lat="50.679506" lon="6.201819">
		<ele>364</ele>
		<time>2011-09-11T11:16:14.931Z</time>
		<geoidheight>318</geoidheight>
	</trkpt>
	<trkpt lat="50.679494" lon="6.201813">
		<ele>364</ele>
		<time>2011-09-11T11:16:15.932Z</time>
		<geoidheight>318</geoidheight>
	</trkpt>
	<trkpt lat="50.679484" lon="6.201807">
		<ele>364</ele>
		<time>2011-09-11T11:16:16.932Z</time>
		<geoidheight>318</geoidheight>
	</trkpt>
	<trkpt lat="50.679475" lon="6.201801">
		<ele>364</ele>
		<time>2011-09-11T11:16:17.933Z</time>
		<geoidheight>318</geoidheight>
	</trkpt>
	<trkpt lat="50.679465" lon="6.201800">
		<ele>365</ele>
		<time>2011-09-11T11:16:18.932Z</time>
		<geoidheight>319</geoidheight>
	</trkpt>
	<trkpt lat="50.679454" lon="6.201801">
		<ele>365</ele>
		<time>2011-09-11T11:16:19.931Z</time>
		<geoidheight>319</geoidheight>
	</trkpt>
	<trkpt lat="50.679442" lon="6.201801">
		<ele>365</ele>
		<time>2011-09-11T11:16:20.933Z</time>
		<geoidheight>319</geoidheight>
	</trkpt>
	<trkpt lat="50.679433" lon="6.201800">
		<ele>365</ele>
		<time>2011-09-11T11:16:21.932Z</time>
		<geoidheight>319</geoidheight>
	</trkpt>
	<trkpt lat="50.679422" lon="6.201800">
		<ele>365</ele>
		<time>2011-09-11T11:16:22.931Z</time>
		<geoidheight>319</geoidheight>
	</trkpt>
	<trkpt lat="50.679412" lon="6.201798">
		<ele>365</ele>
		<time>2011-09-11T11:16:23.934Z</time>
		<geoidheight>319</geoidheight>
	</trkpt>
	<trkpt lat="50.679401" lon="6.201797">
		<ele>365</ele>
		<time>2011-09-11T11:16:24.931Z</time>
		<geoidheight>319</geoidheight>
	</trkpt>
	<trkpt lat="50.679392" lon="6.201793">
		<ele>365</ele>
		<time>2011-09-11T11:16:25.931Z</time>
		<geoidheight>319</geoidheight>
	</trkpt>
	<trkpt lat="50.679381" lon="6.201790">
		<ele>365</ele>
		<time>2011-09-11T11:16:26.934Z</time>
		<geoidheight>319</geoidheight>
	</trkpt>
	<trkpt lat="50.679368" lon="6.201785">
		<ele>366</ele>
		<time>2011-09-11T11:16:27.944Z</time>
		<geoidheight>320</geoidheight>
	</trkpt>
	<trkpt lat="50.679354" lon="6.201778">
		<ele>366</ele>
		<time>2011-09-11T11:16:28.945Z</time>
		<geoidheight>320</geoidheight>
	</trkpt>
	<trkpt lat="50.679342" lon="6.201772">
		<ele>366</ele>
		<time>2011-09-11T11:16:29.944Z</time>
		<geoidheight>320</geoidheight>
	</trkpt>
	<trkpt lat="50.679331" lon="6.201768">
		<ele>366</ele>
		<time>2011-09-11T11:16:30.934Z</time>
		<geoidheight>320</geoidheight>
	</trkpt>
	<trkpt lat="50.679321" lon="6.201760">
		<ele>366</ele>
		<time>2011-09-11T11:16:31.942Z</time>
		<geoidheight>320</geoidheight>
	</trkpt>
	<trkpt lat="50.679310" lon="6.201753">
		<ele>366</ele>
		<time>2011-09-11T11:16:32.941Z</time>
		<geoidheight>320</geoidheight>
	</trkpt>
	<trkpt lat="50.679301" lon="6.201743">
		<ele>366</ele>
		<time>2011-09-11T11:16:33.940Z</time>
		<geoidheight>320</geoidheight>
	</trkpt>
	<trkpt lat="50.679291" lon="6.201737">
		<ele>366</ele>
		<time>2011-09-11T11:16:34.931Z</time>
		<geoidheight>320</geoidheight>
	</trkpt>
	<trkpt lat="50.679280" lon="6.201736">
		<ele>366</ele>
		<time>2011-09-11T11:16:35.933Z</time>
		<geoidheight>320</geoidheight>
	</trkpt>
	<trkpt lat="50.679269" lon="6.201730">
		<ele>367</ele>
		<time>2011-09-11T11:16:36.931Z</time>
		<geoidheight>321</geoidheight>
	</trkpt>
	<trkpt lat="50.679258" lon="6.201723">
		<ele>367</ele>
		<time>2011-09-11T11:16:37.932Z</time>
		<geoidheight>321</geoidheight>
	</trkpt>
	<trkpt lat="50.679248" lon="6.201720">
		<ele>367</ele>
		<time>2011-09-11T11:16:38.934Z</time>
		<geoidheight>321</geoidheight>
	</trkpt>
	<trkpt lat="50.679240" lon="6.201716">
		<ele>367</ele>
		<time>2011-09-11T11:16:39.931Z</time>
		<geoidheight>321</geoidheight>
	</trkpt>
	<trkpt lat="50.679235" lon="6.201708">
		<ele>367</ele>
		<time>2011-09-11T11:16:40.932Z</time>
		<geoidheight>321</geoidheight>
	</trkpt>
	<trkpt lat="50.679229" lon="6.201702">
		<ele>367</ele>
		<time>2011-09-11T11:16:41.931Z</time>
		<geoidheight>321</geoidheight>
	</trkpt>
	<trkpt lat="50.679220" lon="6.201700">
		<ele>367</ele>
		<time>2011-09-11T11:16:42.931Z</time>
		<geoidheight>321</geoidheight>
	</trkpt>
	<trkpt lat="50.679211" lon="6.201697">
		<ele>368</ele>
		<time>2011-09-11T11:16:43.932Z</time>
		<geoidheight>322</geoidheight>
	</trkpt>
	<trkpt lat="50.679202" lon="6.201690">
		<ele>368</ele>
		<time>2011-09-11T11:16:44.932Z</time>
		<geoidheight>322</geoidheight>
	</trkpt>
	<trkpt lat="50.679192" lon="6.201684">
		<ele>368</ele>
		<time>2011-09-11T11:16:45.933Z</time>
		<geoidheight>322</geoidheight>
	</trkpt>
	<trkpt lat="50.679183" lon="6.201672">
		<ele>368</ele>
		<time>2011-09-11T11:16:46.932Z</time>
		<geoidheight>322</geoidheight>
	</trkpt>
	<trkpt lat="50.679176" lon="6.201656">
		<ele>368</ele>
		<time>2011-09-11T11:16:47.933Z</time>
		<geoidheight>322</geoidheight>
	</trkpt>
	<trkpt lat="50.679167" lon="6.201645">
		<ele>368</ele>
		<time>2011-09-11T11:16:48.932Z</time>
		<geoidheight>322</geoidheight>
	</trkpt>
	<trkpt lat="50.679160" lon="6.201631">
		<ele>368</ele>
		<time>2011-09-11T11:16:49.931Z</time>
		<geoidheight>322</geoidheight>
	</trkpt>
	<trkpt lat="50.679151" lon="6.201621">
		<ele>368</ele>
		<time>2011-09-11T11:16:50.930Z</time>
		<geoidheight>322</geoidheight>
	</trkpt>
	<trkpt lat="50.679143" lon="6.201613">
		<ele>369</ele>
		<time>2011-09-11T11:16:51.933Z</time>
		<geoidheight>323</geoidheight>
	</trkpt>
	<trkpt lat="50.679137" lon="6.201604">
		<ele>369</ele>
		<time>2011-09-11T11:16:52.932Z</time>
		<geoidheight>323</geoidheight>
	</trkpt>
	<trkpt lat="50.679129" lon="6.201601">
		<ele>369</ele>
		<time>2011-09-11T11:16:53.933Z</time>
		<geoidheight>323</geoidheight>
	</trkpt>
	<trkpt lat="50.679119" lon="6.201599">
		<ele>369</ele>
		<time>2011-09-11T11:16:54.933Z</time>
		<geoidheight>323</geoidheight>
	</trkpt>
	<trkpt lat="50.679108" lon="6.201597">
		<ele>369</ele>
		<time>2011-09-11T11:16:55.931Z</time>
		<geoidheight>323</geoidheight>
	</trkpt>
	<trkpt lat="50.679099" lon="6.201592">
		<ele>369</ele>
		<time>2011-09-11T11:16:56.931Z</time>
		<geoidheight>323</geoidheight>
	</trkpt>
	<trkpt lat="50.679090" lon="6.201588">
		<ele>369</ele>
		<time>2011-09-11T11:16:57.933Z</time>
		<geoidheight>323</geoidheight>
	</trkpt>
	<trkpt lat="50.679081" lon="6.201583">
		<ele>369</ele>
		<time>2011-09-11T11:16:58.932Z</time>
		<geoidheight>323</geoidheight>
	</trkpt>
	<trkpt lat="50.679071" lon="6.201578">
		<ele>369</ele>
		<time>2011-09-11T11:16:59.932Z</time>
		<geoidheight>323</geoidheight>
	</trkpt>
	<trkpt lat="50.679061" lon="6.201573">
		<ele>369</ele>
		<time>2011-09-11T11:17:00.936Z</time>
		<geoidheight>323</geoidheight>
	</trkpt>
	<trkpt lat="50.679055" lon="6.201569">
		<ele>369</ele>
		<time>2011-09-11T11:17:01.935Z</time>
		<geoidheight>323</geoidheight>
	</trkpt>
	<trkpt lat="50.679050" lon="6.201564">
		<ele>370</ele>
		<time>2011-09-11T11:17:02.934Z</time>
		<geoidheight>324</geoidheight>
	</trkpt>
	<trkpt lat="50.679046" lon="6.201556">
		<ele>370</ele>
		<time>2011-09-11T11:17:03.943Z</time>
		<geoidheight>324</geoidheight>
	</trkpt>
	<trkpt lat="50.679040" lon="6.201552">
		<ele>370</ele>
		<time>2011-09-11T11:17:04.938Z</time>
		<geoidheight>324</geoidheight>
	</trkpt>
	<trkpt lat="50.679034" lon="6.201548">
		<ele>370</ele>
		<time>2011-09-11T11:17:05.942Z</time>
		<geoidheight>324</geoidheight>
	</trkpt>
	<trkpt lat="50.679028" lon="6.201545">
		<ele>370</ele>
		<time>2011-09-11T11:17:06.952Z</time>
		<geoidheight>324</geoidheight>
	</trkpt>
	<trkpt lat="50.679022" lon="6.201541">
		<ele>370</ele>
		<time>2011-09-11T11:17:07.942Z</time>
		<geoidheight>324</geoidheight>
	</trkpt>
	<trkpt lat="50.679019" lon="6.201536">
		<ele>370</ele>
		<time>2011-09-11T11:17:08.931Z</time>
		<geoidheight>324</geoidheight>
	</trkpt>
	<trkpt lat="50.679013" lon="6.201532">
		<ele>370</ele>
		<time>2011-09-11T11:17:09.934Z</time>
		<geoidheight>324</geoidheight>
	</trkpt>
	<trkpt lat="50.679005" lon="6.201527">
		<ele>371</ele>
		<time>2011-09-11T11:17:10.931Z</time>
		<geoidheight>325</geoidheight>
	</trkpt>
	<trkpt lat="50.678996" lon="6.201520">
		<ele>371</ele>
		<time>2011-09-11T11:17:11.932Z</time>
		<geoidheight>325</geoidheight>
	</trkpt>
	<trkpt lat="50.678986" lon="6.201513">
		<ele>371</ele>
		<time>2011-09-11T11:17:12.931Z</time>
		<geoidheight>325</geoidheight>
	</trkpt>
	<trkpt lat="50.678978" lon="6.201502">
		<ele>371</ele>
		<time>2011-09-11T11:17:13.933Z</time>
		<geoidheight>325</geoidheight>
	</trkpt>
	<trkpt lat="50.678969" lon="6.201492">
		<ele>371</ele>
		<time>2011-09-11T11:17:14.933Z</time>
		<geoidheight>325</geoidheight>
	</trkpt>
	<trkpt lat="50.678959" lon="6.201484">
		<ele>371</ele>
		<time>2011-09-11T11:17:15.932Z</time>
		<geoidheight>325</geoidheight>
	</trkpt>
	<trkpt lat="50.678949" lon="6.201475">
		<ele>371</ele>
		<time>2011-09-11T11:17:16.932Z</time>
		<geoidheight>325</geoidheight>
	</trkpt>
	<trkpt lat="50.678944" lon="6.201462">
		<ele>371</ele>
		<time>2011-09-11T11:17:17.934Z</time>
		<geoidheight>325</geoidheight>
	</trkpt>
	<trkpt lat="50.678939" lon="6.201454">
		<ele>372</ele>
		<time>2011-09-11T11:17:18.939Z</time>
		<geoidheight>326</geoidheight>
	</trkpt>
	<trkpt lat="50.678934" lon="6.201446">
		<ele>372</ele>
		<time>2011-09-11T11:17:19.935Z</time>
		<geoidheight>326</geoidheight>
	</trkpt>
	<trkpt lat="50.678926" lon="6.201439">
		<ele>372</ele>
		<time>2011-09-11T11:17:20.945Z</time>
		<geoidheight>326</geoidheight>
	</trkpt>
	<trkpt lat="50.678918" lon="6.201433">
		<ele>372</ele>
		<time>2011-09-11T11:17:21.943Z</time>
		<geoidheight>326</geoidheight>
	</trkpt>
	<trkpt lat="50.678912" lon="6.201424">
		<ele>372</ele>
		<time>2011-09-11T11:17:22.945Z</time>
		<geoidheight>326</geoidheight>
	</trkpt>
	<trkpt lat="50.678906" lon="6.201416">
		<ele>372</ele>
		<time>2011-09-11T11:17:23.946Z</time>
		<geoidheight>326</geoidheight>
	</trkpt>
	<trkpt lat="50.678898" lon="6.201411">
		<ele>372</ele>
		<time>2011-09-11T11:17:24.931Z</time>
		<geoidheight>326</geoidheight>
	</trkpt>
	<trkpt lat="50.678891" lon="6.201403">
		<ele>372</ele>
		<time>2011-09-11T11:17:25.933Z</time>
		<geoidheight>326</geoidheight>
	</trkpt>
	<trkpt lat="50.678883" lon="6.201398">
		<ele>372</ele>
		<time>2011-09-11T11:17:26.931Z</time>
		<geoidheight>326</geoidheight>
	</trkpt>
	<trkpt lat="50.678874" lon="6.201394">
		<ele>373</ele>
		<time>2011-09-11T11:17:27.933Z</time>
		<geoidheight>327</geoidheight>
	</trkpt>
	<trkpt lat="50.678866" lon="6.201391">
		<ele>373</ele>
		<time>2011-09-11T11:17:28.934Z</time>
		<geoidheight>327</geoidheight>
	</trkpt>
	<trkpt lat="50.678858" lon="6.201387">
		<ele>373</ele>
		<time>2011-09-11T11:17:29.933Z</time>
		<geoidheight>327</geoidheight>
	</trkpt>
	<trkpt lat="50.678851" lon="6.201384">
		<ele>373</ele>
		<time>2011-09-11T11:17:30.933Z</time>
		<geoidheight>327</geoidheight>
	</trkpt>
	<trkpt lat="50.678843" lon="6.201380">
		<ele>373</ele>
		<time>2011-09-11T11:17:31.933Z</time>
		<geoidheight>327</geoidheight>
	</trkpt>
	<trkpt lat="50.678832" lon="6.201372">
		<ele>373</ele>
		<time>2011-09-11T11:17:32.934Z</time>
		<geoidheight>327</geoidheight>
	</trkpt>
	<trkpt lat="50.678816" lon="6.201363">
		<ele>373</ele>
		<time>2011-09-11T11:17:33.932Z</time>
		<geoidheight>327</geoidheight>
	</trkpt>
	<trkpt lat="50.678794" lon="6.201349">
		<ele>373</ele>
		<time>2011-09-11T11:17:34.934Z</time>
		<geoidheight>327</geoidheight>
	</trkpt>
	<trkpt lat="50.678774" lon="6.201335">
		<ele>373</ele>
		<time>2011-09-11T11:17:35.932Z</time>
		<geoidheight>327</geoidheight>
	</trkpt>
	<trkpt lat="50.678759" lon="6.201324">
		<ele>373</ele>
		<time>2011-09-11T11:17:36.933Z</time>
		<geoidheight>327</geoidheight>
	</trkpt>
	<trkpt lat="50.678744" lon="6.201316">
		<ele>373</ele>
		<time>2011-09-11T11:17:37.931Z</time>
		<geoidheight>327</geoidheight>
	</trkpt>
	<trkpt lat="50.678730" lon="6.201310">
		<ele>374</ele>
		<time>2011-09-11T11:17:38.932Z</time>
		<geoidheight>328</geoidheight>
	</trkpt>
	<trkpt lat="50.678717" lon="6.201306">
		<ele>374</ele>
		<time>2011-09-11T11:17:39.933Z</time>
		<geoidheight>328</geoidheight>
	</trkpt>
	<trkpt lat="50.678705" lon="6.201301">
		<ele>374</ele>
		<time>2011-09-11T11:17:40.936Z</time>
		<geoidheight>328</geoidheight>
	</trkpt>
	<trkpt lat="50.678693" lon="6.201295">
		<ele>374</ele>
		<time>2011-09-11T11:17:41.932Z</time>
		<geoidheight>328</geoidheight>
	</trkpt>
	<trkpt lat="50.678681" lon="6.201292">
		<ele>374</ele>
		<time>2011-09-11T11:17:42.932Z</time>
		<geoidheight>328</geoidheight>
	</trkpt>
	<trkpt lat="50.678670" lon="6.201290">
		<ele>374</ele>
		<time>2011-09-11T11:17:43.932Z</time>
		<geoidheight>328</geoidheight>
	</trkpt>
	<trkpt lat="50.678658" lon="6.201288">
		<ele>374</ele>
		<time>2011-09-11T11:17:44.934Z</time>
		<geoidheight>328</geoidheight>
	</trkpt>
	<trkpt lat="50.678647" lon="6.201283">
		<ele>374</ele>
		<time>2011-09-11T11:17:45.931Z</time>
		<geoidheight>328</geoidheight>
	</trkpt>
	<trkpt lat="50.678634" lon="6.201277">
		<ele>374</ele>
		<time>2011-09-11T11:17:46.934Z</time>
		<geoidheight>328</geoidheight>
	</trkpt>
	<trkpt lat="50.678617" lon="6.201269">
		<ele>374</ele>
		<time>2011-09-11T11:17:47.938Z</time>
		<geoidheight>328</geoidheight>
	</trkpt>
	<trkpt lat="50.678597" lon="6.201259">
		<ele>374</ele>
		<time>2011-09-11T11:17:48.934Z</time>
		<geoidheight>328</geoidheight>
	</trkpt>
	<trkpt lat="50.678574" lon="6.201246">
		<ele>375</ele>
		<time>2011-09-11T11:17:49.931Z</time>
		<geoidheight>329</geoidheight>
	</trkpt>
	<trkpt lat="50.678552" lon="6.201231">
		<ele>375</ele>
		<time>2011-09-11T11:17:50.934Z</time>
		<geoidheight>329</geoidheight>
	</trkpt>
	<trkpt lat="50.678530" lon="6.201220">
		<ele>375</ele>
		<time>2011-09-11T11:17:51.932Z</time>
		<geoidheight>329</geoidheight>
	</trkpt>
	<trkpt lat="50.678509" lon="6.201212">
		<ele>375</ele>
		<time>2011-09-11T11:17:52.932Z</time>
		<geoidheight>329</geoidheight>
	</trkpt>
	<trkpt lat="50.678491" lon="6.201207">
		<ele>375</ele>
		<time>2011-09-11T11:17:53.934Z</time>
		<geoidheight>329</geoidheight>
	</trkpt>
	<trkpt lat="50.678470" lon="6.201199">
		<ele>375</ele>
		<time>2011-09-11T11:17:54.933Z</time>
		<geoidheight>329</geoidheight>
	</trkpt>
	<trkpt lat="50.678447" lon="6.201189">
		<ele>375</ele>
		<time>2011-09-11T11:17:55.931Z</time>
		<geoidheight>329</geoidheight>
	</trkpt>
	<trkpt lat="50.678429" lon="6.201181">
		<ele>375</ele>
		<time>2011-09-11T11:17:56.941Z</time>
		<geoidheight>329</geoidheight>
	</trkpt>
	<trkpt lat="50.678415" lon="6.201177">
		<ele>376</ele>
		<time>2011-09-11T11:17:57.940Z</time>
		<geoidheight>330</geoidheight>
	</trkpt>
	<trkpt lat="50.678403" lon="6.201173">
		<ele>376</ele>
		<time>2011-09-11T11:17:58.943Z</time>
		<geoidheight>330</geoidheight>
	</trkpt>
	<trkpt lat="50.678393" lon="6.201170">
		<ele>376</ele>
		<time>2011-09-11T11:17:59.939Z</time>
		<geoidheight>330</geoidheight>
	</trkpt>
	<trkpt lat="50.678387" lon="6.201161">
		<ele>376</ele>
		<time>2011-09-11T11:18:00.939Z</time>
		<geoidheight>330</geoidheight>
	</trkpt>
	<trkpt lat="50.678380" lon="6.201155">
		<ele>376</ele>
		<time>2011-09-11T11:18:01.940Z</time>
		<geoidheight>330</geoidheight>
	</trkpt>
	<trkpt lat="50.678375" lon="6.201149">
		<ele>376</ele>
		<time>2011-09-11T11:18:02.939Z</time>
		<geoidheight>330</geoidheight>
	</trkpt>
	<trkpt lat="50.678369" lon="6.201139">
		<ele>376</ele>
		<time>2011-09-11T11:18:03.941Z</time>
		<geoidheight>330</geoidheight>
	</trkpt>
	<trkpt lat="50.678362" lon="6.201134">
		<ele>376</ele>
		<time>2011-09-11T11:18:04.931Z</time>
		<geoidheight>330</geoidheight>
	</trkpt>
	<trkpt lat="50.678355" lon="6.201132">
		<ele>376</ele>
		<time>2011-09-11T11:18:05.932Z</time>
		<geoidheight>330</geoidheight>
	</trkpt>
	<trkpt lat="50.678350" lon="6.201123">
		<ele>376</ele>
		<time>2011-09-11T11:18:06.934Z</time>
		<geoidheight>330</geoidheight>
	</trkpt>
	<trkpt lat="50.678344" lon="6.201115">
		<ele>377</ele>
		<time>2011-09-11T11:18:07.932Z</time>
		<geoidheight>331</geoidheight>
	</trkpt>
	<trkpt lat="50.678340" lon="6.201109">
		<ele>377</ele>
		<time>2011-09-11T11:18:08.936Z</time>
		<geoidheight>331</geoidheight>
	</trkpt>
	<trkpt lat="50.678337" lon="6.201103">
		<ele>377</ele>
		<time>2011-09-11T11:18:09.934Z</time>
		<geoidheight>331</geoidheight>
	</trkpt>
	<trkpt lat="50.678335" lon="6.201095">
		<ele>377</ele>
		<time>2011-09-11T11:18:10.933Z</time>
		<geoidheight>331</geoidheight>
	</trkpt>
	<trkpt lat="50.678331" lon="6.201086">
		<ele>377</ele>
		<time>2011-09-11T11:18:11.931Z</time>
		<geoidheight>331</geoidheight>
	</trkpt>
	<trkpt lat="50.678327" lon="6.201078">
		<ele>377</ele>
		<time>2011-09-11T11:18:12.933Z</time>
		<geoidheight>331</geoidheight>
	</trkpt>
	<trkpt lat="50.678319" lon="6.201072">
		<ele>377</ele>
		<time>2011-09-11T11:18:13.932Z</time>
		<geoidheight>331</geoidheight>
	</trkpt>
	<trkpt lat="50.678312" lon="6.201068">
		<ele>377</ele>
		<time>2011-09-11T11:18:14.934Z</time>
		<geoidheight>331</geoidheight>
	</trkpt>
	<trkpt lat="50.678306" lon="6.201066">
		<ele>377</ele>
		<time>2011-09-11T11:18:15.935Z</time>
		<geoidheight>331</geoidheight>
	</trkpt>
	<trkpt lat="50.678299" lon="6.201065">
		<ele>377</ele>
		<time>2011-09-11T11:18:16.935Z</time>
		<geoidheight>331</geoidheight>
	</trkpt>
	<trkpt lat="50.678291" lon="6.201065">
		<ele>377</ele>
		<time>2011-09-11T11:18:17.932Z</time>
		<geoidheight>331</geoidheight>
	</trkpt>
	<trkpt lat="50.678283" lon="6.201066">
		<ele>377</ele>
		<time>2011-09-11T11:18:18.934Z</time>
		<geoidheight>331</geoidheight>
	</trkpt>
	<trkpt lat="50.678275" lon="6.201065">
		<ele>377</ele>
		<time>2011-09-11T11:18:19.934Z</time>
		<geoidheight>331</geoidheight>
	</trkpt>
	<trkpt lat="50.678266" lon="6.201068">
		<ele>377</ele>
		<time>2011-09-11T11:18:20.934Z</time>
		<geoidheight>331</geoidheight>
	</trkpt>
	<trkpt lat="50.678256" lon="6.201070">
		<ele>377</ele>
		<time>2011-09-11T11:18:21.935Z</time>
		<geoidheight>331</geoidheight>
	</trkpt>
	<trkpt lat="50.678245" lon="6.201068">
		<ele>378</ele>
		<time>2011-09-11T11:18:22.932Z</time>
		<geoidheight>332</geoidheight>
	</trkpt>
	<trkpt lat="50.678231" lon="6.201066">
		<ele>378</ele>
		<time>2011-09-11T11:18:23.936Z</time>
		<geoidheight>332</geoidheight>
	</trkpt>
	<trkpt lat="50.678216" lon="6.201059">
		<ele>378</ele>
		<time>2011-09-11T11:18:24.938Z</time>
		<geoidheight>332</geoidheight>
	</trkpt>
	<trkpt lat="50.678199" lon="6.201053">
		<ele>378</ele>
		<time>2011-09-11T11:18:25.939Z</time>
		<geoidheight>332</geoidheight>
	</trkpt>
	<trkpt lat="50.678179" lon="6.201043">
		<ele>378</ele>
		<time>2011-09-11T11:18:26.949Z</time>
		<geoidheight>332</geoidheight>
	</trkpt>
	<trkpt lat="50.678159" lon="6.201032">
		<ele>378</ele>
		<time>2011-09-11T11:18:27.941Z</time>
		<geoidheight>332</geoidheight>
	</trkpt>
	<trkpt lat="50.678143" lon="6.201026">
		<ele>378</ele>
		<time>2011-09-11T11:18:28.941Z</time>
		<geoidheight>332</geoidheight>
	</trkpt>
	<trkpt lat="50.678127" lon="6.201019">
		<ele>378</ele>
		<time>2011-09-11T11:18:29.938Z</time>
		<geoidheight>332</geoidheight>
	</trkpt>
	<trkpt lat="50.678114" lon="6.201004">
		<ele>378</ele>
		<time>2011-09-11T11:18:30.932Z</time>
		<geoidheight>332</geoidheight>
	</trkpt>
	<trkpt lat="50.678101" lon="6.200996">
		<ele>378</ele>
		<time>2011-09-11T11:18:31.932Z</time>
		<geoidheight>332</geoidheight>
	</trkpt>
	<trkpt lat="50.678089" lon="6.200984">
		<ele>378</ele>
		<time>2011-09-11T11:18:32.932Z</time>
		<geoidheight>332</geoidheight>
	</trkpt>
	<trkpt lat="50.678073" lon="6.200973">
		<ele>378</ele>
		<time>2011-09-11T11:18:33.940Z</time>
		<geoidheight>332</geoidheight>
	</trkpt>
	<trkpt lat="50.678059" lon="6.200967">
		<ele>379</ele>
		<time>2011-09-11T11:18:34.942Z</time>
		<geoidheight>333</geoidheight>
	</trkpt>
	<trkpt lat="50.678046" lon="6.200970">
		<ele>379</ele>
		<time>2011-09-11T11:18:35.944Z</time>
		<geoidheight>333</geoidheight>
	</trkpt>
	<trkpt lat="50.678033" lon="6.200972">
		<ele>379</ele>
		<time>2011-09-11T11:18:36.942Z</time>
		<geoidheight>333</geoidheight>
	</trkpt>
	<trkpt lat="50.678019" lon="6.200973">
		<ele>379</ele>
		<time>2011-09-11T11:18:37.942Z</time>
		<geoidheight>333</geoidheight>
	</trkpt>
	<trkpt lat="50.678006" lon="6.200972">
		<ele>379</ele>
		<time>2011-09-11T11:18:38.938Z</time>
		<geoidheight>333</geoidheight>
	</trkpt>
	<trkpt lat="50.677993" lon="6.200977">
		<ele>379</ele>
		<time>2011-09-11T11:18:39.943Z</time>
		<geoidheight>333</geoidheight>
	</trkpt>
	<trkpt lat="50.677979" lon="6.200974">
		<ele>379</ele>
		<time>2011-09-11T11:18:40.938Z</time>
		<geoidheight>333</geoidheight>
	</trkpt>
	<trkpt lat="50.677966" lon="6.200970">
		<ele>379</ele>
		<time>2011-09-11T11:18:41.946Z</time>
		<geoidheight>333</geoidheight>
	</trkpt>
	<trkpt lat="50.677955" lon="6.200967">
		<ele>379</ele>
		<time>2011-09-11T11:18:42.944Z</time>
		<geoidheight>333</geoidheight>
	</trkpt>
	<trkpt lat="50.677942" lon="6.200963">
		<ele>379</ele>
		<time>2011-09-11T11:18:43.947Z</time>
		<geoidheight>333</geoidheight>
	</trkpt>
	<trkpt lat="50.677932" lon="6.200952">
		<ele>379</ele>
		<time>2011-09-11T11:18:44.944Z</time>
		<geoidheight>333</geoidheight>
	</trkpt>
	<trkpt lat="50.677920" lon="6.200948">
		<ele>379</ele>
		<time>2011-09-11T11:18:45.940Z</time>
		<geoidheight>333</geoidheight>
	</trkpt>
	<trkpt lat="50.677910" lon="6.200941">
		<ele>379</ele>
		<time>2011-09-11T11:18:46.941Z</time>
		<geoidheight>333</geoidheight>
	</trkpt>
	<trkpt lat="50.677898" lon="6.200936">
		<ele>380</ele>
		<time>2011-09-11T11:18:47.938Z</time>
		<geoidheight>334</geoidheight>
	</trkpt>
	<trkpt lat="50.677888" lon="6.200928">
		<ele>380</ele>
		<time>2011-09-11T11:18:48.942Z</time>
		<geoidheight>334</geoidheight>
	</trkpt>
	<trkpt lat="50.677876" lon="6.200925">
		<ele>380</ele>
		<time>2011-09-11T11:18:49.941Z</time>
		<geoidheight>334</geoidheight>
	</trkpt>
	<trkpt lat="50.677862" lon="6.200922">
		<ele>380</ele>
		<time>2011-09-11T11:18:50.938Z</time>
		<geoidheight>334</geoidheight>
	</trkpt>
	<trkpt lat="50.677849" lon="6.200914">
		<ele>380</ele>
		<time>2011-09-11T11:18:51.946Z</time>
		<geoidheight>334</geoidheight>
	</trkpt>
	<trkpt lat="50.677837" lon="6.200908">
		<ele>380</ele>
		<time>2011-09-11T11:18:52.941Z</time>
		<geoidheight>334</geoidheight>
	</trkpt>
	<trkpt lat="50.677824" lon="6.200900">
		<ele>380</ele>
		<time>2011-09-11T11:18:53.940Z</time>
		<geoidheight>334</geoidheight>
	</trkpt>
	<trkpt lat="50.677812" lon="6.200890">
		<ele>380</ele>
		<time>2011-09-11T11:18:54.938Z</time>
		<geoidheight>334</geoidheight>
	</trkpt>
	<trkpt lat="50.677798" lon="6.200883">
		<ele>380</ele>
		<time>2011-09-11T11:18:55.946Z</time>
		<geoidheight>334</geoidheight>
	</trkpt>
	<trkpt lat="50.677784" lon="6.200879">
		<ele>380</ele>
		<time>2011-09-11T11:18:56.955Z</time>
		<geoidheight>334</geoidheight>
	</trkpt>
	<trkpt lat="50.677769" lon="6.200871">
		<ele>380</ele>
		<time>2011-09-11T11:18:57.952Z</time>
		<geoidheight>334</geoidheight>
	</trkpt>
	<trkpt lat="50.677755" lon="6.200861">
		<ele>380</ele>
		<time>2011-09-11T11:18:58.954Z</time>
		<geoidheight>334</geoidheight>
	</trkpt>
	<trkpt lat="50.677741" lon="6.200853">
		<ele>380</ele>
		<time>2011-09-11T11:18:59.949Z</time>
		<geoidheight>334</geoidheight>
	</trkpt>
	<trkpt lat="50.677727" lon="6.200846">
		<ele>380</ele>
		<time>2011-09-11T11:19:00.958Z</time>
		<geoidheight>334</geoidheight>
	</trkpt>
	<trkpt lat="50.677712" lon="6.200839">
		<ele>380</ele>
		<time>2011-09-11T11:19:01.942Z</time>
		<geoidheight>334</geoidheight>
	</trkpt>
	<trkpt lat="50.677698" lon="6.200831">
		<ele>381</ele>
		<time>2011-09-11T11:19:02.943Z</time>
		<geoidheight>335</geoidheight>
	</trkpt>
	<trkpt lat="50.677685" lon="6.200827">
		<ele>381</ele>
		<time>2011-09-11T11:19:03.939Z</time>
		<geoidheight>335</geoidheight>
	</trkpt>
	<trkpt lat="50.677675" lon="6.200814">
		<ele>381</ele>
		<time>2011-09-11T11:19:04.941Z</time>
		<geoidheight>335</geoidheight>
	</trkpt>
	<trkpt lat="50.677663" lon="6.200806">
		<ele>381</ele>
		<time>2011-09-11T11:19:05.938Z</time>
		<geoidheight>335</geoidheight>
	</trkpt>
	<trkpt lat="50.677651" lon="6.200800">
		<ele>381</ele>
		<time>2011-09-11T11:19:06.948Z</time>
		<geoidheight>335</geoidheight>
	</trkpt>
	<trkpt lat="50.677641" lon="6.200793">
		<ele>381</ele>
		<time>2011-09-11T11:19:07.941Z</time>
		<geoidheight>335</geoidheight>
	</trkpt>
	<trkpt lat="50.677632" lon="6.200786">
		<ele>381</ele>
		<time>2011-09-11T11:19:08.943Z</time>
		<geoidheight>335</geoidheight>
	</trkpt>
	<trkpt lat="50.677623" lon="6.200777">
		<ele>381</ele>
		<time>2011-09-11T11:19:09.942Z</time>
		<geoidheight>335</geoidheight>
	</trkpt>
	<trkpt lat="50.677613" lon="6.200773">
		<ele>381</ele>
		<time>2011-09-11T11:19:10.944Z</time>
		<geoidheight>335</geoidheight>
	</trkpt>
	<trkpt lat="50.677604" lon="6.200773">
		<ele>381</ele>
		<time>2011-09-11T11:19:11.940Z</time>
		<geoidheight>335</geoidheight>
	</trkpt>
	<trkpt lat="50.677597" lon="6.200772">
		<ele>381</ele>
		<time>2011-09-11T11:19:12.937Z</time>
		<geoidheight>335</geoidheight>
	</trkpt>
	<trkpt lat="50.677597" lon="6.200772">
		<ele>381</ele>
		<time>2011-09-11T11:19:13.941Z</time>
		<geoidheight>335</geoidheight>
	</trkpt>
	<trkpt lat="50.677597" lon="6.200772">
		<ele>381</ele>
		<time>2011-09-11T11:19:14.939Z</time>
		<geoidheight>335</geoidheight>
	</trkpt>
	<trkpt lat="50.677593" lon="6.200759">
		<ele>381</ele>
		<time>2011-09-11T11:19:15.943Z</time>
		<geoidheight>335</geoidheight>
	</trkpt>
	<trkpt lat="50.677592" lon="6.200745">
		<ele>382</ele>
		<time>2011-09-11T11:19:17.940Z</time>
		<geoidheight>336</geoidheight>
	</trkpt>
	<trkpt lat="50.677594" lon="6.200738">
		<ele>382</ele>
		<time>2011-09-11T11:19:18.942Z</time>
		<geoidheight>336</geoidheight>
	</trkpt>
	<trkpt lat="50.677590" lon="6.200745">
		<ele>382</ele>
		<time>2011-09-11T11:19:22.933Z</time>
		<geoidheight>336</geoidheight>
	</trkpt>
	<trkpt lat="50.677582" lon="6.200746">
		<ele>382</ele>
		<time>2011-09-11T11:19:23.935Z</time>
		<geoidheight>336</geoidheight>
	</trkpt>
	<trkpt lat="50.677575" lon="6.200754">
		<ele>382</ele>
		<time>2011-09-11T11:19:24.932Z</time>
		<geoidheight>336</geoidheight>
	</trkpt>
	<trkpt lat="50.677569" lon="6.200764">
		<ele>382</ele>
		<time>2011-09-11T11:19:25.934Z</time>
		<geoidheight>336</geoidheight>
	</trkpt>
	<trkpt lat="50.677563" lon="6.200774">
		<ele>383</ele>
		<time>2011-09-11T11:19:26.932Z</time>
		<geoidheight>337</geoidheight>
	</trkpt>
	<trkpt lat="50.677557" lon="6.200785">
		<ele>383</ele>
		<time>2011-09-11T11:19:27.933Z</time>
		<geoidheight>337</geoidheight>
	</trkpt>
	<trkpt lat="50.677550" lon="6.200795">
		<ele>383</ele>
		<time>2011-09-11T11:19:28.931Z</time>
		<geoidheight>337</geoidheight>
	</trkpt>
	<trkpt lat="50.677545" lon="6.200804">
		<ele>383</ele>
		<time>2011-09-11T11:19:29.933Z</time>
		<geoidheight>337</geoidheight>
	</trkpt>
	<trkpt lat="50.677539" lon="6.200814">
		<ele>383</ele>
		<time>2011-09-11T11:19:30.933Z</time>
		<geoidheight>337</geoidheight>
	</trkpt>
	<trkpt lat="50.677532" lon="6.200819">
		<ele>383</ele>
		<time>2011-09-11T11:19:31.933Z</time>
		<geoidheight>337</geoidheight>
	</trkpt>
	<trkpt lat="50.677524" lon="6.200826">
		<ele>383</ele>
		<time>2011-09-11T11:19:32.932Z</time>
		<geoidheight>337</geoidheight>
	</trkpt>
	<trkpt lat="50.677519" lon="6.200840">
		<ele>383</ele>
		<time>2011-09-11T11:19:33.934Z</time>
		<geoidheight>337</geoidheight>
	</trkpt>
	<trkpt lat="50.677513" lon="6.200852">
		<ele>383</ele>
		<time>2011-09-11T11:19:34.932Z</time>
		<geoidheight>337</geoidheight>
	</trkpt>
	<trkpt lat="50.677504" lon="6.200863">
		<ele>383</ele>
		<time>2011-09-11T11:19:35.932Z</time>
		<geoidheight>337</geoidheight>
	</trkpt>
	<trkpt lat="50.677497" lon="6.200878">
		<ele>384</ele>
		<time>2011-09-11T11:19:36.933Z</time>
		<geoidheight>338</geoidheight>
	</trkpt>
	<trkpt lat="50.677491" lon="6.200895">
		<ele>384</ele>
		<time>2011-09-11T11:19:37.932Z</time>
		<geoidheight>338</geoidheight>
	</trkpt>
	<trkpt lat="50.677485" lon="6.200912">
		<ele>384</ele>
		<time>2011-09-11T11:19:38.933Z</time>
		<geoidheight>338</geoidheight>
	</trkpt>
	<trkpt lat="50.677480" lon="6.200925">
		<ele>384</ele>
		<time>2011-09-11T11:19:39.936Z</time>
		<geoidheight>338</geoidheight>
	</trkpt>
	<trkpt lat="50.677471" lon="6.200928">
		<ele>384</ele>
		<time>2011-09-11T11:19:40.935Z</time>
		<geoidheight>338</geoidheight>
	</trkpt>
	<trkpt lat="50.677463" lon="6.200935">
		<ele>384</ele>
		<time>2011-09-11T11:19:41.944Z</time>
		<geoidheight>338</geoidheight>
	</trkpt>
	<trkpt lat="50.677455" lon="6.200947">
		<ele>384</ele>
		<time>2011-09-11T11:19:42.937Z</time>
		<geoidheight>338</geoidheight>
	</trkpt>
	<trkpt lat="50.677449" lon="6.200963">
		<ele>384</ele>
		<time>2011-09-11T11:19:43.933Z</time>
		<geoidheight>338</geoidheight>
	</trkpt>
	<trkpt lat="50.677442" lon="6.200979">
		<ele>385</ele>
		<time>2011-09-11T11:19:44.933Z</time>
		<geoidheight>339</geoidheight>
	</trkpt>
	<trkpt lat="50.677436" lon="6.200996">
		<ele>385</ele>
		<time>2011-09-11T11:19:45.959Z</time>
		<geoidheight>339</geoidheight>
	</trkpt>
	<trkpt lat="50.677431" lon="6.201013">
		<ele>385</ele>
		<time>2011-09-11T11:19:46.934Z</time>
		<geoidheight>339</geoidheight>
	</trkpt>
	<trkpt lat="50.677425" lon="6.201027">
		<ele>385</ele>
		<time>2011-09-11T11:19:47.932Z</time>
		<geoidheight>339</geoidheight>
	</trkpt>
	<trkpt lat="50.677417" lon="6.201040">
		<ele>385</ele>
		<time>2011-09-11T11:19:48.936Z</time>
		<geoidheight>339</geoidheight>
	</trkpt>
	<trkpt lat="50.677411" lon="6.201057">
		<ele>385</ele>
		<time>2011-09-11T11:19:49.932Z</time>
		<geoidheight>339</geoidheight>
	</trkpt>
	<trkpt lat="50.677405" lon="6.201071">
		<ele>385</ele>
		<time>2011-09-11T11:19:50.932Z</time>
		<geoidheight>339</geoidheight>
	</trkpt>
	<trkpt lat="50.677398" lon="6.201082">
		<ele>386</ele>
		<time>2011-09-11T11:19:51.935Z</time>
		<geoidheight>340</geoidheight>
	</trkpt>
	<trkpt lat="50.677391" lon="6.201101">
		<ele>386</ele>
		<time>2011-09-11T11:19:52.933Z</time>
		<geoidheight>340</geoidheight>
	</trkpt>
	<trkpt lat="50.677385" lon="6.201118">
		<ele>386</ele>
		<time>2011-09-11T11:19:53.932Z</time>
		<geoidheight>340</geoidheight>
	</trkpt>
	<trkpt lat="50.677377" lon="6.201132">
		<ele>386</ele>
		<time>2011-09-11T11:19:54.932Z</time>
		<geoidheight>340</geoidheight>
	</trkpt>
	<trkpt lat="50.677370" lon="6.201146">
		<ele>386</ele>
		<time>2011-09-11T11:19:55.934Z</time>
		<geoidheight>340</geoidheight>
	</trkpt>
	<trkpt lat="50.677361" lon="6.201156">
		<ele>386</ele>
		<time>2011-09-11T11:19:56.939Z</time>
		<geoidheight>340</geoidheight>
	</trkpt>
	<trkpt lat="50.677353" lon="6.201167">
		<ele>386</ele>
		<time>2011-09-11T11:19:57.932Z</time>
		<geoidheight>340</geoidheight>
	</trkpt>
	<trkpt lat="50.677346" lon="6.201188">
		<ele>387</ele>
		<time>2011-09-11T11:19:58.940Z</time>
		<geoidheight>341</geoidheight>
	</trkpt>
	<trkpt lat="50.677341" lon="6.201213">
		<ele>387</ele>
		<time>2011-09-11T11:19:59.933Z</time>
		<geoidheight>341</geoidheight>
	</trkpt>
	<trkpt lat="50.677336" lon="6.201242">
		<ele>387</ele>
		<time>2011-09-11T11:20:00.933Z</time>
		<geoidheight>341</geoidheight>
	</trkpt>
	<trkpt lat="50.677332" lon="6.201268">
		<ele>387</ele>
		<time>2011-09-11T11:20:01.934Z</time>
		<geoidheight>341</geoidheight>
	</trkpt>
	<trkpt lat="50.677327" lon="6.201295">
		<ele>387</ele>
		<time>2011-09-11T11:20:02.947Z</time>
		<geoidheight>341</geoidheight>
	</trkpt>
	<trkpt lat="50.677325" lon="6.201318">
		<ele>387</ele>
		<time>2011-09-11T11:20:03.932Z</time>
		<geoidheight>341</geoidheight>
	</trkpt>
	<trkpt lat="50.677324" lon="6.201341">
		<ele>387</ele>
		<time>2011-09-11T11:20:04.934Z</time>
		<geoidheight>341</geoidheight>
	</trkpt>
	<trkpt lat="50.677320" lon="6.201361">
		<ele>388</ele>
		<time>2011-09-11T11:20:05.931Z</time>
		<geoidheight>342</geoidheight>
	</trkpt>
	<trkpt lat="50.677315" lon="6.201379">
		<ele>388</ele>
		<time>2011-09-11T11:20:06.933Z</time>
		<geoidheight>342</geoidheight>
	</trkpt>
	<trkpt lat="50.677309" lon="6.201397">
		<ele>388</ele>
		<time>2011-09-11T11:20:07.935Z</time>
		<geoidheight>342</geoidheight>
	</trkpt>
	<trkpt lat="50.677303" lon="6.201410">
		<ele>388</ele>
		<time>2011-09-11T11:20:08.939Z</time>
		<geoidheight>342</geoidheight>
	</trkpt>
	<trkpt lat="50.677297" lon="6.201424">
		<ele>388</ele>
		<time>2011-09-11T11:20:09.934Z</time>
		<geoidheight>342</geoidheight>
	</trkpt>
	<trkpt lat="50.677291" lon="6.201435">
		<ele>388</ele>
		<time>2011-09-11T11:20:10.935Z</time>
		<geoidheight>342</geoidheight>
	</trkpt>
	<trkpt lat="50.677286" lon="6.201450">
		<ele>388</ele>
		<time>2011-09-11T11:20:11.933Z</time>
		<geoidheight>342</geoidheight>
	</trkpt>
	<trkpt lat="50.677281" lon="6.201467">
		<ele>389</ele>
		<time>2011-09-11T11:20:12.933Z</time>
		<geoidheight>343</geoidheight>
	</trkpt>
	<trkpt lat="50.677275" lon="6.201480">
		<ele>389</ele>
		<time>2011-09-11T11:20:13.936Z</time>
		<geoidheight>343</geoidheight>
	</trkpt>
	<trkpt lat="50.677266" lon="6.201487">
		<ele>389</ele>
		<time>2011-09-11T11:20:14.933Z</time>
		<geoidheight>343</geoidheight>
	</trkpt>
	<trkpt lat="50.677257" lon="6.201500">
		<ele>389</ele>
		<time>2011-09-11T11:20:15.936Z</time>
		<geoidheight>343</geoidheight>
	</trkpt>
	<trkpt lat="50.677249" lon="6.201518">
		<ele>389</ele>
		<time>2011-09-11T11:20:16.935Z</time>
		<geoidheight>343</geoidheight>
	</trkpt>
	<trkpt lat="50.677243" lon="6.201541">
		<ele>389</ele>
		<time>2011-09-11T11:20:17.936Z</time>
		<geoidheight>343</geoidheight>
	</trkpt>
	<trkpt lat="50.677238" lon="6.201562">
		<ele>390</ele>
		<time>2011-09-11T11:20:18.937Z</time>
		<geoidheight>344</geoidheight>
	</trkpt>
	<trkpt lat="50.677232" lon="6.201583">
		<ele>390</ele>
		<time>2011-09-11T11:20:19.949Z</time>
		<geoidheight>344</geoidheight>
	</trkpt>
	<trkpt lat="50.677225" lon="6.201601">
		<ele>390</ele>
		<time>2011-09-11T11:20:20.947Z</time>
		<geoidheight>344</geoidheight>
	</trkpt>
	<trkpt lat="50.677219" lon="6.201618">
		<ele>390</ele>
		<time>2011-09-11T11:20:21.942Z</time>
		<geoidheight>344</geoidheight>
	</trkpt>
	<trkpt lat="50.677211" lon="6.201633">
		<ele>390</ele>
		<time>2011-09-11T11:20:22.942Z</time>
		<geoidheight>344</geoidheight>
	</trkpt>
	<trkpt lat="50.677205" lon="6.201648">
		<ele>390</ele>
		<time>2011-09-11T11:20:23.942Z</time>
		<geoidheight>344</geoidheight>
	</trkpt>
	<trkpt lat="50.677201" lon="6.201663">
		<ele>391</ele>
		<time>2011-09-11T11:20:24.939Z</time>
		<geoidheight>345</geoidheight>
	</trkpt>
	<trkpt lat="50.677194" lon="6.201675">
		<ele>391</ele>
		<time>2011-09-11T11:20:25.939Z</time>
		<geoidheight>345</geoidheight>
	</trkpt>
	<trkpt lat="50.677186" lon="6.201687">
		<ele>391</ele>
		<time>2011-09-11T11:20:26.948Z</time>
		<geoidheight>345</geoidheight>
	</trkpt>
	<trkpt lat="50.677182" lon="6.201703">
		<ele>391</ele>
		<time>2011-09-11T11:20:27.950Z</time>
		<geoidheight>345</geoidheight>
	</trkpt>
	<trkpt lat="50.677177" lon="6.201719">
		<ele>391</ele>
		<time>2011-09-11T11:20:28.946Z</time>
		<geoidheight>345</geoidheight>
	</trkpt>
	<trkpt lat="50.677174" lon="6.201735">
		<ele>391</ele>
		<time>2011-09-11T11:20:29.934Z</time>
		<geoidheight>345</geoidheight>
	</trkpt>
	<trkpt lat="50.677174" lon="6.201754">
		<ele>391</ele>
		<time>2011-09-11T11:20:30.935Z</time>
		<geoidheight>345</geoidheight>
	</trkpt>
	<trkpt lat="50.677174" lon="6.201773">
		<ele>392</ele>
		<time>2011-09-11T11:20:31.942Z</time>
		<geoidheight>346</geoidheight>
	</trkpt>
	<trkpt lat="50.677175" lon="6.201792">
		<ele>392</ele>
		<time>2011-09-11T11:20:32.936Z</time>
		<geoidheight>346</geoidheight>
	</trkpt>
	<trkpt lat="50.677173" lon="6.201808">
		<ele>392</ele>
		<time>2011-09-11T11:20:33.934Z</time>
		<geoidheight>346</geoidheight>
	</trkpt>
	<trkpt lat="50.677172" lon="6.201824">
		<ele>392</ele>
		<time>2011-09-11T11:20:34.934Z</time>
		<geoidheight>346</geoidheight>
	</trkpt>
	<trkpt lat="50.677170" lon="6.201835">
		<ele>392</ele>
		<time>2011-09-11T11:20:35.936Z</time>
		<geoidheight>346</geoidheight>
	</trkpt>
	<trkpt lat="50.677167" lon="6.201844">
		<ele>392</ele>
		<time>2011-09-11T11:20:36.933Z</time>
		<geoidheight>346</geoidheight>
	</trkpt>
	<trkpt lat="50.677163" lon="6.201859">
		<ele>392</ele>
		<time>2011-09-11T11:20:37.933Z</time>
		<geoidheight>346</geoidheight>
	</trkpt>
	<trkpt lat="50.677160" lon="6.201876">
		<ele>392</ele>
		<time>2011-09-11T11:20:38.935Z</time>
		<geoidheight>346</geoidheight>
	</trkpt>
	<trkpt lat="50.677155" lon="6.201892">
		<ele>392</ele>
		<time>2011-09-11T11:20:39.933Z</time>
		<geoidheight>346</geoidheight>
	</trkpt>
	<trkpt lat="50.677148" lon="6.201906">
		<ele>392</ele>
		<time>2011-09-11T11:20:40.947Z</time>
		<geoidheight>346</geoidheight>
	</trkpt>
	<trkpt lat="50.677144" lon="6.201932">
		<ele>392</ele>
		<time>2011-09-11T11:20:41.943Z</time>
		<geoidheight>346</geoidheight>
	</trkpt>
	<trkpt lat="50.677140" lon="6.201951">
		<ele>392</ele>
		<time>2011-09-11T11:20:42.938Z</time>
		<geoidheight>346</geoidheight>
	</trkpt>
	<trkpt lat="50.677137" lon="6.201972">
		<ele>392</ele>
		<time>2011-09-11T11:20:43.944Z</time>
		<geoidheight>346</geoidheight>
	</trkpt>
	<trkpt lat="50.677131" lon="6.201993">
		<ele>392</ele>
		<time>2011-09-11T11:20:44.951Z</time>
		<geoidheight>346</geoidheight>
	</trkpt>
	<trkpt lat="50.677128" lon="6.202021">
		<ele>392</ele>
		<time>2011-09-11T11:20:45.943Z</time>
		<geoidheight>346</geoidheight>
	</trkpt>
	<trkpt lat="50.677127" lon="6.202058">
		<ele>392</ele>
		<time>2011-09-11T11:20:46.943Z</time>
		<geoidheight>346</geoidheight>
	</trkpt>
	<trkpt lat="50.677129" lon="6.202099">
		<ele>392</ele>
		<time>2011-09-11T11:20:47.938Z</time>
		<geoidheight>346</geoidheight>
	</trkpt>
	<trkpt lat="50.677128" lon="6.202143">
		<ele>392</ele>
		<time>2011-09-11T11:20:48.942Z</time>
		<geoidheight>346</geoidheight>
	</trkpt>
	<trkpt lat="50.677126" lon="6.202186">
		<ele>392</ele>
		<time>2011-09-11T11:20:49.942Z</time>
		<geoidheight>346</geoidheight>
	</trkpt>
	<trkpt lat="50.677121" lon="6.202217">
		<ele>392</ele>
		<time>2011-09-11T11:20:50.943Z</time>
		<geoidheight>346</geoidheight>
	</trkpt>
	<trkpt lat="50.677116" lon="6.202246">
		<ele>392</ele>
		<time>2011-09-11T11:20:51.943Z</time>
		<geoidheight>346</geoidheight>
	</trkpt>
	<trkpt lat="50.677110" lon="6.202269">
		<ele>392</ele>
		<time>2011-09-11T11:20:52.943Z</time>
		<geoidheight>346</geoidheight>
	</trkpt>
	<trkpt lat="50.677104" lon="6.202291">
		<ele>392</ele>
		<time>2011-09-11T11:20:53.937Z</time>
		<geoidheight>346</geoidheight>
	</trkpt>
	<trkpt lat="50.677097" lon="6.202311">
		<ele>392</ele>
		<time>2011-09-11T11:20:54.941Z</time>
		<geoidheight>346</geoidheight>
	</trkpt>
	<trkpt lat="50.677092" lon="6.202335">
		<ele>391</ele>
		<time>2011-09-11T11:20:55.939Z</time>
		<geoidheight>345</geoidheight>
	</trkpt>
	<trkpt lat="50.677087" lon="6.202357">
		<ele>391</ele>
		<time>2011-09-11T11:20:56.944Z</time>
		<geoidheight>345</geoidheight>
	</trkpt>
	<trkpt lat="50.677082" lon="6.202373">
		<ele>391</ele>
		<time>2011-09-11T11:20:57.942Z</time>
		<geoidheight>345</geoidheight>
	</trkpt>
	<trkpt lat="50.677078" lon="6.202391">
		<ele>391</ele>
		<time>2011-09-11T11:20:58.944Z</time>
		<geoidheight>345</geoidheight>
	</trkpt>
	<trkpt lat="50.677075" lon="6.202409">
		<ele>391</ele>
		<time>2011-09-11T11:20:59.942Z</time>
		<geoidheight>345</geoidheight>
	</trkpt>
	<trkpt lat="50.677072" lon="6.202425">
		<ele>391</ele>
		<time>2011-09-11T11:21:00.942Z</time>
		<geoidheight>345</geoidheight>
	</trkpt>
	<trkpt lat="50.677067" lon="6.202436">
		<ele>391</ele>
		<time>2011-09-11T11:21:01.942Z</time>
		<geoidheight>345</geoidheight>
	</trkpt>
	<trkpt lat="50.677061" lon="6.202445">
		<ele>390</ele>
		<time>2011-09-11T11:21:02.940Z</time>
		<geoidheight>344</geoidheight>
	</trkpt>
	<trkpt lat="50.677055" lon="6.202455">
		<ele>390</ele>
		<time>2011-09-11T11:21:03.937Z</time>
		<geoidheight>344</geoidheight>
	</trkpt>
	<trkpt lat="50.677050" lon="6.202465">
		<ele>390</ele>
		<time>2011-09-11T11:21:04.935Z</time>
		<geoidheight>344</geoidheight>
	</trkpt>
	<trkpt lat="50.677043" lon="6.202475">
		<ele>390</ele>
		<time>2011-09-11T11:21:05.945Z</time>
		<geoidheight>344</geoidheight>
	</trkpt>
	<trkpt lat="50.677037" lon="6.202486">
		<ele>390</ele>
		<time>2011-09-11T11:21:06.948Z</time>
		<geoidheight>344</geoidheight>
	</trkpt>
	<trkpt lat="50.677030" lon="6.202497">
		<ele>390</ele>
		<time>2011-09-11T11:21:07.941Z</time>
		<geoidheight>344</geoidheight>
	</trkpt>
	<trkpt lat="50.677025" lon="6.202511">
		<ele>390</ele>
		<time>2011-09-11T11:21:08.943Z</time>
		<geoidheight>344</geoidheight>
	</trkpt>
	<trkpt lat="50.677018" lon="6.202523">
		<ele>390</ele>
		<time>2011-09-11T11:21:09.942Z</time>
		<geoidheight>344</geoidheight>
	</trkpt>
	<trkpt lat="50.677012" lon="6.202537">
		<ele>390</ele>
		<time>2011-09-11T11:21:10.940Z</time>
		<geoidheight>344</geoidheight>
	</trkpt>
	<trkpt lat="50.677010" lon="6.202551">
		<ele>390</ele>
		<time>2011-09-11T11:21:11.942Z</time>
		<geoidheight>344</geoidheight>
	</trkpt>
	<trkpt lat="50.677005" lon="6.202560">
		<ele>390</ele>
		<time>2011-09-11T11:21:12.947Z</time>
		<geoidheight>344</geoidheight>
	</trkpt>
	<trkpt lat="50.677005" lon="6.202572">
		<ele>389</ele>
		<time>2011-09-11T11:21:13.936Z</time>
		<geoidheight>343</geoidheight>
	</trkpt>
	<trkpt lat="50.677001" lon="6.202584">
		<ele>389</ele>
		<time>2011-09-11T11:21:14.951Z</time>
		<geoidheight>343</geoidheight>
	</trkpt>
	<trkpt lat="50.677000" lon="6.202599">
		<ele>389</ele>
		<time>2011-09-11T11:21:15.941Z</time>
		<geoidheight>343</geoidheight>
	</trkpt>
	<trkpt lat="50.676998" lon="6.202615">
		<ele>389</ele>
		<time>2011-09-11T11:21:16.945Z</time>
		<geoidheight>343</geoidheight>
	</trkpt>
	<trkpt lat="50.676996" lon="6.202630">
		<ele>389</ele>
		<time>2011-09-11T11:21:17.949Z</time>
		<geoidheight>343</geoidheight>
	</trkpt>
	<trkpt lat="50.676997" lon="6.202645">
		<ele>389</ele>
		<time>2011-09-11T11:21:18.943Z</time>
		<geoidheight>343</geoidheight>
	</trkpt>
	<trkpt lat="50.676996" lon="6.202660">
		<ele>389</ele>
		<time>2011-09-11T11:21:19.951Z</time>
		<geoidheight>343</geoidheight>
	</trkpt>
	<trkpt lat="50.676992" lon="6.202674">
		<ele>389</ele>
		<time>2011-09-11T11:21:20.950Z</time>
		<geoidheight>343</geoidheight>
	</trkpt>
	<trkpt lat="50.676988" lon="6.202690">
		<ele>389</ele>
		<time>2011-09-11T11:21:21.951Z</time>
		<geoidheight>343</geoidheight>
	</trkpt>
	<trkpt lat="50.676985" lon="6.202709">
		<ele>389</ele>
		<time>2011-09-11T11:21:22.959Z</time>
		<geoidheight>343</geoidheight>
	</trkpt>
	<trkpt lat="50.676982" lon="6.202730">
		<ele>389</ele>
		<time>2011-09-11T11:21:23.953Z</time>
		<geoidheight>343</geoidheight>
	</trkpt>
	<trkpt lat="50.676977" lon="6.202752">
		<ele>389</ele>
		<time>2011-09-11T11:21:24.956Z</time>
		<geoidheight>343</geoidheight>
	</trkpt>
	<trkpt lat="50.676974" lon="6.202772">
		<ele>389</ele>
		<time>2011-09-11T11:21:25.957Z</time>
		<geoidheight>343</geoidheight>
	</trkpt>
	<trkpt lat="50.676971" lon="6.202791">
		<ele>389</ele>
		<time>2011-09-11T11:21:26.950Z</time>
		<geoidheight>343</geoidheight>
	</trkpt>
	<trkpt lat="50.676968" lon="6.202812">
		<ele>389</ele>
		<time>2011-09-11T11:21:27.951Z</time>
		<geoidheight>343</geoidheight>
	</trkpt>
	<trkpt lat="50.676964" lon="6.202832">
		<ele>389</ele>
		<time>2011-09-11T11:21:28.954Z</time>
		<geoidheight>343</geoidheight>
	</trkpt>
	<trkpt lat="50.676959" lon="6.202848">
		<ele>389</ele>
		<time>2011-09-11T11:21:29.952Z</time>
		<geoidheight>343</geoidheight>
	</trkpt>
	<trkpt lat="50.676953" lon="6.202864">
		<ele>389</ele>
		<time>2011-09-11T11:21:30.952Z</time>
		<geoidheight>343</geoidheight>
	</trkpt>
	<trkpt lat="50.676948" lon="6.202883">
		<ele>389</ele>
		<time>2011-09-11T11:21:31.950Z</time>
		<geoidheight>343</geoidheight>
	</trkpt>
	<trkpt lat="50.676945" lon="6.202899">
		<ele>389</ele>
		<time>2011-09-11T11:21:32.956Z</time>
		<geoidheight>343</geoidheight>
	</trkpt>
	<trkpt lat="50.676942" lon="6.202915">
		<ele>389</ele>
		<time>2011-09-11T11:21:33.956Z</time>
		<geoidheight>343</geoidheight>
	</trkpt>
	<trkpt lat="50.676937" lon="6.202931">
		<ele>389</ele>
		<time>2011-09-11T11:21:34.955Z</time>
		<geoidheight>343</geoidheight>
	</trkpt>
	<trkpt lat="50.676933" lon="6.202950">
		<ele>389</ele>
		<time>2011-09-11T11:21:35.949Z</time>
		<geoidheight>343</geoidheight>
	</trkpt>
	<trkpt lat="50.676927" lon="6.202971">
		<ele>389</ele>
		<time>2011-09-11T11:21:36.952Z</time>
		<geoidheight>343</geoidheight>
	</trkpt>
	<trkpt lat="50.676920" lon="6.202989">
		<ele>389</ele>
		<time>2011-09-11T11:21:37.952Z</time>
		<geoidheight>343</geoidheight>
	</trkpt>
	<trkpt lat="50.676917" lon="6.203007">
		<ele>389</ele>
		<time>2011-09-11T11:21:38.953Z</time>
		<geoidheight>343</geoidheight>
	</trkpt>
	<trkpt lat="50.676917" lon="6.203022">
		<ele>389</ele>
		<time>2011-09-11T11:21:39.951Z</time>
		<geoidheight>343</geoidheight>
	</trkpt>
	<trkpt lat="50.676915" lon="6.203042">
		<ele>389</ele>
		<time>2011-09-11T11:21:40.955Z</time>
		<geoidheight>343</geoidheight>
	</trkpt>
	<trkpt lat="50.676918" lon="6.203060">
		<ele>389</ele>
		<time>2011-09-11T11:21:41.954Z</time>
		<geoidheight>343</geoidheight>
	</trkpt>
	<trkpt lat="50.676918" lon="6.203060">
		<ele>389</ele>
		<time>2011-09-11T11:21:46.970Z</time>
		<geoidheight>343</geoidheight>
	</trkpt>
	<trkpt lat="50.676872" lon="6.203064">
		<ele>389</ele>
		<time>2011-09-11T11:21:47.972Z</time>
		<geoidheight>343</geoidheight>
	</trkpt>
	<trkpt lat="50.676872" lon="6.203064">
		<ele>389</ele>
		<time>2011-09-11T11:21:50.956Z</time>
		<geoidheight>343</geoidheight>
	</trkpt>
	<trkpt lat="50.676825" lon="6.203041">
		<ele>389</ele>
		<time>2011-09-11T11:21:51.953Z</time>
		<geoidheight>343</geoidheight>
	</trkpt>
	<trkpt lat="50.676825" lon="6.203041">
		<ele>388</ele>
		<time>2011-09-11T11:21:55.953Z</time>
		<geoidheight>342</geoidheight>
	</trkpt>
	<trkpt lat="50.676794" lon="6.203114">
		<ele>388</ele>
		<time>2011-09-11T11:21:56.944Z</time>
		<geoidheight>342</geoidheight>
	</trkpt>
	<trkpt lat="50.676783" lon="6.203140">
		<ele>388</ele>
		<time>2011-09-11T11:21:57.950Z</time>
		<geoidheight>342</geoidheight>
	</trkpt>
	<trkpt lat="50.676775" lon="6.203162">
		<ele>388</ele>
		<time>2011-09-11T11:21:58.940Z</time>
		<geoidheight>342</geoidheight>
	</trkpt>
	<trkpt lat="50.676768" lon="6.203186">
		<ele>388</ele>
		<time>2011-09-11T11:21:59.943Z</time>
		<geoidheight>342</geoidheight>
	</trkpt>
	<trkpt lat="50.676761" lon="6.203202">
		<ele>388</ele>
		<time>2011-09-11T11:22:00.942Z</time>
		<geoidheight>342</geoidheight>
	</trkpt>
	<trkpt lat="50.676753" lon="6.203215">
		<ele>387</ele>
		<time>2011-09-11T11:22:01.946Z</time>
		<geoidheight>341</geoidheight>
	</trkpt>
	<trkpt lat="50.676746" lon="6.203228">
		<ele>387</ele>
		<time>2011-09-11T11:22:02.944Z</time>
		<geoidheight>341</geoidheight>
	</trkpt>
	<trkpt lat="50.676740" lon="6.203243">
		<ele>387</ele>
		<time>2011-09-11T11:22:03.938Z</time>
		<geoidheight>341</geoidheight>
	</trkpt>
	<trkpt lat="50.676735" lon="6.203252">
		<ele>387</ele>
		<time>2011-09-11T11:22:04.941Z</time>
		<geoidheight>341</geoidheight>
	</trkpt>
	<trkpt lat="50.676731" lon="6.203262">
		<ele>387</ele>
		<time>2011-09-11T11:22:05.938Z</time>
		<geoidheight>341</geoidheight>
	</trkpt>
	<trkpt lat="50.676729" lon="6.203271">
		<ele>387</ele>
		<time>2011-09-11T11:22:06.935Z</time>
		<geoidheight>341</geoidheight>
	</trkpt>
	<trkpt lat="50.676726" lon="6.203282">
		<ele>387</ele>
		<time>2011-09-11T11:22:07.935Z</time>
		<geoidheight>341</geoidheight>
	</trkpt>
	<trkpt lat="50.676725" lon="6.203293">
		<ele>387</ele>
		<time>2011-09-11T11:22:08.935Z</time>
		<geoidheight>341</geoidheight>
	</trkpt>
	<trkpt lat="50.676728" lon="6.203303">
		<ele>387</ele>
		<time>2011-09-11T11:22:09.935Z</time>
		<geoidheight>341</geoidheight>
	</trkpt>
	<trkpt lat="50.676729" lon="6.203314">
		<ele>387</ele>
		<time>2011-09-11T11:22:10.935Z</time>
		<geoidheight>341</geoidheight>
	</trkpt>
	<trkpt lat="50.676727" lon="6.203325">
		<ele>387</ele>
		<time>2011-09-11T11:22:11.937Z</time>
		<geoidheight>341</geoidheight>
	</trkpt>
	<trkpt lat="50.676723" lon="6.203332">
		<ele>386</ele>
		<time>2011-09-11T11:22:12.935Z</time>
		<geoidheight>340</geoidheight>
	</trkpt>
	<trkpt lat="50.676720" lon="6.203339">
		<ele>386</ele>
		<time>2011-09-11T11:22:13.936Z</time>
		<geoidheight>340</geoidheight>
	</trkpt>
	<trkpt lat="50.676717" lon="6.203347">
		<ele>386</ele>
		<time>2011-09-11T11:22:14.934Z</time>
		<geoidheight>340</geoidheight>
	</trkpt>
	<trkpt lat="50.676714" lon="6.203354">
		<ele>386</ele>
		<time>2011-09-11T11:22:15.936Z</time>
		<geoidheight>340</geoidheight>
	</trkpt>
	<trkpt lat="50.676710" lon="6.203358">
		<ele>386</ele>
		<time>2011-09-11T11:22:16.934Z</time>
		<geoidheight>340</geoidheight>
	</trkpt>
	<trkpt lat="50.676706" lon="6.203362">
		<ele>386</ele>
		<time>2011-09-11T11:22:17.935Z</time>
		<geoidheight>340</geoidheight>
	</trkpt>
	<trkpt lat="50.676698" lon="6.203368">
		<ele>386</ele>
		<time>2011-09-11T11:22:18.937Z</time>
		<geoidheight>340</geoidheight>
	</trkpt>
	<trkpt lat="50.676691" lon="6.203373">
		<ele>386</ele>
		<time>2011-09-11T11:22:19.935Z</time>
		<geoidheight>340</geoidheight>
	</trkpt>
	<trkpt lat="50.676684" lon="6.203377">
		<ele>386</ele>
		<time>2011-09-11T11:22:20.936Z</time>
		<geoidheight>340</geoidheight>
	</trkpt>
	<trkpt lat="50.676677" lon="6.203380">
		<ele>386</ele>
		<time>2011-09-11T11:22:21.936Z</time>
		<geoidheight>340</geoidheight>
	</trkpt>
	<trkpt lat="50.676670" lon="6.203385">
		<ele>386</ele>
		<time>2011-09-11T11:22:22.935Z</time>
		<geoidheight>340</geoidheight>
	</trkpt>
	<trkpt lat="50.676665" lon="6.203396">
		<ele>386</ele>
		<time>2011-09-11T11:22:23.934Z</time>
		<geoidheight>340</geoidheight>
	</trkpt>
	<trkpt lat="50.676657" lon="6.203406">
		<ele>386</ele>
		<time>2011-09-11T11:22:24.937Z</time>
		<geoidheight>340</geoidheight>
	</trkpt>
	<trkpt lat="50.676648" lon="6.203418">
		<ele>386</ele>
		<time>2011-09-11T11:22:25.936Z</time>
		<geoidheight>340</geoidheight>
	</trkpt>
	<trkpt lat="50.676642" lon="6.203435">
		<ele>386</ele>
		<time>2011-09-11T11:22:26.934Z</time>
		<geoidheight>340</geoidheight>
	</trkpt>
	<trkpt lat="50.676637" lon="6.203454">
		<ele>386</ele>
		<time>2011-09-11T11:22:27.943Z</time>
		<geoidheight>340</geoidheight>
	</trkpt>
	<trkpt lat="50.676629" lon="6.203463">
		<ele>386</ele>
		<time>2011-09-11T11:22:28.934Z</time>
		<geoidheight>340</geoidheight>
	</trkpt>
	<trkpt lat="50.676621" lon="6.203474">
		<ele>386</ele>
		<time>2011-09-11T11:22:29.936Z</time>
		<geoidheight>340</geoidheight>
	</trkpt>
	<trkpt lat="50.676616" lon="6.203493">
		<ele>386</ele>
		<time>2011-09-11T11:22:30.937Z</time>
		<geoidheight>340</geoidheight>
	</trkpt>
	<trkpt lat="50.676611" lon="6.203506">
		<ele>386</ele>
		<time>2011-09-11T11:22:31.936Z</time>
		<geoidheight>340</geoidheight>
	</trkpt>
	<trkpt lat="50.676605" lon="6.203519">
		<ele>386</ele>
		<time>2011-09-11T11:22:32.948Z</time>
		<geoidheight>340</geoidheight>
	</trkpt>
	<trkpt lat="50.676599" lon="6.203535">
		<ele>386</ele>
		<time>2011-09-11T11:22:33.939Z</time>
		<geoidheight>340</geoidheight>
	</trkpt>
	<trkpt lat="50.676590" lon="6.203553">
		<ele>386</ele>
		<time>2011-09-11T11:22:34.942Z</time>
		<geoidheight>340</geoidheight>
	</trkpt>
	<trkpt lat="50.676586" lon="6.203573">
		<ele>386</ele>
		<time>2011-09-11T11:22:35.942Z</time>
		<geoidheight>340</geoidheight>
	</trkpt>
	<trkpt lat="50.676580" lon="6.203588">
		<ele>386</ele>
		<time>2011-09-11T11:22:36.946Z</time>
		<geoidheight>340</geoidheight>
	</trkpt>
	<trkpt lat="50.676575" lon="6.203603">
		<ele>386</ele>
		<time>2011-09-11T11:22:37.948Z</time>
		<geoidheight>340</geoidheight>
	</trkpt>
	<trkpt lat="50.676569" lon="6.203615">
		<ele>386</ele>
		<time>2011-09-11T11:22:38.947Z</time>
		<geoidheight>340</geoidheight>
	</trkpt>
	<trkpt lat="50.676562" lon="6.203624">
		<ele>386</ele>
		<time>2011-09-11T11:22:39.941Z</time>
		<geoidheight>340</geoidheight>
	</trkpt>
	<trkpt lat="50.676557" lon="6.203634">
		<ele>386</ele>
		<time>2011-09-11T11:22:40.935Z</time>
		<geoidheight>340</geoidheight>
	</trkpt>
	<trkpt lat="50.676551" lon="6.203640">
		<ele>386</ele>
		<time>2011-09-11T11:22:41.935Z</time>
		<geoidheight>340</geoidheight>
	</trkpt>
	<trkpt lat="50.676548" lon="6.203652">
		<ele>386</ele>
		<time>2011-09-11T11:22:42.934Z</time>
		<geoidheight>340</geoidheight>
	</trkpt>
	<trkpt lat="50.676540" lon="6.203658">
		<ele>386</ele>
		<time>2011-09-11T11:22:43.936Z</time>
		<geoidheight>340</geoidheight>
	</trkpt>
	<trkpt lat="50.676532" lon="6.203666">
		<ele>386</ele>
		<time>2011-09-11T11:22:44.935Z</time>
		<geoidheight>340</geoidheight>
	</trkpt>
	<trkpt lat="50.676526" lon="6.203676">
		<ele>386</ele>
		<time>2011-09-11T11:22:45.938Z</time>
		<geoidheight>340</geoidheight>
	</trkpt>
	<trkpt lat="50.676524" lon="6.203686">
		<ele>386</ele>
		<time>2011-09-11T11:22:46.935Z</time>
		<geoidheight>340</geoidheight>
	</trkpt>
	<trkpt lat="50.676522" lon="6.203699">
		<ele>386</ele>
		<time>2011-09-11T11:22:47.934Z</time>
		<geoidheight>340</geoidheight>
	</trkpt>
	<trkpt lat="50.676519" lon="6.203712">
		<ele>386</ele>
		<time>2011-09-11T11:22:48.935Z</time>
		<geoidheight>340</geoidheight>
	</trkpt>
	<trkpt lat="50.676508" lon="6.203726">
		<ele>387</ele>
		<time>2011-09-11T11:22:49.936Z</time>
		<geoidheight>341</geoidheight>
	</trkpt>
	<trkpt lat="50.676495" lon="6.203736">
		<ele>387</ele>
		<time>2011-09-11T11:22:50.934Z</time>
		<geoidheight>341</geoidheight>
	</trkpt>
	<trkpt lat="50.676482" lon="6.203746">
		<ele>387</ele>
		<time>2011-09-11T11:22:51.934Z</time>
		<geoidheight>341</geoidheight>
	</trkpt>
	<trkpt lat="50.676469" lon="6.203756">
		<ele>387</ele>
		<time>2011-09-11T11:22:52.936Z</time>
		<geoidheight>341</geoidheight>
	</trkpt>
	<trkpt lat="50.676456" lon="6.203768">
		<ele>387</ele>
		<time>2011-09-11T11:22:53.935Z</time>
		<geoidheight>341</geoidheight>
	</trkpt>
	<trkpt lat="50.676447" lon="6.203781">
		<ele>387</ele>
		<time>2011-09-11T11:22:54.934Z</time>
		<geoidheight>341</geoidheight>
	</trkpt>
	<trkpt lat="50.676438" lon="6.203799">
		<ele>387</ele>
		<time>2011-09-11T11:22:55.938Z</time>
		<geoidheight>341</geoidheight>
	</trkpt>
	<trkpt lat="50.676432" lon="6.203814">
		<ele>387</ele>
		<time>2011-09-11T11:22:56.937Z</time>
		<geoidheight>341</geoidheight>
	</trkpt>
	<trkpt lat="50.676428" lon="6.203831">
		<ele>387</ele>
		<time>2011-09-11T11:22:57.935Z</time>
		<geoidheight>341</geoidheight>
	</trkpt>
	<trkpt lat="50.676432" lon="6.203843">
		<ele>387</ele>
		<time>2011-09-11T11:23:00.934Z</time>
		<geoidheight>341</geoidheight>
	</trkpt>
	<trkpt lat="50.676433" lon="6.203923">
		<ele>387</ele>
		<time>2011-09-11T11:23:01.938Z</time>
		<geoidheight>341</geoidheight>
	</trkpt>
	<trkpt lat="50.676433" lon="6.203923">
		<ele>387</ele>
		<time>2011-09-11T11:23:03.935Z</time>
		<geoidheight>341</geoidheight>
	</trkpt>
	<trkpt lat="50.676425" lon="6.204008">
		<ele>387</ele>
		<time>2011-09-11T11:23:04.937Z</time>
		<geoidheight>341</geoidheight>
	</trkpt>
	<trkpt lat="50.676425" lon="6.204008">
		<ele>387</ele>
		<time>2011-09-11T11:23:05.935Z</time>
		<geoidheight>341</geoidheight>
	</trkpt>
	<trkpt lat="50.676414" lon="6.204046">
		<ele>387</ele>
		<time>2011-09-11T11:23:06.939Z</time>
		<geoidheight>341</geoidheight>
	</trkpt>
	<trkpt lat="50.676407" lon="6.204061">
		<ele>387</ele>
		<time>2011-09-11T11:23:07.937Z</time>
		<geoidheight>341</geoidheight>
	</trkpt>
	<trkpt lat="50.676399" lon="6.204076">
		<ele>387</ele>
		<time>2011-09-11T11:23:08.935Z</time>
		<geoidheight>341</geoidheight>
	</trkpt>
	<trkpt lat="50.676392" lon="6.204092">
		<ele>387</ele>
		<time>2011-09-11T11:23:09.934Z</time>
		<geoidheight>341</geoidheight>
	</trkpt>
	<trkpt lat="50.676385" lon="6.204101">
		<ele>387</ele>
		<time>2011-09-11T11:23:10.937Z</time>
		<geoidheight>341</geoidheight>
	</trkpt>
	<trkpt lat="50.676379" lon="6.204100">
		<ele>387</ele>
		<time>2011-09-11T11:23:11.935Z</time>
		<geoidheight>341</geoidheight>
	</trkpt>
	<trkpt lat="50.676376" lon="6.204098">
		<ele>386</ele>
		<time>2011-09-11T11:23:12.935Z</time>
		<geoidheight>340</geoidheight>
	</trkpt>
	<trkpt lat="50.676366" lon="6.204100">
		<ele>386</ele>
		<time>2011-09-11T11:23:14.938Z</time>
		<geoidheight>340</geoidheight>
	</trkpt>
	<trkpt lat="50.676364" lon="6.204111">
		<ele>386</ele>
		<time>2011-09-11T11:23:15.935Z</time>
		<geoidheight>340</geoidheight>
	</trkpt>
	<trkpt lat="50.676357" lon="6.204118">
		<ele>386</ele>
		<time>2011-09-11T11:23:16.934Z</time>
		<geoidheight>340</geoidheight>
	</trkpt>
	<trkpt lat="50.676352" lon="6.204126">
		<ele>386</ele>
		<time>2011-09-11T11:23:17.945Z</time>
		<geoidheight>340</geoidheight>
	</trkpt>
	<trkpt lat="50.676344" lon="6.204133">
		<ele>386</ele>
		<time>2011-09-11T11:23:18.942Z</time>
		<geoidheight>340</geoidheight>
	</trkpt>
	<trkpt lat="50.676336" lon="6.204141">
		<ele>386</ele>
		<time>2011-09-11T11:23:19.942Z</time>
		<geoidheight>340</geoidheight>
	</trkpt>
	<trkpt lat="50.676328" lon="6.204150">
		<ele>386</ele>
		<time>2011-09-11T11:23:20.941Z</time>
		<geoidheight>340</geoidheight>
	</trkpt>
	<trkpt lat="50.676321" lon="6.204160">
		<ele>386</ele>
		<time>2011-09-11T11:23:21.941Z</time>
		<geoidheight>340</geoidheight>
	</trkpt>
	<trkpt lat="50.676313" lon="6.204167">
		<ele>386</ele>
		<time>2011-09-11T11:23:22.943Z</time>
		<geoidheight>340</geoidheight>
	</trkpt>
	<trkpt lat="50.676304" lon="6.204173">
		<ele>386</ele>
		<time>2011-09-11T11:23:23.948Z</time>
		<geoidheight>340</geoidheight>
	</trkpt>
	<trkpt lat="50.676294" lon="6.204178">
		<ele>386</ele>
		<time>2011-09-11T11:23:24.934Z</time>
		<geoidheight>340</geoidheight>
	</trkpt>
	<trkpt lat="50.676284" lon="6.204178">
		<ele>386</ele>
		<time>2011-09-11T11:23:25.934Z</time>
		<geoidheight>340</geoidheight>
	</trkpt>
	<trkpt lat="50.676274" lon="6.204183">
		<ele>386</ele>
		<time>2011-09-11T11:23:26.938Z</time>
		<geoidheight>340</geoidheight>
	</trkpt>
	<trkpt lat="50.676264" lon="6.204189">
		<ele>386</ele>
		<time>2011-09-11T11:23:27.934Z</time>
		<geoidheight>340</geoidheight>
	</trkpt>
	<trkpt lat="50.676256" lon="6.204197">
		<ele>386</ele>
		<time>2011-09-11T11:23:28.936Z</time>
		<geoidheight>340</geoidheight>
	</trkpt>
	<trkpt lat="50.676247" lon="6.204203">
		<ele>386</ele>
		<time>2011-09-11T11:23:29.936Z</time>
		<geoidheight>340</geoidheight>
	</trkpt>
	<trkpt lat="50.676238" lon="6.204207">
		<ele>386</ele>
		<time>2011-09-11T11:23:30.936Z</time>
		<geoidheight>340</geoidheight>
	</trkpt>
	<trkpt lat="50.676228" lon="6.204211">
		<ele>386</ele>
		<time>2011-09-11T11:23:31.936Z</time>
		<geoidheight>340</geoidheight>
	</trkpt>
	<trkpt lat="50.676218" lon="6.204216">
		<ele>387</ele>
		<time>2011-09-11T11:23:32.937Z</time>
		<geoidheight>341</geoidheight>
	</trkpt>
	<trkpt lat="50.676208" lon="6.204220">
		<ele>387</ele>
		<time>2011-09-11T11:23:33.934Z</time>
		<geoidheight>341</geoidheight>
	</trkpt>
	<trkpt lat="50.676199" lon="6.204226">
		<ele>387</ele>
		<time>2011-09-11T11:23:34.934Z</time>
		<geoidheight>341</geoidheight>
	</trkpt>
	<trkpt lat="50.676190" lon="6.204232">
		<ele>387</ele>
		<time>2011-09-11T11:23:35.934Z</time>
		<geoidheight>341</geoidheight>
	</trkpt>
	<trkpt lat="50.676182" lon="6.204243">
		<ele>387</ele>
		<time>2011-09-11T11:23:36.937Z</time>
		<geoidheight>341</geoidheight>
	</trkpt>
	<trkpt lat="50.676173" lon="6.204258">
		<ele>387</ele>
		<time>2011-09-11T11:23:37.935Z</time>
		<geoidheight>341</geoidheight>
	</trkpt>
	<trkpt lat="50.676163" lon="6.204273">
		<ele>387</ele>
		<time>2011-09-11T11:23:38.936Z</time>
		<geoidheight>341</geoidheight>
	</trkpt>
	<trkpt lat="50.676151" lon="6.204288">
		<ele>387</ele>
		<time>2011-09-11T11:23:39.936Z</time>
		<geoidheight>341</geoidheight>
	</trkpt>
	<trkpt lat="50.676139" lon="6.204302">
		<ele>387</ele>
		<time>2011-09-11T11:23:40.936Z</time>
		<geoidheight>341</geoidheight>
	</trkpt>
	<trkpt lat="50.676127" lon="6.204312">
		<ele>387</ele>
		<time>2011-09-11T11:23:41.935Z</time>
		<geoidheight>341</geoidheight>
	</trkpt>
	<trkpt lat="50.676112" lon="6.204319">
		<ele>387</ele>
		<time>2011-09-11T11:23:42.939Z</time>
		<geoidheight>341</geoidheight>
	</trkpt>
	<trkpt lat="50.676098" lon="6.204323">
		<ele>387</ele>
		<time>2011-09-11T11:23:43.935Z</time>
		<geoidheight>341</geoidheight>
	</trkpt>
	<trkpt lat="50.676084" lon="6.204328">
		<ele>387</ele>
		<time>2011-09-11T11:23:44.935Z</time>
		<geoidheight>341</geoidheight>
	</trkpt>
	<trkpt lat="50.676070" lon="6.204334">
		<ele>387</ele>
		<time>2011-09-11T11:23:45.936Z</time>
		<geoidheight>341</geoidheight>
	</trkpt>
	<trkpt lat="50.676070" lon="6.204334">
		<ele>387</ele>
		<time>2011-09-11T11:23:46.936Z</time>
		<geoidheight>341</geoidheight>
	</trkpt>
	<trkpt lat="50.676050" lon="6.204338">
		<ele>387</ele>
		<time>2011-09-11T11:23:47.936Z</time>
		<geoidheight>341</geoidheight>
	</trkpt>
	<trkpt lat="50.676037" lon="6.204344">
		<ele>387</ele>
		<time>2011-09-11T11:23:48.944Z</time>
		<geoidheight>341</geoidheight>
	</trkpt>
	<trkpt lat="50.676025" lon="6.204353">
		<ele>387</ele>
		<time>2011-09-11T11:23:49.935Z</time>
		<geoidheight>341</geoidheight>
	</trkpt>
	<trkpt lat="50.676013" lon="6.204362">
		<ele>387</ele>
		<time>2011-09-11T11:23:50.935Z</time>
		<geoidheight>341</geoidheight>
	</trkpt>
	<trkpt lat="50.676001" lon="6.204372">
		<ele>388</ele>
		<time>2011-09-11T11:23:51.937Z</time>
		<geoidheight>342</geoidheight>
	</trkpt>
	<trkpt lat="50.675989" lon="6.204384">
		<ele>388</ele>
		<time>2011-09-11T11:23:52.936Z</time>
		<geoidheight>342</geoidheight>
	</trkpt>
	<trkpt lat="50.675977" lon="6.204398">
		<ele>388</ele>
		<time>2011-09-11T11:23:53.947Z</time>
		<geoidheight>342</geoidheight>
	</trkpt>
	<trkpt lat="50.675967" lon="6.204411">
		<ele>388</ele>
		<time>2011-09-11T11:23:54.942Z</time>
		<geoidheight>342</geoidheight>
	</trkpt>
	<trkpt lat="50.675958" lon="6.204425">
		<ele>388</ele>
		<time>2011-09-11T11:23:55.939Z</time>
		<geoidheight>342</geoidheight>
	</trkpt>
	<trkpt lat="50.675948" lon="6.204434">
		<ele>388</ele>
		<time>2011-09-11T11:23:56.945Z</time>
		<geoidheight>342</geoidheight>
	</trkpt>
	<trkpt lat="50.675936" lon="6.204441">
		<ele>388</ele>
		<time>2011-09-11T11:23:57.937Z</time>
		<geoidheight>342</geoidheight>
	</trkpt>
	<trkpt lat="50.675925" lon="6.204446">
		<ele>388</ele>
		<time>2011-09-11T11:23:58.935Z</time>
		<geoidheight>342</geoidheight>
	</trkpt>
	<trkpt lat="50.675915" lon="6.204452">
		<ele>388</ele>
		<time>2011-09-11T11:23:59.935Z</time>
		<geoidheight>342</geoidheight>
	</trkpt>
	<trkpt lat="50.675904" lon="6.204459">
		<ele>388</ele>
		<time>2011-09-11T11:24:00.937Z</time>
		<geoidheight>342</geoidheight>
	</trkpt>
	<trkpt lat="50.675896" lon="6.204465">
		<ele>389</ele>
		<time>2011-09-11T11:24:01.937Z</time>
		<geoidheight>343</geoidheight>
	</trkpt>
	<trkpt lat="50.675887" lon="6.204474">
		<ele>389</ele>
		<time>2011-09-11T11:24:02.936Z</time>
		<geoidheight>343</geoidheight>
	</trkpt>
	<trkpt lat="50.675879" lon="6.204486">
		<ele>389</ele>
		<time>2011-09-11T11:24:03.937Z</time>
		<geoidheight>343</geoidheight>
	</trkpt>
	<trkpt lat="50.675869" lon="6.204501">
		<ele>389</ele>
		<time>2011-09-11T11:24:04.942Z</time>
		<geoidheight>343</geoidheight>
	</trkpt>
	<trkpt lat="50.675858" lon="6.204507">
		<ele>389</ele>
		<time>2011-09-11T11:24:05.936Z</time>
		<geoidheight>343</geoidheight>
	</trkpt>
	<trkpt lat="50.675848" lon="6.204516">
		<ele>389</ele>
		<time>2011-09-11T11:24:06.958Z</time>
		<geoidheight>343</geoidheight>
	</trkpt>
	<trkpt lat="50.675839" lon="6.204527">
		<ele>389</ele>
		<time>2011-09-11T11:24:07.942Z</time>
		<geoidheight>343</geoidheight>
	</trkpt>
	<trkpt lat="50.675829" lon="6.204539">
		<ele>389</ele>
		<time>2011-09-11T11:24:08.942Z</time>
		<geoidheight>343</geoidheight>
	</trkpt>
	<trkpt lat="50.675819" lon="6.204549">
		<ele>389</ele>
		<time>2011-09-11T11:24:09.941Z</time>
		<geoidheight>343</geoidheight>
	</trkpt>
	<trkpt lat="50.675809" lon="6.204560">
		<ele>390</ele>
		<time>2011-09-11T11:24:10.937Z</time>
		<geoidheight>344</geoidheight>
	</trkpt>
	<trkpt lat="50.675800" lon="6.204571">
		<ele>390</ele>
		<time>2011-09-11T11:24:11.952Z</time>
		<geoidheight>344</geoidheight>
	</trkpt>
	<trkpt lat="50.675790" lon="6.204581">
		<ele>390</ele>
		<time>2011-09-11T11:24:12.955Z</time>
		<geoidheight>344</geoidheight>
	</trkpt>
	<trkpt lat="50.675779" lon="6.204592">
		<ele>390</ele>
		<time>2011-09-11T11:24:13.943Z</time>
		<geoidheight>344</geoidheight>
	</trkpt>
	<trkpt lat="50.675769" lon="6.204602">
		<ele>390</ele>
		<time>2011-09-11T11:24:14.943Z</time>
		<geoidheight>344</geoidheight>
	</trkpt>
	<trkpt lat="50.675758" lon="6.204613">
		<ele>390</ele>
		<time>2011-09-11T11:24:15.945Z</time>
		<geoidheight>344</geoidheight>
	</trkpt>
	<trkpt lat="50.675750" lon="6.204622">
		<ele>390</ele>
		<time>2011-09-11T11:24:16.944Z</time>
		<geoidheight>344</geoidheight>
	</trkpt>
	<trkpt lat="50.675743" lon="6.204631">
		<ele>390</ele>
		<time>2011-09-11T11:24:17.955Z</time>
		<geoidheight>344</geoidheight>
	</trkpt>
	<trkpt lat="50.675736" lon="6.204639">
		<ele>391</ele>
		<time>2011-09-11T11:24:18.946Z</time>
		<geoidheight>345</geoidheight>
	</trkpt>
	<trkpt lat="50.675729" lon="6.204647">
		<ele>391</ele>
		<time>2011-09-11T11:24:19.942Z</time>
		<geoidheight>345</geoidheight>
	</trkpt>
	<trkpt lat="50.675721" lon="6.204653">
		<ele>391</ele>
		<time>2011-09-11T11:24:20.946Z</time>
		<geoidheight>345</geoidheight>
	</trkpt>
	<trkpt lat="50.675712" lon="6.204660">
		<ele>391</ele>
		<time>2011-09-11T11:24:21.942Z</time>
		<geoidheight>345</geoidheight>
	</trkpt>
	<trkpt lat="50.675703" lon="6.204666">
		<ele>391</ele>
		<time>2011-09-11T11:24:22.944Z</time>
		<geoidheight>345</geoidheight>
	</trkpt>
	<trkpt lat="50.675695" lon="6.204677">
		<ele>391</ele>
		<time>2011-09-11T11:24:23.941Z</time>
		<geoidheight>345</geoidheight>
	</trkpt>
	<trkpt lat="50.675682" lon="6.204685">
		<ele>391</ele>
		<time>2011-09-11T11:24:24.935Z</time>
		<geoidheight>345</geoidheight>
	</trkpt>
	<trkpt lat="50.675670" lon="6.204698">
		<ele>391</ele>
		<time>2011-09-11T11:24:25.941Z</time>
		<geoidheight>345</geoidheight>
	</trkpt>
	<trkpt lat="50.675658" lon="6.204711">
		<ele>391</ele>
		<time>2011-09-11T11:24:26.936Z</time>
		<geoidheight>345</geoidheight>
	</trkpt>
	<trkpt lat="50.675646" lon="6.204723">
		<ele>392</ele>
		<time>2011-09-11T11:24:27.936Z</time>
		<geoidheight>346</geoidheight>
	</trkpt>
	<trkpt lat="50.675634" lon="6.204730">
		<ele>392</ele>
		<time>2011-09-11T11:24:28.937Z</time>
		<geoidheight>346</geoidheight>
	</trkpt>
	<trkpt lat="50.675626" lon="6.204741">
		<ele>392</ele>
		<time>2011-09-11T11:24:29.936Z</time>
		<geoidheight>346</geoidheight>
	</trkpt>
	<trkpt lat="50.675618" lon="6.204748">
		<ele>392</ele>
		<time>2011-09-11T11:24:30.947Z</time>
		<geoidheight>346</geoidheight>
	</trkpt>
	<trkpt lat="50.675611" lon="6.204754">
		<ele>392</ele>
		<time>2011-09-11T11:24:31.944Z</time>
		<geoidheight>346</geoidheight>
	</trkpt>
	<trkpt lat="50.675604" lon="6.204762">
		<ele>392</ele>
		<time>2011-09-11T11:24:32.943Z</time>
		<geoidheight>346</geoidheight>
	</trkpt>
	<trkpt lat="50.675598" lon="6.204771">
		<ele>392</ele>
		<time>2011-09-11T11:24:33.947Z</time>
		<geoidheight>346</geoidheight>
	</trkpt>
	<trkpt lat="50.675590" lon="6.204778">
		<ele>392</ele>
		<time>2011-09-11T11:24:34.944Z</time>
		<geoidheight>346</geoidheight>
	</trkpt>
	<trkpt lat="50.675582" lon="6.204787">
		<ele>392</ele>
		<time>2011-09-11T11:24:35.944Z</time>
		<geoidheight>346</geoidheight>
	</trkpt>
	<trkpt lat="50.675573" lon="6.204799">
		<ele>393</ele>
		<time>2011-09-11T11:24:36.941Z</time>
		<geoidheight>347</geoidheight>
	</trkpt>
	<trkpt lat="50.675564" lon="6.204806">
		<ele>393</ele>
		<time>2011-09-11T11:24:37.944Z</time>
		<geoidheight>347</geoidheight>
	</trkpt>
	<trkpt lat="50.675554" lon="6.204811">
		<ele>393</ele>
		<time>2011-09-11T11:24:38.942Z</time>
		<geoidheight>347</geoidheight>
	</trkpt>
	<trkpt lat="50.675544" lon="6.204813">
		<ele>393</ele>
		<time>2011-09-11T11:24:39.941Z</time>
		<geoidheight>347</geoidheight>
	</trkpt>
	<trkpt lat="50.675534" lon="6.204815">
		<ele>393</ele>
		<time>2011-09-11T11:24:40.943Z</time>
		<geoidheight>347</geoidheight>
	</trkpt>
	<trkpt lat="50.675523" lon="6.204817">
		<ele>393</ele>
		<time>2011-09-11T11:24:41.944Z</time>
		<geoidheight>347</geoidheight>
	</trkpt>
	<trkpt lat="50.675513" lon="6.204822">
		<ele>393</ele>
		<time>2011-09-11T11:24:42.949Z</time>
		<geoidheight>347</geoidheight>
	</trkpt>
	<trkpt lat="50.675503" lon="6.204828">
		<ele>394</ele>
		<time>2011-09-11T11:24:43.945Z</time>
		<geoidheight>348</geoidheight>
	</trkpt>
	<trkpt lat="50.675494" lon="6.204833">
		<ele>394</ele>
		<time>2011-09-11T11:24:44.943Z</time>
		<geoidheight>348</geoidheight>
	</trkpt>
	<trkpt lat="50.675483" lon="6.204839">
		<ele>394</ele>
		<time>2011-09-11T11:24:45.942Z</time>
		<geoidheight>348</geoidheight>
	</trkpt>
	<trkpt lat="50.675473" lon="6.204847">
		<ele>394</ele>
		<time>2011-09-11T11:24:46.945Z</time>
		<geoidheight>348</geoidheight>
	</trkpt>
	<trkpt lat="50.675463" lon="6.204855">
		<ele>394</ele>
		<time>2011-09-11T11:24:47.945Z</time>
		<geoidheight>348</geoidheight>
	</trkpt>
	<trkpt lat="50.675455" lon="6.204861">
		<ele>394</ele>
		<time>2011-09-11T11:24:48.945Z</time>
		<geoidheight>348</geoidheight>
	</trkpt>
	<trkpt lat="50.675449" lon="6.204869">
		<ele>395</ele>
		<time>2011-09-11T11:24:49.957Z</time>
		<geoidheight>349</geoidheight>
	</trkpt>
	<trkpt lat="50.675444" lon="6.204877">
		<ele>395</ele>
		<time>2011-09-11T11:24:50.945Z</time>
		<geoidheight>349</geoidheight>
	</trkpt>
	<trkpt lat="50.675437" lon="6.204885">
		<ele>395</ele>
		<time>2011-09-11T11:24:51.946Z</time>
		<geoidheight>349</geoidheight>
	</trkpt>
	<trkpt lat="50.675430" lon="6.204893">
		<ele>395</ele>
		<time>2011-09-11T11:24:52.949Z</time>
		<geoidheight>349</geoidheight>
	</trkpt>
	<trkpt lat="50.675424" lon="6.204902">
		<ele>395</ele>
		<time>2011-09-11T11:24:53.946Z</time>
		<geoidheight>349</geoidheight>
	</trkpt>
	<trkpt lat="50.675416" lon="6.204911">
		<ele>395</ele>
		<time>2011-09-11T11:24:54.939Z</time>
		<geoidheight>349</geoidheight>
	</trkpt>
	<trkpt lat="50.675406" lon="6.204922">
		<ele>396</ele>
		<time>2011-09-11T11:24:55.945Z</time>
		<geoidheight>350</geoidheight>
	</trkpt>
	<trkpt lat="50.675396" lon="6.204939">
		<ele>396</ele>
		<time>2011-09-11T11:24:56.943Z</time>
		<geoidheight>350</geoidheight>
	</trkpt>
	<trkpt lat="50.675384" lon="6.204950">
		<ele>396</ele>
		<time>2011-09-11T11:24:57.944Z</time>
		<geoidheight>350</geoidheight>
	</trkpt>
	<trkpt lat="50.675372" lon="6.204969">
		<ele>396</ele>
		<time>2011-09-11T11:24:58.950Z</time>
		<geoidheight>350</geoidheight>
	</trkpt>
	<trkpt lat="50.675362" lon="6.204985">
		<ele>396</ele>
		<time>2011-09-11T11:24:59.946Z</time>
		<geoidheight>350</geoidheight>
	</trkpt>
	<trkpt lat="50.675351" lon="6.204997">
		<ele>396</ele>
		<time>2011-09-11T11:25:00.947Z</time>
		<geoidheight>350</geoidheight>
	</trkpt>
	<trkpt lat="50.675339" lon="6.205005">
		<ele>397</ele>
		<time>2011-09-11T11:25:01.958Z</time>
		<geoidheight>351</geoidheight>
	</trkpt>
	<trkpt lat="50.675327" lon="6.205013">
		<ele>397</ele>
		<time>2011-09-11T11:25:02.945Z</time>
		<geoidheight>351</geoidheight>
	</trkpt>
	<trkpt lat="50.675317" lon="6.205028">
		<ele>397</ele>
		<time>2011-09-11T11:25:03.942Z</time>
		<geoidheight>351</geoidheight>
	</trkpt>
	<trkpt lat="50.675308" lon="6.205043">
		<ele>397</ele>
		<time>2011-09-11T11:25:04.936Z</time>
		<geoidheight>351</geoidheight>
	</trkpt>
	<trkpt lat="50.675300" lon="6.205062">
		<ele>397</ele>
		<time>2011-09-11T11:25:05.944Z</time>
		<geoidheight>351</geoidheight>
	</trkpt>
	<trkpt lat="50.675292" lon="6.205081">
		<ele>397</ele>
		<time>2011-09-11T11:25:06.941Z</time>
		<geoidheight>351</geoidheight>
	</trkpt>
	<trkpt lat="50.675280" lon="6.205092">
		<ele>398</ele>
		<time>2011-09-11T11:25:07.942Z</time>
		<geoidheight>352</geoidheight>
	</trkpt>
	<trkpt lat="50.675271" lon="6.205104">
		<ele>398</ele>
		<time>2011-09-11T11:25:08.937Z</time>
		<geoidheight>352</geoidheight>
	</trkpt>
	<trkpt lat="50.675259" lon="6.205112">
		<ele>398</ele>
		<time>2011-09-11T11:25:09.938Z</time>
		<geoidheight>352</geoidheight>
	</trkpt>
	<trkpt lat="50.675249" lon="6.205122">
		<ele>398</ele>
		<time>2011-09-11T11:25:10.937Z</time>
		<geoidheight>352</geoidheight>
	</trkpt>
	<trkpt lat="50.675239" lon="6.205131">
		<ele>398</ele>
		<time>2011-09-11T11:25:11.937Z</time>
		<geoidheight>352</geoidheight>
	</trkpt>
	<trkpt lat="50.675230" lon="6.205141">
		<ele>398</ele>
		<time>2011-09-11T11:25:12.938Z</time>
		<geoidheight>352</geoidheight>
	</trkpt>
	<trkpt lat="50.675224" lon="6.205151">
		<ele>398</ele>
		<time>2011-09-11T11:25:13.935Z</time>
		<geoidheight>352</geoidheight>
	</trkpt>
	<trkpt lat="50.675217" lon="6.205163">
		<ele>398</ele>
		<time>2011-09-11T11:25:14.936Z</time>
		<geoidheight>352</geoidheight>
	</trkpt>
	<trkpt lat="50.675210" lon="6.205175">
		<ele>399</ele>
		<time>2011-09-11T11:25:15.937Z</time>
		<geoidheight>353</geoidheight>
	</trkpt>
	<trkpt lat="50.675204" lon="6.205187">
		<ele>399</ele>
		<time>2011-09-11T11:25:16.936Z</time>
		<geoidheight>353</geoidheight>
	</trkpt>
	<trkpt lat="50.675198" lon="6.205200">
		<ele>399</ele>
		<time>2011-09-11T11:25:17.937Z</time>
		<geoidheight>353</geoidheight>
	</trkpt>
	<trkpt lat="50.675192" lon="6.205212">
		<ele>399</ele>
		<time>2011-09-11T11:25:18.943Z</time>
		<geoidheight>353</geoidheight>
	</trkpt>
	<trkpt lat="50.675187" lon="6.205226">
		<ele>399</ele>
		<time>2011-09-11T11:25:19.951Z</time>
		<geoidheight>353</geoidheight>
	</trkpt>
	<trkpt lat="50.675180" lon="6.205234">
		<ele>399</ele>
		<time>2011-09-11T11:25:20.938Z</time>
		<geoidheight>353</geoidheight>
	</trkpt>
	<trkpt lat="50.675174" lon="6.205244">
		<ele>399</ele>
		<time>2011-09-11T11:25:21.938Z</time>
		<geoidheight>353</geoidheight>
	</trkpt>
	<trkpt lat="50.675169" lon="6.205256">
		<ele>399</ele>
		<time>2011-09-11T11:25:22.938Z</time>
		<geoidheight>353</geoidheight>
	</trkpt>
	<trkpt lat="50.675165" lon="6.205269">
		<ele>400</ele>
		<time>2011-09-11T11:25:23.936Z</time>
		<geoidheight>354</geoidheight>
	</trkpt>
	<trkpt lat="50.675161" lon="6.205281">
		<ele>400</ele>
		<time>2011-09-11T11:25:24.939Z</time>
		<geoidheight>354</geoidheight>
	</trkpt>
	<trkpt lat="50.675156" lon="6.205293">
		<ele>400</ele>
		<time>2011-09-11T11:25:25.936Z</time>
		<geoidheight>354</geoidheight>
	</trkpt>
	<trkpt lat="50.675149" lon="6.205303">
		<ele>400</ele>
		<time>2011-09-11T11:25:26.937Z</time>
		<geoidheight>354</geoidheight>
	</trkpt>
	<trkpt lat="50.675139" lon="6.205311">
		<ele>400</ele>
		<time>2011-09-11T11:25:27.936Z</time>
		<geoidheight>354</geoidheight>
	</trkpt>
	<trkpt lat="50.675130" lon="6.205319">
		<ele>400</ele>
		<time>2011-09-11T11:25:28.939Z</time>
		<geoidheight>354</geoidheight>
	</trkpt>
	<trkpt lat="50.675120" lon="6.205329">
		<ele>400</ele>
		<time>2011-09-11T11:25:29.937Z</time>
		<geoidheight>354</geoidheight>
	</trkpt>
	<trkpt lat="50.675111" lon="6.205341">
		<ele>400</ele>
		<time>2011-09-11T11:25:30.936Z</time>
		<geoidheight>354</geoidheight>
	</trkpt>
	<trkpt lat="50.675101" lon="6.205354">
		<ele>401</ele>
		<time>2011-09-11T11:25:31.938Z</time>
		<geoidheight>355</geoidheight>
	</trkpt>
	<trkpt lat="50.675091" lon="6.205366">
		<ele>401</ele>
		<time>2011-09-11T11:25:32.939Z</time>
		<geoidheight>355</geoidheight>
	</trkpt>
	<trkpt lat="50.675082" lon="6.205378">
		<ele>401</ele>
		<time>2011-09-11T11:25:33.936Z</time>
		<geoidheight>355</geoidheight>
	</trkpt>
	<trkpt lat="50.675074" lon="6.205390">
		<ele>401</ele>
		<time>2011-09-11T11:25:34.938Z</time>
		<geoidheight>355</geoidheight>
	</trkpt>
	<trkpt lat="50.675066" lon="6.205403">
		<ele>401</ele>
		<time>2011-09-11T11:25:35.935Z</time>
		<geoidheight>355</geoidheight>
	</trkpt>
	<trkpt lat="50.675058" lon="6.205418">
		<ele>401</ele>
		<time>2011-09-11T11:25:36.937Z</time>
		<geoidheight>355</geoidheight>
	</trkpt>
	<trkpt lat="50.675052" lon="6.205433">
		<ele>402</ele>
		<time>2011-09-11T11:25:37.937Z</time>
		<geoidheight>356</geoidheight>
	</trkpt>
	<trkpt lat="50.675045" lon="6.205449">
		<ele>402</ele>
		<time>2011-09-11T11:25:38.936Z</time>
		<geoidheight>356</geoidheight>
	</trkpt>
	<trkpt lat="50.675038" lon="6.205466">
		<ele>402</ele>
		<time>2011-09-11T11:25:39.935Z</time>
		<geoidheight>356</geoidheight>
	</trkpt>
	<trkpt lat="50.675031" lon="6.205483">
		<ele>402</ele>
		<time>2011-09-11T11:25:40.937Z</time>
		<geoidheight>356</geoidheight>
	</trkpt>
	<trkpt lat="50.675023" lon="6.205500">
		<ele>402</ele>
		<time>2011-09-11T11:25:41.939Z</time>
		<geoidheight>356</geoidheight>
	</trkpt>
	<trkpt lat="50.675016" lon="6.205519">
		<ele>402</ele>
		<time>2011-09-11T11:25:42.943Z</time>
		<geoidheight>356</geoidheight>
	</trkpt>
	<trkpt lat="50.675009" lon="6.205539">
		<ele>402</ele>
		<time>2011-09-11T11:25:43.942Z</time>
		<geoidheight>356</geoidheight>
	</trkpt>
	<trkpt lat="50.675001" lon="6.205556">
		<ele>403</ele>
		<time>2011-09-11T11:25:44.939Z</time>
		<geoidheight>357</geoidheight>
	</trkpt>
	<trkpt lat="50.674992" lon="6.205572">
		<ele>403</ele>
		<time>2011-09-11T11:25:45.958Z</time>
		<geoidheight>357</geoidheight>
	</trkpt>
	<trkpt lat="50.674985" lon="6.205590">
		<ele>403</ele>
		<time>2011-09-11T11:25:46.965Z</time>
		<geoidheight>357</geoidheight>
	</trkpt>
	<trkpt lat="50.674977" lon="6.205610">
		<ele>403</ele>
		<time>2011-09-11T11:25:47.958Z</time>
		<geoidheight>357</geoidheight>
	</trkpt>
	<trkpt lat="50.674969" lon="6.205628">
		<ele>403</ele>
		<time>2011-09-11T11:25:48.951Z</time>
		<geoidheight>357</geoidheight>
	</trkpt>
	<trkpt lat="50.674961" lon="6.205644">
		<ele>403</ele>
		<time>2011-09-11T11:25:49.957Z</time>
		<geoidheight>357</geoidheight>
	</trkpt>
	<trkpt lat="50.674956" lon="6.205663">
		<ele>403</ele>
		<time>2011-09-11T11:25:50.954Z</time>
		<geoidheight>357</geoidheight>
	</trkpt>
	<trkpt lat="50.674949" lon="6.205678">
		<ele>404</ele>
		<time>2011-09-11T11:25:51.960Z</time>
		<geoidheight>358</geoidheight>
	</trkpt>
	<trkpt lat="50.674938" lon="6.205691">
		<ele>404</ele>
		<time>2011-09-11T11:25:52.953Z</time>
		<geoidheight>358</geoidheight>
	</trkpt>
	<trkpt lat="50.674929" lon="6.205708">
		<ele>404</ele>
		<time>2011-09-11T11:25:53.941Z</time>
		<geoidheight>358</geoidheight>
	</trkpt>
	<trkpt lat="50.674919" lon="6.205725">
		<ele>404</ele>
		<time>2011-09-11T11:25:54.946Z</time>
		<geoidheight>358</geoidheight>
	</trkpt>
	<trkpt lat="50.674910" lon="6.205741">
		<ele>404</ele>
		<time>2011-09-11T11:25:55.946Z</time>
		<geoidheight>358</geoidheight>
	</trkpt>
	<trkpt lat="50.674898" lon="6.205750">
		<ele>404</ele>
		<time>2011-09-11T11:25:56.955Z</time>
		<geoidheight>358</geoidheight>
	</trkpt>
	<trkpt lat="50.674888" lon="6.205760">
		<ele>404</ele>
		<time>2011-09-11T11:25:57.942Z</time>
		<geoidheight>358</geoidheight>
	</trkpt>
	<trkpt lat="50.674877" lon="6.205772">
		<ele>405</ele>
		<time>2011-09-11T11:25:58.945Z</time>
		<geoidheight>359</geoidheight>
	</trkpt>
	<trkpt lat="50.674866" lon="6.205785">
		<ele>405</ele>
		<time>2011-09-11T11:25:59.943Z</time>
		<geoidheight>359</geoidheight>
	</trkpt>
	<trkpt lat="50.674856" lon="6.205800">
		<ele>405</ele>
		<time>2011-09-11T11:26:00.947Z</time>
		<geoidheight>359</geoidheight>
	</trkpt>
	<trkpt lat="50.674847" lon="6.205816">
		<ele>405</ele>
		<time>2011-09-11T11:26:01.943Z</time>
		<geoidheight>359</geoidheight>
	</trkpt>
	<trkpt lat="50.674840" lon="6.205829">
		<ele>405</ele>
		<time>2011-09-11T11:26:02.946Z</time>
		<geoidheight>359</geoidheight>
	</trkpt>
	<trkpt lat="50.674831" lon="6.205840">
		<ele>405</ele>
		<time>2011-09-11T11:26:03.955Z</time>
		<geoidheight>359</geoidheight>
	</trkpt>
	<trkpt lat="50.674823" lon="6.205852">
		<ele>405</ele>
		<time>2011-09-11T11:26:04.947Z</time>
		<geoidheight>359</geoidheight>
	</trkpt>
	<trkpt lat="50.674816" lon="6.205864">
		<ele>406</ele>
		<time>2011-09-11T11:26:05.943Z</time>
		<geoidheight>360</geoidheight>
	</trkpt>
	<trkpt lat="50.674808" lon="6.205874">
		<ele>406</ele>
		<time>2011-09-11T11:26:06.955Z</time>
		<geoidheight>360</geoidheight>
	</trkpt>
	<trkpt lat="50.674800" lon="6.205885">
		<ele>406</ele>
		<time>2011-09-11T11:26:07.950Z</time>
		<geoidheight>360</geoidheight>
	</trkpt>
	<trkpt lat="50.674791" lon="6.205894">
		<ele>406</ele>
		<time>2011-09-11T11:26:08.958Z</time>
		<geoidheight>360</geoidheight>
	</trkpt>
	<trkpt lat="50.674782" lon="6.205903">
		<ele>406</ele>
		<time>2011-09-11T11:26:09.969Z</time>
		<geoidheight>360</geoidheight>
	</trkpt>
	<trkpt lat="50.674773" lon="6.205912">
		<ele>406</ele>
		<time>2011-09-11T11:26:10.952Z</time>
		<geoidheight>360</geoidheight>
	</trkpt>
	<trkpt lat="50.674767" lon="6.205919">
		<ele>406</ele>
		<time>2011-09-11T11:26:11.960Z</time>
		<geoidheight>360</geoidheight>
	</trkpt>
	<trkpt lat="50.674759" lon="6.205925">
		<ele>407</ele>
		<time>2011-09-11T11:26:12.944Z</time>
		<geoidheight>361</geoidheight>
	</trkpt>
	<trkpt lat="50.674750" lon="6.205934">
		<ele>407</ele>
		<time>2011-09-11T11:26:13.936Z</time>
		<geoidheight>361</geoidheight>
	</trkpt>
	<trkpt lat="50.674741" lon="6.205938">
		<ele>407</ele>
		<time>2011-09-11T11:26:14.939Z</time>
		<geoidheight>361</geoidheight>
	</trkpt>
	<trkpt lat="50.674733" lon="6.205948">
		<ele>407</ele>
		<time>2011-09-11T11:26:15.940Z</time>
		<geoidheight>361</geoidheight>
	</trkpt>
	<trkpt lat="50.674723" lon="6.205960">
		<ele>407</ele>
		<time>2011-09-11T11:26:16.936Z</time>
		<geoidheight>361</geoidheight>
	</trkpt>
	<trkpt lat="50.674714" lon="6.205972">
		<ele>407</ele>
		<time>2011-09-11T11:26:17.939Z</time>
		<geoidheight>361</geoidheight>
	</trkpt>
	<trkpt lat="50.674704" lon="6.205985">
		<ele>408</ele>
		<time>2011-09-11T11:26:18.935Z</time>
		<geoidheight>362</geoidheight>
	</trkpt>
	<trkpt lat="50.674696" lon="6.205999">
		<ele>408</ele>
		<time>2011-09-11T11:26:19.936Z</time>
		<geoidheight>362</geoidheight>
	</trkpt>
	<trkpt lat="50.674691" lon="6.206010">
		<ele>408</ele>
		<time>2011-09-11T11:26:20.936Z</time>
		<geoidheight>362</geoidheight>
	</trkpt>
	<trkpt lat="50.674687" lon="6.206018">
		<ele>408</ele>
		<time>2011-09-11T11:26:21.938Z</time>
		<geoidheight>362</geoidheight>
	</trkpt>
	<trkpt lat="50.674687" lon="6.206018">
		<ele>408</ele>
		<time>2011-09-11T11:26:22.936Z</time>
		<geoidheight>362</geoidheight>
	</trkpt>
	<trkpt lat="50.674687" lon="6.206018">
		<ele>408</ele>
		<time>2011-09-11T11:26:23.937Z</time>
		<geoidheight>362</geoidheight>
	</trkpt>
	<trkpt lat="50.674687" lon="6.206018">
		<ele>408</ele>
		<time>2011-09-11T11:26:24.937Z</time>
		<geoidheight>362</geoidheight>
	</trkpt>
	<trkpt lat="50.674687" lon="6.206018">
		<ele>408</ele>
		<time>2011-09-11T11:26:25.936Z</time>
		<geoidheight>362</geoidheight>
	</trkpt>
	<trkpt lat="50.674687" lon="6.206018">
		<ele>408</ele>
		<time>2011-09-11T11:26:26.941Z</time>
		<geoidheight>362</geoidheight>
	</trkpt>
	<trkpt lat="50.674687" lon="6.206018">
		<ele>408</ele>
		<time>2011-09-11T11:26:27.937Z</time>
		<geoidheight>362</geoidheight>
	</trkpt>
	<trkpt lat="50.674687" lon="6.206018">
		<ele>408</ele>
		<time>2011-09-11T11:26:28.943Z</time>
		<geoidheight>362</geoidheight>
	</trkpt>
	<trkpt lat="50.674687" lon="6.206018">
		<ele>408</ele>
		<time>2011-09-11T11:26:29.946Z</time>
		<geoidheight>362</geoidheight>
	</trkpt>
	<trkpt lat="50.674687" lon="6.206018">
		<ele>408</ele>
		<time>2011-09-11T11:26:30.939Z</time>
		<geoidheight>362</geoidheight>
	</trkpt>
	<trkpt lat="50.674687" lon="6.206018">
		<ele>408</ele>
		<time>2011-09-11T11:26:31.938Z</time>
		<geoidheight>362</geoidheight>
	</trkpt>
	<trkpt lat="50.674687" lon="6.206018">
		<ele>408</ele>
		<time>2011-09-11T11:26:32.948Z</time>
		<geoidheight>362</geoidheight>
	</trkpt>
	<trkpt lat="50.674687" lon="6.206018">
		<ele>408</ele>
		<time>2011-09-11T11:26:33.943Z</time>
		<geoidheight>362</geoidheight>
	</trkpt>
	<trkpt lat="50.674687" lon="6.206018">
		<ele>408</ele>
		<time>2011-09-11T11:26:34.936Z</time>
		<geoidheight>362</geoidheight>
	</trkpt>
	<trkpt lat="50.674687" lon="6.206018">
		<ele>409</ele>
		<time>2011-09-11T11:26:35.936Z</time>
		<geoidheight>363</geoidheight>
	</trkpt>
	<trkpt lat="50.674687" lon="6.206018">
		<ele>409</ele>
		<time>2011-09-11T11:26:36.940Z</time>
		<geoidheight>363</geoidheight>
	</trkpt>
	<trkpt lat="50.674700" lon="6.206085">
		<ele>409</ele>
		<time>2011-09-11T11:26:37.936Z</time>
		<geoidheight>363</geoidheight>
	</trkpt>
	<trkpt lat="50.674693" lon="6.206092">
		<ele>409</ele>
		<time>2011-09-11T11:26:38.935Z</time>
		<geoidheight>363</geoidheight>
	</trkpt>
	<trkpt lat="50.674687" lon="6.206102">
		<ele>409</ele>
		<time>2011-09-11T11:26:39.938Z</time>
		<geoidheight>363</geoidheight>
	</trkpt>
	<trkpt lat="50.674680" lon="6.206113">
		<ele>409</ele>
		<time>2011-09-11T11:26:40.936Z</time>
		<geoidheight>363</geoidheight>
	</trkpt>
	<trkpt lat="50.674672" lon="6.206124">
		<ele>409</ele>
		<time>2011-09-11T11:26:41.938Z</time>
		<geoidheight>363</geoidheight>
	</trkpt>
	<trkpt lat="50.674664" lon="6.206135">
		<ele>410</ele>
		<time>2011-09-11T11:26:42.937Z</time>
		<geoidheight>364</geoidheight>
	</trkpt>
	<trkpt lat="50.674657" lon="6.206147">
		<ele>410</ele>
		<time>2011-09-11T11:26:43.936Z</time>
		<geoidheight>364</geoidheight>
	</trkpt>
	<trkpt lat="50.674650" lon="6.206156">
		<ele>410</ele>
		<time>2011-09-11T11:26:44.937Z</time>
		<geoidheight>364</geoidheight>
	</trkpt>
	<trkpt lat="50.674641" lon="6.206165">
		<ele>410</ele>
		<time>2011-09-11T11:26:45.939Z</time>
		<geoidheight>364</geoidheight>
	</trkpt>
	<trkpt lat="50.674632" lon="6.206175">
		<ele>410</ele>
		<time>2011-09-11T11:26:46.939Z</time>
		<geoidheight>364</geoidheight>
	</trkpt>
	<trkpt lat="50.674622" lon="6.206184">
		<ele>410</ele>
		<time>2011-09-11T11:26:47.938Z</time>
		<geoidheight>364</geoidheight>
	</trkpt>
	<trkpt lat="50.674612" lon="6.206194">
		<ele>410</ele>
		<time>2011-09-11T11:26:48.939Z</time>
		<geoidheight>364</geoidheight>
	</trkpt>
	<trkpt lat="50.674599" lon="6.206202">
		<ele>410</ele>
		<time>2011-09-11T11:26:49.937Z</time>
		<geoidheight>364</geoidheight>
	</trkpt>
	<trkpt lat="50.674587" lon="6.206215">
		<ele>410</ele>
		<time>2011-09-11T11:26:50.939Z</time>
		<geoidheight>364</geoidheight>
	</trkpt>
	<trkpt lat="50.674574" lon="6.206228">
		<ele>411</ele>
		<time>2011-09-11T11:26:51.936Z</time>
		<geoidheight>365</geoidheight>
	</trkpt>
	<trkpt lat="50.674561" lon="6.206240">
		<ele>411</ele>
		<time>2011-09-11T11:26:52.939Z</time>
		<geoidheight>365</geoidheight>
	</trkpt>
	<trkpt lat="50.674546" lon="6.206252">
		<ele>411</ele>
		<time>2011-09-11T11:26:53.937Z</time>
		<geoidheight>365</geoidheight>
	</trkpt>
	<trkpt lat="50.674546" lon="6.206252">
		<ele>411</ele>
		<time>2011-09-11T11:26:54.938Z</time>
		<geoidheight>365</geoidheight>
	</trkpt>
	<trkpt lat="50.674529" lon="6.206266">
		<ele>411</ele>
		<time>2011-09-11T11:26:55.937Z</time>
		<geoidheight>365</geoidheight>
	</trkpt>
	<trkpt lat="50.674515" lon="6.206274">
		<ele>411</ele>
		<time>2011-09-11T11:26:56.939Z</time>
		<geoidheight>365</geoidheight>
	</trkpt>
	<trkpt lat="50.674503" lon="6.206290">
		<ele>411</ele>
		<time>2011-09-11T11:26:57.938Z</time>
		<geoidheight>365</geoidheight>
	</trkpt>
	<trkpt lat="50.674492" lon="6.206302">
		<ele>411</ele>
		<time>2011-09-11T11:26:58.939Z</time>
		<geoidheight>365</geoidheight>
	</trkpt>
	<trkpt lat="50.674482" lon="6.206315">
		<ele>411</ele>
		<time>2011-09-11T11:26:59.938Z</time>
		<geoidheight>365</geoidheight>
	</trkpt>
	<trkpt lat="50.674473" lon="6.206325">
		<ele>412</ele>
		<time>2011-09-11T11:27:00.938Z</time>
		<geoidheight>366</geoidheight>
	</trkpt>
	<trkpt lat="50.674467" lon="6.206344">
		<ele>412</ele>
		<time>2011-09-11T11:27:01.961Z</time>
		<geoidheight>366</geoidheight>
	</trkpt>
	<trkpt lat="50.674464" lon="6.206371">
		<ele>412</ele>
		<time>2011-09-11T11:27:02.949Z</time>
		<geoidheight>366</geoidheight>
	</trkpt>
	<trkpt lat="50.674464" lon="6.206387">
		<ele>412</ele>
		<time>2011-09-11T11:27:03.936Z</time>
		<geoidheight>366</geoidheight>
	</trkpt>
	<trkpt lat="50.674463" lon="6.206398">
		<ele>412</ele>
		<time>2011-09-11T11:27:04.938Z</time>
		<geoidheight>366</geoidheight>
	</trkpt>
	<trkpt lat="50.674462" lon="6.206410">
		<ele>412</ele>
		<time>2011-09-11T11:27:05.937Z</time>
		<geoidheight>366</geoidheight>
	</trkpt>
	<trkpt lat="50.674459" lon="6.206417">
		<ele>412</ele>
		<time>2011-09-11T11:27:06.936Z</time>
		<geoidheight>366</geoidheight>
	</trkpt>
	<trkpt lat="50.674455" lon="6.206423">
		<ele>412</ele>
		<time>2011-09-11T11:27:07.939Z</time>
		<geoidheight>366</geoidheight>
	</trkpt>
	<trkpt lat="50.674452" lon="6.206428">
		<ele>412</ele>
		<time>2011-09-11T11:27:08.943Z</time>
		<geoidheight>366</geoidheight>
	</trkpt>
	<trkpt lat="50.674452" lon="6.206428">
		<ele>412</ele>
		<time>2011-09-11T11:27:09.936Z</time>
		<geoidheight>366</geoidheight>
	</trkpt>
	<trkpt lat="50.674452" lon="6.206428">
		<ele>412</ele>
		<time>2011-09-11T11:27:10.938Z</time>
		<geoidheight>366</geoidheight>
	</trkpt>
	<trkpt lat="50.674452" lon="6.206428">
		<ele>412</ele>
		<time>2011-09-11T11:27:27.939Z</time>
		<geoidheight>366</geoidheight>
	</trkpt>
	<trkpt lat="50.674404" lon="6.206448">
		<ele>412</ele>
		<time>2011-09-11T11:27:28.937Z</time>
		<geoidheight>366</geoidheight>
	</trkpt>
	<trkpt lat="50.674404" lon="6.206448">
		<ele>412</ele>
		<time>2011-09-11T11:27:30.937Z</time>
		<geoidheight>366</geoidheight>
	</trkpt>
	<trkpt lat="50.674345" lon="6.206468">
		<ele>412</ele>
		<time>2011-09-11T11:27:31.938Z</time>
		<geoidheight>366</geoidheight>
	</trkpt>
	<trkpt lat="50.674345" lon="6.206468">
		<ele>412</ele>
		<time>2011-09-11T11:27:32.939Z</time>
		<geoidheight>366</geoidheight>
	</trkpt>
	<trkpt lat="50.674285" lon="6.206517">
		<ele>411</ele>
		<time>2011-09-11T11:27:33.936Z</time>
		<geoidheight>365</geoidheight>
	</trkpt>
	<trkpt lat="50.674261" lon="6.206544">
		<ele>411</ele>
		<time>2011-09-11T11:27:34.936Z</time>
		<geoidheight>365</geoidheight>
	</trkpt>
	<trkpt lat="50.674261" lon="6.206544">
		<ele>411</ele>
		<time>2011-09-11T11:27:37.937Z</time>
		<geoidheight>365</geoidheight>
	</trkpt>
	<trkpt lat="50.674225" lon="6.206596">
		<ele>411</ele>
		<time>2011-09-11T11:27:38.939Z</time>
		<geoidheight>365</geoidheight>
	</trkpt>
	<trkpt lat="50.674225" lon="6.206596">
		<ele>411</ele>
		<time>2011-09-11T11:27:45.937Z</time>
		<geoidheight>365</geoidheight>
	</trkpt>
	<trkpt lat="50.674278" lon="6.206595">
		<ele>411</ele>
		<time>2011-09-11T11:27:46.938Z</time>
		<geoidheight>365</geoidheight>
	</trkpt>
	<trkpt lat="50.674278" lon="6.206595">
		<ele>411</ele>
		<time>2011-09-11T11:27:51.937Z</time>
		<geoidheight>365</geoidheight>
	</trkpt>
	<trkpt lat="50.674291" lon="6.206583">
		<ele>411</ele>
		<time>2011-09-11T11:27:52.938Z</time>
		<geoidheight>365</geoidheight>
	</trkpt>
	<trkpt lat="50.674296" lon="6.206580">
		<ele>411</ele>
		<time>2011-09-11T11:27:53.936Z</time>
		<geoidheight>365</geoidheight>
	</trkpt>
	<trkpt lat="50.674299" lon="6.206575">
		<ele>411</ele>
		<time>2011-09-11T11:27:54.940Z</time>
		<geoidheight>365</geoidheight>
	</trkpt>
	<trkpt lat="50.674302" lon="6.206568">
		<ele>411</ele>
		<time>2011-09-11T11:27:55.936Z</time>
		<geoidheight>365</geoidheight>
	</trkpt>
	<trkpt lat="50.674305" lon="6.206560">
		<ele>411</ele>
		<time>2011-09-11T11:27:56.938Z</time>
		<geoidheight>365</geoidheight>
	</trkpt>
	<trkpt lat="50.674307" lon="6.206551">
		<ele>411</ele>
		<time>2011-09-11T11:27:57.938Z</time>
		<geoidheight>365</geoidheight>
	</trkpt>
	<trkpt lat="50.674307" lon="6.206538">
		<ele>411</ele>
		<time>2011-09-11T11:27:58.939Z</time>
		<geoidheight>365</geoidheight>
	</trkpt>
	<trkpt lat="50.674307" lon="6.206538">
		<ele>411</ele>
		<time>2011-09-11T11:28:04.946Z</time>
		<geoidheight>365</geoidheight>
	</trkpt>
	<trkpt lat="50.674284" lon="6.206504">
		<ele>411</ele>
		<time>2011-09-11T11:28:05.950Z</time>
		<geoidheight>365</geoidheight>
	</trkpt>
	<trkpt lat="50.674276" lon="6.206504">
		<ele>411</ele>
		<time>2011-09-11T11:28:06.938Z</time>
		<geoidheight>365</geoidheight>
	</trkpt>
	<trkpt lat="50.674267" lon="6.206505">
		<ele>411</ele>
		<time>2011-09-11T11:28:07.939Z</time>
		<geoidheight>365</geoidheight>
	</trkpt>
	<trkpt lat="50.674257" lon="6.206498">
		<ele>411</ele>
		<time>2011-09-11T11:28:08.938Z</time>
		<geoidheight>365</geoidheight>
	</trkpt>
	<trkpt lat="50.674248" lon="6.206487">
		<ele>411</ele>
		<time>2011-09-11T11:28:09.941Z</time>
		<geoidheight>365</geoidheight>
	</trkpt>
	<trkpt lat="50.674238" lon="6.206481">
		<ele>411</ele>
		<time>2011-09-11T11:28:10.937Z</time>
		<geoidheight>365</geoidheight>
	</trkpt>
	<trkpt lat="50.674228" lon="6.206476">
		<ele>411</ele>
		<time>2011-09-11T11:28:11.939Z</time>
		<geoidheight>365</geoidheight>
	</trkpt>
	<trkpt lat="50.674213" lon="6.206472">
		<ele>411</ele>
		<time>2011-09-11T11:28:12.938Z</time>
		<geoidheight>365</geoidheight>
	</trkpt>
	<trkpt lat="50.674197" lon="6.206465">
		<ele>411</ele>
		<time>2011-09-11T11:28:13.942Z</time>
		<geoidheight>365</geoidheight>
	</trkpt>
	<trkpt lat="50.674182" lon="6.206460">
		<ele>411</ele>
		<time>2011-09-11T11:28:14.938Z</time>
		<geoidheight>365</geoidheight>
	</trkpt>
	<trkpt lat="50.674165" lon="6.206458">
		<ele>411</ele>
		<time>2011-09-11T11:28:15.938Z</time>
		<geoidheight>365</geoidheight>
	</trkpt>
	<trkpt lat="50.674150" lon="6.206457">
		<ele>411</ele>
		<time>2011-09-11T11:28:16.940Z</time>
		<geoidheight>365</geoidheight>
	</trkpt>
	<trkpt lat="50.674136" lon="6.206456">
		<ele>411</ele>
		<time>2011-09-11T11:28:17.941Z</time>
		<geoidheight>365</geoidheight>
	</trkpt>
	<trkpt lat="50.674120" lon="6.206457">
		<ele>411</ele>
		<time>2011-09-11T11:28:18.942Z</time>
		<geoidheight>365</geoidheight>
	</trkpt>
	<trkpt lat="50.674106" lon="6.206456">
		<ele>411</ele>
		<time>2011-09-11T11:28:19.938Z</time>
		<geoidheight>365</geoidheight>
	</trkpt>
	<trkpt lat="50.674093" lon="6.206459">
		<ele>411</ele>
		<time>2011-09-11T11:28:20.949Z</time>
		<geoidheight>365</geoidheight>
	</trkpt>
	<trkpt lat="50.674081" lon="6.206462">
		<ele>411</ele>
		<time>2011-09-11T11:28:21.938Z</time>
		<geoidheight>365</geoidheight>
	</trkpt>
	<trkpt lat="50.674070" lon="6.206467">
		<ele>411</ele>
		<time>2011-09-11T11:28:22.940Z</time>
		<geoidheight>365</geoidheight>
	</trkpt>
	<trkpt lat="50.674060" lon="6.206471">
		<ele>411</ele>
		<time>2011-09-11T11:28:23.938Z</time>
		<geoidheight>365</geoidheight>
	</trkpt>
	<trkpt lat="50.674051" lon="6.206471">
		<ele>412</ele>
		<time>2011-09-11T11:28:24.938Z</time>
		<geoidheight>366</geoidheight>
	</trkpt>
	<trkpt lat="50.674044" lon="6.206471">
		<ele>412</ele>
		<time>2011-09-11T11:28:25.940Z</time>
		<geoidheight>366</geoidheight>
	</trkpt>
	<trkpt lat="50.674036" lon="6.206473">
		<ele>412</ele>
		<time>2011-09-11T11:28:26.938Z</time>
		<geoidheight>366</geoidheight>
	</trkpt>
	<trkpt lat="50.674029" lon="6.206471">
		<ele>412</ele>
		<time>2011-09-11T11:28:27.945Z</time>
		<geoidheight>366</geoidheight>
	</trkpt>
	<trkpt lat="50.674025" lon="6.206468">
		<ele>412</ele>
		<time>2011-09-11T11:28:28.938Z</time>
		<geoidheight>366</geoidheight>
	</trkpt>
	<trkpt lat="50.674018" lon="6.206468">
		<ele>412</ele>
		<time>2011-09-11T11:28:29.937Z</time>
		<geoidheight>366</geoidheight>
	</trkpt>
	<trkpt lat="50.674008" lon="6.206471">
		<ele>412</ele>
		<time>2011-09-11T11:28:30.937Z</time>
		<geoidheight>366</geoidheight>
	</trkpt>
	<trkpt lat="50.673998" lon="6.206465">
		<ele>412</ele>
		<time>2011-09-11T11:28:31.938Z</time>
		<geoidheight>366</geoidheight>
	</trkpt>
	<trkpt lat="50.673987" lon="6.206467">
		<ele>412</ele>
		<time>2011-09-11T11:28:32.938Z</time>
		<geoidheight>366</geoidheight>
	</trkpt>
	<trkpt lat="50.673976" lon="6.206466">
		<ele>412</ele>
		<time>2011-09-11T11:28:33.937Z</time>
		<geoidheight>366</geoidheight>
	</trkpt>
	<trkpt lat="50.673964" lon="6.206465">
		<ele>413</ele>
		<time>2011-09-11T11:28:34.939Z</time>
		<geoidheight>367</geoidheight>
	</trkpt>
	<trkpt lat="50.673950" lon="6.206464">
		<ele>413</ele>
		<time>2011-09-11T11:28:35.938Z</time>
		<geoidheight>367</geoidheight>
	</trkpt>
	<trkpt lat="50.673937" lon="6.206462">
		<ele>413</ele>
		<time>2011-09-11T11:28:36.937Z</time>
		<geoidheight>367</geoidheight>
	</trkpt>
	<trkpt lat="50.673924" lon="6.206464">
		<ele>413</ele>
		<time>2011-09-11T11:28:37.938Z</time>
		<geoidheight>367</geoidheight>
	</trkpt>
	<trkpt lat="50.673912" lon="6.206463">
		<ele>413</ele>
		<time>2011-09-11T11:28:38.936Z</time>
		<geoidheight>367</geoidheight>
	</trkpt>
	<trkpt lat="50.673902" lon="6.206465">
		<ele>413</ele>
		<time>2011-09-11T11:28:39.938Z</time>
		<geoidheight>367</geoidheight>
	</trkpt>
	<trkpt lat="50.673892" lon="6.206468">
		<ele>413</ele>
		<time>2011-09-11T11:28:40.938Z</time>
		<geoidheight>367</geoidheight>
	</trkpt>
	<trkpt lat="50.673881" lon="6.206470">
		<ele>413</ele>
		<time>2011-09-11T11:28:41.939Z</time>
		<geoidheight>367</geoidheight>
	</trkpt>
	<trkpt lat="50.673869" lon="6.206473">
		<ele>413</ele>
		<time>2011-09-11T11:28:42.938Z</time>
		<geoidheight>367</geoidheight>
	</trkpt>
	<trkpt lat="50.673856" lon="6.206475">
		<ele>413</ele>
		<time>2011-09-11T11:28:43.939Z</time>
		<geoidheight>367</geoidheight>
	</trkpt>
	<trkpt lat="50.673839" lon="6.206474">
		<ele>414</ele>
		<time>2011-09-11T11:28:44.939Z</time>
		<geoidheight>368</geoidheight>
	</trkpt>
	<trkpt lat="50.673823" lon="6.206473">
		<ele>414</ele>
		<time>2011-09-11T11:28:45.937Z</time>
		<geoidheight>368</geoidheight>
	</trkpt>
	<trkpt lat="50.673807" lon="6.206471">
		<ele>414</ele>
		<time>2011-09-11T11:28:46.938Z</time>
		<geoidheight>368</geoidheight>
	</trkpt>
	<trkpt lat="50.673791" lon="6.206469">
		<ele>414</ele>
		<time>2011-09-11T11:28:47.938Z</time>
		<geoidheight>368</geoidheight>
	</trkpt>
	<trkpt lat="50.673776" lon="6.206471">
		<ele>414</ele>
		<time>2011-09-11T11:28:48.937Z</time>
		<geoidheight>368</geoidheight>
	</trkpt>
	<trkpt lat="50.673766" lon="6.206474">
		<ele>414</ele>
		<time>2011-09-11T11:28:49.937Z</time>
		<geoidheight>368</geoidheight>
	</trkpt>
	<trkpt lat="50.673757" lon="6.206479">
		<ele>414</ele>
		<time>2011-09-11T11:28:50.939Z</time>
		<geoidheight>368</geoidheight>
	</trkpt>
	<trkpt lat="50.673751" lon="6.206485">
		<ele>414</ele>
		<time>2011-09-11T11:28:51.938Z</time>
		<geoidheight>368</geoidheight>
	</trkpt>
	<trkpt lat="50.673744" lon="6.206486">
		<ele>414</ele>
		<time>2011-09-11T11:28:52.936Z</time>
		<geoidheight>368</geoidheight>
	</trkpt>
	<trkpt lat="50.673736" lon="6.206487">
		<ele>414</ele>
		<time>2011-09-11T11:28:53.940Z</time>
		<geoidheight>368</geoidheight>
	</trkpt>
	<trkpt lat="50.673726" lon="6.206488">
		<ele>414</ele>
		<time>2011-09-11T11:28:54.937Z</time>
		<geoidheight>368</geoidheight>
	</trkpt>
	<trkpt lat="50.673714" lon="6.206496">
		<ele>414</ele>
		<time>2011-09-11T11:28:55.937Z</time>
		<geoidheight>368</geoidheight>
	</trkpt>
	<trkpt lat="50.673704" lon="6.206499">
		<ele>414</ele>
		<time>2011-09-11T11:28:56.939Z</time>
		<geoidheight>368</geoidheight>
	</trkpt>
	<trkpt lat="50.673695" lon="6.206507">
		<ele>415</ele>
		<time>2011-09-11T11:28:57.938Z</time>
		<geoidheight>369</geoidheight>
	</trkpt>
	<trkpt lat="50.673686" lon="6.206517">
		<ele>415</ele>
		<time>2011-09-11T11:28:58.939Z</time>
		<geoidheight>369</geoidheight>
	</trkpt>
	<trkpt lat="50.673676" lon="6.206524">
		<ele>415</ele>
		<time>2011-09-11T11:28:59.939Z</time>
		<geoidheight>369</geoidheight>
	</trkpt>
	<trkpt lat="50.673665" lon="6.206533">
		<ele>415</ele>
		<time>2011-09-11T11:29:00.938Z</time>
		<geoidheight>369</geoidheight>
	</trkpt>
	<trkpt lat="50.673653" lon="6.206544">
		<ele>415</ele>
		<time>2011-09-11T11:29:01.938Z</time>
		<geoidheight>369</geoidheight>
	</trkpt>
	<trkpt lat="50.673641" lon="6.206559">
		<ele>415</ele>
		<time>2011-09-11T11:29:02.939Z</time>
		<geoidheight>369</geoidheight>
	</trkpt>
	<trkpt lat="50.673631" lon="6.206576">
		<ele>415</ele>
		<time>2011-09-11T11:29:03.941Z</time>
		<geoidheight>369</geoidheight>
	</trkpt>
	<trkpt lat="50.673624" lon="6.206589">
		<ele>415</ele>
		<time>2011-09-11T11:29:04.937Z</time>
		<geoidheight>369</geoidheight>
	</trkpt>
	<trkpt lat="50.673616" lon="6.206599">
		<ele>415</ele>
		<time>2011-09-11T11:29:05.942Z</time>
		<geoidheight>369</geoidheight>
	</trkpt>
	<trkpt lat="50.673607" lon="6.206609">
		<ele>415</ele>
		<time>2011-09-11T11:29:06.942Z</time>
		<geoidheight>369</geoidheight>
	</trkpt>
	<trkpt lat="50.673599" lon="6.206617">
		<ele>415</ele>
		<time>2011-09-11T11:29:07.938Z</time>
		<geoidheight>369</geoidheight>
	</trkpt>
	<trkpt lat="50.673589" lon="6.206619">
		<ele>415</ele>
		<time>2011-09-11T11:29:08.944Z</time>
		<geoidheight>369</geoidheight>
	</trkpt>
	<trkpt lat="50.673579" lon="6.206621">
		<ele>415</ele>
		<time>2011-09-11T11:29:09.945Z</time>
		<geoidheight>369</geoidheight>
	</trkpt>
	<trkpt lat="50.673568" lon="6.206623">
		<ele>415</ele>
		<time>2011-09-11T11:29:10.945Z</time>
		<geoidheight>369</geoidheight>
	</trkpt>
	<trkpt lat="50.673557" lon="6.206627">
		<ele>415</ele>
		<time>2011-09-11T11:29:11.947Z</time>
		<geoidheight>369</geoidheight>
	</trkpt>
	<trkpt lat="50.673544" lon="6.206633">
		<ele>415</ele>
		<time>2011-09-11T11:29:12.938Z</time>
		<geoidheight>369</geoidheight>
	</trkpt>
	<trkpt lat="50.673530" lon="6.206643">
		<ele>415</ele>
		<time>2011-09-11T11:29:13.938Z</time>
		<geoidheight>369</geoidheight>
	</trkpt>
	<trkpt lat="50.673516" lon="6.206654">
		<ele>415</ele>
		<time>2011-09-11T11:29:14.938Z</time>
		<geoidheight>369</geoidheight>
	</trkpt>
	<trkpt lat="50.673505" lon="6.206669">
		<ele>415</ele>
		<time>2011-09-11T11:29:15.939Z</time>
		<geoidheight>369</geoidheight>
	</trkpt>
	<trkpt lat="50.673493" lon="6.206680">
		<ele>415</ele>
		<time>2011-09-11T11:29:16.946Z</time>
		<geoidheight>369</geoidheight>
	</trkpt>
	<trkpt lat="50.673481" lon="6.206688">
		<ele>415</ele>
		<time>2011-09-11T11:29:17.939Z</time>
		<geoidheight>369</geoidheight>
	</trkpt>
	<trkpt lat="50.673471" lon="6.206700">
		<ele>416</ele>
		<time>2011-09-11T11:29:18.939Z</time>
		<geoidheight>370</geoidheight>
	</trkpt>
	<trkpt lat="50.673461" lon="6.206714">
		<ele>416</ele>
		<time>2011-09-11T11:29:19.939Z</time>
		<geoidheight>370</geoidheight>
	</trkpt>
	<trkpt lat="50.673452" lon="6.206731">
		<ele>416</ele>
		<time>2011-09-11T11:29:20.938Z</time>
		<geoidheight>370</geoidheight>
	</trkpt>
	<trkpt lat="50.673444" lon="6.206752">
		<ele>416</ele>
		<time>2011-09-11T11:29:21.939Z</time>
		<geoidheight>370</geoidheight>
	</trkpt>
	<trkpt lat="50.673435" lon="6.206770">
		<ele>416</ele>
		<time>2011-09-11T11:29:22.938Z</time>
		<geoidheight>370</geoidheight>
	</trkpt>
	<trkpt lat="50.673426" lon="6.206791">
		<ele>416</ele>
		<time>2011-09-11T11:29:23.937Z</time>
		<geoidheight>370</geoidheight>
	</trkpt>
	<trkpt lat="50.673418" lon="6.206812">
		<ele>416</ele>
		<time>2011-09-11T11:29:24.940Z</time>
		<geoidheight>370</geoidheight>
	</trkpt>
	<trkpt lat="50.673411" lon="6.206830">
		<ele>416</ele>
		<time>2011-09-11T11:29:25.937Z</time>
		<geoidheight>370</geoidheight>
	</trkpt>
	<trkpt lat="50.673403" lon="6.206849">
		<ele>416</ele>
		<time>2011-09-11T11:29:26.937Z</time>
		<geoidheight>370</geoidheight>
	</trkpt>
	<trkpt lat="50.673396" lon="6.206869">
		<ele>416</ele>
		<time>2011-09-11T11:29:27.940Z</time>
		<geoidheight>370</geoidheight>
	</trkpt>
	<trkpt lat="50.673389" lon="6.206890">
		<ele>416</ele>
		<time>2011-09-11T11:29:28.939Z</time>
		<geoidheight>370</geoidheight>
	</trkpt>
	<trkpt lat="50.673384" lon="6.206914">
		<ele>417</ele>
		<time>2011-09-11T11:29:29.938Z</time>
		<geoidheight>371</geoidheight>
	</trkpt>
	<trkpt lat="50.673380" lon="6.206937">
		<ele>417</ele>
		<time>2011-09-11T11:29:30.939Z</time>
		<geoidheight>371</geoidheight>
	</trkpt>
	<trkpt lat="50.673373" lon="6.206954">
		<ele>417</ele>
		<time>2011-09-11T11:29:31.939Z</time>
		<geoidheight>371</geoidheight>
	</trkpt>
	<trkpt lat="50.673366" lon="6.206968">
		<ele>417</ele>
		<time>2011-09-11T11:29:32.939Z</time>
		<geoidheight>371</geoidheight>
	</trkpt>
	<trkpt lat="50.673359" lon="6.206983">
		<ele>417</ele>
		<time>2011-09-11T11:29:33.937Z</time>
		<geoidheight>371</geoidheight>
	</trkpt>
	<trkpt lat="50.673353" lon="6.207001">
		<ele>417</ele>
		<time>2011-09-11T11:29:34.938Z</time>
		<geoidheight>371</geoidheight>
	</trkpt>
	<trkpt lat="50.673346" lon="6.207019">
		<ele>417</ele>
		<time>2011-09-11T11:29:35.938Z</time>
		<geoidheight>371</geoidheight>
	</trkpt>
	<trkpt lat="50.673339" lon="6.207034">
		<ele>417</ele>
		<time>2011-09-11T11:29:36.936Z</time>
		<geoidheight>371</geoidheight>
	</trkpt>
	<trkpt lat="50.673334" lon="6.207051">
		<ele>417</ele>
		<time>2011-09-11T11:29:37.939Z</time>
		<geoidheight>371</geoidheight>
	</trkpt>
	<trkpt lat="50.673330" lon="6.207070">
		<ele>417</ele>
		<time>2011-09-11T11:29:38.937Z</time>
		<geoidheight>371</geoidheight>
	</trkpt>
	<trkpt lat="50.673321" lon="6.207086">
		<ele>418</ele>
		<time>2011-09-11T11:29:39.938Z</time>
		<geoidheight>372</geoidheight>
	</trkpt>
	<trkpt lat="50.673312" lon="6.207101">
		<ele>418</ele>
		<time>2011-09-11T11:29:40.939Z</time>
		<geoidheight>372</geoidheight>
	</trkpt>
	<trkpt lat="50.673304" lon="6.207120">
		<ele>418</ele>
		<time>2011-09-11T11:29:41.939Z</time>
		<geoidheight>372</geoidheight>
	</trkpt>
	<trkpt lat="50.673296" lon="6.207139">
		<ele>418</ele>
		<time>2011-09-11T11:29:42.939Z</time>
		<geoidheight>372</geoidheight>
	</trkpt>
	<trkpt lat="50.673291" lon="6.207157">
		<ele>418</ele>
		<time>2011-09-11T11:29:43.939Z</time>
		<geoidheight>372</geoidheight>
	</trkpt>
	<trkpt lat="50.673283" lon="6.207170">
		<ele>418</ele>
		<time>2011-09-11T11:29:44.937Z</time>
		<geoidheight>372</geoidheight>
	</trkpt>
	<trkpt lat="50.673274" lon="6.207177">
		<ele>418</ele>
		<time>2011-09-11T11:29:45.937Z</time>
		<geoidheight>372</geoidheight>
	</trkpt>
	<trkpt lat="50.673266" lon="6.207185">
		<ele>418</ele>
		<time>2011-09-11T11:29:46.940Z</time>
		<geoidheight>372</geoidheight>
	</trkpt>
	<trkpt lat="50.673259" lon="6.207191">
		<ele>418</ele>
		<time>2011-09-11T11:29:47.938Z</time>
		<geoidheight>372</geoidheight>
	</trkpt>
	<trkpt lat="50.673253" lon="6.207201">
		<ele>418</ele>
		<time>2011-09-11T11:29:48.940Z</time>
		<geoidheight>372</geoidheight>
	</trkpt>
	<trkpt lat="50.673250" lon="6.207212">
		<ele>419</ele>
		<time>2011-09-11T11:29:49.948Z</time>
		<geoidheight>373</geoidheight>
	</trkpt>
	<trkpt lat="50.673250" lon="6.207233">
		<ele>419</ele>
		<time>2011-09-11T11:29:50.948Z</time>
		<geoidheight>373</geoidheight>
	</trkpt>
	<trkpt lat="50.673248" lon="6.207253">
		<ele>419</ele>
		<time>2011-09-11T11:29:51.948Z</time>
		<geoidheight>373</geoidheight>
	</trkpt>
	<trkpt lat="50.673249" lon="6.207278">
		<ele>419</ele>
		<time>2011-09-11T11:29:52.947Z</time>
		<geoidheight>373</geoidheight>
	</trkpt>
	<trkpt lat="50.673251" lon="6.207302">
		<ele>419</ele>
		<time>2011-09-11T11:29:53.943Z</time>
		<geoidheight>373</geoidheight>
	</trkpt>
	<trkpt lat="50.673252" lon="6.207328">
		<ele>419</ele>
		<time>2011-09-11T11:29:54.955Z</time>
		<geoidheight>373</geoidheight>
	</trkpt>
	<trkpt lat="50.673254" lon="6.207356">
		<ele>420</ele>
		<time>2011-09-11T11:29:55.940Z</time>
		<geoidheight>374</geoidheight>
	</trkpt>
	<trkpt lat="50.673255" lon="6.207382">
		<ele>420</ele>
		<time>2011-09-11T11:29:56.947Z</time>
		<geoidheight>374</geoidheight>
	</trkpt>
	<trkpt lat="50.673252" lon="6.207401">
		<ele>420</ele>
		<time>2011-09-11T11:29:57.938Z</time>
		<geoidheight>374</geoidheight>
	</trkpt>
	<trkpt lat="50.673248" lon="6.207421">
		<ele>420</ele>
		<time>2011-09-11T11:29:58.941Z</time>
		<geoidheight>374</geoidheight>
	</trkpt>
	<trkpt lat="50.673245" lon="6.207438">
		<ele>420</ele>
		<time>2011-09-11T11:29:59.939Z</time>
		<geoidheight>374</geoidheight>
	</trkpt>
	<trkpt lat="50.673241" lon="6.207457">
		<ele>420</ele>
		<time>2011-09-11T11:30:00.938Z</time>
		<geoidheight>374</geoidheight>
	</trkpt>
	<trkpt lat="50.673237" lon="6.207476">
		<ele>420</ele>
		<time>2011-09-11T11:30:01.938Z</time>
		<geoidheight>374</geoidheight>
	</trkpt>
	<trkpt lat="50.673232" lon="6.207496">
		<ele>421</ele>
		<time>2011-09-11T11:30:02.940Z</time>
		<geoidheight>375</geoidheight>
	</trkpt>
	<trkpt lat="50.673227" lon="6.207513">
		<ele>421</ele>
		<time>2011-09-11T11:30:03.938Z</time>
		<geoidheight>375</geoidheight>
	</trkpt>
	<trkpt lat="50.673222" lon="6.207531">
		<ele>421</ele>
		<time>2011-09-11T11:30:04.939Z</time>
		<geoidheight>375</geoidheight>
	</trkpt>
	<trkpt lat="50.673217" lon="6.207544">
		<ele>421</ele>
		<time>2011-09-11T11:30:05.939Z</time>
		<geoidheight>375</geoidheight>
	</trkpt>
	<trkpt lat="50.673208" lon="6.207551">
		<ele>421</ele>
		<time>2011-09-11T11:30:06.937Z</time>
		<geoidheight>375</geoidheight>
	</trkpt>
	<trkpt lat="50.673201" lon="6.207561">
		<ele>421</ele>
		<time>2011-09-11T11:30:07.939Z</time>
		<geoidheight>375</geoidheight>
	</trkpt>
	<trkpt lat="50.673192" lon="6.207570">
		<ele>421</ele>
		<time>2011-09-11T11:30:08.941Z</time>
		<geoidheight>375</geoidheight>
	</trkpt>
	<trkpt lat="50.673185" lon="6.207580">
		<ele>422</ele>
		<time>2011-09-11T11:30:09.938Z</time>
		<geoidheight>376</geoidheight>
	</trkpt>
	<trkpt lat="50.673176" lon="6.207586">
		<ele>422</ele>
		<time>2011-09-11T11:30:10.938Z</time>
		<geoidheight>376</geoidheight>
	</trkpt>
	<trkpt lat="50.673170" lon="6.207594">
		<ele>422</ele>
		<time>2011-09-11T11:30:11.939Z</time>
		<geoidheight>376</geoidheight>
	</trkpt>
	<trkpt lat="50.673161" lon="6.207596">
		<ele>422</ele>
		<time>2011-09-11T11:30:12.937Z</time>
		<geoidheight>376</geoidheight>
	</trkpt>
	<trkpt lat="50.673154" lon="6.207603">
		<ele>422</ele>
		<time>2011-09-11T11:30:13.939Z</time>
		<geoidheight>376</geoidheight>
	</trkpt>
	<trkpt lat="50.673147" lon="6.207616">
		<ele>422</ele>
		<time>2011-09-11T11:30:14.940Z</time>
		<geoidheight>376</geoidheight>
	</trkpt>
	<trkpt lat="50.673140" lon="6.207623">
		<ele>422</ele>
		<time>2011-09-11T11:30:15.939Z</time>
		<geoidheight>376</geoidheight>
	</trkpt>
	<trkpt lat="50.673133" lon="6.207632">
		<ele>422</ele>
		<time>2011-09-11T11:30:16.938Z</time>
		<geoidheight>376</geoidheight>
	</trkpt>
	<trkpt lat="50.673125" lon="6.207643">
		<ele>422</ele>
		<time>2011-09-11T11:30:17.940Z</time>
		<geoidheight>376</geoidheight>
	</trkpt>
	<trkpt lat="50.673119" lon="6.207653">
		<ele>423</ele>
		<time>2011-09-11T11:30:18.937Z</time>
		<geoidheight>377</geoidheight>
	</trkpt>
	<trkpt lat="50.673112" lon="6.207657">
		<ele>423</ele>
		<time>2011-09-11T11:30:19.938Z</time>
		<geoidheight>377</geoidheight>
	</trkpt>
	<trkpt lat="50.673104" lon="6.207652">
		<ele>423</ele>
		<time>2011-09-11T11:30:20.939Z</time>
		<geoidheight>377</geoidheight>
	</trkpt>
	<trkpt lat="50.673098" lon="6.207656">
		<ele>423</ele>
		<time>2011-09-11T11:30:21.938Z</time>
		<geoidheight>377</geoidheight>
	</trkpt>
	<trkpt lat="50.673090" lon="6.207659">
		<ele>423</ele>
		<time>2011-09-11T11:30:22.937Z</time>
		<geoidheight>377</geoidheight>
	</trkpt>
	<trkpt lat="50.673084" lon="6.207667">
		<ele>423</ele>
		<time>2011-09-11T11:30:23.940Z</time>
		<geoidheight>377</geoidheight>
	</trkpt>
	<trkpt lat="50.673075" lon="6.207676">
		<ele>423</ele>
		<time>2011-09-11T11:30:24.938Z</time>
		<geoidheight>377</geoidheight>
	</trkpt>
	<trkpt lat="50.673066" lon="6.207691">
		<ele>423</ele>
		<time>2011-09-11T11:30:25.939Z</time>
		<geoidheight>377</geoidheight>
	</trkpt>
	<trkpt lat="50.673057" lon="6.207706">
		<ele>424</ele>
		<time>2011-09-11T11:30:26.938Z</time>
		<geoidheight>378</geoidheight>
	</trkpt>
	<trkpt lat="50.673048" lon="6.207720">
		<ele>424</ele>
		<time>2011-09-11T11:30:27.939Z</time>
		<geoidheight>378</geoidheight>
	</trkpt>
	<trkpt lat="50.673037" lon="6.207730">
		<ele>424</ele>
		<time>2011-09-11T11:30:28.939Z</time>
		<geoidheight>378</geoidheight>
	</trkpt>
	<trkpt lat="50.673026" lon="6.207739">
		<ele>424</ele>
		<time>2011-09-11T11:30:29.939Z</time>
		<geoidheight>378</geoidheight>
	</trkpt>
	<trkpt lat="50.673013" lon="6.207749">
		<ele>424</ele>
		<time>2011-09-11T11:30:30.938Z</time>
		<geoidheight>378</geoidheight>
	</trkpt>
	<trkpt lat="50.672999" lon="6.207760">
		<ele>424</ele>
		<time>2011-09-11T11:30:31.939Z</time>
		<geoidheight>378</geoidheight>
	</trkpt>
	<trkpt lat="50.672986" lon="6.207769">
		<ele>424</ele>
		<time>2011-09-11T11:30:32.938Z</time>
		<geoidheight>378</geoidheight>
	</trkpt>
	<trkpt lat="50.672975" lon="6.207782">
		<ele>424</ele>
		<time>2011-09-11T11:30:33.940Z</time>
		<geoidheight>378</geoidheight>
	</trkpt>
	<trkpt lat="50.672968" lon="6.207795">
		<ele>424</ele>
		<time>2011-09-11T11:30:34.938Z</time>
		<geoidheight>378</geoidheight>
	</trkpt>
	<trkpt lat="50.672964" lon="6.207817">
		<ele>424</ele>
		<time>2011-09-11T11:30:35.938Z</time>
		<geoidheight>378</geoidheight>
	</trkpt>
	<trkpt lat="50.672962" lon="6.207841">
		<ele>424</ele>
		<time>2011-09-11T11:30:36.938Z</time>
		<geoidheight>378</geoidheight>
	</trkpt>
	<trkpt lat="50.672961" lon="6.207869">
		<ele>424</ele>
		<time>2011-09-11T11:30:37.946Z</time>
		<geoidheight>378</geoidheight>
	</trkpt>
	<trkpt lat="50.672961" lon="6.207869">
		<ele>424</ele>
		<time>2011-09-11T11:30:38.945Z</time>
		<geoidheight>378</geoidheight>
	</trkpt>
	<trkpt lat="50.672961" lon="6.207869">
		<ele>424</ele>
		<time>2011-09-11T11:30:39.947Z</time>
		<geoidheight>378</geoidheight>
	</trkpt>
	<trkpt lat="50.672961" lon="6.207869">
		<ele>424</ele>
		<time>2011-09-11T11:30:40.946Z</time>
		<geoidheight>378</geoidheight>
	</trkpt>
	<trkpt lat="50.672982" lon="6.207965">
		<ele>424</ele>
		<time>2011-09-11T11:30:41.950Z</time>
		<geoidheight>378</geoidheight>
	</trkpt>
	<trkpt lat="50.672982" lon="6.207965">
		<ele>424</ele>
		<time>2011-09-11T11:30:42.947Z</time>
		<geoidheight>378</geoidheight>
	</trkpt>
	<trkpt lat="50.673000" lon="6.208071">
		<ele>424</ele>
		<time>2011-09-11T11:30:43.947Z</time>
		<geoidheight>378</geoidheight>
	</trkpt>
	<trkpt lat="50.673000" lon="6.208071">
		<ele>424</ele>
		<time>2011-09-11T11:30:44.955Z</time>
		<geoidheight>378</geoidheight>
	</trkpt>
	<trkpt lat="50.673014" lon="6.208141">
		<ele>424</ele>
		<time>2011-09-11T11:30:45.949Z</time>
		<geoidheight>378</geoidheight>
	</trkpt>
	<trkpt lat="50.673014" lon="6.208141">
		<ele>424</ele>
		<time>2011-09-11T11:30:46.946Z</time>
		<geoidheight>378</geoidheight>
	</trkpt>
	<trkpt lat="50.673014" lon="6.208141">
		<ele>424</ele>
		<time>2011-09-11T11:30:47.944Z</time>
		<geoidheight>378</geoidheight>
	</trkpt>
	<trkpt lat="50.673014" lon="6.208141">
		<ele>424</ele>
		<time>2011-09-11T11:30:48.949Z</time>
		<geoidheight>378</geoidheight>
	</trkpt>
	<trkpt lat="50.673014" lon="6.208141">
		<ele>424</ele>
		<time>2011-09-11T11:30:49.938Z</time>
		<geoidheight>378</geoidheight>
	</trkpt>
	<trkpt lat="50.673014" lon="6.208141">
		<ele>424</ele>
		<time>2011-09-11T11:30:50.950Z</time>
		<geoidheight>378</geoidheight>
	</trkpt>
	<trkpt lat="50.673014" lon="6.208141">
		<ele>424</ele>
		<time>2011-09-11T11:30:51.951Z</time>
		<geoidheight>378</geoidheight>
	</trkpt>
	<trkpt lat="50.673039" lon="6.208215">
		<ele>424</ele>
		<time>2011-09-11T11:30:52.948Z</time>
		<geoidheight>378</geoidheight>
	</trkpt>
	<trkpt lat="50.673039" lon="6.208215">
		<ele>422</ele>
		<time>2011-09-11T11:31:07.939Z</time>
		<geoidheight>376</geoidheight>
	</trkpt>
	<trkpt lat="50.673004" lon="6.208169">
		<ele>422</ele>
		<time>2011-09-11T11:31:08.938Z</time>
		<geoidheight>376</geoidheight>
	</trkpt>
	<trkpt lat="50.672995" lon="6.208170">
		<ele>422</ele>
		<time>2011-09-11T11:31:09.942Z</time>
		<geoidheight>376</geoidheight>
	</trkpt>
	<trkpt lat="50.672979" lon="6.208170">
		<ele>421</ele>
		<time>2011-09-11T11:31:10.938Z</time>
		<geoidheight>375</geoidheight>
	</trkpt>
	<trkpt lat="50.672962" lon="6.208171">
		<ele>421</ele>
		<time>2011-09-11T11:31:11.942Z</time>
		<geoidheight>375</geoidheight>
	</trkpt>
	<trkpt lat="50.672948" lon="6.208181">
		<ele>421</ele>
		<time>2011-09-11T11:31:12.939Z</time>
		<geoidheight>375</geoidheight>
	</trkpt>
	<trkpt lat="50.672934" lon="6.208195">
		<ele>420</ele>
		<time>2011-09-11T11:31:13.950Z</time>
		<geoidheight>374</geoidheight>
	</trkpt>
	<trkpt lat="50.672923" lon="6.208213">
		<ele>420</ele>
		<time>2011-09-11T11:31:14.939Z</time>
		<geoidheight>374</geoidheight>
	</trkpt>
	<trkpt lat="50.672912" lon="6.208231">
		<ele>420</ele>
		<time>2011-09-11T11:31:15.941Z</time>
		<geoidheight>374</geoidheight>
	</trkpt>
	<trkpt lat="50.672903" lon="6.208249">
		<ele>420</ele>
		<time>2011-09-11T11:31:16.939Z</time>
		<geoidheight>374</geoidheight>
	</trkpt>
	<trkpt lat="50.672894" lon="6.208266">
		<ele>420</ele>
		<time>2011-09-11T11:31:17.940Z</time>
		<geoidheight>374</geoidheight>
	</trkpt>
	<trkpt lat="50.672887" lon="6.208283">
		<ele>419</ele>
		<time>2011-09-11T11:31:18.941Z</time>
		<geoidheight>373</geoidheight>
	</trkpt>
	<trkpt lat="50.672880" lon="6.208299">
		<ele>419</ele>
		<time>2011-09-11T11:31:19.939Z</time>
		<geoidheight>373</geoidheight>
	</trkpt>
	<trkpt lat="50.672875" lon="6.208316">
		<ele>419</ele>
		<time>2011-09-11T11:31:20.939Z</time>
		<geoidheight>373</geoidheight>
	</trkpt>
	<trkpt lat="50.672869" lon="6.208333">
		<ele>419</ele>
		<time>2011-09-11T11:31:21.942Z</time>
		<geoidheight>373</geoidheight>
	</trkpt>
	<trkpt lat="50.672864" lon="6.208351">
		<ele>419</ele>
		<time>2011-09-11T11:31:22.939Z</time>
		<geoidheight>373</geoidheight>
	</trkpt>
	<trkpt lat="50.672857" lon="6.208366">
		<ele>419</ele>
		<time>2011-09-11T11:31:23.939Z</time>
		<geoidheight>373</geoidheight>
	</trkpt>
	<trkpt lat="50.672851" lon="6.208383">
		<ele>419</ele>
		<time>2011-09-11T11:31:24.940Z</time>
		<geoidheight>373</geoidheight>
	</trkpt>
	<trkpt lat="50.672843" lon="6.208401">
		<ele>419</ele>
		<time>2011-09-11T11:31:25.940Z</time>
		<geoidheight>373</geoidheight>
	</trkpt>
	<trkpt lat="50.672836" lon="6.208419">
		<ele>418</ele>
		<time>2011-09-11T11:31:26.939Z</time>
		<geoidheight>372</geoidheight>
	</trkpt>
	<trkpt lat="50.672829" lon="6.208439">
		<ele>418</ele>
		<time>2011-09-11T11:31:27.941Z</time>
		<geoidheight>372</geoidheight>
	</trkpt>
	<trkpt lat="50.672823" lon="6.208459">
		<ele>418</ele>
		<time>2011-09-11T11:31:28.950Z</time>
		<geoidheight>372</geoidheight>
	</trkpt>
	<trkpt lat="50.672816" lon="6.208478">
		<ele>418</ele>
		<time>2011-09-11T11:31:29.939Z</time>
		<geoidheight>372</geoidheight>
	</trkpt>
	<trkpt lat="50.672810" lon="6.208499">
		<ele>418</ele>
		<time>2011-09-11T11:31:30.941Z</time>
		<geoidheight>372</geoidheight>
	</trkpt>
	<trkpt lat="50.672804" lon="6.208517">
		<ele>418</ele>
		<time>2011-09-11T11:31:31.940Z</time>
		<geoidheight>372</geoidheight>
	</trkpt>
	<trkpt lat="50.672797" lon="6.208533">
		<ele>418</ele>
		<time>2011-09-11T11:31:32.938Z</time>
		<geoidheight>372</geoidheight>
	</trkpt>
	<trkpt lat="50.672790" lon="6.208551">
		<ele>418</ele>
		<time>2011-09-11T11:31:33.941Z</time>
		<geoidheight>372</geoidheight>
	</trkpt>
	<trkpt lat="50.672782" lon="6.208568">
		<ele>418</ele>
		<time>2011-09-11T11:31:34.940Z</time>
		<geoidheight>372</geoidheight>
	</trkpt>
	<trkpt lat="50.672773" lon="6.208586">
		<ele>418</ele>
		<time>2011-09-11T11:31:35.952Z</time>
		<geoidheight>372</geoidheight>
	</trkpt>
	<trkpt lat="50.672767" lon="6.208606">
		<ele>418</ele>
		<time>2011-09-11T11:31:36.943Z</time>
		<geoidheight>372</geoidheight>
	</trkpt>
	<trkpt lat="50.672760" lon="6.208620">
		<ele>418</ele>
		<time>2011-09-11T11:31:37.939Z</time>
		<geoidheight>372</geoidheight>
	</trkpt>
	<trkpt lat="50.672754" lon="6.208635">
		<ele>418</ele>
		<time>2011-09-11T11:31:38.941Z</time>
		<geoidheight>372</geoidheight>
	</trkpt>
	<trkpt lat="50.672747" lon="6.208647">
		<ele>418</ele>
		<time>2011-09-11T11:31:39.972Z</time>
		<geoidheight>372</geoidheight>
	</trkpt>
	<trkpt lat="50.672740" lon="6.208658">
		<ele>418</ele>
		<time>2011-09-11T11:31:40.978Z</time>
		<geoidheight>372</geoidheight>
	</trkpt>
	<trkpt lat="50.672735" lon="6.208668">
		<ele>418</ele>
		<time>2011-09-11T11:31:41.975Z</time>
		<geoidheight>372</geoidheight>
	</trkpt>
	<trkpt lat="50.672730" lon="6.208683">
		<ele>418</ele>
		<time>2011-09-11T11:31:42.975Z</time>
		<geoidheight>372</geoidheight>
	</trkpt>
	<trkpt lat="50.672725" lon="6.208698">
		<ele>418</ele>
		<time>2011-09-11T11:31:43.973Z</time>
		<geoidheight>372</geoidheight>
	</trkpt>
	<trkpt lat="50.672719" lon="6.208712">
		<ele>418</ele>
		<time>2011-09-11T11:31:44.975Z</time>
		<geoidheight>372</geoidheight>
	</trkpt>
	<trkpt lat="50.672712" lon="6.208723">
		<ele>418</ele>
		<time>2011-09-11T11:31:45.986Z</time>
		<geoidheight>372</geoidheight>
	</trkpt>
	<trkpt lat="50.672706" lon="6.208734">
		<ele>419</ele>
		<time>2011-09-11T11:31:46.990Z</time>
		<geoidheight>373</geoidheight>
	</trkpt>
	<trkpt lat="50.672699" lon="6.208749">
		<ele>419</ele>
		<time>2011-09-11T11:31:47.980Z</time>
		<geoidheight>373</geoidheight>
	</trkpt>
	<trkpt lat="50.672693" lon="6.208759">
		<ele>419</ele>
		<time>2011-09-11T11:31:48.994Z</time>
		<geoidheight>373</geoidheight>
	</trkpt>
	<trkpt lat="50.672687" lon="6.208774">
		<ele>419</ele>
		<time>2011-09-11T11:31:49.985Z</time>
		<geoidheight>373</geoidheight>
	</trkpt>
	<trkpt lat="50.672680" lon="6.208785">
		<ele>419</ele>
		<time>2011-09-11T11:31:50.984Z</time>
		<geoidheight>373</geoidheight>
	</trkpt>
	<trkpt lat="50.672672" lon="6.208797">
		<ele>419</ele>
		<time>2011-09-11T11:31:51.987Z</time>
		<geoidheight>373</geoidheight>
	</trkpt>
	<trkpt lat="50.672664" lon="6.208806">
		<ele>419</ele>
		<time>2011-09-11T11:31:52.992Z</time>
		<geoidheight>373</geoidheight>
	</trkpt>
	<trkpt lat="50.672655" lon="6.208821">
		<ele>419</ele>
		<time>2011-09-11T11:31:53.994Z</time>
		<geoidheight>373</geoidheight>
	</trkpt>
	<trkpt lat="50.672647" lon="6.208838">
		<ele>420</ele>
		<time>2011-09-11T11:31:54.995Z</time>
		<geoidheight>374</geoidheight>
	</trkpt>
	<trkpt lat="50.672640" lon="6.208859">
		<ele>420</ele>
		<time>2011-09-11T11:31:55.996Z</time>
		<geoidheight>374</geoidheight>
	</trkpt>
	<trkpt lat="50.672634" lon="6.208881">
		<ele>420</ele>
		<time>2011-09-11T11:31:56.996Z</time>
		<geoidheight>374</geoidheight>
	</trkpt>
	<trkpt lat="50.672627" lon="6.208905">
		<ele>420</ele>
		<time>2011-09-11T11:31:57.947Z</time>
		<geoidheight>374</geoidheight>
	</trkpt>
	<trkpt lat="50.672617" lon="6.208924">
		<ele>420</ele>
		<time>2011-09-11T11:31:58.943Z</time>
		<geoidheight>374</geoidheight>
	</trkpt>
	<trkpt lat="50.672608" lon="6.208946">
		<ele>421</ele>
		<time>2011-09-11T11:31:59.941Z</time>
		<geoidheight>375</geoidheight>
	</trkpt>
	<trkpt lat="50.672599" lon="6.208963">
		<ele>421</ele>
		<time>2011-09-11T11:32:00.939Z</time>
		<geoidheight>375</geoidheight>
	</trkpt>
	<trkpt lat="50.672591" lon="6.208979">
		<ele>421</ele>
		<time>2011-09-11T11:32:01.942Z</time>
		<geoidheight>375</geoidheight>
	</trkpt>
	<trkpt lat="50.672581" lon="6.208992">
		<ele>421</ele>
		<time>2011-09-11T11:32:02.945Z</time>
		<geoidheight>375</geoidheight>
	</trkpt>
	<trkpt lat="50.672572" lon="6.209007">
		<ele>421</ele>
		<time>2011-09-11T11:32:03.950Z</time>
		<geoidheight>375</geoidheight>
	</trkpt>
	<trkpt lat="50.672566" lon="6.209028">
		<ele>421</ele>
		<time>2011-09-11T11:32:04.947Z</time>
		<geoidheight>375</geoidheight>
	</trkpt>
	<trkpt lat="50.672563" lon="6.209052">
		<ele>422</ele>
		<time>2011-09-11T11:32:05.940Z</time>
		<geoidheight>376</geoidheight>
	</trkpt>
	<trkpt lat="50.672557" lon="6.209074">
		<ele>422</ele>
		<time>2011-09-11T11:32:06.940Z</time>
		<geoidheight>376</geoidheight>
	</trkpt>
	<trkpt lat="50.672549" lon="6.209093">
		<ele>422</ele>
		<time>2011-09-11T11:32:07.950Z</time>
		<geoidheight>376</geoidheight>
	</trkpt>
	<trkpt lat="50.672543" lon="6.209115">
		<ele>422</ele>
		<time>2011-09-11T11:32:08.946Z</time>
		<geoidheight>376</geoidheight>
	</trkpt>
	<trkpt lat="50.672536" lon="6.209136">
		<ele>422</ele>
		<time>2011-09-11T11:32:09.944Z</time>
		<geoidheight>376</geoidheight>
	</trkpt>
	<trkpt lat="50.672527" lon="6.209153">
		<ele>423</ele>
		<time>2011-09-11T11:32:10.946Z</time>
		<geoidheight>377</geoidheight>
	</trkpt>
	<trkpt lat="50.672521" lon="6.209175">
		<ele>423</ele>
		<time>2011-09-11T11:32:11.940Z</time>
		<geoidheight>377</geoidheight>
	</trkpt>
	<trkpt lat="50.672515" lon="6.209195">
		<ele>423</ele>
		<time>2011-09-11T11:32:12.939Z</time>
		<geoidheight>377</geoidheight>
	</trkpt>
	<trkpt lat="50.672510" lon="6.209213">
		<ele>423</ele>
		<time>2011-09-11T11:32:13.948Z</time>
		<geoidheight>377</geoidheight>
	</trkpt>
	<trkpt lat="50.672504" lon="6.209231">
		<ele>423</ele>
		<time>2011-09-11T11:32:14.941Z</time>
		<geoidheight>377</geoidheight>
	</trkpt>
	<trkpt lat="50.672497" lon="6.209245">
		<ele>423</ele>
		<time>2011-09-11T11:32:15.940Z</time>
		<geoidheight>377</geoidheight>
	</trkpt>
	<trkpt lat="50.672491" lon="6.209265">
		<ele>424</ele>
		<time>2011-09-11T11:32:16.939Z</time>
		<geoidheight>378</geoidheight>
	</trkpt>
	<trkpt lat="50.672487" lon="6.209288">
		<ele>424</ele>
		<time>2011-09-11T11:32:17.941Z</time>
		<geoidheight>378</geoidheight>
	</trkpt>
	<trkpt lat="50.672480" lon="6.209307">
		<ele>424</ele>
		<time>2011-09-11T11:32:18.939Z</time>
		<geoidheight>378</geoidheight>
	</trkpt>
	<trkpt lat="50.672473" lon="6.209326">
		<ele>424</ele>
		<time>2011-09-11T11:32:19.940Z</time>
		<geoidheight>378</geoidheight>
	</trkpt>
	<trkpt lat="50.672467" lon="6.209345">
		<ele>424</ele>
		<time>2011-09-11T11:32:20.939Z</time>
		<geoidheight>378</geoidheight>
	</trkpt>
	<trkpt lat="50.672459" lon="6.209358">
		<ele>425</ele>
		<time>2011-09-11T11:32:21.939Z</time>
		<geoidheight>379</geoidheight>
	</trkpt>
	<trkpt lat="50.672451" lon="6.209372">
		<ele>425</ele>
		<time>2011-09-11T11:32:22.940Z</time>
		<geoidheight>379</geoidheight>
	</trkpt>
	<trkpt lat="50.672441" lon="6.209383">
		<ele>425</ele>
		<time>2011-09-11T11:32:23.941Z</time>
		<geoidheight>379</geoidheight>
	</trkpt>
	<trkpt lat="50.672431" lon="6.209393">
		<ele>425</ele>
		<time>2011-09-11T11:32:24.940Z</time>
		<geoidheight>379</geoidheight>
	</trkpt>
	<trkpt lat="50.672422" lon="6.209407">
		<ele>425</ele>
		<time>2011-09-11T11:32:25.940Z</time>
		<geoidheight>379</geoidheight>
	</trkpt>
	<trkpt lat="50.672412" lon="6.209422">
		<ele>426</ele>
		<time>2011-09-11T11:32:26.940Z</time>
		<geoidheight>380</geoidheight>
	</trkpt>
	<trkpt lat="50.672404" lon="6.209434">
		<ele>426</ele>
		<time>2011-09-11T11:32:27.940Z</time>
		<geoidheight>380</geoidheight>
	</trkpt>
	<trkpt lat="50.672396" lon="6.209451">
		<ele>426</ele>
		<time>2011-09-11T11:32:28.940Z</time>
		<geoidheight>380</geoidheight>
	</trkpt>
	<trkpt lat="50.672388" lon="6.209467">
		<ele>426</ele>
		<time>2011-09-11T11:32:29.939Z</time>
		<geoidheight>380</geoidheight>
	</trkpt>
	<trkpt lat="50.672382" lon="6.209486">
		<ele>426</ele>
		<time>2011-09-11T11:32:30.940Z</time>
		<geoidheight>380</geoidheight>
	</trkpt>
	<trkpt lat="50.672374" lon="6.209504">
		<ele>427</ele>
		<time>2011-09-11T11:32:31.939Z</time>
		<geoidheight>381</geoidheight>
	</trkpt>
	<trkpt lat="50.672367" lon="6.209524">
		<ele>427</ele>
		<time>2011-09-11T11:32:32.941Z</time>
		<geoidheight>381</geoidheight>
	</trkpt>
	<trkpt lat="50.672360" lon="6.209536">
		<ele>427</ele>
		<time>2011-09-11T11:32:33.939Z</time>
		<geoidheight>381</geoidheight>
	</trkpt>
	<trkpt lat="50.672354" lon="6.209554">
		<ele>427</ele>
		<time>2011-09-11T11:32:34.946Z</time>
		<geoidheight>381</geoidheight>
	</trkpt>
	<trkpt lat="50.672349" lon="6.209576">
		<ele>428</ele>
		<time>2011-09-11T11:32:35.939Z</time>
		<geoidheight>382</geoidheight>
	</trkpt>
	<trkpt lat="50.672342" lon="6.209596">
		<ele>428</ele>
		<time>2011-09-11T11:32:36.940Z</time>
		<geoidheight>382</geoidheight>
	</trkpt>
	<trkpt lat="50.672336" lon="6.209606">
		<ele>428</ele>
		<time>2011-09-11T11:32:37.939Z</time>
		<geoidheight>382</geoidheight>
	</trkpt>
	<trkpt lat="50.672331" lon="6.209624">
		<ele>428</ele>
		<time>2011-09-11T11:32:38.940Z</time>
		<geoidheight>382</geoidheight>
	</trkpt>
	<trkpt lat="50.672325" lon="6.209644">
		<ele>429</ele>
		<time>2011-09-11T11:32:39.943Z</time>
		<geoidheight>383</geoidheight>
	</trkpt>
	<trkpt lat="50.672318" lon="6.209666">
		<ele>429</ele>
		<time>2011-09-11T11:32:40.951Z</time>
		<geoidheight>383</geoidheight>
	</trkpt>
	<trkpt lat="50.672312" lon="6.209688">
		<ele>429</ele>
		<time>2011-09-11T11:32:41.943Z</time>
		<geoidheight>383</geoidheight>
	</trkpt>
	<trkpt lat="50.672307" lon="6.209709">
		<ele>429</ele>
		<time>2011-09-11T11:32:42.947Z</time>
		<geoidheight>383</geoidheight>
	</trkpt>
	<trkpt lat="50.672302" lon="6.209729">
		<ele>430</ele>
		<time>2011-09-11T11:32:43.939Z</time>
		<geoidheight>384</geoidheight>
	</trkpt>
	<trkpt lat="50.672300" lon="6.209751">
		<ele>430</ele>
		<time>2011-09-11T11:32:44.940Z</time>
		<geoidheight>384</geoidheight>
	</trkpt>
	<trkpt lat="50.672296" lon="6.209771">
		<ele>430</ele>
		<time>2011-09-11T11:32:45.941Z</time>
		<geoidheight>384</geoidheight>
	</trkpt>
	<trkpt lat="50.672296" lon="6.209793">
		<ele>430</ele>
		<time>2011-09-11T11:32:46.947Z</time>
		<geoidheight>384</geoidheight>
	</trkpt>
	<trkpt lat="50.672294" lon="6.209811">
		<ele>431</ele>
		<time>2011-09-11T11:32:47.937Z</time>
		<geoidheight>385</geoidheight>
	</trkpt>
	<trkpt lat="50.672288" lon="6.209826">
		<ele>431</ele>
		<time>2011-09-11T11:32:48.941Z</time>
		<geoidheight>385</geoidheight>
	</trkpt>
	<trkpt lat="50.672283" lon="6.209841">
		<ele>431</ele>
		<time>2011-09-11T11:32:49.940Z</time>
		<geoidheight>385</geoidheight>
	</trkpt>
	<trkpt lat="50.672278" lon="6.209855">
		<ele>431</ele>
		<time>2011-09-11T11:32:50.940Z</time>
		<geoidheight>385</geoidheight>
	</trkpt>
	<trkpt lat="50.672270" lon="6.209866">
		<ele>432</ele>
		<time>2011-09-11T11:32:51.995Z</time>
		<geoidheight>386</geoidheight>
	</trkpt>
	<trkpt lat="50.672261" lon="6.209881">
		<ele>432</ele>
		<time>2011-09-11T11:32:52.994Z</time>
		<geoidheight>386</geoidheight>
	</trkpt>
	<trkpt lat="50.672252" lon="6.209895">
		<ele>432</ele>
		<time>2011-09-11T11:32:53.992Z</time>
		<geoidheight>386</geoidheight>
	</trkpt>
	<trkpt lat="50.672242" lon="6.209909">
		<ele>432</ele>
		<time>2011-09-11T11:32:54.942Z</time>
		<geoidheight>386</geoidheight>
	</trkpt>
	<trkpt lat="50.672232" lon="6.209927">
		<ele>432</ele>
		<time>2011-09-11T11:32:55.941Z</time>
		<geoidheight>386</geoidheight>
	</trkpt>
	<trkpt lat="50.672223" lon="6.209944">
		<ele>433</ele>
		<time>2011-09-11T11:32:56.940Z</time>
		<geoidheight>387</geoidheight>
	</trkpt>
	<trkpt lat="50.672216" lon="6.209969">
		<ele>433</ele>
		<time>2011-09-11T11:32:57.941Z</time>
		<geoidheight>387</geoidheight>
	</trkpt>
	<trkpt lat="50.672209" lon="6.209992">
		<ele>433</ele>
		<time>2011-09-11T11:32:58.939Z</time>
		<geoidheight>387</geoidheight>
	</trkpt>
	<trkpt lat="50.672202" lon="6.210014">
		<ele>433</ele>
		<time>2011-09-11T11:32:59.940Z</time>
		<geoidheight>387</geoidheight>
	</trkpt>
	<trkpt lat="50.672196" lon="6.210033">
		<ele>433</ele>
		<time>2011-09-11T11:33:00.943Z</time>
		<geoidheight>387</geoidheight>
	</trkpt>
	<trkpt lat="50.672188" lon="6.210052">
		<ele>434</ele>
		<time>2011-09-11T11:33:01.941Z</time>
		<geoidheight>388</geoidheight>
	</trkpt>
	<trkpt lat="50.672182" lon="6.210071">
		<ele>434</ele>
		<time>2011-09-11T11:33:02.941Z</time>
		<geoidheight>388</geoidheight>
	</trkpt>
	<trkpt lat="50.672175" lon="6.210087">
		<ele>434</ele>
		<time>2011-09-11T11:33:03.940Z</time>
		<geoidheight>388</geoidheight>
	</trkpt>
	<trkpt lat="50.672170" lon="6.210108">
		<ele>434</ele>
		<time>2011-09-11T11:33:04.942Z</time>
		<geoidheight>388</geoidheight>
	</trkpt>
	<trkpt lat="50.672164" lon="6.210128">
		<ele>434</ele>
		<time>2011-09-11T11:33:05.940Z</time>
		<geoidheight>388</geoidheight>
	</trkpt>
	<trkpt lat="50.672160" lon="6.210150">
		<ele>434</ele>
		<time>2011-09-11T11:33:06.940Z</time>
		<geoidheight>388</geoidheight>
	</trkpt>
	<trkpt lat="50.672155" lon="6.210163">
		<ele>435</ele>
		<time>2011-09-11T11:33:07.941Z</time>
		<geoidheight>389</geoidheight>
	</trkpt>
	<trkpt lat="50.672150" lon="6.210179">
		<ele>435</ele>
		<time>2011-09-11T11:33:08.940Z</time>
		<geoidheight>389</geoidheight>
	</trkpt>
	<trkpt lat="50.672145" lon="6.210197">
		<ele>435</ele>
		<time>2011-09-11T11:33:09.941Z</time>
		<geoidheight>389</geoidheight>
	</trkpt>
	<trkpt lat="50.672139" lon="6.210214">
		<ele>435</ele>
		<time>2011-09-11T11:33:10.942Z</time>
		<geoidheight>389</geoidheight>
	</trkpt>
	<trkpt lat="50.672132" lon="6.210232">
		<ele>435</ele>
		<time>2011-09-11T11:33:11.939Z</time>
		<geoidheight>389</geoidheight>
	</trkpt>
	<trkpt lat="50.672128" lon="6.210252">
		<ele>435</ele>
		<time>2011-09-11T11:33:12.940Z</time>
		<geoidheight>389</geoidheight>
	</trkpt>
	<trkpt lat="50.672122" lon="6.210270">
		<ele>436</ele>
		<time>2011-09-11T11:33:13.941Z</time>
		<geoidheight>390</geoidheight>
	</trkpt>
	<trkpt lat="50.672115" lon="6.210289">
		<ele>436</ele>
		<time>2011-09-11T11:33:14.941Z</time>
		<geoidheight>390</geoidheight>
	</trkpt>
	<trkpt lat="50.672109" lon="6.210311">
		<ele>436</ele>
		<time>2011-09-11T11:33:15.939Z</time>
		<geoidheight>390</geoidheight>
	</trkpt>
	<trkpt lat="50.672100" lon="6.210330">
		<ele>436</ele>
		<time>2011-09-11T11:33:16.942Z</time>
		<geoidheight>390</geoidheight>
	</trkpt>
	<trkpt lat="50.672093" lon="6.210346">
		<ele>436</ele>
		<time>2011-09-11T11:33:17.938Z</time>
		<geoidheight>390</geoidheight>
	</trkpt>
	<trkpt lat="50.672085" lon="6.210366">
		<ele>436</ele>
		<time>2011-09-11T11:33:18.940Z</time>
		<geoidheight>390</geoidheight>
	</trkpt>
	<trkpt lat="50.672077" lon="6.210386">
		<ele>437</ele>
		<time>2011-09-11T11:33:19.941Z</time>
		<geoidheight>391</geoidheight>
	</trkpt>
	<trkpt lat="50.672070" lon="6.210408">
		<ele>437</ele>
		<time>2011-09-11T11:33:20.942Z</time>
		<geoidheight>391</geoidheight>
	</trkpt>
	<trkpt lat="50.672063" lon="6.210429">
		<ele>437</ele>
		<time>2011-09-11T11:33:21.941Z</time>
		<geoidheight>391</geoidheight>
	</trkpt>
	<trkpt lat="50.672056" lon="6.210451">
		<ele>437</ele>
		<time>2011-09-11T11:33:22.942Z</time>
		<geoidheight>391</geoidheight>
	</trkpt>
	<trkpt lat="50.672048" lon="6.210473">
		<ele>437</ele>
		<time>2011-09-11T11:33:23.941Z</time>
		<geoidheight>391</geoidheight>
	</trkpt>
	<trkpt lat="50.672041" lon="6.210495">
		<ele>437</ele>
		<time>2011-09-11T11:33:24.940Z</time>
		<geoidheight>391</geoidheight>
	</trkpt>
	<trkpt lat="50.672035" lon="6.210517">
		<ele>438</ele>
		<time>2011-09-11T11:33:25.942Z</time>
		<geoidheight>392</geoidheight>
	</trkpt>
	<trkpt lat="50.672029" lon="6.210537">
		<ele>438</ele>
		<time>2011-09-11T11:33:26.952Z</time>
		<geoidheight>392</geoidheight>
	</trkpt>
	<trkpt lat="50.672024" lon="6.210558">
		<ele>438</ele>
		<time>2011-09-11T11:33:27.950Z</time>
		<geoidheight>392</geoidheight>
	</trkpt>
	<trkpt lat="50.672014" lon="6.210568">
		<ele>438</ele>
		<time>2011-09-11T11:33:28.951Z</time>
		<geoidheight>392</geoidheight>
	</trkpt>
	<trkpt lat="50.672006" lon="6.210580">
		<ele>438</ele>
		<time>2011-09-11T11:33:29.953Z</time>
		<geoidheight>392</geoidheight>
	</trkpt>
	<trkpt lat="50.671998" lon="6.210592">
		<ele>438</ele>
		<time>2011-09-11T11:33:30.950Z</time>
		<geoidheight>392</geoidheight>
	</trkpt>
	<trkpt lat="50.671990" lon="6.210606">
		<ele>439</ele>
		<time>2011-09-11T11:33:31.947Z</time>
		<geoidheight>393</geoidheight>
	</trkpt>
	<trkpt lat="50.671981" lon="6.210618">
		<ele>439</ele>
		<time>2011-09-11T11:33:32.954Z</time>
		<geoidheight>393</geoidheight>
	</trkpt>
	<trkpt lat="50.671971" lon="6.210629">
		<ele>439</ele>
		<time>2011-09-11T11:33:33.939Z</time>
		<geoidheight>393</geoidheight>
	</trkpt>
	<trkpt lat="50.671965" lon="6.210647">
		<ele>439</ele>
		<time>2011-09-11T11:33:34.944Z</time>
		<geoidheight>393</geoidheight>
	</trkpt>
	<trkpt lat="50.671955" lon="6.210661">
		<ele>439</ele>
		<time>2011-09-11T11:33:35.942Z</time>
		<geoidheight>393</geoidheight>
	</trkpt>
	<trkpt lat="50.671950" lon="6.210683">
		<ele>439</ele>
		<time>2011-09-11T11:33:36.941Z</time>
		<geoidheight>393</geoidheight>
	</trkpt>
	<trkpt lat="50.671942" lon="6.210701">
		<ele>440</ele>
		<time>2011-09-11T11:33:37.939Z</time>
		<geoidheight>394</geoidheight>
	</trkpt>
	<trkpt lat="50.671933" lon="6.210719">
		<ele>440</ele>
		<time>2011-09-11T11:33:38.942Z</time>
		<geoidheight>394</geoidheight>
	</trkpt>
	<trkpt lat="50.671927" lon="6.210739">
		<ele>440</ele>
		<time>2011-09-11T11:33:39.940Z</time>
		<geoidheight>394</geoidheight>
	</trkpt>
	<trkpt lat="50.671919" lon="6.210758">
		<ele>440</ele>
		<time>2011-09-11T11:33:40.941Z</time>
		<geoidheight>394</geoidheight>
	</trkpt>
	<trkpt lat="50.671912" lon="6.210778">
		<ele>440</ele>
		<time>2011-09-11T11:33:41.944Z</time>
		<geoidheight>394</geoidheight>
	</trkpt>
	<trkpt lat="50.671908" lon="6.210803">
		<ele>440</ele>
		<time>2011-09-11T11:33:42.940Z</time>
		<geoidheight>394</geoidheight>
	</trkpt>
	<trkpt lat="50.671904" lon="6.210826">
		<ele>440</ele>
		<time>2011-09-11T11:33:43.940Z</time>
		<geoidheight>394</geoidheight>
	</trkpt>
	<trkpt lat="50.671900" lon="6.210848">
		<ele>440</ele>
		<time>2011-09-11T11:33:44.943Z</time>
		<geoidheight>394</geoidheight>
	</trkpt>
	<trkpt lat="50.671895" lon="6.210869">
		<ele>441</ele>
		<time>2011-09-11T11:33:45.942Z</time>
		<geoidheight>395</geoidheight>
	</trkpt>
	<trkpt lat="50.671891" lon="6.210891">
		<ele>441</ele>
		<time>2011-09-11T11:33:46.941Z</time>
		<geoidheight>395</geoidheight>
	</trkpt>
	<trkpt lat="50.671888" lon="6.210911">
		<ele>441</ele>
		<time>2011-09-11T11:33:47.938Z</time>
		<geoidheight>395</geoidheight>
	</trkpt>
	<trkpt lat="50.671884" lon="6.210931">
		<ele>441</ele>
		<time>2011-09-11T11:33:48.943Z</time>
		<geoidheight>395</geoidheight>
	</trkpt>
	<trkpt lat="50.671881" lon="6.210950">
		<ele>441</ele>
		<time>2011-09-11T11:33:49.942Z</time>
		<geoidheight>395</geoidheight>
	</trkpt>
	<trkpt lat="50.671876" lon="6.210967">
		<ele>441</ele>
		<time>2011-09-11T11:33:50.946Z</time>
		<geoidheight>395</geoidheight>
	</trkpt>
	<trkpt lat="50.671871" lon="6.210983">
		<ele>441</ele>
		<time>2011-09-11T11:33:51.942Z</time>
		<geoidheight>395</geoidheight>
	</trkpt>
	<trkpt lat="50.671865" lon="6.210999">
		<ele>441</ele>
		<time>2011-09-11T11:33:52.940Z</time>
		<geoidheight>395</geoidheight>
	</trkpt>
	<trkpt lat="50.671860" lon="6.211016">
		<ele>442</ele>
		<time>2011-09-11T11:33:53.943Z</time>
		<geoidheight>396</geoidheight>
	</trkpt>
	<trkpt lat="50.671853" lon="6.211031">
		<ele>442</ele>
		<time>2011-09-11T11:33:54.941Z</time>
		<geoidheight>396</geoidheight>
	</trkpt>
	<trkpt lat="50.671846" lon="6.211048">
		<ele>442</ele>
		<time>2011-09-11T11:33:55.941Z</time>
		<geoidheight>396</geoidheight>
	</trkpt>
	<trkpt lat="50.671838" lon="6.211065">
		<ele>442</ele>
		<time>2011-09-11T11:33:56.940Z</time>
		<geoidheight>396</geoidheight>
	</trkpt>
	<trkpt lat="50.671831" lon="6.211084">
		<ele>442</ele>
		<time>2011-09-11T11:33:57.942Z</time>
		<geoidheight>396</geoidheight>
	</trkpt>
	<trkpt lat="50.671824" lon="6.211104">
		<ele>442</ele>
		<time>2011-09-11T11:33:58.941Z</time>
		<geoidheight>396</geoidheight>
	</trkpt>
	<trkpt lat="50.671817" lon="6.211122">
		<ele>442</ele>
		<time>2011-09-11T11:33:59.944Z</time>
		<geoidheight>396</geoidheight>
	</trkpt>
	<trkpt lat="50.671809" lon="6.211139">
		<ele>442</ele>
		<time>2011-09-11T11:34:00.942Z</time>
		<geoidheight>396</geoidheight>
	</trkpt>
	<trkpt lat="50.671803" lon="6.211156">
		<ele>443</ele>
		<time>2011-09-11T11:34:01.940Z</time>
		<geoidheight>397</geoidheight>
	</trkpt>
	<trkpt lat="50.671798" lon="6.211175">
		<ele>443</ele>
		<time>2011-09-11T11:34:02.940Z</time>
		<geoidheight>397</geoidheight>
	</trkpt>
	<trkpt lat="50.671791" lon="6.211190">
		<ele>443</ele>
		<time>2011-09-11T11:34:03.942Z</time>
		<geoidheight>397</geoidheight>
	</trkpt>
	<trkpt lat="50.671783" lon="6.211205">
		<ele>443</ele>
		<time>2011-09-11T11:34:04.942Z</time>
		<geoidheight>397</geoidheight>
	</trkpt>
	<trkpt lat="50.671775" lon="6.211222">
		<ele>443</ele>
		<time>2011-09-11T11:34:05.940Z</time>
		<geoidheight>397</geoidheight>
	</trkpt>
	<trkpt lat="50.671768" lon="6.211238">
		<ele>443</ele>
		<time>2011-09-11T11:34:06.942Z</time>
		<geoidheight>397</geoidheight>
	</trkpt>
	<trkpt lat="50.671760" lon="6.211256">
		<ele>443</ele>
		<time>2011-09-11T11:34:07.942Z</time>
		<geoidheight>397</geoidheight>
	</trkpt>
	<trkpt lat="50.671752" lon="6.211273">
		<ele>444</ele>
		<time>2011-09-11T11:34:08.941Z</time>
		<geoidheight>398</geoidheight>
	</trkpt>
	<trkpt lat="50.671746" lon="6.211293">
		<ele>444</ele>
		<time>2011-09-11T11:34:09.944Z</time>
		<geoidheight>398</geoidheight>
	</trkpt>
	<trkpt lat="50.671741" lon="6.211312">
		<ele>444</ele>
		<time>2011-09-11T11:34:10.954Z</time>
		<geoidheight>398</geoidheight>
	</trkpt>
	<trkpt lat="50.671734" lon="6.211327">
		<ele>444</ele>
		<time>2011-09-11T11:34:11.940Z</time>
		<geoidheight>398</geoidheight>
	</trkpt>
	<trkpt lat="50.671726" lon="6.211343">
		<ele>444</ele>
		<time>2011-09-11T11:34:12.944Z</time>
		<geoidheight>398</geoidheight>
	</trkpt>
	<trkpt lat="50.671719" lon="6.211359">
		<ele>444</ele>
		<time>2011-09-11T11:34:13.940Z</time>
		<geoidheight>398</geoidheight>
	</trkpt>
	<trkpt lat="50.671713" lon="6.211376">
		<ele>444</ele>
		<time>2011-09-11T11:34:14.942Z</time>
		<geoidheight>398</geoidheight>
	</trkpt>
	<trkpt lat="50.671707" lon="6.211394">
		<ele>445</ele>
		<time>2011-09-11T11:34:15.946Z</time>
		<geoidheight>399</geoidheight>
	</trkpt>
	<trkpt lat="50.671701" lon="6.211414">
		<ele>445</ele>
		<time>2011-09-11T11:34:16.940Z</time>
		<geoidheight>399</geoidheight>
	</trkpt>
	<trkpt lat="50.671694" lon="6.211430">
		<ele>445</ele>
		<time>2011-09-11T11:34:17.938Z</time>
		<geoidheight>399</geoidheight>
	</trkpt>
	<trkpt lat="50.671685" lon="6.211448">
		<ele>445</ele>
		<time>2011-09-11T11:34:18.944Z</time>
		<geoidheight>399</geoidheight>
	</trkpt>
	<trkpt lat="50.671675" lon="6.211467">
		<ele>445</ele>
		<time>2011-09-11T11:34:19.942Z</time>
		<geoidheight>399</geoidheight>
	</trkpt>
	<trkpt lat="50.671667" lon="6.211487">
		<ele>445</ele>
		<time>2011-09-11T11:34:20.941Z</time>
		<geoidheight>399</geoidheight>
	</trkpt>
	<trkpt lat="50.671660" lon="6.211506">
		<ele>445</ele>
		<time>2011-09-11T11:34:21.940Z</time>
		<geoidheight>399</geoidheight>
	</trkpt>
	<trkpt lat="50.671650" lon="6.211524">
		<ele>445</ele>
		<time>2011-09-11T11:34:22.942Z</time>
		<geoidheight>399</geoidheight>
	</trkpt>
	<trkpt lat="50.671643" lon="6.211544">
		<ele>446</ele>
		<time>2011-09-11T11:34:23.942Z</time>
		<geoidheight>400</geoidheight>
	</trkpt>
	<trkpt lat="50.671635" lon="6.211564">
		<ele>446</ele>
		<time>2011-09-11T11:34:24.947Z</time>
		<geoidheight>400</geoidheight>
	</trkpt>
	<trkpt lat="50.671627" lon="6.211584">
		<ele>446</ele>
		<time>2011-09-11T11:34:25.960Z</time>
		<geoidheight>400</geoidheight>
	</trkpt>
	<trkpt lat="50.671619" lon="6.211605">
		<ele>446</ele>
		<time>2011-09-11T11:34:26.944Z</time>
		<geoidheight>400</geoidheight>
	</trkpt>
	<trkpt lat="50.671611" lon="6.211626">
		<ele>446</ele>
		<time>2011-09-11T11:34:27.948Z</time>
		<geoidheight>400</geoidheight>
	</trkpt>
	<trkpt lat="50.671603" lon="6.211642">
		<ele>446</ele>
		<time>2011-09-11T11:34:28.947Z</time>
		<geoidheight>400</geoidheight>
	</trkpt>
	<trkpt lat="50.671595" lon="6.211660">
		<ele>446</ele>
		<time>2011-09-11T11:34:29.948Z</time>
		<geoidheight>400</geoidheight>
	</trkpt>
	<trkpt lat="50.671589" lon="6.211679">
		<ele>446</ele>
		<time>2011-09-11T11:34:30.952Z</time>
		<geoidheight>400</geoidheight>
	</trkpt>
	<trkpt lat="50.671583" lon="6.211698">
		<ele>446</ele>
		<time>2011-09-11T11:34:31.951Z</time>
		<geoidheight>400</geoidheight>
	</trkpt>
	<trkpt lat="50.671577" lon="6.211718">
		<ele>446</ele>
		<time>2011-09-11T11:34:32.939Z</time>
		<geoidheight>400</geoidheight>
	</trkpt>
	<trkpt lat="50.671573" lon="6.211740">
		<ele>446</ele>
		<time>2011-09-11T11:34:33.949Z</time>
		<geoidheight>400</geoidheight>
	</trkpt>
	<trkpt lat="50.671565" lon="6.211758">
		<ele>446</ele>
		<time>2011-09-11T11:34:34.951Z</time>
		<geoidheight>400</geoidheight>
	</trkpt>
	<trkpt lat="50.671560" lon="6.211776">
		<ele>446</ele>
		<time>2011-09-11T11:34:35.950Z</time>
		<geoidheight>400</geoidheight>
	</trkpt>
	<trkpt lat="50.671553" lon="6.211794">
		<ele>446</ele>
		<time>2011-09-11T11:34:36.953Z</time>
		<geoidheight>400</geoidheight>
	</trkpt>
	<trkpt lat="50.671547" lon="6.211813">
		<ele>446</ele>
		<time>2011-09-11T11:34:37.950Z</time>
		<geoidheight>400</geoidheight>
	</trkpt>
	<trkpt lat="50.671543" lon="6.211829">
		<ele>446</ele>
		<time>2011-09-11T11:34:38.951Z</time>
		<geoidheight>400</geoidheight>
	</trkpt>
	<trkpt lat="50.671536" lon="6.211841">
		<ele>447</ele>
		<time>2011-09-11T11:34:39.950Z</time>
		<geoidheight>401</geoidheight>
	</trkpt>
	<trkpt lat="50.671529" lon="6.211855">
		<ele>447</ele>
		<time>2011-09-11T11:34:40.950Z</time>
		<geoidheight>401</geoidheight>
	</trkpt>
	<trkpt lat="50.671523" lon="6.211873">
		<ele>447</ele>
		<time>2011-09-11T11:34:41.951Z</time>
		<geoidheight>401</geoidheight>
	</trkpt>
	<trkpt lat="50.671517" lon="6.211892">
		<ele>447</ele>
		<time>2011-09-11T11:34:42.957Z</time>
		<geoidheight>401</geoidheight>
	</trkpt>
	<trkpt lat="50.671511" lon="6.211912">
		<ele>447</ele>
		<time>2011-09-11T11:34:43.948Z</time>
		<geoidheight>401</geoidheight>
	</trkpt>
	<trkpt lat="50.671503" lon="6.211929">
		<ele>447</ele>
		<time>2011-09-11T11:34:44.948Z</time>
		<geoidheight>401</geoidheight>
	</trkpt>
	<trkpt lat="50.671495" lon="6.211946">
		<ele>447</ele>
		<time>2011-09-11T11:34:45.953Z</time>
		<geoidheight>401</geoidheight>
	</trkpt>
	<trkpt lat="50.671487" lon="6.211962">
		<ele>447</ele>
		<time>2011-09-11T11:34:46.945Z</time>
		<geoidheight>401</geoidheight>
	</trkpt>
	<trkpt lat="50.671478" lon="6.211980">
		<ele>447</ele>
		<time>2011-09-11T11:34:47.939Z</time>
		<geoidheight>401</geoidheight>
	</trkpt>
	<trkpt lat="50.671470" lon="6.211999">
		<ele>447</ele>
		<time>2011-09-11T11:34:48.941Z</time>
		<geoidheight>401</geoidheight>
	</trkpt>
	<trkpt lat="50.671462" lon="6.212017">
		<ele>447</ele>
		<time>2011-09-11T11:34:49.942Z</time>
		<geoidheight>401</geoidheight>
	</trkpt>
	<trkpt lat="50.671453" lon="6.212035">
		<ele>447</ele>
		<time>2011-09-11T11:34:50.943Z</time>
		<geoidheight>401</geoidheight>
	</trkpt>
	<trkpt lat="50.671445" lon="6.212051">
		<ele>447</ele>
		<time>2011-09-11T11:34:51.941Z</time>
		<geoidheight>401</geoidheight>
	</trkpt>
	<trkpt lat="50.671436" lon="6.212069">
		<ele>448</ele>
		<time>2011-09-11T11:34:52.941Z</time>
		<geoidheight>402</geoidheight>
	</trkpt>
	<trkpt lat="50.671426" lon="6.212084">
		<ele>448</ele>
		<time>2011-09-11T11:34:53.943Z</time>
		<geoidheight>402</geoidheight>
	</trkpt>
	<trkpt lat="50.671419" lon="6.212103">
		<ele>448</ele>
		<time>2011-09-11T11:34:54.941Z</time>
		<geoidheight>402</geoidheight>
	</trkpt>
	<trkpt lat="50.671411" lon="6.212124">
		<ele>448</ele>
		<time>2011-09-11T11:34:55.940Z</time>
		<geoidheight>402</geoidheight>
	</trkpt>
	<trkpt lat="50.671405" lon="6.212145">
		<ele>448</ele>
		<time>2011-09-11T11:34:56.942Z</time>
		<geoidheight>402</geoidheight>
	</trkpt>
	<trkpt lat="50.671397" lon="6.212163">
		<ele>448</ele>
		<time>2011-09-11T11:34:57.941Z</time>
		<geoidheight>402</geoidheight>
	</trkpt>
	<trkpt lat="50.671391" lon="6.212180">
		<ele>448</ele>
		<time>2011-09-11T11:34:58.941Z</time>
		<geoidheight>402</geoidheight>
	</trkpt>
	<trkpt lat="50.671384" lon="6.212191">
		<ele>448</ele>
		<time>2011-09-11T11:34:59.943Z</time>
		<geoidheight>402</geoidheight>
	</trkpt>
	<trkpt lat="50.671380" lon="6.212208">
		<ele>448</ele>
		<time>2011-09-11T11:35:00.941Z</time>
		<geoidheight>402</geoidheight>
	</trkpt>
	<trkpt lat="50.671373" lon="6.212224">
		<ele>448</ele>
		<time>2011-09-11T11:35:01.940Z</time>
		<geoidheight>402</geoidheight>
	</trkpt>
	<trkpt lat="50.671367" lon="6.212243">
		<ele>448</ele>
		<time>2011-09-11T11:35:02.942Z</time>
		<geoidheight>402</geoidheight>
	</trkpt>
	<trkpt lat="50.671362" lon="6.212261">
		<ele>448</ele>
		<time>2011-09-11T11:35:03.942Z</time>
		<geoidheight>402</geoidheight>
	</trkpt>
	<trkpt lat="50.671356" lon="6.212280">
		<ele>449</ele>
		<time>2011-09-11T11:35:04.941Z</time>
		<geoidheight>403</geoidheight>
	</trkpt>
	<trkpt lat="50.671348" lon="6.212297">
		<ele>449</ele>
		<time>2011-09-11T11:35:05.945Z</time>
		<geoidheight>403</geoidheight>
	</trkpt>
	<trkpt lat="50.671339" lon="6.212314">
		<ele>449</ele>
		<time>2011-09-11T11:35:06.942Z</time>
		<geoidheight>403</geoidheight>
	</trkpt>
	<trkpt lat="50.671331" lon="6.212333">
		<ele>449</ele>
		<time>2011-09-11T11:35:07.942Z</time>
		<geoidheight>403</geoidheight>
	</trkpt>
	<trkpt lat="50.671322" lon="6.212349">
		<ele>449</ele>
		<time>2011-09-11T11:35:08.942Z</time>
		<geoidheight>403</geoidheight>
	</trkpt>
	<trkpt lat="50.671314" lon="6.212367">
		<ele>449</ele>
		<time>2011-09-11T11:35:09.942Z</time>
		<geoidheight>403</geoidheight>
	</trkpt>
	<trkpt lat="50.671308" lon="6.212387">
		<ele>449</ele>
		<time>2011-09-11T11:35:10.941Z</time>
		<geoidheight>403</geoidheight>
	</trkpt>
	<trkpt lat="50.671302" lon="6.212406">
		<ele>449</ele>
		<time>2011-09-11T11:35:11.949Z</time>
		<geoidheight>403</geoidheight>
	</trkpt>
	<trkpt lat="50.671294" lon="6.212422">
		<ele>449</ele>
		<time>2011-09-11T11:35:12.943Z</time>
		<geoidheight>403</geoidheight>
	</trkpt>
	<trkpt lat="50.671286" lon="6.212437">
		<ele>449</ele>
		<time>2011-09-11T11:35:13.941Z</time>
		<geoidheight>403</geoidheight>
	</trkpt>
	<trkpt lat="50.671279" lon="6.212455">
		<ele>449</ele>
		<time>2011-09-11T11:35:14.943Z</time>
		<geoidheight>403</geoidheight>
	</trkpt>
	<trkpt lat="50.671274" lon="6.212472">
		<ele>449</ele>
		<time>2011-09-11T11:35:15.941Z</time>
		<geoidheight>403</geoidheight>
	</trkpt>
	<trkpt lat="50.671267" lon="6.212489">
		<ele>449</ele>
		<time>2011-09-11T11:35:16.941Z</time>
		<geoidheight>403</geoidheight>
	</trkpt>
	<trkpt lat="50.671260" lon="6.212506">
		<ele>449</ele>
		<time>2011-09-11T11:35:17.939Z</time>
		<geoidheight>403</geoidheight>
	</trkpt>
	<trkpt lat="50.671253" lon="6.212521">
		<ele>449</ele>
		<time>2011-09-11T11:35:18.943Z</time>
		<geoidheight>403</geoidheight>
	</trkpt>
	<trkpt lat="50.671247" lon="6.212536">
		<ele>449</ele>
		<time>2011-09-11T11:35:19.943Z</time>
		<geoidheight>403</geoidheight>
	</trkpt>
	<trkpt lat="50.671238" lon="6.212553">
		<ele>449</ele>
		<time>2011-09-11T11:35:20.941Z</time>
		<geoidheight>403</geoidheight>
	</trkpt>
	<trkpt lat="50.671231" lon="6.212572">
		<ele>449</ele>
		<time>2011-09-11T11:35:21.954Z</time>
		<geoidheight>403</geoidheight>
	</trkpt>
	<trkpt lat="50.671222" lon="6.212591">
		<ele>449</ele>
		<time>2011-09-11T11:35:22.952Z</time>
		<geoidheight>403</geoidheight>
	</trkpt>
	<trkpt lat="50.671214" lon="6.212608">
		<ele>450</ele>
		<time>2011-09-11T11:35:23.952Z</time>
		<geoidheight>404</geoidheight>
	</trkpt>
	<trkpt lat="50.671206" lon="6.212623">
		<ele>450</ele>
		<time>2011-09-11T11:35:24.952Z</time>
		<geoidheight>404</geoidheight>
	</trkpt>
	<trkpt lat="50.671196" lon="6.212637">
		<ele>450</ele>
		<time>2011-09-11T11:35:25.949Z</time>
		<geoidheight>404</geoidheight>
	</trkpt>
	<trkpt lat="50.671189" lon="6.212650">
		<ele>450</ele>
		<time>2011-09-11T11:35:26.950Z</time>
		<geoidheight>404</geoidheight>
	</trkpt>
	<trkpt lat="50.671182" lon="6.212666">
		<ele>450</ele>
		<time>2011-09-11T11:35:27.943Z</time>
		<geoidheight>404</geoidheight>
	</trkpt>
	<trkpt lat="50.671176" lon="6.212683">
		<ele>450</ele>
		<time>2011-09-11T11:35:28.943Z</time>
		<geoidheight>404</geoidheight>
	</trkpt>
	<trkpt lat="50.671171" lon="6.212702">
		<ele>450</ele>
		<time>2011-09-11T11:35:29.942Z</time>
		<geoidheight>404</geoidheight>
	</trkpt>
	<trkpt lat="50.671164" lon="6.212717">
		<ele>450</ele>
		<time>2011-09-11T11:35:30.944Z</time>
		<geoidheight>404</geoidheight>
	</trkpt>
	<trkpt lat="50.671158" lon="6.212736">
		<ele>450</ele>
		<time>2011-09-11T11:35:31.941Z</time>
		<geoidheight>404</geoidheight>
	</trkpt>
	<trkpt lat="50.671152" lon="6.212754">
		<ele>450</ele>
		<time>2011-09-11T11:35:32.943Z</time>
		<geoidheight>404</geoidheight>
	</trkpt>
	<trkpt lat="50.671145" lon="6.212774">
		<ele>450</ele>
		<time>2011-09-11T11:35:33.947Z</time>
		<geoidheight>404</geoidheight>
	</trkpt>
	<trkpt lat="50.671139" lon="6.212794">
		<ele>451</ele>
		<time>2011-09-11T11:35:34.943Z</time>
		<geoidheight>405</geoidheight>
	</trkpt>
	<trkpt lat="50.671133" lon="6.212815">
		<ele>451</ele>
		<time>2011-09-11T11:35:35.942Z</time>
		<geoidheight>405</geoidheight>
	</trkpt>
	<trkpt lat="50.671127" lon="6.212830">
		<ele>451</ele>
		<time>2011-09-11T11:35:36.944Z</time>
		<geoidheight>405</geoidheight>
	</trkpt>
	<trkpt lat="50.671121" lon="6.212846">
		<ele>451</ele>
		<time>2011-09-11T11:35:37.941Z</time>
		<geoidheight>405</geoidheight>
	</trkpt>
	<trkpt lat="50.671115" lon="6.212863">
		<ele>451</ele>
		<time>2011-09-11T11:35:38.941Z</time>
		<geoidheight>405</geoidheight>
	</trkpt>
	<trkpt lat="50.671109" lon="6.212881">
		<ele>451</ele>
		<time>2011-09-11T11:35:39.944Z</time>
		<geoidheight>405</geoidheight>
	</trkpt>
	<trkpt lat="50.671105" lon="6.212898">
		<ele>451</ele>
		<time>2011-09-11T11:35:40.943Z</time>
		<geoidheight>405</geoidheight>
	</trkpt>
	<trkpt lat="50.671099" lon="6.212917">
		<ele>451</ele>
		<time>2011-09-11T11:35:41.946Z</time>
		<geoidheight>405</geoidheight>
	</trkpt>
	<trkpt lat="50.671093" lon="6.212933">
		<ele>451</ele>
		<time>2011-09-11T11:35:42.944Z</time>
		<geoidheight>405</geoidheight>
	</trkpt>
	<trkpt lat="50.671086" lon="6.212947">
		<ele>451</ele>
		<time>2011-09-11T11:35:43.942Z</time>
		<geoidheight>405</geoidheight>
	</trkpt>
	<trkpt lat="50.671080" lon="6.212965">
		<ele>451</ele>
		<time>2011-09-11T11:35:44.943Z</time>
		<geoidheight>405</geoidheight>
	</trkpt>
	<trkpt lat="50.671073" lon="6.212981">
		<ele>452</ele>
		<time>2011-09-11T11:35:45.941Z</time>
		<geoidheight>406</geoidheight>
	</trkpt>
	<trkpt lat="50.671066" lon="6.212996">
		<ele>452</ele>
		<time>2011-09-11T11:35:46.944Z</time>
		<geoidheight>406</geoidheight>
	</trkpt>
	<trkpt lat="50.671061" lon="6.213012">
		<ele>452</ele>
		<time>2011-09-11T11:35:47.941Z</time>
		<geoidheight>406</geoidheight>
	</trkpt>
	<trkpt lat="50.671054" lon="6.213025">
		<ele>452</ele>
		<time>2011-09-11T11:35:48.941Z</time>
		<geoidheight>406</geoidheight>
	</trkpt>
	<trkpt lat="50.671045" lon="6.213040">
		<ele>452</ele>
		<time>2011-09-11T11:35:49.944Z</time>
		<geoidheight>406</geoidheight>
	</trkpt>
	<trkpt lat="50.671036" lon="6.213057">
		<ele>452</ele>
		<time>2011-09-11T11:35:50.947Z</time>
		<geoidheight>406</geoidheight>
	</trkpt>
	<trkpt lat="50.671027" lon="6.213072">
		<ele>452</ele>
		<time>2011-09-11T11:35:51.948Z</time>
		<geoidheight>406</geoidheight>
	</trkpt>
	<trkpt lat="50.671019" lon="6.213092">
		<ele>452</ele>
		<time>2011-09-11T11:35:52.943Z</time>
		<geoidheight>406</geoidheight>
	</trkpt>
	<trkpt lat="50.671010" lon="6.213111">
		<ele>452</ele>
		<time>2011-09-11T11:35:53.946Z</time>
		<geoidheight>406</geoidheight>
	</trkpt>
	<trkpt lat="50.671003" lon="6.213131">
		<ele>452</ele>
		<time>2011-09-11T11:35:54.943Z</time>
		<geoidheight>406</geoidheight>
	</trkpt>
	<trkpt lat="50.670996" lon="6.213149">
		<ele>453</ele>
		<time>2011-09-11T11:35:55.943Z</time>
		<geoidheight>407</geoidheight>
	</trkpt>
	<trkpt lat="50.670988" lon="6.213165">
		<ele>453</ele>
		<time>2011-09-11T11:35:56.942Z</time>
		<geoidheight>407</geoidheight>
	</trkpt>
	<trkpt lat="50.670981" lon="6.213183">
		<ele>453</ele>
		<time>2011-09-11T11:35:57.940Z</time>
		<geoidheight>407</geoidheight>
	</trkpt>
	<trkpt lat="50.670974" lon="6.213201">
		<ele>453</ele>
		<time>2011-09-11T11:35:58.943Z</time>
		<geoidheight>407</geoidheight>
	</trkpt>
	<trkpt lat="50.670968" lon="6.213218">
		<ele>453</ele>
		<time>2011-09-11T11:35:59.946Z</time>
		<geoidheight>407</geoidheight>
	</trkpt>
	<trkpt lat="50.670960" lon="6.213234">
		<ele>453</ele>
		<time>2011-09-11T11:36:00.941Z</time>
		<geoidheight>407</geoidheight>
	</trkpt>
	<trkpt lat="50.670953" lon="6.213253">
		<ele>453</ele>
		<time>2011-09-11T11:36:01.943Z</time>
		<geoidheight>407</geoidheight>
	</trkpt>
	<trkpt lat="50.670948" lon="6.213272">
		<ele>453</ele>
		<time>2011-09-11T11:36:02.944Z</time>
		<geoidheight>407</geoidheight>
	</trkpt>
	<trkpt lat="50.670942" lon="6.213292">
		<ele>453</ele>
		<time>2011-09-11T11:36:03.944Z</time>
		<geoidheight>407</geoidheight>
	</trkpt>
	<trkpt lat="50.670936" lon="6.213311">
		<ele>453</ele>
		<time>2011-09-11T11:36:04.948Z</time>
		<geoidheight>407</geoidheight>
	</trkpt>
	<trkpt lat="50.670931" lon="6.213329">
		<ele>453</ele>
		<time>2011-09-11T11:36:05.942Z</time>
		<geoidheight>407</geoidheight>
	</trkpt>
	<trkpt lat="50.670923" lon="6.213347">
		<ele>453</ele>
		<time>2011-09-11T11:36:06.947Z</time>
		<geoidheight>407</geoidheight>
	</trkpt>
	<trkpt lat="50.670918" lon="6.213368">
		<ele>454</ele>
		<time>2011-09-11T11:36:07.946Z</time>
		<geoidheight>408</geoidheight>
	</trkpt>
	<trkpt lat="50.670912" lon="6.213389">
		<ele>454</ele>
		<time>2011-09-11T11:36:08.950Z</time>
		<geoidheight>408</geoidheight>
	</trkpt>
	<trkpt lat="50.670905" lon="6.213408">
		<ele>454</ele>
		<time>2011-09-11T11:36:09.943Z</time>
		<geoidheight>408</geoidheight>
	</trkpt>
	<trkpt lat="50.670897" lon="6.213427">
		<ele>454</ele>
		<time>2011-09-11T11:36:10.942Z</time>
		<geoidheight>408</geoidheight>
	</trkpt>
	<trkpt lat="50.670888" lon="6.213444">
		<ele>454</ele>
		<time>2011-09-11T11:36:11.943Z</time>
		<geoidheight>408</geoidheight>
	</trkpt>
	<trkpt lat="50.670881" lon="6.213461">
		<ele>454</ele>
		<time>2011-09-11T11:36:12.941Z</time>
		<geoidheight>408</geoidheight>
	</trkpt>
	<trkpt lat="50.670876" lon="6.213478">
		<ele>454</ele>
		<time>2011-09-11T11:36:13.942Z</time>
		<geoidheight>408</geoidheight>
	</trkpt>
	<trkpt lat="50.670872" lon="6.213495">
		<ele>454</ele>
		<time>2011-09-11T11:36:14.944Z</time>
		<geoidheight>408</geoidheight>
	</trkpt>
	<trkpt lat="50.670866" lon="6.213511">
		<ele>454</ele>
		<time>2011-09-11T11:36:15.941Z</time>
		<geoidheight>408</geoidheight>
	</trkpt>
	<trkpt lat="50.670863" lon="6.213531">
		<ele>454</ele>
		<time>2011-09-11T11:36:16.948Z</time>
		<geoidheight>408</geoidheight>
	</trkpt>
	<trkpt lat="50.670860" lon="6.213551">
		<ele>454</ele>
		<time>2011-09-11T11:36:17.943Z</time>
		<geoidheight>408</geoidheight>
	</trkpt>
	<trkpt lat="50.670854" lon="6.213568">
		<ele>454</ele>
		<time>2011-09-11T11:36:18.941Z</time>
		<geoidheight>408</geoidheight>
	</trkpt>
	<trkpt lat="50.670849" lon="6.213586">
		<ele>454</ele>
		<time>2011-09-11T11:36:19.943Z</time>
		<geoidheight>408</geoidheight>
	</trkpt>
	<trkpt lat="50.670843" lon="6.213606">
		<ele>454</ele>
		<time>2011-09-11T11:36:20.945Z</time>
		<geoidheight>408</geoidheight>
	</trkpt>
	<trkpt lat="50.670831" lon="6.213619">
		<ele>454</ele>
		<time>2011-09-11T11:36:21.962Z</time>
		<geoidheight>408</geoidheight>
	</trkpt>
	<trkpt lat="50.670819" lon="6.213635">
		<ele>454</ele>
		<time>2011-09-11T11:36:22.958Z</time>
		<geoidheight>408</geoidheight>
	</trkpt>
	<trkpt lat="50.670809" lon="6.213655">
		<ele>454</ele>
		<time>2011-09-11T11:36:23.962Z</time>
		<geoidheight>408</geoidheight>
	</trkpt>
	<trkpt lat="50.670799" lon="6.213671">
		<ele>454</ele>
		<time>2011-09-11T11:36:24.963Z</time>
		<geoidheight>408</geoidheight>
	</trkpt>
	<trkpt lat="50.670790" lon="6.213689">
		<ele>455</ele>
		<time>2011-09-11T11:36:25.953Z</time>
		<geoidheight>409</geoidheight>
	</trkpt>
	<trkpt lat="50.670782" lon="6.213706">
		<ele>455</ele>
		<time>2011-09-11T11:36:26.954Z</time>
		<geoidheight>409</geoidheight>
	</trkpt>
	<trkpt lat="50.670774" lon="6.213723">
		<ele>455</ele>
		<time>2011-09-11T11:36:27.952Z</time>
		<geoidheight>409</geoidheight>
	</trkpt>
	<trkpt lat="50.670767" lon="6.213741">
		<ele>455</ele>
		<time>2011-09-11T11:36:28.955Z</time>
		<geoidheight>409</geoidheight>
	</trkpt>
	<trkpt lat="50.670763" lon="6.213756">
		<ele>455</ele>
		<time>2011-09-11T11:36:29.954Z</time>
		<geoidheight>409</geoidheight>
	</trkpt>
	<trkpt lat="50.670756" lon="6.213769">
		<ele>455</ele>
		<time>2011-09-11T11:36:30.948Z</time>
		<geoidheight>409</geoidheight>
	</trkpt>
	<trkpt lat="50.670750" lon="6.213784">
		<ele>455</ele>
		<time>2011-09-11T11:36:31.955Z</time>
		<geoidheight>409</geoidheight>
	</trkpt>
	<trkpt lat="50.670744" lon="6.213798">
		<ele>455</ele>
		<time>2011-09-11T11:36:32.954Z</time>
		<geoidheight>409</geoidheight>
	</trkpt>
	<trkpt lat="50.670736" lon="6.213811">
		<ele>455</ele>
		<time>2011-09-11T11:36:33.945Z</time>
		<geoidheight>409</geoidheight>
	</trkpt>
	<trkpt lat="50.670729" lon="6.213824">
		<ele>455</ele>
		<time>2011-09-11T11:36:34.942Z</time>
		<geoidheight>409</geoidheight>
	</trkpt>
	<trkpt lat="50.670720" lon="6.213833">
		<ele>455</ele>
		<time>2011-09-11T11:36:35.947Z</time>
		<geoidheight>409</geoidheight>
	</trkpt>
	<trkpt lat="50.670709" lon="6.213839">
		<ele>455</ele>
		<time>2011-09-11T11:36:36.944Z</time>
		<geoidheight>409</geoidheight>
	</trkpt>
	<trkpt lat="50.670697" lon="6.213844">
		<ele>455</ele>
		<time>2011-09-11T11:36:37.941Z</time>
		<geoidheight>409</geoidheight>
	</trkpt>
	<trkpt lat="50.670686" lon="6.213852">
		<ele>456</ele>
		<time>2011-09-11T11:36:38.945Z</time>
		<geoidheight>410</geoidheight>
	</trkpt>
	<trkpt lat="50.670672" lon="6.213859">
		<ele>456</ele>
		<time>2011-09-11T11:36:39.943Z</time>
		<geoidheight>410</geoidheight>
	</trkpt>
	<trkpt lat="50.670657" lon="6.213867">
		<ele>456</ele>
		<time>2011-09-11T11:36:40.944Z</time>
		<geoidheight>410</geoidheight>
	</trkpt>
	<trkpt lat="50.670645" lon="6.213881">
		<ele>456</ele>
		<time>2011-09-11T11:36:41.945Z</time>
		<geoidheight>410</geoidheight>
	</trkpt>
	<trkpt lat="50.670633" lon="6.213897">
		<ele>456</ele>
		<time>2011-09-11T11:36:42.946Z</time>
		<geoidheight>410</geoidheight>
	</trkpt>
	<trkpt lat="50.670620" lon="6.213909">
		<ele>456</ele>
		<time>2011-09-11T11:36:43.942Z</time>
		<geoidheight>410</geoidheight>
	</trkpt>
	<trkpt lat="50.670610" lon="6.213926">
		<ele>456</ele>
		<time>2011-09-11T11:36:44.942Z</time>
		<geoidheight>410</geoidheight>
	</trkpt>
	<trkpt lat="50.670599" lon="6.213944">
		<ele>456</ele>
		<time>2011-09-11T11:36:45.943Z</time>
		<geoidheight>410</geoidheight>
	</trkpt>
	<trkpt lat="50.670589" lon="6.213960">
		<ele>457</ele>
		<time>2011-09-11T11:36:46.943Z</time>
		<geoidheight>411</geoidheight>
	</trkpt>
	<trkpt lat="50.670576" lon="6.213968">
		<ele>457</ele>
		<time>2011-09-11T11:36:47.941Z</time>
		<geoidheight>411</geoidheight>
	</trkpt>
	<trkpt lat="50.670563" lon="6.213979">
		<ele>457</ele>
		<time>2011-09-11T11:36:48.944Z</time>
		<geoidheight>411</geoidheight>
	</trkpt>
	<trkpt lat="50.670552" lon="6.213994">
		<ele>457</ele>
		<time>2011-09-11T11:36:49.943Z</time>
		<geoidheight>411</geoidheight>
	</trkpt>
	<trkpt lat="50.670542" lon="6.214010">
		<ele>457</ele>
		<time>2011-09-11T11:36:50.943Z</time>
		<geoidheight>411</geoidheight>
	</trkpt>
	<trkpt lat="50.670531" lon="6.214021">
		<ele>457</ele>
		<time>2011-09-11T11:36:51.943Z</time>
		<geoidheight>411</geoidheight>
	</trkpt>
	<trkpt lat="50.670522" lon="6.214036">
		<ele>457</ele>
		<time>2011-09-11T11:36:52.944Z</time>
		<geoidheight>411</geoidheight>
	</trkpt>
	<trkpt lat="50.670513" lon="6.214050">
		<ele>458</ele>
		<time>2011-09-11T11:36:53.953Z</time>
		<geoidheight>412</geoidheight>
	</trkpt>
	<trkpt lat="50.670506" lon="6.214069">
		<ele>458</ele>
		<time>2011-09-11T11:36:54.949Z</time>
		<geoidheight>412</geoidheight>
	</trkpt>
	<trkpt lat="50.670497" lon="6.214082">
		<ele>458</ele>
		<time>2011-09-11T11:36:55.947Z</time>
		<geoidheight>412</geoidheight>
	</trkpt>
	<trkpt lat="50.670487" lon="6.214092">
		<ele>458</ele>
		<time>2011-09-11T11:36:56.951Z</time>
		<geoidheight>412</geoidheight>
	</trkpt>
	<trkpt lat="50.670477" lon="6.214105">
		<ele>458</ele>
		<time>2011-09-11T11:36:57.949Z</time>
		<geoidheight>412</geoidheight>
	</trkpt>
	<trkpt lat="50.670467" lon="6.214117">
		<ele>458</ele>
		<time>2011-09-11T11:36:58.949Z</time>
		<geoidheight>412</geoidheight>
	</trkpt>
	<trkpt lat="50.670457" lon="6.214131">
		<ele>459</ele>
		<time>2011-09-11T11:36:59.955Z</time>
		<geoidheight>413</geoidheight>
	</trkpt>
	<trkpt lat="50.670447" lon="6.214147">
		<ele>459</ele>
		<time>2011-09-11T11:37:00.942Z</time>
		<geoidheight>413</geoidheight>
	</trkpt>
	<trkpt lat="50.670439" lon="6.214169">
		<ele>459</ele>
		<time>2011-09-11T11:37:01.942Z</time>
		<geoidheight>413</geoidheight>
	</trkpt>
	<trkpt lat="50.670430" lon="6.214190">
		<ele>459</ele>
		<time>2011-09-11T11:37:02.941Z</time>
		<geoidheight>413</geoidheight>
	</trkpt>
	<trkpt lat="50.670420" lon="6.214207">
		<ele>459</ele>
		<time>2011-09-11T11:37:03.942Z</time>
		<geoidheight>413</geoidheight>
	</trkpt>
	<trkpt lat="50.670406" lon="6.214213">
		<ele>459</ele>
		<time>2011-09-11T11:37:04.941Z</time>
		<geoidheight>413</geoidheight>
	</trkpt>
	<trkpt lat="50.670393" lon="6.214217">
		<ele>459</ele>
		<time>2011-09-11T11:37:05.942Z</time>
		<geoidheight>413</geoidheight>
	</trkpt>
	<trkpt lat="50.670380" lon="6.214224">
		<ele>460</ele>
		<time>2011-09-11T11:37:06.942Z</time>
		<geoidheight>414</geoidheight>
	</trkpt>
	<trkpt lat="50.670368" lon="6.214227">
		<ele>460</ele>
		<time>2011-09-11T11:37:07.943Z</time>
		<geoidheight>414</geoidheight>
	</trkpt>
	<trkpt lat="50.670354" lon="6.214226">
		<ele>460</ele>
		<time>2011-09-11T11:37:08.941Z</time>
		<geoidheight>414</geoidheight>
	</trkpt>
	<trkpt lat="50.670340" lon="6.214228">
		<ele>460</ele>
		<time>2011-09-11T11:37:09.952Z</time>
		<geoidheight>414</geoidheight>
	</trkpt>
	<trkpt lat="50.670328" lon="6.214239">
		<ele>460</ele>
		<time>2011-09-11T11:37:10.949Z</time>
		<geoidheight>414</geoidheight>
	</trkpt>
	<trkpt lat="50.670317" lon="6.214257">
		<ele>460</ele>
		<time>2011-09-11T11:37:11.957Z</time>
		<geoidheight>414</geoidheight>
	</trkpt>
	<trkpt lat="50.670310" lon="6.214285">
		<ele>460</ele>
		<time>2011-09-11T11:37:12.972Z</time>
		<geoidheight>414</geoidheight>
	</trkpt>
	<trkpt lat="50.670305" lon="6.214307">
		<ele>460</ele>
		<time>2011-09-11T11:37:13.974Z</time>
		<geoidheight>414</geoidheight>
	</trkpt>
	<trkpt lat="50.670303" lon="6.214331">
		<ele>461</ele>
		<time>2011-09-11T11:37:14.973Z</time>
		<geoidheight>415</geoidheight>
	</trkpt>
	<trkpt lat="50.670301" lon="6.214349">
		<ele>461</ele>
		<time>2011-09-11T11:37:15.974Z</time>
		<geoidheight>415</geoidheight>
	</trkpt>
	<trkpt lat="50.670297" lon="6.214364">
		<ele>461</ele>
		<time>2011-09-11T11:37:16.969Z</time>
		<geoidheight>415</geoidheight>
	</trkpt>
	<trkpt lat="50.670294" lon="6.214384">
		<ele>461</ele>
		<time>2011-09-11T11:37:17.955Z</time>
		<geoidheight>415</geoidheight>
	</trkpt>
	<trkpt lat="50.670291" lon="6.214403">
		<ele>461</ele>
		<time>2011-09-11T11:37:18.950Z</time>
		<geoidheight>415</geoidheight>
	</trkpt>
	<trkpt lat="50.670284" lon="6.214416">
		<ele>462</ele>
		<time>2011-09-11T11:37:19.944Z</time>
		<geoidheight>416</geoidheight>
	</trkpt>
	<trkpt lat="50.670275" lon="6.214426">
		<ele>462</ele>
		<time>2011-09-11T11:37:20.943Z</time>
		<geoidheight>416</geoidheight>
	</trkpt>
	<trkpt lat="50.670265" lon="6.214435">
		<ele>462</ele>
		<time>2011-09-11T11:37:21.942Z</time>
		<geoidheight>416</geoidheight>
	</trkpt>
	<trkpt lat="50.670257" lon="6.214451">
		<ele>462</ele>
		<time>2011-09-11T11:37:22.944Z</time>
		<geoidheight>416</geoidheight>
	</trkpt>
	<trkpt lat="50.670247" lon="6.214463">
		<ele>462</ele>
		<time>2011-09-11T11:37:23.949Z</time>
		<geoidheight>416</geoidheight>
	</trkpt>
	<trkpt lat="50.670241" lon="6.214478">
		<ele>462</ele>
		<time>2011-09-11T11:37:24.949Z</time>
		<geoidheight>416</geoidheight>
	</trkpt>
	<trkpt lat="50.670234" lon="6.214488">
		<ele>462</ele>
		<time>2011-09-11T11:37:25.951Z</time>
		<geoidheight>416</geoidheight>
	</trkpt>
	<trkpt lat="50.670226" lon="6.214499">
		<ele>462</ele>
		<time>2011-09-11T11:37:26.964Z</time>
		<geoidheight>416</geoidheight>
	</trkpt>
	<trkpt lat="50.670217" lon="6.214514">
		<ele>463</ele>
		<time>2011-09-11T11:37:27.951Z</time>
		<geoidheight>417</geoidheight>
	</trkpt>
	<trkpt lat="50.670208" lon="6.214531">
		<ele>463</ele>
		<time>2011-09-11T11:37:28.954Z</time>
		<geoidheight>417</geoidheight>
	</trkpt>
	<trkpt lat="50.670199" lon="6.214545">
		<ele>463</ele>
		<time>2011-09-11T11:37:29.953Z</time>
		<geoidheight>417</geoidheight>
	</trkpt>
	<trkpt lat="50.670194" lon="6.214557">
		<ele>463</ele>
		<time>2011-09-11T11:37:30.954Z</time>
		<geoidheight>417</geoidheight>
	</trkpt>
	<trkpt lat="50.670188" lon="6.214564">
		<ele>463</ele>
		<time>2011-09-11T11:37:31.961Z</time>
		<geoidheight>417</geoidheight>
	</trkpt>
	<trkpt lat="50.670181" lon="6.214578">
		<ele>463</ele>
		<time>2011-09-11T11:37:32.979Z</time>
		<geoidheight>417</geoidheight>
	</trkpt>
	<trkpt lat="50.670176" lon="6.214594">
		<ele>463</ele>
		<time>2011-09-11T11:37:33.948Z</time>
		<geoidheight>417</geoidheight>
	</trkpt>
	<trkpt lat="50.670167" lon="6.214607">
		<ele>464</ele>
		<time>2011-09-11T11:37:34.948Z</time>
		<geoidheight>418</geoidheight>
	</trkpt>
	<trkpt lat="50.670160" lon="6.214621">
		<ele>464</ele>
		<time>2011-09-11T11:37:35.951Z</time>
		<geoidheight>418</geoidheight>
	</trkpt>
	<trkpt lat="50.670153" lon="6.214633">
		<ele>464</ele>
		<time>2011-09-11T11:37:36.948Z</time>
		<geoidheight>418</geoidheight>
	</trkpt>
	<trkpt lat="50.670146" lon="6.214646">
		<ele>464</ele>
		<time>2011-09-11T11:37:37.951Z</time>
		<geoidheight>418</geoidheight>
	</trkpt>
	<trkpt lat="50.670142" lon="6.214667">
		<ele>464</ele>
		<time>2011-09-11T11:37:38.944Z</time>
		<geoidheight>418</geoidheight>
	</trkpt>
	<trkpt lat="50.670140" lon="6.214695">
		<ele>464</ele>
		<time>2011-09-11T11:37:39.945Z</time>
		<geoidheight>418</geoidheight>
	</trkpt>
	<trkpt lat="50.670139" lon="6.214718">
		<ele>464</ele>
		<time>2011-09-11T11:37:40.942Z</time>
		<geoidheight>418</geoidheight>
	</trkpt>
	<trkpt lat="50.670133" lon="6.214735">
		<ele>464</ele>
		<time>2011-09-11T11:37:41.943Z</time>
		<geoidheight>418</geoidheight>
	</trkpt>
	<trkpt lat="50.670126" lon="6.214749">
		<ele>465</ele>
		<time>2011-09-11T11:37:42.942Z</time>
		<geoidheight>419</geoidheight>
	</trkpt>
	<trkpt lat="50.670119" lon="6.214761">
		<ele>465</ele>
		<time>2011-09-11T11:37:43.942Z</time>
		<geoidheight>419</geoidheight>
	</trkpt>
	<trkpt lat="50.670113" lon="6.214776">
		<ele>465</ele>
		<time>2011-09-11T11:37:44.945Z</time>
		<geoidheight>419</geoidheight>
	</trkpt>
	<trkpt lat="50.670107" lon="6.214795">
		<ele>465</ele>
		<time>2011-09-11T11:37:45.942Z</time>
		<geoidheight>419</geoidheight>
	</trkpt>
	<trkpt lat="50.670104" lon="6.214823">
		<ele>465</ele>
		<time>2011-09-11T11:37:46.943Z</time>
		<geoidheight>419</geoidheight>
	</trkpt>
	<trkpt lat="50.670101" lon="6.214854">
		<ele>465</ele>
		<time>2011-09-11T11:37:47.944Z</time>
		<geoidheight>419</geoidheight>
	</trkpt>
	<trkpt lat="50.670098" lon="6.214888">
		<ele>466</ele>
		<time>2011-09-11T11:37:48.942Z</time>
		<geoidheight>420</geoidheight>
	</trkpt>
	<trkpt lat="50.670093" lon="6.214920">
		<ele>466</ele>
		<time>2011-09-11T11:37:49.942Z</time>
		<geoidheight>420</geoidheight>
	</trkpt>
	<trkpt lat="50.670089" lon="6.214952">
		<ele>466</ele>
		<time>2011-09-11T11:37:50.945Z</time>
		<geoidheight>420</geoidheight>
	</trkpt>
	<trkpt lat="50.670086" lon="6.214989">
		<ele>466</ele>
		<time>2011-09-11T11:37:51.942Z</time>
		<geoidheight>420</geoidheight>
	</trkpt>
	<trkpt lat="50.670086" lon="6.215023">
		<ele>467</ele>
		<time>2011-09-11T11:37:52.943Z</time>
		<geoidheight>421</geoidheight>
	</trkpt>
	<trkpt lat="50.670085" lon="6.215059">
		<ele>467</ele>
		<time>2011-09-11T11:37:53.950Z</time>
		<geoidheight>421</geoidheight>
	</trkpt>
	<trkpt lat="50.670085" lon="6.215093">
		<ele>467</ele>
		<time>2011-09-11T11:37:54.951Z</time>
		<geoidheight>421</geoidheight>
	</trkpt>
	<trkpt lat="50.670081" lon="6.215119">
		<ele>467</ele>
		<time>2011-09-11T11:37:55.952Z</time>
		<geoidheight>421</geoidheight>
	</trkpt>
	<trkpt lat="50.670078" lon="6.215142">
		<ele>468</ele>
		<time>2011-09-11T11:37:56.954Z</time>
		<geoidheight>422</geoidheight>
	</trkpt>
	<trkpt lat="50.670075" lon="6.215158">
		<ele>468</ele>
		<time>2011-09-11T11:37:57.949Z</time>
		<geoidheight>422</geoidheight>
	</trkpt>
	<trkpt lat="50.670072" lon="6.215175">
		<ele>468</ele>
		<time>2011-09-11T11:37:58.953Z</time>
		<geoidheight>422</geoidheight>
	</trkpt>
	<trkpt lat="50.670069" lon="6.215185">
		<ele>468</ele>
		<time>2011-09-11T11:37:59.947Z</time>
		<geoidheight>422</geoidheight>
	</trkpt>
	<trkpt lat="50.670065" lon="6.215201">
		<ele>469</ele>
		<time>2011-09-11T11:38:00.945Z</time>
		<geoidheight>423</geoidheight>
	</trkpt>
	<trkpt lat="50.670057" lon="6.215215">
		<ele>469</ele>
		<time>2011-09-11T11:38:01.942Z</time>
		<geoidheight>423</geoidheight>
	</trkpt>
	<trkpt lat="50.670050" lon="6.215232">
		<ele>469</ele>
		<time>2011-09-11T11:38:02.950Z</time>
		<geoidheight>423</geoidheight>
	</trkpt>
	<trkpt lat="50.670044" lon="6.215252">
		<ele>469</ele>
		<time>2011-09-11T11:38:03.949Z</time>
		<geoidheight>423</geoidheight>
	</trkpt>
	<trkpt lat="50.670033" lon="6.215266">
		<ele>470</ele>
		<time>2011-09-11T11:38:04.954Z</time>
		<geoidheight>424</geoidheight>
	</trkpt>
	<trkpt lat="50.670022" lon="6.215277">
		<ele>470</ele>
		<time>2011-09-11T11:38:05.953Z</time>
		<geoidheight>424</geoidheight>
	</trkpt>
	<trkpt lat="50.670009" lon="6.215285">
		<ele>470</ele>
		<time>2011-09-11T11:38:06.958Z</time>
		<geoidheight>424</geoidheight>
	</trkpt>
	<trkpt lat="50.669996" lon="6.215290">
		<ele>470</ele>
		<time>2011-09-11T11:38:07.964Z</time>
		<geoidheight>424</geoidheight>
	</trkpt>
	<trkpt lat="50.669982" lon="6.215292">
		<ele>471</ele>
		<time>2011-09-11T11:38:08.955Z</time>
		<geoidheight>425</geoidheight>
	</trkpt>
	<trkpt lat="50.669969" lon="6.215295">
		<ele>471</ele>
		<time>2011-09-11T11:38:09.948Z</time>
		<geoidheight>425</geoidheight>
	</trkpt>
	<trkpt lat="50.669960" lon="6.215304">
		<ele>471</ele>
		<time>2011-09-11T11:38:10.946Z</time>
		<geoidheight>425</geoidheight>
	</trkpt>
	<trkpt lat="50.669950" lon="6.215312">
		<ele>471</ele>
		<time>2011-09-11T11:38:11.954Z</time>
		<geoidheight>425</geoidheight>
	</trkpt>
	<trkpt lat="50.669938" lon="6.215322">
		<ele>472</ele>
		<time>2011-09-11T11:38:12.947Z</time>
		<geoidheight>426</geoidheight>
	</trkpt>
	<trkpt lat="50.669928" lon="6.215338">
		<ele>472</ele>
		<time>2011-09-11T11:38:13.964Z</time>
		<geoidheight>426</geoidheight>
	</trkpt>
	<trkpt lat="50.669917" lon="6.215354">
		<ele>472</ele>
		<time>2011-09-11T11:38:14.950Z</time>
		<geoidheight>426</geoidheight>
	</trkpt>
	<trkpt lat="50.669910" lon="6.215369">
		<ele>472</ele>
		<time>2011-09-11T11:38:15.950Z</time>
		<geoidheight>426</geoidheight>
	</trkpt>
	<trkpt lat="50.669903" lon="6.215380">
		<ele>472</ele>
		<time>2011-09-11T11:38:16.947Z</time>
		<geoidheight>426</geoidheight>
	</trkpt>
	<trkpt lat="50.669894" lon="6.215390">
		<ele>473</ele>
		<time>2011-09-11T11:38:17.951Z</time>
		<geoidheight>427</geoidheight>
	</trkpt>
	<trkpt lat="50.669884" lon="6.215396">
		<ele>473</ele>
		<time>2011-09-11T11:38:18.951Z</time>
		<geoidheight>427</geoidheight>
	</trkpt>
	<trkpt lat="50.669874" lon="6.215403">
		<ele>473</ele>
		<time>2011-09-11T11:38:19.948Z</time>
		<geoidheight>427</geoidheight>
	</trkpt>
	<trkpt lat="50.669867" lon="6.215417">
		<ele>473</ele>
		<time>2011-09-11T11:38:20.946Z</time>
		<geoidheight>427</geoidheight>
	</trkpt>
	<trkpt lat="50.669863" lon="6.215443">
		<ele>473</ele>
		<time>2011-09-11T11:38:21.950Z</time>
		<geoidheight>427</geoidheight>
	</trkpt>
	<trkpt lat="50.669860" lon="6.215471">
		<ele>474</ele>
		<time>2011-09-11T11:38:22.946Z</time>
		<geoidheight>428</geoidheight>
	</trkpt>
	<trkpt lat="50.669856" lon="6.215500">
		<ele>474</ele>
		<time>2011-09-11T11:38:23.954Z</time>
		<geoidheight>428</geoidheight>
	</trkpt>
	<trkpt lat="50.669854" lon="6.215531">
		<ele>474</ele>
		<time>2011-09-11T11:38:24.949Z</time>
		<geoidheight>428</geoidheight>
	</trkpt>
	<trkpt lat="50.669853" lon="6.215567">
		<ele>474</ele>
		<time>2011-09-11T11:38:25.951Z</time>
		<geoidheight>428</geoidheight>
	</trkpt>
	<trkpt lat="50.669852" lon="6.215598">
		<ele>475</ele>
		<time>2011-09-11T11:38:26.948Z</time>
		<geoidheight>429</geoidheight>
	</trkpt>
	<trkpt lat="50.669853" lon="6.215630">
		<ele>475</ele>
		<time>2011-09-11T11:38:27.946Z</time>
		<geoidheight>429</geoidheight>
	</trkpt>
	<trkpt lat="50.669853" lon="6.215660">
		<ele>475</ele>
		<time>2011-09-11T11:38:28.947Z</time>
		<geoidheight>429</geoidheight>
	</trkpt>
	<trkpt lat="50.669855" lon="6.215704">
		<ele>475</ele>
		<time>2011-09-11T11:38:29.954Z</time>
		<geoidheight>429</geoidheight>
	</trkpt>
	<trkpt lat="50.669857" lon="6.215748">
		<ele>475</ele>
		<time>2011-09-11T11:38:30.955Z</time>
		<geoidheight>429</geoidheight>
	</trkpt>
	<trkpt lat="50.669857" lon="6.215748">
		<ele>475</ele>
		<time>2011-09-11T11:38:31.965Z</time>
		<geoidheight>429</geoidheight>
	</trkpt>
	<trkpt lat="50.669866" lon="6.215820">
		<ele>475</ele>
		<time>2011-09-11T11:38:32.963Z</time>
		<geoidheight>429</geoidheight>
	</trkpt>
	<trkpt lat="50.669866" lon="6.215820">
		<ele>475</ele>
		<time>2011-09-11T11:38:33.968Z</time>
		<geoidheight>429</geoidheight>
	</trkpt>
	<trkpt lat="50.669866" lon="6.215820">
		<ele>475</ele>
		<time>2011-09-11T11:38:34.966Z</time>
		<geoidheight>429</geoidheight>
	</trkpt>
	<trkpt lat="50.669866" lon="6.215820">
		<ele>475</ele>
		<time>2011-09-11T11:38:35.962Z</time>
		<geoidheight>429</geoidheight>
	</trkpt>
	<trkpt lat="50.669866" lon="6.215820">
		<ele>475</ele>
		<time>2011-09-11T11:38:36.963Z</time>
		<geoidheight>429</geoidheight>
	</trkpt>
	<trkpt lat="50.669866" lon="6.215820">
		<ele>475</ele>
		<time>2011-09-11T11:38:37.967Z</time>
		<geoidheight>429</geoidheight>
	</trkpt>
	<trkpt lat="50.669887" lon="6.215892">
		<ele>475</ele>
		<time>2011-09-11T11:38:38.948Z</time>
		<geoidheight>429</geoidheight>
	</trkpt>
	<trkpt lat="50.669887" lon="6.215892">
		<ele>475</ele>
		<time>2011-09-11T11:38:39.956Z</time>
		<geoidheight>429</geoidheight>
	</trkpt>
	<trkpt lat="50.669887" lon="6.215892">
		<ele>475</ele>
		<time>2011-09-11T11:38:40.959Z</time>
		<geoidheight>429</geoidheight>
	</trkpt>
	<trkpt lat="50.669887" lon="6.215892">
		<ele>475</ele>
		<time>2011-09-11T11:38:41.965Z</time>
		<geoidheight>429</geoidheight>
	</trkpt>
	<trkpt lat="50.669887" lon="6.215892">
		<ele>475</ele>
		<time>2011-09-11T11:38:42.955Z</time>
		<geoidheight>429</geoidheight>
	</trkpt>
	<trkpt lat="50.669887" lon="6.215892">
		<ele>475</ele>
		<time>2011-09-11T11:38:43.951Z</time>
		<geoidheight>429</geoidheight>
	</trkpt>
	<trkpt lat="50.669887" lon="6.215892">
		<ele>475</ele>
		<time>2011-09-11T11:38:44.947Z</time>
		<geoidheight>429</geoidheight>
	</trkpt>
	<trkpt lat="50.669907" lon="6.215887">
		<ele>475</ele>
		<time>2011-09-11T11:38:45.947Z</time>
		<geoidheight>429</geoidheight>
	</trkpt>
	<trkpt lat="50.669904" lon="6.215893">
		<ele>475</ele>
		<time>2011-09-11T11:38:46.948Z</time>
		<geoidheight>429</geoidheight>
	</trkpt>
	<trkpt lat="50.669900" lon="6.215902">
		<ele>475</ele>
		<time>2011-09-11T11:38:47.947Z</time>
		<geoidheight>429</geoidheight>
	</trkpt>
	<trkpt lat="50.669895" lon="6.215911">
		<ele>475</ele>
		<time>2011-09-11T11:38:48.952Z</time>
		<geoidheight>429</geoidheight>
	</trkpt>
	<trkpt lat="50.669890" lon="6.215920">
		<ele>475</ele>
		<time>2011-09-11T11:38:49.953Z</time>
		<geoidheight>429</geoidheight>
	</trkpt>
	<trkpt lat="50.669882" lon="6.215928">
		<ele>475</ele>
		<time>2011-09-11T11:38:50.959Z</time>
		<geoidheight>429</geoidheight>
	</trkpt>
	<trkpt lat="50.669875" lon="6.215932">
		<ele>475</ele>
		<time>2011-09-11T11:38:51.959Z</time>
		<geoidheight>429</geoidheight>
	</trkpt>
	<trkpt lat="50.669869" lon="6.215935">
		<ele>475</ele>
		<time>2011-09-11T11:38:52.968Z</time>
		<geoidheight>429</geoidheight>
	</trkpt>
	<trkpt lat="50.669867" lon="6.215943">
		<ele>475</ele>
		<time>2011-09-11T11:38:53.961Z</time>
		<geoidheight>429</geoidheight>
	</trkpt>
	<trkpt lat="50.669867" lon="6.215943">
		<ele>474</ele>
		<time>2011-09-11T11:39:03.963Z</time>
		<geoidheight>428</geoidheight>
	</trkpt>
	<trkpt lat="50.669869" lon="6.215982">
		<ele>474</ele>
		<time>2011-09-11T11:39:04.961Z</time>
		<geoidheight>428</geoidheight>
	</trkpt>
	<trkpt lat="50.669862" lon="6.215979">
		<ele>474</ele>
		<time>2011-09-11T11:39:05.959Z</time>
		<geoidheight>428</geoidheight>
	</trkpt>
	<trkpt lat="50.669855" lon="6.215979">
		<ele>474</ele>
		<time>2011-09-11T11:39:06.964Z</time>
		<geoidheight>428</geoidheight>
	</trkpt>
	<trkpt lat="50.669847" lon="6.215975">
		<ele>474</ele>
		<time>2011-09-11T11:39:07.969Z</time>
		<geoidheight>428</geoidheight>
	</trkpt>
	<trkpt lat="50.669838" lon="6.215973">
		<ele>474</ele>
		<time>2011-09-11T11:39:08.965Z</time>
		<geoidheight>428</geoidheight>
	</trkpt>
	<trkpt lat="50.669828" lon="6.215972">
		<ele>474</ele>
		<time>2011-09-11T11:39:09.966Z</time>
		<geoidheight>428</geoidheight>
	</trkpt>
	<trkpt lat="50.669819" lon="6.215972">
		<ele>474</ele>
		<time>2011-09-11T11:39:10.965Z</time>
		<geoidheight>428</geoidheight>
	</trkpt>
	<trkpt lat="50.669811" lon="6.215971">
		<ele>474</ele>
		<time>2011-09-11T11:39:11.963Z</time>
		<geoidheight>428</geoidheight>
	</trkpt>
	<trkpt lat="50.669805" lon="6.215966">
		<ele>474</ele>
		<time>2011-09-11T11:39:12.961Z</time>
		<geoidheight>428</geoidheight>
	</trkpt>
	<trkpt lat="50.669797" lon="6.215962">
		<ele>474</ele>
		<time>2011-09-11T11:39:13.961Z</time>
		<geoidheight>428</geoidheight>
	</trkpt>
	<trkpt lat="50.669791" lon="6.215954">
		<ele>474</ele>
		<time>2011-09-11T11:39:14.966Z</time>
		<geoidheight>428</geoidheight>
	</trkpt>
	<trkpt lat="50.669784" lon="6.215948">
		<ele>474</ele>
		<time>2011-09-11T11:39:15.963Z</time>
		<geoidheight>428</geoidheight>
	</trkpt>
	<trkpt lat="50.669778" lon="6.215941">
		<ele>474</ele>
		<time>2011-09-11T11:39:16.967Z</time>
		<geoidheight>428</geoidheight>
	</trkpt>
	<trkpt lat="50.669768" lon="6.215940">
		<ele>474</ele>
		<time>2011-09-11T11:39:17.966Z</time>
		<geoidheight>428</geoidheight>
	</trkpt>
	<trkpt lat="50.669760" lon="6.215934">
		<ele>474</ele>
		<time>2011-09-11T11:39:18.962Z</time>
		<geoidheight>428</geoidheight>
	</trkpt>
	<trkpt lat="50.669754" lon="6.215924">
		<ele>474</ele>
		<time>2011-09-11T11:39:19.961Z</time>
		<geoidheight>428</geoidheight>
	</trkpt>
	<trkpt lat="50.669747" lon="6.215915">
		<ele>474</ele>
		<time>2011-09-11T11:39:20.966Z</time>
		<geoidheight>428</geoidheight>
	</trkpt>
	<trkpt lat="50.669740" lon="6.215904">
		<ele>474</ele>
		<time>2011-09-11T11:39:21.965Z</time>
		<geoidheight>428</geoidheight>
	</trkpt>
	<trkpt lat="50.669734" lon="6.215888">
		<ele>474</ele>
		<time>2011-09-11T11:39:22.961Z</time>
		<geoidheight>428</geoidheight>
	</trkpt>
	<trkpt lat="50.669728" lon="6.215874">
		<ele>474</ele>
		<time>2011-09-11T11:39:23.962Z</time>
		<geoidheight>428</geoidheight>
	</trkpt>
	<trkpt lat="50.669721" lon="6.215862">
		<ele>474</ele>
		<time>2011-09-11T11:39:24.964Z</time>
		<geoidheight>428</geoidheight>
	</trkpt>
	<trkpt lat="50.669713" lon="6.215853">
		<ele>474</ele>
		<time>2011-09-11T11:39:25.962Z</time>
		<geoidheight>428</geoidheight>
	</trkpt>
	<trkpt lat="50.669703" lon="6.215845">
		<ele>474</ele>
		<time>2011-09-11T11:39:26.964Z</time>
		<geoidheight>428</geoidheight>
	</trkpt>
	<trkpt lat="50.669693" lon="6.215833">
		<ele>474</ele>
		<time>2011-09-11T11:39:27.967Z</time>
		<geoidheight>428</geoidheight>
	</trkpt>
	<trkpt lat="50.669682" lon="6.215820">
		<ele>474</ele>
		<time>2011-09-11T11:39:28.962Z</time>
		<geoidheight>428</geoidheight>
	</trkpt>
	<trkpt lat="50.669671" lon="6.215808">
		<ele>473</ele>
		<time>2011-09-11T11:39:29.962Z</time>
		<geoidheight>427</geoidheight>
	</trkpt>
	<trkpt lat="50.669661" lon="6.215795">
		<ele>473</ele>
		<time>2011-09-11T11:39:30.968Z</time>
		<geoidheight>427</geoidheight>
	</trkpt>
	<trkpt lat="50.669652" lon="6.215781">
		<ele>473</ele>
		<time>2011-09-11T11:39:31.963Z</time>
		<geoidheight>427</geoidheight>
	</trkpt>
	<trkpt lat="50.669642" lon="6.215771">
		<ele>473</ele>
		<time>2011-09-11T11:39:32.968Z</time>
		<geoidheight>427</geoidheight>
	</trkpt>
	<trkpt lat="50.669633" lon="6.215758">
		<ele>473</ele>
		<time>2011-09-11T11:39:33.964Z</time>
		<geoidheight>427</geoidheight>
	</trkpt>
	<trkpt lat="50.669625" lon="6.215744">
		<ele>473</ele>
		<time>2011-09-11T11:39:34.964Z</time>
		<geoidheight>427</geoidheight>
	</trkpt>
	<trkpt lat="50.669617" lon="6.215729">
		<ele>473</ele>
		<time>2011-09-11T11:39:35.965Z</time>
		<geoidheight>427</geoidheight>
	</trkpt>
	<trkpt lat="50.669607" lon="6.215719">
		<ele>473</ele>
		<time>2011-09-11T11:39:36.958Z</time>
		<geoidheight>427</geoidheight>
	</trkpt>
	<trkpt lat="50.669597" lon="6.215710">
		<ele>473</ele>
		<time>2011-09-11T11:39:37.951Z</time>
		<geoidheight>427</geoidheight>
	</trkpt>
	<trkpt lat="50.669586" lon="6.215700">
		<ele>473</ele>
		<time>2011-09-11T11:39:38.955Z</time>
		<geoidheight>427</geoidheight>
	</trkpt>
	<trkpt lat="50.669576" lon="6.215688">
		<ele>473</ele>
		<time>2011-09-11T11:39:39.954Z</time>
		<geoidheight>427</geoidheight>
	</trkpt>
	<trkpt lat="50.669566" lon="6.215674">
		<ele>473</ele>
		<time>2011-09-11T11:39:40.952Z</time>
		<geoidheight>427</geoidheight>
	</trkpt>
	<trkpt lat="50.669554" lon="6.215661">
		<ele>473</ele>
		<time>2011-09-11T11:39:41.951Z</time>
		<geoidheight>427</geoidheight>
	</trkpt>
	<trkpt lat="50.669543" lon="6.215645">
		<ele>473</ele>
		<time>2011-09-11T11:39:42.950Z</time>
		<geoidheight>427</geoidheight>
	</trkpt>
	<trkpt lat="50.669533" lon="6.215629">
		<ele>473</ele>
		<time>2011-09-11T11:39:43.950Z</time>
		<geoidheight>427</geoidheight>
	</trkpt>
	<trkpt lat="50.669522" lon="6.215614">
		<ele>473</ele>
		<time>2011-09-11T11:39:44.981Z</time>
		<geoidheight>427</geoidheight>
	</trkpt>
	<trkpt lat="50.669511" lon="6.215598">
		<ele>473</ele>
		<time>2011-09-11T11:39:45.953Z</time>
		<geoidheight>427</geoidheight>
	</trkpt>
	<trkpt lat="50.669499" lon="6.215587">
		<ele>474</ele>
		<time>2011-09-11T11:39:46.954Z</time>
		<geoidheight>428</geoidheight>
	</trkpt>
	<trkpt lat="50.669488" lon="6.215572">
		<ele>474</ele>
		<time>2011-09-11T11:39:47.949Z</time>
		<geoidheight>428</geoidheight>
	</trkpt>
	<trkpt lat="50.669476" lon="6.215556">
		<ele>474</ele>
		<time>2011-09-11T11:39:48.954Z</time>
		<geoidheight>428</geoidheight>
	</trkpt>
	<trkpt lat="50.669466" lon="6.215539">
		<ele>474</ele>
		<time>2011-09-11T11:39:49.950Z</time>
		<geoidheight>428</geoidheight>
	</trkpt>
	<trkpt lat="50.669456" lon="6.215523">
		<ele>474</ele>
		<time>2011-09-11T11:39:50.953Z</time>
		<geoidheight>428</geoidheight>
	</trkpt>
	<trkpt lat="50.669445" lon="6.215516">
		<ele>474</ele>
		<time>2011-09-11T11:39:51.952Z</time>
		<geoidheight>428</geoidheight>
	</trkpt>
	<trkpt lat="50.669434" lon="6.215507">
		<ele>474</ele>
		<time>2011-09-11T11:39:52.952Z</time>
		<geoidheight>428</geoidheight>
	</trkpt>
	<trkpt lat="50.669422" lon="6.215497">
		<ele>474</ele>
		<time>2011-09-11T11:39:53.975Z</time>
		<geoidheight>428</geoidheight>
	</trkpt>
	<trkpt lat="50.669411" lon="6.215484">
		<ele>474</ele>
		<time>2011-09-11T11:39:54.960Z</time>
		<geoidheight>428</geoidheight>
	</trkpt>
	<trkpt lat="50.669402" lon="6.215472">
		<ele>474</ele>
		<time>2011-09-11T11:39:55.953Z</time>
		<geoidheight>428</geoidheight>
	</trkpt>
	<trkpt lat="50.669391" lon="6.215464">
		<ele>474</ele>
		<time>2011-09-11T11:39:56.947Z</time>
		<geoidheight>428</geoidheight>
	</trkpt>
	<trkpt lat="50.669380" lon="6.215456">
		<ele>474</ele>
		<time>2011-09-11T11:39:57.950Z</time>
		<geoidheight>428</geoidheight>
	</trkpt>
	<trkpt lat="50.669373" lon="6.215444">
		<ele>474</ele>
		<time>2011-09-11T11:39:58.951Z</time>
		<geoidheight>428</geoidheight>
	</trkpt>
	<trkpt lat="50.669362" lon="6.215436">
		<ele>474</ele>
		<time>2011-09-11T11:39:59.960Z</time>
		<geoidheight>428</geoidheight>
	</trkpt>
	<trkpt lat="50.669351" lon="6.215426">
		<ele>474</ele>
		<time>2011-09-11T11:40:00.965Z</time>
		<geoidheight>428</geoidheight>
	</trkpt>
	<trkpt lat="50.669344" lon="6.215413">
		<ele>474</ele>
		<time>2011-09-11T11:40:01.965Z</time>
		<geoidheight>428</geoidheight>
	</trkpt>
	<trkpt lat="50.669335" lon="6.215400">
		<ele>474</ele>
		<time>2011-09-11T11:40:02.965Z</time>
		<geoidheight>428</geoidheight>
	</trkpt>
	<trkpt lat="50.669326" lon="6.215388">
		<ele>474</ele>
		<time>2011-09-11T11:40:03.969Z</time>
		<geoidheight>428</geoidheight>
	</trkpt>
	<trkpt lat="50.669316" lon="6.215377">
		<ele>474</ele>
		<time>2011-09-11T11:40:04.966Z</time>
		<geoidheight>428</geoidheight>
	</trkpt>
	<trkpt lat="50.669304" lon="6.215365">
		<ele>474</ele>
		<time>2011-09-11T11:40:05.963Z</time>
		<geoidheight>428</geoidheight>
	</trkpt>
	<trkpt lat="50.669295" lon="6.215348">
		<ele>474</ele>
		<time>2011-09-11T11:40:06.966Z</time>
		<geoidheight>428</geoidheight>
	</trkpt>
	<trkpt lat="50.669286" lon="6.215334">
		<ele>474</ele>
		<time>2011-09-11T11:40:07.954Z</time>
		<geoidheight>428</geoidheight>
	</trkpt>
	<trkpt lat="50.669277" lon="6.215322">
		<ele>475</ele>
		<time>2011-09-11T11:40:08.946Z</time>
		<geoidheight>429</geoidheight>
	</trkpt>
	<trkpt lat="50.669268" lon="6.215312">
		<ele>475</ele>
		<time>2011-09-11T11:40:09.953Z</time>
		<geoidheight>429</geoidheight>
	</trkpt>
	<trkpt lat="50.669259" lon="6.215301">
		<ele>475</ele>
		<time>2011-09-11T11:40:10.954Z</time>
		<geoidheight>429</geoidheight>
	</trkpt>
	<trkpt lat="50.669249" lon="6.215292">
		<ele>475</ele>
		<time>2011-09-11T11:40:11.959Z</time>
		<geoidheight>429</geoidheight>
	</trkpt>
	<trkpt lat="50.669242" lon="6.215277">
		<ele>475</ele>
		<time>2011-09-11T11:40:12.958Z</time>
		<geoidheight>429</geoidheight>
	</trkpt>
	<trkpt lat="50.669231" lon="6.215266">
		<ele>475</ele>
		<time>2011-09-11T11:40:13.952Z</time>
		<geoidheight>429</geoidheight>
	</trkpt>
	<trkpt lat="50.669221" lon="6.215253">
		<ele>475</ele>
		<time>2011-09-11T11:40:14.951Z</time>
		<geoidheight>429</geoidheight>
	</trkpt>
	<trkpt lat="50.669212" lon="6.215234">
		<ele>475</ele>
		<time>2011-09-11T11:40:15.954Z</time>
		<geoidheight>429</geoidheight>
	</trkpt>
	<trkpt lat="50.669204" lon="6.215214">
		<ele>475</ele>
		<time>2011-09-11T11:40:16.952Z</time>
		<geoidheight>429</geoidheight>
	</trkpt>
	<trkpt lat="50.669196" lon="6.215196">
		<ele>475</ele>
		<time>2011-09-11T11:40:17.952Z</time>
		<geoidheight>429</geoidheight>
	</trkpt>
	<trkpt lat="50.669186" lon="6.215186">
		<ele>475</ele>
		<time>2011-09-11T11:40:18.949Z</time>
		<geoidheight>429</geoidheight>
	</trkpt>
	<trkpt lat="50.669177" lon="6.215173">
		<ele>475</ele>
		<time>2011-09-11T11:40:19.952Z</time>
		<geoidheight>429</geoidheight>
	</trkpt>
	<trkpt lat="50.669170" lon="6.215156">
		<ele>475</ele>
		<time>2011-09-11T11:40:20.951Z</time>
		<geoidheight>429</geoidheight>
	</trkpt>
	<trkpt lat="50.669164" lon="6.215139">
		<ele>475</ele>
		<time>2011-09-11T11:40:21.954Z</time>
		<geoidheight>429</geoidheight>
	</trkpt>
	<trkpt lat="50.669154" lon="6.215127">
		<ele>476</ele>
		<time>2011-09-11T11:40:22.952Z</time>
		<geoidheight>430</geoidheight>
	</trkpt>
	<trkpt lat="50.669142" lon="6.215114">
		<ele>476</ele>
		<time>2011-09-11T11:40:23.949Z</time>
		<geoidheight>430</geoidheight>
	</trkpt>
	<trkpt lat="50.669130" lon="6.215099">
		<ele>476</ele>
		<time>2011-09-11T11:40:24.948Z</time>
		<geoidheight>430</geoidheight>
	</trkpt>
	<trkpt lat="50.669116" lon="6.215084">
		<ele>476</ele>
		<time>2011-09-11T11:40:25.955Z</time>
		<geoidheight>430</geoidheight>
	</trkpt>
	<trkpt lat="50.669104" lon="6.215068">
		<ele>476</ele>
		<time>2011-09-11T11:40:26.951Z</time>
		<geoidheight>430</geoidheight>
	</trkpt>
	<trkpt lat="50.669088" lon="6.215059">
		<ele>476</ele>
		<time>2011-09-11T11:40:27.948Z</time>
		<geoidheight>430</geoidheight>
	</trkpt>
	<trkpt lat="50.669075" lon="6.215047">
		<ele>476</ele>
		<time>2011-09-11T11:40:28.951Z</time>
		<geoidheight>430</geoidheight>
	</trkpt>
	<trkpt lat="50.669062" lon="6.215037">
		<ele>476</ele>
		<time>2011-09-11T11:40:29.951Z</time>
		<geoidheight>430</geoidheight>
	</trkpt>
	<trkpt lat="50.669050" lon="6.215025">
		<ele>476</ele>
		<time>2011-09-11T11:40:30.951Z</time>
		<geoidheight>430</geoidheight>
	</trkpt>
	<trkpt lat="50.669042" lon="6.215014">
		<ele>476</ele>
		<time>2011-09-11T11:40:31.945Z</time>
		<geoidheight>430</geoidheight>
	</trkpt>
	<trkpt lat="50.669036" lon="6.215005">
		<ele>476</ele>
		<time>2011-09-11T11:40:32.953Z</time>
		<geoidheight>430</geoidheight>
	</trkpt>
	<trkpt lat="50.669036" lon="6.215005">
		<ele>476</ele>
		<time>2011-09-11T11:40:33.954Z</time>
		<geoidheight>430</geoidheight>
	</trkpt>
	<trkpt lat="50.669036" lon="6.215005">
		<ele>476</ele>
		<time>2011-09-11T11:40:34.947Z</time>
		<geoidheight>430</geoidheight>
	</trkpt>
	<trkpt lat="50.669036" lon="6.215005">
		<ele>476</ele>
		<time>2011-09-11T11:40:35.965Z</time>
		<geoidheight>430</geoidheight>
	</trkpt>
	<trkpt lat="50.669036" lon="6.215005">
		<ele>476</ele>
		<time>2011-09-11T11:40:36.961Z</time>
		<geoidheight>430</geoidheight>
	</trkpt>
	<trkpt lat="50.669036" lon="6.215005">
		<ele>476</ele>
		<time>2011-09-11T11:40:37.962Z</time>
		<geoidheight>430</geoidheight>
	</trkpt>
	<trkpt lat="50.669036" lon="6.215005">
		<ele>476</ele>
		<time>2011-09-11T11:40:38.966Z</time>
		<geoidheight>430</geoidheight>
	</trkpt>
	<trkpt lat="50.669036" lon="6.215005">
		<ele>476</ele>
		<time>2011-09-11T11:40:39.969Z</time>
		<geoidheight>430</geoidheight>
	</trkpt>
	<trkpt lat="50.669056" lon="6.214930">
		<ele>476</ele>
		<time>2011-09-11T11:40:40.959Z</time>
		<geoidheight>430</geoidheight>
	</trkpt>
	<trkpt lat="50.669056" lon="6.214930">
		<ele>476</ele>
		<time>2011-09-11T11:40:41.965Z</time>
		<geoidheight>430</geoidheight>
	</trkpt>
	<trkpt lat="50.669056" lon="6.214930">
		<ele>476</ele>
		<time>2011-09-11T11:40:42.961Z</time>
		<geoidheight>430</geoidheight>
	</trkpt>
	<trkpt lat="50.669056" lon="6.214930">
		<ele>476</ele>
		<time>2011-09-11T11:40:43.963Z</time>
		<geoidheight>430</geoidheight>
	</trkpt>
	<trkpt lat="50.669066" lon="6.214904">
		<ele>476</ele>
		<time>2011-09-11T11:40:44.960Z</time>
		<geoidheight>430</geoidheight>
	</trkpt>
	<trkpt lat="50.669066" lon="6.214904">
		<ele>476</ele>
		<time>2011-09-11T11:40:45.965Z</time>
		<geoidheight>430</geoidheight>
	</trkpt>
	<trkpt lat="50.669066" lon="6.214904">
		<ele>476</ele>
		<time>2011-09-11T11:40:46.968Z</time>
		<geoidheight>430</geoidheight>
	</trkpt>
	<trkpt lat="50.669066" lon="6.214904">
		<ele>476</ele>
		<time>2011-09-11T11:40:47.963Z</time>
		<geoidheight>430</geoidheight>
	</trkpt>
	<trkpt lat="50.669066" lon="6.214904">
		<ele>476</ele>
		<time>2011-09-11T11:40:48.967Z</time>
		<geoidheight>430</geoidheight>
	</trkpt>
	<trkpt lat="50.669066" lon="6.214904">
		<ele>476</ele>
		<time>2011-09-11T11:40:49.965Z</time>
		<geoidheight>430</geoidheight>
	</trkpt>
	<trkpt lat="50.669066" lon="6.214904">
		<ele>476</ele>
		<time>2011-09-11T11:40:50.972Z</time>
		<geoidheight>430</geoidheight>
	</trkpt>
	<trkpt lat="50.669066" lon="6.214904">
		<ele>476</ele>
		<time>2011-09-11T11:40:51.967Z</time>
		<geoidheight>430</geoidheight>
	</trkpt>
	<trkpt lat="50.669066" lon="6.214904">
		<ele>476</ele>
		<time>2011-09-11T11:40:52.963Z</time>
		<geoidheight>430</geoidheight>
	</trkpt>
	<trkpt lat="50.669066" lon="6.214904">
		<ele>476</ele>
		<time>2011-09-11T11:40:53.965Z</time>
		<geoidheight>430</geoidheight>
	</trkpt>
	<trkpt lat="50.669066" lon="6.214904">
		<ele>476</ele>
		<time>2011-09-11T11:40:54.967Z</time>
		<geoidheight>430</geoidheight>
	</trkpt>
	<trkpt lat="50.669066" lon="6.214904">
		<ele>476</ele>
		<time>2011-09-11T11:41:04.959Z</time>
		<geoidheight>430</geoidheight>
	</trkpt>
	<trkpt lat="50.669019" lon="6.214917">
		<ele>476</ele>
		<time>2011-09-11T11:41:05.964Z</time>
		<geoidheight>430</geoidheight>
	</trkpt>
	<trkpt lat="50.669019" lon="6.214917">
		<ele>475</ele>
		<time>2011-09-11T11:41:11.957Z</time>
		<geoidheight>429</geoidheight>
	</trkpt>
	<trkpt lat="50.668982" lon="6.214900">
		<ele>475</ele>
		<time>2011-09-11T11:41:12.970Z</time>
		<geoidheight>429</geoidheight>
	</trkpt>
	<trkpt lat="50.668982" lon="6.214900">
		<ele>475</ele>
		<time>2011-09-11T11:41:21.953Z</time>
		<geoidheight>429</geoidheight>
	</trkpt>
	<trkpt lat="50.668962" lon="6.214969">
		<ele>475</ele>
		<time>2011-09-11T11:41:22.954Z</time>
		<geoidheight>429</geoidheight>
	</trkpt>
	<trkpt lat="50.668962" lon="6.214969">
		<ele>474</ele>
		<time>2011-09-11T11:41:33.959Z</time>
		<geoidheight>428</geoidheight>
	</trkpt>
	<trkpt lat="50.668986" lon="6.214897">
		<ele>474</ele>
		<time>2011-09-11T11:41:34.959Z</time>
		<geoidheight>428</geoidheight>
	</trkpt>
	<trkpt lat="50.668986" lon="6.214897">
		<ele>474</ele>
		<time>2011-09-11T11:41:39.955Z</time>
		<geoidheight>428</geoidheight>
	</trkpt>
	<trkpt lat="50.669026" lon="6.214862">
		<ele>474</ele>
		<time>2011-09-11T11:41:40.949Z</time>
		<geoidheight>428</geoidheight>
	</trkpt>
	<trkpt lat="50.669026" lon="6.214862">
		<ele>474</ele>
		<time>2011-09-11T11:41:47.954Z</time>
		<geoidheight>428</geoidheight>
	</trkpt>
	<trkpt lat="50.669055" lon="6.214917">
		<ele>474</ele>
		<time>2011-09-11T11:41:48.947Z</time>
		<geoidheight>428</geoidheight>
	</trkpt>
	<trkpt lat="50.669055" lon="6.214917">
		<ele>474</ele>
		<time>2011-09-11T11:41:56.953Z</time>
		<geoidheight>428</geoidheight>
	</trkpt>
	<trkpt lat="50.669045" lon="6.214987">
		<ele>474</ele>
		<time>2011-09-11T11:41:57.964Z</time>
		<geoidheight>428</geoidheight>
	</trkpt>
	<trkpt lat="50.669045" lon="6.214987">
		<ele>474</ele>
		<time>2011-09-11T11:42:11.957Z</time>
		<geoidheight>428</geoidheight>
	</trkpt>
	<trkpt lat="50.669003" lon="6.215012">
		<ele>474</ele>
		<time>2011-09-11T11:42:12.961Z</time>
		<geoidheight>428</geoidheight>
	</trkpt>
	<trkpt lat="50.669003" lon="6.215012">
		<ele>473</ele>
		<time>2011-09-11T11:42:25.958Z</time>
		<geoidheight>427</geoidheight>
	</trkpt>
	<trkpt lat="50.668973" lon="6.214958">
		<ele>473</ele>
		<time>2011-09-11T11:42:26.959Z</time>
		<geoidheight>427</geoidheight>
	</trkpt>
	<trkpt lat="50.668973" lon="6.214958">
		<ele>473</ele>
		<time>2011-09-11T11:42:34.954Z</time>
		<geoidheight>427</geoidheight>
	</trkpt>
	<trkpt lat="50.668935" lon="6.214920">
		<ele>473</ele>
		<time>2011-09-11T11:42:35.961Z</time>
		<geoidheight>427</geoidheight>
	</trkpt>
	<trkpt lat="50.668935" lon="6.214920">
		<ele>473</ele>
		<time>2011-09-11T11:42:52.948Z</time>
		<geoidheight>427</geoidheight>
	</trkpt>
	<trkpt lat="50.668918" lon="6.214853">
		<ele>472</ele>
		<time>2011-09-11T11:42:53.948Z</time>
		<geoidheight>426</geoidheight>
	</trkpt>
	<trkpt lat="50.668918" lon="6.214853">
		<ele>472</ele>
		<time>2011-09-11T11:43:17.949Z</time>
		<geoidheight>426</geoidheight>
	</trkpt>
	<trkpt lat="50.668871" lon="6.214807">
		<ele>472</ele>
		<time>2011-09-11T11:43:18.946Z</time>
		<geoidheight>426</geoidheight>
	</trkpt>
	<trkpt lat="50.668871" lon="6.214807">
		<ele>471</ele>
		<time>2011-09-11T11:43:21.959Z</time>
		<geoidheight>425</geoidheight>
	</trkpt>
	<trkpt lat="50.668825" lon="6.214778">
		<ele>471</ele>
		<time>2011-09-11T11:43:22.961Z</time>
		<geoidheight>425</geoidheight>
	</trkpt>
	<trkpt lat="50.668825" lon="6.214778">
		<ele>469</ele>
		<time>2011-09-11T11:43:41.950Z</time>
		<geoidheight>423</geoidheight>
	</trkpt>
	<trkpt lat="50.668863" lon="6.214830">
		<ele>469</ele>
		<time>2011-09-11T11:43:42.951Z</time>
		<geoidheight>423</geoidheight>
	</trkpt>
	<trkpt lat="50.668863" lon="6.214830">
		<ele>468</ele>
		<time>2011-09-11T11:43:45.949Z</time>
		<geoidheight>422</geoidheight>
	</trkpt>
	<trkpt lat="50.668902" lon="6.214867">
		<ele>468</ele>
		<time>2011-09-11T11:43:46.951Z</time>
		<geoidheight>422</geoidheight>
	</trkpt>
	<trkpt lat="50.668902" lon="6.214867">
		<ele>468</ele>
		<time>2011-09-11T11:43:51.956Z</time>
		<geoidheight>422</geoidheight>
	</trkpt>
	<trkpt lat="50.668930" lon="6.214936">
		<ele>468</ele>
		<time>2011-09-11T11:43:52.971Z</time>
		<geoidheight>422</geoidheight>
	</trkpt>
	<trkpt lat="50.668930" lon="6.214936">
		<ele>466</ele>
		<time>2011-09-11T11:44:15.976Z</time>
		<geoidheight>420</geoidheight>
	</trkpt>
	<trkpt lat="50.668910" lon="6.215003">
		<ele>466</ele>
		<time>2011-09-11T11:44:16.971Z</time>
		<geoidheight>420</geoidheight>
	</trkpt>
	<trkpt lat="50.668910" lon="6.215003">
		<ele>465</ele>
		<time>2011-09-11T11:44:28.961Z</time>
		<geoidheight>419</geoidheight>
	</trkpt>
	<trkpt lat="50.668959" lon="6.214965">
		<ele>465</ele>
		<time>2011-09-11T11:44:29.961Z</time>
		<geoidheight>419</geoidheight>
	</trkpt>
	<trkpt lat="50.668959" lon="6.214965">
		<ele>465</ele>
		<time>2011-09-11T11:44:33.959Z</time>
		<geoidheight>419</geoidheight>
	</trkpt>
	<trkpt lat="50.668997" lon="6.214918">
		<ele>465</ele>
		<time>2011-09-11T11:44:34.957Z</time>
		<geoidheight>419</geoidheight>
	</trkpt>
	<trkpt lat="50.668997" lon="6.214918">
		<ele>465</ele>
		<time>2011-09-11T11:44:42.958Z</time>
		<geoidheight>419</geoidheight>
	</trkpt>
	<trkpt lat="50.669039" lon="6.214884">
		<ele>465</ele>
		<time>2011-09-11T11:44:43.958Z</time>
		<geoidheight>419</geoidheight>
	</trkpt>
	<trkpt lat="50.669039" lon="6.214884">
		<ele>465</ele>
		<time>2011-09-11T11:44:55.961Z</time>
		<geoidheight>419</geoidheight>
	</trkpt>
	<trkpt lat="50.669044" lon="6.214957">
		<ele>465</ele>
		<time>2011-09-11T11:44:56.959Z</time>
		<geoidheight>419</geoidheight>
	</trkpt>
	<trkpt lat="50.669044" lon="6.214957">
		<ele>465</ele>
		<time>2011-09-11T11:45:08.950Z</time>
		<geoidheight>419</geoidheight>
	</trkpt>
	<trkpt lat="50.669032" lon="6.214943">
		<ele>465</ele>
		<time>2011-09-11T11:45:09.953Z</time>
		<geoidheight>419</geoidheight>
	</trkpt>
	<trkpt lat="50.669032" lon="6.214943">
		<ele>464</ele>
		<time>2011-09-11T11:45:21.984Z</time>
		<geoidheight>418</geoidheight>
	</trkpt>
	<trkpt lat="50.669005" lon="6.214933">
		<ele>464</ele>
		<time>2011-09-11T11:45:22.992Z</time>
		<geoidheight>418</geoidheight>
	</trkpt>
	<trkpt lat="50.668999" lon="6.214924">
		<ele>464</ele>
		<time>2011-09-11T11:45:23.982Z</time>
		<geoidheight>418</geoidheight>
	</trkpt>
	<trkpt lat="50.668992" lon="6.214917">
		<ele>464</ele>
		<time>2011-09-11T11:45:24.974Z</time>
		<geoidheight>418</geoidheight>
	</trkpt>
	<trkpt lat="50.668984" lon="6.214911">
		<ele>464</ele>
		<time>2011-09-11T11:45:25.982Z</time>
		<geoidheight>418</geoidheight>
	</trkpt>
	<trkpt lat="50.668977" lon="6.214906">
		<ele>464</ele>
		<time>2011-09-11T11:45:26.994Z</time>
		<geoidheight>418</geoidheight>
	</trkpt>
	<trkpt lat="50.668970" lon="6.214900">
		<ele>464</ele>
		<time>2011-09-11T11:45:27.981Z</time>
		<geoidheight>418</geoidheight>
	</trkpt>
	<trkpt lat="50.668964" lon="6.214894">
		<ele>464</ele>
		<time>2011-09-11T11:45:28.971Z</time>
		<geoidheight>418</geoidheight>
	</trkpt>
	<trkpt lat="50.668959" lon="6.214896">
		<ele>464</ele>
		<time>2011-09-11T11:45:43.986Z</time>
		<geoidheight>418</geoidheight>
	</trkpt>
	<trkpt lat="50.668953" lon="6.214820">
		<ele>464</ele>
		<time>2011-09-11T11:45:44.982Z</time>
		<geoidheight>418</geoidheight>
	</trkpt>
	<trkpt lat="50.668953" lon="6.214820">
		<ele>464</ele>
		<time>2011-09-11T11:45:50.975Z</time>
		<geoidheight>418</geoidheight>
	</trkpt>
	<trkpt lat="50.668918" lon="6.214798">
		<ele>464</ele>
		<time>2011-09-11T11:45:51.985Z</time>
		<geoidheight>418</geoidheight>
	</trkpt>
	<trkpt lat="50.668910" lon="6.214792">
		<ele>464</ele>
		<time>2011-09-11T11:45:52.985Z</time>
		<geoidheight>418</geoidheight>
	</trkpt>
	<trkpt lat="50.668900" lon="6.214786">
		<ele>463</ele>
		<time>2011-09-11T11:45:53.974Z</time>
		<geoidheight>417</geoidheight>
	</trkpt>
	<trkpt lat="50.668889" lon="6.214778">
		<ele>463</ele>
		<time>2011-09-11T11:45:54.979Z</time>
		<geoidheight>417</geoidheight>
	</trkpt>
	<trkpt lat="50.668879" lon="6.214772">
		<ele>463</ele>
		<time>2011-09-11T11:45:55.983Z</time>
		<geoidheight>417</geoidheight>
	</trkpt>
	<trkpt lat="50.668870" lon="6.214763">
		<ele>463</ele>
		<time>2011-09-11T11:45:56.978Z</time>
		<geoidheight>417</geoidheight>
	</trkpt>
	<trkpt lat="50.668861" lon="6.214755">
		<ele>463</ele>
		<time>2011-09-11T11:45:57.976Z</time>
		<geoidheight>417</geoidheight>
	</trkpt>
	<trkpt lat="50.668854" lon="6.214744">
		<ele>463</ele>
		<time>2011-09-11T11:45:58.985Z</time>
		<geoidheight>417</geoidheight>
	</trkpt>
	<trkpt lat="50.668847" lon="6.214732">
		<ele>463</ele>
		<time>2011-09-11T11:45:59.978Z</time>
		<geoidheight>417</geoidheight>
	</trkpt>
	<trkpt lat="50.668838" lon="6.214724">
		<ele>463</ele>
		<time>2011-09-11T11:46:00.981Z</time>
		<geoidheight>417</geoidheight>
	</trkpt>
	<trkpt lat="50.668832" lon="6.214712">
		<ele>463</ele>
		<time>2011-09-11T11:46:01.981Z</time>
		<geoidheight>417</geoidheight>
	</trkpt>
	<trkpt lat="50.668824" lon="6.214702">
		<ele>463</ele>
		<time>2011-09-11T11:46:02.984Z</time>
		<geoidheight>417</geoidheight>
	</trkpt>
	<trkpt lat="50.668818" lon="6.214690">
		<ele>463</ele>
		<time>2011-09-11T11:46:03.980Z</time>
		<geoidheight>417</geoidheight>
	</trkpt>
	<trkpt lat="50.668812" lon="6.214681">
		<ele>463</ele>
		<time>2011-09-11T11:46:04.980Z</time>
		<geoidheight>417</geoidheight>
	</trkpt>
	<trkpt lat="50.668805" lon="6.214674">
		<ele>463</ele>
		<time>2011-09-11T11:46:05.980Z</time>
		<geoidheight>417</geoidheight>
	</trkpt>
	<trkpt lat="50.668798" lon="6.214664">
		<ele>463</ele>
		<time>2011-09-11T11:46:06.996Z</time>
		<geoidheight>417</geoidheight>
	</trkpt>
	<trkpt lat="50.668791" lon="6.214655">
		<ele>463</ele>
		<time>2011-09-11T11:46:07.985Z</time>
		<geoidheight>417</geoidheight>
	</trkpt>
	<trkpt lat="50.668781" lon="6.214647">
		<ele>463</ele>
		<time>2011-09-11T11:46:08.980Z</time>
		<geoidheight>417</geoidheight>
	</trkpt>
	<trkpt lat="50.668772" lon="6.214641">
		<ele>463</ele>
		<time>2011-09-11T11:46:09.978Z</time>
		<geoidheight>417</geoidheight>
	</trkpt>
	<trkpt lat="50.668760" lon="6.214635">
		<ele>463</ele>
		<time>2011-09-11T11:46:10.981Z</time>
		<geoidheight>417</geoidheight>
	</trkpt>
	<trkpt lat="50.668751" lon="6.214630">
		<ele>463</ele>
		<time>2011-09-11T11:46:11.981Z</time>
		<geoidheight>417</geoidheight>
	</trkpt>
	<trkpt lat="50.668742" lon="6.214621">
		<ele>463</ele>
		<time>2011-09-11T11:46:12.978Z</time>
		<geoidheight>417</geoidheight>
	</trkpt>
	<trkpt lat="50.668732" lon="6.214612">
		<ele>463</ele>
		<time>2011-09-11T11:46:13.980Z</time>
		<geoidheight>417</geoidheight>
	</trkpt>
	<trkpt lat="50.668722" lon="6.214605">
		<ele>463</ele>
		<time>2011-09-11T11:46:14.996Z</time>
		<geoidheight>417</geoidheight>
	</trkpt>
	<trkpt lat="50.668713" lon="6.214589">
		<ele>463</ele>
		<time>2011-09-11T11:46:15.996Z</time>
		<geoidheight>417</geoidheight>
	</trkpt>
	<trkpt lat="50.668702" lon="6.214572">
		<ele>463</ele>
		<time>2011-09-11T11:46:16.985Z</time>
		<geoidheight>417</geoidheight>
	</trkpt>
	<trkpt lat="50.668691" lon="6.214557">
		<ele>463</ele>
		<time>2011-09-11T11:46:17.992Z</time>
		<geoidheight>417</geoidheight>
	</trkpt>
	<trkpt lat="50.668680" lon="6.214538">
		<ele>463</ele>
		<time>2011-09-11T11:46:18.983Z</time>
		<geoidheight>417</geoidheight>
	</trkpt>
	<trkpt lat="50.668671" lon="6.214519">
		<ele>463</ele>
		<time>2011-09-11T11:46:19.985Z</time>
		<geoidheight>417</geoidheight>
	</trkpt>
	<trkpt lat="50.668661" lon="6.214500">
		<ele>463</ele>
		<time>2011-09-11T11:46:20.974Z</time>
		<geoidheight>417</geoidheight>
	</trkpt>
	<trkpt lat="50.668653" lon="6.214481">
		<ele>463</ele>
		<time>2011-09-11T11:46:21.955Z</time>
		<geoidheight>417</geoidheight>
	</trkpt>
	<trkpt lat="50.668644" lon="6.214464">
		<ele>463</ele>
		<time>2011-09-11T11:46:22.965Z</time>
		<geoidheight>417</geoidheight>
	</trkpt>
	<trkpt lat="50.668632" lon="6.214449">
		<ele>463</ele>
		<time>2011-09-11T11:46:23.957Z</time>
		<geoidheight>417</geoidheight>
	</trkpt>
	<trkpt lat="50.668622" lon="6.214432">
		<ele>463</ele>
		<time>2011-09-11T11:46:24.957Z</time>
		<geoidheight>417</geoidheight>
	</trkpt>
	<trkpt lat="50.668611" lon="6.214419">
		<ele>463</ele>
		<time>2011-09-11T11:46:25.966Z</time>
		<geoidheight>417</geoidheight>
	</trkpt>
	<trkpt lat="50.668599" lon="6.214404">
		<ele>463</ele>
		<time>2011-09-11T11:46:26.968Z</time>
		<geoidheight>417</geoidheight>
	</trkpt>
	<trkpt lat="50.668588" lon="6.214388">
		<ele>463</ele>
		<time>2011-09-11T11:46:27.966Z</time>
		<geoidheight>417</geoidheight>
	</trkpt>
	<trkpt lat="50.668575" lon="6.214377">
		<ele>463</ele>
		<time>2011-09-11T11:46:28.986Z</time>
		<geoidheight>417</geoidheight>
	</trkpt>
	<trkpt lat="50.668563" lon="6.214365">
		<ele>463</ele>
		<time>2011-09-11T11:46:29.982Z</time>
		<geoidheight>417</geoidheight>
	</trkpt>
	<trkpt lat="50.668552" lon="6.214352">
		<ele>463</ele>
		<time>2011-09-11T11:46:30.982Z</time>
		<geoidheight>417</geoidheight>
	</trkpt>
	<trkpt lat="50.668540" lon="6.214340">
		<ele>463</ele>
		<time>2011-09-11T11:46:31.978Z</time>
		<geoidheight>417</geoidheight>
	</trkpt>
	<trkpt lat="50.668528" lon="6.214331">
		<ele>463</ele>
		<time>2011-09-11T11:46:32.981Z</time>
		<geoidheight>417</geoidheight>
	</trkpt>
	<trkpt lat="50.668517" lon="6.214323">
		<ele>463</ele>
		<time>2011-09-11T11:46:33.983Z</time>
		<geoidheight>417</geoidheight>
	</trkpt>
	<trkpt lat="50.668507" lon="6.214314">
		<ele>463</ele>
		<time>2011-09-11T11:46:34.994Z</time>
		<geoidheight>417</geoidheight>
	</trkpt>
	<trkpt lat="50.668495" lon="6.214306">
		<ele>463</ele>
		<time>2011-09-11T11:46:35.983Z</time>
		<geoidheight>417</geoidheight>
	</trkpt>
	<trkpt lat="50.668484" lon="6.214294">
		<ele>463</ele>
		<time>2011-09-11T11:46:36.980Z</time>
		<geoidheight>417</geoidheight>
	</trkpt>
	<trkpt lat="50.668472" lon="6.214283">
		<ele>463</ele>
		<time>2011-09-11T11:46:37.977Z</time>
		<geoidheight>417</geoidheight>
	</trkpt>
	<trkpt lat="50.668459" lon="6.214271">
		<ele>463</ele>
		<time>2011-09-11T11:46:38.981Z</time>
		<geoidheight>417</geoidheight>
	</trkpt>
	<trkpt lat="50.668447" lon="6.214260">
		<ele>463</ele>
		<time>2011-09-11T11:46:39.981Z</time>
		<geoidheight>417</geoidheight>
	</trkpt>
	<trkpt lat="50.668434" lon="6.214251">
		<ele>463</ele>
		<time>2011-09-11T11:46:40.982Z</time>
		<geoidheight>417</geoidheight>
	</trkpt>
	<trkpt lat="50.668423" lon="6.214240">
		<ele>463</ele>
		<time>2011-09-11T11:46:41.982Z</time>
		<geoidheight>417</geoidheight>
	</trkpt>
	<trkpt lat="50.668410" lon="6.214233">
		<ele>463</ele>
		<time>2011-09-11T11:46:42.981Z</time>
		<geoidheight>417</geoidheight>
	</trkpt>
	<trkpt lat="50.668397" lon="6.214224">
		<ele>463</ele>
		<time>2011-09-11T11:46:43.981Z</time>
		<geoidheight>417</geoidheight>
	</trkpt>
	<trkpt lat="50.668385" lon="6.214214">
		<ele>463</ele>
		<time>2011-09-11T11:46:44.984Z</time>
		<geoidheight>417</geoidheight>
	</trkpt>
	<trkpt lat="50.668374" lon="6.214203">
		<ele>463</ele>
		<time>2011-09-11T11:46:45.985Z</time>
		<geoidheight>417</geoidheight>
	</trkpt>
	<trkpt lat="50.668363" lon="6.214191">
		<ele>463</ele>
		<time>2011-09-11T11:46:46.985Z</time>
		<geoidheight>417</geoidheight>
	</trkpt>
	<trkpt lat="50.668355" lon="6.214178">
		<ele>463</ele>
		<time>2011-09-11T11:46:47.974Z</time>
		<geoidheight>417</geoidheight>
	</trkpt>
	<trkpt lat="50.668344" lon="6.214166">
		<ele>463</ele>
		<time>2011-09-11T11:46:48.983Z</time>
		<geoidheight>417</geoidheight>
	</trkpt>
	<trkpt lat="50.668334" lon="6.214155">
		<ele>463</ele>
		<time>2011-09-11T11:46:49.994Z</time>
		<geoidheight>417</geoidheight>
	</trkpt>
	<trkpt lat="50.668325" lon="6.214144">
		<ele>463</ele>
		<time>2011-09-11T11:46:50.991Z</time>
		<geoidheight>417</geoidheight>
	</trkpt>
	<trkpt lat="50.668314" lon="6.214135">
		<ele>463</ele>
		<time>2011-09-11T11:46:51.990Z</time>
		<geoidheight>417</geoidheight>
	</trkpt>
	<trkpt lat="50.668303" lon="6.214122">
		<ele>463</ele>
		<time>2011-09-11T11:46:52.982Z</time>
		<geoidheight>417</geoidheight>
	</trkpt>
	<trkpt lat="50.668291" lon="6.214112">
		<ele>463</ele>
		<time>2011-09-11T11:46:53.978Z</time>
		<geoidheight>417</geoidheight>
	</trkpt>
	<trkpt lat="50.668280" lon="6.214101">
		<ele>463</ele>
		<time>2011-09-11T11:46:54.991Z</time>
		<geoidheight>417</geoidheight>
	</trkpt>
	<trkpt lat="50.668270" lon="6.214090">
		<ele>463</ele>
		<time>2011-09-11T11:46:55.978Z</time>
		<geoidheight>417</geoidheight>
	</trkpt>
	<trkpt lat="50.668257" lon="6.214080">
		<ele>463</ele>
		<time>2011-09-11T11:46:56.982Z</time>
		<geoidheight>417</geoidheight>
	</trkpt>
	<trkpt lat="50.668246" lon="6.214066">
		<ele>463</ele>
		<time>2011-09-11T11:46:57.986Z</time>
		<geoidheight>417</geoidheight>
	</trkpt>
	<trkpt lat="50.668235" lon="6.214053">
		<ele>463</ele>
		<time>2011-09-11T11:46:58.978Z</time>
		<geoidheight>417</geoidheight>
	</trkpt>
	<trkpt lat="50.668223" lon="6.214040">
		<ele>463</ele>
		<time>2011-09-11T11:46:59.970Z</time>
		<geoidheight>417</geoidheight>
	</trkpt>
	<trkpt lat="50.668212" lon="6.214028">
		<ele>463</ele>
		<time>2011-09-11T11:47:00.981Z</time>
		<geoidheight>417</geoidheight>
	</trkpt>
	<trkpt lat="50.668199" lon="6.214018">
		<ele>463</ele>
		<time>2011-09-11T11:47:01.979Z</time>
		<geoidheight>417</geoidheight>
	</trkpt>
	<trkpt lat="50.668187" lon="6.214006">
		<ele>463</ele>
		<time>2011-09-11T11:47:02.977Z</time>
		<geoidheight>417</geoidheight>
	</trkpt>
	<trkpt lat="50.668174" lon="6.213994">
		<ele>463</ele>
		<time>2011-09-11T11:47:03.980Z</time>
		<geoidheight>417</geoidheight>
	</trkpt>
	<trkpt lat="50.668162" lon="6.213980">
		<ele>463</ele>
		<time>2011-09-11T11:47:04.976Z</time>
		<geoidheight>417</geoidheight>
	</trkpt>
	<trkpt lat="50.668151" lon="6.213966">
		<ele>463</ele>
		<time>2011-09-11T11:47:05.980Z</time>
		<geoidheight>417</geoidheight>
	</trkpt>
	<trkpt lat="50.668140" lon="6.213954">
		<ele>463</ele>
		<time>2011-09-11T11:47:06.993Z</time>
		<geoidheight>417</geoidheight>
	</trkpt>
	<trkpt lat="50.668130" lon="6.213944">
		<ele>463</ele>
		<time>2011-09-11T11:47:07.994Z</time>
		<geoidheight>417</geoidheight>
	</trkpt>
	<trkpt lat="50.668118" lon="6.213936">
		<ele>463</ele>
		<time>2011-09-11T11:47:08.996Z</time>
		<geoidheight>417</geoidheight>
	</trkpt>
	<trkpt lat="50.668105" lon="6.213926">
		<ele>463</ele>
		<time>2011-09-11T11:47:09.984Z</time>
		<geoidheight>417</geoidheight>
	</trkpt>
	<trkpt lat="50.668093" lon="6.213916">
		<ele>463</ele>
		<time>2011-09-11T11:47:10.992Z</time>
		<geoidheight>417</geoidheight>
	</trkpt>
	<trkpt lat="50.668082" lon="6.213902">
		<ele>463</ele>
		<time>2011-09-11T11:47:11.981Z</time>
		<geoidheight>417</geoidheight>
	</trkpt>
	<trkpt lat="50.668071" lon="6.213889">
		<ele>463</ele>
		<time>2011-09-11T11:47:12.985Z</time>
		<geoidheight>417</geoidheight>
	</trkpt>
	<trkpt lat="50.668060" lon="6.213876">
		<ele>463</ele>
		<time>2011-09-11T11:47:13.986Z</time>
		<geoidheight>417</geoidheight>
	</trkpt>
	<trkpt lat="50.668050" lon="6.213864">
		<ele>463</ele>
		<time>2011-09-11T11:47:14.996Z</time>
		<geoidheight>417</geoidheight>
	</trkpt>
	<trkpt lat="50.668040" lon="6.213854">
		<ele>462</ele>
		<time>2011-09-11T11:47:15.986Z</time>
		<geoidheight>416</geoidheight>
	</trkpt>
	<trkpt lat="50.668031" lon="6.213842">
		<ele>462</ele>
		<time>2011-09-11T11:47:16.986Z</time>
		<geoidheight>416</geoidheight>
	</trkpt>
	<trkpt lat="50.668024" lon="6.213828">
		<ele>462</ele>
		<time>2011-09-11T11:47:17.982Z</time>
		<geoidheight>416</geoidheight>
	</trkpt>
	<trkpt lat="50.668018" lon="6.213821">
		<ele>462</ele>
		<time>2011-09-11T11:47:18.986Z</time>
		<geoidheight>416</geoidheight>
	</trkpt>
	<trkpt lat="50.668017" lon="6.213815">
		<ele>462</ele>
		<time>2011-09-11T11:47:19.997Z</time>
		<geoidheight>416</geoidheight>
	</trkpt>
	<trkpt lat="50.668017" lon="6.213815">
		<ele>462</ele>
		<time>2011-09-11T11:47:24.988Z</time>
		<geoidheight>416</geoidheight>
	</trkpt>
	<trkpt lat="50.668006" lon="6.213832">
		<ele>462</ele>
		<time>2011-09-11T11:47:25.980Z</time>
		<geoidheight>416</geoidheight>
	</trkpt>
	<trkpt lat="50.667997" lon="6.213822">
		<ele>462</ele>
		<time>2011-09-11T11:47:26.985Z</time>
		<geoidheight>416</geoidheight>
	</trkpt>
	<trkpt lat="50.667986" lon="6.213811">
		<ele>462</ele>
		<time>2011-09-11T11:47:27.985Z</time>
		<geoidheight>416</geoidheight>
	</trkpt>
	<trkpt lat="50.667974" lon="6.213800">
		<ele>462</ele>
		<time>2011-09-11T11:47:28.991Z</time>
		<geoidheight>416</geoidheight>
	</trkpt>
	<trkpt lat="50.667962" lon="6.213789">
		<ele>462</ele>
		<time>2011-09-11T11:47:29.981Z</time>
		<geoidheight>416</geoidheight>
	</trkpt>
	<trkpt lat="50.667948" lon="6.213783">
		<ele>462</ele>
		<time>2011-09-11T11:47:30.993Z</time>
		<geoidheight>416</geoidheight>
	</trkpt>
	<trkpt lat="50.667937" lon="6.213776">
		<ele>462</ele>
		<time>2011-09-11T11:47:31.986Z</time>
		<geoidheight>416</geoidheight>
	</trkpt>
	<trkpt lat="50.667926" lon="6.213769">
		<ele>462</ele>
		<time>2011-09-11T11:47:32.985Z</time>
		<geoidheight>416</geoidheight>
	</trkpt>
	<trkpt lat="50.667915" lon="6.213760">
		<ele>462</ele>
		<time>2011-09-11T11:47:33.980Z</time>
		<geoidheight>416</geoidheight>
	</trkpt>
	<trkpt lat="50.667905" lon="6.213748">
		<ele>462</ele>
		<time>2011-09-11T11:47:34.986Z</time>
		<geoidheight>416</geoidheight>
	</trkpt>
	<trkpt lat="50.667897" lon="6.213733">
		<ele>462</ele>
		<time>2011-09-11T11:47:35.995Z</time>
		<geoidheight>416</geoidheight>
	</trkpt>
	<trkpt lat="50.667887" lon="6.213720">
		<ele>462</ele>
		<time>2011-09-11T11:47:36.992Z</time>
		<geoidheight>416</geoidheight>
	</trkpt>
	<trkpt lat="50.667877" lon="6.213706">
		<ele>462</ele>
		<time>2011-09-11T11:47:37.986Z</time>
		<geoidheight>416</geoidheight>
	</trkpt>
	<trkpt lat="50.667866" lon="6.213692">
		<ele>462</ele>
		<time>2011-09-11T11:47:38.995Z</time>
		<geoidheight>416</geoidheight>
	</trkpt>
	<trkpt lat="50.667854" lon="6.213682">
		<ele>462</ele>
		<time>2011-09-11T11:47:39.993Z</time>
		<geoidheight>416</geoidheight>
	</trkpt>
	<trkpt lat="50.667842" lon="6.213670">
		<ele>462</ele>
		<time>2011-09-11T11:47:40.991Z</time>
		<geoidheight>416</geoidheight>
	</trkpt>
	<trkpt lat="50.667831" lon="6.213657">
		<ele>462</ele>
		<time>2011-09-11T11:47:41.997Z</time>
		<geoidheight>416</geoidheight>
	</trkpt>
	<trkpt lat="50.667818" lon="6.213646">
		<ele>462</ele>
		<time>2011-09-11T11:47:42.986Z</time>
		<geoidheight>416</geoidheight>
	</trkpt>
	<trkpt lat="50.667804" lon="6.213634">
		<ele>462</ele>
		<time>2011-09-11T11:47:43.984Z</time>
		<geoidheight>416</geoidheight>
	</trkpt>
	<trkpt lat="50.667792" lon="6.213622">
		<ele>462</ele>
		<time>2011-09-11T11:47:44.992Z</time>
		<geoidheight>416</geoidheight>
	</trkpt>
	<trkpt lat="50.667779" lon="6.213612">
		<ele>462</ele>
		<time>2011-09-11T11:47:45.986Z</time>
		<geoidheight>416</geoidheight>
	</trkpt>
	<trkpt lat="50.667765" lon="6.213603">
		<ele>461</ele>
		<time>2011-09-11T11:47:46.994Z</time>
		<geoidheight>415</geoidheight>
	</trkpt>
	<trkpt lat="50.667752" lon="6.213591">
		<ele>461</ele>
		<time>2011-09-11T11:47:47.993Z</time>
		<geoidheight>415</geoidheight>
	</trkpt>
	<trkpt lat="50.667739" lon="6.213579">
		<ele>461</ele>
		<time>2011-09-11T11:47:48.981Z</time>
		<geoidheight>415</geoidheight>
	</trkpt>
	<trkpt lat="50.667727" lon="6.213565">
		<ele>461</ele>
		<time>2011-09-11T11:47:49.993Z</time>
		<geoidheight>415</geoidheight>
	</trkpt>
	<trkpt lat="50.667716" lon="6.213554">
		<ele>461</ele>
		<time>2011-09-11T11:47:50.984Z</time>
		<geoidheight>415</geoidheight>
	</trkpt>
	<trkpt lat="50.667705" lon="6.213542">
		<ele>461</ele>
		<time>2011-09-11T11:47:51.985Z</time>
		<geoidheight>415</geoidheight>
	</trkpt>
	<trkpt lat="50.667694" lon="6.213532">
		<ele>461</ele>
		<time>2011-09-11T11:47:52.979Z</time>
		<geoidheight>415</geoidheight>
	</trkpt>
	<trkpt lat="50.667684" lon="6.213519">
		<ele>461</ele>
		<time>2011-09-11T11:47:53.994Z</time>
		<geoidheight>415</geoidheight>
	</trkpt>
	<trkpt lat="50.667673" lon="6.213507">
		<ele>461</ele>
		<time>2011-09-11T11:47:54.986Z</time>
		<geoidheight>415</geoidheight>
	</trkpt>
	<trkpt lat="50.667663" lon="6.213494">
		<ele>461</ele>
		<time>2011-09-11T11:47:55.996Z</time>
		<geoidheight>415</geoidheight>
	</trkpt>
	<trkpt lat="50.667653" lon="6.213480">
		<ele>461</ele>
		<time>2011-09-11T11:47:56.985Z</time>
		<geoidheight>415</geoidheight>
	</trkpt>
	<trkpt lat="50.667643" lon="6.213466">
		<ele>461</ele>
		<time>2011-09-11T11:47:57.982Z</time>
		<geoidheight>415</geoidheight>
	</trkpt>
	<trkpt lat="50.667632" lon="6.213452">
		<ele>461</ele>
		<time>2011-09-11T11:47:58.986Z</time>
		<geoidheight>415</geoidheight>
	</trkpt>
	<trkpt lat="50.667621" lon="6.213440">
		<ele>461</ele>
		<time>2011-09-11T11:47:59.983Z</time>
		<geoidheight>415</geoidheight>
	</trkpt>
	<trkpt lat="50.667610" lon="6.213429">
		<ele>461</ele>
		<time>2011-09-11T11:48:00.984Z</time>
		<geoidheight>415</geoidheight>
	</trkpt>
	<trkpt lat="50.667599" lon="6.213419">
		<ele>461</ele>
		<time>2011-09-11T11:48:01.977Z</time>
		<geoidheight>415</geoidheight>
	</trkpt>
	<trkpt lat="50.667587" lon="6.213410">
		<ele>461</ele>
		<time>2011-09-11T11:48:02.986Z</time>
		<geoidheight>415</geoidheight>
	</trkpt>
	<trkpt lat="50.667577" lon="6.213401">
		<ele>460</ele>
		<time>2011-09-11T11:48:03.995Z</time>
		<geoidheight>414</geoidheight>
	</trkpt>
	<trkpt lat="50.667566" lon="6.213392">
		<ele>460</ele>
		<time>2011-09-11T11:48:04.996Z</time>
		<geoidheight>414</geoidheight>
	</trkpt>
	<trkpt lat="50.667556" lon="6.213383">
		<ele>460</ele>
		<time>2011-09-11T11:48:05.994Z</time>
		<geoidheight>414</geoidheight>
	</trkpt>
	<trkpt lat="50.667545" lon="6.213374">
		<ele>460</ele>
		<time>2011-09-11T11:48:06.985Z</time>
		<geoidheight>414</geoidheight>
	</trkpt>
	<trkpt lat="50.667535" lon="6.213364">
		<ele>460</ele>
		<time>2011-09-11T11:48:07.997Z</time>
		<geoidheight>414</geoidheight>
	</trkpt>
	<trkpt lat="50.667525" lon="6.213355">
		<ele>460</ele>
		<time>2011-09-11T11:48:08.994Z</time>
		<geoidheight>414</geoidheight>
	</trkpt>
	<trkpt lat="50.667516" lon="6.213344">
		<ele>460</ele>
		<time>2011-09-11T11:48:09.985Z</time>
		<geoidheight>414</geoidheight>
	</trkpt>
	<trkpt lat="50.667506" lon="6.213332">
		<ele>460</ele>
		<time>2011-09-11T11:48:10.960Z</time>
		<geoidheight>414</geoidheight>
	</trkpt>
	<trkpt lat="50.667495" lon="6.213321">
		<ele>460</ele>
		<time>2011-09-11T11:48:11.967Z</time>
		<geoidheight>414</geoidheight>
	</trkpt>
	<trkpt lat="50.667485" lon="6.213311">
		<ele>460</ele>
		<time>2011-09-11T11:48:12.954Z</time>
		<geoidheight>414</geoidheight>
	</trkpt>
	<trkpt lat="50.667475" lon="6.213303">
		<ele>460</ele>
		<time>2011-09-11T11:48:13.959Z</time>
		<geoidheight>414</geoidheight>
	</trkpt>
	<trkpt lat="50.667466" lon="6.213297">
		<ele>460</ele>
		<time>2011-09-11T11:48:14.966Z</time>
		<geoidheight>414</geoidheight>
	</trkpt>
	<trkpt lat="50.667456" lon="6.213294">
		<ele>460</ele>
		<time>2011-09-11T11:48:15.951Z</time>
		<geoidheight>414</geoidheight>
	</trkpt>
	<trkpt lat="50.667448" lon="6.213286">
		<ele>460</ele>
		<time>2011-09-11T11:48:16.958Z</time>
		<geoidheight>414</geoidheight>
	</trkpt>
	<trkpt lat="50.667440" lon="6.213280">
		<ele>460</ele>
		<time>2011-09-11T11:48:17.966Z</time>
		<geoidheight>414</geoidheight>
	</trkpt>
	<trkpt lat="50.667429" lon="6.213273">
		<ele>459</ele>
		<time>2011-09-11T11:48:18.951Z</time>
		<geoidheight>413</geoidheight>
	</trkpt>
	<trkpt lat="50.667419" lon="6.213268">
		<ele>459</ele>
		<time>2011-09-11T11:48:19.956Z</time>
		<geoidheight>413</geoidheight>
	</trkpt>
	<trkpt lat="50.667408" lon="6.213262">
		<ele>459</ele>
		<time>2011-09-11T11:48:20.949Z</time>
		<geoidheight>413</geoidheight>
	</trkpt>
	<trkpt lat="50.667398" lon="6.213250">
		<ele>459</ele>
		<time>2011-09-11T11:48:21.951Z</time>
		<geoidheight>413</geoidheight>
	</trkpt>
	<trkpt lat="50.667385" lon="6.213238">
		<ele>459</ele>
		<time>2011-09-11T11:48:22.958Z</time>
		<geoidheight>413</geoidheight>
	</trkpt>
	<trkpt lat="50.667371" lon="6.213224">
		<ele>459</ele>
		<time>2011-09-11T11:48:23.976Z</time>
		<geoidheight>413</geoidheight>
	</trkpt>
	<trkpt lat="50.667355" lon="6.213211">
		<ele>459</ele>
		<time>2011-09-11T11:48:24.993Z</time>
		<geoidheight>413</geoidheight>
	</trkpt>
	<trkpt lat="50.667340" lon="6.213197">
		<ele>459</ele>
		<time>2011-09-11T11:48:25.987Z</time>
		<geoidheight>413</geoidheight>
	</trkpt>
	<trkpt lat="50.667325" lon="6.213185">
		<ele>459</ele>
		<time>2011-09-11T11:48:26.995Z</time>
		<geoidheight>413</geoidheight>
	</trkpt>
	<trkpt lat="50.667310" lon="6.213177">
		<ele>459</ele>
		<time>2011-09-11T11:48:27.994Z</time>
		<geoidheight>413</geoidheight>
	</trkpt>
	<trkpt lat="50.667298" lon="6.213166">
		<ele>459</ele>
		<time>2011-09-11T11:48:28.984Z</time>
		<geoidheight>413</geoidheight>
	</trkpt>
	<trkpt lat="50.667285" lon="6.213156">
		<ele>459</ele>
		<time>2011-09-11T11:48:29.985Z</time>
		<geoidheight>413</geoidheight>
	</trkpt>
	<trkpt lat="50.667274" lon="6.213145">
		<ele>459</ele>
		<time>2011-09-11T11:48:30.983Z</time>
		<geoidheight>413</geoidheight>
	</trkpt>
	<trkpt lat="50.667261" lon="6.213133">
		<ele>459</ele>
		<time>2011-09-11T11:48:31.993Z</time>
		<geoidheight>413</geoidheight>
	</trkpt>
	<trkpt lat="50.667249" lon="6.213122">
		<ele>459</ele>
		<time>2011-09-11T11:48:32.997Z</time>
		<geoidheight>413</geoidheight>
	</trkpt>
	<trkpt lat="50.667236" lon="6.213114">
		<ele>459</ele>
		<time>2011-09-11T11:48:33.986Z</time>
		<geoidheight>413</geoidheight>
	</trkpt>
	<trkpt lat="50.667223" lon="6.213104">
		<ele>459</ele>
		<time>2011-09-11T11:48:34.986Z</time>
		<geoidheight>413</geoidheight>
	</trkpt>
	<trkpt lat="50.667210" lon="6.213093">
		<ele>459</ele>
		<time>2011-09-11T11:48:35.985Z</time>
		<geoidheight>413</geoidheight>
	</trkpt>
	<trkpt lat="50.667196" lon="6.213086">
		<ele>459</ele>
		<time>2011-09-11T11:48:36.984Z</time>
		<geoidheight>413</geoidheight>
	</trkpt>
	<trkpt lat="50.667183" lon="6.213078">
		<ele>459</ele>
		<time>2011-09-11T11:48:37.987Z</time>
		<geoidheight>413</geoidheight>
	</trkpt>
	<trkpt lat="50.667170" lon="6.213068">
		<ele>458</ele>
		<time>2011-09-11T11:48:38.985Z</time>
		<geoidheight>412</geoidheight>
	</trkpt>
	<trkpt lat="50.667157" lon="6.213055">
		<ele>458</ele>
		<time>2011-09-11T11:48:39.986Z</time>
		<geoidheight>412</geoidheight>
	</trkpt>
	<trkpt lat="50.667145" lon="6.213044">
		<ele>458</ele>
		<time>2011-09-11T11:48:40.973Z</time>
		<geoidheight>412</geoidheight>
	</trkpt>
	<trkpt lat="50.667134" lon="6.213029">
		<ele>458</ele>
		<time>2011-09-11T11:48:41.985Z</time>
		<geoidheight>412</geoidheight>
	</trkpt>
	<trkpt lat="50.667123" lon="6.213013">
		<ele>458</ele>
		<time>2011-09-11T11:48:42.986Z</time>
		<geoidheight>412</geoidheight>
	</trkpt>
	<trkpt lat="50.667112" lon="6.212996">
		<ele>458</ele>
		<time>2011-09-11T11:48:43.993Z</time>
		<geoidheight>412</geoidheight>
	</trkpt>
	<trkpt lat="50.667100" lon="6.212984">
		<ele>458</ele>
		<time>2011-09-11T11:48:44.995Z</time>
		<geoidheight>412</geoidheight>
	</trkpt>
	<trkpt lat="50.667089" lon="6.212974">
		<ele>458</ele>
		<time>2011-09-11T11:48:45.987Z</time>
		<geoidheight>412</geoidheight>
	</trkpt>
	<trkpt lat="50.667077" lon="6.212965">
		<ele>458</ele>
		<time>2011-09-11T11:48:46.981Z</time>
		<geoidheight>412</geoidheight>
	</trkpt>
	<trkpt lat="50.667066" lon="6.212957">
		<ele>458</ele>
		<time>2011-09-11T11:48:47.985Z</time>
		<geoidheight>412</geoidheight>
	</trkpt>
	<trkpt lat="50.667056" lon="6.212947">
		<ele>458</ele>
		<time>2011-09-11T11:48:48.984Z</time>
		<geoidheight>412</geoidheight>
	</trkpt>
	<trkpt lat="50.667047" lon="6.212937">
		<ele>458</ele>
		<time>2011-09-11T11:48:49.993Z</time>
		<geoidheight>412</geoidheight>
	</trkpt>
	<trkpt lat="50.667037" lon="6.212926">
		<ele>458</ele>
		<time>2011-09-11T11:48:50.986Z</time>
		<geoidheight>412</geoidheight>
	</trkpt>
	<trkpt lat="50.667026" lon="6.212916">
		<ele>458</ele>
		<time>2011-09-11T11:48:51.986Z</time>
		<geoidheight>412</geoidheight>
	</trkpt>
	<trkpt lat="50.667016" lon="6.212902">
		<ele>458</ele>
		<time>2011-09-11T11:48:52.993Z</time>
		<geoidheight>412</geoidheight>
	</trkpt>
	<trkpt lat="50.667005" lon="6.212892">
		<ele>458</ele>
		<time>2011-09-11T11:48:53.986Z</time>
		<geoidheight>412</geoidheight>
	</trkpt>
	<trkpt lat="50.666994" lon="6.212880">
		<ele>458</ele>
		<time>2011-09-11T11:48:54.985Z</time>
		<geoidheight>412</geoidheight>
	</trkpt>
	<trkpt lat="50.666983" lon="6.212871">
		<ele>458</ele>
		<time>2011-09-11T11:48:55.994Z</time>
		<geoidheight>412</geoidheight>
	</trkpt>
	<trkpt lat="50.666972" lon="6.212861">
		<ele>458</ele>
		<time>2011-09-11T11:48:56.994Z</time>
		<geoidheight>412</geoidheight>
	</trkpt>
	<trkpt lat="50.666961" lon="6.212851">
		<ele>458</ele>
		<time>2011-09-11T11:48:57.984Z</time>
		<geoidheight>412</geoidheight>
	</trkpt>
	<trkpt lat="50.666949" lon="6.212840">
		<ele>458</ele>
		<time>2011-09-11T11:48:58.985Z</time>
		<geoidheight>412</geoidheight>
	</trkpt>
	<trkpt lat="50.666938" lon="6.212829">
		<ele>457</ele>
		<time>2011-09-11T11:48:59.995Z</time>
		<geoidheight>411</geoidheight>
	</trkpt>
	<trkpt lat="50.666927" lon="6.212815">
		<ele>457</ele>
		<time>2011-09-11T11:49:00.984Z</time>
		<geoidheight>411</geoidheight>
	</trkpt>
	<trkpt lat="50.666917" lon="6.212800">
		<ele>457</ele>
		<time>2011-09-11T11:49:01.994Z</time>
		<geoidheight>411</geoidheight>
	</trkpt>
	<trkpt lat="50.666906" lon="6.212786">
		<ele>457</ele>
		<time>2011-09-11T11:49:02.986Z</time>
		<geoidheight>411</geoidheight>
	</trkpt>
	<trkpt lat="50.666895" lon="6.212770">
		<ele>457</ele>
		<time>2011-09-11T11:49:03.986Z</time>
		<geoidheight>411</geoidheight>
	</trkpt>
	<trkpt lat="50.666883" lon="6.212757">
		<ele>457</ele>
		<time>2011-09-11T11:49:04.994Z</time>
		<geoidheight>411</geoidheight>
	</trkpt>
	<trkpt lat="50.666870" lon="6.212744">
		<ele>457</ele>
		<time>2011-09-11T11:49:05.981Z</time>
		<geoidheight>411</geoidheight>
	</trkpt>
	<trkpt lat="50.666858" lon="6.212732">
		<ele>457</ele>
		<time>2011-09-11T11:49:06.984Z</time>
		<geoidheight>411</geoidheight>
	</trkpt>
	<trkpt lat="50.666846" lon="6.212719">
		<ele>457</ele>
		<time>2011-09-11T11:49:07.982Z</time>
		<geoidheight>411</geoidheight>
	</trkpt>
	<trkpt lat="50.666834" lon="6.212708">
		<ele>457</ele>
		<time>2011-09-11T11:49:08.992Z</time>
		<geoidheight>411</geoidheight>
	</trkpt>
	<trkpt lat="50.666821" lon="6.212698">
		<ele>457</ele>
		<time>2011-09-11T11:49:09.993Z</time>
		<geoidheight>411</geoidheight>
	</trkpt>
	<trkpt lat="50.666809" lon="6.212686">
		<ele>457</ele>
		<time>2011-09-11T11:49:10.994Z</time>
		<geoidheight>411</geoidheight>
	</trkpt>
	<trkpt lat="50.666796" lon="6.212678">
		<ele>457</ele>
		<time>2011-09-11T11:49:11.983Z</time>
		<geoidheight>411</geoidheight>
	</trkpt>
	<trkpt lat="50.666784" lon="6.212670">
		<ele>457</ele>
		<time>2011-09-11T11:49:12.985Z</time>
		<geoidheight>411</geoidheight>
	</trkpt>
	<trkpt lat="50.666771" lon="6.212662">
		<ele>457</ele>
		<time>2011-09-11T11:49:13.980Z</time>
		<geoidheight>411</geoidheight>
	</trkpt>
	<trkpt lat="50.666759" lon="6.212653">
		<ele>457</ele>
		<time>2011-09-11T11:49:14.983Z</time>
		<geoidheight>411</geoidheight>
	</trkpt>
	<trkpt lat="50.666747" lon="6.212644">
		<ele>457</ele>
		<time>2011-09-11T11:49:15.983Z</time>
		<geoidheight>411</geoidheight>
	</trkpt>
	<trkpt lat="50.666734" lon="6.212635">
		<ele>456</ele>
		<time>2011-09-11T11:49:16.985Z</time>
		<geoidheight>410</geoidheight>
	</trkpt>
	<trkpt lat="50.666722" lon="6.212623">
		<ele>456</ele>
		<time>2011-09-11T11:49:17.983Z</time>
		<geoidheight>410</geoidheight>
	</trkpt>
	<trkpt lat="50.666712" lon="6.212611">
		<ele>456</ele>
		<time>2011-09-11T11:49:18.985Z</time>
		<geoidheight>410</geoidheight>
	</trkpt>
	<trkpt lat="50.666702" lon="6.212596">
		<ele>456</ele>
		<time>2011-09-11T11:49:19.991Z</time>
		<geoidheight>410</geoidheight>
	</trkpt>
	<trkpt lat="50.666695" lon="6.212582">
		<ele>456</ele>
		<time>2011-09-11T11:49:20.965Z</time>
		<geoidheight>410</geoidheight>
	</trkpt>
	<trkpt lat="50.666681" lon="6.212572">
		<ele>456</ele>
		<time>2011-09-11T11:49:21.951Z</time>
		<geoidheight>410</geoidheight>
	</trkpt>
	<trkpt lat="50.666667" lon="6.212560">
		<ele>456</ele>
		<time>2011-09-11T11:49:22.959Z</time>
		<geoidheight>410</geoidheight>
	</trkpt>
	<trkpt lat="50.666655" lon="6.212550">
		<ele>456</ele>
		<time>2011-09-11T11:49:23.964Z</time>
		<geoidheight>410</geoidheight>
	</trkpt>
	<trkpt lat="50.666642" lon="6.212540">
		<ele>456</ele>
		<time>2011-09-11T11:49:24.950Z</time>
		<geoidheight>410</geoidheight>
	</trkpt>
	<trkpt lat="50.666631" lon="6.212530">
		<ele>456</ele>
		<time>2011-09-11T11:49:25.959Z</time>
		<geoidheight>410</geoidheight>
	</trkpt>
	<trkpt lat="50.666621" lon="6.212515">
		<ele>456</ele>
		<time>2011-09-11T11:49:26.963Z</time>
		<geoidheight>410</geoidheight>
	</trkpt>
	<trkpt lat="50.666615" lon="6.212495">
		<ele>456</ele>
		<time>2011-09-11T11:49:27.950Z</time>
		<geoidheight>410</geoidheight>
	</trkpt>
	<trkpt lat="50.666609" lon="6.212478">
		<ele>456</ele>
		<time>2011-09-11T11:49:28.958Z</time>
		<geoidheight>410</geoidheight>
	</trkpt>
	<trkpt lat="50.666605" lon="6.212463">
		<ele>456</ele>
		<time>2011-09-11T11:49:29.963Z</time>
		<geoidheight>410</geoidheight>
	</trkpt>
	<trkpt lat="50.666614" lon="6.212465">
		<ele>456</ele>
		<time>2011-09-11T11:49:31.958Z</time>
		<geoidheight>410</geoidheight>
	</trkpt>
	<trkpt lat="50.666612" lon="6.212474">
		<ele>456</ele>
		<time>2011-09-11T11:49:32.961Z</time>
		<geoidheight>410</geoidheight>
	</trkpt>
	<trkpt lat="50.666612" lon="6.212474">
		<ele>456</ele>
		<time>2011-09-11T11:49:34.946Z</time>
		<geoidheight>410</geoidheight>
	</trkpt>
	<trkpt lat="50.666590" lon="6.212466">
		<ele>456</ele>
		<time>2011-09-11T11:49:35.955Z</time>
		<geoidheight>410</geoidheight>
	</trkpt>
	<trkpt lat="50.666581" lon="6.212455">
		<ele>456</ele>
		<time>2011-09-11T11:49:36.949Z</time>
		<geoidheight>410</geoidheight>
	</trkpt>
	<trkpt lat="50.666573" lon="6.212440">
		<ele>456</ele>
		<time>2011-09-11T11:49:37.968Z</time>
		<geoidheight>410</geoidheight>
	</trkpt>
	<trkpt lat="50.666565" lon="6.212420">
		<ele>455</ele>
		<time>2011-09-11T11:49:38.968Z</time>
		<geoidheight>409</geoidheight>
	</trkpt>
	<trkpt lat="50.666556" lon="6.212400">
		<ele>455</ele>
		<time>2011-09-11T11:49:39.969Z</time>
		<geoidheight>409</geoidheight>
	</trkpt>
	<trkpt lat="50.666548" lon="6.212381">
		<ele>455</ele>
		<time>2011-09-11T11:49:40.967Z</time>
		<geoidheight>409</geoidheight>
	</trkpt>
	<trkpt lat="50.666537" lon="6.212365">
		<ele>455</ele>
		<time>2011-09-11T11:49:41.968Z</time>
		<geoidheight>409</geoidheight>
	</trkpt>
	<trkpt lat="50.666525" lon="6.212350">
		<ele>455</ele>
		<time>2011-09-11T11:49:42.968Z</time>
		<geoidheight>409</geoidheight>
	</trkpt>
	<trkpt lat="50.666513" lon="6.212335">
		<ele>455</ele>
		<time>2011-09-11T11:49:43.974Z</time>
		<geoidheight>409</geoidheight>
	</trkpt>
	<trkpt lat="50.666500" lon="6.212320">
		<ele>455</ele>
		<time>2011-09-11T11:49:44.981Z</time>
		<geoidheight>409</geoidheight>
	</trkpt>
	<trkpt lat="50.666486" lon="6.212305">
		<ele>455</ele>
		<time>2011-09-11T11:49:45.971Z</time>
		<geoidheight>409</geoidheight>
	</trkpt>
	<trkpt lat="50.666473" lon="6.212293">
		<ele>455</ele>
		<time>2011-09-11T11:49:46.970Z</time>
		<geoidheight>409</geoidheight>
	</trkpt>
	<trkpt lat="50.666460" lon="6.212282">
		<ele>455</ele>
		<time>2011-09-11T11:49:47.975Z</time>
		<geoidheight>409</geoidheight>
	</trkpt>
	<trkpt lat="50.666447" lon="6.212270">
		<ele>455</ele>
		<time>2011-09-11T11:49:48.983Z</time>
		<geoidheight>409</geoidheight>
	</trkpt>
	<trkpt lat="50.666436" lon="6.212258">
		<ele>455</ele>
		<time>2011-09-11T11:49:49.991Z</time>
		<geoidheight>409</geoidheight>
	</trkpt>
	<trkpt lat="50.666422" lon="6.212250">
		<ele>455</ele>
		<time>2011-09-11T11:49:50.982Z</time>
		<geoidheight>409</geoidheight>
	</trkpt>
	<trkpt lat="50.666409" lon="6.212240">
		<ele>455</ele>
		<time>2011-09-11T11:49:51.995Z</time>
		<geoidheight>409</geoidheight>
	</trkpt>
	<trkpt lat="50.666397" lon="6.212230">
		<ele>455</ele>
		<time>2011-09-11T11:49:52.992Z</time>
		<geoidheight>409</geoidheight>
	</trkpt>
	<trkpt lat="50.666383" lon="6.212224">
		<ele>455</ele>
		<time>2011-09-11T11:49:53.991Z</time>
		<geoidheight>409</geoidheight>
	</trkpt>
	<trkpt lat="50.666371" lon="6.212216">
		<ele>455</ele>
		<time>2011-09-11T11:49:54.993Z</time>
		<geoidheight>409</geoidheight>
	</trkpt>
	<trkpt lat="50.666359" lon="6.212206">
		<ele>454</ele>
		<time>2011-09-11T11:49:55.995Z</time>
		<geoidheight>408</geoidheight>
	</trkpt>
	<trkpt lat="50.666347" lon="6.212197">
		<ele>454</ele>
		<time>2011-09-11T11:49:56.981Z</time>
		<geoidheight>408</geoidheight>
	</trkpt>
	<trkpt lat="50.666335" lon="6.212185">
		<ele>454</ele>
		<time>2011-09-11T11:49:57.981Z</time>
		<geoidheight>408</geoidheight>
	</trkpt>
	<trkpt lat="50.666326" lon="6.212169">
		<ele>454</ele>
		<time>2011-09-11T11:49:58.985Z</time>
		<geoidheight>408</geoidheight>
	</trkpt>
	<trkpt lat="50.666314" lon="6.212157">
		<ele>454</ele>
		<time>2011-09-11T11:49:59.992Z</time>
		<geoidheight>408</geoidheight>
	</trkpt>
	<trkpt lat="50.666302" lon="6.212149">
		<ele>454</ele>
		<time>2011-09-11T11:50:00.983Z</time>
		<geoidheight>408</geoidheight>
	</trkpt>
	<trkpt lat="50.666290" lon="6.212141">
		<ele>454</ele>
		<time>2011-09-11T11:50:01.985Z</time>
		<geoidheight>408</geoidheight>
	</trkpt>
	<trkpt lat="50.666279" lon="6.212131">
		<ele>454</ele>
		<time>2011-09-11T11:50:02.985Z</time>
		<geoidheight>408</geoidheight>
	</trkpt>
	<trkpt lat="50.666268" lon="6.212119">
		<ele>454</ele>
		<time>2011-09-11T11:50:03.993Z</time>
		<geoidheight>408</geoidheight>
	</trkpt>
	<trkpt lat="50.666256" lon="6.212106">
		<ele>454</ele>
		<time>2011-09-11T11:50:04.992Z</time>
		<geoidheight>408</geoidheight>
	</trkpt>
	<trkpt lat="50.666244" lon="6.212094">
		<ele>454</ele>
		<time>2011-09-11T11:50:05.993Z</time>
		<geoidheight>408</geoidheight>
	</trkpt>
	<trkpt lat="50.666232" lon="6.212082">
		<ele>453</ele>
		<time>2011-09-11T11:50:06.982Z</time>
		<geoidheight>407</geoidheight>
	</trkpt>
	<trkpt lat="50.666221" lon="6.212069">
		<ele>453</ele>
		<time>2011-09-11T11:50:07.982Z</time>
		<geoidheight>407</geoidheight>
	</trkpt>
	<trkpt lat="50.666208" lon="6.212057">
		<ele>453</ele>
		<time>2011-09-11T11:50:08.985Z</time>
		<geoidheight>407</geoidheight>
	</trkpt>
	<trkpt lat="50.666196" lon="6.212047">
		<ele>453</ele>
		<time>2011-09-11T11:50:09.995Z</time>
		<geoidheight>407</geoidheight>
	</trkpt>
	<trkpt lat="50.666184" lon="6.212036">
		<ele>453</ele>
		<time>2011-09-11T11:50:10.986Z</time>
		<geoidheight>407</geoidheight>
	</trkpt>
	<trkpt lat="50.666172" lon="6.212024">
		<ele>453</ele>
		<time>2011-09-11T11:50:11.996Z</time>
		<geoidheight>407</geoidheight>
	</trkpt>
	<trkpt lat="50.666159" lon="6.212015">
		<ele>453</ele>
		<time>2011-09-11T11:50:12.985Z</time>
		<geoidheight>407</geoidheight>
	</trkpt>
	<trkpt lat="50.666147" lon="6.212004">
		<ele>453</ele>
		<time>2011-09-11T11:50:13.993Z</time>
		<geoidheight>407</geoidheight>
	</trkpt>
	<trkpt lat="50.666135" lon="6.211997">
		<ele>453</ele>
		<time>2011-09-11T11:50:14.982Z</time>
		<geoidheight>407</geoidheight>
	</trkpt>
	<trkpt lat="50.666122" lon="6.211988">
		<ele>453</ele>
		<time>2011-09-11T11:50:15.981Z</time>
		<geoidheight>407</geoidheight>
	</trkpt>
	<trkpt lat="50.666109" lon="6.211981">
		<ele>452</ele>
		<time>2011-09-11T11:50:16.980Z</time>
		<geoidheight>406</geoidheight>
	</trkpt>
	<trkpt lat="50.666096" lon="6.211974">
		<ele>452</ele>
		<time>2011-09-11T11:50:17.994Z</time>
		<geoidheight>406</geoidheight>
	</trkpt>
	<trkpt lat="50.666083" lon="6.211966">
		<ele>452</ele>
		<time>2011-09-11T11:50:18.996Z</time>
		<geoidheight>406</geoidheight>
	</trkpt>
	<trkpt lat="50.666071" lon="6.211956">
		<ele>452</ele>
		<time>2011-09-11T11:50:19.996Z</time>
		<geoidheight>406</geoidheight>
	</trkpt>
	<trkpt lat="50.666059" lon="6.211947">
		<ele>452</ele>
		<time>2011-09-11T11:50:20.981Z</time>
		<geoidheight>406</geoidheight>
	</trkpt>
	<trkpt lat="50.666046" lon="6.211936">
		<ele>452</ele>
		<time>2011-09-11T11:50:21.973Z</time>
		<geoidheight>406</geoidheight>
	</trkpt>
	<trkpt lat="50.666035" lon="6.211926">
		<ele>452</ele>
		<time>2011-09-11T11:50:22.976Z</time>
		<geoidheight>406</geoidheight>
	</trkpt>
	<trkpt lat="50.666024" lon="6.211923">
		<ele>452</ele>
		<time>2011-09-11T11:50:23.983Z</time>
		<geoidheight>406</geoidheight>
	</trkpt>
	<trkpt lat="50.666014" lon="6.211924">
		<ele>452</ele>
		<time>2011-09-11T11:50:24.982Z</time>
		<geoidheight>406</geoidheight>
	</trkpt>
	<trkpt lat="50.666004" lon="6.211922">
		<ele>452</ele>
		<time>2011-09-11T11:50:25.982Z</time>
		<geoidheight>406</geoidheight>
	</trkpt>
	<trkpt lat="50.665996" lon="6.211915">
		<ele>452</ele>
		<time>2011-09-11T11:50:26.987Z</time>
		<geoidheight>406</geoidheight>
	</trkpt>
	<trkpt lat="50.665989" lon="6.211904">
		<ele>451</ele>
		<time>2011-09-11T11:50:27.994Z</time>
		<geoidheight>405</geoidheight>
	</trkpt>
	<trkpt lat="50.665981" lon="6.211894">
		<ele>451</ele>
		<time>2011-09-11T11:50:28.994Z</time>
		<geoidheight>405</geoidheight>
	</trkpt>
	<trkpt lat="50.665972" lon="6.211886">
		<ele>451</ele>
		<time>2011-09-11T11:50:29.986Z</time>
		<geoidheight>405</geoidheight>
	</trkpt>
	<trkpt lat="50.665961" lon="6.211878">
		<ele>451</ele>
		<time>2011-09-11T11:50:30.978Z</time>
		<geoidheight>405</geoidheight>
	</trkpt>
	<trkpt lat="50.665949" lon="6.211870">
		<ele>451</ele>
		<time>2011-09-11T11:50:31.981Z</time>
		<geoidheight>405</geoidheight>
	</trkpt>
	<trkpt lat="50.665938" lon="6.211859">
		<ele>451</ele>
		<time>2011-09-11T11:50:32.981Z</time>
		<geoidheight>405</geoidheight>
	</trkpt>
	<trkpt lat="50.665927" lon="6.211848">
		<ele>451</ele>
		<time>2011-09-11T11:50:33.983Z</time>
		<geoidheight>405</geoidheight>
	</trkpt>
	<trkpt lat="50.665916" lon="6.211835">
		<ele>451</ele>
		<time>2011-09-11T11:50:34.995Z</time>
		<geoidheight>405</geoidheight>
	</trkpt>
	<trkpt lat="50.665904" lon="6.211824">
		<ele>451</ele>
		<time>2011-09-11T11:50:35.987Z</time>
		<geoidheight>405</geoidheight>
	</trkpt>
	<trkpt lat="50.665893" lon="6.211812">
		<ele>451</ele>
		<time>2011-09-11T11:50:36.986Z</time>
		<geoidheight>405</geoidheight>
	</trkpt>
	<trkpt lat="50.665882" lon="6.211799">
		<ele>451</ele>
		<time>2011-09-11T11:50:37.992Z</time>
		<geoidheight>405</geoidheight>
	</trkpt>
	<trkpt lat="50.665870" lon="6.211788">
		<ele>450</ele>
		<time>2011-09-11T11:50:38.995Z</time>
		<geoidheight>404</geoidheight>
	</trkpt>
	<trkpt lat="50.665859" lon="6.211776">
		<ele>450</ele>
		<time>2011-09-11T11:50:39.977Z</time>
		<geoidheight>404</geoidheight>
	</trkpt>
	<trkpt lat="50.665849" lon="6.211764">
		<ele>450</ele>
		<time>2011-09-11T11:50:40.994Z</time>
		<geoidheight>404</geoidheight>
	</trkpt>
	<trkpt lat="50.665839" lon="6.211755">
		<ele>450</ele>
		<time>2011-09-11T11:50:41.994Z</time>
		<geoidheight>404</geoidheight>
	</trkpt>
	<trkpt lat="50.665830" lon="6.211742">
		<ele>450</ele>
		<time>2011-09-11T11:50:42.993Z</time>
		<geoidheight>404</geoidheight>
	</trkpt>
	<trkpt lat="50.665821" lon="6.211727">
		<ele>450</ele>
		<time>2011-09-11T11:50:43.999Z</time>
		<geoidheight>404</geoidheight>
	</trkpt>
	<trkpt lat="50.665813" lon="6.211713">
		<ele>450</ele>
		<time>2011-09-11T11:50:44.993Z</time>
		<geoidheight>404</geoidheight>
	</trkpt>
	<trkpt lat="50.665805" lon="6.211700">
		<ele>450</ele>
		<time>2011-09-11T11:50:45.980Z</time>
		<geoidheight>404</geoidheight>
	</trkpt>
	<trkpt lat="50.665793" lon="6.211691">
		<ele>450</ele>
		<time>2011-09-11T11:50:46.977Z</time>
		<geoidheight>404</geoidheight>
	</trkpt>
	<trkpt lat="50.665782" lon="6.211683">
		<ele>450</ele>
		<time>2011-09-11T11:50:47.996Z</time>
		<geoidheight>404</geoidheight>
	</trkpt>
	<trkpt lat="50.665772" lon="6.211677">
		<ele>450</ele>
		<time>2011-09-11T11:50:48.985Z</time>
		<geoidheight>404</geoidheight>
	</trkpt>
	<trkpt lat="50.665763" lon="6.211675">
		<ele>450</ele>
		<time>2011-09-11T11:50:49.995Z</time>
		<geoidheight>404</geoidheight>
	</trkpt>
	<trkpt lat="50.665752" lon="6.211671">
		<ele>450</ele>
		<time>2011-09-11T11:50:50.984Z</time>
		<geoidheight>404</geoidheight>
	</trkpt>
	<trkpt lat="50.665741" lon="6.211666">
		<ele>450</ele>
		<time>2011-09-11T11:50:51.977Z</time>
		<geoidheight>404</geoidheight>
	</trkpt>
	<trkpt lat="50.665730" lon="6.211656">
		<ele>449</ele>
		<time>2011-09-11T11:50:52.995Z</time>
		<geoidheight>403</geoidheight>
	</trkpt>
	<trkpt lat="50.665720" lon="6.211647">
		<ele>449</ele>
		<time>2011-09-11T11:50:53.981Z</time>
		<geoidheight>403</geoidheight>
	</trkpt>
	<trkpt lat="50.665709" lon="6.211635">
		<ele>449</ele>
		<time>2011-09-11T11:50:54.980Z</time>
		<geoidheight>403</geoidheight>
	</trkpt>
	<trkpt lat="50.665698" lon="6.211625">
		<ele>449</ele>
		<time>2011-09-11T11:50:55.997Z</time>
		<geoidheight>403</geoidheight>
	</trkpt>
	<trkpt lat="50.665689" lon="6.211613">
		<ele>449</ele>
		<time>2011-09-11T11:50:56.995Z</time>
		<geoidheight>403</geoidheight>
	</trkpt>
	<trkpt lat="50.665679" lon="6.211598">
		<ele>449</ele>
		<time>2011-09-11T11:50:57.995Z</time>
		<geoidheight>403</geoidheight>
	</trkpt>
	<trkpt lat="50.665670" lon="6.211583">
		<ele>449</ele>
		<time>2011-09-11T11:50:58.980Z</time>
		<geoidheight>403</geoidheight>
	</trkpt>
	<trkpt lat="50.665660" lon="6.211568">
		<ele>449</ele>
		<time>2011-09-11T11:50:59.993Z</time>
		<geoidheight>403</geoidheight>
	</trkpt>
	<trkpt lat="50.665651" lon="6.211556">
		<ele>449</ele>
		<time>2011-09-11T11:51:00.986Z</time>
		<geoidheight>403</geoidheight>
	</trkpt>
	<trkpt lat="50.665641" lon="6.211546">
		<ele>449</ele>
		<time>2011-09-11T11:51:01.992Z</time>
		<geoidheight>403</geoidheight>
	</trkpt>
	<trkpt lat="50.665633" lon="6.211533">
		<ele>449</ele>
		<time>2011-09-11T11:51:02.986Z</time>
		<geoidheight>403</geoidheight>
	</trkpt>
	<trkpt lat="50.665626" lon="6.211519">
		<ele>449</ele>
		<time>2011-09-11T11:51:03.996Z</time>
		<geoidheight>403</geoidheight>
	</trkpt>
	<trkpt lat="50.665619" lon="6.211505">
		<ele>449</ele>
		<time>2011-09-11T11:51:04.995Z</time>
		<geoidheight>403</geoidheight>
	</trkpt>
	<trkpt lat="50.665612" lon="6.211492">
		<ele>449</ele>
		<time>2011-09-11T11:51:05.994Z</time>
		<geoidheight>403</geoidheight>
	</trkpt>
	<trkpt lat="50.665604" lon="6.211479">
		<ele>448</ele>
		<time>2011-09-11T11:51:06.993Z</time>
		<geoidheight>402</geoidheight>
	</trkpt>
	<trkpt lat="50.665597" lon="6.211468">
		<ele>448</ele>
		<time>2011-09-11T11:51:07.993Z</time>
		<geoidheight>402</geoidheight>
	</trkpt>
	<trkpt lat="50.665589" lon="6.211456">
		<ele>448</ele>
		<time>2011-09-11T11:51:08.995Z</time>
		<geoidheight>402</geoidheight>
	</trkpt>
	<trkpt lat="50.665579" lon="6.211447">
		<ele>448</ele>
		<time>2011-09-11T11:51:09.983Z</time>
		<geoidheight>402</geoidheight>
	</trkpt>
	<trkpt lat="50.665570" lon="6.211434">
		<ele>448</ele>
		<time>2011-09-11T11:51:10.997Z</time>
		<geoidheight>402</geoidheight>
	</trkpt>
	<trkpt lat="50.665559" lon="6.211425">
		<ele>448</ele>
		<time>2011-09-11T11:51:11.984Z</time>
		<geoidheight>402</geoidheight>
	</trkpt>
	<trkpt lat="50.665549" lon="6.211412">
		<ele>448</ele>
		<time>2011-09-11T11:51:12.995Z</time>
		<geoidheight>402</geoidheight>
	</trkpt>
	<trkpt lat="50.665538" lon="6.211400">
		<ele>448</ele>
		<time>2011-09-11T11:51:13.994Z</time>
		<geoidheight>402</geoidheight>
	</trkpt>
	<trkpt lat="50.665526" lon="6.211388">
		<ele>448</ele>
		<time>2011-09-11T11:51:14.996Z</time>
		<geoidheight>402</geoidheight>
	</trkpt>
	<trkpt lat="50.665515" lon="6.211376">
		<ele>448</ele>
		<time>2011-09-11T11:51:15.996Z</time>
		<geoidheight>402</geoidheight>
	</trkpt>
	<trkpt lat="50.665504" lon="6.211365">
		<ele>448</ele>
		<time>2011-09-11T11:51:16.985Z</time>
		<geoidheight>402</geoidheight>
	</trkpt>
	<trkpt lat="50.665494" lon="6.211354">
		<ele>448</ele>
		<time>2011-09-11T11:51:17.993Z</time>
		<geoidheight>402</geoidheight>
	</trkpt>
	<trkpt lat="50.665484" lon="6.211342">
		<ele>448</ele>
		<time>2011-09-11T11:51:18.973Z</time>
		<geoidheight>402</geoidheight>
	</trkpt>
	<trkpt lat="50.665474" lon="6.211330">
		<ele>448</ele>
		<time>2011-09-11T11:51:19.980Z</time>
		<geoidheight>402</geoidheight>
	</trkpt>
	<trkpt lat="50.665464" lon="6.211319">
		<ele>448</ele>
		<time>2011-09-11T11:51:20.981Z</time>
		<geoidheight>402</geoidheight>
	</trkpt>
	<trkpt lat="50.665453" lon="6.211308">
		<ele>448</ele>
		<time>2011-09-11T11:51:21.976Z</time>
		<geoidheight>402</geoidheight>
	</trkpt>
	<trkpt lat="50.665444" lon="6.211297">
		<ele>447</ele>
		<time>2011-09-11T11:51:22.973Z</time>
		<geoidheight>401</geoidheight>
	</trkpt>
	<trkpt lat="50.665431" lon="6.211291">
		<ele>447</ele>
		<time>2011-09-11T11:51:23.977Z</time>
		<geoidheight>401</geoidheight>
	</trkpt>
	<trkpt lat="50.665419" lon="6.211285">
		<ele>447</ele>
		<time>2011-09-11T11:51:24.973Z</time>
		<geoidheight>401</geoidheight>
	</trkpt>
	<trkpt lat="50.665409" lon="6.211273">
		<ele>447</ele>
		<time>2011-09-11T11:51:25.978Z</time>
		<geoidheight>401</geoidheight>
	</trkpt>
	<trkpt lat="50.665397" lon="6.211262">
		<ele>447</ele>
		<time>2011-09-11T11:51:26.980Z</time>
		<geoidheight>401</geoidheight>
	</trkpt>
	<trkpt lat="50.665388" lon="6.211247">
		<ele>447</ele>
		<time>2011-09-11T11:51:27.975Z</time>
		<geoidheight>401</geoidheight>
	</trkpt>
	<trkpt lat="50.665378" lon="6.211235">
		<ele>447</ele>
		<time>2011-09-11T11:51:28.976Z</time>
		<geoidheight>401</geoidheight>
	</trkpt>
	<trkpt lat="50.665368" lon="6.211223">
		<ele>447</ele>
		<time>2011-09-11T11:51:29.982Z</time>
		<geoidheight>401</geoidheight>
	</trkpt>
	<trkpt lat="50.665358" lon="6.211209">
		<ele>447</ele>
		<time>2011-09-11T11:51:30.975Z</time>
		<geoidheight>401</geoidheight>
	</trkpt>
	<trkpt lat="50.665349" lon="6.211193">
		<ele>447</ele>
		<time>2011-09-11T11:51:31.975Z</time>
		<geoidheight>401</geoidheight>
	</trkpt>
	<trkpt lat="50.665339" lon="6.211179">
		<ele>447</ele>
		<time>2011-09-11T11:51:32.976Z</time>
		<geoidheight>401</geoidheight>
	</trkpt>
	<trkpt lat="50.665329" lon="6.211166">
		<ele>447</ele>
		<time>2011-09-11T11:51:33.978Z</time>
		<geoidheight>401</geoidheight>
	</trkpt>
	<trkpt lat="50.665319" lon="6.211153">
		<ele>447</ele>
		<time>2011-09-11T11:51:34.978Z</time>
		<geoidheight>401</geoidheight>
	</trkpt>
	<trkpt lat="50.665308" lon="6.211141">
		<ele>447</ele>
		<time>2011-09-11T11:51:35.964Z</time>
		<geoidheight>401</geoidheight>
	</trkpt>
	<trkpt lat="50.665296" lon="6.211135">
		<ele>447</ele>
		<time>2011-09-11T11:51:36.976Z</time>
		<geoidheight>401</geoidheight>
	</trkpt>
	<trkpt lat="50.665285" lon="6.211127">
		<ele>447</ele>
		<time>2011-09-11T11:51:37.977Z</time>
		<geoidheight>401</geoidheight>
	</trkpt>
	<trkpt lat="50.665273" lon="6.211120">
		<ele>447</ele>
		<time>2011-09-11T11:51:38.976Z</time>
		<geoidheight>401</geoidheight>
	</trkpt>
	<trkpt lat="50.665262" lon="6.211110">
		<ele>447</ele>
		<time>2011-09-11T11:51:39.978Z</time>
		<geoidheight>401</geoidheight>
	</trkpt>
	<trkpt lat="50.665251" lon="6.211100">
		<ele>447</ele>
		<time>2011-09-11T11:51:40.979Z</time>
		<geoidheight>401</geoidheight>
	</trkpt>
	<trkpt lat="50.665241" lon="6.211089">
		<ele>447</ele>
		<time>2011-09-11T11:51:41.980Z</time>
		<geoidheight>401</geoidheight>
	</trkpt>
	<trkpt lat="50.665231" lon="6.211081">
		<ele>447</ele>
		<time>2011-09-11T11:51:42.963Z</time>
		<geoidheight>401</geoidheight>
	</trkpt>
	<trkpt lat="50.665219" lon="6.211079">
		<ele>447</ele>
		<time>2011-09-11T11:51:43.968Z</time>
		<geoidheight>401</geoidheight>
	</trkpt>
	<trkpt lat="50.665208" lon="6.211074">
		<ele>447</ele>
		<time>2011-09-11T11:51:44.961Z</time>
		<geoidheight>401</geoidheight>
	</trkpt>
	<trkpt lat="50.665198" lon="6.211068">
		<ele>447</ele>
		<time>2011-09-11T11:51:45.964Z</time>
		<geoidheight>401</geoidheight>
	</trkpt>
	<trkpt lat="50.665189" lon="6.211061">
		<ele>447</ele>
		<time>2011-09-11T11:51:46.962Z</time>
		<geoidheight>401</geoidheight>
	</trkpt>
	<trkpt lat="50.665180" lon="6.211054">
		<ele>447</ele>
		<time>2011-09-11T11:51:47.966Z</time>
		<geoidheight>401</geoidheight>
	</trkpt>
	<trkpt lat="50.665171" lon="6.211044">
		<ele>447</ele>
		<time>2011-09-11T11:51:48.963Z</time>
		<geoidheight>401</geoidheight>
	</trkpt>
	<trkpt lat="50.665164" lon="6.211029">
		<ele>447</ele>
		<time>2011-09-11T11:51:49.963Z</time>
		<geoidheight>401</geoidheight>
	</trkpt>
	<trkpt lat="50.665155" lon="6.211011">
		<ele>447</ele>
		<time>2011-09-11T11:51:50.964Z</time>
		<geoidheight>401</geoidheight>
	</trkpt>
	<trkpt lat="50.665143" lon="6.210990">
		<ele>447</ele>
		<time>2011-09-11T11:51:51.962Z</time>
		<geoidheight>401</geoidheight>
	</trkpt>
	<trkpt lat="50.665132" lon="6.210974">
		<ele>447</ele>
		<time>2011-09-11T11:51:52.952Z</time>
		<geoidheight>401</geoidheight>
	</trkpt>
	<trkpt lat="50.665120" lon="6.210959">
		<ele>447</ele>
		<time>2011-09-11T11:51:53.951Z</time>
		<geoidheight>401</geoidheight>
	</trkpt>
	<trkpt lat="50.665109" lon="6.210942">
		<ele>447</ele>
		<time>2011-09-11T11:51:54.952Z</time>
		<geoidheight>401</geoidheight>
	</trkpt>
	<trkpt lat="50.665097" lon="6.210926">
		<ele>447</ele>
		<time>2011-09-11T11:51:55.965Z</time>
		<geoidheight>401</geoidheight>
	</trkpt>
	<trkpt lat="50.665085" lon="6.210909">
		<ele>447</ele>
		<time>2011-09-11T11:51:56.965Z</time>
		<geoidheight>401</geoidheight>
	</trkpt>
	<trkpt lat="50.665072" lon="6.210893">
		<ele>447</ele>
		<time>2011-09-11T11:51:57.979Z</time>
		<geoidheight>401</geoidheight>
	</trkpt>
	<trkpt lat="50.665059" lon="6.210882">
		<ele>447</ele>
		<time>2011-09-11T11:51:58.985Z</time>
		<geoidheight>401</geoidheight>
	</trkpt>
	<trkpt lat="50.665048" lon="6.210871">
		<ele>447</ele>
		<time>2011-09-11T11:51:59.998Z</time>
		<geoidheight>401</geoidheight>
	</trkpt>
	<trkpt lat="50.665036" lon="6.210861">
		<ele>447</ele>
		<time>2011-09-11T11:52:00.996Z</time>
		<geoidheight>401</geoidheight>
	</trkpt>
	<trkpt lat="50.665024" lon="6.210851">
		<ele>447</ele>
		<time>2011-09-11T11:52:01.997Z</time>
		<geoidheight>401</geoidheight>
	</trkpt>
	<trkpt lat="50.665013" lon="6.210840">
		<ele>447</ele>
		<time>2011-09-11T11:52:02.986Z</time>
		<geoidheight>401</geoidheight>
	</trkpt>
	<trkpt lat="50.665000" lon="6.210836">
		<ele>447</ele>
		<time>2011-09-11T11:52:03.974Z</time>
		<geoidheight>401</geoidheight>
	</trkpt>
	<trkpt lat="50.664987" lon="6.210829">
		<ele>447</ele>
		<time>2011-09-11T11:52:04.965Z</time>
		<geoidheight>401</geoidheight>
	</trkpt>
	<trkpt lat="50.664974" lon="6.210825">
		<ele>447</ele>
		<time>2011-09-11T11:52:05.967Z</time>
		<geoidheight>401</geoidheight>
	</trkpt>
	<trkpt lat="50.664963" lon="6.210816">
		<ele>447</ele>
		<time>2011-09-11T11:52:06.965Z</time>
		<geoidheight>401</geoidheight>
	</trkpt>
	<trkpt lat="50.664950" lon="6.210809">
		<ele>447</ele>
		<time>2011-09-11T11:52:07.973Z</time>
		<geoidheight>401</geoidheight>
	</trkpt>
	<trkpt lat="50.664937" lon="6.210804">
		<ele>447</ele>
		<time>2011-09-11T11:52:08.967Z</time>
		<geoidheight>401</geoidheight>
	</trkpt>
	<trkpt lat="50.664926" lon="6.210796">
		<ele>447</ele>
		<time>2011-09-11T11:52:09.962Z</time>
		<geoidheight>401</geoidheight>
	</trkpt>
	<trkpt lat="50.664915" lon="6.210790">
		<ele>447</ele>
		<time>2011-09-11T11:52:10.964Z</time>
		<geoidheight>401</geoidheight>
	</trkpt>
	<trkpt lat="50.664905" lon="6.210782">
		<ele>447</ele>
		<time>2011-09-11T11:52:11.962Z</time>
		<geoidheight>401</geoidheight>
	</trkpt>
	<trkpt lat="50.664893" lon="6.210776">
		<ele>447</ele>
		<time>2011-09-11T11:52:12.950Z</time>
		<geoidheight>401</geoidheight>
	</trkpt>
	<trkpt lat="50.664882" lon="6.210765">
		<ele>447</ele>
		<time>2011-09-11T11:52:13.953Z</time>
		<geoidheight>401</geoidheight>
	</trkpt>
	<trkpt lat="50.664870" lon="6.210756">
		<ele>447</ele>
		<time>2011-09-11T11:52:14.951Z</time>
		<geoidheight>401</geoidheight>
	</trkpt>
	<trkpt lat="50.664859" lon="6.210745">
		<ele>447</ele>
		<time>2011-09-11T11:52:15.950Z</time>
		<geoidheight>401</geoidheight>
	</trkpt>
	<trkpt lat="50.664849" lon="6.210733">
		<ele>447</ele>
		<time>2011-09-11T11:52:16.957Z</time>
		<geoidheight>401</geoidheight>
	</trkpt>
	<trkpt lat="50.664838" lon="6.210726">
		<ele>447</ele>
		<time>2011-09-11T11:52:17.951Z</time>
		<geoidheight>401</geoidheight>
	</trkpt>
	<trkpt lat="50.664828" lon="6.210716">
		<ele>447</ele>
		<time>2011-09-11T11:52:18.959Z</time>
		<geoidheight>401</geoidheight>
	</trkpt>
	<trkpt lat="50.664820" lon="6.210704">
		<ele>447</ele>
		<time>2011-09-11T11:52:19.957Z</time>
		<geoidheight>401</geoidheight>
	</trkpt>
	<trkpt lat="50.664810" lon="6.210696">
		<ele>447</ele>
		<time>2011-09-11T11:52:20.959Z</time>
		<geoidheight>401</geoidheight>
	</trkpt>
	<trkpt lat="50.664801" lon="6.210683">
		<ele>447</ele>
		<time>2011-09-11T11:52:21.975Z</time>
		<geoidheight>401</geoidheight>
	</trkpt>
	<trkpt lat="50.664790" lon="6.210670">
		<ele>447</ele>
		<time>2011-09-11T11:52:22.979Z</time>
		<geoidheight>401</geoidheight>
	</trkpt>
	<trkpt lat="50.664781" lon="6.210650">
		<ele>447</ele>
		<time>2011-09-11T11:52:23.976Z</time>
		<geoidheight>401</geoidheight>
	</trkpt>
	<trkpt lat="50.664771" lon="6.210633">
		<ele>447</ele>
		<time>2011-09-11T11:52:24.976Z</time>
		<geoidheight>401</geoidheight>
	</trkpt>
	<trkpt lat="50.664761" lon="6.210619">
		<ele>447</ele>
		<time>2011-09-11T11:52:25.961Z</time>
		<geoidheight>401</geoidheight>
	</trkpt>
	<trkpt lat="50.664752" lon="6.210603">
		<ele>447</ele>
		<time>2011-09-11T11:52:26.959Z</time>
		<geoidheight>401</geoidheight>
	</trkpt>
	<trkpt lat="50.664742" lon="6.210591">
		<ele>447</ele>
		<time>2011-09-11T11:52:27.964Z</time>
		<geoidheight>401</geoidheight>
	</trkpt>
	<trkpt lat="50.664731" lon="6.210580">
		<ele>447</ele>
		<time>2011-09-11T11:52:28.964Z</time>
		<geoidheight>401</geoidheight>
	</trkpt>
	<trkpt lat="50.664720" lon="6.210571">
		<ele>447</ele>
		<time>2011-09-11T11:52:29.959Z</time>
		<geoidheight>401</geoidheight>
	</trkpt>
	<trkpt lat="50.664710" lon="6.210560">
		<ele>447</ele>
		<time>2011-09-11T11:52:30.966Z</time>
		<geoidheight>401</geoidheight>
	</trkpt>
	<trkpt lat="50.664701" lon="6.210549">
		<ele>447</ele>
		<time>2011-09-11T11:52:31.962Z</time>
		<geoidheight>401</geoidheight>
	</trkpt>
	<trkpt lat="50.664691" lon="6.210542">
		<ele>447</ele>
		<time>2011-09-11T11:52:32.964Z</time>
		<geoidheight>401</geoidheight>
	</trkpt>
	<trkpt lat="50.664681" lon="6.210534">
		<ele>447</ele>
		<time>2011-09-11T11:52:33.966Z</time>
		<geoidheight>401</geoidheight>
	</trkpt>
	<trkpt lat="50.664671" lon="6.210528">
		<ele>447</ele>
		<time>2011-09-11T11:52:34.971Z</time>
		<geoidheight>401</geoidheight>
	</trkpt>
	<trkpt lat="50.664661" lon="6.210521">
		<ele>447</ele>
		<time>2011-09-11T11:52:35.961Z</time>
		<geoidheight>401</geoidheight>
	</trkpt>
	<trkpt lat="50.664650" lon="6.210515">
		<ele>447</ele>
		<time>2011-09-11T11:52:36.976Z</time>
		<geoidheight>401</geoidheight>
	</trkpt>
	<trkpt lat="50.664641" lon="6.210505">
		<ele>447</ele>
		<time>2011-09-11T11:52:37.981Z</time>
		<geoidheight>401</geoidheight>
	</trkpt>
	<trkpt lat="50.664630" lon="6.210497">
		<ele>447</ele>
		<time>2011-09-11T11:52:38.984Z</time>
		<geoidheight>401</geoidheight>
	</trkpt>
	<trkpt lat="50.664620" lon="6.210489">
		<ele>447</ele>
		<time>2011-09-11T11:52:39.975Z</time>
		<geoidheight>401</geoidheight>
	</trkpt>
	<trkpt lat="50.664611" lon="6.210480">
		<ele>447</ele>
		<time>2011-09-11T11:52:40.981Z</time>
		<geoidheight>401</geoidheight>
	</trkpt>
	<trkpt lat="50.664600" lon="6.210470">
		<ele>448</ele>
		<time>2011-09-11T11:52:41.983Z</time>
		<geoidheight>402</geoidheight>
	</trkpt>
	<trkpt lat="50.664590" lon="6.210460">
		<ele>448</ele>
		<time>2011-09-11T11:52:42.979Z</time>
		<geoidheight>402</geoidheight>
	</trkpt>
	<trkpt lat="50.664580" lon="6.210452">
		<ele>448</ele>
		<time>2011-09-11T11:52:43.972Z</time>
		<geoidheight>402</geoidheight>
	</trkpt>
	<trkpt lat="50.664570" lon="6.210440">
		<ele>448</ele>
		<time>2011-09-11T11:52:44.965Z</time>
		<geoidheight>402</geoidheight>
	</trkpt>
	<trkpt lat="50.664559" lon="6.210429">
		<ele>448</ele>
		<time>2011-09-11T11:52:45.960Z</time>
		<geoidheight>402</geoidheight>
	</trkpt>
	<trkpt lat="50.664548" lon="6.210418">
		<ele>448</ele>
		<time>2011-09-11T11:52:46.966Z</time>
		<geoidheight>402</geoidheight>
	</trkpt>
	<trkpt lat="50.664537" lon="6.210404">
		<ele>448</ele>
		<time>2011-09-11T11:52:47.960Z</time>
		<geoidheight>402</geoidheight>
	</trkpt>
	<trkpt lat="50.664526" lon="6.210394">
		<ele>448</ele>
		<time>2011-09-11T11:52:48.956Z</time>
		<geoidheight>402</geoidheight>
	</trkpt>
	<trkpt lat="50.664516" lon="6.210378">
		<ele>448</ele>
		<time>2011-09-11T11:52:49.962Z</time>
		<geoidheight>402</geoidheight>
	</trkpt>
	<trkpt lat="50.664507" lon="6.210362">
		<ele>448</ele>
		<time>2011-09-11T11:52:50.960Z</time>
		<geoidheight>402</geoidheight>
	</trkpt>
	<trkpt lat="50.664498" lon="6.210351">
		<ele>448</ele>
		<time>2011-09-11T11:52:51.963Z</time>
		<geoidheight>402</geoidheight>
	</trkpt>
	<trkpt lat="50.664488" lon="6.210340">
		<ele>448</ele>
		<time>2011-09-11T11:52:52.969Z</time>
		<geoidheight>402</geoidheight>
	</trkpt>
	<trkpt lat="50.664478" lon="6.210330">
		<ele>448</ele>
		<time>2011-09-11T11:52:53.967Z</time>
		<geoidheight>402</geoidheight>
	</trkpt>
	<trkpt lat="50.664469" lon="6.210320">
		<ele>448</ele>
		<time>2011-09-11T11:52:54.961Z</time>
		<geoidheight>402</geoidheight>
	</trkpt>
	<trkpt lat="50.664460" lon="6.210307">
		<ele>448</ele>
		<time>2011-09-11T11:52:55.970Z</time>
		<geoidheight>402</geoidheight>
	</trkpt>
	<trkpt lat="50.664449" lon="6.210296">
		<ele>448</ele>
		<time>2011-09-11T11:52:56.963Z</time>
		<geoidheight>402</geoidheight>
	</trkpt>
	<trkpt lat="50.664439" lon="6.210285">
		<ele>448</ele>
		<time>2011-09-11T11:52:57.962Z</time>
		<geoidheight>402</geoidheight>
	</trkpt>
	<trkpt lat="50.664431" lon="6.210271">
		<ele>449</ele>
		<time>2011-09-11T11:52:58.972Z</time>
		<geoidheight>403</geoidheight>
	</trkpt>
	<trkpt lat="50.664422" lon="6.210259">
		<ele>449</ele>
		<time>2011-09-11T11:52:59.977Z</time>
		<geoidheight>403</geoidheight>
	</trkpt>
	<trkpt lat="50.664412" lon="6.210250">
		<ele>449</ele>
		<time>2011-09-11T11:53:00.977Z</time>
		<geoidheight>403</geoidheight>
	</trkpt>
	<trkpt lat="50.664403" lon="6.210241">
		<ele>449</ele>
		<time>2011-09-11T11:53:01.977Z</time>
		<geoidheight>403</geoidheight>
	</trkpt>
	<trkpt lat="50.664394" lon="6.210229">
		<ele>449</ele>
		<time>2011-09-11T11:53:02.986Z</time>
		<geoidheight>403</geoidheight>
	</trkpt>
	<trkpt lat="50.664385" lon="6.210219">
		<ele>449</ele>
		<time>2011-09-11T11:53:03.979Z</time>
		<geoidheight>403</geoidheight>
	</trkpt>
	<trkpt lat="50.664375" lon="6.210209">
		<ele>449</ele>
		<time>2011-09-11T11:53:04.987Z</time>
		<geoidheight>403</geoidheight>
	</trkpt>
	<trkpt lat="50.664366" lon="6.210201">
		<ele>449</ele>
		<time>2011-09-11T11:53:05.978Z</time>
		<geoidheight>403</geoidheight>
	</trkpt>
	<trkpt lat="50.664357" lon="6.210190">
		<ele>449</ele>
		<time>2011-09-11T11:53:06.984Z</time>
		<geoidheight>403</geoidheight>
	</trkpt>
	<trkpt lat="50.664349" lon="6.210178">
		<ele>449</ele>
		<time>2011-09-11T11:53:07.971Z</time>
		<geoidheight>403</geoidheight>
	</trkpt>
	<trkpt lat="50.664342" lon="6.210165">
		<ele>449</ele>
		<time>2011-09-11T11:53:08.975Z</time>
		<geoidheight>403</geoidheight>
	</trkpt>
	<trkpt lat="50.664333" lon="6.210154">
		<ele>449</ele>
		<time>2011-09-11T11:53:09.976Z</time>
		<geoidheight>403</geoidheight>
	</trkpt>
	<trkpt lat="50.664325" lon="6.210144">
		<ele>449</ele>
		<time>2011-09-11T11:53:10.971Z</time>
		<geoidheight>403</geoidheight>
	</trkpt>
	<trkpt lat="50.664316" lon="6.210136">
		<ele>450</ele>
		<time>2011-09-11T11:53:11.971Z</time>
		<geoidheight>404</geoidheight>
	</trkpt>
	<trkpt lat="50.664307" lon="6.210127">
		<ele>450</ele>
		<time>2011-09-11T11:53:12.973Z</time>
		<geoidheight>404</geoidheight>
	</trkpt>
	<trkpt lat="50.664298" lon="6.210118">
		<ele>450</ele>
		<time>2011-09-11T11:53:13.969Z</time>
		<geoidheight>404</geoidheight>
	</trkpt>
	<trkpt lat="50.664288" lon="6.210112">
		<ele>450</ele>
		<time>2011-09-11T11:53:14.969Z</time>
		<geoidheight>404</geoidheight>
	</trkpt>
	<trkpt lat="50.664278" lon="6.210105">
		<ele>450</ele>
		<time>2011-09-11T11:53:15.970Z</time>
		<geoidheight>404</geoidheight>
	</trkpt>
	<trkpt lat="50.664269" lon="6.210096">
		<ele>450</ele>
		<time>2011-09-11T11:53:16.969Z</time>
		<geoidheight>404</geoidheight>
	</trkpt>
	<trkpt lat="50.664260" lon="6.210086">
		<ele>450</ele>
		<time>2011-09-11T11:53:17.970Z</time>
		<geoidheight>404</geoidheight>
	</trkpt>
	<trkpt lat="50.664251" lon="6.210074">
		<ele>450</ele>
		<time>2011-09-11T11:53:18.965Z</time>
		<geoidheight>404</geoidheight>
	</trkpt>
	<trkpt lat="50.664243" lon="6.210064">
		<ele>450</ele>
		<time>2011-09-11T11:53:19.970Z</time>
		<geoidheight>404</geoidheight>
	</trkpt>
	<trkpt lat="50.664234" lon="6.210054">
		<ele>450</ele>
		<time>2011-09-11T11:53:20.983Z</time>
		<geoidheight>404</geoidheight>
	</trkpt>
	<trkpt lat="50.664224" lon="6.210048">
		<ele>450</ele>
		<time>2011-09-11T11:53:21.980Z</time>
		<geoidheight>404</geoidheight>
	</trkpt>
	<trkpt lat="50.664214" lon="6.210040">
		<ele>451</ele>
		<time>2011-09-11T11:53:22.983Z</time>
		<geoidheight>405</geoidheight>
	</trkpt>
	<trkpt lat="50.664206" lon="6.210028">
		<ele>451</ele>
		<time>2011-09-11T11:53:23.978Z</time>
		<geoidheight>405</geoidheight>
	</trkpt>
	<trkpt lat="50.664199" lon="6.210015">
		<ele>451</ele>
		<time>2011-09-11T11:53:24.999Z</time>
		<geoidheight>405</geoidheight>
	</trkpt>
	<trkpt lat="50.664192" lon="6.210005">
		<ele>451</ele>
		<time>2011-09-11T11:53:25.998Z</time>
		<geoidheight>405</geoidheight>
	</trkpt>
	<trkpt lat="50.664185" lon="6.209993">
		<ele>451</ele>
		<time>2011-09-11T11:53:26.996Z</time>
		<geoidheight>405</geoidheight>
	</trkpt>
	<trkpt lat="50.664176" lon="6.209984">
		<ele>451</ele>
		<time>2011-09-11T11:53:27.996Z</time>
		<geoidheight>405</geoidheight>
	</trkpt>
	<trkpt lat="50.664166" lon="6.209973">
		<ele>451</ele>
		<time>2011-09-11T11:53:28.996Z</time>
		<geoidheight>405</geoidheight>
	</trkpt>
	<trkpt lat="50.664156" lon="6.209964">
		<ele>451</ele>
		<time>2011-09-11T11:53:29.996Z</time>
		<geoidheight>405</geoidheight>
	</trkpt>
	<trkpt lat="50.664145" lon="6.209955">
		<ele>451</ele>
		<time>2011-09-11T11:53:31.000Z</time>
		<geoidheight>405</geoidheight>
	</trkpt>
	<trkpt lat="50.664133" lon="6.209949">
		<ele>451</ele>
		<time>2011-09-11T11:53:31.983Z</time>
		<geoidheight>405</geoidheight>
	</trkpt>
	<trkpt lat="50.664121" lon="6.209944">
		<ele>451</ele>
		<time>2011-09-11T11:53:32.980Z</time>
		<geoidheight>405</geoidheight>
	</trkpt>
	<trkpt lat="50.664111" lon="6.209938">
		<ele>452</ele>
		<time>2011-09-11T11:53:33.982Z</time>
		<geoidheight>406</geoidheight>
	</trkpt>
	<trkpt lat="50.664101" lon="6.209933">
		<ele>452</ele>
		<time>2011-09-11T11:53:34.995Z</time>
		<geoidheight>406</geoidheight>
	</trkpt>
	<trkpt lat="50.664093" lon="6.209924">
		<ele>452</ele>
		<time>2011-09-11T11:53:35.992Z</time>
		<geoidheight>406</geoidheight>
	</trkpt>
	<trkpt lat="50.664084" lon="6.209917">
		<ele>452</ele>
		<time>2011-09-11T11:53:36.986Z</time>
		<geoidheight>406</geoidheight>
	</trkpt>
	<trkpt lat="50.664073" lon="6.209908">
		<ele>452</ele>
		<time>2011-09-11T11:53:37.978Z</time>
		<geoidheight>406</geoidheight>
	</trkpt>
	<trkpt lat="50.664064" lon="6.209896">
		<ele>452</ele>
		<time>2011-09-11T11:53:38.981Z</time>
		<geoidheight>406</geoidheight>
	</trkpt>
	<trkpt lat="50.664057" lon="6.209882">
		<ele>452</ele>
		<time>2011-09-11T11:53:39.981Z</time>
		<geoidheight>406</geoidheight>
	</trkpt>
	<trkpt lat="50.664046" lon="6.209872">
		<ele>452</ele>
		<time>2011-09-11T11:53:40.978Z</time>
		<geoidheight>406</geoidheight>
	</trkpt>
	<trkpt lat="50.664034" lon="6.209864">
		<ele>452</ele>
		<time>2011-09-11T11:53:41.983Z</time>
		<geoidheight>406</geoidheight>
	</trkpt>
	<trkpt lat="50.664023" lon="6.209855">
		<ele>452</ele>
		<time>2011-09-11T11:53:42.981Z</time>
		<geoidheight>406</geoidheight>
	</trkpt>
	<trkpt lat="50.664010" lon="6.209850">
		<ele>452</ele>
		<time>2011-09-11T11:53:43.997Z</time>
		<geoidheight>406</geoidheight>
	</trkpt>
	<trkpt lat="50.663997" lon="6.209843">
		<ele>453</ele>
		<time>2011-09-11T11:53:44.997Z</time>
		<geoidheight>407</geoidheight>
	</trkpt>
	<trkpt lat="50.663985" lon="6.209838">
		<ele>453</ele>
		<time>2011-09-11T11:53:46.001Z</time>
		<geoidheight>407</geoidheight>
	</trkpt>
	<trkpt lat="50.663974" lon="6.209830">
		<ele>453</ele>
		<time>2011-09-11T11:53:46.997Z</time>
		<geoidheight>407</geoidheight>
	</trkpt>
	<trkpt lat="50.663965" lon="6.209817">
		<ele>453</ele>
		<time>2011-09-11T11:53:47.996Z</time>
		<geoidheight>407</geoidheight>
	</trkpt>
	<trkpt lat="50.663957" lon="6.209803">
		<ele>453</ele>
		<time>2011-09-11T11:53:48.993Z</time>
		<geoidheight>407</geoidheight>
	</trkpt>
	<trkpt lat="50.663949" lon="6.209788">
		<ele>453</ele>
		<time>2011-09-11T11:53:49.998Z</time>
		<geoidheight>407</geoidheight>
	</trkpt>
	<trkpt lat="50.663940" lon="6.209774">
		<ele>453</ele>
		<time>2011-09-11T11:53:50.982Z</time>
		<geoidheight>407</geoidheight>
	</trkpt>
	<trkpt lat="50.663933" lon="6.209759">
		<ele>453</ele>
		<time>2011-09-11T11:53:51.981Z</time>
		<geoidheight>407</geoidheight>
	</trkpt>
	<trkpt lat="50.663926" lon="6.209744">
		<ele>453</ele>
		<time>2011-09-11T11:53:52.984Z</time>
		<geoidheight>407</geoidheight>
	</trkpt>
	<trkpt lat="50.663915" lon="6.209736">
		<ele>454</ele>
		<time>2011-09-11T11:53:53.985Z</time>
		<geoidheight>408</geoidheight>
	</trkpt>
	<trkpt lat="50.663908" lon="6.209723">
		<ele>454</ele>
		<time>2011-09-11T11:53:54.986Z</time>
		<geoidheight>408</geoidheight>
	</trkpt>
	<trkpt lat="50.663900" lon="6.209708">
		<ele>454</ele>
		<time>2011-09-11T11:53:55.978Z</time>
		<geoidheight>408</geoidheight>
	</trkpt>
	<trkpt lat="50.663891" lon="6.209695">
		<ele>454</ele>
		<time>2011-09-11T11:53:56.969Z</time>
		<geoidheight>408</geoidheight>
	</trkpt>
	<trkpt lat="50.663882" lon="6.209681">
		<ele>454</ele>
		<time>2011-09-11T11:53:57.969Z</time>
		<geoidheight>408</geoidheight>
	</trkpt>
	<trkpt lat="50.663874" lon="6.209667">
		<ele>454</ele>
		<time>2011-09-11T11:53:58.972Z</time>
		<geoidheight>408</geoidheight>
	</trkpt>
	<trkpt lat="50.663867" lon="6.209653">
		<ele>454</ele>
		<time>2011-09-11T11:53:59.972Z</time>
		<geoidheight>408</geoidheight>
	</trkpt>
	<trkpt lat="50.663856" lon="6.209645">
		<ele>454</ele>
		<time>2011-09-11T11:54:00.969Z</time>
		<geoidheight>408</geoidheight>
	</trkpt>
	<trkpt lat="50.663843" lon="6.209639">
		<ele>454</ele>
		<time>2011-09-11T11:54:01.967Z</time>
		<geoidheight>408</geoidheight>
	</trkpt>
	<trkpt lat="50.663831" lon="6.209631">
		<ele>455</ele>
		<time>2011-09-11T11:54:02.972Z</time>
		<geoidheight>409</geoidheight>
	</trkpt>
	<trkpt lat="50.663819" lon="6.209622">
		<ele>455</ele>
		<time>2011-09-11T11:54:03.972Z</time>
		<geoidheight>409</geoidheight>
	</trkpt>
	<trkpt lat="50.663809" lon="6.209613">
		<ele>455</ele>
		<time>2011-09-11T11:54:04.970Z</time>
		<geoidheight>409</geoidheight>
	</trkpt>
	<trkpt lat="50.663800" lon="6.209603">
		<ele>455</ele>
		<time>2011-09-11T11:54:05.958Z</time>
		<geoidheight>409</geoidheight>
	</trkpt>
	<trkpt lat="50.663788" lon="6.209599">
		<ele>455</ele>
		<time>2011-09-11T11:54:06.960Z</time>
		<geoidheight>409</geoidheight>
	</trkpt>
	<trkpt lat="50.663777" lon="6.209590">
		<ele>455</ele>
		<time>2011-09-11T11:54:07.961Z</time>
		<geoidheight>409</geoidheight>
	</trkpt>
	<trkpt lat="50.663768" lon="6.209573">
		<ele>455</ele>
		<time>2011-09-11T11:54:08.960Z</time>
		<geoidheight>409</geoidheight>
	</trkpt>
	<trkpt lat="50.663761" lon="6.209559">
		<ele>455</ele>
		<time>2011-09-11T11:54:09.974Z</time>
		<geoidheight>409</geoidheight>
	</trkpt>
	<trkpt lat="50.663750" lon="6.209550">
		<ele>455</ele>
		<time>2011-09-11T11:54:10.974Z</time>
		<geoidheight>409</geoidheight>
	</trkpt>
	<trkpt lat="50.663740" lon="6.209541">
		<ele>455</ele>
		<time>2011-09-11T11:54:11.966Z</time>
		<geoidheight>409</geoidheight>
	</trkpt>
	<trkpt lat="50.663728" lon="6.209531">
		<ele>455</ele>
		<time>2011-09-11T11:54:12.970Z</time>
		<geoidheight>409</geoidheight>
	</trkpt>
	<trkpt lat="50.663718" lon="6.209519">
		<ele>455</ele>
		<time>2011-09-11T11:54:13.964Z</time>
		<geoidheight>409</geoidheight>
	</trkpt>
	<trkpt lat="50.663711" lon="6.209504">
		<ele>455</ele>
		<time>2011-09-11T11:54:14.963Z</time>
		<geoidheight>409</geoidheight>
	</trkpt>
	<trkpt lat="50.663700" lon="6.209494">
		<ele>455</ele>
		<time>2011-09-11T11:54:15.963Z</time>
		<geoidheight>409</geoidheight>
	</trkpt>
	<trkpt lat="50.663690" lon="6.209482">
		<ele>456</ele>
		<time>2011-09-11T11:54:16.951Z</time>
		<geoidheight>410</geoidheight>
	</trkpt>
	<trkpt lat="50.663681" lon="6.209470">
		<ele>456</ele>
		<time>2011-09-11T11:54:17.972Z</time>
		<geoidheight>410</geoidheight>
	</trkpt>
	<trkpt lat="50.663672" lon="6.209455">
		<ele>456</ele>
		<time>2011-09-11T11:54:18.949Z</time>
		<geoidheight>410</geoidheight>
	</trkpt>
	<trkpt lat="50.663662" lon="6.209443">
		<ele>456</ele>
		<time>2011-09-11T11:54:19.973Z</time>
		<geoidheight>410</geoidheight>
	</trkpt>
	<trkpt lat="50.663650" lon="6.209434">
		<ele>456</ele>
		<time>2011-09-11T11:54:20.973Z</time>
		<geoidheight>410</geoidheight>
	</trkpt>
	<trkpt lat="50.663640" lon="6.209423">
		<ele>456</ele>
		<time>2011-09-11T11:54:21.972Z</time>
		<geoidheight>410</geoidheight>
	</trkpt>
	<trkpt lat="50.663626" lon="6.209415">
		<ele>456</ele>
		<time>2011-09-11T11:54:22.968Z</time>
		<geoidheight>410</geoidheight>
	</trkpt>
	<trkpt lat="50.663615" lon="6.209404">
		<ele>456</ele>
		<time>2011-09-11T11:54:23.969Z</time>
		<geoidheight>410</geoidheight>
	</trkpt>
	<trkpt lat="50.663603" lon="6.209395">
		<ele>456</ele>
		<time>2011-09-11T11:54:24.962Z</time>
		<geoidheight>410</geoidheight>
	</trkpt>
	<trkpt lat="50.663596" lon="6.209381">
		<ele>456</ele>
		<time>2011-09-11T11:54:25.956Z</time>
		<geoidheight>410</geoidheight>
	</trkpt>
	<trkpt lat="50.663588" lon="6.209368">
		<ele>456</ele>
		<time>2011-09-11T11:54:26.967Z</time>
		<geoidheight>410</geoidheight>
	</trkpt>
	<trkpt lat="50.663579" lon="6.209360">
		<ele>456</ele>
		<time>2011-09-11T11:54:27.951Z</time>
		<geoidheight>410</geoidheight>
	</trkpt>
	<trkpt lat="50.663569" lon="6.209351">
		<ele>456</ele>
		<time>2011-09-11T11:54:28.954Z</time>
		<geoidheight>410</geoidheight>
	</trkpt>
	<trkpt lat="50.663559" lon="6.209342">
		<ele>456</ele>
		<time>2011-09-11T11:54:29.953Z</time>
		<geoidheight>410</geoidheight>
	</trkpt>
	<trkpt lat="50.663549" lon="6.209333">
		<ele>456</ele>
		<time>2011-09-11T11:54:30.956Z</time>
		<geoidheight>410</geoidheight>
	</trkpt>
	<trkpt lat="50.663538" lon="6.209321">
		<ele>456</ele>
		<time>2011-09-11T11:54:31.952Z</time>
		<geoidheight>410</geoidheight>
	</trkpt>
	<trkpt lat="50.663525" lon="6.209318">
		<ele>456</ele>
		<time>2011-09-11T11:54:32.953Z</time>
		<geoidheight>410</geoidheight>
	</trkpt>
	<trkpt lat="50.663512" lon="6.209314">
		<ele>456</ele>
		<time>2011-09-11T11:54:33.951Z</time>
		<geoidheight>410</geoidheight>
	</trkpt>
	<trkpt lat="50.663499" lon="6.209307">
		<ele>456</ele>
		<time>2011-09-11T11:54:34.954Z</time>
		<geoidheight>410</geoidheight>
	</trkpt>
	<trkpt lat="50.663489" lon="6.209293">
		<ele>456</ele>
		<time>2011-09-11T11:54:35.954Z</time>
		<geoidheight>410</geoidheight>
	</trkpt>
	<trkpt lat="50.663479" lon="6.209278">
		<ele>457</ele>
		<time>2011-09-11T11:54:36.953Z</time>
		<geoidheight>411</geoidheight>
	</trkpt>
	<trkpt lat="50.663468" lon="6.209262">
		<ele>457</ele>
		<time>2011-09-11T11:54:37.956Z</time>
		<geoidheight>411</geoidheight>
	</trkpt>
	<trkpt lat="50.663457" lon="6.209246">
		<ele>457</ele>
		<time>2011-09-11T11:54:38.952Z</time>
		<geoidheight>411</geoidheight>
	</trkpt>
	<trkpt lat="50.663447" lon="6.209233">
		<ele>457</ele>
		<time>2011-09-11T11:54:39.951Z</time>
		<geoidheight>411</geoidheight>
	</trkpt>
	<trkpt lat="50.663435" lon="6.209225">
		<ele>457</ele>
		<time>2011-09-11T11:54:40.960Z</time>
		<geoidheight>411</geoidheight>
	</trkpt>
	<trkpt lat="50.663423" lon="6.209213">
		<ele>457</ele>
		<time>2011-09-11T11:54:41.952Z</time>
		<geoidheight>411</geoidheight>
	</trkpt>
	<trkpt lat="50.663411" lon="6.209201">
		<ele>457</ele>
		<time>2011-09-11T11:54:42.953Z</time>
		<geoidheight>411</geoidheight>
	</trkpt>
	<trkpt lat="50.663400" lon="6.209190">
		<ele>457</ele>
		<time>2011-09-11T11:54:43.952Z</time>
		<geoidheight>411</geoidheight>
	</trkpt>
	<trkpt lat="50.663390" lon="6.209178">
		<ele>457</ele>
		<time>2011-09-11T11:54:44.953Z</time>
		<geoidheight>411</geoidheight>
	</trkpt>
	<trkpt lat="50.663377" lon="6.209166">
		<ele>457</ele>
		<time>2011-09-11T11:54:45.951Z</time>
		<geoidheight>411</geoidheight>
	</trkpt>
	<trkpt lat="50.663364" lon="6.209154">
		<ele>457</ele>
		<time>2011-09-11T11:54:46.958Z</time>
		<geoidheight>411</geoidheight>
	</trkpt>
	<trkpt lat="50.663353" lon="6.209140">
		<ele>457</ele>
		<time>2011-09-11T11:54:47.952Z</time>
		<geoidheight>411</geoidheight>
	</trkpt>
	<trkpt lat="50.663340" lon="6.209126">
		<ele>457</ele>
		<time>2011-09-11T11:54:48.949Z</time>
		<geoidheight>411</geoidheight>
	</trkpt>
	<trkpt lat="50.663328" lon="6.209115">
		<ele>457</ele>
		<time>2011-09-11T11:54:49.952Z</time>
		<geoidheight>411</geoidheight>
	</trkpt>
	<trkpt lat="50.663318" lon="6.209099">
		<ele>457</ele>
		<time>2011-09-11T11:54:50.953Z</time>
		<geoidheight>411</geoidheight>
	</trkpt>
	<trkpt lat="50.663307" lon="6.209084">
		<ele>457</ele>
		<time>2011-09-11T11:54:51.951Z</time>
		<geoidheight>411</geoidheight>
	</trkpt>
	<trkpt lat="50.663295" lon="6.209074">
		<ele>457</ele>
		<time>2011-09-11T11:54:52.953Z</time>
		<geoidheight>411</geoidheight>
	</trkpt>
	<trkpt lat="50.663284" lon="6.209063">
		<ele>457</ele>
		<time>2011-09-11T11:54:53.952Z</time>
		<geoidheight>411</geoidheight>
	</trkpt>
	<trkpt lat="50.663271" lon="6.209051">
		<ele>457</ele>
		<time>2011-09-11T11:54:54.953Z</time>
		<geoidheight>411</geoidheight>
	</trkpt>
	<trkpt lat="50.663256" lon="6.209036">
		<ele>457</ele>
		<time>2011-09-11T11:54:55.952Z</time>
		<geoidheight>411</geoidheight>
	</trkpt>
	<trkpt lat="50.663242" lon="6.209022">
		<ele>457</ele>
		<time>2011-09-11T11:54:56.954Z</time>
		<geoidheight>411</geoidheight>
	</trkpt>
	<trkpt lat="50.663228" lon="6.209007">
		<ele>457</ele>
		<time>2011-09-11T11:54:57.962Z</time>
		<geoidheight>411</geoidheight>
	</trkpt>
	<trkpt lat="50.663214" lon="6.208998">
		<ele>457</ele>
		<time>2011-09-11T11:54:58.964Z</time>
		<geoidheight>411</geoidheight>
	</trkpt>
	<trkpt lat="50.663200" lon="6.208990">
		<ele>457</ele>
		<time>2011-09-11T11:54:59.953Z</time>
		<geoidheight>411</geoidheight>
	</trkpt>
	<trkpt lat="50.663186" lon="6.208982">
		<ele>457</ele>
		<time>2011-09-11T11:55:00.952Z</time>
		<geoidheight>411</geoidheight>
	</trkpt>
	<trkpt lat="50.663174" lon="6.208970">
		<ele>457</ele>
		<time>2011-09-11T11:55:01.951Z</time>
		<geoidheight>411</geoidheight>
	</trkpt>
	<trkpt lat="50.663162" lon="6.208956">
		<ele>458</ele>
		<time>2011-09-11T11:55:02.954Z</time>
		<geoidheight>412</geoidheight>
	</trkpt>
	<trkpt lat="50.663151" lon="6.208942">
		<ele>458</ele>
		<time>2011-09-11T11:55:03.953Z</time>
		<geoidheight>412</geoidheight>
	</trkpt>
	<trkpt lat="50.663139" lon="6.208932">
		<ele>458</ele>
		<time>2011-09-11T11:55:04.952Z</time>
		<geoidheight>412</geoidheight>
	</trkpt>
	<trkpt lat="50.663129" lon="6.208917">
		<ele>458</ele>
		<time>2011-09-11T11:55:05.951Z</time>
		<geoidheight>412</geoidheight>
	</trkpt>
	<trkpt lat="50.663119" lon="6.208905">
		<ele>458</ele>
		<time>2011-09-11T11:55:06.952Z</time>
		<geoidheight>412</geoidheight>
	</trkpt>
	<trkpt lat="50.663108" lon="6.208893">
		<ele>458</ele>
		<time>2011-09-11T11:55:07.951Z</time>
		<geoidheight>412</geoidheight>
	</trkpt>
	<trkpt lat="50.663097" lon="6.208883">
		<ele>458</ele>
		<time>2011-09-11T11:55:08.954Z</time>
		<geoidheight>412</geoidheight>
	</trkpt>
	<trkpt lat="50.663084" lon="6.208875">
		<ele>458</ele>
		<time>2011-09-11T11:55:09.952Z</time>
		<geoidheight>412</geoidheight>
	</trkpt>
	<trkpt lat="50.663072" lon="6.208867">
		<ele>458</ele>
		<time>2011-09-11T11:55:10.954Z</time>
		<geoidheight>412</geoidheight>
	</trkpt>
	<trkpt lat="50.663061" lon="6.208856">
		<ele>458</ele>
		<time>2011-09-11T11:55:11.963Z</time>
		<geoidheight>412</geoidheight>
	</trkpt>
	<trkpt lat="50.663053" lon="6.208842">
		<ele>458</ele>
		<time>2011-09-11T11:55:12.963Z</time>
		<geoidheight>412</geoidheight>
	</trkpt>
	<trkpt lat="50.663044" lon="6.208830">
		<ele>458</ele>
		<time>2011-09-11T11:55:13.966Z</time>
		<geoidheight>412</geoidheight>
	</trkpt>
	<trkpt lat="50.663032" lon="6.208826">
		<ele>458</ele>
		<time>2011-09-11T11:55:14.963Z</time>
		<geoidheight>412</geoidheight>
	</trkpt>
	<trkpt lat="50.663019" lon="6.208817">
		<ele>458</ele>
		<time>2011-09-11T11:55:15.963Z</time>
		<geoidheight>412</geoidheight>
	</trkpt>
	<trkpt lat="50.663009" lon="6.208807">
		<ele>458</ele>
		<time>2011-09-11T11:55:16.965Z</time>
		<geoidheight>412</geoidheight>
	</trkpt>
	<trkpt lat="50.663000" lon="6.208792">
		<ele>458</ele>
		<time>2011-09-11T11:55:17.978Z</time>
		<geoidheight>412</geoidheight>
	</trkpt>
	<trkpt lat="50.662993" lon="6.208777">
		<ele>458</ele>
		<time>2011-09-11T11:55:18.951Z</time>
		<geoidheight>412</geoidheight>
	</trkpt>
	<trkpt lat="50.662987" lon="6.208762">
		<ele>458</ele>
		<time>2011-09-11T11:55:19.973Z</time>
		<geoidheight>412</geoidheight>
	</trkpt>
	<trkpt lat="50.662981" lon="6.208748">
		<ele>458</ele>
		<time>2011-09-11T11:55:20.983Z</time>
		<geoidheight>412</geoidheight>
	</trkpt>
	<trkpt lat="50.662974" lon="6.208733">
		<ele>458</ele>
		<time>2011-09-11T11:55:21.976Z</time>
		<geoidheight>412</geoidheight>
	</trkpt>
	<trkpt lat="50.662967" lon="6.208722">
		<ele>458</ele>
		<time>2011-09-11T11:55:22.974Z</time>
		<geoidheight>412</geoidheight>
	</trkpt>
	<trkpt lat="50.662959" lon="6.208713">
		<ele>458</ele>
		<time>2011-09-11T11:55:23.973Z</time>
		<geoidheight>412</geoidheight>
	</trkpt>
	<trkpt lat="50.662952" lon="6.208702">
		<ele>458</ele>
		<time>2011-09-11T11:55:24.960Z</time>
		<geoidheight>412</geoidheight>
	</trkpt>
	<trkpt lat="50.662944" lon="6.208693">
		<ele>458</ele>
		<time>2011-09-11T11:55:25.951Z</time>
		<geoidheight>412</geoidheight>
	</trkpt>
	<trkpt lat="50.662935" lon="6.208685">
		<ele>458</ele>
		<time>2011-09-11T11:55:26.952Z</time>
		<geoidheight>412</geoidheight>
	</trkpt>
	<trkpt lat="50.662924" lon="6.208680">
		<ele>458</ele>
		<time>2011-09-11T11:55:27.953Z</time>
		<geoidheight>412</geoidheight>
	</trkpt>
	<trkpt lat="50.662913" lon="6.208675">
		<ele>458</ele>
		<time>2011-09-11T11:55:28.953Z</time>
		<geoidheight>412</geoidheight>
	</trkpt>
	<trkpt lat="50.662900" lon="6.208667">
		<ele>458</ele>
		<time>2011-09-11T11:55:29.951Z</time>
		<geoidheight>412</geoidheight>
	</trkpt>
	<trkpt lat="50.662889" lon="6.208662">
		<ele>458</ele>
		<time>2011-09-11T11:55:30.954Z</time>
		<geoidheight>412</geoidheight>
	</trkpt>
	<trkpt lat="50.662876" lon="6.208645">
		<ele>458</ele>
		<time>2011-09-11T11:55:31.954Z</time>
		<geoidheight>412</geoidheight>
	</trkpt>
	<trkpt lat="50.662863" lon="6.208635">
		<ele>458</ele>
		<time>2011-09-11T11:55:32.951Z</time>
		<geoidheight>412</geoidheight>
	</trkpt>
	<trkpt lat="50.662849" lon="6.208626">
		<ele>458</ele>
		<time>2011-09-11T11:55:33.952Z</time>
		<geoidheight>412</geoidheight>
	</trkpt>
	<trkpt lat="50.662837" lon="6.208617">
		<ele>459</ele>
		<time>2011-09-11T11:55:34.961Z</time>
		<geoidheight>413</geoidheight>
	</trkpt>
	<trkpt lat="50.662824" lon="6.208610">
		<ele>459</ele>
		<time>2011-09-11T11:55:35.968Z</time>
		<geoidheight>413</geoidheight>
	</trkpt>
	<trkpt lat="50.662808" lon="6.208605">
		<ele>459</ele>
		<time>2011-09-11T11:55:36.961Z</time>
		<geoidheight>413</geoidheight>
	</trkpt>
	<trkpt lat="50.662792" lon="6.208600">
		<ele>459</ele>
		<time>2011-09-11T11:55:37.960Z</time>
		<geoidheight>413</geoidheight>
	</trkpt>
	<trkpt lat="50.662775" lon="6.208599">
		<ele>459</ele>
		<time>2011-09-11T11:55:38.964Z</time>
		<geoidheight>413</geoidheight>
	</trkpt>
	<trkpt lat="50.662758" lon="6.208593">
		<ele>459</ele>
		<time>2011-09-11T11:55:39.952Z</time>
		<geoidheight>413</geoidheight>
	</trkpt>
	<trkpt lat="50.662740" lon="6.208587">
		<ele>459</ele>
		<time>2011-09-11T11:55:40.953Z</time>
		<geoidheight>413</geoidheight>
	</trkpt>
	<trkpt lat="50.662721" lon="6.208583">
		<ele>459</ele>
		<time>2011-09-11T11:55:41.955Z</time>
		<geoidheight>413</geoidheight>
	</trkpt>
	<trkpt lat="50.662704" lon="6.208573">
		<ele>459</ele>
		<time>2011-09-11T11:55:42.951Z</time>
		<geoidheight>413</geoidheight>
	</trkpt>
	<trkpt lat="50.662689" lon="6.208565">
		<ele>459</ele>
		<time>2011-09-11T11:55:43.952Z</time>
		<geoidheight>413</geoidheight>
	</trkpt>
	<trkpt lat="50.662673" lon="6.208559">
		<ele>459</ele>
		<time>2011-09-11T11:55:44.952Z</time>
		<geoidheight>413</geoidheight>
	</trkpt>
	<trkpt lat="50.662659" lon="6.208550">
		<ele>459</ele>
		<time>2011-09-11T11:55:45.963Z</time>
		<geoidheight>413</geoidheight>
	</trkpt>
	<trkpt lat="50.662646" lon="6.208542">
		<ele>459</ele>
		<time>2011-09-11T11:55:46.960Z</time>
		<geoidheight>413</geoidheight>
	</trkpt>
	<trkpt lat="50.662633" lon="6.208535">
		<ele>459</ele>
		<time>2011-09-11T11:55:47.968Z</time>
		<geoidheight>413</geoidheight>
	</trkpt>
	<trkpt lat="50.662620" lon="6.208530">
		<ele>459</ele>
		<time>2011-09-11T11:55:48.949Z</time>
		<geoidheight>413</geoidheight>
	</trkpt>
	<trkpt lat="50.662609" lon="6.208519">
		<ele>460</ele>
		<time>2011-09-11T11:55:49.964Z</time>
		<geoidheight>414</geoidheight>
	</trkpt>
	<trkpt lat="50.662598" lon="6.208510">
		<ele>460</ele>
		<time>2011-09-11T11:55:50.960Z</time>
		<geoidheight>414</geoidheight>
	</trkpt>
	<trkpt lat="50.662588" lon="6.208500">
		<ele>460</ele>
		<time>2011-09-11T11:55:51.968Z</time>
		<geoidheight>414</geoidheight>
	</trkpt>
	<trkpt lat="50.662579" lon="6.208484">
		<ele>460</ele>
		<time>2011-09-11T11:55:52.952Z</time>
		<geoidheight>414</geoidheight>
	</trkpt>
	<trkpt lat="50.662573" lon="6.208461">
		<ele>460</ele>
		<time>2011-09-11T11:55:53.953Z</time>
		<geoidheight>414</geoidheight>
	</trkpt>
	<trkpt lat="50.662566" lon="6.208442">
		<ele>460</ele>
		<time>2011-09-11T11:55:54.953Z</time>
		<geoidheight>414</geoidheight>
	</trkpt>
	<trkpt lat="50.662561" lon="6.208422">
		<ele>460</ele>
		<time>2011-09-11T11:55:55.952Z</time>
		<geoidheight>414</geoidheight>
	</trkpt>
	<trkpt lat="50.662558" lon="6.208402">
		<ele>460</ele>
		<time>2011-09-11T11:55:56.953Z</time>
		<geoidheight>414</geoidheight>
	</trkpt>
	<trkpt lat="50.662555" lon="6.208385">
		<ele>460</ele>
		<time>2011-09-11T11:55:57.954Z</time>
		<geoidheight>414</geoidheight>
	</trkpt>
	<trkpt lat="50.662552" lon="6.208374">
		<ele>460</ele>
		<time>2011-09-11T11:55:58.952Z</time>
		<geoidheight>414</geoidheight>
	</trkpt>
	<trkpt lat="50.662552" lon="6.208359">
		<ele>460</ele>
		<time>2011-09-11T11:55:59.952Z</time>
		<geoidheight>414</geoidheight>
	</trkpt>
	<trkpt lat="50.662560" lon="6.208347">
		<ele>460</ele>
		<time>2011-09-11T11:56:00.953Z</time>
		<geoidheight>414</geoidheight>
	</trkpt>
	<trkpt lat="50.662565" lon="6.208331">
		<ele>460</ele>
		<time>2011-09-11T11:56:01.955Z</time>
		<geoidheight>414</geoidheight>
	</trkpt>
	<trkpt lat="50.662567" lon="6.208314">
		<ele>460</ele>
		<time>2011-09-11T11:56:02.961Z</time>
		<geoidheight>414</geoidheight>
	</trkpt>
	<trkpt lat="50.662564" lon="6.208299">
		<ele>460</ele>
		<time>2011-09-11T11:56:03.954Z</time>
		<geoidheight>414</geoidheight>
	</trkpt>
	<trkpt lat="50.662559" lon="6.208286">
		<ele>460</ele>
		<time>2011-09-11T11:56:04.950Z</time>
		<geoidheight>414</geoidheight>
	</trkpt>
	<trkpt lat="50.662552" lon="6.208276">
		<ele>460</ele>
		<time>2011-09-11T11:56:05.953Z</time>
		<geoidheight>414</geoidheight>
	</trkpt>
	<trkpt lat="50.662544" lon="6.208267">
		<ele>460</ele>
		<time>2011-09-11T11:56:06.954Z</time>
		<geoidheight>414</geoidheight>
	</trkpt>
	<trkpt lat="50.662538" lon="6.208259">
		<ele>460</ele>
		<time>2011-09-11T11:56:07.953Z</time>
		<geoidheight>414</geoidheight>
	</trkpt>
	<trkpt lat="50.662529" lon="6.208256">
		<ele>460</ele>
		<time>2011-09-11T11:56:08.954Z</time>
		<geoidheight>414</geoidheight>
	</trkpt>
	<trkpt lat="50.662523" lon="6.208250">
		<ele>460</ele>
		<time>2011-09-11T11:56:09.953Z</time>
		<geoidheight>414</geoidheight>
	</trkpt>
	<trkpt lat="50.662513" lon="6.208247">
		<ele>460</ele>
		<time>2011-09-11T11:56:10.954Z</time>
		<geoidheight>414</geoidheight>
	</trkpt>
	<trkpt lat="50.662504" lon="6.208243">
		<ele>460</ele>
		<time>2011-09-11T11:56:11.961Z</time>
		<geoidheight>414</geoidheight>
	</trkpt>
	<trkpt lat="50.662493" lon="6.208236">
		<ele>460</ele>
		<time>2011-09-11T11:56:12.960Z</time>
		<geoidheight>414</geoidheight>
	</trkpt>
	<trkpt lat="50.662481" lon="6.208231">
		<ele>459</ele>
		<time>2011-09-11T11:56:13.961Z</time>
		<geoidheight>413</geoidheight>
	</trkpt>
	<trkpt lat="50.662469" lon="6.208227">
		<ele>459</ele>
		<time>2011-09-11T11:56:14.951Z</time>
		<geoidheight>413</geoidheight>
	</trkpt>
	<trkpt lat="50.662457" lon="6.208220">
		<ele>459</ele>
		<time>2011-09-11T11:56:15.953Z</time>
		<geoidheight>413</geoidheight>
	</trkpt>
	<trkpt lat="50.662444" lon="6.208210">
		<ele>459</ele>
		<time>2011-09-11T11:56:16.952Z</time>
		<geoidheight>413</geoidheight>
	</trkpt>
	<trkpt lat="50.662431" lon="6.208202">
		<ele>459</ele>
		<time>2011-09-11T11:56:17.952Z</time>
		<geoidheight>413</geoidheight>
	</trkpt>
	<trkpt lat="50.662425" lon="6.208193">
		<ele>459</ele>
		<time>2011-09-11T11:56:18.950Z</time>
		<geoidheight>413</geoidheight>
	</trkpt>
	<trkpt lat="50.662417" lon="6.208184">
		<ele>459</ele>
		<time>2011-09-11T11:56:19.952Z</time>
		<geoidheight>413</geoidheight>
	</trkpt>
	<trkpt lat="50.662410" lon="6.208178">
		<ele>459</ele>
		<time>2011-09-11T11:56:20.951Z</time>
		<geoidheight>413</geoidheight>
	</trkpt>
	<trkpt lat="50.662410" lon="6.208178">
		<ele>459</ele>
		<time>2011-09-11T11:56:24.953Z</time>
		<geoidheight>413</geoidheight>
	</trkpt>
	<trkpt lat="50.662358" lon="6.208145">
		<ele>459</ele>
		<time>2011-09-11T11:56:25.955Z</time>
		<geoidheight>413</geoidheight>
	</trkpt>
	<trkpt lat="50.662358" lon="6.208145">
		<ele>459</ele>
		<time>2011-09-11T11:56:27.957Z</time>
		<geoidheight>413</geoidheight>
	</trkpt>
	<trkpt lat="50.662297" lon="6.208105">
		<ele>459</ele>
		<time>2011-09-11T11:56:28.967Z</time>
		<geoidheight>413</geoidheight>
	</trkpt>
	<trkpt lat="50.662297" lon="6.208105">
		<ele>459</ele>
		<time>2011-09-11T11:56:30.967Z</time>
		<geoidheight>413</geoidheight>
	</trkpt>
	<trkpt lat="50.662242" lon="6.208071">
		<ele>459</ele>
		<time>2011-09-11T11:56:31.972Z</time>
		<geoidheight>413</geoidheight>
	</trkpt>
	<trkpt lat="50.662242" lon="6.208071">
		<ele>459</ele>
		<time>2011-09-11T11:56:33.973Z</time>
		<geoidheight>413</geoidheight>
	</trkpt>
	<trkpt lat="50.662191" lon="6.208035">
		<ele>459</ele>
		<time>2011-09-11T11:56:34.968Z</time>
		<geoidheight>413</geoidheight>
	</trkpt>
	<trkpt lat="50.662191" lon="6.208035">
		<ele>458</ele>
		<time>2011-09-11T11:56:47.960Z</time>
		<geoidheight>412</geoidheight>
	</trkpt>
	<trkpt lat="50.662238" lon="6.208008">
		<ele>458</ele>
		<time>2011-09-11T11:56:48.950Z</time>
		<geoidheight>412</geoidheight>
	</trkpt>
	<trkpt lat="50.662238" lon="6.208008">
		<ele>458</ele>
		<time>2011-09-11T11:56:49.957Z</time>
		<geoidheight>412</geoidheight>
	</trkpt>
	<trkpt lat="50.662248" lon="6.208004">
		<ele>458</ele>
		<time>2011-09-11T11:56:50.953Z</time>
		<geoidheight>412</geoidheight>
	</trkpt>
	<trkpt lat="50.662248" lon="6.208004">
		<ele>457</ele>
		<time>2011-09-11T11:56:54.954Z</time>
		<geoidheight>411</geoidheight>
	</trkpt>
	<trkpt lat="50.662258" lon="6.208000">
		<ele>457</ele>
		<time>2011-09-11T11:56:55.955Z</time>
		<geoidheight>411</geoidheight>
	</trkpt>
	<trkpt lat="50.662244" lon="6.207996">
		<ele>456</ele>
		<time>2011-09-11T11:56:56.953Z</time>
		<geoidheight>410</geoidheight>
	</trkpt>
	<trkpt lat="50.662232" lon="6.207989">
		<ele>456</ele>
		<time>2011-09-11T11:56:57.958Z</time>
		<geoidheight>410</geoidheight>
	</trkpt>
	<trkpt lat="50.662223" lon="6.207983">
		<ele>455</ele>
		<time>2011-09-11T11:56:58.961Z</time>
		<geoidheight>409</geoidheight>
	</trkpt>
	<trkpt lat="50.662219" lon="6.207979">
		<ele>455</ele>
		<time>2011-09-11T11:56:59.958Z</time>
		<geoidheight>409</geoidheight>
	</trkpt>
	<trkpt lat="50.662212" lon="6.207976">
		<ele>455</ele>
		<time>2011-09-11T11:57:00.963Z</time>
		<geoidheight>409</geoidheight>
	</trkpt>
	<trkpt lat="50.662204" lon="6.207977">
		<ele>454</ele>
		<time>2011-09-11T11:57:01.964Z</time>
		<geoidheight>408</geoidheight>
	</trkpt>
	<trkpt lat="50.662193" lon="6.207982">
		<ele>454</ele>
		<time>2011-09-11T11:57:02.973Z</time>
		<geoidheight>408</geoidheight>
	</trkpt>
	<trkpt lat="50.662186" lon="6.207984">
		<ele>454</ele>
		<time>2011-09-11T11:57:03.973Z</time>
		<geoidheight>408</geoidheight>
	</trkpt>
	<trkpt lat="50.662181" lon="6.207986">
		<ele>453</ele>
		<time>2011-09-11T11:57:04.977Z</time>
		<geoidheight>407</geoidheight>
	</trkpt>
	<trkpt lat="50.662175" lon="6.207985">
		<ele>453</ele>
		<time>2011-09-11T11:57:05.974Z</time>
		<geoidheight>407</geoidheight>
	</trkpt>
	<trkpt lat="50.662168" lon="6.207986">
		<ele>453</ele>
		<time>2011-09-11T11:57:06.975Z</time>
		<geoidheight>407</geoidheight>
	</trkpt>
	<trkpt lat="50.662163" lon="6.207984">
		<ele>452</ele>
		<time>2011-09-11T11:57:07.972Z</time>
		<geoidheight>406</geoidheight>
	</trkpt>
	<trkpt lat="50.662157" lon="6.207982">
		<ele>452</ele>
		<time>2011-09-11T11:57:08.972Z</time>
		<geoidheight>406</geoidheight>
	</trkpt>
	<trkpt lat="50.662153" lon="6.207980">
		<ele>452</ele>
		<time>2011-09-11T11:57:09.964Z</time>
		<geoidheight>406</geoidheight>
	</trkpt>
	<trkpt lat="50.662148" lon="6.207978">
		<ele>452</ele>
		<time>2011-09-11T11:57:10.971Z</time>
		<geoidheight>406</geoidheight>
	</trkpt>
	<trkpt lat="50.662145" lon="6.207970">
		<ele>451</ele>
		<time>2011-09-11T11:57:15.952Z</time>
		<geoidheight>405</geoidheight>
	</trkpt>
	<trkpt lat="50.662143" lon="6.207967">
		<ele>450</ele>
		<time>2011-09-11T11:57:16.953Z</time>
		<geoidheight>404</geoidheight>
	</trkpt>
	<trkpt lat="50.662143" lon="6.207967">
		<ele>450</ele>
		<time>2011-09-11T11:57:18.953Z</time>
		<geoidheight>404</geoidheight>
	</trkpt>
	<trkpt lat="50.662131" lon="6.207972">
		<ele>450</ele>
		<time>2011-09-11T11:57:19.963Z</time>
		<geoidheight>404</geoidheight>
	</trkpt>
	<trkpt lat="50.662129" lon="6.207969">
		<ele>450</ele>
		<time>2011-09-11T11:57:20.964Z</time>
		<geoidheight>404</geoidheight>
	</trkpt>
	<trkpt lat="50.662121" lon="6.207970">
		<ele>450</ele>
		<time>2011-09-11T11:57:21.961Z</time>
		<geoidheight>404</geoidheight>
	</trkpt>
	<trkpt lat="50.662110" lon="6.207967">
		<ele>450</ele>
		<time>2011-09-11T11:57:22.966Z</time>
		<geoidheight>404</geoidheight>
	</trkpt>
	<trkpt lat="50.662099" lon="6.207961">
		<ele>450</ele>
		<time>2011-09-11T11:57:23.965Z</time>
		<geoidheight>404</geoidheight>
	</trkpt>
	<trkpt lat="50.662092" lon="6.207954">
		<ele>449</ele>
		<time>2011-09-11T11:57:24.973Z</time>
		<geoidheight>403</geoidheight>
	</trkpt>
	<trkpt lat="50.662089" lon="6.207946">
		<ele>449</ele>
		<time>2011-09-11T11:57:25.970Z</time>
		<geoidheight>403</geoidheight>
	</trkpt>
	<trkpt lat="50.662077" lon="6.207939">
		<ele>449</ele>
		<time>2011-09-11T11:57:26.977Z</time>
		<geoidheight>403</geoidheight>
	</trkpt>
	<trkpt lat="50.662075" lon="6.207933">
		<ele>449</ele>
		<time>2011-09-11T11:57:27.974Z</time>
		<geoidheight>403</geoidheight>
	</trkpt>
	<trkpt lat="50.662069" lon="6.207921">
		<ele>449</ele>
		<time>2011-09-11T11:57:28.970Z</time>
		<geoidheight>403</geoidheight>
	</trkpt>
	<trkpt lat="50.662062" lon="6.207912">
		<ele>449</ele>
		<time>2011-09-11T11:57:29.978Z</time>
		<geoidheight>403</geoidheight>
	</trkpt>
	<trkpt lat="50.662051" lon="6.207905">
		<ele>449</ele>
		<time>2011-09-11T11:57:30.982Z</time>
		<geoidheight>403</geoidheight>
	</trkpt>
	<trkpt lat="50.662041" lon="6.207899">
		<ele>449</ele>
		<time>2011-09-11T11:57:31.968Z</time>
		<geoidheight>403</geoidheight>
	</trkpt>
	<trkpt lat="50.662031" lon="6.207895">
		<ele>449</ele>
		<time>2011-09-11T11:57:32.963Z</time>
		<geoidheight>403</geoidheight>
	</trkpt>
	<trkpt lat="50.662022" lon="6.207888">
		<ele>448</ele>
		<time>2011-09-11T11:57:33.953Z</time>
		<geoidheight>402</geoidheight>
	</trkpt>
	<trkpt lat="50.662014" lon="6.207880">
		<ele>448</ele>
		<time>2011-09-11T11:57:34.952Z</time>
		<geoidheight>402</geoidheight>
	</trkpt>
	<trkpt lat="50.662014" lon="6.207880">
		<ele>448</ele>
		<time>2011-09-11T11:57:38.953Z</time>
		<geoidheight>402</geoidheight>
	</trkpt>
	<trkpt lat="50.661975" lon="6.207864">
		<ele>448</ele>
		<time>2011-09-11T11:57:39.954Z</time>
		<geoidheight>402</geoidheight>
	</trkpt>
	<trkpt lat="50.661961" lon="6.207857">
		<ele>448</ele>
		<time>2011-09-11T11:57:40.953Z</time>
		<geoidheight>402</geoidheight>
	</trkpt>
	<trkpt lat="50.661950" lon="6.207847">
		<ele>448</ele>
		<time>2011-09-11T11:57:41.958Z</time>
		<geoidheight>402</geoidheight>
	</trkpt>
	<trkpt lat="50.661939" lon="6.207840">
		<ele>448</ele>
		<time>2011-09-11T11:57:42.955Z</time>
		<geoidheight>402</geoidheight>
	</trkpt>
	<trkpt lat="50.661937" lon="6.207832">
		<ele>448</ele>
		<time>2011-09-11T11:57:43.954Z</time>
		<geoidheight>402</geoidheight>
	</trkpt>
	<trkpt lat="50.661927" lon="6.207827">
		<ele>448</ele>
		<time>2011-09-11T11:57:44.953Z</time>
		<geoidheight>402</geoidheight>
	</trkpt>
	<trkpt lat="50.661917" lon="6.207825">
		<ele>448</ele>
		<time>2011-09-11T11:57:45.955Z</time>
		<geoidheight>402</geoidheight>
	</trkpt>
	<trkpt lat="50.661917" lon="6.207825">
		<ele>447</ele>
		<time>2011-09-11T11:57:48.956Z</time>
		<geoidheight>401</geoidheight>
	</trkpt>
	<trkpt lat="50.661881" lon="6.207806">
		<ele>447</ele>
		<time>2011-09-11T11:57:49.953Z</time>
		<geoidheight>401</geoidheight>
	</trkpt>
	<trkpt lat="50.661881" lon="6.207806">
		<ele>447</ele>
		<time>2011-09-11T11:57:52.955Z</time>
		<geoidheight>401</geoidheight>
	</trkpt>
	<trkpt lat="50.661845" lon="6.207783">
		<ele>447</ele>
		<time>2011-09-11T11:57:53.956Z</time>
		<geoidheight>401</geoidheight>
	</trkpt>
	<trkpt lat="50.661845" lon="6.207783">
		<ele>447</ele>
		<time>2011-09-11T11:57:54.954Z</time>
		<geoidheight>401</geoidheight>
	</trkpt>
	<trkpt lat="50.661827" lon="6.207777">
		<ele>447</ele>
		<time>2011-09-11T11:57:55.952Z</time>
		<geoidheight>401</geoidheight>
	</trkpt>
	<trkpt lat="50.661819" lon="6.207775">
		<ele>447</ele>
		<time>2011-09-11T11:57:56.956Z</time>
		<geoidheight>401</geoidheight>
	</trkpt>
	<trkpt lat="50.661810" lon="6.207774">
		<ele>447</ele>
		<time>2011-09-11T11:57:57.955Z</time>
		<geoidheight>401</geoidheight>
	</trkpt>
	<trkpt lat="50.661802" lon="6.207774">
		<ele>447</ele>
		<time>2011-09-11T11:57:58.960Z</time>
		<geoidheight>401</geoidheight>
	</trkpt>
	<trkpt lat="50.661794" lon="6.207775">
		<ele>447</ele>
		<time>2011-09-11T11:57:59.963Z</time>
		<geoidheight>401</geoidheight>
	</trkpt>
	<trkpt lat="50.661785" lon="6.207773">
		<ele>447</ele>
		<time>2011-09-11T11:58:00.960Z</time>
		<geoidheight>401</geoidheight>
	</trkpt>
	<trkpt lat="50.661776" lon="6.207773">
		<ele>447</ele>
		<time>2011-09-11T11:58:01.960Z</time>
		<geoidheight>401</geoidheight>
	</trkpt>
	<trkpt lat="50.661766" lon="6.207773">
		<ele>447</ele>
		<time>2011-09-11T11:58:02.954Z</time>
		<geoidheight>401</geoidheight>
	</trkpt>
	<trkpt lat="50.661756" lon="6.207774">
		<ele>447</ele>
		<time>2011-09-11T11:58:03.954Z</time>
		<geoidheight>401</geoidheight>
	</trkpt>
	<trkpt lat="50.661747" lon="6.207776">
		<ele>447</ele>
		<time>2011-09-11T11:58:04.960Z</time>
		<geoidheight>401</geoidheight>
	</trkpt>
	<trkpt lat="50.661737" lon="6.207779">
		<ele>446</ele>
		<time>2011-09-11T11:58:05.957Z</time>
		<geoidheight>400</geoidheight>
	</trkpt>
	<trkpt lat="50.661726" lon="6.207779">
		<ele>446</ele>
		<time>2011-09-11T11:58:06.961Z</time>
		<geoidheight>400</geoidheight>
	</trkpt>
	<trkpt lat="50.661718" lon="6.207784">
		<ele>446</ele>
		<time>2011-09-11T11:58:07.958Z</time>
		<geoidheight>400</geoidheight>
	</trkpt>
	<trkpt lat="50.661718" lon="6.207784">
		<ele>446</ele>
		<time>2011-09-11T11:58:11.971Z</time>
		<geoidheight>400</geoidheight>
	</trkpt>
	<trkpt lat="50.661703" lon="6.207811">
		<ele>446</ele>
		<time>2011-09-11T11:58:12.972Z</time>
		<geoidheight>400</geoidheight>
	</trkpt>
	<trkpt lat="50.661702" lon="6.207816">
		<ele>446</ele>
		<time>2011-09-11T11:58:13.963Z</time>
		<geoidheight>400</geoidheight>
	</trkpt>
	<trkpt lat="50.661702" lon="6.207825">
		<ele>446</ele>
		<time>2011-09-11T11:58:14.969Z</time>
		<geoidheight>400</geoidheight>
	</trkpt>
	<trkpt lat="50.661704" lon="6.207837">
		<ele>446</ele>
		<time>2011-09-11T11:58:16.955Z</time>
		<geoidheight>400</geoidheight>
	</trkpt>
	<trkpt lat="50.661705" lon="6.207844">
		<ele>446</ele>
		<time>2011-09-11T11:58:17.955Z</time>
		<geoidheight>400</geoidheight>
	</trkpt>
	<trkpt lat="50.661705" lon="6.207851">
		<ele>446</ele>
		<time>2011-09-11T11:58:18.954Z</time>
		<geoidheight>400</geoidheight>
	</trkpt>
	<trkpt lat="50.661703" lon="6.207861">
		<ele>446</ele>
		<time>2011-09-11T11:58:19.959Z</time>
		<geoidheight>400</geoidheight>
	</trkpt>
	<trkpt lat="50.661695" lon="6.207865">
		<ele>446</ele>
		<time>2011-09-11T11:58:21.953Z</time>
		<geoidheight>400</geoidheight>
	</trkpt>
	<trkpt lat="50.661663" lon="6.207875">
		<ele>446</ele>
		<time>2011-09-11T11:58:22.959Z</time>
		<geoidheight>400</geoidheight>
	</trkpt>
	<trkpt lat="50.661632" lon="6.207893">
		<ele>446</ele>
		<time>2011-09-11T11:58:23.954Z</time>
		<geoidheight>400</geoidheight>
	</trkpt>
	<trkpt lat="50.661606" lon="6.207909">
		<ele>445</ele>
		<time>2011-09-11T11:58:24.953Z</time>
		<geoidheight>399</geoidheight>
	</trkpt>
	<trkpt lat="50.661579" lon="6.207932">
		<ele>445</ele>
		<time>2011-09-11T11:58:25.957Z</time>
		<geoidheight>399</geoidheight>
	</trkpt>
	<trkpt lat="50.661557" lon="6.207956">
		<ele>445</ele>
		<time>2011-09-11T11:58:26.956Z</time>
		<geoidheight>399</geoidheight>
	</trkpt>
	<trkpt lat="50.661537" lon="6.207977">
		<ele>445</ele>
		<time>2011-09-11T11:58:27.953Z</time>
		<geoidheight>399</geoidheight>
	</trkpt>
	<trkpt lat="50.661537" lon="6.207977">
		<ele>445</ele>
		<time>2011-09-11T11:58:28.961Z</time>
		<geoidheight>399</geoidheight>
	</trkpt>
	<trkpt lat="50.661493" lon="6.207995">
		<ele>445</ele>
		<time>2011-09-11T11:58:29.958Z</time>
		<geoidheight>399</geoidheight>
	</trkpt>
	<trkpt lat="50.661481" lon="6.208006">
		<ele>445</ele>
		<time>2011-09-11T11:58:30.958Z</time>
		<geoidheight>399</geoidheight>
	</trkpt>
	<trkpt lat="50.661469" lon="6.208016">
		<ele>445</ele>
		<time>2011-09-11T11:58:31.958Z</time>
		<geoidheight>399</geoidheight>
	</trkpt>
	<trkpt lat="50.661469" lon="6.208016">
		<ele>444</ele>
		<time>2011-09-11T11:58:33.955Z</time>
		<geoidheight>398</geoidheight>
	</trkpt>
	<trkpt lat="50.661423" lon="6.208025">
		<ele>444</ele>
		<time>2011-09-11T11:58:34.957Z</time>
		<geoidheight>398</geoidheight>
	</trkpt>
	<trkpt lat="50.661423" lon="6.208025">
		<ele>444</ele>
		<time>2011-09-11T11:58:35.957Z</time>
		<geoidheight>398</geoidheight>
	</trkpt>
	<trkpt lat="50.661401" lon="6.208042">
		<ele>444</ele>
		<time>2011-09-11T11:58:36.960Z</time>
		<geoidheight>398</geoidheight>
	</trkpt>
	<trkpt lat="50.661393" lon="6.208052">
		<ele>444</ele>
		<time>2011-09-11T11:58:37.954Z</time>
		<geoidheight>398</geoidheight>
	</trkpt>
	<trkpt lat="50.661388" lon="6.208061">
		<ele>444</ele>
		<time>2011-09-11T11:58:38.955Z</time>
		<geoidheight>398</geoidheight>
	</trkpt>
	<trkpt lat="50.661385" lon="6.208071">
		<ele>443</ele>
		<time>2011-09-11T11:58:39.954Z</time>
		<geoidheight>397</geoidheight>
	</trkpt>
	<trkpt lat="50.661375" lon="6.208084">
		<ele>443</ele>
		<time>2011-09-11T11:58:40.955Z</time>
		<geoidheight>397</geoidheight>
	</trkpt>
	<trkpt lat="50.661369" lon="6.208100">
		<ele>443</ele>
		<time>2011-09-11T11:58:41.960Z</time>
		<geoidheight>397</geoidheight>
	</trkpt>
	<trkpt lat="50.661365" lon="6.208117">
		<ele>443</ele>
		<time>2011-09-11T11:58:42.956Z</time>
		<geoidheight>397</geoidheight>
	</trkpt>
	<trkpt lat="50.661357" lon="6.208140">
		<ele>443</ele>
		<time>2011-09-11T11:58:43.959Z</time>
		<geoidheight>397</geoidheight>
	</trkpt>
	<trkpt lat="50.661356" lon="6.208162">
		<ele>443</ele>
		<time>2011-09-11T11:58:44.956Z</time>
		<geoidheight>397</geoidheight>
	</trkpt>
	<trkpt lat="50.661346" lon="6.208185">
		<ele>442</ele>
		<time>2011-09-11T11:58:45.956Z</time>
		<geoidheight>396</geoidheight>
	</trkpt>
	<trkpt lat="50.661339" lon="6.208211">
		<ele>442</ele>
		<time>2011-09-11T11:58:46.960Z</time>
		<geoidheight>396</geoidheight>
	</trkpt>
	<trkpt lat="50.661332" lon="6.208228">
		<ele>442</ele>
		<time>2011-09-11T11:58:47.954Z</time>
		<geoidheight>396</geoidheight>
	</trkpt>
	<trkpt lat="50.661327" lon="6.208250">
		<ele>442</ele>
		<time>2011-09-11T11:58:48.955Z</time>
		<geoidheight>396</geoidheight>
	</trkpt>
	<trkpt lat="50.661328" lon="6.208272">
		<ele>442</ele>
		<time>2011-09-11T11:58:49.954Z</time>
		<geoidheight>396</geoidheight>
	</trkpt>
	<trkpt lat="50.661325" lon="6.208286">
		<ele>442</ele>
		<time>2011-09-11T11:58:50.957Z</time>
		<geoidheight>396</geoidheight>
	</trkpt>
	<trkpt lat="50.661325" lon="6.208299">
		<ele>442</ele>
		<time>2011-09-11T11:58:51.953Z</time>
		<geoidheight>396</geoidheight>
	</trkpt>
	<trkpt lat="50.661330" lon="6.208309">
		<ele>442</ele>
		<time>2011-09-11T11:58:52.962Z</time>
		<geoidheight>396</geoidheight>
	</trkpt>
	<trkpt lat="50.661333" lon="6.208321">
		<ele>442</ele>
		<time>2011-09-11T11:58:53.956Z</time>
		<geoidheight>396</geoidheight>
	</trkpt>
	<trkpt lat="50.661338" lon="6.208331">
		<ele>441</ele>
		<time>2011-09-11T11:58:54.953Z</time>
		<geoidheight>395</geoidheight>
	</trkpt>
	<trkpt lat="50.661343" lon="6.208339">
		<ele>441</ele>
		<time>2011-09-11T11:58:55.954Z</time>
		<geoidheight>395</geoidheight>
	</trkpt>
	<trkpt lat="50.661346" lon="6.208347">
		<ele>441</ele>
		<time>2011-09-11T11:58:56.955Z</time>
		<geoidheight>395</geoidheight>
	</trkpt>
	<trkpt lat="50.661349" lon="6.208351">
		<ele>441</ele>
		<time>2011-09-11T11:58:57.969Z</time>
		<geoidheight>395</geoidheight>
	</trkpt>
	<trkpt lat="50.661346" lon="6.208370">
		<ele>441</ele>
		<time>2011-09-11T11:58:58.963Z</time>
		<geoidheight>395</geoidheight>
	</trkpt>
	<trkpt lat="50.661346" lon="6.208370">
		<ele>441</ele>
		<time>2011-09-11T11:59:00.965Z</time>
		<geoidheight>395</geoidheight>
	</trkpt>
	<trkpt lat="50.661292" lon="6.208443">
		<ele>441</ele>
		<time>2011-09-11T11:59:01.975Z</time>
		<geoidheight>395</geoidheight>
	</trkpt>
	<trkpt lat="50.661292" lon="6.208443">
		<ele>441</ele>
		<time>2011-09-11T11:59:02.981Z</time>
		<geoidheight>395</geoidheight>
	</trkpt>
	<trkpt lat="50.661251" lon="6.208498">
		<ele>441</ele>
		<time>2011-09-11T11:59:03.972Z</time>
		<geoidheight>395</geoidheight>
	</trkpt>
	<trkpt lat="50.661251" lon="6.208498">
		<ele>441</ele>
		<time>2011-09-11T11:59:05.966Z</time>
		<geoidheight>395</geoidheight>
	</trkpt>
	<trkpt lat="50.661205" lon="6.208550">
		<ele>441</ele>
		<time>2011-09-11T11:59:06.957Z</time>
		<geoidheight>395</geoidheight>
	</trkpt>
	<trkpt lat="50.661205" lon="6.208550">
		<ele>441</ele>
		<time>2011-09-11T11:59:10.966Z</time>
		<geoidheight>395</geoidheight>
	</trkpt>
	<trkpt lat="50.661161" lon="6.208577">
		<ele>441</ele>
		<time>2011-09-11T11:59:11.963Z</time>
		<geoidheight>395</geoidheight>
	</trkpt>
	<trkpt lat="50.661161" lon="6.208577">
		<ele>440</ele>
		<time>2011-09-11T11:59:24.981Z</time>
		<geoidheight>394</geoidheight>
	</trkpt>
	<trkpt lat="50.661158" lon="6.208500">
		<ele>440</ele>
		<time>2011-09-11T11:59:25.986Z</time>
		<geoidheight>394</geoidheight>
	</trkpt>
	<trkpt lat="50.661158" lon="6.208500">
		<ele>440</ele>
		<time>2011-09-11T11:59:28.979Z</time>
		<geoidheight>394</geoidheight>
	</trkpt>
	<trkpt lat="50.661175" lon="6.208431">
		<ele>440</ele>
		<time>2011-09-11T11:59:29.984Z</time>
		<geoidheight>394</geoidheight>
	</trkpt>
	<trkpt lat="50.661175" lon="6.208431">
		<ele>440</ele>
		<time>2011-09-11T11:59:35.981Z</time>
		<geoidheight>394</geoidheight>
	</trkpt>
	<trkpt lat="50.661198" lon="6.208362">
		<ele>440</ele>
		<time>2011-09-11T11:59:36.970Z</time>
		<geoidheight>394</geoidheight>
	</trkpt>
	<trkpt lat="50.661198" lon="6.208362">
		<ele>439</ele>
		<time>2011-09-11T11:59:38.978Z</time>
		<geoidheight>393</geoidheight>
	</trkpt>
	<trkpt lat="50.661183" lon="6.208287">
		<ele>439</ele>
		<time>2011-09-11T11:59:39.973Z</time>
		<geoidheight>393</geoidheight>
	</trkpt>
	<trkpt lat="50.661183" lon="6.208287">
		<ele>439</ele>
		<time>2011-09-11T11:59:50.974Z</time>
		<geoidheight>393</geoidheight>
	</trkpt>
	<trkpt lat="50.661137" lon="6.208291">
		<ele>439</ele>
		<time>2011-09-11T11:59:51.966Z</time>
		<geoidheight>393</geoidheight>
	</trkpt>
	<trkpt lat="50.661137" lon="6.208291">
		<ele>439</ele>
		<time>2011-09-11T11:59:58.984Z</time>
		<geoidheight>393</geoidheight>
	</trkpt>
	<trkpt lat="50.661106" lon="6.208326">
		<ele>439</ele>
		<time>2011-09-11T11:59:59.970Z</time>
		<geoidheight>393</geoidheight>
	</trkpt>
	<trkpt lat="50.661101" lon="6.208331">
		<ele>439</ele>
		<time>2011-09-11T12:00:00.968Z</time>
		<geoidheight>393</geoidheight>
	</trkpt>
	<trkpt lat="50.661099" lon="6.208335">
		<ele>439</ele>
		<time>2011-09-11T12:00:01.963Z</time>
		<geoidheight>393</geoidheight>
	</trkpt>
	<trkpt lat="50.661098" lon="6.208344">
		<ele>438</ele>
		<time>2011-09-11T12:00:02.968Z</time>
		<geoidheight>392</geoidheight>
	</trkpt>
	<trkpt lat="50.661097" lon="6.208357">
		<ele>438</ele>
		<time>2011-09-11T12:00:03.967Z</time>
		<geoidheight>392</geoidheight>
	</trkpt>
	<trkpt lat="50.661096" lon="6.208370">
		<ele>438</ele>
		<time>2011-09-11T12:00:14.956Z</time>
		<geoidheight>392</geoidheight>
	</trkpt>
	<trkpt lat="50.661129" lon="6.208431">
		<ele>438</ele>
		<time>2011-09-11T12:00:15.956Z</time>
		<geoidheight>392</geoidheight>
	</trkpt>
	<trkpt lat="50.661129" lon="6.208431">
		<ele>438</ele>
		<time>2011-09-11T12:00:32.974Z</time>
		<geoidheight>392</geoidheight>
	</trkpt>
	<trkpt lat="50.661154" lon="6.208365">
		<ele>438</ele>
		<time>2011-09-11T12:00:33.969Z</time>
		<geoidheight>392</geoidheight>
	</trkpt>
	<trkpt lat="50.661154" lon="6.208365">
		<ele>438</ele>
		<time>2011-09-11T12:00:43.967Z</time>
		<geoidheight>392</geoidheight>
	</trkpt>
	<trkpt lat="50.661201" lon="6.208343">
		<ele>438</ele>
		<time>2011-09-11T12:00:44.959Z</time>
		<geoidheight>392</geoidheight>
	</trkpt>
	<trkpt lat="50.661201" lon="6.208343">
		<ele>438</ele>
		<time>2011-09-11T12:01:03.969Z</time>
		<geoidheight>392</geoidheight>
	</trkpt>
	<trkpt lat="50.661227" lon="6.208421">
		<ele>438</ele>
		<time>2011-09-11T12:01:04.966Z</time>
		<geoidheight>392</geoidheight>
	</trkpt>
	<trkpt lat="50.661227" lon="6.208421">
		<ele>438</ele>
		<time>2011-09-11T12:01:09.974Z</time>
		<geoidheight>392</geoidheight>
	</trkpt>
	<trkpt lat="50.661246" lon="6.208498">
		<ele>438</ele>
		<time>2011-09-11T12:01:10.974Z</time>
		<geoidheight>392</geoidheight>
	</trkpt>
	<trkpt lat="50.661246" lon="6.208498">
		<ele>438</ele>
		<time>2011-09-11T12:01:23.972Z</time>
		<geoidheight>392</geoidheight>
	</trkpt>
	<trkpt lat="50.661292" lon="6.208509">
		<ele>438</ele>
		<time>2011-09-11T12:01:24.978Z</time>
		<geoidheight>392</geoidheight>
	</trkpt>
	<trkpt lat="50.661292" lon="6.208509">
		<ele>437</ele>
		<time>2011-09-11T12:01:34.967Z</time>
		<geoidheight>391</geoidheight>
	</trkpt>
	<trkpt lat="50.661310" lon="6.208578">
		<ele>437</ele>
		<time>2011-09-11T12:01:35.962Z</time>
		<geoidheight>391</geoidheight>
	</trkpt>
	<trkpt lat="50.661310" lon="6.208578">
		<ele>437</ele>
		<time>2011-09-11T12:01:36.978Z</time>
		<geoidheight>391</geoidheight>
	</trkpt>
	<trkpt lat="50.661311" lon="6.208600">
		<ele>437</ele>
		<time>2011-09-11T12:01:37.974Z</time>
		<geoidheight>391</geoidheight>
	</trkpt>
	<trkpt lat="50.661305" lon="6.208603">
		<ele>437</ele>
		<time>2011-09-11T12:01:38.976Z</time>
		<geoidheight>391</geoidheight>
	</trkpt>
	<trkpt lat="50.661301" lon="6.208597">
		<ele>437</ele>
		<time>2011-09-11T12:01:39.973Z</time>
		<geoidheight>391</geoidheight>
	</trkpt>
	<trkpt lat="50.661289" lon="6.208588">
		<ele>437</ele>
		<time>2011-09-11T12:01:40.970Z</time>
		<geoidheight>391</geoidheight>
	</trkpt>
	<trkpt lat="50.661276" lon="6.208573">
		<ele>437</ele>
		<time>2011-09-11T12:01:41.978Z</time>
		<geoidheight>391</geoidheight>
	</trkpt>
	<trkpt lat="50.661264" lon="6.208559">
		<ele>437</ele>
		<time>2011-09-11T12:01:42.980Z</time>
		<geoidheight>391</geoidheight>
	</trkpt>
	<trkpt lat="50.661256" lon="6.208548">
		<ele>437</ele>
		<time>2011-09-11T12:01:43.974Z</time>
		<geoidheight>391</geoidheight>
	</trkpt>
	<trkpt lat="50.661250" lon="6.208538">
		<ele>436</ele>
		<time>2011-09-11T12:01:44.975Z</time>
		<geoidheight>390</geoidheight>
	</trkpt>
	<trkpt lat="50.661250" lon="6.208533">
		<ele>436</ele>
		<time>2011-09-11T12:01:45.974Z</time>
		<geoidheight>390</geoidheight>
	</trkpt>
	<trkpt lat="50.661250" lon="6.208525">
		<ele>436</ele>
		<time>2011-09-11T12:01:46.981Z</time>
		<geoidheight>390</geoidheight>
	</trkpt>
	<trkpt lat="50.661248" lon="6.208514">
		<ele>436</ele>
		<time>2011-09-11T12:01:47.975Z</time>
		<geoidheight>390</geoidheight>
	</trkpt>
	<trkpt lat="50.661243" lon="6.208502">
		<ele>435</ele>
		<time>2011-09-11T12:01:48.974Z</time>
		<geoidheight>389</geoidheight>
	</trkpt>
	<trkpt lat="50.661240" lon="6.208493">
		<ele>435</ele>
		<time>2011-09-11T12:01:49.969Z</time>
		<geoidheight>389</geoidheight>
	</trkpt>
	<trkpt lat="50.661240" lon="6.208483">
		<ele>435</ele>
		<time>2011-09-11T12:01:50.969Z</time>
		<geoidheight>389</geoidheight>
	</trkpt>
	<trkpt lat="50.661238" lon="6.208472">
		<ele>435</ele>
		<time>2011-09-11T12:01:51.976Z</time>
		<geoidheight>389</geoidheight>
	</trkpt>
	<trkpt lat="50.661237" lon="6.208460">
		<ele>434</ele>
		<time>2011-09-11T12:01:52.982Z</time>
		<geoidheight>388</geoidheight>
	</trkpt>
	<trkpt lat="50.661237" lon="6.208447">
		<ele>434</ele>
		<time>2011-09-11T12:01:53.976Z</time>
		<geoidheight>388</geoidheight>
	</trkpt>
	<trkpt lat="50.661237" lon="6.208433">
		<ele>434</ele>
		<time>2011-09-11T12:01:54.975Z</time>
		<geoidheight>388</geoidheight>
	</trkpt>
	<trkpt lat="50.661235" lon="6.208419">
		<ele>434</ele>
		<time>2011-09-11T12:01:55.970Z</time>
		<geoidheight>388</geoidheight>
	</trkpt>
	<trkpt lat="50.661241" lon="6.208404">
		<ele>433</ele>
		<time>2011-09-11T12:01:56.976Z</time>
		<geoidheight>387</geoidheight>
	</trkpt>
	<trkpt lat="50.661245" lon="6.208389">
		<ele>433</ele>
		<time>2011-09-11T12:01:57.975Z</time>
		<geoidheight>387</geoidheight>
	</trkpt>
	<trkpt lat="50.661248" lon="6.208376">
		<ele>433</ele>
		<time>2011-09-11T12:01:58.972Z</time>
		<geoidheight>387</geoidheight>
	</trkpt>
	<trkpt lat="50.661247" lon="6.208362">
		<ele>433</ele>
		<time>2011-09-11T12:01:59.976Z</time>
		<geoidheight>387</geoidheight>
	</trkpt>
	<trkpt lat="50.661244" lon="6.208347">
		<ele>432</ele>
		<time>2011-09-11T12:02:00.963Z</time>
		<geoidheight>386</geoidheight>
	</trkpt>
	<trkpt lat="50.661239" lon="6.208332">
		<ele>432</ele>
		<time>2011-09-11T12:02:01.973Z</time>
		<geoidheight>386</geoidheight>
	</trkpt>
	<trkpt lat="50.661237" lon="6.208319">
		<ele>432</ele>
		<time>2011-09-11T12:02:02.962Z</time>
		<geoidheight>386</geoidheight>
	</trkpt>
	<trkpt lat="50.661238" lon="6.208307">
		<ele>432</ele>
		<time>2011-09-11T12:02:03.961Z</time>
		<geoidheight>386</geoidheight>
	</trkpt>
	<trkpt lat="50.661237" lon="6.208292">
		<ele>431</ele>
		<time>2011-09-11T12:02:04.966Z</time>
		<geoidheight>385</geoidheight>
	</trkpt>
	<trkpt lat="50.661241" lon="6.208280">
		<ele>431</ele>
		<time>2011-09-11T12:02:05.958Z</time>
		<geoidheight>385</geoidheight>
	</trkpt>
	<trkpt lat="50.661245" lon="6.208268">
		<ele>431</ele>
		<time>2011-09-11T12:02:06.960Z</time>
		<geoidheight>385</geoidheight>
	</trkpt>
	<trkpt lat="50.661248" lon="6.208254">
		<ele>430</ele>
		<time>2011-09-11T12:02:07.965Z</time>
		<geoidheight>384</geoidheight>
	</trkpt>
	<trkpt lat="50.661250" lon="6.208241">
		<ele>430</ele>
		<time>2011-09-11T12:02:08.966Z</time>
		<geoidheight>384</geoidheight>
	</trkpt>
	<trkpt lat="50.661255" lon="6.208228">
		<ele>430</ele>
		<time>2011-09-11T12:02:09.968Z</time>
		<geoidheight>384</geoidheight>
	</trkpt>
	<trkpt lat="50.661260" lon="6.208216">
		<ele>430</ele>
		<time>2011-09-11T12:02:10.972Z</time>
		<geoidheight>384</geoidheight>
	</trkpt>
	<trkpt lat="50.661265" lon="6.208202">
		<ele>429</ele>
		<time>2011-09-11T12:02:11.968Z</time>
		<geoidheight>383</geoidheight>
	</trkpt>
	<trkpt lat="50.661270" lon="6.208185">
		<ele>429</ele>
		<time>2011-09-11T12:02:12.963Z</time>
		<geoidheight>383</geoidheight>
	</trkpt>
	<trkpt lat="50.661273" lon="6.208166">
		<ele>429</ele>
		<time>2011-09-11T12:02:13.970Z</time>
		<geoidheight>383</geoidheight>
	</trkpt>
	<trkpt lat="50.661274" lon="6.208148">
		<ele>428</ele>
		<time>2011-09-11T12:02:14.966Z</time>
		<geoidheight>382</geoidheight>
	</trkpt>
	<trkpt lat="50.661275" lon="6.208131">
		<ele>428</ele>
		<time>2011-09-11T12:02:15.966Z</time>
		<geoidheight>382</geoidheight>
	</trkpt>
	<trkpt lat="50.661275" lon="6.208115">
		<ele>428</ele>
		<time>2011-09-11T12:02:16.970Z</time>
		<geoidheight>382</geoidheight>
	</trkpt>
	<trkpt lat="50.661278" lon="6.208099">
		<ele>428</ele>
		<time>2011-09-11T12:02:17.964Z</time>
		<geoidheight>382</geoidheight>
	</trkpt>
	<trkpt lat="50.661282" lon="6.208084">
		<ele>427</ele>
		<time>2011-09-11T12:02:18.969Z</time>
		<geoidheight>381</geoidheight>
	</trkpt>
	<trkpt lat="50.661283" lon="6.208068">
		<ele>427</ele>
		<time>2011-09-11T12:02:19.972Z</time>
		<geoidheight>381</geoidheight>
	</trkpt>
	<trkpt lat="50.661283" lon="6.208052">
		<ele>427</ele>
		<time>2011-09-11T12:02:20.964Z</time>
		<geoidheight>381</geoidheight>
	</trkpt>
	<trkpt lat="50.661283" lon="6.208037">
		<ele>427</ele>
		<time>2011-09-11T12:02:21.967Z</time>
		<geoidheight>381</geoidheight>
	</trkpt>
	<trkpt lat="50.661285" lon="6.208023">
		<ele>426</ele>
		<time>2011-09-11T12:02:22.967Z</time>
		<geoidheight>380</geoidheight>
	</trkpt>
	<trkpt lat="50.661289" lon="6.208004">
		<ele>426</ele>
		<time>2011-09-11T12:02:23.966Z</time>
		<geoidheight>380</geoidheight>
	</trkpt>
	<trkpt lat="50.661291" lon="6.207981">
		<ele>426</ele>
		<time>2011-09-11T12:02:24.967Z</time>
		<geoidheight>380</geoidheight>
	</trkpt>
	<trkpt lat="50.661291" lon="6.207958">
		<ele>426</ele>
		<time>2011-09-11T12:02:25.969Z</time>
		<geoidheight>380</geoidheight>
	</trkpt>
	<trkpt lat="50.661293" lon="6.207934">
		<ele>425</ele>
		<time>2011-09-11T12:02:26.968Z</time>
		<geoidheight>379</geoidheight>
	</trkpt>
	<trkpt lat="50.661296" lon="6.207910">
		<ele>425</ele>
		<time>2011-09-11T12:02:27.968Z</time>
		<geoidheight>379</geoidheight>
	</trkpt>
	<trkpt lat="50.661299" lon="6.207891">
		<ele>425</ele>
		<time>2011-09-11T12:02:28.964Z</time>
		<geoidheight>379</geoidheight>
	</trkpt>
	<trkpt lat="50.661303" lon="6.207871">
		<ele>425</ele>
		<time>2011-09-11T12:02:29.966Z</time>
		<geoidheight>379</geoidheight>
	</trkpt>
	<trkpt lat="50.661308" lon="6.207847">
		<ele>424</ele>
		<time>2011-09-11T12:02:30.968Z</time>
		<geoidheight>378</geoidheight>
	</trkpt>
	<trkpt lat="50.661314" lon="6.207827">
		<ele>424</ele>
		<time>2011-09-11T12:02:31.969Z</time>
		<geoidheight>378</geoidheight>
	</trkpt>
	<trkpt lat="50.661315" lon="6.207803">
		<ele>424</ele>
		<time>2011-09-11T12:02:32.966Z</time>
		<geoidheight>378</geoidheight>
	</trkpt>
	<trkpt lat="50.661320" lon="6.207782">
		<ele>424</ele>
		<time>2011-09-11T12:02:33.967Z</time>
		<geoidheight>378</geoidheight>
	</trkpt>
	<trkpt lat="50.661325" lon="6.207763">
		<ele>423</ele>
		<time>2011-09-11T12:02:34.970Z</time>
		<geoidheight>377</geoidheight>
	</trkpt>
	<trkpt lat="50.661333" lon="6.207746">
		<ele>423</ele>
		<time>2011-09-11T12:02:35.968Z</time>
		<geoidheight>377</geoidheight>
	</trkpt>
	<trkpt lat="50.661339" lon="6.207729">
		<ele>423</ele>
		<time>2011-09-11T12:02:36.970Z</time>
		<geoidheight>377</geoidheight>
	</trkpt>
	<trkpt lat="50.661345" lon="6.207713">
		<ele>423</ele>
		<time>2011-09-11T12:02:37.974Z</time>
		<geoidheight>377</geoidheight>
	</trkpt>
	<trkpt lat="50.661348" lon="6.207695">
		<ele>423</ele>
		<time>2011-09-11T12:02:38.969Z</time>
		<geoidheight>377</geoidheight>
	</trkpt>
	<trkpt lat="50.661353" lon="6.207678">
		<ele>422</ele>
		<time>2011-09-11T12:02:39.964Z</time>
		<geoidheight>376</geoidheight>
	</trkpt>
	<trkpt lat="50.661357" lon="6.207660">
		<ele>422</ele>
		<time>2011-09-11T12:02:40.971Z</time>
		<geoidheight>376</geoidheight>
	</trkpt>
	<trkpt lat="50.661360" lon="6.207644">
		<ele>422</ele>
		<time>2011-09-11T12:02:41.967Z</time>
		<geoidheight>376</geoidheight>
	</trkpt>
	<trkpt lat="50.661359" lon="6.207633">
		<ele>422</ele>
		<time>2011-09-11T12:02:42.955Z</time>
		<geoidheight>376</geoidheight>
	</trkpt>
	<trkpt lat="50.661355" lon="6.207621">
		<ele>422</ele>
		<time>2011-09-11T12:02:43.956Z</time>
		<geoidheight>376</geoidheight>
	</trkpt>
	<trkpt lat="50.661352" lon="6.207606">
		<ele>421</ele>
		<time>2011-09-11T12:02:44.956Z</time>
		<geoidheight>375</geoidheight>
	</trkpt>
	<trkpt lat="50.661346" lon="6.207596">
		<ele>421</ele>
		<time>2011-09-11T12:02:45.962Z</time>
		<geoidheight>375</geoidheight>
	</trkpt>
	<trkpt lat="50.661342" lon="6.207584">
		<ele>421</ele>
		<time>2011-09-11T12:02:46.956Z</time>
		<geoidheight>375</geoidheight>
	</trkpt>
	<trkpt lat="50.661349" lon="6.207574">
		<ele>421</ele>
		<time>2011-09-11T12:02:47.958Z</time>
		<geoidheight>375</geoidheight>
	</trkpt>
	<trkpt lat="50.661358" lon="6.207565">
		<ele>421</ele>
		<time>2011-09-11T12:02:48.961Z</time>
		<geoidheight>375</geoidheight>
	</trkpt>
	<trkpt lat="50.661364" lon="6.207560">
		<ele>421</ele>
		<time>2011-09-11T12:02:49.957Z</time>
		<geoidheight>375</geoidheight>
	</trkpt>
	<trkpt lat="50.661370" lon="6.207552">
		<ele>421</ele>
		<time>2011-09-11T12:02:50.966Z</time>
		<geoidheight>375</geoidheight>
	</trkpt>
	<trkpt lat="50.661368" lon="6.207539">
		<ele>420</ele>
		<time>2011-09-11T12:02:51.957Z</time>
		<geoidheight>374</geoidheight>
	</trkpt>
	<trkpt lat="50.661372" lon="6.207529">
		<ele>420</ele>
		<time>2011-09-11T12:02:52.957Z</time>
		<geoidheight>374</geoidheight>
	</trkpt>
	<trkpt lat="50.661369" lon="6.207523">
		<ele>420</ele>
		<time>2011-09-11T12:02:53.962Z</time>
		<geoidheight>374</geoidheight>
	</trkpt>
	<trkpt lat="50.661369" lon="6.207510">
		<ele>420</ele>
		<time>2011-09-11T12:02:54.954Z</time>
		<geoidheight>374</geoidheight>
	</trkpt>
	<trkpt lat="50.661369" lon="6.207501">
		<ele>420</ele>
		<time>2011-09-11T12:02:55.960Z</time>
		<geoidheight>374</geoidheight>
	</trkpt>
	<trkpt lat="50.661370" lon="6.207491">
		<ele>420</ele>
		<time>2011-09-11T12:02:56.960Z</time>
		<geoidheight>374</geoidheight>
	</trkpt>
	<trkpt lat="50.661373" lon="6.207478">
		<ele>420</ele>
		<time>2011-09-11T12:02:58.972Z</time>
		<geoidheight>374</geoidheight>
	</trkpt>
	<trkpt lat="50.661366" lon="6.207474">
		<ele>420</ele>
		<time>2011-09-11T12:02:59.965Z</time>
		<geoidheight>374</geoidheight>
	</trkpt>
	<trkpt lat="50.661362" lon="6.207465">
		<ele>420</ele>
		<time>2011-09-11T12:03:00.964Z</time>
		<geoidheight>374</geoidheight>
	</trkpt>
	<trkpt lat="50.661359" lon="6.207454">
		<ele>419</ele>
		<time>2011-09-11T12:03:01.960Z</time>
		<geoidheight>373</geoidheight>
	</trkpt>
	<trkpt lat="50.661357" lon="6.207441">
		<ele>419</ele>
		<time>2011-09-11T12:03:02.960Z</time>
		<geoidheight>373</geoidheight>
	</trkpt>
	<trkpt lat="50.661356" lon="6.207427">
		<ele>419</ele>
		<time>2011-09-11T12:03:03.966Z</time>
		<geoidheight>373</geoidheight>
	</trkpt>
	<trkpt lat="50.661351" lon="6.207412">
		<ele>419</ele>
		<time>2011-09-11T12:03:04.969Z</time>
		<geoidheight>373</geoidheight>
	</trkpt>
	<trkpt lat="50.661351" lon="6.207400">
		<ele>419</ele>
		<time>2011-09-11T12:03:05.970Z</time>
		<geoidheight>373</geoidheight>
	</trkpt>
	<trkpt lat="50.661349" lon="6.207389">
		<ele>419</ele>
		<time>2011-09-11T12:03:06.965Z</time>
		<geoidheight>373</geoidheight>
	</trkpt>
	<trkpt lat="50.661345" lon="6.207377">
		<ele>419</ele>
		<time>2011-09-11T12:03:07.966Z</time>
		<geoidheight>373</geoidheight>
	</trkpt>
	<trkpt lat="50.661340" lon="6.207363">
		<ele>419</ele>
		<time>2011-09-11T12:03:08.977Z</time>
		<geoidheight>373</geoidheight>
	</trkpt>
	<trkpt lat="50.661335" lon="6.207350">
		<ele>419</ele>
		<time>2011-09-11T12:03:09.974Z</time>
		<geoidheight>373</geoidheight>
	</trkpt>
	<trkpt lat="50.661328" lon="6.207339">
		<ele>419</ele>
		<time>2011-09-11T12:03:10.964Z</time>
		<geoidheight>373</geoidheight>
	</trkpt>
	<trkpt lat="50.661323" lon="6.207327">
		<ele>419</ele>
		<time>2011-09-11T12:03:11.974Z</time>
		<geoidheight>373</geoidheight>
	</trkpt>
	<trkpt lat="50.661316" lon="6.207319">
		<ele>419</ele>
		<time>2011-09-11T12:03:12.969Z</time>
		<geoidheight>373</geoidheight>
	</trkpt>
	<trkpt lat="50.661310" lon="6.207311">
		<ele>419</ele>
		<time>2011-09-11T12:03:13.970Z</time>
		<geoidheight>373</geoidheight>
	</trkpt>
	<trkpt lat="50.661307" lon="6.207301">
		<ele>419</ele>
		<time>2011-09-11T12:03:14.966Z</time>
		<geoidheight>373</geoidheight>
	</trkpt>
	<trkpt lat="50.661303" lon="6.207296">
		<ele>419</ele>
		<time>2011-09-11T12:03:15.965Z</time>
		<geoidheight>373</geoidheight>
	</trkpt>
	<trkpt lat="50.661303" lon="6.207296">
		<ele>419</ele>
		<time>2011-09-11T12:03:20.969Z</time>
		<geoidheight>373</geoidheight>
	</trkpt>
	<trkpt lat="50.661287" lon="6.207293">
		<ele>418</ele>
		<time>2011-09-11T12:03:21.978Z</time>
		<geoidheight>372</geoidheight>
	</trkpt>
	<trkpt lat="50.661288" lon="6.207288">
		<ele>418</ele>
		<time>2011-09-11T12:03:24.968Z</time>
		<geoidheight>372</geoidheight>
	</trkpt>
	<trkpt lat="50.661290" lon="6.207279">
		<ele>418</ele>
		<time>2011-09-11T12:03:25.961Z</time>
		<geoidheight>372</geoidheight>
	</trkpt>
	<trkpt lat="50.661293" lon="6.207264">
		<ele>418</ele>
		<time>2011-09-11T12:03:26.964Z</time>
		<geoidheight>372</geoidheight>
	</trkpt>
	<trkpt lat="50.661295" lon="6.207251">
		<ele>418</ele>
		<time>2011-09-11T12:03:27.966Z</time>
		<geoidheight>372</geoidheight>
	</trkpt>
	<trkpt lat="50.661294" lon="6.207237">
		<ele>418</ele>
		<time>2011-09-11T12:03:28.963Z</time>
		<geoidheight>372</geoidheight>
	</trkpt>
	<trkpt lat="50.661293" lon="6.207224">
		<ele>418</ele>
		<time>2011-09-11T12:03:29.959Z</time>
		<geoidheight>372</geoidheight>
	</trkpt>
	<trkpt lat="50.661295" lon="6.207213">
		<ele>418</ele>
		<time>2011-09-11T12:03:30.973Z</time>
		<geoidheight>372</geoidheight>
	</trkpt>
	<trkpt lat="50.661299" lon="6.207204">
		<ele>418</ele>
		<time>2011-09-11T12:03:31.975Z</time>
		<geoidheight>372</geoidheight>
	</trkpt>
	<trkpt lat="50.661300" lon="6.207193">
		<ele>418</ele>
		<time>2011-09-11T12:03:32.972Z</time>
		<geoidheight>372</geoidheight>
	</trkpt>
	<trkpt lat="50.661305" lon="6.207188">
		<ele>418</ele>
		<time>2011-09-11T12:03:33.956Z</time>
		<geoidheight>372</geoidheight>
	</trkpt>
	<trkpt lat="50.661310" lon="6.207187">
		<ele>418</ele>
		<time>2011-09-11T12:03:34.957Z</time>
		<geoidheight>372</geoidheight>
	</trkpt>
	<trkpt lat="50.661308" lon="6.207179">
		<ele>418</ele>
		<time>2011-09-11T12:03:35.959Z</time>
		<geoidheight>372</geoidheight>
	</trkpt>
	<trkpt lat="50.661305" lon="6.207171">
		<ele>418</ele>
		<time>2011-09-11T12:03:36.957Z</time>
		<geoidheight>372</geoidheight>
	</trkpt>
	<trkpt lat="50.661304" lon="6.207158">
		<ele>418</ele>
		<time>2011-09-11T12:03:38.957Z</time>
		<geoidheight>372</geoidheight>
	</trkpt>
	<trkpt lat="50.661303" lon="6.207151">
		<ele>418</ele>
		<time>2011-09-11T12:03:39.965Z</time>
		<geoidheight>372</geoidheight>
	</trkpt>
	<trkpt lat="50.661302" lon="6.207139">
		<ele>418</ele>
		<time>2011-09-11T12:03:41.956Z</time>
		<geoidheight>372</geoidheight>
	</trkpt>
	<trkpt lat="50.661305" lon="6.207137">
		<ele>418</ele>
		<time>2011-09-11T12:03:42.957Z</time>
		<geoidheight>372</geoidheight>
	</trkpt>
	<trkpt lat="50.661305" lon="6.207126">
		<ele>418</ele>
		<time>2011-09-11T12:03:44.956Z</time>
		<geoidheight>372</geoidheight>
	</trkpt>
	<trkpt lat="50.661303" lon="6.207120">
		<ele>418</ele>
		<time>2011-09-11T12:03:45.956Z</time>
		<geoidheight>372</geoidheight>
	</trkpt>
	<trkpt lat="50.661305" lon="6.207107">
		<ele>418</ele>
		<time>2011-09-11T12:03:47.965Z</time>
		<geoidheight>372</geoidheight>
	</trkpt>
	<trkpt lat="50.661309" lon="6.207102">
		<ele>418</ele>
		<time>2011-09-11T12:03:48.967Z</time>
		<geoidheight>372</geoidheight>
	</trkpt>
	<trkpt lat="50.661307" lon="6.207093">
		<ele>418</ele>
		<time>2011-09-11T12:03:54.956Z</time>
		<geoidheight>372</geoidheight>
	</trkpt>
	<trkpt lat="50.661311" lon="6.207125">
		<ele>418</ele>
		<time>2011-09-11T12:03:55.958Z</time>
		<geoidheight>372</geoidheight>
	</trkpt>
	<trkpt lat="50.661311" lon="6.207125">
		<ele>418</ele>
		<time>2011-09-11T12:04:02.957Z</time>
		<geoidheight>372</geoidheight>
	</trkpt>
	<trkpt lat="50.661315" lon="6.207140">
		<ele>418</ele>
		<time>2011-09-11T12:04:03.957Z</time>
		<geoidheight>372</geoidheight>
	</trkpt>
	<trkpt lat="50.661316" lon="6.207128">
		<ele>418</ele>
		<time>2011-09-11T12:04:04.956Z</time>
		<geoidheight>372</geoidheight>
	</trkpt>
	<trkpt lat="50.661316" lon="6.207117">
		<ele>418</ele>
		<time>2011-09-11T12:04:05.958Z</time>
		<geoidheight>372</geoidheight>
	</trkpt>
	<trkpt lat="50.661315" lon="6.207104">
		<ele>418</ele>
		<time>2011-09-11T12:04:06.955Z</time>
		<geoidheight>372</geoidheight>
	</trkpt>
	<trkpt lat="50.661314" lon="6.207092">
		<ele>418</ele>
		<time>2011-09-11T12:04:07.956Z</time>
		<geoidheight>372</geoidheight>
	</trkpt>
	<trkpt lat="50.661316" lon="6.207079">
		<ele>418</ele>
		<time>2011-09-11T12:04:09.957Z</time>
		<geoidheight>372</geoidheight>
	</trkpt>
	<trkpt lat="50.661315" lon="6.207067">
		<ele>418</ele>
		<time>2011-09-11T12:04:10.957Z</time>
		<geoidheight>372</geoidheight>
	</trkpt>
	<trkpt lat="50.661307" lon="6.207053">
		<ele>418</ele>
		<time>2011-09-11T12:04:11.958Z</time>
		<geoidheight>372</geoidheight>
	</trkpt>
	<trkpt lat="50.661307" lon="6.207053">
		<ele>418</ele>
		<time>2011-09-11T12:04:14.957Z</time>
		<geoidheight>372</geoidheight>
	</trkpt>
	<trkpt lat="50.661259" lon="6.207039">
		<ele>418</ele>
		<time>2011-09-11T12:04:15.958Z</time>
		<geoidheight>372</geoidheight>
	</trkpt>
	<trkpt lat="50.661259" lon="6.207039">
		<ele>418</ele>
		<time>2011-09-11T12:04:26.957Z</time>
		<geoidheight>372</geoidheight>
	</trkpt>
	<trkpt lat="50.661244" lon="6.206994">
		<ele>418</ele>
		<time>2011-09-11T12:04:27.957Z</time>
		<geoidheight>372</geoidheight>
	</trkpt>
	<trkpt lat="50.661240" lon="6.206986">
		<ele>418</ele>
		<time>2011-09-11T12:04:28.966Z</time>
		<geoidheight>372</geoidheight>
	</trkpt>
	<trkpt lat="50.661234" lon="6.206978">
		<ele>418</ele>
		<time>2011-09-11T12:04:29.959Z</time>
		<geoidheight>372</geoidheight>
	</trkpt>
	<trkpt lat="50.661231" lon="6.206968">
		<ele>418</ele>
		<time>2011-09-11T12:04:30.955Z</time>
		<geoidheight>372</geoidheight>
	</trkpt>
	<trkpt lat="50.661229" lon="6.206957">
		<ele>418</ele>
		<time>2011-09-11T12:04:31.956Z</time>
		<geoidheight>372</geoidheight>
	</trkpt>
	<trkpt lat="50.661227" lon="6.206947">
		<ele>418</ele>
		<time>2011-09-11T12:04:51.957Z</time>
		<geoidheight>372</geoidheight>
	</trkpt>
	<trkpt lat="50.661214" lon="6.206966">
		<ele>418</ele>
		<time>2011-09-11T12:04:52.956Z</time>
		<geoidheight>372</geoidheight>
	</trkpt>
	<trkpt lat="50.661221" lon="6.206970">
		<ele>418</ele>
		<time>2011-09-11T12:04:54.958Z</time>
		<geoidheight>372</geoidheight>
	</trkpt>
	<trkpt lat="50.661223" lon="6.206974">
		<ele>418</ele>
		<time>2011-09-11T12:04:55.957Z</time>
		<geoidheight>372</geoidheight>
	</trkpt>
	<trkpt lat="50.661223" lon="6.206974">
		<ele>418</ele>
		<time>2011-09-11T12:05:01.956Z</time>
		<geoidheight>372</geoidheight>
	</trkpt>
	<trkpt lat="50.661200" lon="6.206892">
		<ele>418</ele>
		<time>2011-09-11T12:05:02.957Z</time>
		<geoidheight>372</geoidheight>
	</trkpt>
	<trkpt lat="50.661195" lon="6.206877">
		<ele>418</ele>
		<time>2011-09-11T12:05:03.956Z</time>
		<geoidheight>372</geoidheight>
	</trkpt>
	<trkpt lat="50.661195" lon="6.206877">
		<ele>418</ele>
		<time>2011-09-11T12:05:05.957Z</time>
		<geoidheight>372</geoidheight>
	</trkpt>
	<trkpt lat="50.661156" lon="6.206835">
		<ele>418</ele>
		<time>2011-09-11T12:05:06.956Z</time>
		<geoidheight>372</geoidheight>
	</trkpt>
	<trkpt lat="50.661156" lon="6.206835">
		<ele>418</ele>
		<time>2011-09-11T12:05:08.956Z</time>
		<geoidheight>372</geoidheight>
	</trkpt>
	<trkpt lat="50.661098" lon="6.206816">
		<ele>418</ele>
		<time>2011-09-11T12:05:09.958Z</time>
		<geoidheight>372</geoidheight>
	</trkpt>
	<trkpt lat="50.661076" lon="6.206815">
		<ele>418</ele>
		<time>2011-09-11T12:05:10.958Z</time>
		<geoidheight>372</geoidheight>
	</trkpt>
	<trkpt lat="50.661076" lon="6.206815">
		<ele>418</ele>
		<time>2011-09-11T12:05:11.958Z</time>
		<geoidheight>372</geoidheight>
	</trkpt>
	<trkpt lat="50.661019" lon="6.206805">
		<ele>418</ele>
		<time>2011-09-11T12:05:12.956Z</time>
		<geoidheight>372</geoidheight>
	</trkpt>
	<trkpt lat="50.661019" lon="6.206805">
		<ele>418</ele>
		<time>2011-09-11T12:05:13.958Z</time>
		<geoidheight>372</geoidheight>
	</trkpt>
	<trkpt lat="50.660970" lon="6.206797">
		<ele>418</ele>
		<time>2011-09-11T12:05:14.957Z</time>
		<geoidheight>372</geoidheight>
	</trkpt>
	<trkpt lat="50.660970" lon="6.206797">
		<ele>419</ele>
		<time>2011-09-11T12:05:15.958Z</time>
		<geoidheight>373</geoidheight>
	</trkpt>
	<trkpt lat="50.660916" lon="6.206783">
		<ele>419</ele>
		<time>2011-09-11T12:05:16.958Z</time>
		<geoidheight>373</geoidheight>
	</trkpt>
	<trkpt lat="50.660916" lon="6.206783">
		<ele>419</ele>
		<time>2011-09-11T12:05:17.958Z</time>
		<geoidheight>373</geoidheight>
	</trkpt>
	<trkpt lat="50.660868" lon="6.206764">
		<ele>419</ele>
		<time>2011-09-11T12:05:18.956Z</time>
		<geoidheight>373</geoidheight>
	</trkpt>
	<trkpt lat="50.660868" lon="6.206764">
		<ele>419</ele>
		<time>2011-09-11T12:05:20.956Z</time>
		<geoidheight>373</geoidheight>
	</trkpt>
	<trkpt lat="50.660838" lon="6.206750">
		<ele>419</ele>
		<time>2011-09-11T12:05:21.956Z</time>
		<geoidheight>373</geoidheight>
	</trkpt>
	<trkpt lat="50.660829" lon="6.206744">
		<ele>419</ele>
		<time>2011-09-11T12:05:22.958Z</time>
		<geoidheight>373</geoidheight>
	</trkpt>
	<trkpt lat="50.660818" lon="6.206740">
		<ele>419</ele>
		<time>2011-09-11T12:05:23.956Z</time>
		<geoidheight>373</geoidheight>
	</trkpt>
	<trkpt lat="50.660800" lon="6.206733">
		<ele>419</ele>
		<time>2011-09-11T12:05:24.956Z</time>
		<geoidheight>373</geoidheight>
	</trkpt>
	<trkpt lat="50.660784" lon="6.206724">
		<ele>419</ele>
		<time>2011-09-11T12:05:25.960Z</time>
		<geoidheight>373</geoidheight>
	</trkpt>
	<trkpt lat="50.660765" lon="6.206715">
		<ele>419</ele>
		<time>2011-09-11T12:05:26.957Z</time>
		<geoidheight>373</geoidheight>
	</trkpt>
	<trkpt lat="50.660765" lon="6.206715">
		<ele>419</ele>
		<time>2011-09-11T12:05:27.957Z</time>
		<geoidheight>373</geoidheight>
	</trkpt>
	<trkpt lat="50.660738" lon="6.206699">
		<ele>419</ele>
		<time>2011-09-11T12:05:28.958Z</time>
		<geoidheight>373</geoidheight>
	</trkpt>
	<trkpt lat="50.660726" lon="6.206687">
		<ele>419</ele>
		<time>2011-09-11T12:05:29.956Z</time>
		<geoidheight>373</geoidheight>
	</trkpt>
	<trkpt lat="50.660716" lon="6.206676">
		<ele>419</ele>
		<time>2011-09-11T12:05:30.956Z</time>
		<geoidheight>373</geoidheight>
	</trkpt>
	<trkpt lat="50.660705" lon="6.206666">
		<ele>419</ele>
		<time>2011-09-11T12:05:31.959Z</time>
		<geoidheight>373</geoidheight>
	</trkpt>
	<trkpt lat="50.660696" lon="6.206659">
		<ele>419</ele>
		<time>2011-09-11T12:05:32.956Z</time>
		<geoidheight>373</geoidheight>
	</trkpt>
	<trkpt lat="50.660690" lon="6.206656">
		<ele>419</ele>
		<time>2011-09-11T12:05:33.957Z</time>
		<geoidheight>373</geoidheight>
	</trkpt>
	<trkpt lat="50.660685" lon="6.206653">
		<ele>419</ele>
		<time>2011-09-11T12:05:34.957Z</time>
		<geoidheight>373</geoidheight>
	</trkpt>
	<trkpt lat="50.660685" lon="6.206658">
		<ele>419</ele>
		<time>2011-09-11T12:05:37.956Z</time>
		<geoidheight>373</geoidheight>
	</trkpt>
	<trkpt lat="50.660687" lon="6.206668">
		<ele>419</ele>
		<time>2011-09-11T12:05:38.956Z</time>
		<geoidheight>373</geoidheight>
	</trkpt>
	<trkpt lat="50.660690" lon="6.206681">
		<ele>419</ele>
		<time>2011-09-11T12:05:39.957Z</time>
		<geoidheight>373</geoidheight>
	</trkpt>
	<trkpt lat="50.660692" lon="6.206699">
		<ele>419</ele>
		<time>2011-09-11T12:05:40.957Z</time>
		<geoidheight>373</geoidheight>
	</trkpt>
	<trkpt lat="50.660694" lon="6.206719">
		<ele>419</ele>
		<time>2011-09-11T12:05:41.958Z</time>
		<geoidheight>373</geoidheight>
	</trkpt>
	<trkpt lat="50.660698" lon="6.206735">
		<ele>419</ele>
		<time>2011-09-11T12:05:42.957Z</time>
		<geoidheight>373</geoidheight>
	</trkpt>
	<trkpt lat="50.660699" lon="6.206750">
		<ele>419</ele>
		<time>2011-09-11T12:05:43.956Z</time>
		<geoidheight>373</geoidheight>
	</trkpt>
	<trkpt lat="50.660711" lon="6.206767">
		<ele>419</ele>
		<time>2011-09-11T12:05:44.956Z</time>
		<geoidheight>373</geoidheight>
	</trkpt>
	<trkpt lat="50.660723" lon="6.206782">
		<ele>419</ele>
		<time>2011-09-11T12:05:45.957Z</time>
		<geoidheight>373</geoidheight>
	</trkpt>
	<trkpt lat="50.660723" lon="6.206782">
		<ele>419</ele>
		<time>2011-09-11T12:05:49.957Z</time>
		<geoidheight>373</geoidheight>
	</trkpt>
	<trkpt lat="50.660750" lon="6.206851">
		<ele>419</ele>
		<time>2011-09-11T12:05:50.956Z</time>
		<geoidheight>373</geoidheight>
	</trkpt>
	<trkpt lat="50.660750" lon="6.206851">
		<ele>418</ele>
		<time>2011-09-11T12:05:53.957Z</time>
		<geoidheight>372</geoidheight>
	</trkpt>
	<trkpt lat="50.660774" lon="6.206915">
		<ele>418</ele>
		<time>2011-09-11T12:05:54.958Z</time>
		<geoidheight>372</geoidheight>
	</trkpt>
	<trkpt lat="50.660779" lon="6.206919">
		<ele>418</ele>
		<time>2011-09-11T12:05:56.958Z</time>
		<geoidheight>372</geoidheight>
	</trkpt>
	<trkpt lat="50.660782" lon="6.206928">
		<ele>417</ele>
		<time>2011-09-11T12:05:57.957Z</time>
		<geoidheight>371</geoidheight>
	</trkpt>
	<trkpt lat="50.660778" lon="6.206925">
		<ele>417</ele>
		<time>2011-09-11T12:06:01.959Z</time>
		<geoidheight>371</geoidheight>
	</trkpt>
	<trkpt lat="50.660770" lon="6.206923">
		<ele>416</ele>
		<time>2011-09-11T12:06:02.957Z</time>
		<geoidheight>370</geoidheight>
	</trkpt>
	<trkpt lat="50.660762" lon="6.206918">
		<ele>416</ele>
		<time>2011-09-11T12:06:03.956Z</time>
		<geoidheight>370</geoidheight>
	</trkpt>
	<trkpt lat="50.660755" lon="6.206907">
		<ele>416</ele>
		<time>2011-09-11T12:06:04.959Z</time>
		<geoidheight>370</geoidheight>
	</trkpt>
	<trkpt lat="50.660746" lon="6.206897">
		<ele>416</ele>
		<time>2011-09-11T12:06:05.956Z</time>
		<geoidheight>370</geoidheight>
	</trkpt>
	<trkpt lat="50.660721" lon="6.206887">
		<ele>416</ele>
		<time>2011-09-11T12:06:06.958Z</time>
		<geoidheight>370</geoidheight>
	</trkpt>
	<trkpt lat="50.660693" lon="6.206883">
		<ele>415</ele>
		<time>2011-09-11T12:06:07.960Z</time>
		<geoidheight>369</geoidheight>
	</trkpt>
	<trkpt lat="50.660663" lon="6.206894">
		<ele>415</ele>
		<time>2011-09-11T12:06:08.957Z</time>
		<geoidheight>369</geoidheight>
	</trkpt>
	<trkpt lat="50.660629" lon="6.206916">
		<ele>415</ele>
		<time>2011-09-11T12:06:09.958Z</time>
		<geoidheight>369</geoidheight>
	</trkpt>
	<trkpt lat="50.660592" lon="6.206936">
		<ele>415</ele>
		<time>2011-09-11T12:06:10.960Z</time>
		<geoidheight>369</geoidheight>
	</trkpt>
	<trkpt lat="50.660554" lon="6.206951">
		<ele>414</ele>
		<time>2011-09-11T12:06:11.957Z</time>
		<geoidheight>368</geoidheight>
	</trkpt>
	<trkpt lat="50.660517" lon="6.206958">
		<ele>414</ele>
		<time>2011-09-11T12:06:12.957Z</time>
		<geoidheight>368</geoidheight>
	</trkpt>
	<trkpt lat="50.660487" lon="6.206951">
		<ele>414</ele>
		<time>2011-09-11T12:06:13.969Z</time>
		<geoidheight>368</geoidheight>
	</trkpt>
	<trkpt lat="50.660458" lon="6.206944">
		<ele>413</ele>
		<time>2011-09-11T12:06:14.961Z</time>
		<geoidheight>367</geoidheight>
	</trkpt>
	<trkpt lat="50.660430" lon="6.206937">
		<ele>413</ele>
		<time>2011-09-11T12:06:15.959Z</time>
		<geoidheight>367</geoidheight>
	</trkpt>
	<trkpt lat="50.660401" lon="6.206932">
		<ele>413</ele>
		<time>2011-09-11T12:06:16.960Z</time>
		<geoidheight>367</geoidheight>
	</trkpt>
	<trkpt lat="50.660360" lon="6.206926">
		<ele>412</ele>
		<time>2011-09-11T12:06:17.956Z</time>
		<geoidheight>366</geoidheight>
	</trkpt>
	<trkpt lat="50.660318" lon="6.206917">
		<ele>412</ele>
		<time>2011-09-11T12:06:18.966Z</time>
		<geoidheight>366</geoidheight>
	</trkpt>
	<trkpt lat="50.660281" lon="6.206912">
		<ele>411</ele>
		<time>2011-09-11T12:06:19.958Z</time>
		<geoidheight>365</geoidheight>
	</trkpt>
	<trkpt lat="50.660252" lon="6.206902">
		<ele>411</ele>
		<time>2011-09-11T12:06:20.957Z</time>
		<geoidheight>365</geoidheight>
	</trkpt>
	<trkpt lat="50.660227" lon="6.206887">
		<ele>410</ele>
		<time>2011-09-11T12:06:21.957Z</time>
		<geoidheight>364</geoidheight>
	</trkpt>
	<trkpt lat="50.660207" lon="6.206876">
		<ele>410</ele>
		<time>2011-09-11T12:06:22.959Z</time>
		<geoidheight>364</geoidheight>
	</trkpt>
	<trkpt lat="50.660190" lon="6.206867">
		<ele>410</ele>
		<time>2011-09-11T12:06:23.959Z</time>
		<geoidheight>364</geoidheight>
	</trkpt>
	<trkpt lat="50.660173" lon="6.206857">
		<ele>409</ele>
		<time>2011-09-11T12:06:24.958Z</time>
		<geoidheight>363</geoidheight>
	</trkpt>
	<trkpt lat="50.660159" lon="6.206841">
		<ele>409</ele>
		<time>2011-09-11T12:06:25.957Z</time>
		<geoidheight>363</geoidheight>
	</trkpt>
	<trkpt lat="50.660146" lon="6.206829">
		<ele>408</ele>
		<time>2011-09-11T12:06:26.960Z</time>
		<geoidheight>362</geoidheight>
	</trkpt>
	<trkpt lat="50.660131" lon="6.206824">
		<ele>408</ele>
		<time>2011-09-11T12:06:27.956Z</time>
		<geoidheight>362</geoidheight>
	</trkpt>
	<trkpt lat="50.660118" lon="6.206825">
		<ele>407</ele>
		<time>2011-09-11T12:06:28.957Z</time>
		<geoidheight>361</geoidheight>
	</trkpt>
	<trkpt lat="50.660107" lon="6.206822">
		<ele>407</ele>
		<time>2011-09-11T12:06:29.957Z</time>
		<geoidheight>361</geoidheight>
	</trkpt>
	<trkpt lat="50.660095" lon="6.206826">
		<ele>407</ele>
		<time>2011-09-11T12:06:30.958Z</time>
		<geoidheight>361</geoidheight>
	</trkpt>
	<trkpt lat="50.660087" lon="6.206819">
		<ele>406</ele>
		<time>2011-09-11T12:06:31.957Z</time>
		<geoidheight>360</geoidheight>
	</trkpt>
	<trkpt lat="50.660082" lon="6.206806">
		<ele>406</ele>
		<time>2011-09-11T12:06:32.960Z</time>
		<geoidheight>360</geoidheight>
	</trkpt>
	<trkpt lat="50.660082" lon="6.206806">
		<ele>405</ele>
		<time>2011-09-11T12:06:39.957Z</time>
		<geoidheight>359</geoidheight>
	</trkpt>
	<trkpt lat="50.660106" lon="6.206745">
		<ele>405</ele>
		<time>2011-09-11T12:06:40.961Z</time>
		<geoidheight>359</geoidheight>
	</trkpt>
	<trkpt lat="50.660106" lon="6.206745">
		<ele>405</ele>
		<time>2011-09-11T12:06:48.957Z</time>
		<geoidheight>359</geoidheight>
	</trkpt>
	<trkpt lat="50.660065" lon="6.206711">
		<ele>405</ele>
		<time>2011-09-11T12:06:49.957Z</time>
		<geoidheight>359</geoidheight>
	</trkpt>
	<trkpt lat="50.660065" lon="6.206711">
		<ele>404</ele>
		<time>2011-09-11T12:06:53.958Z</time>
		<geoidheight>358</geoidheight>
	</trkpt>
	<trkpt lat="50.660015" lon="6.206709">
		<ele>404</ele>
		<time>2011-09-11T12:06:54.961Z</time>
		<geoidheight>358</geoidheight>
	</trkpt>
	<trkpt lat="50.660015" lon="6.206709">
		<ele>403</ele>
		<time>2011-09-11T12:07:00.959Z</time>
		<geoidheight>357</geoidheight>
	</trkpt>
	<trkpt lat="50.659971" lon="6.206735">
		<ele>403</ele>
		<time>2011-09-11T12:07:01.958Z</time>
		<geoidheight>357</geoidheight>
	</trkpt>
	<trkpt lat="50.659965" lon="6.206732">
		<ele>400</ele>
		<time>2011-09-11T12:07:08.958Z</time>
		<geoidheight>354</geoidheight>
	</trkpt>
	<trkpt lat="50.659958" lon="6.206734">
		<ele>400</ele>
		<time>2011-09-11T12:07:09.959Z</time>
		<geoidheight>354</geoidheight>
	</trkpt>
	<trkpt lat="50.659950" lon="6.206731">
		<ele>399</ele>
		<time>2011-09-11T12:07:10.957Z</time>
		<geoidheight>353</geoidheight>
	</trkpt>
	<trkpt lat="50.659943" lon="6.206728">
		<ele>399</ele>
		<time>2011-09-11T12:07:11.959Z</time>
		<geoidheight>353</geoidheight>
	</trkpt>
	<trkpt lat="50.659936" lon="6.206726">
		<ele>399</ele>
		<time>2011-09-11T12:07:12.959Z</time>
		<geoidheight>353</geoidheight>
	</trkpt>
	<trkpt lat="50.659930" lon="6.206726">
		<ele>398</ele>
		<time>2011-09-11T12:07:13.958Z</time>
		<geoidheight>352</geoidheight>
	</trkpt>
	<trkpt lat="50.659930" lon="6.206726">
		<ele>398</ele>
		<time>2011-09-11T12:07:16.958Z</time>
		<geoidheight>352</geoidheight>
	</trkpt>
	<trkpt lat="50.659912" lon="6.206715">
		<ele>398</ele>
		<time>2011-09-11T12:07:17.958Z</time>
		<geoidheight>352</geoidheight>
	</trkpt>
	<trkpt lat="50.659899" lon="6.206710">
		<ele>398</ele>
		<time>2011-09-11T12:07:18.959Z</time>
		<geoidheight>352</geoidheight>
	</trkpt>
	<trkpt lat="50.659900" lon="6.206696">
		<ele>397</ele>
		<time>2011-09-11T12:07:20.958Z</time>
		<geoidheight>351</geoidheight>
	</trkpt>
	<trkpt lat="50.659893" lon="6.206688">
		<ele>397</ele>
		<time>2011-09-11T12:07:21.960Z</time>
		<geoidheight>351</geoidheight>
	</trkpt>
	<trkpt lat="50.659891" lon="6.206674">
		<ele>397</ele>
		<time>2011-09-11T12:07:23.960Z</time>
		<geoidheight>351</geoidheight>
	</trkpt>
	<trkpt lat="50.659892" lon="6.206667">
		<ele>396</ele>
		<time>2011-09-11T12:07:24.964Z</time>
		<geoidheight>350</geoidheight>
	</trkpt>
	<trkpt lat="50.659893" lon="6.206659">
		<ele>396</ele>
		<time>2011-09-11T12:07:25.961Z</time>
		<geoidheight>350</geoidheight>
	</trkpt>
	<trkpt lat="50.659896" lon="6.206653">
		<ele>396</ele>
		<time>2011-09-11T12:07:26.962Z</time>
		<geoidheight>350</geoidheight>
	</trkpt>
	<trkpt lat="50.659909" lon="6.206646">
		<ele>396</ele>
		<time>2011-09-11T12:07:27.961Z</time>
		<geoidheight>350</geoidheight>
	</trkpt>
	<trkpt lat="50.659931" lon="6.206647">
		<ele>395</ele>
		<time>2011-09-11T12:07:28.959Z</time>
		<geoidheight>349</geoidheight>
	</trkpt>
	<trkpt lat="50.659954" lon="6.206650">
		<ele>395</ele>
		<time>2011-09-11T12:07:29.958Z</time>
		<geoidheight>349</geoidheight>
	</trkpt>
	<trkpt lat="50.659975" lon="6.206658">
		<ele>395</ele>
		<time>2011-09-11T12:07:30.958Z</time>
		<geoidheight>349</geoidheight>
	</trkpt>
	<trkpt lat="50.659996" lon="6.206664">
		<ele>395</ele>
		<time>2011-09-11T12:07:31.959Z</time>
		<geoidheight>349</geoidheight>
	</trkpt>
	<trkpt lat="50.660016" lon="6.206669">
		<ele>395</ele>
		<time>2011-09-11T12:07:32.958Z</time>
		<geoidheight>349</geoidheight>
	</trkpt>
	<trkpt lat="50.660034" lon="6.206671">
		<ele>395</ele>
		<time>2011-09-11T12:07:33.958Z</time>
		<geoidheight>349</geoidheight>
	</trkpt>
	<trkpt lat="50.660047" lon="6.206671">
		<ele>394</ele>
		<time>2011-09-11T12:07:34.958Z</time>
		<geoidheight>348</geoidheight>
	</trkpt>
	<trkpt lat="50.660063" lon="6.206674">
		<ele>394</ele>
		<time>2011-09-11T12:07:35.958Z</time>
		<geoidheight>348</geoidheight>
	</trkpt>
	<trkpt lat="50.660083" lon="6.206678">
		<ele>394</ele>
		<time>2011-09-11T12:07:36.959Z</time>
		<geoidheight>348</geoidheight>
	</trkpt>
	<trkpt lat="50.660102" lon="6.206685">
		<ele>394</ele>
		<time>2011-09-11T12:07:37.960Z</time>
		<geoidheight>348</geoidheight>
	</trkpt>
	<trkpt lat="50.660133" lon="6.206696">
		<ele>394</ele>
		<time>2011-09-11T12:07:38.959Z</time>
		<geoidheight>348</geoidheight>
	</trkpt>
	<trkpt lat="50.660173" lon="6.206705">
		<ele>394</ele>
		<time>2011-09-11T12:07:39.958Z</time>
		<geoidheight>348</geoidheight>
	</trkpt>
	<trkpt lat="50.660213" lon="6.206708">
		<ele>394</ele>
		<time>2011-09-11T12:07:40.961Z</time>
		<geoidheight>348</geoidheight>
	</trkpt>
	<trkpt lat="50.660249" lon="6.206702">
		<ele>394</ele>
		<time>2011-09-11T12:07:41.958Z</time>
		<geoidheight>348</geoidheight>
	</trkpt>
	<trkpt lat="50.660278" lon="6.206696">
		<ele>394</ele>
		<time>2011-09-11T12:07:42.960Z</time>
		<geoidheight>348</geoidheight>
	</trkpt>
	<trkpt lat="50.660301" lon="6.206685">
		<ele>394</ele>
		<time>2011-09-11T12:07:43.960Z</time>
		<geoidheight>348</geoidheight>
	</trkpt>
	<trkpt lat="50.660320" lon="6.206675">
		<ele>394</ele>
		<time>2011-09-11T12:07:44.959Z</time>
		<geoidheight>348</geoidheight>
	</trkpt>
	<trkpt lat="50.660339" lon="6.206667">
		<ele>394</ele>
		<time>2011-09-11T12:07:45.958Z</time>
		<geoidheight>348</geoidheight>
	</trkpt>
	<trkpt lat="50.660355" lon="6.206660">
		<ele>394</ele>
		<time>2011-09-11T12:07:46.960Z</time>
		<geoidheight>348</geoidheight>
	</trkpt>
	<trkpt lat="50.660367" lon="6.206647">
		<ele>394</ele>
		<time>2011-09-11T12:07:47.958Z</time>
		<geoidheight>348</geoidheight>
	</trkpt>
	<trkpt lat="50.660381" lon="6.206639">
		<ele>394</ele>
		<time>2011-09-11T12:07:48.993Z</time>
		<geoidheight>348</geoidheight>
	</trkpt>
	<trkpt lat="50.660392" lon="6.206627">
		<ele>394</ele>
		<time>2011-09-11T12:07:49.960Z</time>
		<geoidheight>348</geoidheight>
	</trkpt>
	<trkpt lat="50.660402" lon="6.206616">
		<ele>394</ele>
		<time>2011-09-11T12:07:50.969Z</time>
		<geoidheight>348</geoidheight>
	</trkpt>
	<trkpt lat="50.660413" lon="6.206610">
		<ele>394</ele>
		<time>2011-09-11T12:07:51.958Z</time>
		<geoidheight>348</geoidheight>
	</trkpt>
	<trkpt lat="50.660423" lon="6.206600">
		<ele>394</ele>
		<time>2011-09-11T12:07:52.963Z</time>
		<geoidheight>348</geoidheight>
	</trkpt>
	<trkpt lat="50.660429" lon="6.206585">
		<ele>394</ele>
		<time>2011-09-11T12:07:53.958Z</time>
		<geoidheight>348</geoidheight>
	</trkpt>
	<trkpt lat="50.660434" lon="6.206565">
		<ele>395</ele>
		<time>2011-09-11T12:07:54.957Z</time>
		<geoidheight>349</geoidheight>
	</trkpt>
	<trkpt lat="50.660438" lon="6.206544">
		<ele>395</ele>
		<time>2011-09-11T12:07:55.966Z</time>
		<geoidheight>349</geoidheight>
	</trkpt>
	<trkpt lat="50.660440" lon="6.206528">
		<ele>395</ele>
		<time>2011-09-11T12:07:56.959Z</time>
		<geoidheight>349</geoidheight>
	</trkpt>
	<trkpt lat="50.660448" lon="6.206513">
		<ele>395</ele>
		<time>2011-09-11T12:07:57.958Z</time>
		<geoidheight>349</geoidheight>
	</trkpt>
	<trkpt lat="50.660455" lon="6.206502">
		<ele>395</ele>
		<time>2011-09-11T12:07:58.957Z</time>
		<geoidheight>349</geoidheight>
	</trkpt>
	<trkpt lat="50.660458" lon="6.206488">
		<ele>395</ele>
		<time>2011-09-11T12:07:59.958Z</time>
		<geoidheight>349</geoidheight>
	</trkpt>
	<trkpt lat="50.660469" lon="6.206481">
		<ele>395</ele>
		<time>2011-09-11T12:08:00.959Z</time>
		<geoidheight>349</geoidheight>
	</trkpt>
	<trkpt lat="50.660478" lon="6.206477">
		<ele>395</ele>
		<time>2011-09-11T12:08:01.961Z</time>
		<geoidheight>349</geoidheight>
	</trkpt>
	<trkpt lat="50.660494" lon="6.206470">
		<ele>395</ele>
		<time>2011-09-11T12:08:02.958Z</time>
		<geoidheight>349</geoidheight>
	</trkpt>
	<trkpt lat="50.660511" lon="6.206461">
		<ele>395</ele>
		<time>2011-09-11T12:08:03.958Z</time>
		<geoidheight>349</geoidheight>
	</trkpt>
	<trkpt lat="50.660529" lon="6.206458">
		<ele>395</ele>
		<time>2011-09-11T12:08:04.959Z</time>
		<geoidheight>349</geoidheight>
	</trkpt>
	<trkpt lat="50.660545" lon="6.206452">
		<ele>395</ele>
		<time>2011-09-11T12:08:05.958Z</time>
		<geoidheight>349</geoidheight>
	</trkpt>
	<trkpt lat="50.660557" lon="6.206439">
		<ele>394</ele>
		<time>2011-09-11T12:08:06.959Z</time>
		<geoidheight>348</geoidheight>
	</trkpt>
	<trkpt lat="50.660570" lon="6.206429">
		<ele>394</ele>
		<time>2011-09-11T12:08:07.958Z</time>
		<geoidheight>348</geoidheight>
	</trkpt>
	<trkpt lat="50.660580" lon="6.206418">
		<ele>394</ele>
		<time>2011-09-11T12:08:08.959Z</time>
		<geoidheight>348</geoidheight>
	</trkpt>
	<trkpt lat="50.660590" lon="6.206402">
		<ele>394</ele>
		<time>2011-09-11T12:08:09.958Z</time>
		<geoidheight>348</geoidheight>
	</trkpt>
	<trkpt lat="50.660594" lon="6.206381">
		<ele>394</ele>
		<time>2011-09-11T12:08:10.958Z</time>
		<geoidheight>348</geoidheight>
	</trkpt>
	<trkpt lat="50.660603" lon="6.206358">
		<ele>394</ele>
		<time>2011-09-11T12:08:11.959Z</time>
		<geoidheight>348</geoidheight>
	</trkpt>
	<trkpt lat="50.660609" lon="6.206338">
		<ele>393</ele>
		<time>2011-09-11T12:08:12.959Z</time>
		<geoidheight>347</geoidheight>
	</trkpt>
	<trkpt lat="50.660613" lon="6.206318">
		<ele>393</ele>
		<time>2011-09-11T12:08:13.964Z</time>
		<geoidheight>347</geoidheight>
	</trkpt>
	<trkpt lat="50.660615" lon="6.206298">
		<ele>393</ele>
		<time>2011-09-11T12:08:14.963Z</time>
		<geoidheight>347</geoidheight>
	</trkpt>
	<trkpt lat="50.660617" lon="6.206278">
		<ele>393</ele>
		<time>2011-09-11T12:08:15.962Z</time>
		<geoidheight>347</geoidheight>
	</trkpt>
	<trkpt lat="50.660619" lon="6.206255">
		<ele>393</ele>
		<time>2011-09-11T12:08:16.961Z</time>
		<geoidheight>347</geoidheight>
	</trkpt>
	<trkpt lat="50.660625" lon="6.206231">
		<ele>392</ele>
		<time>2011-09-11T12:08:17.962Z</time>
		<geoidheight>346</geoidheight>
	</trkpt>
	<trkpt lat="50.660631" lon="6.206209">
		<ele>392</ele>
		<time>2011-09-11T12:08:18.961Z</time>
		<geoidheight>346</geoidheight>
	</trkpt>
	<trkpt lat="50.660637" lon="6.206191">
		<ele>392</ele>
		<time>2011-09-11T12:08:19.962Z</time>
		<geoidheight>346</geoidheight>
	</trkpt>
	<trkpt lat="50.660640" lon="6.206175">
		<ele>392</ele>
		<time>2011-09-11T12:08:20.966Z</time>
		<geoidheight>346</geoidheight>
	</trkpt>
	<trkpt lat="50.660642" lon="6.206158">
		<ele>392</ele>
		<time>2011-09-11T12:08:21.961Z</time>
		<geoidheight>346</geoidheight>
	</trkpt>
	<trkpt lat="50.660638" lon="6.206137">
		<ele>391</ele>
		<time>2011-09-11T12:08:22.958Z</time>
		<geoidheight>345</geoidheight>
	</trkpt>
	<trkpt lat="50.660628" lon="6.206112">
		<ele>391</ele>
		<time>2011-09-11T12:08:23.962Z</time>
		<geoidheight>345</geoidheight>
	</trkpt>
	<trkpt lat="50.660620" lon="6.206088">
		<ele>391</ele>
		<time>2011-09-11T12:08:24.964Z</time>
		<geoidheight>345</geoidheight>
	</trkpt>
	<trkpt lat="50.660617" lon="6.206064">
		<ele>391</ele>
		<time>2011-09-11T12:08:25.961Z</time>
		<geoidheight>345</geoidheight>
	</trkpt>
	<trkpt lat="50.660613" lon="6.206041">
		<ele>391</ele>
		<time>2011-09-11T12:08:26.961Z</time>
		<geoidheight>345</geoidheight>
	</trkpt>
	<trkpt lat="50.660611" lon="6.206019">
		<ele>391</ele>
		<time>2011-09-11T12:08:27.959Z</time>
		<geoidheight>345</geoidheight>
	</trkpt>
	<trkpt lat="50.660614" lon="6.206002">
		<ele>391</ele>
		<time>2011-09-11T12:08:28.959Z</time>
		<geoidheight>345</geoidheight>
	</trkpt>
	<trkpt lat="50.660614" lon="6.205982">
		<ele>391</ele>
		<time>2011-09-11T12:08:29.959Z</time>
		<geoidheight>345</geoidheight>
	</trkpt>
	<trkpt lat="50.660621" lon="6.205963">
		<ele>391</ele>
		<time>2011-09-11T12:08:30.959Z</time>
		<geoidheight>345</geoidheight>
	</trkpt>
	<trkpt lat="50.660627" lon="6.205937">
		<ele>390</ele>
		<time>2011-09-11T12:08:31.959Z</time>
		<geoidheight>344</geoidheight>
	</trkpt>
	<trkpt lat="50.660629" lon="6.205905">
		<ele>390</ele>
		<time>2011-09-11T12:08:32.963Z</time>
		<geoidheight>344</geoidheight>
	</trkpt>
	<trkpt lat="50.660631" lon="6.205879">
		<ele>390</ele>
		<time>2011-09-11T12:08:33.962Z</time>
		<geoidheight>344</geoidheight>
	</trkpt>
	<trkpt lat="50.660630" lon="6.205850">
		<ele>390</ele>
		<time>2011-09-11T12:08:34.959Z</time>
		<geoidheight>344</geoidheight>
	</trkpt>
	<trkpt lat="50.660630" lon="6.205832">
		<ele>390</ele>
		<time>2011-09-11T12:08:35.964Z</time>
		<geoidheight>344</geoidheight>
	</trkpt>
	<trkpt lat="50.660631" lon="6.205812">
		<ele>390</ele>
		<time>2011-09-11T12:08:36.960Z</time>
		<geoidheight>344</geoidheight>
	</trkpt>
	<trkpt lat="50.660631" lon="6.205796">
		<ele>390</ele>
		<time>2011-09-11T12:08:37.961Z</time>
		<geoidheight>344</geoidheight>
	</trkpt>
	<trkpt lat="50.660634" lon="6.205782">
		<ele>390</ele>
		<time>2011-09-11T12:08:38.959Z</time>
		<geoidheight>344</geoidheight>
	</trkpt>
	<trkpt lat="50.660632" lon="6.205767">
		<ele>390</ele>
		<time>2011-09-11T12:08:39.960Z</time>
		<geoidheight>344</geoidheight>
	</trkpt>
	<trkpt lat="50.660630" lon="6.205752">
		<ele>390</ele>
		<time>2011-09-11T12:08:40.958Z</time>
		<geoidheight>344</geoidheight>
	</trkpt>
	<trkpt lat="50.660628" lon="6.205739">
		<ele>390</ele>
		<time>2011-09-11T12:08:41.960Z</time>
		<geoidheight>344</geoidheight>
	</trkpt>
	<trkpt lat="50.660622" lon="6.205726">
		<ele>390</ele>
		<time>2011-09-11T12:08:42.961Z</time>
		<geoidheight>344</geoidheight>
	</trkpt>
	<trkpt lat="50.660614" lon="6.205716">
		<ele>390</ele>
		<time>2011-09-11T12:08:43.960Z</time>
		<geoidheight>344</geoidheight>
	</trkpt>
	<trkpt lat="50.660607" lon="6.205704">
		<ele>390</ele>
		<time>2011-09-11T12:08:44.959Z</time>
		<geoidheight>344</geoidheight>
	</trkpt>
	<trkpt lat="50.660600" lon="6.205690">
		<ele>390</ele>
		<time>2011-09-11T12:08:45.961Z</time>
		<geoidheight>344</geoidheight>
	</trkpt>
	<trkpt lat="50.660593" lon="6.205675">
		<ele>390</ele>
		<time>2011-09-11T12:08:46.959Z</time>
		<geoidheight>344</geoidheight>
	</trkpt>
	<trkpt lat="50.660587" lon="6.205660">
		<ele>390</ele>
		<time>2011-09-11T12:08:47.961Z</time>
		<geoidheight>344</geoidheight>
	</trkpt>
	<trkpt lat="50.660580" lon="6.205645">
		<ele>389</ele>
		<time>2011-09-11T12:08:48.961Z</time>
		<geoidheight>343</geoidheight>
	</trkpt>
	<trkpt lat="50.660576" lon="6.205631">
		<ele>389</ele>
		<time>2011-09-11T12:08:49.960Z</time>
		<geoidheight>343</geoidheight>
	</trkpt>
	<trkpt lat="50.660570" lon="6.205622">
		<ele>389</ele>
		<time>2011-09-11T12:08:50.959Z</time>
		<geoidheight>343</geoidheight>
	</trkpt>
	<trkpt lat="50.660569" lon="6.205612">
		<ele>389</ele>
		<time>2011-09-11T12:08:51.960Z</time>
		<geoidheight>343</geoidheight>
	</trkpt>
	<trkpt lat="50.660568" lon="6.205605">
		<ele>389</ele>
		<time>2011-09-11T12:08:52.959Z</time>
		<geoidheight>343</geoidheight>
	</trkpt>
	<trkpt lat="50.660565" lon="6.205600">
		<ele>389</ele>
		<time>2011-09-11T12:08:53.959Z</time>
		<geoidheight>343</geoidheight>
	</trkpt>
	<trkpt lat="50.660561" lon="6.205592">
		<ele>389</ele>
		<time>2011-09-11T12:08:54.960Z</time>
		<geoidheight>343</geoidheight>
	</trkpt>
	<trkpt lat="50.660555" lon="6.205588">
		<ele>389</ele>
		<time>2011-09-11T12:08:55.959Z</time>
		<geoidheight>343</geoidheight>
	</trkpt>
	<trkpt lat="50.660548" lon="6.205590">
		<ele>389</ele>
		<time>2011-09-11T12:08:57.961Z</time>
		<geoidheight>343</geoidheight>
	</trkpt>
	<trkpt lat="50.660543" lon="6.205592">
		<ele>389</ele>
		<time>2011-09-11T12:08:58.959Z</time>
		<geoidheight>343</geoidheight>
	</trkpt>
	<trkpt lat="50.660537" lon="6.205595">
		<ele>389</ele>
		<time>2011-09-11T12:08:59.959Z</time>
		<geoidheight>343</geoidheight>
	</trkpt>
	<trkpt lat="50.660532" lon="6.205597">
		<ele>389</ele>
		<time>2011-09-11T12:09:00.959Z</time>
		<geoidheight>343</geoidheight>
	</trkpt>
	<trkpt lat="50.660526" lon="6.205599">
		<ele>389</ele>
		<time>2011-09-11T12:09:01.960Z</time>
		<geoidheight>343</geoidheight>
	</trkpt>
	<trkpt lat="50.660520" lon="6.205601">
		<ele>389</ele>
		<time>2011-09-11T12:09:02.960Z</time>
		<geoidheight>343</geoidheight>
	</trkpt>
	<trkpt lat="50.660512" lon="6.205596">
		<ele>388</ele>
		<time>2011-09-11T12:09:03.962Z</time>
		<geoidheight>342</geoidheight>
	</trkpt>
	<trkpt lat="50.660505" lon="6.205587">
		<ele>388</ele>
		<time>2011-09-11T12:09:04.961Z</time>
		<geoidheight>342</geoidheight>
	</trkpt>
	<trkpt lat="50.660496" lon="6.205572">
		<ele>388</ele>
		<time>2011-09-11T12:09:05.959Z</time>
		<geoidheight>342</geoidheight>
	</trkpt>
	<trkpt lat="50.660489" lon="6.205560">
		<ele>388</ele>
		<time>2011-09-11T12:09:06.962Z</time>
		<geoidheight>342</geoidheight>
	</trkpt>
	<trkpt lat="50.660484" lon="6.205547">
		<ele>388</ele>
		<time>2011-09-11T12:09:07.961Z</time>
		<geoidheight>342</geoidheight>
	</trkpt>
	<trkpt lat="50.660480" lon="6.205530">
		<ele>388</ele>
		<time>2011-09-11T12:09:08.959Z</time>
		<geoidheight>342</geoidheight>
	</trkpt>
	<trkpt lat="50.660471" lon="6.205518">
		<ele>388</ele>
		<time>2011-09-11T12:09:09.959Z</time>
		<geoidheight>342</geoidheight>
	</trkpt>
	<trkpt lat="50.660463" lon="6.205503">
		<ele>388</ele>
		<time>2011-09-11T12:09:10.960Z</time>
		<geoidheight>342</geoidheight>
	</trkpt>
	<trkpt lat="50.660454" lon="6.205493">
		<ele>388</ele>
		<time>2011-09-11T12:09:11.959Z</time>
		<geoidheight>342</geoidheight>
	</trkpt>
	<trkpt lat="50.660443" lon="6.205484">
		<ele>388</ele>
		<time>2011-09-11T12:09:12.960Z</time>
		<geoidheight>342</geoidheight>
	</trkpt>
	<trkpt lat="50.660431" lon="6.205479">
		<ele>388</ele>
		<time>2011-09-11T12:09:13.961Z</time>
		<geoidheight>342</geoidheight>
	</trkpt>
	<trkpt lat="50.660418" lon="6.205476">
		<ele>388</ele>
		<time>2011-09-11T12:09:14.959Z</time>
		<geoidheight>342</geoidheight>
	</trkpt>
	<trkpt lat="50.660406" lon="6.205472">
		<ele>387</ele>
		<time>2011-09-11T12:09:15.959Z</time>
		<geoidheight>341</geoidheight>
	</trkpt>
	<trkpt lat="50.660393" lon="6.205467">
		<ele>387</ele>
		<time>2011-09-11T12:09:16.961Z</time>
		<geoidheight>341</geoidheight>
	</trkpt>
	<trkpt lat="50.660381" lon="6.205462">
		<ele>387</ele>
		<time>2011-09-11T12:09:17.958Z</time>
		<geoidheight>341</geoidheight>
	</trkpt>
	<trkpt lat="50.660367" lon="6.205457">
		<ele>387</ele>
		<time>2011-09-11T12:09:18.959Z</time>
		<geoidheight>341</geoidheight>
	</trkpt>
	<trkpt lat="50.660355" lon="6.205448">
		<ele>387</ele>
		<time>2011-09-11T12:09:19.964Z</time>
		<geoidheight>341</geoidheight>
	</trkpt>
	<trkpt lat="50.660342" lon="6.205438">
		<ele>387</ele>
		<time>2011-09-11T12:09:20.961Z</time>
		<geoidheight>341</geoidheight>
	</trkpt>
	<trkpt lat="50.660330" lon="6.205431">
		<ele>387</ele>
		<time>2011-09-11T12:09:21.960Z</time>
		<geoidheight>341</geoidheight>
	</trkpt>
	<trkpt lat="50.660319" lon="6.205419">
		<ele>387</ele>
		<time>2011-09-11T12:09:22.964Z</time>
		<geoidheight>341</geoidheight>
	</trkpt>
	<trkpt lat="50.660306" lon="6.205410">
		<ele>387</ele>
		<time>2011-09-11T12:09:23.959Z</time>
		<geoidheight>341</geoidheight>
	</trkpt>
	<trkpt lat="50.660294" lon="6.205403">
		<ele>387</ele>
		<time>2011-09-11T12:09:24.959Z</time>
		<geoidheight>341</geoidheight>
	</trkpt>
	<trkpt lat="50.660282" lon="6.205395">
		<ele>387</ele>
		<time>2011-09-11T12:09:25.961Z</time>
		<geoidheight>341</geoidheight>
	</trkpt>
	<trkpt lat="50.660270" lon="6.205388">
		<ele>387</ele>
		<time>2011-09-11T12:09:26.960Z</time>
		<geoidheight>341</geoidheight>
	</trkpt>
	<trkpt lat="50.660255" lon="6.205383">
		<ele>386</ele>
		<time>2011-09-11T12:09:27.959Z</time>
		<geoidheight>340</geoidheight>
	</trkpt>
	<trkpt lat="50.660241" lon="6.205378">
		<ele>386</ele>
		<time>2011-09-11T12:09:28.964Z</time>
		<geoidheight>340</geoidheight>
	</trkpt>
	<trkpt lat="50.660228" lon="6.205376">
		<ele>386</ele>
		<time>2011-09-11T12:09:29.962Z</time>
		<geoidheight>340</geoidheight>
	</trkpt>
	<trkpt lat="50.660217" lon="6.205376">
		<ele>386</ele>
		<time>2011-09-11T12:09:30.959Z</time>
		<geoidheight>340</geoidheight>
	</trkpt>
	<trkpt lat="50.660200" lon="6.205370">
		<ele>386</ele>
		<time>2011-09-11T12:09:31.962Z</time>
		<geoidheight>340</geoidheight>
	</trkpt>
	<trkpt lat="50.660188" lon="6.205368">
		<ele>386</ele>
		<time>2011-09-11T12:09:32.961Z</time>
		<geoidheight>340</geoidheight>
	</trkpt>
	<trkpt lat="50.660178" lon="6.205365">
		<ele>386</ele>
		<time>2011-09-11T12:09:33.959Z</time>
		<geoidheight>340</geoidheight>
	</trkpt>
	<trkpt lat="50.660170" lon="6.205373">
		<ele>386</ele>
		<time>2011-09-11T12:09:34.959Z</time>
		<geoidheight>340</geoidheight>
	</trkpt>
	<trkpt lat="50.660162" lon="6.205379">
		<ele>386</ele>
		<time>2011-09-11T12:09:35.961Z</time>
		<geoidheight>340</geoidheight>
	</trkpt>
	<trkpt lat="50.660149" lon="6.205392">
		<ele>385</ele>
		<time>2011-09-11T12:09:36.958Z</time>
		<geoidheight>339</geoidheight>
	</trkpt>
	<trkpt lat="50.660136" lon="6.205407">
		<ele>385</ele>
		<time>2011-09-11T12:09:37.968Z</time>
		<geoidheight>339</geoidheight>
	</trkpt>
	<trkpt lat="50.660124" lon="6.205414">
		<ele>385</ele>
		<time>2011-09-11T12:09:38.962Z</time>
		<geoidheight>339</geoidheight>
	</trkpt>
	<trkpt lat="50.660114" lon="6.205425">
		<ele>385</ele>
		<time>2011-09-11T12:09:39.960Z</time>
		<geoidheight>339</geoidheight>
	</trkpt>
	<trkpt lat="50.660104" lon="6.205433">
		<ele>385</ele>
		<time>2011-09-11T12:09:40.961Z</time>
		<geoidheight>339</geoidheight>
	</trkpt>
	<trkpt lat="50.660096" lon="6.205439">
		<ele>385</ele>
		<time>2011-09-11T12:09:41.961Z</time>
		<geoidheight>339</geoidheight>
	</trkpt>
	<trkpt lat="50.660085" lon="6.205441">
		<ele>385</ele>
		<time>2011-09-11T12:09:42.964Z</time>
		<geoidheight>339</geoidheight>
	</trkpt>
	<trkpt lat="50.660075" lon="6.205441">
		<ele>384</ele>
		<time>2011-09-11T12:09:43.960Z</time>
		<geoidheight>338</geoidheight>
	</trkpt>
	<trkpt lat="50.660064" lon="6.205436">
		<ele>384</ele>
		<time>2011-09-11T12:09:44.963Z</time>
		<geoidheight>338</geoidheight>
	</trkpt>
	<trkpt lat="50.660053" lon="6.205432">
		<ele>384</ele>
		<time>2011-09-11T12:09:45.959Z</time>
		<geoidheight>338</geoidheight>
	</trkpt>
	<trkpt lat="50.660041" lon="6.205431">
		<ele>384</ele>
		<time>2011-09-11T12:09:46.964Z</time>
		<geoidheight>338</geoidheight>
	</trkpt>
	<trkpt lat="50.660028" lon="6.205429">
		<ele>384</ele>
		<time>2011-09-11T12:09:47.962Z</time>
		<geoidheight>338</geoidheight>
	</trkpt>
	<trkpt lat="50.660009" lon="6.205420">
		<ele>384</ele>
		<time>2011-09-11T12:09:48.962Z</time>
		<geoidheight>338</geoidheight>
	</trkpt>
	<trkpt lat="50.659992" lon="6.205415">
		<ele>383</ele>
		<time>2011-09-11T12:09:49.963Z</time>
		<geoidheight>337</geoidheight>
	</trkpt>
	<trkpt lat="50.659971" lon="6.205407">
		<ele>383</ele>
		<time>2011-09-11T12:09:50.963Z</time>
		<geoidheight>337</geoidheight>
	</trkpt>
	<trkpt lat="50.659950" lon="6.205392">
		<ele>383</ele>
		<time>2011-09-11T12:09:51.960Z</time>
		<geoidheight>337</geoidheight>
	</trkpt>
	<trkpt lat="50.659929" lon="6.205376">
		<ele>383</ele>
		<time>2011-09-11T12:09:52.961Z</time>
		<geoidheight>337</geoidheight>
	</trkpt>
	<trkpt lat="50.659908" lon="6.205359">
		<ele>383</ele>
		<time>2011-09-11T12:09:53.966Z</time>
		<geoidheight>337</geoidheight>
	</trkpt>
	<trkpt lat="50.659889" lon="6.205346">
		<ele>382</ele>
		<time>2011-09-11T12:09:54.966Z</time>
		<geoidheight>336</geoidheight>
	</trkpt>
	<trkpt lat="50.659873" lon="6.205339">
		<ele>382</ele>
		<time>2011-09-11T12:09:55.968Z</time>
		<geoidheight>336</geoidheight>
	</trkpt>
	<trkpt lat="50.659855" lon="6.205336">
		<ele>382</ele>
		<time>2011-09-11T12:09:56.969Z</time>
		<geoidheight>336</geoidheight>
	</trkpt>
	<trkpt lat="50.659838" lon="6.205336">
		<ele>382</ele>
		<time>2011-09-11T12:09:57.964Z</time>
		<geoidheight>336</geoidheight>
	</trkpt>
	<trkpt lat="50.659825" lon="6.205338">
		<ele>382</ele>
		<time>2011-09-11T12:09:58.968Z</time>
		<geoidheight>336</geoidheight>
	</trkpt>
	<trkpt lat="50.659814" lon="6.205342">
		<ele>382</ele>
		<time>2011-09-11T12:09:59.965Z</time>
		<geoidheight>336</geoidheight>
	</trkpt>
	<trkpt lat="50.659802" lon="6.205348">
		<ele>381</ele>
		<time>2011-09-11T12:10:00.962Z</time>
		<geoidheight>335</geoidheight>
	</trkpt>
	<trkpt lat="50.659792" lon="6.205354">
		<ele>381</ele>
		<time>2011-09-11T12:10:01.964Z</time>
		<geoidheight>335</geoidheight>
	</trkpt>
	<trkpt lat="50.659780" lon="6.205361">
		<ele>381</ele>
		<time>2011-09-11T12:10:02.968Z</time>
		<geoidheight>335</geoidheight>
	</trkpt>
	<trkpt lat="50.659771" lon="6.205371">
		<ele>381</ele>
		<time>2011-09-11T12:10:03.967Z</time>
		<geoidheight>335</geoidheight>
	</trkpt>
	<trkpt lat="50.659763" lon="6.205383">
		<ele>381</ele>
		<time>2011-09-11T12:10:04.972Z</time>
		<geoidheight>335</geoidheight>
	</trkpt>
	<trkpt lat="50.659755" lon="6.205391">
		<ele>381</ele>
		<time>2011-09-11T12:10:05.969Z</time>
		<geoidheight>335</geoidheight>
	</trkpt>
	<trkpt lat="50.659747" lon="6.205396">
		<ele>381</ele>
		<time>2011-09-11T12:10:06.968Z</time>
		<geoidheight>335</geoidheight>
	</trkpt>
	<trkpt lat="50.659738" lon="6.205404">
		<ele>380</ele>
		<time>2011-09-11T12:10:07.962Z</time>
		<geoidheight>334</geoidheight>
	</trkpt>
	<trkpt lat="50.659730" lon="6.205410">
		<ele>380</ele>
		<time>2011-09-11T12:10:08.967Z</time>
		<geoidheight>334</geoidheight>
	</trkpt>
	<trkpt lat="50.659723" lon="6.205405">
		<ele>380</ele>
		<time>2011-09-11T12:10:10.967Z</time>
		<geoidheight>334</geoidheight>
	</trkpt>
	<trkpt lat="50.659719" lon="6.205398">
		<ele>380</ele>
		<time>2011-09-11T12:10:11.967Z</time>
		<geoidheight>334</geoidheight>
	</trkpt>
	<trkpt lat="50.659714" lon="6.205390">
		<ele>380</ele>
		<time>2011-09-11T12:10:12.969Z</time>
		<geoidheight>334</geoidheight>
	</trkpt>
	<trkpt lat="50.659707" lon="6.205389">
		<ele>380</ele>
		<time>2011-09-11T12:10:13.968Z</time>
		<geoidheight>334</geoidheight>
	</trkpt>
	<trkpt lat="50.659697" lon="6.205390">
		<ele>380</ele>
		<time>2011-09-11T12:10:14.970Z</time>
		<geoidheight>334</geoidheight>
	</trkpt>
	<trkpt lat="50.659689" lon="6.205386">
		<ele>380</ele>
		<time>2011-09-11T12:10:15.968Z</time>
		<geoidheight>334</geoidheight>
	</trkpt>
	<trkpt lat="50.659678" lon="6.205386">
		<ele>380</ele>
		<time>2011-09-11T12:10:16.970Z</time>
		<geoidheight>334</geoidheight>
	</trkpt>
	<trkpt lat="50.659665" lon="6.205388">
		<ele>380</ele>
		<time>2011-09-11T12:10:17.966Z</time>
		<geoidheight>334</geoidheight>
	</trkpt>
	<trkpt lat="50.659650" lon="6.205389">
		<ele>380</ele>
		<time>2011-09-11T12:10:18.967Z</time>
		<geoidheight>334</geoidheight>
	</trkpt>
	<trkpt lat="50.659638" lon="6.205387">
		<ele>380</ele>
		<time>2011-09-11T12:10:19.962Z</time>
		<geoidheight>334</geoidheight>
	</trkpt>
	<trkpt lat="50.659628" lon="6.205384">
		<ele>380</ele>
		<time>2011-09-11T12:10:20.962Z</time>
		<geoidheight>334</geoidheight>
	</trkpt>
	<trkpt lat="50.659619" lon="6.205383">
		<ele>380</ele>
		<time>2011-09-11T12:10:21.971Z</time>
		<geoidheight>334</geoidheight>
	</trkpt>
	<trkpt lat="50.659611" lon="6.205378">
		<ele>380</ele>
		<time>2011-09-11T12:10:22.960Z</time>
		<geoidheight>334</geoidheight>
	</trkpt>
	<trkpt lat="50.659607" lon="6.205370">
		<ele>380</ele>
		<time>2011-09-11T12:10:23.961Z</time>
		<geoidheight>334</geoidheight>
	</trkpt>
	<trkpt lat="50.659603" lon="6.205360">
		<ele>380</ele>
		<time>2011-09-11T12:10:24.963Z</time>
		<geoidheight>334</geoidheight>
	</trkpt>
	<trkpt lat="50.659595" lon="6.205350">
		<ele>380</ele>
		<time>2011-09-11T12:10:25.960Z</time>
		<geoidheight>334</geoidheight>
	</trkpt>
	<trkpt lat="50.659585" lon="6.205341">
		<ele>380</ele>
		<time>2011-09-11T12:10:26.960Z</time>
		<geoidheight>334</geoidheight>
	</trkpt>
	<trkpt lat="50.659575" lon="6.205332">
		<ele>380</ele>
		<time>2011-09-11T12:10:27.964Z</time>
		<geoidheight>334</geoidheight>
	</trkpt>
	<trkpt lat="50.659564" lon="6.205320">
		<ele>380</ele>
		<time>2011-09-11T12:10:28.962Z</time>
		<geoidheight>334</geoidheight>
	</trkpt>
	<trkpt lat="50.659553" lon="6.205308">
		<ele>380</ele>
		<time>2011-09-11T12:10:29.966Z</time>
		<geoidheight>334</geoidheight>
	</trkpt>
	<trkpt lat="50.659541" lon="6.205296">
		<ele>380</ele>
		<time>2011-09-11T12:10:30.966Z</time>
		<geoidheight>334</geoidheight>
	</trkpt>
	<trkpt lat="50.659531" lon="6.205281">
		<ele>380</ele>
		<time>2011-09-11T12:10:31.967Z</time>
		<geoidheight>334</geoidheight>
	</trkpt>
	<trkpt lat="50.659519" lon="6.205268">
		<ele>380</ele>
		<time>2011-09-11T12:10:32.974Z</time>
		<geoidheight>334</geoidheight>
	</trkpt>
	<trkpt lat="50.659509" lon="6.205255">
		<ele>380</ele>
		<time>2011-09-11T12:10:33.975Z</time>
		<geoidheight>334</geoidheight>
	</trkpt>
	<trkpt lat="50.659501" lon="6.205238">
		<ele>380</ele>
		<time>2011-09-11T12:10:34.976Z</time>
		<geoidheight>334</geoidheight>
	</trkpt>
	<trkpt lat="50.659494" lon="6.205220">
		<ele>380</ele>
		<time>2011-09-11T12:10:35.971Z</time>
		<geoidheight>334</geoidheight>
	</trkpt>
	<trkpt lat="50.659487" lon="6.205203">
		<ele>380</ele>
		<time>2011-09-11T12:10:36.969Z</time>
		<geoidheight>334</geoidheight>
	</trkpt>
	<trkpt lat="50.659480" lon="6.205187">
		<ele>380</ele>
		<time>2011-09-11T12:10:37.971Z</time>
		<geoidheight>334</geoidheight>
	</trkpt>
	<trkpt lat="50.659471" lon="6.205173">
		<ele>380</ele>
		<time>2011-09-11T12:10:38.975Z</time>
		<geoidheight>334</geoidheight>
	</trkpt>
	<trkpt lat="50.659460" lon="6.205164">
		<ele>380</ele>
		<time>2011-09-11T12:10:39.986Z</time>
		<geoidheight>334</geoidheight>
	</trkpt>
	<trkpt lat="50.659450" lon="6.205153">
		<ele>380</ele>
		<time>2011-09-11T12:10:40.982Z</time>
		<geoidheight>334</geoidheight>
	</trkpt>
	<trkpt lat="50.659439" lon="6.205148">
		<ele>380</ele>
		<time>2011-09-11T12:10:41.980Z</time>
		<geoidheight>334</geoidheight>
	</trkpt>
	<trkpt lat="50.659428" lon="6.205150">
		<ele>380</ele>
		<time>2011-09-11T12:10:42.986Z</time>
		<geoidheight>334</geoidheight>
	</trkpt>
	<trkpt lat="50.659428" lon="6.205150">
		<ele>380</ele>
		<time>2011-09-11T12:10:44.980Z</time>
		<geoidheight>334</geoidheight>
	</trkpt>
	<trkpt lat="50.659378" lon="6.205215">
		<ele>380</ele>
		<time>2011-09-11T12:10:45.989Z</time>
		<geoidheight>334</geoidheight>
	</trkpt>
	<trkpt lat="50.659378" lon="6.205215">
		<ele>380</ele>
		<time>2011-09-11T12:10:46.978Z</time>
		<geoidheight>334</geoidheight>
	</trkpt>
	<trkpt lat="50.659352" lon="6.205287">
		<ele>380</ele>
		<time>2011-09-11T12:10:47.974Z</time>
		<geoidheight>334</geoidheight>
	</trkpt>
	<trkpt lat="50.659352" lon="6.205287">
		<ele>380</ele>
		<time>2011-09-11T12:10:49.975Z</time>
		<geoidheight>334</geoidheight>
	</trkpt>
	<trkpt lat="50.659320" lon="6.205338">
		<ele>380</ele>
		<time>2011-09-11T12:10:50.975Z</time>
		<geoidheight>334</geoidheight>
	</trkpt>
	<trkpt lat="50.659320" lon="6.205338">
		<ele>380</ele>
		<time>2011-09-11T12:10:52.968Z</time>
		<geoidheight>334</geoidheight>
	</trkpt>
	<trkpt lat="50.659269" lon="6.205318">
		<ele>380</ele>
		<time>2011-09-11T12:10:53.974Z</time>
		<geoidheight>334</geoidheight>
	</trkpt>
	<trkpt lat="50.659269" lon="6.205318">
		<ele>380</ele>
		<time>2011-09-11T12:10:55.972Z</time>
		<geoidheight>334</geoidheight>
	</trkpt>
	<trkpt lat="50.659225" lon="6.205266">
		<ele>380</ele>
		<time>2011-09-11T12:10:56.975Z</time>
		<geoidheight>334</geoidheight>
	</trkpt>
	<trkpt lat="50.659225" lon="6.205266">
		<ele>380</ele>
		<time>2011-09-11T12:10:59.980Z</time>
		<geoidheight>334</geoidheight>
	</trkpt>
	<trkpt lat="50.659180" lon="6.205246">
		<ele>380</ele>
		<time>2011-09-11T12:11:00.961Z</time>
		<geoidheight>334</geoidheight>
	</trkpt>
	<trkpt lat="50.659180" lon="6.205246">
		<ele>380</ele>
		<time>2011-09-11T12:11:04.960Z</time>
		<geoidheight>334</geoidheight>
	</trkpt>
	<trkpt lat="50.659135" lon="6.205277">
		<ele>380</ele>
		<time>2011-09-11T12:11:05.960Z</time>
		<geoidheight>334</geoidheight>
	</trkpt>
	<trkpt lat="50.659135" lon="6.205277">
		<ele>380</ele>
		<time>2011-09-11T12:11:09.961Z</time>
		<geoidheight>334</geoidheight>
	</trkpt>
	<trkpt lat="50.659119" lon="6.205240">
		<ele>380</ele>
		<time>2011-09-11T12:11:10.960Z</time>
		<geoidheight>334</geoidheight>
	</trkpt>
	<trkpt lat="50.659122" lon="6.205229">
		<ele>380</ele>
		<time>2011-09-11T12:11:12.962Z</time>
		<geoidheight>334</geoidheight>
	</trkpt>
	<trkpt lat="50.659123" lon="6.205221">
		<ele>380</ele>
		<time>2011-09-11T12:11:13.960Z</time>
		<geoidheight>334</geoidheight>
	</trkpt>
	<trkpt lat="50.659131" lon="6.205211">
		<ele>379</ele>
		<time>2011-09-11T12:11:14.962Z</time>
		<geoidheight>333</geoidheight>
	</trkpt>
	<trkpt lat="50.659143" lon="6.205201">
		<ele>379</ele>
		<time>2011-09-11T12:11:15.960Z</time>
		<geoidheight>333</geoidheight>
	</trkpt>
	<trkpt lat="50.659156" lon="6.205190">
		<ele>379</ele>
		<time>2011-09-11T12:11:16.960Z</time>
		<geoidheight>333</geoidheight>
	</trkpt>
	<trkpt lat="50.659169" lon="6.205177">
		<ele>379</ele>
		<time>2011-09-11T12:11:17.961Z</time>
		<geoidheight>333</geoidheight>
	</trkpt>
	<trkpt lat="50.659178" lon="6.205161">
		<ele>378</ele>
		<time>2011-09-11T12:11:18.960Z</time>
		<geoidheight>332</geoidheight>
	</trkpt>
	<trkpt lat="50.659184" lon="6.205147">
		<ele>378</ele>
		<time>2011-09-11T12:11:19.961Z</time>
		<geoidheight>332</geoidheight>
	</trkpt>
	<trkpt lat="50.659184" lon="6.205147">
		<ele>377</ele>
		<time>2011-09-11T12:11:47.960Z</time>
		<geoidheight>331</geoidheight>
	</trkpt>
	<trkpt lat="50.659225" lon="6.205132">
		<ele>376</ele>
		<time>2011-09-11T12:11:48.961Z</time>
		<geoidheight>330</geoidheight>
	</trkpt>
	<trkpt lat="50.659225" lon="6.205132">
		<ele>376</ele>
		<time>2011-09-11T12:11:54.965Z</time>
		<geoidheight>330</geoidheight>
	</trkpt>
	<trkpt lat="50.659243" lon="6.205053">
		<ele>376</ele>
		<time>2011-09-11T12:11:55.967Z</time>
		<geoidheight>330</geoidheight>
	</trkpt>
	<trkpt lat="50.659243" lon="6.205053">
		<ele>376</ele>
		<time>2011-09-11T12:12:48.962Z</time>
		<geoidheight>330</geoidheight>
	</trkpt>
	<trkpt lat="50.659257" lon="6.204986">
		<ele>376</ele>
		<time>2011-09-11T12:12:49.959Z</time>
		<geoidheight>330</geoidheight>
	</trkpt>
	<trkpt lat="50.659257" lon="6.204986">
		<ele>376</ele>
		<time>2011-09-11T12:13:14.964Z</time>
		<geoidheight>330</geoidheight>
	</trkpt>
	<trkpt lat="50.659212" lon="6.204953">
		<ele>376</ele>
		<time>2011-09-11T12:13:15.963Z</time>
		<geoidheight>330</geoidheight>
	</trkpt>
	<trkpt lat="50.659212" lon="6.204953">
		<ele>376</ele>
		<time>2011-09-11T12:13:25.964Z</time>
		<geoidheight>330</geoidheight>
	</trkpt>
	<trkpt lat="50.659172" lon="6.204919">
		<ele>376</ele>
		<time>2011-09-11T12:13:26.960Z</time>
		<geoidheight>330</geoidheight>
	</trkpt>
	<trkpt lat="50.659172" lon="6.204919">
		<ele>376</ele>
		<time>2011-09-11T12:13:35.963Z</time>
		<geoidheight>330</geoidheight>
	</trkpt>
	<trkpt lat="50.659121" lon="6.204893">
		<ele>375</ele>
		<time>2011-09-11T12:13:36.961Z</time>
		<geoidheight>329</geoidheight>
	</trkpt>
	<trkpt lat="50.659121" lon="6.204893">
		<ele>375</ele>
		<time>2011-09-11T12:13:45.959Z</time>
		<geoidheight>329</geoidheight>
	</trkpt>
	<trkpt lat="50.659148" lon="6.204834">
		<ele>375</ele>
		<time>2011-09-11T12:13:46.960Z</time>
		<geoidheight>329</geoidheight>
	</trkpt>
	<trkpt lat="50.659148" lon="6.204834">
		<ele>375</ele>
		<time>2011-09-11T12:13:48.960Z</time>
		<geoidheight>329</geoidheight>
	</trkpt>
	<trkpt lat="50.659190" lon="6.204873">
		<ele>375</ele>
		<time>2011-09-11T12:13:49.960Z</time>
		<geoidheight>329</geoidheight>
	</trkpt>
	<trkpt lat="50.659190" lon="6.204873">
		<ele>375</ele>
		<time>2011-09-11T12:13:53.963Z</time>
		<geoidheight>329</geoidheight>
	</trkpt>
	<trkpt lat="50.659213" lon="6.204941">
		<ele>375</ele>
		<time>2011-09-11T12:13:54.963Z</time>
		<geoidheight>329</geoidheight>
	</trkpt>
	<trkpt lat="50.659213" lon="6.204941">
		<ele>374</ele>
		<time>2011-09-11T12:14:02.961Z</time>
		<geoidheight>328</geoidheight>
	</trkpt>
	<trkpt lat="50.659212" lon="6.205012">
		<ele>374</ele>
		<time>2011-09-11T12:14:03.959Z</time>
		<geoidheight>328</geoidheight>
	</trkpt>
	<trkpt lat="50.659212" lon="6.205012">
		<ele>374</ele>
		<time>2011-09-11T12:14:07.961Z</time>
		<geoidheight>328</geoidheight>
	</trkpt>
	<trkpt lat="50.659208" lon="6.204995">
		<ele>374</ele>
		<time>2011-09-11T12:14:08.961Z</time>
		<geoidheight>328</geoidheight>
	</trkpt>
	<trkpt lat="50.659208" lon="6.204995">
		<ele>374</ele>
		<time>2011-09-11T12:14:09.961Z</time>
		<geoidheight>328</geoidheight>
	</trkpt>
	<trkpt lat="50.659203" lon="6.204974">
		<ele>374</ele>
		<time>2011-09-11T12:14:10.961Z</time>
		<geoidheight>328</geoidheight>
	</trkpt>
	<trkpt lat="50.659200" lon="6.204963">
		<ele>374</ele>
		<time>2011-09-11T12:14:11.960Z</time>
		<geoidheight>328</geoidheight>
	</trkpt>
	<trkpt lat="50.659197" lon="6.204951">
		<ele>374</ele>
		<time>2011-09-11T12:14:12.966Z</time>
		<geoidheight>328</geoidheight>
	</trkpt>
	<trkpt lat="50.659194" lon="6.204940">
		<ele>374</ele>
		<time>2011-09-11T12:14:13.962Z</time>
		<geoidheight>328</geoidheight>
	</trkpt>
	<trkpt lat="50.659190" lon="6.204931">
		<ele>374</ele>
		<time>2011-09-11T12:14:14.961Z</time>
		<geoidheight>328</geoidheight>
	</trkpt>
	<trkpt lat="50.659187" lon="6.204923">
		<ele>374</ele>
		<time>2011-09-11T12:14:15.963Z</time>
		<geoidheight>328</geoidheight>
	</trkpt>
	<trkpt lat="50.659185" lon="6.204914">
		<ele>374</ele>
		<time>2011-09-11T12:14:16.961Z</time>
		<geoidheight>328</geoidheight>
	</trkpt>
	<trkpt lat="50.659185" lon="6.204914">
		<ele>373</ele>
		<time>2011-09-11T12:14:20.962Z</time>
		<geoidheight>327</geoidheight>
	</trkpt>
	<trkpt lat="50.659207" lon="6.204872">
		<ele>373</ele>
		<time>2011-09-11T12:14:21.965Z</time>
		<geoidheight>327</geoidheight>
	</trkpt>
	<trkpt lat="50.659216" lon="6.204860">
		<ele>373</ele>
		<time>2011-09-11T12:14:22.963Z</time>
		<geoidheight>327</geoidheight>
	</trkpt>
	<trkpt lat="50.659225" lon="6.204847">
		<ele>373</ele>
		<time>2011-09-11T12:14:23.963Z</time>
		<geoidheight>327</geoidheight>
	</trkpt>
	<trkpt lat="50.659235" lon="6.204833">
		<ele>373</ele>
		<time>2011-09-11T12:14:24.962Z</time>
		<geoidheight>327</geoidheight>
	</trkpt>
	<trkpt lat="50.659246" lon="6.204822">
		<ele>373</ele>
		<time>2011-09-11T12:14:25.962Z</time>
		<geoidheight>327</geoidheight>
	</trkpt>
	<trkpt lat="50.659257" lon="6.204812">
		<ele>373</ele>
		<time>2011-09-11T12:14:26.966Z</time>
		<geoidheight>327</geoidheight>
	</trkpt>
	<trkpt lat="50.659268" lon="6.204800">
		<ele>373</ele>
		<time>2011-09-11T12:14:27.961Z</time>
		<geoidheight>327</geoidheight>
	</trkpt>
	<trkpt lat="50.659278" lon="6.204785">
		<ele>373</ele>
		<time>2011-09-11T12:14:28.965Z</time>
		<geoidheight>327</geoidheight>
	</trkpt>
	<trkpt lat="50.659291" lon="6.204774">
		<ele>373</ele>
		<time>2011-09-11T12:14:29.961Z</time>
		<geoidheight>327</geoidheight>
	</trkpt>
	<trkpt lat="50.659305" lon="6.204763">
		<ele>373</ele>
		<time>2011-09-11T12:14:30.962Z</time>
		<geoidheight>327</geoidheight>
	</trkpt>
	<trkpt lat="50.659319" lon="6.204745">
		<ele>373</ele>
		<time>2011-09-11T12:14:31.963Z</time>
		<geoidheight>327</geoidheight>
	</trkpt>
	<trkpt lat="50.659333" lon="6.204730">
		<ele>373</ele>
		<time>2011-09-11T12:14:32.961Z</time>
		<geoidheight>327</geoidheight>
	</trkpt>
	<trkpt lat="50.659347" lon="6.204719">
		<ele>373</ele>
		<time>2011-09-11T12:14:33.974Z</time>
		<geoidheight>327</geoidheight>
	</trkpt>
	<trkpt lat="50.659361" lon="6.204709">
		<ele>373</ele>
		<time>2011-09-11T12:14:34.964Z</time>
		<geoidheight>327</geoidheight>
	</trkpt>
	<trkpt lat="50.659374" lon="6.204697">
		<ele>373</ele>
		<time>2011-09-11T12:14:35.962Z</time>
		<geoidheight>327</geoidheight>
	</trkpt>
	<trkpt lat="50.659383" lon="6.204687">
		<ele>373</ele>
		<time>2011-09-11T12:14:36.967Z</time>
		<geoidheight>327</geoidheight>
	</trkpt>
	<trkpt lat="50.659393" lon="6.204679">
		<ele>373</ele>
		<time>2011-09-11T12:14:37.962Z</time>
		<geoidheight>327</geoidheight>
	</trkpt>
	<trkpt lat="50.659403" lon="6.204671">
		<ele>373</ele>
		<time>2011-09-11T12:14:38.966Z</time>
		<geoidheight>327</geoidheight>
	</trkpt>
	<trkpt lat="50.659412" lon="6.204662">
		<ele>373</ele>
		<time>2011-09-11T12:14:39.976Z</time>
		<geoidheight>327</geoidheight>
	</trkpt>
	<trkpt lat="50.659422" lon="6.204649">
		<ele>373</ele>
		<time>2011-09-11T12:14:40.980Z</time>
		<geoidheight>327</geoidheight>
	</trkpt>
	<trkpt lat="50.659431" lon="6.204632">
		<ele>373</ele>
		<time>2011-09-11T12:14:41.986Z</time>
		<geoidheight>327</geoidheight>
	</trkpt>
	<trkpt lat="50.659441" lon="6.204617">
		<ele>373</ele>
		<time>2011-09-11T12:14:42.983Z</time>
		<geoidheight>327</geoidheight>
	</trkpt>
	<trkpt lat="50.659451" lon="6.204602">
		<ele>373</ele>
		<time>2011-09-11T12:14:43.978Z</time>
		<geoidheight>327</geoidheight>
	</trkpt>
	<trkpt lat="50.659460" lon="6.204589">
		<ele>373</ele>
		<time>2011-09-11T12:14:44.990Z</time>
		<geoidheight>327</geoidheight>
	</trkpt>
	<trkpt lat="50.659468" lon="6.204574">
		<ele>373</ele>
		<time>2011-09-11T12:14:45.994Z</time>
		<geoidheight>327</geoidheight>
	</trkpt>
	<trkpt lat="50.659475" lon="6.204560">
		<ele>373</ele>
		<time>2011-09-11T12:14:46.998Z</time>
		<geoidheight>327</geoidheight>
	</trkpt>
	<trkpt lat="50.659484" lon="6.204547">
		<ele>373</ele>
		<time>2011-09-11T12:14:47.983Z</time>
		<geoidheight>327</geoidheight>
	</trkpt>
	<trkpt lat="50.659492" lon="6.204535">
		<ele>373</ele>
		<time>2011-09-11T12:14:48.985Z</time>
		<geoidheight>327</geoidheight>
	</trkpt>
	<trkpt lat="50.659501" lon="6.204523">
		<ele>373</ele>
		<time>2011-09-11T12:14:49.973Z</time>
		<geoidheight>327</geoidheight>
	</trkpt>
	<trkpt lat="50.659511" lon="6.204515">
		<ele>373</ele>
		<time>2011-09-11T12:14:50.993Z</time>
		<geoidheight>327</geoidheight>
	</trkpt>
	<trkpt lat="50.659521" lon="6.204503">
		<ele>373</ele>
		<time>2011-09-11T12:14:51.961Z</time>
		<geoidheight>327</geoidheight>
	</trkpt>
	<trkpt lat="50.659530" lon="6.204490">
		<ele>373</ele>
		<time>2011-09-11T12:14:52.982Z</time>
		<geoidheight>327</geoidheight>
	</trkpt>
	<trkpt lat="50.659540" lon="6.204482">
		<ele>373</ele>
		<time>2011-09-11T12:14:53.991Z</time>
		<geoidheight>327</geoidheight>
	</trkpt>
	<trkpt lat="50.659550" lon="6.204471">
		<ele>373</ele>
		<time>2011-09-11T12:14:54.973Z</time>
		<geoidheight>327</geoidheight>
	</trkpt>
	<trkpt lat="50.659562" lon="6.204454">
		<ele>373</ele>
		<time>2011-09-11T12:14:55.972Z</time>
		<geoidheight>327</geoidheight>
	</trkpt>
	<trkpt lat="50.659574" lon="6.204441">
		<ele>373</ele>
		<time>2011-09-11T12:14:56.978Z</time>
		<geoidheight>327</geoidheight>
	</trkpt>
	<trkpt lat="50.659584" lon="6.204428">
		<ele>373</ele>
		<time>2011-09-11T12:14:57.978Z</time>
		<geoidheight>327</geoidheight>
	</trkpt>
	<trkpt lat="50.659594" lon="6.204416">
		<ele>373</ele>
		<time>2011-09-11T12:14:58.968Z</time>
		<geoidheight>327</geoidheight>
	</trkpt>
	<trkpt lat="50.659606" lon="6.204406">
		<ele>373</ele>
		<time>2011-09-11T12:14:59.975Z</time>
		<geoidheight>327</geoidheight>
	</trkpt>
	<trkpt lat="50.659617" lon="6.204397">
		<ele>373</ele>
		<time>2011-09-11T12:15:00.992Z</time>
		<geoidheight>327</geoidheight>
	</trkpt>
	<trkpt lat="50.659629" lon="6.204387">
		<ele>373</ele>
		<time>2011-09-11T12:15:01.985Z</time>
		<geoidheight>327</geoidheight>
	</trkpt>
	<trkpt lat="50.659640" lon="6.204376">
		<ele>373</ele>
		<time>2011-09-11T12:15:02.983Z</time>
		<geoidheight>327</geoidheight>
	</trkpt>
	<trkpt lat="50.659648" lon="6.204360">
		<ele>373</ele>
		<time>2011-09-11T12:15:03.995Z</time>
		<geoidheight>327</geoidheight>
	</trkpt>
	<trkpt lat="50.659656" lon="6.204341">
		<ele>373</ele>
		<time>2011-09-11T12:15:04.992Z</time>
		<geoidheight>327</geoidheight>
	</trkpt>
	<trkpt lat="50.659662" lon="6.204322">
		<ele>373</ele>
		<time>2011-09-11T12:15:05.983Z</time>
		<geoidheight>327</geoidheight>
	</trkpt>
	<trkpt lat="50.659669" lon="6.204305">
		<ele>373</ele>
		<time>2011-09-11T12:15:06.986Z</time>
		<geoidheight>327</geoidheight>
	</trkpt>
	<trkpt lat="50.659675" lon="6.204289">
		<ele>373</ele>
		<time>2011-09-11T12:15:07.996Z</time>
		<geoidheight>327</geoidheight>
	</trkpt>
	<trkpt lat="50.659679" lon="6.204274">
		<ele>373</ele>
		<time>2011-09-11T12:15:08.992Z</time>
		<geoidheight>327</geoidheight>
	</trkpt>
	<trkpt lat="50.659683" lon="6.204257">
		<ele>373</ele>
		<time>2011-09-11T12:15:09.970Z</time>
		<geoidheight>327</geoidheight>
	</trkpt>
	<trkpt lat="50.659687" lon="6.204239">
		<ele>373</ele>
		<time>2011-09-11T12:15:10.975Z</time>
		<geoidheight>327</geoidheight>
	</trkpt>
	<trkpt lat="50.659690" lon="6.204223">
		<ele>373</ele>
		<time>2011-09-11T12:15:11.975Z</time>
		<geoidheight>327</geoidheight>
	</trkpt>
	<trkpt lat="50.659693" lon="6.204208">
		<ele>373</ele>
		<time>2011-09-11T12:15:12.973Z</time>
		<geoidheight>327</geoidheight>
	</trkpt>
	<trkpt lat="50.659690" lon="6.204194">
		<ele>373</ele>
		<time>2011-09-11T12:15:13.984Z</time>
		<geoidheight>327</geoidheight>
	</trkpt>
	<trkpt lat="50.659687" lon="6.204182">
		<ele>373</ele>
		<time>2011-09-11T12:15:14.993Z</time>
		<geoidheight>327</geoidheight>
	</trkpt>
	<trkpt lat="50.659682" lon="6.204173">
		<ele>373</ele>
		<time>2011-09-11T12:15:15.965Z</time>
		<geoidheight>327</geoidheight>
	</trkpt>
	<trkpt lat="50.659676" lon="6.204166">
		<ele>373</ele>
		<time>2011-09-11T12:15:16.965Z</time>
		<geoidheight>327</geoidheight>
	</trkpt>
	<trkpt lat="50.659669" lon="6.204159">
		<ele>373</ele>
		<time>2011-09-11T12:15:17.968Z</time>
		<geoidheight>327</geoidheight>
	</trkpt>
	<trkpt lat="50.659660" lon="6.204154">
		<ele>373</ele>
		<time>2011-09-11T12:15:18.963Z</time>
		<geoidheight>327</geoidheight>
	</trkpt>
	<trkpt lat="50.659648" lon="6.204145">
		<ele>373</ele>
		<time>2011-09-11T12:15:19.972Z</time>
		<geoidheight>327</geoidheight>
	</trkpt>
	<trkpt lat="50.659637" lon="6.204135">
		<ele>373</ele>
		<time>2011-09-11T12:15:20.965Z</time>
		<geoidheight>327</geoidheight>
	</trkpt>
	<trkpt lat="50.659624" lon="6.204127">
		<ele>373</ele>
		<time>2011-09-11T12:15:21.964Z</time>
		<geoidheight>327</geoidheight>
	</trkpt>
	<trkpt lat="50.659611" lon="6.204121">
		<ele>372</ele>
		<time>2011-09-11T12:15:22.963Z</time>
		<geoidheight>326</geoidheight>
	</trkpt>
	<trkpt lat="50.659597" lon="6.204112">
		<ele>372</ele>
		<time>2011-09-11T12:15:23.965Z</time>
		<geoidheight>326</geoidheight>
	</trkpt>
	<trkpt lat="50.659584" lon="6.204107">
		<ele>372</ele>
		<time>2011-09-11T12:15:24.962Z</time>
		<geoidheight>326</geoidheight>
	</trkpt>
	<trkpt lat="50.659571" lon="6.204104">
		<ele>372</ele>
		<time>2011-09-11T12:15:25.966Z</time>
		<geoidheight>326</geoidheight>
	</trkpt>
	<trkpt lat="50.659559" lon="6.204102">
		<ele>372</ele>
		<time>2011-09-11T12:15:26.963Z</time>
		<geoidheight>326</geoidheight>
	</trkpt>
	<trkpt lat="50.659547" lon="6.204101">
		<ele>372</ele>
		<time>2011-09-11T12:15:27.963Z</time>
		<geoidheight>326</geoidheight>
	</trkpt>
	<trkpt lat="50.659536" lon="6.204104">
		<ele>372</ele>
		<time>2011-09-11T12:15:28.964Z</time>
		<geoidheight>326</geoidheight>
	</trkpt>
	<trkpt lat="50.659525" lon="6.204106">
		<ele>372</ele>
		<time>2011-09-11T12:15:29.966Z</time>
		<geoidheight>326</geoidheight>
	</trkpt>
	<trkpt lat="50.659515" lon="6.204110">
		<ele>372</ele>
		<time>2011-09-11T12:15:30.965Z</time>
		<geoidheight>326</geoidheight>
	</trkpt>
	<trkpt lat="50.659505" lon="6.204112">
		<ele>372</ele>
		<time>2011-09-11T12:15:31.964Z</time>
		<geoidheight>326</geoidheight>
	</trkpt>
	<trkpt lat="50.659496" lon="6.204113">
		<ele>372</ele>
		<time>2011-09-11T12:15:32.963Z</time>
		<geoidheight>326</geoidheight>
	</trkpt>
	<trkpt lat="50.659486" lon="6.204112">
		<ele>372</ele>
		<time>2011-09-11T12:15:33.963Z</time>
		<geoidheight>326</geoidheight>
	</trkpt>
	<trkpt lat="50.659476" lon="6.204113">
		<ele>372</ele>
		<time>2011-09-11T12:15:34.965Z</time>
		<geoidheight>326</geoidheight>
	</trkpt>
	<trkpt lat="50.659466" lon="6.204113">
		<ele>372</ele>
		<time>2011-09-11T12:15:35.965Z</time>
		<geoidheight>326</geoidheight>
	</trkpt>
	<trkpt lat="50.659455" lon="6.204111">
		<ele>372</ele>
		<time>2011-09-11T12:15:36.966Z</time>
		<geoidheight>326</geoidheight>
	</trkpt>
	<trkpt lat="50.659444" lon="6.204108">
		<ele>372</ele>
		<time>2011-09-11T12:15:37.966Z</time>
		<geoidheight>326</geoidheight>
	</trkpt>
	<trkpt lat="50.659433" lon="6.204108">
		<ele>372</ele>
		<time>2011-09-11T12:15:38.964Z</time>
		<geoidheight>326</geoidheight>
	</trkpt>
	<trkpt lat="50.659421" lon="6.204107">
		<ele>372</ele>
		<time>2011-09-11T12:15:39.962Z</time>
		<geoidheight>326</geoidheight>
	</trkpt>
	<trkpt lat="50.659409" lon="6.204106">
		<ele>372</ele>
		<time>2011-09-11T12:15:40.968Z</time>
		<geoidheight>326</geoidheight>
	</trkpt>
	<trkpt lat="50.659398" lon="6.204104">
		<ele>371</ele>
		<time>2011-09-11T12:15:41.964Z</time>
		<geoidheight>325</geoidheight>
	</trkpt>
	<trkpt lat="50.659387" lon="6.204099">
		<ele>371</ele>
		<time>2011-09-11T12:15:42.965Z</time>
		<geoidheight>325</geoidheight>
	</trkpt>
	<trkpt lat="50.659376" lon="6.204094">
		<ele>371</ele>
		<time>2011-09-11T12:15:43.972Z</time>
		<geoidheight>325</geoidheight>
	</trkpt>
	<trkpt lat="50.659365" lon="6.204091">
		<ele>371</ele>
		<time>2011-09-11T12:15:44.965Z</time>
		<geoidheight>325</geoidheight>
	</trkpt>
	<trkpt lat="50.659354" lon="6.204090">
		<ele>371</ele>
		<time>2011-09-11T12:15:45.981Z</time>
		<geoidheight>325</geoidheight>
	</trkpt>
	<trkpt lat="50.659343" lon="6.204092">
		<ele>371</ele>
		<time>2011-09-11T12:15:46.963Z</time>
		<geoidheight>325</geoidheight>
	</trkpt>
	<trkpt lat="50.659332" lon="6.204090">
		<ele>371</ele>
		<time>2011-09-11T12:15:47.978Z</time>
		<geoidheight>325</geoidheight>
	</trkpt>
	<trkpt lat="50.659322" lon="6.204088">
		<ele>371</ele>
		<time>2011-09-11T12:15:48.973Z</time>
		<geoidheight>325</geoidheight>
	</trkpt>
	<trkpt lat="50.659313" lon="6.204087">
		<ele>371</ele>
		<time>2011-09-11T12:15:49.999Z</time>
		<geoidheight>325</geoidheight>
	</trkpt>
	<trkpt lat="50.659308" lon="6.204086">
		<ele>371</ele>
		<time>2011-09-11T12:15:50.973Z</time>
		<geoidheight>325</geoidheight>
	</trkpt>
	<trkpt lat="50.659302" lon="6.204086">
		<ele>371</ele>
		<time>2011-09-11T12:15:51.977Z</time>
		<geoidheight>325</geoidheight>
	</trkpt>
	<trkpt lat="50.659294" lon="6.204085">
		<ele>371</ele>
		<time>2011-09-11T12:15:52.993Z</time>
		<geoidheight>325</geoidheight>
	</trkpt>
	<trkpt lat="50.659284" lon="6.204082">
		<ele>371</ele>
		<time>2011-09-11T12:15:53.993Z</time>
		<geoidheight>325</geoidheight>
	</trkpt>
	<trkpt lat="50.659274" lon="6.204077">
		<ele>371</ele>
		<time>2011-09-11T12:15:54.985Z</time>
		<geoidheight>325</geoidheight>
	</trkpt>
	<trkpt lat="50.659264" lon="6.204072">
		<ele>371</ele>
		<time>2011-09-11T12:15:55.996Z</time>
		<geoidheight>325</geoidheight>
	</trkpt>
	<trkpt lat="50.659253" lon="6.204066">
		<ele>371</ele>
		<time>2011-09-11T12:15:56.967Z</time>
		<geoidheight>325</geoidheight>
	</trkpt>
	<trkpt lat="50.659243" lon="6.204058">
		<ele>371</ele>
		<time>2011-09-11T12:15:57.984Z</time>
		<geoidheight>325</geoidheight>
	</trkpt>
	<trkpt lat="50.659234" lon="6.204050">
		<ele>371</ele>
		<time>2011-09-11T12:15:58.976Z</time>
		<geoidheight>325</geoidheight>
	</trkpt>
	<trkpt lat="50.659224" lon="6.204043">
		<ele>371</ele>
		<time>2011-09-11T12:15:59.963Z</time>
		<geoidheight>325</geoidheight>
	</trkpt>
	<trkpt lat="50.659214" lon="6.204036">
		<ele>371</ele>
		<time>2011-09-11T12:16:00.982Z</time>
		<geoidheight>325</geoidheight>
	</trkpt>
	<trkpt lat="50.659204" lon="6.204028">
		<ele>371</ele>
		<time>2011-09-11T12:16:01.972Z</time>
		<geoidheight>325</geoidheight>
	</trkpt>
	<trkpt lat="50.659193" lon="6.204023">
		<ele>371</ele>
		<time>2011-09-11T12:16:02.966Z</time>
		<geoidheight>325</geoidheight>
	</trkpt>
	<trkpt lat="50.659193" lon="6.204023">
		<ele>371</ele>
		<time>2011-09-11T12:16:03.984Z</time>
		<geoidheight>325</geoidheight>
	</trkpt>
	<trkpt lat="50.659193" lon="6.204023">
		<ele>371</ele>
		<time>2011-09-11T12:16:07.976Z</time>
		<geoidheight>325</geoidheight>
	</trkpt>
	<trkpt lat="50.659144" lon="6.203990">
		<ele>371</ele>
		<time>2011-09-11T12:16:08.985Z</time>
		<geoidheight>325</geoidheight>
	</trkpt>
	<trkpt lat="50.659144" lon="6.203990">
		<ele>371</ele>
		<time>2011-09-11T12:16:09.989Z</time>
		<geoidheight>325</geoidheight>
	</trkpt>
	<trkpt lat="50.659123" lon="6.203979">
		<ele>371</ele>
		<time>2011-09-11T12:16:10.977Z</time>
		<geoidheight>325</geoidheight>
	</trkpt>
	<trkpt lat="50.659114" lon="6.203972">
		<ele>371</ele>
		<time>2011-09-11T12:16:11.993Z</time>
		<geoidheight>325</geoidheight>
	</trkpt>
	<trkpt lat="50.659105" lon="6.203965">
		<ele>371</ele>
		<time>2011-09-11T12:16:12.995Z</time>
		<geoidheight>325</geoidheight>
	</trkpt>
	<trkpt lat="50.659095" lon="6.203959">
		<ele>371</ele>
		<time>2011-09-11T12:16:13.975Z</time>
		<geoidheight>325</geoidheight>
	</trkpt>
	<trkpt lat="50.659085" lon="6.203953">
		<ele>371</ele>
		<time>2011-09-11T12:16:14.977Z</time>
		<geoidheight>325</geoidheight>
	</trkpt>
	<trkpt lat="50.659074" lon="6.203946">
		<ele>371</ele>
		<time>2011-09-11T12:16:15.975Z</time>
		<geoidheight>325</geoidheight>
	</trkpt>
	<trkpt lat="50.659064" lon="6.203938">
		<ele>371</ele>
		<time>2011-09-11T12:16:16.967Z</time>
		<geoidheight>325</geoidheight>
	</trkpt>
	<trkpt lat="50.659054" lon="6.203930">
		<ele>371</ele>
		<time>2011-09-11T12:16:17.982Z</time>
		<geoidheight>325</geoidheight>
	</trkpt>
	<trkpt lat="50.659054" lon="6.203930">
		<ele>371</ele>
		<time>2011-09-11T12:16:22.965Z</time>
		<geoidheight>325</geoidheight>
	</trkpt>
	<trkpt lat="50.659029" lon="6.203890">
		<ele>371</ele>
		<time>2011-09-11T12:16:23.968Z</time>
		<geoidheight>325</geoidheight>
	</trkpt>
	<trkpt lat="50.659020" lon="6.203883">
		<ele>371</ele>
		<time>2011-09-11T12:16:24.971Z</time>
		<geoidheight>325</geoidheight>
	</trkpt>
	<trkpt lat="50.659010" lon="6.203875">
		<ele>371</ele>
		<time>2011-09-11T12:16:25.966Z</time>
		<geoidheight>325</geoidheight>
	</trkpt>
	<trkpt lat="50.658999" lon="6.203866">
		<ele>371</ele>
		<time>2011-09-11T12:16:26.964Z</time>
		<geoidheight>325</geoidheight>
	</trkpt>
	<trkpt lat="50.658988" lon="6.203859">
		<ele>371</ele>
		<time>2011-09-11T12:16:27.975Z</time>
		<geoidheight>325</geoidheight>
	</trkpt>
	<trkpt lat="50.658977" lon="6.203851">
		<ele>371</ele>
		<time>2011-09-11T12:16:28.979Z</time>
		<geoidheight>325</geoidheight>
	</trkpt>
	<trkpt lat="50.658964" lon="6.203843">
		<ele>371</ele>
		<time>2011-09-11T12:16:29.966Z</time>
		<geoidheight>325</geoidheight>
	</trkpt>
	<trkpt lat="50.658952" lon="6.203835">
		<ele>371</ele>
		<time>2011-09-11T12:16:30.979Z</time>
		<geoidheight>325</geoidheight>
	</trkpt>
	<trkpt lat="50.658945" lon="6.203827">
		<ele>371</ele>
		<time>2011-09-11T12:16:31.973Z</time>
		<geoidheight>325</geoidheight>
	</trkpt>
	<trkpt lat="50.658941" lon="6.203821">
		<ele>371</ele>
		<time>2011-09-11T12:16:32.966Z</time>
		<geoidheight>325</geoidheight>
	</trkpt>
	<trkpt lat="50.658936" lon="6.203815">
		<ele>371</ele>
		<time>2011-09-11T12:16:33.980Z</time>
		<geoidheight>325</geoidheight>
	</trkpt>
	<trkpt lat="50.658927" lon="6.203809">
		<ele>371</ele>
		<time>2011-09-11T12:16:34.974Z</time>
		<geoidheight>325</geoidheight>
	</trkpt>
	<trkpt lat="50.658915" lon="6.203808">
		<ele>371</ele>
		<time>2011-09-11T12:16:35.966Z</time>
		<geoidheight>325</geoidheight>
	</trkpt>
	<trkpt lat="50.658900" lon="6.203807">
		<ele>371</ele>
		<time>2011-09-11T12:16:36.976Z</time>
		<geoidheight>325</geoidheight>
	</trkpt>
	<trkpt lat="50.658883" lon="6.203807">
		<ele>371</ele>
		<time>2011-09-11T12:16:37.979Z</time>
		<geoidheight>325</geoidheight>
	</trkpt>
	<trkpt lat="50.658866" lon="6.203806">
		<ele>371</ele>
		<time>2011-09-11T12:16:38.982Z</time>
		<geoidheight>325</geoidheight>
	</trkpt>
	<trkpt lat="50.658849" lon="6.203806">
		<ele>371</ele>
		<time>2011-09-11T12:16:39.976Z</time>
		<geoidheight>325</geoidheight>
	</trkpt>
	<trkpt lat="50.658831" lon="6.203809">
		<ele>371</ele>
		<time>2011-09-11T12:16:40.985Z</time>
		<geoidheight>325</geoidheight>
	</trkpt>
	<trkpt lat="50.658814" lon="6.203815">
		<ele>371</ele>
		<time>2011-09-11T12:16:41.984Z</time>
		<geoidheight>325</geoidheight>
	</trkpt>
	<trkpt lat="50.658796" lon="6.203822">
		<ele>371</ele>
		<time>2011-09-11T12:16:42.981Z</time>
		<geoidheight>325</geoidheight>
	</trkpt>
	<trkpt lat="50.658779" lon="6.203832">
		<ele>371</ele>
		<time>2011-09-11T12:16:43.964Z</time>
		<geoidheight>325</geoidheight>
	</trkpt>
	<trkpt lat="50.658763" lon="6.203843">
		<ele>372</ele>
		<time>2011-09-11T12:16:44.975Z</time>
		<geoidheight>326</geoidheight>
	</trkpt>
	<trkpt lat="50.658747" lon="6.203851">
		<ele>372</ele>
		<time>2011-09-11T12:16:45.964Z</time>
		<geoidheight>326</geoidheight>
	</trkpt>
	<trkpt lat="50.658729" lon="6.203860">
		<ele>372</ele>
		<time>2011-09-11T12:16:46.963Z</time>
		<geoidheight>326</geoidheight>
	</trkpt>
	<trkpt lat="50.658711" lon="6.203866">
		<ele>372</ele>
		<time>2011-09-11T12:16:47.964Z</time>
		<geoidheight>326</geoidheight>
	</trkpt>
	<trkpt lat="50.658693" lon="6.203873">
		<ele>372</ele>
		<time>2011-09-11T12:16:48.963Z</time>
		<geoidheight>326</geoidheight>
	</trkpt>
	<trkpt lat="50.658675" lon="6.203878">
		<ele>372</ele>
		<time>2011-09-11T12:16:49.964Z</time>
		<geoidheight>326</geoidheight>
	</trkpt>
	<trkpt lat="50.658658" lon="6.203886">
		<ele>372</ele>
		<time>2011-09-11T12:16:50.969Z</time>
		<geoidheight>326</geoidheight>
	</trkpt>
	<trkpt lat="50.658641" lon="6.203893">
		<ele>372</ele>
		<time>2011-09-11T12:16:51.964Z</time>
		<geoidheight>326</geoidheight>
	</trkpt>
	<trkpt lat="50.658625" lon="6.203899">
		<ele>372</ele>
		<time>2011-09-11T12:16:52.963Z</time>
		<geoidheight>326</geoidheight>
	</trkpt>
	<trkpt lat="50.658607" lon="6.203900">
		<ele>372</ele>
		<time>2011-09-11T12:16:53.962Z</time>
		<geoidheight>326</geoidheight>
	</trkpt>
	<trkpt lat="50.658588" lon="6.203898">
		<ele>372</ele>
		<time>2011-09-11T12:16:54.962Z</time>
		<geoidheight>326</geoidheight>
	</trkpt>
	<trkpt lat="50.658568" lon="6.203892">
		<ele>372</ele>
		<time>2011-09-11T12:16:55.965Z</time>
		<geoidheight>326</geoidheight>
	</trkpt>
	<trkpt lat="50.658547" lon="6.203885">
		<ele>372</ele>
		<time>2011-09-11T12:16:56.963Z</time>
		<geoidheight>326</geoidheight>
	</trkpt>
	<trkpt lat="50.658527" lon="6.203879">
		<ele>372</ele>
		<time>2011-09-11T12:16:57.964Z</time>
		<geoidheight>326</geoidheight>
	</trkpt>
	<trkpt lat="50.658508" lon="6.203874">
		<ele>372</ele>
		<time>2011-09-11T12:16:58.965Z</time>
		<geoidheight>326</geoidheight>
	</trkpt>
	<trkpt lat="50.658491" lon="6.203870">
		<ele>372</ele>
		<time>2011-09-11T12:16:59.962Z</time>
		<geoidheight>326</geoidheight>
	</trkpt>
	<trkpt lat="50.658475" lon="6.203865">
		<ele>373</ele>
		<time>2011-09-11T12:17:00.964Z</time>
		<geoidheight>327</geoidheight>
	</trkpt>
	<trkpt lat="50.658460" lon="6.203860">
		<ele>373</ele>
		<time>2011-09-11T12:17:01.966Z</time>
		<geoidheight>327</geoidheight>
	</trkpt>
	<trkpt lat="50.658444" lon="6.203857">
		<ele>373</ele>
		<time>2011-09-11T12:17:02.963Z</time>
		<geoidheight>327</geoidheight>
	</trkpt>
	<trkpt lat="50.658429" lon="6.203855">
		<ele>373</ele>
		<time>2011-09-11T12:17:03.966Z</time>
		<geoidheight>327</geoidheight>
	</trkpt>
	<trkpt lat="50.658415" lon="6.203854">
		<ele>373</ele>
		<time>2011-09-11T12:17:04.963Z</time>
		<geoidheight>327</geoidheight>
	</trkpt>
	<trkpt lat="50.658401" lon="6.203854">
		<ele>373</ele>
		<time>2011-09-11T12:17:05.965Z</time>
		<geoidheight>327</geoidheight>
	</trkpt>
	<trkpt lat="50.658387" lon="6.203854">
		<ele>373</ele>
		<time>2011-09-11T12:17:06.970Z</time>
		<geoidheight>327</geoidheight>
	</trkpt>
	<trkpt lat="50.658373" lon="6.203854">
		<ele>373</ele>
		<time>2011-09-11T12:17:07.968Z</time>
		<geoidheight>327</geoidheight>
	</trkpt>
	<trkpt lat="50.658359" lon="6.203854">
		<ele>373</ele>
		<time>2011-09-11T12:17:08.968Z</time>
		<geoidheight>327</geoidheight>
	</trkpt>
	<trkpt lat="50.658346" lon="6.203854">
		<ele>373</ele>
		<time>2011-09-11T12:17:09.966Z</time>
		<geoidheight>327</geoidheight>
	</trkpt>
	<trkpt lat="50.658333" lon="6.203854">
		<ele>374</ele>
		<time>2011-09-11T12:17:10.963Z</time>
		<geoidheight>328</geoidheight>
	</trkpt>
	<trkpt lat="50.658320" lon="6.203854">
		<ele>374</ele>
		<time>2011-09-11T12:17:11.965Z</time>
		<geoidheight>328</geoidheight>
	</trkpt>
	<trkpt lat="50.658309" lon="6.203852">
		<ele>374</ele>
		<time>2011-09-11T12:17:12.980Z</time>
		<geoidheight>328</geoidheight>
	</trkpt>
	<trkpt lat="50.658297" lon="6.203851">
		<ele>374</ele>
		<time>2011-09-11T12:17:13.966Z</time>
		<geoidheight>328</geoidheight>
	</trkpt>
	<trkpt lat="50.658285" lon="6.203854">
		<ele>374</ele>
		<time>2011-09-11T12:17:14.963Z</time>
		<geoidheight>328</geoidheight>
	</trkpt>
	<trkpt lat="50.658273" lon="6.203855">
		<ele>374</ele>
		<time>2011-09-11T12:17:15.967Z</time>
		<geoidheight>328</geoidheight>
	</trkpt>
	<trkpt lat="50.658260" lon="6.203855">
		<ele>374</ele>
		<time>2011-09-11T12:17:16.964Z</time>
		<geoidheight>328</geoidheight>
	</trkpt>
	<trkpt lat="50.658248" lon="6.203853">
		<ele>374</ele>
		<time>2011-09-11T12:17:17.966Z</time>
		<geoidheight>328</geoidheight>
	</trkpt>
	<trkpt lat="50.658236" lon="6.203853">
		<ele>374</ele>
		<time>2011-09-11T12:17:18.963Z</time>
		<geoidheight>328</geoidheight>
	</trkpt>
	<trkpt lat="50.658224" lon="6.203852">
		<ele>374</ele>
		<time>2011-09-11T12:17:19.967Z</time>
		<geoidheight>328</geoidheight>
	</trkpt>
	<trkpt lat="50.658209" lon="6.203849">
		<ele>374</ele>
		<time>2011-09-11T12:17:20.964Z</time>
		<geoidheight>328</geoidheight>
	</trkpt>
	<trkpt lat="50.658191" lon="6.203844">
		<ele>374</ele>
		<time>2011-09-11T12:17:21.970Z</time>
		<geoidheight>328</geoidheight>
	</trkpt>
	<trkpt lat="50.658172" lon="6.203838">
		<ele>374</ele>
		<time>2011-09-11T12:17:22.969Z</time>
		<geoidheight>328</geoidheight>
	</trkpt>
	<trkpt lat="50.658153" lon="6.203833">
		<ele>374</ele>
		<time>2011-09-11T12:17:23.968Z</time>
		<geoidheight>328</geoidheight>
	</trkpt>
	<trkpt lat="50.658134" lon="6.203831">
		<ele>374</ele>
		<time>2011-09-11T12:17:24.966Z</time>
		<geoidheight>328</geoidheight>
	</trkpt>
	<trkpt lat="50.658115" lon="6.203831">
		<ele>374</ele>
		<time>2011-09-11T12:17:25.972Z</time>
		<geoidheight>328</geoidheight>
	</trkpt>
	<trkpt lat="50.658097" lon="6.203828">
		<ele>374</ele>
		<time>2011-09-11T12:17:26.971Z</time>
		<geoidheight>328</geoidheight>
	</trkpt>
	<trkpt lat="50.658079" lon="6.203823">
		<ele>374</ele>
		<time>2011-09-11T12:17:27.964Z</time>
		<geoidheight>328</geoidheight>
	</trkpt>
	<trkpt lat="50.658060" lon="6.203816">
		<ele>374</ele>
		<time>2011-09-11T12:17:28.965Z</time>
		<geoidheight>328</geoidheight>
	</trkpt>
	<trkpt lat="50.658043" lon="6.203809">
		<ele>374</ele>
		<time>2011-09-11T12:17:29.964Z</time>
		<geoidheight>328</geoidheight>
	</trkpt>
	<trkpt lat="50.658027" lon="6.203803">
		<ele>374</ele>
		<time>2011-09-11T12:17:30.964Z</time>
		<geoidheight>328</geoidheight>
	</trkpt>
	<trkpt lat="50.658013" lon="6.203797">
		<ele>375</ele>
		<time>2011-09-11T12:17:31.964Z</time>
		<geoidheight>329</geoidheight>
	</trkpt>
	<trkpt lat="50.658000" lon="6.203789">
		<ele>375</ele>
		<time>2011-09-11T12:17:32.964Z</time>
		<geoidheight>329</geoidheight>
	</trkpt>
	<trkpt lat="50.657988" lon="6.203782">
		<ele>375</ele>
		<time>2011-09-11T12:17:33.964Z</time>
		<geoidheight>329</geoidheight>
	</trkpt>
	<trkpt lat="50.657976" lon="6.203776">
		<ele>375</ele>
		<time>2011-09-11T12:17:34.963Z</time>
		<geoidheight>329</geoidheight>
	</trkpt>
	<trkpt lat="50.657964" lon="6.203770">
		<ele>375</ele>
		<time>2011-09-11T12:17:35.966Z</time>
		<geoidheight>329</geoidheight>
	</trkpt>
	<trkpt lat="50.657953" lon="6.203763">
		<ele>375</ele>
		<time>2011-09-11T12:17:36.965Z</time>
		<geoidheight>329</geoidheight>
	</trkpt>
	<trkpt lat="50.657942" lon="6.203754">
		<ele>375</ele>
		<time>2011-09-11T12:17:37.964Z</time>
		<geoidheight>329</geoidheight>
	</trkpt>
	<trkpt lat="50.657931" lon="6.203748">
		<ele>375</ele>
		<time>2011-09-11T12:17:38.964Z</time>
		<geoidheight>329</geoidheight>
	</trkpt>
	<trkpt lat="50.657919" lon="6.203746">
		<ele>375</ele>
		<time>2011-09-11T12:17:39.962Z</time>
		<geoidheight>329</geoidheight>
	</trkpt>
	<trkpt lat="50.657906" lon="6.203745">
		<ele>375</ele>
		<time>2011-09-11T12:17:40.965Z</time>
		<geoidheight>329</geoidheight>
	</trkpt>
	<trkpt lat="50.657892" lon="6.203743">
		<ele>375</ele>
		<time>2011-09-11T12:17:41.965Z</time>
		<geoidheight>329</geoidheight>
	</trkpt>
	<trkpt lat="50.657878" lon="6.203740">
		<ele>375</ele>
		<time>2011-09-11T12:17:42.962Z</time>
		<geoidheight>329</geoidheight>
	</trkpt>
	<trkpt lat="50.657864" lon="6.203734">
		<ele>375</ele>
		<time>2011-09-11T12:17:43.964Z</time>
		<geoidheight>329</geoidheight>
	</trkpt>
	<trkpt lat="50.657852" lon="6.203727">
		<ele>375</ele>
		<time>2011-09-11T12:17:44.964Z</time>
		<geoidheight>329</geoidheight>
	</trkpt>
	<trkpt lat="50.657852" lon="6.203727">
		<ele>375</ele>
		<time>2011-09-11T12:17:45.973Z</time>
		<geoidheight>329</geoidheight>
	</trkpt>
	<trkpt lat="50.657852" lon="6.203727">
		<ele>375</ele>
		<time>2011-09-11T12:17:48.965Z</time>
		<geoidheight>329</geoidheight>
	</trkpt>
	<trkpt lat="50.657806" lon="6.203697">
		<ele>375</ele>
		<time>2011-09-11T12:17:49.964Z</time>
		<geoidheight>329</geoidheight>
	</trkpt>
	<trkpt lat="50.657806" lon="6.203697">
		<ele>375</ele>
		<time>2011-09-11T12:17:50.963Z</time>
		<geoidheight>329</geoidheight>
	</trkpt>
	<trkpt lat="50.657790" lon="6.203674">
		<ele>376</ele>
		<time>2011-09-11T12:17:51.975Z</time>
		<geoidheight>330</geoidheight>
	</trkpt>
	<trkpt lat="50.657781" lon="6.203664">
		<ele>376</ele>
		<time>2011-09-11T12:17:52.963Z</time>
		<geoidheight>330</geoidheight>
	</trkpt>
	<trkpt lat="50.657773" lon="6.203653">
		<ele>376</ele>
		<time>2011-09-11T12:17:53.963Z</time>
		<geoidheight>330</geoidheight>
	</trkpt>
	<trkpt lat="50.657767" lon="6.203640">
		<ele>376</ele>
		<time>2011-09-11T12:17:54.971Z</time>
		<geoidheight>330</geoidheight>
	</trkpt>
	<trkpt lat="50.657761" lon="6.203625">
		<ele>376</ele>
		<time>2011-09-11T12:17:55.964Z</time>
		<geoidheight>330</geoidheight>
	</trkpt>
	<trkpt lat="50.657757" lon="6.203609">
		<ele>376</ele>
		<time>2011-09-11T12:17:56.963Z</time>
		<geoidheight>330</geoidheight>
	</trkpt>
	<trkpt lat="50.657754" lon="6.203590">
		<ele>376</ele>
		<time>2011-09-11T12:17:57.966Z</time>
		<geoidheight>330</geoidheight>
	</trkpt>
	<trkpt lat="50.657751" lon="6.203570">
		<ele>376</ele>
		<time>2011-09-11T12:17:58.963Z</time>
		<geoidheight>330</geoidheight>
	</trkpt>
	<trkpt lat="50.657748" lon="6.203548">
		<ele>376</ele>
		<time>2011-09-11T12:17:59.963Z</time>
		<geoidheight>330</geoidheight>
	</trkpt>
	<trkpt lat="50.657745" lon="6.203527">
		<ele>376</ele>
		<time>2011-09-11T12:18:00.966Z</time>
		<geoidheight>330</geoidheight>
	</trkpt>
	<trkpt lat="50.657742" lon="6.203508">
		<ele>376</ele>
		<time>2011-09-11T12:18:01.963Z</time>
		<geoidheight>330</geoidheight>
	</trkpt>
	<trkpt lat="50.657734" lon="6.203495">
		<ele>376</ele>
		<time>2011-09-11T12:18:02.965Z</time>
		<geoidheight>330</geoidheight>
	</trkpt>
	<trkpt lat="50.657724" lon="6.203481">
		<ele>376</ele>
		<time>2011-09-11T12:18:03.965Z</time>
		<geoidheight>330</geoidheight>
	</trkpt>
	<trkpt lat="50.657724" lon="6.203481">
		<ele>376</ele>
		<time>2011-09-11T12:18:04.965Z</time>
		<geoidheight>330</geoidheight>
	</trkpt>
	<trkpt lat="50.657709" lon="6.203447">
		<ele>376</ele>
		<time>2011-09-11T12:18:05.964Z</time>
		<geoidheight>330</geoidheight>
	</trkpt>
	<trkpt lat="50.657709" lon="6.203447">
		<ele>376</ele>
		<time>2011-09-11T12:18:08.964Z</time>
		<geoidheight>330</geoidheight>
	</trkpt>
	<trkpt lat="50.657682" lon="6.203372">
		<ele>376</ele>
		<time>2011-09-11T12:18:09.966Z</time>
		<geoidheight>330</geoidheight>
	</trkpt>
	<trkpt lat="50.657673" lon="6.203355">
		<ele>376</ele>
		<time>2011-09-11T12:18:10.964Z</time>
		<geoidheight>330</geoidheight>
	</trkpt>
	<trkpt lat="50.657663" lon="6.203341">
		<ele>376</ele>
		<time>2011-09-11T12:18:11.963Z</time>
		<geoidheight>330</geoidheight>
	</trkpt>
	<trkpt lat="50.657653" lon="6.203326">
		<ele>376</ele>
		<time>2011-09-11T12:18:12.963Z</time>
		<geoidheight>330</geoidheight>
	</trkpt>
	<trkpt lat="50.657643" lon="6.203311">
		<ele>376</ele>
		<time>2011-09-11T12:18:13.965Z</time>
		<geoidheight>330</geoidheight>
	</trkpt>
	<trkpt lat="50.657643" lon="6.203311">
		<ele>376</ele>
		<time>2011-09-11T12:18:16.965Z</time>
		<geoidheight>330</geoidheight>
	</trkpt>
	<trkpt lat="50.657615" lon="6.203248">
		<ele>376</ele>
		<time>2011-09-11T12:18:17.963Z</time>
		<geoidheight>330</geoidheight>
	</trkpt>
	<trkpt lat="50.657615" lon="6.203248">
		<ele>376</ele>
		<time>2011-09-11T12:18:20.964Z</time>
		<geoidheight>330</geoidheight>
	</trkpt>
	<trkpt lat="50.657583" lon="6.203178">
		<ele>376</ele>
		<time>2011-09-11T12:18:21.966Z</time>
		<geoidheight>330</geoidheight>
	</trkpt>
	<trkpt lat="50.657583" lon="6.203178">
		<ele>376</ele>
		<time>2011-09-11T12:18:25.966Z</time>
		<geoidheight>330</geoidheight>
	</trkpt>
	<trkpt lat="50.657546" lon="6.203123">
		<ele>376</ele>
		<time>2011-09-11T12:18:26.963Z</time>
		<geoidheight>330</geoidheight>
	</trkpt>
	<trkpt lat="50.657546" lon="6.203123">
		<ele>376</ele>
		<time>2011-09-11T12:18:27.965Z</time>
		<geoidheight>330</geoidheight>
	</trkpt>
	<trkpt lat="50.657538" lon="6.203099">
		<ele>376</ele>
		<time>2011-09-11T12:18:28.963Z</time>
		<geoidheight>330</geoidheight>
	</trkpt>
	<trkpt lat="50.657533" lon="6.203087">
		<ele>376</ele>
		<time>2011-09-11T12:18:29.964Z</time>
		<geoidheight>330</geoidheight>
	</trkpt>
	<trkpt lat="50.657528" lon="6.203074">
		<ele>376</ele>
		<time>2011-09-11T12:18:30.966Z</time>
		<geoidheight>330</geoidheight>
	</trkpt>
	<trkpt lat="50.657523" lon="6.203061">
		<ele>376</ele>
		<time>2011-09-11T12:18:31.964Z</time>
		<geoidheight>330</geoidheight>
	</trkpt>
	<trkpt lat="50.657517" lon="6.203051">
		<ele>376</ele>
		<time>2011-09-11T12:18:32.963Z</time>
		<geoidheight>330</geoidheight>
	</trkpt>
	<trkpt lat="50.657511" lon="6.203041">
		<ele>376</ele>
		<time>2011-09-11T12:18:33.964Z</time>
		<geoidheight>330</geoidheight>
	</trkpt>
	<trkpt lat="50.657504" lon="6.203030">
		<ele>376</ele>
		<time>2011-09-11T12:18:34.964Z</time>
		<geoidheight>330</geoidheight>
	</trkpt>
	<trkpt lat="50.657498" lon="6.203017">
		<ele>376</ele>
		<time>2011-09-11T12:18:35.964Z</time>
		<geoidheight>330</geoidheight>
	</trkpt>
	<trkpt lat="50.657491" lon="6.203004">
		<ele>376</ele>
		<time>2011-09-11T12:18:36.962Z</time>
		<geoidheight>330</geoidheight>
	</trkpt>
	<trkpt lat="50.657485" lon="6.202989">
		<ele>376</ele>
		<time>2011-09-11T12:18:37.963Z</time>
		<geoidheight>330</geoidheight>
	</trkpt>
	<trkpt lat="50.657480" lon="6.202971">
		<ele>376</ele>
		<time>2011-09-11T12:18:38.964Z</time>
		<geoidheight>330</geoidheight>
	</trkpt>
	<trkpt lat="50.657473" lon="6.202954">
		<ele>376</ele>
		<time>2011-09-11T12:18:39.964Z</time>
		<geoidheight>330</geoidheight>
	</trkpt>
	<trkpt lat="50.657466" lon="6.202936">
		<ele>376</ele>
		<time>2011-09-11T12:18:40.963Z</time>
		<geoidheight>330</geoidheight>
	</trkpt>
	<trkpt lat="50.657460" lon="6.202918">
		<ele>376</ele>
		<time>2011-09-11T12:18:41.966Z</time>
		<geoidheight>330</geoidheight>
	</trkpt>
	<trkpt lat="50.657453" lon="6.202899">
		<ele>376</ele>
		<time>2011-09-11T12:18:42.962Z</time>
		<geoidheight>330</geoidheight>
	</trkpt>
	<trkpt lat="50.657448" lon="6.202879">
		<ele>376</ele>
		<time>2011-09-11T12:18:43.963Z</time>
		<geoidheight>330</geoidheight>
	</trkpt>
	<trkpt lat="50.657448" lon="6.202861">
		<ele>376</ele>
		<time>2011-09-11T12:18:44.967Z</time>
		<geoidheight>330</geoidheight>
	</trkpt>
	<trkpt lat="50.657443" lon="6.202842">
		<ele>376</ele>
		<time>2011-09-11T12:18:45.965Z</time>
		<geoidheight>330</geoidheight>
	</trkpt>
	<trkpt lat="50.657443" lon="6.202842">
		<ele>376</ele>
		<time>2011-09-11T12:18:46.962Z</time>
		<geoidheight>330</geoidheight>
	</trkpt>
	<trkpt lat="50.657430" lon="6.202794">
		<ele>376</ele>
		<time>2011-09-11T12:18:47.966Z</time>
		<geoidheight>330</geoidheight>
	</trkpt>
	<trkpt lat="50.657421" lon="6.202770">
		<ele>376</ele>
		<time>2011-09-11T12:18:48.964Z</time>
		<geoidheight>330</geoidheight>
	</trkpt>
	<trkpt lat="50.657412" lon="6.202746">
		<ele>376</ele>
		<time>2011-09-11T12:18:49.964Z</time>
		<geoidheight>330</geoidheight>
	</trkpt>
	<trkpt lat="50.657402" lon="6.202724">
		<ele>376</ele>
		<time>2011-09-11T12:18:50.965Z</time>
		<geoidheight>330</geoidheight>
	</trkpt>
	<trkpt lat="50.657393" lon="6.202702">
		<ele>376</ele>
		<time>2011-09-11T12:18:51.971Z</time>
		<geoidheight>330</geoidheight>
	</trkpt>
	<trkpt lat="50.657385" lon="6.202682">
		<ele>376</ele>
		<time>2011-09-11T12:18:52.964Z</time>
		<geoidheight>330</geoidheight>
	</trkpt>
	<trkpt lat="50.657378" lon="6.202662">
		<ele>376</ele>
		<time>2011-09-11T12:18:53.964Z</time>
		<geoidheight>330</geoidheight>
	</trkpt>
	<trkpt lat="50.657366" lon="6.202624">
		<ele>376</ele>
		<time>2011-09-11T12:18:54.966Z</time>
		<geoidheight>330</geoidheight>
	</trkpt>
	<trkpt lat="50.657360" lon="6.202609">
		<ele>376</ele>
		<time>2011-09-11T12:18:55.965Z</time>
		<geoidheight>330</geoidheight>
	</trkpt>
	<trkpt lat="50.657356" lon="6.202596">
		<ele>377</ele>
		<time>2011-09-11T12:18:56.965Z</time>
		<geoidheight>331</geoidheight>
	</trkpt>
	<trkpt lat="50.657355" lon="6.202582">
		<ele>377</ele>
		<time>2011-09-11T12:18:57.965Z</time>
		<geoidheight>331</geoidheight>
	</trkpt>
	<trkpt lat="50.657355" lon="6.202567">
		<ele>377</ele>
		<time>2011-09-11T12:18:58.965Z</time>
		<geoidheight>331</geoidheight>
	</trkpt>
	<trkpt lat="50.657355" lon="6.202551">
		<ele>377</ele>
		<time>2011-09-11T12:18:59.964Z</time>
		<geoidheight>331</geoidheight>
	</trkpt>
	<trkpt lat="50.657349" lon="6.202542">
		<ele>377</ele>
		<time>2011-09-11T12:19:00.965Z</time>
		<geoidheight>331</geoidheight>
	</trkpt>
	<trkpt lat="50.657345" lon="6.202528">
		<ele>377</ele>
		<time>2011-09-11T12:19:01.965Z</time>
		<geoidheight>331</geoidheight>
	</trkpt>
	<trkpt lat="50.657342" lon="6.202513">
		<ele>377</ele>
		<time>2011-09-11T12:19:02.964Z</time>
		<geoidheight>331</geoidheight>
	</trkpt>
	<trkpt lat="50.657337" lon="6.202504">
		<ele>377</ele>
		<time>2011-09-11T12:19:03.965Z</time>
		<geoidheight>331</geoidheight>
	</trkpt>
	<trkpt lat="50.657333" lon="6.202494">
		<ele>377</ele>
		<time>2011-09-11T12:19:04.965Z</time>
		<geoidheight>331</geoidheight>
	</trkpt>
	<trkpt lat="50.657330" lon="6.202484">
		<ele>377</ele>
		<time>2011-09-11T12:19:05.966Z</time>
		<geoidheight>331</geoidheight>
	</trkpt>
	<trkpt lat="50.657331" lon="6.202471">
		<ele>377</ele>
		<time>2011-09-11T12:19:06.964Z</time>
		<geoidheight>331</geoidheight>
	</trkpt>
	<trkpt lat="50.657334" lon="6.202456">
		<ele>377</ele>
		<time>2011-09-11T12:19:07.963Z</time>
		<geoidheight>331</geoidheight>
	</trkpt>
	<trkpt lat="50.657335" lon="6.202442">
		<ele>377</ele>
		<time>2011-09-11T12:19:08.968Z</time>
		<geoidheight>331</geoidheight>
	</trkpt>
	<trkpt lat="50.657333" lon="6.202431">
		<ele>377</ele>
		<time>2011-09-11T12:19:09.967Z</time>
		<geoidheight>331</geoidheight>
	</trkpt>
	<trkpt lat="50.657332" lon="6.202421">
		<ele>376</ele>
		<time>2011-09-11T12:19:10.965Z</time>
		<geoidheight>330</geoidheight>
	</trkpt>
	<trkpt lat="50.657330" lon="6.202410">
		<ele>376</ele>
		<time>2011-09-11T12:19:11.986Z</time>
		<geoidheight>330</geoidheight>
	</trkpt>
	<trkpt lat="50.657330" lon="6.202410">
		<ele>376</ele>
		<time>2011-09-11T12:19:13.965Z</time>
		<geoidheight>330</geoidheight>
	</trkpt>
	<trkpt lat="50.657333" lon="6.202392">
		<ele>376</ele>
		<time>2011-09-11T12:19:14.964Z</time>
		<geoidheight>330</geoidheight>
	</trkpt>
	<trkpt lat="50.657333" lon="6.202381">
		<ele>376</ele>
		<time>2011-09-11T12:19:15.963Z</time>
		<geoidheight>330</geoidheight>
	</trkpt>
	<trkpt lat="50.657332" lon="6.202372">
		<ele>376</ele>
		<time>2011-09-11T12:19:16.967Z</time>
		<geoidheight>330</geoidheight>
	</trkpt>
	<trkpt lat="50.657333" lon="6.202359">
		<ele>376</ele>
		<time>2011-09-11T12:19:18.964Z</time>
		<geoidheight>330</geoidheight>
	</trkpt>
	<trkpt lat="50.657334" lon="6.202346">
		<ele>376</ele>
		<time>2011-09-11T12:19:19.966Z</time>
		<geoidheight>330</geoidheight>
	</trkpt>
	<trkpt lat="50.657333" lon="6.202330">
		<ele>376</ele>
		<time>2011-09-11T12:19:20.964Z</time>
		<geoidheight>330</geoidheight>
	</trkpt>
	<trkpt lat="50.657332" lon="6.202310">
		<ele>376</ele>
		<time>2011-09-11T12:19:21.965Z</time>
		<geoidheight>330</geoidheight>
	</trkpt>
	<trkpt lat="50.657329" lon="6.202293">
		<ele>376</ele>
		<time>2011-09-11T12:19:22.966Z</time>
		<geoidheight>330</geoidheight>
	</trkpt>
	<trkpt lat="50.657325" lon="6.202265">
		<ele>376</ele>
		<time>2011-09-11T12:19:23.963Z</time>
		<geoidheight>330</geoidheight>
	</trkpt>
	<trkpt lat="50.657321" lon="6.202237">
		<ele>376</ele>
		<time>2011-09-11T12:19:24.964Z</time>
		<geoidheight>330</geoidheight>
	</trkpt>
	<trkpt lat="50.657318" lon="6.202202">
		<ele>376</ele>
		<time>2011-09-11T12:19:25.965Z</time>
		<geoidheight>330</geoidheight>
	</trkpt>
	<trkpt lat="50.657315" lon="6.202171">
		<ele>376</ele>
		<time>2011-09-11T12:19:26.966Z</time>
		<geoidheight>330</geoidheight>
	</trkpt>
	<trkpt lat="50.657312" lon="6.202142">
		<ele>376</ele>
		<time>2011-09-11T12:19:27.968Z</time>
		<geoidheight>330</geoidheight>
	</trkpt>
	<trkpt lat="50.657307" lon="6.202116">
		<ele>376</ele>
		<time>2011-09-11T12:19:28.974Z</time>
		<geoidheight>330</geoidheight>
	</trkpt>
	<trkpt lat="50.657301" lon="6.202093">
		<ele>376</ele>
		<time>2011-09-11T12:19:29.965Z</time>
		<geoidheight>330</geoidheight>
	</trkpt>
	<trkpt lat="50.657295" lon="6.202071">
		<ele>376</ele>
		<time>2011-09-11T12:19:30.963Z</time>
		<geoidheight>330</geoidheight>
	</trkpt>
	<trkpt lat="50.657289" lon="6.202051">
		<ele>376</ele>
		<time>2011-09-11T12:19:31.968Z</time>
		<geoidheight>330</geoidheight>
	</trkpt>
	<trkpt lat="50.657282" lon="6.202031">
		<ele>376</ele>
		<time>2011-09-11T12:19:32.974Z</time>
		<geoidheight>330</geoidheight>
	</trkpt>
	<trkpt lat="50.657275" lon="6.202017">
		<ele>376</ele>
		<time>2011-09-11T12:19:33.980Z</time>
		<geoidheight>330</geoidheight>
	</trkpt>
	<trkpt lat="50.657269" lon="6.202003">
		<ele>376</ele>
		<time>2011-09-11T12:19:34.971Z</time>
		<geoidheight>330</geoidheight>
	</trkpt>
	<trkpt lat="50.657263" lon="6.201991">
		<ele>376</ele>
		<time>2011-09-11T12:19:35.967Z</time>
		<geoidheight>330</geoidheight>
	</trkpt>
	<trkpt lat="50.657257" lon="6.201975">
		<ele>376</ele>
		<time>2011-09-11T12:19:36.965Z</time>
		<geoidheight>330</geoidheight>
	</trkpt>
	<trkpt lat="50.657253" lon="6.201957">
		<ele>376</ele>
		<time>2011-09-11T12:19:37.963Z</time>
		<geoidheight>330</geoidheight>
	</trkpt>
	<trkpt lat="50.657246" lon="6.201947">
		<ele>376</ele>
		<time>2011-09-11T12:19:38.966Z</time>
		<geoidheight>330</geoidheight>
	</trkpt>
	<trkpt lat="50.657238" lon="6.201934">
		<ele>376</ele>
		<time>2011-09-11T12:19:39.964Z</time>
		<geoidheight>330</geoidheight>
	</trkpt>
	<trkpt lat="50.657231" lon="6.201915">
		<ele>376</ele>
		<time>2011-09-11T12:19:40.964Z</time>
		<geoidheight>330</geoidheight>
	</trkpt>
	<trkpt lat="50.657224" lon="6.201897">
		<ele>376</ele>
		<time>2011-09-11T12:19:41.967Z</time>
		<geoidheight>330</geoidheight>
	</trkpt>
	<trkpt lat="50.657221" lon="6.201879">
		<ele>376</ele>
		<time>2011-09-11T12:19:42.963Z</time>
		<geoidheight>330</geoidheight>
	</trkpt>
	<trkpt lat="50.657218" lon="6.201861">
		<ele>376</ele>
		<time>2011-09-11T12:19:43.963Z</time>
		<geoidheight>330</geoidheight>
	</trkpt>
	<trkpt lat="50.657224" lon="6.201845">
		<ele>376</ele>
		<time>2011-09-11T12:19:44.964Z</time>
		<geoidheight>330</geoidheight>
	</trkpt>
	<trkpt lat="50.657228" lon="6.201826">
		<ele>376</ele>
		<time>2011-09-11T12:19:45.963Z</time>
		<geoidheight>330</geoidheight>
	</trkpt>
	<trkpt lat="50.657226" lon="6.201807">
		<ele>376</ele>
		<time>2011-09-11T12:19:46.966Z</time>
		<geoidheight>330</geoidheight>
	</trkpt>
	<trkpt lat="50.657225" lon="6.201791">
		<ele>376</ele>
		<time>2011-09-11T12:19:47.967Z</time>
		<geoidheight>330</geoidheight>
	</trkpt>
	<trkpt lat="50.657223" lon="6.201774">
		<ele>376</ele>
		<time>2011-09-11T12:19:48.964Z</time>
		<geoidheight>330</geoidheight>
	</trkpt>
	<trkpt lat="50.657218" lon="6.201757">
		<ele>376</ele>
		<time>2011-09-11T12:19:49.963Z</time>
		<geoidheight>330</geoidheight>
	</trkpt>
	<trkpt lat="50.657218" lon="6.201742">
		<ele>376</ele>
		<time>2011-09-11T12:19:50.964Z</time>
		<geoidheight>330</geoidheight>
	</trkpt>
	<trkpt lat="50.657218" lon="6.201727">
		<ele>376</ele>
		<time>2011-09-11T12:19:51.966Z</time>
		<geoidheight>330</geoidheight>
	</trkpt>
	<trkpt lat="50.657211" lon="6.201714">
		<ele>376</ele>
		<time>2011-09-11T12:19:52.970Z</time>
		<geoidheight>330</geoidheight>
	</trkpt>
	<trkpt lat="50.657202" lon="6.201703">
		<ele>376</ele>
		<time>2011-09-11T12:19:53.973Z</time>
		<geoidheight>330</geoidheight>
	</trkpt>
	<trkpt lat="50.657193" lon="6.201690">
		<ele>376</ele>
		<time>2011-09-11T12:19:54.966Z</time>
		<geoidheight>330</geoidheight>
	</trkpt>
	<trkpt lat="50.657188" lon="6.201675">
		<ele>377</ele>
		<time>2011-09-11T12:19:55.963Z</time>
		<geoidheight>331</geoidheight>
	</trkpt>
	<trkpt lat="50.657182" lon="6.201659">
		<ele>377</ele>
		<time>2011-09-11T12:19:56.964Z</time>
		<geoidheight>331</geoidheight>
	</trkpt>
	<trkpt lat="50.657177" lon="6.201642">
		<ele>377</ele>
		<time>2011-09-11T12:19:57.966Z</time>
		<geoidheight>331</geoidheight>
	</trkpt>
	<trkpt lat="50.657172" lon="6.201627">
		<ele>377</ele>
		<time>2011-09-11T12:19:58.965Z</time>
		<geoidheight>331</geoidheight>
	</trkpt>
	<trkpt lat="50.657168" lon="6.201610">
		<ele>377</ele>
		<time>2011-09-11T12:19:59.966Z</time>
		<geoidheight>331</geoidheight>
	</trkpt>
	<trkpt lat="50.657164" lon="6.201590">
		<ele>377</ele>
		<time>2011-09-11T12:20:00.966Z</time>
		<geoidheight>331</geoidheight>
	</trkpt>
	<trkpt lat="50.657161" lon="6.201572">
		<ele>377</ele>
		<time>2011-09-11T12:20:01.965Z</time>
		<geoidheight>331</geoidheight>
	</trkpt>
	<trkpt lat="50.657160" lon="6.201551">
		<ele>377</ele>
		<time>2011-09-11T12:20:02.963Z</time>
		<geoidheight>331</geoidheight>
	</trkpt>
	<trkpt lat="50.657158" lon="6.201533">
		<ele>377</ele>
		<time>2011-09-11T12:20:03.964Z</time>
		<geoidheight>331</geoidheight>
	</trkpt>
	<trkpt lat="50.657157" lon="6.201514">
		<ele>377</ele>
		<time>2011-09-11T12:20:04.965Z</time>
		<geoidheight>331</geoidheight>
	</trkpt>
	<trkpt lat="50.657156" lon="6.201497">
		<ele>377</ele>
		<time>2011-09-11T12:20:05.964Z</time>
		<geoidheight>331</geoidheight>
	</trkpt>
	<trkpt lat="50.657153" lon="6.201484">
		<ele>377</ele>
		<time>2011-09-11T12:20:06.965Z</time>
		<geoidheight>331</geoidheight>
	</trkpt>
	<trkpt lat="50.657152" lon="6.201469">
		<ele>377</ele>
		<time>2011-09-11T12:20:07.965Z</time>
		<geoidheight>331</geoidheight>
	</trkpt>
	<trkpt lat="50.657154" lon="6.201454">
		<ele>377</ele>
		<time>2011-09-11T12:20:08.965Z</time>
		<geoidheight>331</geoidheight>
	</trkpt>
	<trkpt lat="50.657154" lon="6.201440">
		<ele>377</ele>
		<time>2011-09-11T12:20:09.966Z</time>
		<geoidheight>331</geoidheight>
	</trkpt>
	<trkpt lat="50.657152" lon="6.201427">
		<ele>377</ele>
		<time>2011-09-11T12:20:10.966Z</time>
		<geoidheight>331</geoidheight>
	</trkpt>
	<trkpt lat="50.657151" lon="6.201414">
		<ele>377</ele>
		<time>2011-09-11T12:20:11.964Z</time>
		<geoidheight>331</geoidheight>
	</trkpt>
	<trkpt lat="50.657149" lon="6.201403">
		<ele>377</ele>
		<time>2011-09-11T12:20:12.964Z</time>
		<geoidheight>331</geoidheight>
	</trkpt>
	<trkpt lat="50.657146" lon="6.201391">
		<ele>377</ele>
		<time>2011-09-11T12:20:13.966Z</time>
		<geoidheight>331</geoidheight>
	</trkpt>
	<trkpt lat="50.657142" lon="6.201379">
		<ele>377</ele>
		<time>2011-09-11T12:20:14.966Z</time>
		<geoidheight>331</geoidheight>
	</trkpt>
	<trkpt lat="50.657137" lon="6.201366">
		<ele>377</ele>
		<time>2011-09-11T12:20:15.964Z</time>
		<geoidheight>331</geoidheight>
	</trkpt>
	<trkpt lat="50.657129" lon="6.201355">
		<ele>377</ele>
		<time>2011-09-11T12:20:16.973Z</time>
		<geoidheight>331</geoidheight>
	</trkpt>
	<trkpt lat="50.657123" lon="6.201344">
		<ele>377</ele>
		<time>2011-09-11T12:20:17.964Z</time>
		<geoidheight>331</geoidheight>
	</trkpt>
	<trkpt lat="50.657120" lon="6.201329">
		<ele>377</ele>
		<time>2011-09-11T12:20:18.966Z</time>
		<geoidheight>331</geoidheight>
	</trkpt>
	<trkpt lat="50.657119" lon="6.201313">
		<ele>377</ele>
		<time>2011-09-11T12:20:19.967Z</time>
		<geoidheight>331</geoidheight>
	</trkpt>
	<trkpt lat="50.657124" lon="6.201302">
		<ele>377</ele>
		<time>2011-09-11T12:20:20.964Z</time>
		<geoidheight>331</geoidheight>
	</trkpt>
	<trkpt lat="50.657127" lon="6.201290">
		<ele>377</ele>
		<time>2011-09-11T12:20:21.965Z</time>
		<geoidheight>331</geoidheight>
	</trkpt>
	<trkpt lat="50.657123" lon="6.201271">
		<ele>377</ele>
		<time>2011-09-11T12:20:22.967Z</time>
		<geoidheight>331</geoidheight>
	</trkpt>
	<trkpt lat="50.657119" lon="6.201252">
		<ele>377</ele>
		<time>2011-09-11T12:20:23.964Z</time>
		<geoidheight>331</geoidheight>
	</trkpt>
	<trkpt lat="50.657117" lon="6.201234">
		<ele>377</ele>
		<time>2011-09-11T12:20:24.966Z</time>
		<geoidheight>331</geoidheight>
	</trkpt>
	<trkpt lat="50.657117" lon="6.201208">
		<ele>378</ele>
		<time>2011-09-11T12:20:25.965Z</time>
		<geoidheight>332</geoidheight>
	</trkpt>
	<trkpt lat="50.657115" lon="6.201184">
		<ele>378</ele>
		<time>2011-09-11T12:20:26.966Z</time>
		<geoidheight>332</geoidheight>
	</trkpt>
	<trkpt lat="50.657112" lon="6.201153">
		<ele>378</ele>
		<time>2011-09-11T12:20:27.965Z</time>
		<geoidheight>332</geoidheight>
	</trkpt>
	<trkpt lat="50.657111" lon="6.201125">
		<ele>378</ele>
		<time>2011-09-11T12:20:28.965Z</time>
		<geoidheight>332</geoidheight>
	</trkpt>
	<trkpt lat="50.657112" lon="6.201100">
		<ele>378</ele>
		<time>2011-09-11T12:20:29.966Z</time>
		<geoidheight>332</geoidheight>
	</trkpt>
	<trkpt lat="50.657112" lon="6.201078">
		<ele>378</ele>
		<time>2011-09-11T12:20:30.966Z</time>
		<geoidheight>332</geoidheight>
	</trkpt>
	<trkpt lat="50.657109" lon="6.201061">
		<ele>378</ele>
		<time>2011-09-11T12:20:31.963Z</time>
		<geoidheight>332</geoidheight>
	</trkpt>
	<trkpt lat="50.657110" lon="6.201046">
		<ele>378</ele>
		<time>2011-09-11T12:20:32.966Z</time>
		<geoidheight>332</geoidheight>
	</trkpt>
	<trkpt lat="50.657103" lon="6.201039">
		<ele>378</ele>
		<time>2011-09-11T12:20:33.964Z</time>
		<geoidheight>332</geoidheight>
	</trkpt>
	<trkpt lat="50.657096" lon="6.201028">
		<ele>378</ele>
		<time>2011-09-11T12:20:34.965Z</time>
		<geoidheight>332</geoidheight>
	</trkpt>
	<trkpt lat="50.657090" lon="6.201011">
		<ele>378</ele>
		<time>2011-09-11T12:20:35.968Z</time>
		<geoidheight>332</geoidheight>
	</trkpt>
	<trkpt lat="50.657085" lon="6.200989">
		<ele>378</ele>
		<time>2011-09-11T12:20:36.964Z</time>
		<geoidheight>332</geoidheight>
	</trkpt>
	<trkpt lat="50.657083" lon="6.200968">
		<ele>378</ele>
		<time>2011-09-11T12:20:37.964Z</time>
		<geoidheight>332</geoidheight>
	</trkpt>
	<trkpt lat="50.657081" lon="6.200947">
		<ele>378</ele>
		<time>2011-09-11T12:20:38.966Z</time>
		<geoidheight>332</geoidheight>
	</trkpt>
	<trkpt lat="50.657080" lon="6.200932">
		<ele>378</ele>
		<time>2011-09-11T12:20:39.964Z</time>
		<geoidheight>332</geoidheight>
	</trkpt>
	<trkpt lat="50.657087" lon="6.200914">
		<ele>378</ele>
		<time>2011-09-11T12:20:40.966Z</time>
		<geoidheight>332</geoidheight>
	</trkpt>
	<trkpt lat="50.657093" lon="6.200898">
		<ele>378</ele>
		<time>2011-09-11T12:20:41.967Z</time>
		<geoidheight>332</geoidheight>
	</trkpt>
	<trkpt lat="50.657097" lon="6.200882">
		<ele>378</ele>
		<time>2011-09-11T12:20:42.966Z</time>
		<geoidheight>332</geoidheight>
	</trkpt>
	<trkpt lat="50.657099" lon="6.200868">
		<ele>378</ele>
		<time>2011-09-11T12:20:43.965Z</time>
		<geoidheight>332</geoidheight>
	</trkpt>
	<trkpt lat="50.657101" lon="6.200857">
		<ele>378</ele>
		<time>2011-09-11T12:20:44.965Z</time>
		<geoidheight>332</geoidheight>
	</trkpt>
	<trkpt lat="50.657102" lon="6.200848">
		<ele>378</ele>
		<time>2011-09-11T12:20:45.967Z</time>
		<geoidheight>332</geoidheight>
	</trkpt>
	<trkpt lat="50.657102" lon="6.200848">
		<ele>378</ele>
		<time>2011-09-11T12:20:55.965Z</time>
		<geoidheight>332</geoidheight>
	</trkpt>
	<trkpt lat="50.657148" lon="6.200823">
		<ele>378</ele>
		<time>2011-09-11T12:20:56.964Z</time>
		<geoidheight>332</geoidheight>
	</trkpt>
	<trkpt lat="50.657148" lon="6.200823">
		<ele>378</ele>
		<time>2011-09-11T12:21:09.964Z</time>
		<geoidheight>332</geoidheight>
	</trkpt>
	<trkpt lat="50.657156" lon="6.200772">
		<ele>378</ele>
		<time>2011-09-11T12:21:10.966Z</time>
		<geoidheight>332</geoidheight>
	</trkpt>
	<trkpt lat="50.657156" lon="6.200772">
		<ele>378</ele>
		<time>2011-09-11T12:21:19.971Z</time>
		<geoidheight>332</geoidheight>
	</trkpt>
	<trkpt lat="50.657150" lon="6.200693">
		<ele>378</ele>
		<time>2011-09-11T12:21:20.966Z</time>
		<geoidheight>332</geoidheight>
	</trkpt>
	<trkpt lat="50.657150" lon="6.200693">
		<ele>378</ele>
		<time>2011-09-11T12:21:23.966Z</time>
		<geoidheight>332</geoidheight>
	</trkpt>
	<trkpt lat="50.657161" lon="6.200652">
		<ele>378</ele>
		<time>2011-09-11T12:21:24.965Z</time>
		<geoidheight>332</geoidheight>
	</trkpt>
	<trkpt lat="50.657162" lon="6.200638">
		<ele>378</ele>
		<time>2011-09-11T12:21:25.966Z</time>
		<geoidheight>332</geoidheight>
	</trkpt>
	<trkpt lat="50.657164" lon="6.200626">
		<ele>378</ele>
		<time>2011-09-11T12:21:26.965Z</time>
		<geoidheight>332</geoidheight>
	</trkpt>
	<trkpt lat="50.657164" lon="6.200615">
		<ele>378</ele>
		<time>2011-09-11T12:21:27.965Z</time>
		<geoidheight>332</geoidheight>
	</trkpt>
	<trkpt lat="50.657164" lon="6.200606">
		<ele>378</ele>
		<time>2011-09-11T12:21:28.965Z</time>
		<geoidheight>332</geoidheight>
	</trkpt>
	<trkpt lat="50.657164" lon="6.200597">
		<ele>378</ele>
		<time>2011-09-11T12:21:29.967Z</time>
		<geoidheight>332</geoidheight>
	</trkpt>
	<trkpt lat="50.657166" lon="6.200582">
		<ele>378</ele>
		<time>2011-09-11T12:21:30.965Z</time>
		<geoidheight>332</geoidheight>
	</trkpt>
	<trkpt lat="50.657168" lon="6.200568">
		<ele>378</ele>
		<time>2011-09-11T12:21:31.965Z</time>
		<geoidheight>332</geoidheight>
	</trkpt>
	<trkpt lat="50.657175" lon="6.200552">
		<ele>378</ele>
		<time>2011-09-11T12:21:32.966Z</time>
		<geoidheight>332</geoidheight>
	</trkpt>
	<trkpt lat="50.657178" lon="6.200542">
		<ele>378</ele>
		<time>2011-09-11T12:21:33.965Z</time>
		<geoidheight>332</geoidheight>
	</trkpt>
	<trkpt lat="50.657181" lon="6.200530">
		<ele>378</ele>
		<time>2011-09-11T12:21:34.966Z</time>
		<geoidheight>332</geoidheight>
	</trkpt>
	<trkpt lat="50.657184" lon="6.200519">
		<ele>379</ele>
		<time>2011-09-11T12:21:35.968Z</time>
		<geoidheight>333</geoidheight>
	</trkpt>
	<trkpt lat="50.657187" lon="6.200509">
		<ele>379</ele>
		<time>2011-09-11T12:21:36.966Z</time>
		<geoidheight>333</geoidheight>
	</trkpt>
	<trkpt lat="50.657190" lon="6.200499">
		<ele>379</ele>
		<time>2011-09-11T12:21:37.966Z</time>
		<geoidheight>333</geoidheight>
	</trkpt>
	<trkpt lat="50.657193" lon="6.200491">
		<ele>379</ele>
		<time>2011-09-11T12:21:38.968Z</time>
		<geoidheight>333</geoidheight>
	</trkpt>
	<trkpt lat="50.657198" lon="6.200482">
		<ele>379</ele>
		<time>2011-09-11T12:21:39.965Z</time>
		<geoidheight>333</geoidheight>
	</trkpt>
	<trkpt lat="50.657202" lon="6.200474">
		<ele>379</ele>
		<time>2011-09-11T12:21:40.965Z</time>
		<geoidheight>333</geoidheight>
	</trkpt>
	<trkpt lat="50.657211" lon="6.200471">
		<ele>379</ele>
		<time>2011-09-11T12:21:41.966Z</time>
		<geoidheight>333</geoidheight>
	</trkpt>
	<trkpt lat="50.657221" lon="6.200467">
		<ele>379</ele>
		<time>2011-09-11T12:21:42.967Z</time>
		<geoidheight>333</geoidheight>
	</trkpt>
	<trkpt lat="50.657230" lon="6.200464">
		<ele>379</ele>
		<time>2011-09-11T12:21:43.965Z</time>
		<geoidheight>333</geoidheight>
	</trkpt>
	<trkpt lat="50.657238" lon="6.200459">
		<ele>379</ele>
		<time>2011-09-11T12:21:44.973Z</time>
		<geoidheight>333</geoidheight>
	</trkpt>
	<trkpt lat="50.657246" lon="6.200456">
		<ele>379</ele>
		<time>2011-09-11T12:21:45.986Z</time>
		<geoidheight>333</geoidheight>
	</trkpt>
	<trkpt lat="50.657254" lon="6.200451">
		<ele>379</ele>
		<time>2011-09-11T12:21:46.986Z</time>
		<geoidheight>333</geoidheight>
	</trkpt>
	<trkpt lat="50.657261" lon="6.200447">
		<ele>379</ele>
		<time>2011-09-11T12:21:47.981Z</time>
		<geoidheight>333</geoidheight>
	</trkpt>
	<trkpt lat="50.657267" lon="6.200445">
		<ele>379</ele>
		<time>2011-09-11T12:21:48.984Z</time>
		<geoidheight>333</geoidheight>
	</trkpt>
	<trkpt lat="50.657272" lon="6.200444">
		<ele>379</ele>
		<time>2011-09-11T12:21:49.983Z</time>
		<geoidheight>333</geoidheight>
	</trkpt>
	<trkpt lat="50.657278" lon="6.200439">
		<ele>379</ele>
		<time>2011-09-11T12:21:52.980Z</time>
		<geoidheight>333</geoidheight>
	</trkpt>
	<trkpt lat="50.657288" lon="6.200420">
		<ele>379</ele>
		<time>2011-09-11T12:21:53.967Z</time>
		<geoidheight>333</geoidheight>
	</trkpt>
	<trkpt lat="50.657288" lon="6.200420">
		<ele>379</ele>
		<time>2011-09-11T12:21:57.975Z</time>
		<geoidheight>333</geoidheight>
	</trkpt>
	<trkpt lat="50.657306" lon="6.200352">
		<ele>379</ele>
		<time>2011-09-11T12:21:58.974Z</time>
		<geoidheight>333</geoidheight>
	</trkpt>
	<trkpt lat="50.657309" lon="6.200337">
		<ele>379</ele>
		<time>2011-09-11T12:21:59.979Z</time>
		<geoidheight>333</geoidheight>
	</trkpt>
	<trkpt lat="50.657313" lon="6.200322">
		<ele>379</ele>
		<time>2011-09-11T12:22:00.970Z</time>
		<geoidheight>333</geoidheight>
	</trkpt>
	<trkpt lat="50.657317" lon="6.200307">
		<ele>379</ele>
		<time>2011-09-11T12:22:01.971Z</time>
		<geoidheight>333</geoidheight>
	</trkpt>
	<trkpt lat="50.657314" lon="6.200296">
		<ele>379</ele>
		<time>2011-09-11T12:22:02.971Z</time>
		<geoidheight>333</geoidheight>
	</trkpt>
	<trkpt lat="50.657312" lon="6.200286">
		<ele>379</ele>
		<time>2011-09-11T12:22:03.974Z</time>
		<geoidheight>333</geoidheight>
	</trkpt>
	<trkpt lat="50.657309" lon="6.200271">
		<ele>379</ele>
		<time>2011-09-11T12:22:04.969Z</time>
		<geoidheight>333</geoidheight>
	</trkpt>
	<trkpt lat="50.657309" lon="6.200256">
		<ele>379</ele>
		<time>2011-09-11T12:22:05.978Z</time>
		<geoidheight>333</geoidheight>
	</trkpt>
	<trkpt lat="50.657306" lon="6.200245">
		<ele>379</ele>
		<time>2011-09-11T12:22:06.968Z</time>
		<geoidheight>333</geoidheight>
	</trkpt>
	<trkpt lat="50.657307" lon="6.200230">
		<ele>379</ele>
		<time>2011-09-11T12:22:07.971Z</time>
		<geoidheight>333</geoidheight>
	</trkpt>
	<trkpt lat="50.657307" lon="6.200218">
		<ele>379</ele>
		<time>2011-09-11T12:22:08.975Z</time>
		<geoidheight>333</geoidheight>
	</trkpt>
	<trkpt lat="50.657307" lon="6.200207">
		<ele>379</ele>
		<time>2011-09-11T12:22:09.973Z</time>
		<geoidheight>333</geoidheight>
	</trkpt>
	<trkpt lat="50.657309" lon="6.200191">
		<ele>379</ele>
		<time>2011-09-11T12:22:10.974Z</time>
		<geoidheight>333</geoidheight>
	</trkpt>
	<trkpt lat="50.657312" lon="6.200178">
		<ele>379</ele>
		<time>2011-09-11T12:22:11.969Z</time>
		<geoidheight>333</geoidheight>
	</trkpt>
	<trkpt lat="50.657312" lon="6.200168">
		<ele>379</ele>
		<time>2011-09-11T12:22:12.968Z</time>
		<geoidheight>333</geoidheight>
	</trkpt>
	<trkpt lat="50.657321" lon="6.200152">
		<ele>379</ele>
		<time>2011-09-11T12:22:13.966Z</time>
		<geoidheight>333</geoidheight>
	</trkpt>
	<trkpt lat="50.657335" lon="6.200142">
		<ele>379</ele>
		<time>2011-09-11T12:22:14.966Z</time>
		<geoidheight>333</geoidheight>
	</trkpt>
	<trkpt lat="50.657349" lon="6.200130">
		<ele>379</ele>
		<time>2011-09-11T12:22:15.965Z</time>
		<geoidheight>333</geoidheight>
	</trkpt>
	<trkpt lat="50.657349" lon="6.200130">
		<ele>379</ele>
		<time>2011-09-11T12:22:18.968Z</time>
		<geoidheight>333</geoidheight>
	</trkpt>
	<trkpt lat="50.657397" lon="6.200123">
		<ele>380</ele>
		<time>2011-09-11T12:22:19.966Z</time>
		<geoidheight>334</geoidheight>
	</trkpt>
	<trkpt lat="50.657397" lon="6.200123">
		<ele>380</ele>
		<time>2011-09-11T12:22:21.965Z</time>
		<geoidheight>334</geoidheight>
	</trkpt>
	<trkpt lat="50.657442" lon="6.200096">
		<ele>380</ele>
		<time>2011-09-11T12:22:22.966Z</time>
		<geoidheight>334</geoidheight>
	</trkpt>
	<trkpt lat="50.657456" lon="6.200085">
		<ele>380</ele>
		<time>2011-09-11T12:22:23.972Z</time>
		<geoidheight>334</geoidheight>
	</trkpt>
	<trkpt lat="50.657469" lon="6.200075">
		<ele>380</ele>
		<time>2011-09-11T12:22:24.971Z</time>
		<geoidheight>334</geoidheight>
	</trkpt>
	<trkpt lat="50.657482" lon="6.200068">
		<ele>380</ele>
		<time>2011-09-11T12:22:25.976Z</time>
		<geoidheight>334</geoidheight>
	</trkpt>
	<trkpt lat="50.657494" lon="6.200059">
		<ele>380</ele>
		<time>2011-09-11T12:22:26.973Z</time>
		<geoidheight>334</geoidheight>
	</trkpt>
	<trkpt lat="50.657506" lon="6.200049">
		<ele>380</ele>
		<time>2011-09-11T12:22:27.985Z</time>
		<geoidheight>334</geoidheight>
	</trkpt>
	<trkpt lat="50.657520" lon="6.200043">
		<ele>380</ele>
		<time>2011-09-11T12:22:28.983Z</time>
		<geoidheight>334</geoidheight>
	</trkpt>
	<trkpt lat="50.657534" lon="6.200037">
		<ele>380</ele>
		<time>2011-09-11T12:22:29.979Z</time>
		<geoidheight>334</geoidheight>
	</trkpt>
	<trkpt lat="50.657549" lon="6.200031">
		<ele>380</ele>
		<time>2011-09-11T12:22:30.986Z</time>
		<geoidheight>334</geoidheight>
	</trkpt>
	<trkpt lat="50.657564" lon="6.200023">
		<ele>380</ele>
		<time>2011-09-11T12:22:31.985Z</time>
		<geoidheight>334</geoidheight>
	</trkpt>
	<trkpt lat="50.657579" lon="6.200014">
		<ele>380</ele>
		<time>2011-09-11T12:22:32.982Z</time>
		<geoidheight>334</geoidheight>
	</trkpt>
	<trkpt lat="50.657594" lon="6.200004">
		<ele>380</ele>
		<time>2011-09-11T12:22:33.983Z</time>
		<geoidheight>334</geoidheight>
	</trkpt>
	<trkpt lat="50.657609" lon="6.199996">
		<ele>380</ele>
		<time>2011-09-11T12:22:34.980Z</time>
		<geoidheight>334</geoidheight>
	</trkpt>
	<trkpt lat="50.657625" lon="6.199988">
		<ele>381</ele>
		<time>2011-09-11T12:22:35.971Z</time>
		<geoidheight>335</geoidheight>
	</trkpt>
	<trkpt lat="50.657641" lon="6.199979">
		<ele>381</ele>
		<time>2011-09-11T12:22:36.967Z</time>
		<geoidheight>335</geoidheight>
	</trkpt>
	<trkpt lat="50.657648" lon="6.199969">
		<ele>381</ele>
		<time>2011-09-11T12:22:37.968Z</time>
		<geoidheight>335</geoidheight>
	</trkpt>
	<trkpt lat="50.657648" lon="6.199969">
		<ele>381</ele>
		<time>2011-09-11T12:22:38.978Z</time>
		<geoidheight>335</geoidheight>
	</trkpt>
	<trkpt lat="50.657653" lon="6.199947">
		<ele>381</ele>
		<time>2011-09-11T12:22:39.974Z</time>
		<geoidheight>335</geoidheight>
	</trkpt>
	<trkpt lat="50.657653" lon="6.199947">
		<ele>381</ele>
		<time>2011-09-11T12:22:40.965Z</time>
		<geoidheight>335</geoidheight>
	</trkpt>
	<trkpt lat="50.657656" lon="6.199923">
		<ele>381</ele>
		<time>2011-09-11T12:22:41.967Z</time>
		<geoidheight>335</geoidheight>
	</trkpt>
	<trkpt lat="50.657659" lon="6.199910">
		<ele>381</ele>
		<time>2011-09-11T12:22:42.967Z</time>
		<geoidheight>335</geoidheight>
	</trkpt>
	<trkpt lat="50.657662" lon="6.199898">
		<ele>381</ele>
		<time>2011-09-11T12:22:43.967Z</time>
		<geoidheight>335</geoidheight>
	</trkpt>
	<trkpt lat="50.657665" lon="6.199886">
		<ele>381</ele>
		<time>2011-09-11T12:22:44.967Z</time>
		<geoidheight>335</geoidheight>
	</trkpt>
	<trkpt lat="50.657665" lon="6.199886">
		<ele>381</ele>
		<time>2011-09-11T12:22:45.968Z</time>
		<geoidheight>335</geoidheight>
	</trkpt>
	<trkpt lat="50.657665" lon="6.199886">
		<ele>381</ele>
		<time>2011-09-11T12:22:48.967Z</time>
		<geoidheight>335</geoidheight>
	</trkpt>
	<trkpt lat="50.657719" lon="6.199859">
		<ele>381</ele>
		<time>2011-09-11T12:22:49.968Z</time>
		<geoidheight>335</geoidheight>
	</trkpt>
	<trkpt lat="50.657736" lon="6.199860">
		<ele>382</ele>
		<time>2011-09-11T12:22:50.966Z</time>
		<geoidheight>336</geoidheight>
	</trkpt>
	<trkpt lat="50.657757" lon="6.199857">
		<ele>382</ele>
		<time>2011-09-11T12:22:51.968Z</time>
		<geoidheight>336</geoidheight>
	</trkpt>
	<trkpt lat="50.657780" lon="6.199855">
		<ele>382</ele>
		<time>2011-09-11T12:22:52.967Z</time>
		<geoidheight>336</geoidheight>
	</trkpt>
	<trkpt lat="50.657803" lon="6.199854">
		<ele>382</ele>
		<time>2011-09-11T12:22:53.967Z</time>
		<geoidheight>336</geoidheight>
	</trkpt>
	<trkpt lat="50.657826" lon="6.199852">
		<ele>382</ele>
		<time>2011-09-11T12:22:54.975Z</time>
		<geoidheight>336</geoidheight>
	</trkpt>
	<trkpt lat="50.657842" lon="6.199853">
		<ele>382</ele>
		<time>2011-09-11T12:22:55.972Z</time>
		<geoidheight>336</geoidheight>
	</trkpt>
	<trkpt lat="50.657842" lon="6.199853">
		<ele>382</ele>
		<time>2011-09-11T12:22:56.967Z</time>
		<geoidheight>336</geoidheight>
	</trkpt>
	<trkpt lat="50.657864" lon="6.199851">
		<ele>382</ele>
		<time>2011-09-11T12:22:57.967Z</time>
		<geoidheight>336</geoidheight>
	</trkpt>
	<trkpt lat="50.657864" lon="6.199851">
		<ele>382</ele>
		<time>2011-09-11T12:22:58.972Z</time>
		<geoidheight>336</geoidheight>
	</trkpt>
	<trkpt lat="50.657864" lon="6.199851">
		<ele>382</ele>
		<time>2011-09-11T12:23:00.966Z</time>
		<geoidheight>336</geoidheight>
	</trkpt>
	<trkpt lat="50.657923" lon="6.199825">
		<ele>382</ele>
		<time>2011-09-11T12:23:01.968Z</time>
		<geoidheight>336</geoidheight>
	</trkpt>
	<trkpt lat="50.657923" lon="6.199825">
		<ele>382</ele>
		<time>2011-09-11T12:23:03.978Z</time>
		<geoidheight>336</geoidheight>
	</trkpt>
	<trkpt lat="50.657970" lon="6.199774">
		<ele>383</ele>
		<time>2011-09-11T12:23:04.987Z</time>
		<geoidheight>337</geoidheight>
	</trkpt>
	<trkpt lat="50.657970" lon="6.199774">
		<ele>383</ele>
		<time>2011-09-11T12:23:07.968Z</time>
		<geoidheight>337</geoidheight>
	</trkpt>
	<trkpt lat="50.658005" lon="6.199710">
		<ele>383</ele>
		<time>2011-09-11T12:23:08.974Z</time>
		<geoidheight>337</geoidheight>
	</trkpt>
	<trkpt lat="50.658005" lon="6.199710">
		<ele>383</ele>
		<time>2011-09-11T12:23:10.966Z</time>
		<geoidheight>337</geoidheight>
	</trkpt>
	<trkpt lat="50.658015" lon="6.199637">
		<ele>383</ele>
		<time>2011-09-11T12:23:11.969Z</time>
		<geoidheight>337</geoidheight>
	</trkpt>
	<trkpt lat="50.658020" lon="6.199611">
		<ele>383</ele>
		<time>2011-09-11T12:23:12.977Z</time>
		<geoidheight>337</geoidheight>
	</trkpt>
	<trkpt lat="50.658020" lon="6.199611">
		<ele>383</ele>
		<time>2011-09-11T12:23:14.971Z</time>
		<geoidheight>337</geoidheight>
	</trkpt>
	<trkpt lat="50.658035" lon="6.199524">
		<ele>383</ele>
		<time>2011-09-11T12:23:15.974Z</time>
		<geoidheight>337</geoidheight>
	</trkpt>
	<trkpt lat="50.658035" lon="6.199524">
		<ele>383</ele>
		<time>2011-09-11T12:23:18.967Z</time>
		<geoidheight>337</geoidheight>
	</trkpt>
	<trkpt lat="50.658047" lon="6.199445">
		<ele>383</ele>
		<time>2011-09-11T12:23:19.976Z</time>
		<geoidheight>337</geoidheight>
	</trkpt>
	<trkpt lat="50.658047" lon="6.199445">
		<ele>383</ele>
		<time>2011-09-11T12:23:23.969Z</time>
		<geoidheight>337</geoidheight>
	</trkpt>
	<trkpt lat="50.658085" lon="6.199394">
		<ele>383</ele>
		<time>2011-09-11T12:23:24.966Z</time>
		<geoidheight>337</geoidheight>
	</trkpt>
	<trkpt lat="50.658085" lon="6.199394">
		<ele>383</ele>
		<time>2011-09-11T12:23:29.966Z</time>
		<geoidheight>337</geoidheight>
	</trkpt>
	<trkpt lat="50.658120" lon="6.199337">
		<ele>383</ele>
		<time>2011-09-11T12:23:30.967Z</time>
		<geoidheight>337</geoidheight>
	</trkpt>
	<trkpt lat="50.658120" lon="6.199337">
		<ele>383</ele>
		<time>2011-09-11T12:23:35.980Z</time>
		<geoidheight>337</geoidheight>
	</trkpt>
	<trkpt lat="50.658129" lon="6.199267">
		<ele>383</ele>
		<time>2011-09-11T12:23:36.975Z</time>
		<geoidheight>337</geoidheight>
	</trkpt>
	<trkpt lat="50.658129" lon="6.199267">
		<ele>384</ele>
		<time>2011-09-11T12:23:42.976Z</time>
		<geoidheight>338</geoidheight>
	</trkpt>
	<trkpt lat="50.658152" lon="6.199195">
		<ele>384</ele>
		<time>2011-09-11T12:23:43.976Z</time>
		<geoidheight>338</geoidheight>
	</trkpt>
	<trkpt lat="50.658152" lon="6.199195">
		<ele>385</ele>
		<time>2011-09-11T12:23:56.990Z</time>
		<geoidheight>339</geoidheight>
	</trkpt>
	<trkpt lat="50.658197" lon="6.199192">
		<ele>385</ele>
		<time>2011-09-11T12:23:57.990Z</time>
		<geoidheight>339</geoidheight>
	</trkpt>
	<trkpt lat="50.658197" lon="6.199192">
		<ele>386</ele>
		<time>2011-09-11T12:24:02.989Z</time>
		<geoidheight>340</geoidheight>
	</trkpt>
	<trkpt lat="50.658214" lon="6.199275">
		<ele>386</ele>
		<time>2011-09-11T12:24:03.983Z</time>
		<geoidheight>340</geoidheight>
	</trkpt>
	<trkpt lat="50.658214" lon="6.199275">
		<ele>387</ele>
		<time>2011-09-11T12:24:06.982Z</time>
		<geoidheight>341</geoidheight>
	</trkpt>
	<trkpt lat="50.658200" lon="6.199347">
		<ele>387</ele>
		<time>2011-09-11T12:24:07.979Z</time>
		<geoidheight>341</geoidheight>
	</trkpt>
	<trkpt lat="50.658200" lon="6.199347">
		<ele>387</ele>
		<time>2011-09-11T12:24:09.967Z</time>
		<geoidheight>341</geoidheight>
	</trkpt>
	<trkpt lat="50.658176" lon="6.199393">
		<ele>388</ele>
		<time>2011-09-11T12:24:10.975Z</time>
		<geoidheight>342</geoidheight>
	</trkpt>
	<trkpt lat="50.658163" lon="6.199410">
		<ele>388</ele>
		<time>2011-09-11T12:24:11.981Z</time>
		<geoidheight>342</geoidheight>
	</trkpt>
	<trkpt lat="50.658150" lon="6.199426">
		<ele>388</ele>
		<time>2011-09-11T12:24:12.975Z</time>
		<geoidheight>342</geoidheight>
	</trkpt>
	<trkpt lat="50.658139" lon="6.199438">
		<ele>388</ele>
		<time>2011-09-11T12:24:13.969Z</time>
		<geoidheight>342</geoidheight>
	</trkpt>
	<trkpt lat="50.658130" lon="6.199448">
		<ele>388</ele>
		<time>2011-09-11T12:24:14.969Z</time>
		<geoidheight>342</geoidheight>
	</trkpt>
	<trkpt lat="50.658122" lon="6.199456">
		<ele>389</ele>
		<time>2011-09-11T12:24:15.974Z</time>
		<geoidheight>343</geoidheight>
	</trkpt>
	<trkpt lat="50.658116" lon="6.199465">
		<ele>389</ele>
		<time>2011-09-11T12:24:16.976Z</time>
		<geoidheight>343</geoidheight>
	</trkpt>
	<trkpt lat="50.658112" lon="6.199474">
		<ele>389</ele>
		<time>2011-09-11T12:24:17.972Z</time>
		<geoidheight>343</geoidheight>
	</trkpt>
	<trkpt lat="50.658108" lon="6.199483">
		<ele>389</ele>
		<time>2011-09-11T12:24:18.968Z</time>
		<geoidheight>343</geoidheight>
	</trkpt>
	<trkpt lat="50.658103" lon="6.199491">
		<ele>389</ele>
		<time>2011-09-11T12:24:19.980Z</time>
		<geoidheight>343</geoidheight>
	</trkpt>
	<trkpt lat="50.658098" lon="6.199499">
		<ele>390</ele>
		<time>2011-09-11T12:24:20.980Z</time>
		<geoidheight>344</geoidheight>
	</trkpt>
	<trkpt lat="50.658091" lon="6.199507">
		<ele>390</ele>
		<time>2011-09-11T12:24:21.985Z</time>
		<geoidheight>344</geoidheight>
	</trkpt>
	<trkpt lat="50.658084" lon="6.199514">
		<ele>390</ele>
		<time>2011-09-11T12:24:22.997Z</time>
		<geoidheight>344</geoidheight>
	</trkpt>
	<trkpt lat="50.658076" lon="6.199520">
		<ele>390</ele>
		<time>2011-09-11T12:24:23.994Z</time>
		<geoidheight>344</geoidheight>
	</trkpt>
	<trkpt lat="50.658069" lon="6.199529">
		<ele>390</ele>
		<time>2011-09-11T12:24:24.995Z</time>
		<geoidheight>344</geoidheight>
	</trkpt>
	<trkpt lat="50.658060" lon="6.199542">
		<ele>390</ele>
		<time>2011-09-11T12:24:25.995Z</time>
		<geoidheight>344</geoidheight>
	</trkpt>
	<trkpt lat="50.658052" lon="6.199556">
		<ele>391</ele>
		<time>2011-09-11T12:24:26.996Z</time>
		<geoidheight>345</geoidheight>
	</trkpt>
	<trkpt lat="50.658043" lon="6.199569">
		<ele>391</ele>
		<time>2011-09-11T12:24:27.992Z</time>
		<geoidheight>345</geoidheight>
	</trkpt>
	<trkpt lat="50.658036" lon="6.199583">
		<ele>391</ele>
		<time>2011-09-11T12:24:28.995Z</time>
		<geoidheight>345</geoidheight>
	</trkpt>
	<trkpt lat="50.658029" lon="6.199594">
		<ele>391</ele>
		<time>2011-09-11T12:24:29.996Z</time>
		<geoidheight>345</geoidheight>
	</trkpt>
	<trkpt lat="50.658022" lon="6.199605">
		<ele>391</ele>
		<time>2011-09-11T12:24:30.980Z</time>
		<geoidheight>345</geoidheight>
	</trkpt>
	<trkpt lat="50.658015" lon="6.199616">
		<ele>391</ele>
		<time>2011-09-11T12:24:31.967Z</time>
		<geoidheight>345</geoidheight>
	</trkpt>
	<trkpt lat="50.658009" lon="6.199626">
		<ele>391</ele>
		<time>2011-09-11T12:24:32.967Z</time>
		<geoidheight>345</geoidheight>
	</trkpt>
	<trkpt lat="50.658003" lon="6.199635">
		<ele>391</ele>
		<time>2011-09-11T12:24:33.969Z</time>
		<geoidheight>345</geoidheight>
	</trkpt>
	<trkpt lat="50.657998" lon="6.199645">
		<ele>391</ele>
		<time>2011-09-11T12:24:34.968Z</time>
		<geoidheight>345</geoidheight>
	</trkpt>
	<trkpt lat="50.657993" lon="6.199655">
		<ele>391</ele>
		<time>2011-09-11T12:24:35.968Z</time>
		<geoidheight>345</geoidheight>
	</trkpt>
	<trkpt lat="50.657986" lon="6.199666">
		<ele>392</ele>
		<time>2011-09-11T12:24:36.969Z</time>
		<geoidheight>346</geoidheight>
	</trkpt>
	<trkpt lat="50.657979" lon="6.199678">
		<ele>392</ele>
		<time>2011-09-11T12:24:37.968Z</time>
		<geoidheight>346</geoidheight>
	</trkpt>
	<trkpt lat="50.657971" lon="6.199692">
		<ele>392</ele>
		<time>2011-09-11T12:24:38.967Z</time>
		<geoidheight>346</geoidheight>
	</trkpt>
	<trkpt lat="50.657961" lon="6.199703">
		<ele>392</ele>
		<time>2011-09-11T12:24:39.966Z</time>
		<geoidheight>346</geoidheight>
	</trkpt>
	<trkpt lat="50.657953" lon="6.199714">
		<ele>392</ele>
		<time>2011-09-11T12:24:40.968Z</time>
		<geoidheight>346</geoidheight>
	</trkpt>
	<trkpt lat="50.657943" lon="6.199722">
		<ele>392</ele>
		<time>2011-09-11T12:24:41.966Z</time>
		<geoidheight>346</geoidheight>
	</trkpt>
	<trkpt lat="50.657934" lon="6.199727">
		<ele>392</ele>
		<time>2011-09-11T12:24:42.971Z</time>
		<geoidheight>346</geoidheight>
	</trkpt>
	<trkpt lat="50.657924" lon="6.199733">
		<ele>392</ele>
		<time>2011-09-11T12:24:43.969Z</time>
		<geoidheight>346</geoidheight>
	</trkpt>
	<trkpt lat="50.657915" lon="6.199740">
		<ele>392</ele>
		<time>2011-09-11T12:24:44.970Z</time>
		<geoidheight>346</geoidheight>
	</trkpt>
	<trkpt lat="50.657906" lon="6.199748">
		<ele>392</ele>
		<time>2011-09-11T12:24:45.968Z</time>
		<geoidheight>346</geoidheight>
	</trkpt>
	<trkpt lat="50.657898" lon="6.199756">
		<ele>392</ele>
		<time>2011-09-11T12:24:46.970Z</time>
		<geoidheight>346</geoidheight>
	</trkpt>
	<trkpt lat="50.657891" lon="6.199765">
		<ele>392</ele>
		<time>2011-09-11T12:24:47.967Z</time>
		<geoidheight>346</geoidheight>
	</trkpt>
	<trkpt lat="50.657884" lon="6.199774">
		<ele>392</ele>
		<time>2011-09-11T12:24:48.966Z</time>
		<geoidheight>346</geoidheight>
	</trkpt>
	<trkpt lat="50.657878" lon="6.199784">
		<ele>392</ele>
		<time>2011-09-11T12:24:49.968Z</time>
		<geoidheight>346</geoidheight>
	</trkpt>
	<trkpt lat="50.657871" lon="6.199795">
		<ele>392</ele>
		<time>2011-09-11T12:24:50.967Z</time>
		<geoidheight>346</geoidheight>
	</trkpt>
	<trkpt lat="50.657864" lon="6.199803">
		<ele>392</ele>
		<time>2011-09-11T12:24:51.966Z</time>
		<geoidheight>346</geoidheight>
	</trkpt>
	<trkpt lat="50.657856" lon="6.199811">
		<ele>392</ele>
		<time>2011-09-11T12:24:52.966Z</time>
		<geoidheight>346</geoidheight>
	</trkpt>
	<trkpt lat="50.657849" lon="6.199819">
		<ele>393</ele>
		<time>2011-09-11T12:24:53.967Z</time>
		<geoidheight>347</geoidheight>
	</trkpt>
	<trkpt lat="50.657842" lon="6.199828">
		<ele>393</ele>
		<time>2011-09-11T12:24:54.967Z</time>
		<geoidheight>347</geoidheight>
	</trkpt>
	<trkpt lat="50.657836" lon="6.199839">
		<ele>393</ele>
		<time>2011-09-11T12:24:55.967Z</time>
		<geoidheight>347</geoidheight>
	</trkpt>
	<trkpt lat="50.657828" lon="6.199849">
		<ele>393</ele>
		<time>2011-09-11T12:24:56.967Z</time>
		<geoidheight>347</geoidheight>
	</trkpt>
	<trkpt lat="50.657819" lon="6.199857">
		<ele>393</ele>
		<time>2011-09-11T12:24:57.967Z</time>
		<geoidheight>347</geoidheight>
	</trkpt>
	<trkpt lat="50.657810" lon="6.199867">
		<ele>393</ele>
		<time>2011-09-11T12:24:58.966Z</time>
		<geoidheight>347</geoidheight>
	</trkpt>
	<trkpt lat="50.657802" lon="6.199879">
		<ele>393</ele>
		<time>2011-09-11T12:24:59.967Z</time>
		<geoidheight>347</geoidheight>
	</trkpt>
	<trkpt lat="50.657793" lon="6.199894">
		<ele>393</ele>
		<time>2011-09-11T12:25:00.967Z</time>
		<geoidheight>347</geoidheight>
	</trkpt>
	<trkpt lat="50.657783" lon="6.199908">
		<ele>393</ele>
		<time>2011-09-11T12:25:01.969Z</time>
		<geoidheight>347</geoidheight>
	</trkpt>
	<trkpt lat="50.657773" lon="6.199920">
		<ele>393</ele>
		<time>2011-09-11T12:25:02.968Z</time>
		<geoidheight>347</geoidheight>
	</trkpt>
	<trkpt lat="50.657763" lon="6.199930">
		<ele>393</ele>
		<time>2011-09-11T12:25:03.968Z</time>
		<geoidheight>347</geoidheight>
	</trkpt>
	<trkpt lat="50.657752" lon="6.199939">
		<ele>393</ele>
		<time>2011-09-11T12:25:04.968Z</time>
		<geoidheight>347</geoidheight>
	</trkpt>
	<trkpt lat="50.657741" lon="6.199943">
		<ele>393</ele>
		<time>2011-09-11T12:25:05.969Z</time>
		<geoidheight>347</geoidheight>
	</trkpt>
	<trkpt lat="50.657730" lon="6.199946">
		<ele>393</ele>
		<time>2011-09-11T12:25:06.969Z</time>
		<geoidheight>347</geoidheight>
	</trkpt>
	<trkpt lat="50.657719" lon="6.199949">
		<ele>393</ele>
		<time>2011-09-11T12:25:07.967Z</time>
		<geoidheight>347</geoidheight>
	</trkpt>
	<trkpt lat="50.657708" lon="6.199952">
		<ele>393</ele>
		<time>2011-09-11T12:25:08.969Z</time>
		<geoidheight>347</geoidheight>
	</trkpt>
	<trkpt lat="50.657696" lon="6.199956">
		<ele>393</ele>
		<time>2011-09-11T12:25:09.966Z</time>
		<geoidheight>347</geoidheight>
	</trkpt>
	<trkpt lat="50.657684" lon="6.199962">
		<ele>393</ele>
		<time>2011-09-11T12:25:10.967Z</time>
		<geoidheight>347</geoidheight>
	</trkpt>
	<trkpt lat="50.657671" lon="6.199967">
		<ele>393</ele>
		<time>2011-09-11T12:25:11.970Z</time>
		<geoidheight>347</geoidheight>
	</trkpt>
	<trkpt lat="50.657658" lon="6.199974">
		<ele>393</ele>
		<time>2011-09-11T12:25:12.967Z</time>
		<geoidheight>347</geoidheight>
	</trkpt>
	<trkpt lat="50.657645" lon="6.199985">
		<ele>393</ele>
		<time>2011-09-11T12:25:13.967Z</time>
		<geoidheight>347</geoidheight>
	</trkpt>
	<trkpt lat="50.657631" lon="6.200000">
		<ele>393</ele>
		<time>2011-09-11T12:25:14.966Z</time>
		<geoidheight>347</geoidheight>
	</trkpt>
	<trkpt lat="50.657617" lon="6.200012">
		<ele>393</ele>
		<time>2011-09-11T12:25:15.968Z</time>
		<geoidheight>347</geoidheight>
	</trkpt>
	<trkpt lat="50.657603" lon="6.200022">
		<ele>393</ele>
		<time>2011-09-11T12:25:16.969Z</time>
		<geoidheight>347</geoidheight>
	</trkpt>
	<trkpt lat="50.657591" lon="6.200032">
		<ele>393</ele>
		<time>2011-09-11T12:25:17.967Z</time>
		<geoidheight>347</geoidheight>
	</trkpt>
	<trkpt lat="50.657582" lon="6.200041">
		<ele>393</ele>
		<time>2011-09-11T12:25:18.969Z</time>
		<geoidheight>347</geoidheight>
	</trkpt>
	<trkpt lat="50.657574" lon="6.200051">
		<ele>393</ele>
		<time>2011-09-11T12:25:19.968Z</time>
		<geoidheight>347</geoidheight>
	</trkpt>
	<trkpt lat="50.657568" lon="6.200061">
		<ele>393</ele>
		<time>2011-09-11T12:25:20.968Z</time>
		<geoidheight>347</geoidheight>
	</trkpt>
	<trkpt lat="50.657563" lon="6.200071">
		<ele>393</ele>
		<time>2011-09-11T12:25:21.970Z</time>
		<geoidheight>347</geoidheight>
	</trkpt>
	<trkpt lat="50.657557" lon="6.200084">
		<ele>393</ele>
		<time>2011-09-11T12:25:22.970Z</time>
		<geoidheight>347</geoidheight>
	</trkpt>
	<trkpt lat="50.657550" lon="6.200098">
		<ele>393</ele>
		<time>2011-09-11T12:25:23.980Z</time>
		<geoidheight>347</geoidheight>
	</trkpt>
	<trkpt lat="50.657543" lon="6.200114">
		<ele>393</ele>
		<time>2011-09-11T12:25:24.974Z</time>
		<geoidheight>347</geoidheight>
	</trkpt>
	<trkpt lat="50.657536" lon="6.200130">
		<ele>393</ele>
		<time>2011-09-11T12:25:25.970Z</time>
		<geoidheight>347</geoidheight>
	</trkpt>
	<trkpt lat="50.657530" lon="6.200146">
		<ele>393</ele>
		<time>2011-09-11T12:25:26.969Z</time>
		<geoidheight>347</geoidheight>
	</trkpt>
	<trkpt lat="50.657524" lon="6.200161">
		<ele>393</ele>
		<time>2011-09-11T12:25:27.972Z</time>
		<geoidheight>347</geoidheight>
	</trkpt>
	<trkpt lat="50.657518" lon="6.200176">
		<ele>393</ele>
		<time>2011-09-11T12:25:28.969Z</time>
		<geoidheight>347</geoidheight>
	</trkpt>
	<trkpt lat="50.657512" lon="6.200191">
		<ele>393</ele>
		<time>2011-09-11T12:25:29.967Z</time>
		<geoidheight>347</geoidheight>
	</trkpt>
	<trkpt lat="50.657505" lon="6.200206">
		<ele>393</ele>
		<time>2011-09-11T12:25:30.968Z</time>
		<geoidheight>347</geoidheight>
	</trkpt>
	<trkpt lat="50.657497" lon="6.200219">
		<ele>393</ele>
		<time>2011-09-11T12:25:31.966Z</time>
		<geoidheight>347</geoidheight>
	</trkpt>
	<trkpt lat="50.657489" lon="6.200230">
		<ele>393</ele>
		<time>2011-09-11T12:25:32.968Z</time>
		<geoidheight>347</geoidheight>
	</trkpt>
	<trkpt lat="50.657480" lon="6.200241">
		<ele>393</ele>
		<time>2011-09-11T12:25:33.966Z</time>
		<geoidheight>347</geoidheight>
	</trkpt>
	<trkpt lat="50.657470" lon="6.200252">
		<ele>393</ele>
		<time>2011-09-11T12:25:34.978Z</time>
		<geoidheight>347</geoidheight>
	</trkpt>
	<trkpt lat="50.657459" lon="6.200265">
		<ele>393</ele>
		<time>2011-09-11T12:25:35.968Z</time>
		<geoidheight>347</geoidheight>
	</trkpt>
	<trkpt lat="50.657448" lon="6.200278">
		<ele>393</ele>
		<time>2011-09-11T12:25:36.967Z</time>
		<geoidheight>347</geoidheight>
	</trkpt>
	<trkpt lat="50.657437" lon="6.200291">
		<ele>393</ele>
		<time>2011-09-11T12:25:37.970Z</time>
		<geoidheight>347</geoidheight>
	</trkpt>
	<trkpt lat="50.657426" lon="6.200306">
		<ele>393</ele>
		<time>2011-09-11T12:25:38.971Z</time>
		<geoidheight>347</geoidheight>
	</trkpt>
	<trkpt lat="50.657415" lon="6.200320">
		<ele>393</ele>
		<time>2011-09-11T12:25:39.969Z</time>
		<geoidheight>347</geoidheight>
	</trkpt>
	<trkpt lat="50.657405" lon="6.200335">
		<ele>393</ele>
		<time>2011-09-11T12:25:40.970Z</time>
		<geoidheight>347</geoidheight>
	</trkpt>
	<trkpt lat="50.657396" lon="6.200350">
		<ele>393</ele>
		<time>2011-09-11T12:25:41.968Z</time>
		<geoidheight>347</geoidheight>
	</trkpt>
	<trkpt lat="50.657387" lon="6.200363">
		<ele>393</ele>
		<time>2011-09-11T12:25:42.968Z</time>
		<geoidheight>347</geoidheight>
	</trkpt>
	<trkpt lat="50.657377" lon="6.200373">
		<ele>393</ele>
		<time>2011-09-11T12:25:43.969Z</time>
		<geoidheight>347</geoidheight>
	</trkpt>
	<trkpt lat="50.657367" lon="6.200380">
		<ele>393</ele>
		<time>2011-09-11T12:25:44.967Z</time>
		<geoidheight>347</geoidheight>
	</trkpt>
	<trkpt lat="50.657356" lon="6.200387">
		<ele>393</ele>
		<time>2011-09-11T12:25:45.967Z</time>
		<geoidheight>347</geoidheight>
	</trkpt>
	<trkpt lat="50.657348" lon="6.200397">
		<ele>393</ele>
		<time>2011-09-11T12:25:46.968Z</time>
		<geoidheight>347</geoidheight>
	</trkpt>
	<trkpt lat="50.657340" lon="6.200409">
		<ele>393</ele>
		<time>2011-09-11T12:25:47.969Z</time>
		<geoidheight>347</geoidheight>
	</trkpt>
	<trkpt lat="50.657333" lon="6.200422">
		<ele>393</ele>
		<time>2011-09-11T12:25:48.967Z</time>
		<geoidheight>347</geoidheight>
	</trkpt>
	<trkpt lat="50.657326" lon="6.200437">
		<ele>393</ele>
		<time>2011-09-11T12:25:49.967Z</time>
		<geoidheight>347</geoidheight>
	</trkpt>
	<trkpt lat="50.657312" lon="6.200469">
		<ele>393</ele>
		<time>2011-09-11T12:25:50.969Z</time>
		<geoidheight>347</geoidheight>
	</trkpt>
	<trkpt lat="50.657305" lon="6.200485">
		<ele>393</ele>
		<time>2011-09-11T12:25:51.968Z</time>
		<geoidheight>347</geoidheight>
	</trkpt>
	<trkpt lat="50.657295" lon="6.200499">
		<ele>393</ele>
		<time>2011-09-11T12:25:52.967Z</time>
		<geoidheight>347</geoidheight>
	</trkpt>
	<trkpt lat="50.657285" lon="6.200511">
		<ele>393</ele>
		<time>2011-09-11T12:25:53.970Z</time>
		<geoidheight>347</geoidheight>
	</trkpt>
	<trkpt lat="50.657276" lon="6.200523">
		<ele>393</ele>
		<time>2011-09-11T12:25:54.967Z</time>
		<geoidheight>347</geoidheight>
	</trkpt>
	<trkpt lat="50.657266" lon="6.200538">
		<ele>393</ele>
		<time>2011-09-11T12:25:55.968Z</time>
		<geoidheight>347</geoidheight>
	</trkpt>
	<trkpt lat="50.657257" lon="6.200550">
		<ele>393</ele>
		<time>2011-09-11T12:25:56.969Z</time>
		<geoidheight>347</geoidheight>
	</trkpt>
	<trkpt lat="50.657248" lon="6.200561">
		<ele>393</ele>
		<time>2011-09-11T12:25:57.968Z</time>
		<geoidheight>347</geoidheight>
	</trkpt>
	<trkpt lat="50.657241" lon="6.200574">
		<ele>393</ele>
		<time>2011-09-11T12:25:58.969Z</time>
		<geoidheight>347</geoidheight>
	</trkpt>
	<trkpt lat="50.657231" lon="6.200583">
		<ele>393</ele>
		<time>2011-09-11T12:25:59.970Z</time>
		<geoidheight>347</geoidheight>
	</trkpt>
	<trkpt lat="50.657224" lon="6.200594">
		<ele>393</ele>
		<time>2011-09-11T12:26:00.967Z</time>
		<geoidheight>347</geoidheight>
	</trkpt>
	<trkpt lat="50.657218" lon="6.200605">
		<ele>393</ele>
		<time>2011-09-11T12:26:01.967Z</time>
		<geoidheight>347</geoidheight>
	</trkpt>
	<trkpt lat="50.657213" lon="6.200616">
		<ele>393</ele>
		<time>2011-09-11T12:26:02.970Z</time>
		<geoidheight>347</geoidheight>
	</trkpt>
	<trkpt lat="50.657207" lon="6.200626">
		<ele>393</ele>
		<time>2011-09-11T12:26:03.967Z</time>
		<geoidheight>347</geoidheight>
	</trkpt>
	<trkpt lat="50.657202" lon="6.200636">
		<ele>393</ele>
		<time>2011-09-11T12:26:04.970Z</time>
		<geoidheight>347</geoidheight>
	</trkpt>
	<trkpt lat="50.657197" lon="6.200646">
		<ele>393</ele>
		<time>2011-09-11T12:26:05.968Z</time>
		<geoidheight>347</geoidheight>
	</trkpt>
	<trkpt lat="50.657189" lon="6.200658">
		<ele>393</ele>
		<time>2011-09-11T12:26:06.969Z</time>
		<geoidheight>347</geoidheight>
	</trkpt>
	<trkpt lat="50.657181" lon="6.200668">
		<ele>393</ele>
		<time>2011-09-11T12:26:07.967Z</time>
		<geoidheight>347</geoidheight>
	</trkpt>
	<trkpt lat="50.657172" lon="6.200680">
		<ele>393</ele>
		<time>2011-09-11T12:26:08.967Z</time>
		<geoidheight>347</geoidheight>
	</trkpt>
	<trkpt lat="50.657160" lon="6.200692">
		<ele>393</ele>
		<time>2011-09-11T12:26:09.969Z</time>
		<geoidheight>347</geoidheight>
	</trkpt>
	<trkpt lat="50.657149" lon="6.200703">
		<ele>393</ele>
		<time>2011-09-11T12:26:10.967Z</time>
		<geoidheight>347</geoidheight>
	</trkpt>
	<trkpt lat="50.657138" lon="6.200708">
		<ele>393</ele>
		<time>2011-09-11T12:26:11.967Z</time>
		<geoidheight>347</geoidheight>
	</trkpt>
	<trkpt lat="50.657129" lon="6.200713">
		<ele>393</ele>
		<time>2011-09-11T12:26:12.968Z</time>
		<geoidheight>347</geoidheight>
	</trkpt>
	<trkpt lat="50.657121" lon="6.200715">
		<ele>393</ele>
		<time>2011-09-11T12:26:13.967Z</time>
		<geoidheight>347</geoidheight>
	</trkpt>
	<trkpt lat="50.657106" lon="6.200719">
		<ele>393</ele>
		<time>2011-09-11T12:26:14.967Z</time>
		<geoidheight>347</geoidheight>
	</trkpt>
	<trkpt lat="50.657089" lon="6.200718">
		<ele>393</ele>
		<time>2011-09-11T12:26:15.969Z</time>
		<geoidheight>347</geoidheight>
	</trkpt>
	<trkpt lat="50.657078" lon="6.200713">
		<ele>393</ele>
		<time>2011-09-11T12:26:16.966Z</time>
		<geoidheight>347</geoidheight>
	</trkpt>
	<trkpt lat="50.657066" lon="6.200712">
		<ele>393</ele>
		<time>2011-09-11T12:26:17.967Z</time>
		<geoidheight>347</geoidheight>
	</trkpt>
	<trkpt lat="50.657066" lon="6.200712">
		<ele>393</ele>
		<time>2011-09-11T12:26:23.971Z</time>
		<geoidheight>347</geoidheight>
	</trkpt>
	<trkpt lat="50.657034" lon="6.200706">
		<ele>393</ele>
		<time>2011-09-11T12:26:24.968Z</time>
		<geoidheight>347</geoidheight>
	</trkpt>
	<trkpt lat="50.657027" lon="6.200693">
		<ele>393</ele>
		<time>2011-09-11T12:26:25.971Z</time>
		<geoidheight>347</geoidheight>
	</trkpt>
	<trkpt lat="50.657016" lon="6.200683">
		<ele>393</ele>
		<time>2011-09-11T12:26:26.979Z</time>
		<geoidheight>347</geoidheight>
	</trkpt>
	<trkpt lat="50.657004" lon="6.200676">
		<ele>393</ele>
		<time>2011-09-11T12:26:27.968Z</time>
		<geoidheight>347</geoidheight>
	</trkpt>
	<trkpt lat="50.656992" lon="6.200669">
		<ele>393</ele>
		<time>2011-09-11T12:26:28.968Z</time>
		<geoidheight>347</geoidheight>
	</trkpt>
	<trkpt lat="50.656980" lon="6.200660">
		<ele>393</ele>
		<time>2011-09-11T12:26:29.966Z</time>
		<geoidheight>347</geoidheight>
	</trkpt>
	<trkpt lat="50.656969" lon="6.200648">
		<ele>393</ele>
		<time>2011-09-11T12:26:30.968Z</time>
		<geoidheight>347</geoidheight>
	</trkpt>
	<trkpt lat="50.656958" lon="6.200637">
		<ele>393</ele>
		<time>2011-09-11T12:26:31.992Z</time>
		<geoidheight>347</geoidheight>
	</trkpt>
	<trkpt lat="50.656946" lon="6.200625">
		<ele>393</ele>
		<time>2011-09-11T12:26:32.992Z</time>
		<geoidheight>347</geoidheight>
	</trkpt>
	<trkpt lat="50.656936" lon="6.200611">
		<ele>393</ele>
		<time>2011-09-11T12:26:33.976Z</time>
		<geoidheight>347</geoidheight>
	</trkpt>
	<trkpt lat="50.656926" lon="6.200595">
		<ele>393</ele>
		<time>2011-09-11T12:26:34.969Z</time>
		<geoidheight>347</geoidheight>
	</trkpt>
	<trkpt lat="50.656916" lon="6.200578">
		<ele>393</ele>
		<time>2011-09-11T12:26:35.967Z</time>
		<geoidheight>347</geoidheight>
	</trkpt>
	<trkpt lat="50.656906" lon="6.200562">
		<ele>393</ele>
		<time>2011-09-11T12:26:36.967Z</time>
		<geoidheight>347</geoidheight>
	</trkpt>
	<trkpt lat="50.656895" lon="6.200550">
		<ele>393</ele>
		<time>2011-09-11T12:26:37.969Z</time>
		<geoidheight>347</geoidheight>
	</trkpt>
	<trkpt lat="50.656886" lon="6.200535">
		<ele>393</ele>
		<time>2011-09-11T12:26:38.968Z</time>
		<geoidheight>347</geoidheight>
	</trkpt>
	<trkpt lat="50.656876" lon="6.200521">
		<ele>393</ele>
		<time>2011-09-11T12:26:39.968Z</time>
		<geoidheight>347</geoidheight>
	</trkpt>
	<trkpt lat="50.656864" lon="6.200507">
		<ele>393</ele>
		<time>2011-09-11T12:26:40.968Z</time>
		<geoidheight>347</geoidheight>
	</trkpt>
	<trkpt lat="50.656852" lon="6.200490">
		<ele>393</ele>
		<time>2011-09-11T12:26:41.969Z</time>
		<geoidheight>347</geoidheight>
	</trkpt>
	<trkpt lat="50.656840" lon="6.200471">
		<ele>393</ele>
		<time>2011-09-11T12:26:42.967Z</time>
		<geoidheight>347</geoidheight>
	</trkpt>
	<trkpt lat="50.656830" lon="6.200453">
		<ele>393</ele>
		<time>2011-09-11T12:26:43.967Z</time>
		<geoidheight>347</geoidheight>
	</trkpt>
	<trkpt lat="50.656820" lon="6.200439">
		<ele>393</ele>
		<time>2011-09-11T12:26:44.969Z</time>
		<geoidheight>347</geoidheight>
	</trkpt>
	<trkpt lat="50.656809" lon="6.200426">
		<ele>393</ele>
		<time>2011-09-11T12:26:45.969Z</time>
		<geoidheight>347</geoidheight>
	</trkpt>
	<trkpt lat="50.656800" lon="6.200413">
		<ele>393</ele>
		<time>2011-09-11T12:26:46.970Z</time>
		<geoidheight>347</geoidheight>
	</trkpt>
	<trkpt lat="50.656791" lon="6.200399">
		<ele>393</ele>
		<time>2011-09-11T12:26:47.970Z</time>
		<geoidheight>347</geoidheight>
	</trkpt>
	<trkpt lat="50.656783" lon="6.200385">
		<ele>393</ele>
		<time>2011-09-11T12:26:48.968Z</time>
		<geoidheight>347</geoidheight>
	</trkpt>
	<trkpt lat="50.656773" lon="6.200371">
		<ele>393</ele>
		<time>2011-09-11T12:26:49.968Z</time>
		<geoidheight>347</geoidheight>
	</trkpt>
	<trkpt lat="50.656764" lon="6.200357">
		<ele>393</ele>
		<time>2011-09-11T12:26:50.969Z</time>
		<geoidheight>347</geoidheight>
	</trkpt>
	<trkpt lat="50.656754" lon="6.200342">
		<ele>393</ele>
		<time>2011-09-11T12:26:51.968Z</time>
		<geoidheight>347</geoidheight>
	</trkpt>
	<trkpt lat="50.656744" lon="6.200329">
		<ele>393</ele>
		<time>2011-09-11T12:26:52.968Z</time>
		<geoidheight>347</geoidheight>
	</trkpt>
	<trkpt lat="50.656734" lon="6.200314">
		<ele>393</ele>
		<time>2011-09-11T12:26:53.969Z</time>
		<geoidheight>347</geoidheight>
	</trkpt>
	<trkpt lat="50.656723" lon="6.200300">
		<ele>393</ele>
		<time>2011-09-11T12:26:54.968Z</time>
		<geoidheight>347</geoidheight>
	</trkpt>
	<trkpt lat="50.656711" lon="6.200287">
		<ele>393</ele>
		<time>2011-09-11T12:26:55.967Z</time>
		<geoidheight>347</geoidheight>
	</trkpt>
	<trkpt lat="50.656701" lon="6.200272">
		<ele>393</ele>
		<time>2011-09-11T12:26:56.968Z</time>
		<geoidheight>347</geoidheight>
	</trkpt>
	<trkpt lat="50.656689" lon="6.200258">
		<ele>393</ele>
		<time>2011-09-11T12:26:57.969Z</time>
		<geoidheight>347</geoidheight>
	</trkpt>
	<trkpt lat="50.656677" lon="6.200243">
		<ele>393</ele>
		<time>2011-09-11T12:26:58.968Z</time>
		<geoidheight>347</geoidheight>
	</trkpt>
	<trkpt lat="50.656666" lon="6.200228">
		<ele>393</ele>
		<time>2011-09-11T12:26:59.968Z</time>
		<geoidheight>347</geoidheight>
	</trkpt>
	<trkpt lat="50.656654" lon="6.200212">
		<ele>393</ele>
		<time>2011-09-11T12:27:00.970Z</time>
		<geoidheight>347</geoidheight>
	</trkpt>
	<trkpt lat="50.656643" lon="6.200197">
		<ele>393</ele>
		<time>2011-09-11T12:27:01.969Z</time>
		<geoidheight>347</geoidheight>
	</trkpt>
	<trkpt lat="50.656632" lon="6.200186">
		<ele>393</ele>
		<time>2011-09-11T12:27:02.967Z</time>
		<geoidheight>347</geoidheight>
	</trkpt>
	<trkpt lat="50.656621" lon="6.200177">
		<ele>393</ele>
		<time>2011-09-11T12:27:03.970Z</time>
		<geoidheight>347</geoidheight>
	</trkpt>
	<trkpt lat="50.656613" lon="6.200164">
		<ele>393</ele>
		<time>2011-09-11T12:27:04.969Z</time>
		<geoidheight>347</geoidheight>
	</trkpt>
	<trkpt lat="50.656606" lon="6.200154">
		<ele>393</ele>
		<time>2011-09-11T12:27:05.970Z</time>
		<geoidheight>347</geoidheight>
	</trkpt>
	<trkpt lat="50.656599" lon="6.200143">
		<ele>393</ele>
		<time>2011-09-11T12:27:06.975Z</time>
		<geoidheight>347</geoidheight>
	</trkpt>
	<trkpt lat="50.656591" lon="6.200134">
		<ele>393</ele>
		<time>2011-09-11T12:27:07.978Z</time>
		<geoidheight>347</geoidheight>
	</trkpt>
	<trkpt lat="50.656584" lon="6.200125">
		<ele>393</ele>
		<time>2011-09-11T12:27:08.979Z</time>
		<geoidheight>347</geoidheight>
	</trkpt>
	<trkpt lat="50.656577" lon="6.200116">
		<ele>393</ele>
		<time>2011-09-11T12:27:09.979Z</time>
		<geoidheight>347</geoidheight>
	</trkpt>
	<trkpt lat="50.656570" lon="6.200108">
		<ele>393</ele>
		<time>2011-09-11T12:27:10.971Z</time>
		<geoidheight>347</geoidheight>
	</trkpt>
	<trkpt lat="50.656564" lon="6.200099">
		<ele>392</ele>
		<time>2011-09-11T12:27:11.968Z</time>
		<geoidheight>346</geoidheight>
	</trkpt>
	<trkpt lat="50.656557" lon="6.200089">
		<ele>392</ele>
		<time>2011-09-11T12:27:12.973Z</time>
		<geoidheight>346</geoidheight>
	</trkpt>
	<trkpt lat="50.656550" lon="6.200078">
		<ele>392</ele>
		<time>2011-09-11T12:27:13.968Z</time>
		<geoidheight>346</geoidheight>
	</trkpt>
	<trkpt lat="50.656540" lon="6.200074">
		<ele>392</ele>
		<time>2011-09-11T12:27:14.969Z</time>
		<geoidheight>346</geoidheight>
	</trkpt>
	<trkpt lat="50.656528" lon="6.200062">
		<ele>392</ele>
		<time>2011-09-11T12:27:15.967Z</time>
		<geoidheight>346</geoidheight>
	</trkpt>
	<trkpt lat="50.656515" lon="6.200052">
		<ele>392</ele>
		<time>2011-09-11T12:27:16.970Z</time>
		<geoidheight>346</geoidheight>
	</trkpt>
	<trkpt lat="50.656506" lon="6.200041">
		<ele>392</ele>
		<time>2011-09-11T12:27:17.970Z</time>
		<geoidheight>346</geoidheight>
	</trkpt>
	<trkpt lat="50.656498" lon="6.200026">
		<ele>392</ele>
		<time>2011-09-11T12:27:18.969Z</time>
		<geoidheight>346</geoidheight>
	</trkpt>
	<trkpt lat="50.656492" lon="6.200011">
		<ele>392</ele>
		<time>2011-09-11T12:27:19.971Z</time>
		<geoidheight>346</geoidheight>
	</trkpt>
	<trkpt lat="50.656485" lon="6.199996">
		<ele>392</ele>
		<time>2011-09-11T12:27:20.972Z</time>
		<geoidheight>346</geoidheight>
	</trkpt>
	<trkpt lat="50.656479" lon="6.199979">
		<ele>392</ele>
		<time>2011-09-11T12:27:21.969Z</time>
		<geoidheight>346</geoidheight>
	</trkpt>
	<trkpt lat="50.656472" lon="6.199963">
		<ele>392</ele>
		<time>2011-09-11T12:27:22.975Z</time>
		<geoidheight>346</geoidheight>
	</trkpt>
	<trkpt lat="50.656465" lon="6.199947">
		<ele>392</ele>
		<time>2011-09-11T12:27:23.967Z</time>
		<geoidheight>346</geoidheight>
	</trkpt>
	<trkpt lat="50.656460" lon="6.199930">
		<ele>392</ele>
		<time>2011-09-11T12:27:24.969Z</time>
		<geoidheight>346</geoidheight>
	</trkpt>
	<trkpt lat="50.656456" lon="6.199909">
		<ele>392</ele>
		<time>2011-09-11T12:27:25.973Z</time>
		<geoidheight>346</geoidheight>
	</trkpt>
	<trkpt lat="50.656450" lon="6.199889">
		<ele>392</ele>
		<time>2011-09-11T12:27:26.968Z</time>
		<geoidheight>346</geoidheight>
	</trkpt>
	<trkpt lat="50.656443" lon="6.199874">
		<ele>392</ele>
		<time>2011-09-11T12:27:27.974Z</time>
		<geoidheight>346</geoidheight>
	</trkpt>
	<trkpt lat="50.656437" lon="6.199862">
		<ele>392</ele>
		<time>2011-09-11T12:27:28.972Z</time>
		<geoidheight>346</geoidheight>
	</trkpt>
	<trkpt lat="50.656432" lon="6.199851">
		<ele>392</ele>
		<time>2011-09-11T12:27:29.968Z</time>
		<geoidheight>346</geoidheight>
	</trkpt>
	<trkpt lat="50.656428" lon="6.199837">
		<ele>392</ele>
		<time>2011-09-11T12:27:30.968Z</time>
		<geoidheight>346</geoidheight>
	</trkpt>
	<trkpt lat="50.656423" lon="6.199823">
		<ele>392</ele>
		<time>2011-09-11T12:27:31.968Z</time>
		<geoidheight>346</geoidheight>
	</trkpt>
	<trkpt lat="50.656417" lon="6.199809">
		<ele>392</ele>
		<time>2011-09-11T12:27:32.969Z</time>
		<geoidheight>346</geoidheight>
	</trkpt>
	<trkpt lat="50.656411" lon="6.199796">
		<ele>392</ele>
		<time>2011-09-11T12:27:33.968Z</time>
		<geoidheight>346</geoidheight>
	</trkpt>
	<trkpt lat="50.656406" lon="6.199782">
		<ele>392</ele>
		<time>2011-09-11T12:27:34.968Z</time>
		<geoidheight>346</geoidheight>
	</trkpt>
	<trkpt lat="50.656404" lon="6.199767">
		<ele>392</ele>
		<time>2011-09-11T12:27:35.969Z</time>
		<geoidheight>346</geoidheight>
	</trkpt>
	<trkpt lat="50.656403" lon="6.199752">
		<ele>392</ele>
		<time>2011-09-11T12:27:36.968Z</time>
		<geoidheight>346</geoidheight>
	</trkpt>
	<trkpt lat="50.656396" lon="6.199739">
		<ele>392</ele>
		<time>2011-09-11T12:27:37.967Z</time>
		<geoidheight>346</geoidheight>
	</trkpt>
	<trkpt lat="50.656390" lon="6.199727">
		<ele>392</ele>
		<time>2011-09-11T12:27:38.970Z</time>
		<geoidheight>346</geoidheight>
	</trkpt>
	<trkpt lat="50.656383" lon="6.199715">
		<ele>392</ele>
		<time>2011-09-11T12:27:39.967Z</time>
		<geoidheight>346</geoidheight>
	</trkpt>
	<trkpt lat="50.656376" lon="6.199702">
		<ele>392</ele>
		<time>2011-09-11T12:27:40.968Z</time>
		<geoidheight>346</geoidheight>
	</trkpt>
	<trkpt lat="50.656369" lon="6.199689">
		<ele>391</ele>
		<time>2011-09-11T12:27:41.970Z</time>
		<geoidheight>345</geoidheight>
	</trkpt>
	<trkpt lat="50.656363" lon="6.199675">
		<ele>391</ele>
		<time>2011-09-11T12:27:42.968Z</time>
		<geoidheight>345</geoidheight>
	</trkpt>
	<trkpt lat="50.656357" lon="6.199659">
		<ele>391</ele>
		<time>2011-09-11T12:27:43.969Z</time>
		<geoidheight>345</geoidheight>
	</trkpt>
	<trkpt lat="50.656350" lon="6.199643">
		<ele>391</ele>
		<time>2011-09-11T12:27:44.971Z</time>
		<geoidheight>345</geoidheight>
	</trkpt>
	<trkpt lat="50.656342" lon="6.199628">
		<ele>391</ele>
		<time>2011-09-11T12:27:45.969Z</time>
		<geoidheight>345</geoidheight>
	</trkpt>
	<trkpt lat="50.656331" lon="6.199609">
		<ele>391</ele>
		<time>2011-09-11T12:27:46.968Z</time>
		<geoidheight>345</geoidheight>
	</trkpt>
	<trkpt lat="50.656320" lon="6.199591">
		<ele>391</ele>
		<time>2011-09-11T12:27:47.968Z</time>
		<geoidheight>345</geoidheight>
	</trkpt>
	<trkpt lat="50.656307" lon="6.199574">
		<ele>391</ele>
		<time>2011-09-11T12:27:48.968Z</time>
		<geoidheight>345</geoidheight>
	</trkpt>
	<trkpt lat="50.656295" lon="6.199557">
		<ele>391</ele>
		<time>2011-09-11T12:27:49.969Z</time>
		<geoidheight>345</geoidheight>
	</trkpt>
	<trkpt lat="50.656283" lon="6.199540">
		<ele>391</ele>
		<time>2011-09-11T12:27:50.968Z</time>
		<geoidheight>345</geoidheight>
	</trkpt>
	<trkpt lat="50.656271" lon="6.199523">
		<ele>391</ele>
		<time>2011-09-11T12:27:51.970Z</time>
		<geoidheight>345</geoidheight>
	</trkpt>
	<trkpt lat="50.656260" lon="6.199506">
		<ele>391</ele>
		<time>2011-09-11T12:27:52.969Z</time>
		<geoidheight>345</geoidheight>
	</trkpt>
	<trkpt lat="50.656251" lon="6.199490">
		<ele>391</ele>
		<time>2011-09-11T12:27:53.968Z</time>
		<geoidheight>345</geoidheight>
	</trkpt>
	<trkpt lat="50.656240" lon="6.199475">
		<ele>391</ele>
		<time>2011-09-11T12:27:54.970Z</time>
		<geoidheight>345</geoidheight>
	</trkpt>
	<trkpt lat="50.656229" lon="6.199459">
		<ele>391</ele>
		<time>2011-09-11T12:27:55.969Z</time>
		<geoidheight>345</geoidheight>
	</trkpt>
	<trkpt lat="50.656219" lon="6.199441">
		<ele>391</ele>
		<time>2011-09-11T12:27:56.968Z</time>
		<geoidheight>345</geoidheight>
	</trkpt>
	<trkpt lat="50.656209" lon="6.199423">
		<ele>391</ele>
		<time>2011-09-11T12:27:57.971Z</time>
		<geoidheight>345</geoidheight>
	</trkpt>
	<trkpt lat="50.656200" lon="6.199403">
		<ele>391</ele>
		<time>2011-09-11T12:27:58.978Z</time>
		<geoidheight>345</geoidheight>
	</trkpt>
	<trkpt lat="50.656190" lon="6.199385">
		<ele>391</ele>
		<time>2011-09-11T12:27:59.970Z</time>
		<geoidheight>345</geoidheight>
	</trkpt>
	<trkpt lat="50.656183" lon="6.199367">
		<ele>391</ele>
		<time>2011-09-11T12:28:00.973Z</time>
		<geoidheight>345</geoidheight>
	</trkpt>
	<trkpt lat="50.656174" lon="6.199351">
		<ele>391</ele>
		<time>2011-09-11T12:28:01.979Z</time>
		<geoidheight>345</geoidheight>
	</trkpt>
	<trkpt lat="50.656166" lon="6.199334">
		<ele>391</ele>
		<time>2011-09-11T12:28:02.970Z</time>
		<geoidheight>345</geoidheight>
	</trkpt>
	<trkpt lat="50.656156" lon="6.199320">
		<ele>391</ele>
		<time>2011-09-11T12:28:03.971Z</time>
		<geoidheight>345</geoidheight>
	</trkpt>
	<trkpt lat="50.656147" lon="6.199306">
		<ele>391</ele>
		<time>2011-09-11T12:28:04.972Z</time>
		<geoidheight>345</geoidheight>
	</trkpt>
	<trkpt lat="50.656138" lon="6.199293">
		<ele>391</ele>
		<time>2011-09-11T12:28:05.974Z</time>
		<geoidheight>345</geoidheight>
	</trkpt>
	<trkpt lat="50.656130" lon="6.199280">
		<ele>391</ele>
		<time>2011-09-11T12:28:06.970Z</time>
		<geoidheight>345</geoidheight>
	</trkpt>
	<trkpt lat="50.656122" lon="6.199267">
		<ele>391</ele>
		<time>2011-09-11T12:28:07.970Z</time>
		<geoidheight>345</geoidheight>
	</trkpt>
	<trkpt lat="50.656115" lon="6.199252">
		<ele>391</ele>
		<time>2011-09-11T12:28:08.993Z</time>
		<geoidheight>345</geoidheight>
	</trkpt>
	<trkpt lat="50.656109" lon="6.199236">
		<ele>391</ele>
		<time>2011-09-11T12:28:09.970Z</time>
		<geoidheight>345</geoidheight>
	</trkpt>
	<trkpt lat="50.656100" lon="6.199218">
		<ele>391</ele>
		<time>2011-09-11T12:28:10.975Z</time>
		<geoidheight>345</geoidheight>
	</trkpt>
	<trkpt lat="50.656092" lon="6.199204">
		<ele>391</ele>
		<time>2011-09-11T12:28:11.996Z</time>
		<geoidheight>345</geoidheight>
	</trkpt>
	<trkpt lat="50.656082" lon="6.199190">
		<ele>391</ele>
		<time>2011-09-11T12:28:12.969Z</time>
		<geoidheight>345</geoidheight>
	</trkpt>
	<trkpt lat="50.656073" lon="6.199173">
		<ele>391</ele>
		<time>2011-09-11T12:28:13.972Z</time>
		<geoidheight>345</geoidheight>
	</trkpt>
	<trkpt lat="50.656064" lon="6.199159">
		<ele>391</ele>
		<time>2011-09-11T12:28:14.993Z</time>
		<geoidheight>345</geoidheight>
	</trkpt>
	<trkpt lat="50.656054" lon="6.199145">
		<ele>391</ele>
		<time>2011-09-11T12:28:15.974Z</time>
		<geoidheight>345</geoidheight>
	</trkpt>
	<trkpt lat="50.656044" lon="6.199127">
		<ele>391</ele>
		<time>2011-09-11T12:28:16.969Z</time>
		<geoidheight>345</geoidheight>
	</trkpt>
	<trkpt lat="50.656036" lon="6.199108">
		<ele>391</ele>
		<time>2011-09-11T12:28:17.977Z</time>
		<geoidheight>345</geoidheight>
	</trkpt>
	<trkpt lat="50.656028" lon="6.199092">
		<ele>391</ele>
		<time>2011-09-11T12:28:18.970Z</time>
		<geoidheight>345</geoidheight>
	</trkpt>
	<trkpt lat="50.656020" lon="6.199076">
		<ele>391</ele>
		<time>2011-09-11T12:28:19.975Z</time>
		<geoidheight>345</geoidheight>
	</trkpt>
	<trkpt lat="50.656011" lon="6.199062">
		<ele>391</ele>
		<time>2011-09-11T12:28:20.992Z</time>
		<geoidheight>345</geoidheight>
	</trkpt>
	<trkpt lat="50.656001" lon="6.199048">
		<ele>391</ele>
		<time>2011-09-11T12:28:21.970Z</time>
		<geoidheight>345</geoidheight>
	</trkpt>
	<trkpt lat="50.655992" lon="6.199034">
		<ele>391</ele>
		<time>2011-09-11T12:28:22.969Z</time>
		<geoidheight>345</geoidheight>
	</trkpt>
	<trkpt lat="50.655981" lon="6.199020">
		<ele>391</ele>
		<time>2011-09-11T12:28:23.970Z</time>
		<geoidheight>345</geoidheight>
	</trkpt>
	<trkpt lat="50.655970" lon="6.199007">
		<ele>391</ele>
		<time>2011-09-11T12:28:24.968Z</time>
		<geoidheight>345</geoidheight>
	</trkpt>
	<trkpt lat="50.655960" lon="6.198994">
		<ele>391</ele>
		<time>2011-09-11T12:28:25.969Z</time>
		<geoidheight>345</geoidheight>
	</trkpt>
	<trkpt lat="50.655949" lon="6.198981">
		<ele>391</ele>
		<time>2011-09-11T12:28:26.971Z</time>
		<geoidheight>345</geoidheight>
	</trkpt>
	<trkpt lat="50.655939" lon="6.198965">
		<ele>391</ele>
		<time>2011-09-11T12:28:27.969Z</time>
		<geoidheight>345</geoidheight>
	</trkpt>
	<trkpt lat="50.655930" lon="6.198948">
		<ele>391</ele>
		<time>2011-09-11T12:28:28.969Z</time>
		<geoidheight>345</geoidheight>
	</trkpt>
	<trkpt lat="50.655920" lon="6.198930">
		<ele>391</ele>
		<time>2011-09-11T12:28:29.972Z</time>
		<geoidheight>345</geoidheight>
	</trkpt>
	<trkpt lat="50.655911" lon="6.198913">
		<ele>391</ele>
		<time>2011-09-11T12:28:30.975Z</time>
		<geoidheight>345</geoidheight>
	</trkpt>
	<trkpt lat="50.655899" lon="6.198899">
		<ele>391</ele>
		<time>2011-09-11T12:28:31.968Z</time>
		<geoidheight>345</geoidheight>
	</trkpt>
	<trkpt lat="50.655889" lon="6.198882">
		<ele>391</ele>
		<time>2011-09-11T12:28:32.970Z</time>
		<geoidheight>345</geoidheight>
	</trkpt>
	<trkpt lat="50.655878" lon="6.198865">
		<ele>391</ele>
		<time>2011-09-11T12:28:33.980Z</time>
		<geoidheight>345</geoidheight>
	</trkpt>
	<trkpt lat="50.655869" lon="6.198848">
		<ele>391</ele>
		<time>2011-09-11T12:28:34.970Z</time>
		<geoidheight>345</geoidheight>
	</trkpt>
	<trkpt lat="50.655859" lon="6.198831">
		<ele>391</ele>
		<time>2011-09-11T12:28:35.977Z</time>
		<geoidheight>345</geoidheight>
	</trkpt>
	<trkpt lat="50.655848" lon="6.198816">
		<ele>391</ele>
		<time>2011-09-11T12:28:36.968Z</time>
		<geoidheight>345</geoidheight>
	</trkpt>
	<trkpt lat="50.655837" lon="6.198801">
		<ele>391</ele>
		<time>2011-09-11T12:28:37.978Z</time>
		<geoidheight>345</geoidheight>
	</trkpt>
	<trkpt lat="50.655827" lon="6.198784">
		<ele>391</ele>
		<time>2011-09-11T12:28:38.968Z</time>
		<geoidheight>345</geoidheight>
	</trkpt>
	<trkpt lat="50.655815" lon="6.198770">
		<ele>391</ele>
		<time>2011-09-11T12:28:39.970Z</time>
		<geoidheight>345</geoidheight>
	</trkpt>
	<trkpt lat="50.655805" lon="6.198755">
		<ele>391</ele>
		<time>2011-09-11T12:28:40.969Z</time>
		<geoidheight>345</geoidheight>
	</trkpt>
	<trkpt lat="50.655794" lon="6.198738">
		<ele>391</ele>
		<time>2011-09-11T12:28:41.969Z</time>
		<geoidheight>345</geoidheight>
	</trkpt>
	<trkpt lat="50.655782" lon="6.198723">
		<ele>391</ele>
		<time>2011-09-11T12:28:42.971Z</time>
		<geoidheight>345</geoidheight>
	</trkpt>
	<trkpt lat="50.655771" lon="6.198706">
		<ele>391</ele>
		<time>2011-09-11T12:28:43.969Z</time>
		<geoidheight>345</geoidheight>
	</trkpt>
	<trkpt lat="50.655760" lon="6.198689">
		<ele>391</ele>
		<time>2011-09-11T12:28:44.969Z</time>
		<geoidheight>345</geoidheight>
	</trkpt>
	<trkpt lat="50.655748" lon="6.198672">
		<ele>391</ele>
		<time>2011-09-11T12:28:45.972Z</time>
		<geoidheight>345</geoidheight>
	</trkpt>
	<trkpt lat="50.655735" lon="6.198658">
		<ele>391</ele>
		<time>2011-09-11T12:28:46.969Z</time>
		<geoidheight>345</geoidheight>
	</trkpt>
	<trkpt lat="50.655722" lon="6.198645">
		<ele>391</ele>
		<time>2011-09-11T12:28:47.984Z</time>
		<geoidheight>345</geoidheight>
	</trkpt>
	<trkpt lat="50.655710" lon="6.198633">
		<ele>391</ele>
		<time>2011-09-11T12:28:48.973Z</time>
		<geoidheight>345</geoidheight>
	</trkpt>
	<trkpt lat="50.655699" lon="6.198621">
		<ele>391</ele>
		<time>2011-09-11T12:28:49.969Z</time>
		<geoidheight>345</geoidheight>
	</trkpt>
	<trkpt lat="50.655690" lon="6.198608">
		<ele>391</ele>
		<time>2011-09-11T12:28:50.970Z</time>
		<geoidheight>345</geoidheight>
	</trkpt>
	<trkpt lat="50.655682" lon="6.198598">
		<ele>391</ele>
		<time>2011-09-11T12:28:51.971Z</time>
		<geoidheight>345</geoidheight>
	</trkpt>
	<trkpt lat="50.655674" lon="6.198590">
		<ele>391</ele>
		<time>2011-09-11T12:28:52.970Z</time>
		<geoidheight>345</geoidheight>
	</trkpt>
	<trkpt lat="50.655666" lon="6.198579">
		<ele>392</ele>
		<time>2011-09-11T12:28:53.973Z</time>
		<geoidheight>346</geoidheight>
	</trkpt>
	<trkpt lat="50.655658" lon="6.198568">
		<ele>392</ele>
		<time>2011-09-11T12:28:54.972Z</time>
		<geoidheight>346</geoidheight>
	</trkpt>
	<trkpt lat="50.655650" lon="6.198555">
		<ele>392</ele>
		<time>2011-09-11T12:28:55.971Z</time>
		<geoidheight>346</geoidheight>
	</trkpt>
	<trkpt lat="50.655643" lon="6.198540">
		<ele>392</ele>
		<time>2011-09-11T12:28:56.975Z</time>
		<geoidheight>346</geoidheight>
	</trkpt>
	<trkpt lat="50.655635" lon="6.198527">
		<ele>392</ele>
		<time>2011-09-11T12:28:57.974Z</time>
		<geoidheight>346</geoidheight>
	</trkpt>
	<trkpt lat="50.655627" lon="6.198515">
		<ele>392</ele>
		<time>2011-09-11T12:28:58.975Z</time>
		<geoidheight>346</geoidheight>
	</trkpt>
	<trkpt lat="50.655618" lon="6.198505">
		<ele>392</ele>
		<time>2011-09-11T12:28:59.969Z</time>
		<geoidheight>346</geoidheight>
	</trkpt>
	<trkpt lat="50.655610" lon="6.198499">
		<ele>392</ele>
		<time>2011-09-11T12:29:00.974Z</time>
		<geoidheight>346</geoidheight>
	</trkpt>
	<trkpt lat="50.655601" lon="6.198492">
		<ele>392</ele>
		<time>2011-09-11T12:29:01.970Z</time>
		<geoidheight>346</geoidheight>
	</trkpt>
	<trkpt lat="50.655593" lon="6.198482">
		<ele>392</ele>
		<time>2011-09-11T12:29:02.975Z</time>
		<geoidheight>346</geoidheight>
	</trkpt>
	<trkpt lat="50.655586" lon="6.198472">
		<ele>392</ele>
		<time>2011-09-11T12:29:03.971Z</time>
		<geoidheight>346</geoidheight>
	</trkpt>
	<trkpt lat="50.655578" lon="6.198465">
		<ele>392</ele>
		<time>2011-09-11T12:29:04.975Z</time>
		<geoidheight>346</geoidheight>
	</trkpt>
	<trkpt lat="50.655570" lon="6.198457">
		<ele>392</ele>
		<time>2011-09-11T12:29:05.982Z</time>
		<geoidheight>346</geoidheight>
	</trkpt>
	<trkpt lat="50.655562" lon="6.198445">
		<ele>392</ele>
		<time>2011-09-11T12:29:06.981Z</time>
		<geoidheight>346</geoidheight>
	</trkpt>
	<trkpt lat="50.655551" lon="6.198429">
		<ele>392</ele>
		<time>2011-09-11T12:29:07.977Z</time>
		<geoidheight>346</geoidheight>
	</trkpt>
	<trkpt lat="50.655540" lon="6.198417">
		<ele>392</ele>
		<time>2011-09-11T12:29:08.984Z</time>
		<geoidheight>346</geoidheight>
	</trkpt>
	<trkpt lat="50.655531" lon="6.198403">
		<ele>392</ele>
		<time>2011-09-11T12:29:09.978Z</time>
		<geoidheight>346</geoidheight>
	</trkpt>
	<trkpt lat="50.655522" lon="6.198390">
		<ele>392</ele>
		<time>2011-09-11T12:29:10.982Z</time>
		<geoidheight>346</geoidheight>
	</trkpt>
	<trkpt lat="50.655513" lon="6.198377">
		<ele>392</ele>
		<time>2011-09-11T12:29:11.976Z</time>
		<geoidheight>346</geoidheight>
	</trkpt>
	<trkpt lat="50.655503" lon="6.198370">
		<ele>392</ele>
		<time>2011-09-11T12:29:12.984Z</time>
		<geoidheight>346</geoidheight>
	</trkpt>
	<trkpt lat="50.655493" lon="6.198360">
		<ele>392</ele>
		<time>2011-09-11T12:29:13.997Z</time>
		<geoidheight>346</geoidheight>
	</trkpt>
	<trkpt lat="50.655485" lon="6.198350">
		<ele>392</ele>
		<time>2011-09-11T12:29:14.976Z</time>
		<geoidheight>346</geoidheight>
	</trkpt>
	<trkpt lat="50.655475" lon="6.198341">
		<ele>392</ele>
		<time>2011-09-11T12:29:15.986Z</time>
		<geoidheight>346</geoidheight>
	</trkpt>
	<trkpt lat="50.655465" lon="6.198334">
		<ele>392</ele>
		<time>2011-09-11T12:29:16.991Z</time>
		<geoidheight>346</geoidheight>
	</trkpt>
	<trkpt lat="50.655455" lon="6.198329">
		<ele>392</ele>
		<time>2011-09-11T12:29:17.985Z</time>
		<geoidheight>346</geoidheight>
	</trkpt>
	<trkpt lat="50.655442" lon="6.198323">
		<ele>392</ele>
		<time>2011-09-11T12:29:18.983Z</time>
		<geoidheight>346</geoidheight>
	</trkpt>
	<trkpt lat="50.655429" lon="6.198313">
		<ele>392</ele>
		<time>2011-09-11T12:29:19.980Z</time>
		<geoidheight>346</geoidheight>
	</trkpt>
	<trkpt lat="50.655416" lon="6.198301">
		<ele>392</ele>
		<time>2011-09-11T12:29:20.978Z</time>
		<geoidheight>346</geoidheight>
	</trkpt>
	<trkpt lat="50.655404" lon="6.198284">
		<ele>392</ele>
		<time>2011-09-11T12:29:21.993Z</time>
		<geoidheight>346</geoidheight>
	</trkpt>
	<trkpt lat="50.655393" lon="6.198265">
		<ele>392</ele>
		<time>2011-09-11T12:29:22.969Z</time>
		<geoidheight>346</geoidheight>
	</trkpt>
	<trkpt lat="50.655382" lon="6.198246">
		<ele>392</ele>
		<time>2011-09-11T12:29:23.970Z</time>
		<geoidheight>346</geoidheight>
	</trkpt>
	<trkpt lat="50.655371" lon="6.198226">
		<ele>392</ele>
		<time>2011-09-11T12:29:24.969Z</time>
		<geoidheight>346</geoidheight>
	</trkpt>
	<trkpt lat="50.655357" lon="6.198207">
		<ele>392</ele>
		<time>2011-09-11T12:29:25.969Z</time>
		<geoidheight>346</geoidheight>
	</trkpt>
	<trkpt lat="50.655342" lon="6.198190">
		<ele>392</ele>
		<time>2011-09-11T12:29:26.972Z</time>
		<geoidheight>346</geoidheight>
	</trkpt>
	<trkpt lat="50.655328" lon="6.198174">
		<ele>392</ele>
		<time>2011-09-11T12:29:27.970Z</time>
		<geoidheight>346</geoidheight>
	</trkpt>
	<trkpt lat="50.655314" lon="6.198159">
		<ele>392</ele>
		<time>2011-09-11T12:29:28.969Z</time>
		<geoidheight>346</geoidheight>
	</trkpt>
	<trkpt lat="50.655301" lon="6.198146">
		<ele>392</ele>
		<time>2011-09-11T12:29:29.972Z</time>
		<geoidheight>346</geoidheight>
	</trkpt>
	<trkpt lat="50.655289" lon="6.198133">
		<ele>392</ele>
		<time>2011-09-11T12:29:30.970Z</time>
		<geoidheight>346</geoidheight>
	</trkpt>
	<trkpt lat="50.655279" lon="6.198125">
		<ele>392</ele>
		<time>2011-09-11T12:29:31.970Z</time>
		<geoidheight>346</geoidheight>
	</trkpt>
	<trkpt lat="50.655269" lon="6.198116">
		<ele>392</ele>
		<time>2011-09-11T12:29:32.969Z</time>
		<geoidheight>346</geoidheight>
	</trkpt>
	<trkpt lat="50.655256" lon="6.198105">
		<ele>392</ele>
		<time>2011-09-11T12:29:33.971Z</time>
		<geoidheight>346</geoidheight>
	</trkpt>
	<trkpt lat="50.655241" lon="6.198090">
		<ele>392</ele>
		<time>2011-09-11T12:29:34.969Z</time>
		<geoidheight>346</geoidheight>
	</trkpt>
	<trkpt lat="50.655225" lon="6.198072">
		<ele>392</ele>
		<time>2011-09-11T12:29:35.970Z</time>
		<geoidheight>346</geoidheight>
	</trkpt>
	<trkpt lat="50.655209" lon="6.198051">
		<ele>392</ele>
		<time>2011-09-11T12:29:36.970Z</time>
		<geoidheight>346</geoidheight>
	</trkpt>
	<trkpt lat="50.655193" lon="6.198030">
		<ele>392</ele>
		<time>2011-09-11T12:29:37.970Z</time>
		<geoidheight>346</geoidheight>
	</trkpt>
	<trkpt lat="50.655178" lon="6.198012">
		<ele>392</ele>
		<time>2011-09-11T12:29:38.971Z</time>
		<geoidheight>346</geoidheight>
	</trkpt>
	<trkpt lat="50.655163" lon="6.197997">
		<ele>392</ele>
		<time>2011-09-11T12:29:39.971Z</time>
		<geoidheight>346</geoidheight>
	</trkpt>
	<trkpt lat="50.655152" lon="6.197983">
		<ele>392</ele>
		<time>2011-09-11T12:29:40.969Z</time>
		<geoidheight>346</geoidheight>
	</trkpt>
	<trkpt lat="50.655141" lon="6.197968">
		<ele>392</ele>
		<time>2011-09-11T12:29:41.969Z</time>
		<geoidheight>346</geoidheight>
	</trkpt>
	<trkpt lat="50.655130" lon="6.197956">
		<ele>392</ele>
		<time>2011-09-11T12:29:42.973Z</time>
		<geoidheight>346</geoidheight>
	</trkpt>
	<trkpt lat="50.655120" lon="6.197945">
		<ele>392</ele>
		<time>2011-09-11T12:29:43.979Z</time>
		<geoidheight>346</geoidheight>
	</trkpt>
	<trkpt lat="50.655109" lon="6.197939">
		<ele>392</ele>
		<time>2011-09-11T12:29:44.980Z</time>
		<geoidheight>346</geoidheight>
	</trkpt>
	<trkpt lat="50.655098" lon="6.197932">
		<ele>392</ele>
		<time>2011-09-11T12:29:45.971Z</time>
		<geoidheight>346</geoidheight>
	</trkpt>
	<trkpt lat="50.655087" lon="6.197921">
		<ele>392</ele>
		<time>2011-09-11T12:29:46.971Z</time>
		<geoidheight>346</geoidheight>
	</trkpt>
	<trkpt lat="50.655077" lon="6.197910">
		<ele>392</ele>
		<time>2011-09-11T12:29:47.994Z</time>
		<geoidheight>346</geoidheight>
	</trkpt>
	<trkpt lat="50.655068" lon="6.197899">
		<ele>392</ele>
		<time>2011-09-11T12:29:48.996Z</time>
		<geoidheight>346</geoidheight>
	</trkpt>
	<trkpt lat="50.655060" lon="6.197889">
		<ele>392</ele>
		<time>2011-09-11T12:29:49.976Z</time>
		<geoidheight>346</geoidheight>
	</trkpt>
	<trkpt lat="50.655050" lon="6.197886">
		<ele>392</ele>
		<time>2011-09-11T12:29:50.978Z</time>
		<geoidheight>346</geoidheight>
	</trkpt>
	<trkpt lat="50.655039" lon="6.197884">
		<ele>392</ele>
		<time>2011-09-11T12:29:51.980Z</time>
		<geoidheight>346</geoidheight>
	</trkpt>
	<trkpt lat="50.655030" lon="6.197881">
		<ele>392</ele>
		<time>2011-09-11T12:29:52.980Z</time>
		<geoidheight>346</geoidheight>
	</trkpt>
	<trkpt lat="50.655020" lon="6.197881">
		<ele>392</ele>
		<time>2011-09-11T12:29:53.986Z</time>
		<geoidheight>346</geoidheight>
	</trkpt>
	<trkpt lat="50.655010" lon="6.197878">
		<ele>392</ele>
		<time>2011-09-11T12:29:54.980Z</time>
		<geoidheight>346</geoidheight>
	</trkpt>
	<trkpt lat="50.655001" lon="6.197875">
		<ele>392</ele>
		<time>2011-09-11T12:29:55.975Z</time>
		<geoidheight>346</geoidheight>
	</trkpt>
	<trkpt lat="50.654991" lon="6.197873">
		<ele>392</ele>
		<time>2011-09-11T12:29:56.972Z</time>
		<geoidheight>346</geoidheight>
	</trkpt>
	<trkpt lat="50.654980" lon="6.197870">
		<ele>392</ele>
		<time>2011-09-11T12:29:57.969Z</time>
		<geoidheight>346</geoidheight>
	</trkpt>
	<trkpt lat="50.654968" lon="6.197868">
		<ele>392</ele>
		<time>2011-09-11T12:29:58.974Z</time>
		<geoidheight>346</geoidheight>
	</trkpt>
	<trkpt lat="50.654956" lon="6.197864">
		<ele>392</ele>
		<time>2011-09-11T12:29:59.969Z</time>
		<geoidheight>346</geoidheight>
	</trkpt>
	<trkpt lat="50.654944" lon="6.197857">
		<ele>392</ele>
		<time>2011-09-11T12:30:00.970Z</time>
		<geoidheight>346</geoidheight>
	</trkpt>
	<trkpt lat="50.654930" lon="6.197853">
		<ele>392</ele>
		<time>2011-09-11T12:30:01.972Z</time>
		<geoidheight>346</geoidheight>
	</trkpt>
	<trkpt lat="50.654919" lon="6.197843">
		<ele>392</ele>
		<time>2011-09-11T12:30:02.969Z</time>
		<geoidheight>346</geoidheight>
	</trkpt>
	<trkpt lat="50.654908" lon="6.197836">
		<ele>392</ele>
		<time>2011-09-11T12:30:03.970Z</time>
		<geoidheight>346</geoidheight>
	</trkpt>
	<trkpt lat="50.654897" lon="6.197829">
		<ele>392</ele>
		<time>2011-09-11T12:30:04.969Z</time>
		<geoidheight>346</geoidheight>
	</trkpt>
	<trkpt lat="50.654885" lon="6.197824">
		<ele>392</ele>
		<time>2011-09-11T12:30:05.971Z</time>
		<geoidheight>346</geoidheight>
	</trkpt>
	<trkpt lat="50.654873" lon="6.197825">
		<ele>392</ele>
		<time>2011-09-11T12:30:06.969Z</time>
		<geoidheight>346</geoidheight>
	</trkpt>
	<trkpt lat="50.654862" lon="6.197827">
		<ele>392</ele>
		<time>2011-09-11T12:30:07.970Z</time>
		<geoidheight>346</geoidheight>
	</trkpt>
	<trkpt lat="50.654850" lon="6.197828">
		<ele>393</ele>
		<time>2011-09-11T12:30:08.970Z</time>
		<geoidheight>347</geoidheight>
	</trkpt>
	<trkpt lat="50.654838" lon="6.197829">
		<ele>393</ele>
		<time>2011-09-11T12:30:09.970Z</time>
		<geoidheight>347</geoidheight>
	</trkpt>
	<trkpt lat="50.654824" lon="6.197828">
		<ele>393</ele>
		<time>2011-09-11T12:30:10.969Z</time>
		<geoidheight>347</geoidheight>
	</trkpt>
	<trkpt lat="50.654812" lon="6.197827">
		<ele>393</ele>
		<time>2011-09-11T12:30:11.971Z</time>
		<geoidheight>347</geoidheight>
	</trkpt>
	<trkpt lat="50.654799" lon="6.197825">
		<ele>393</ele>
		<time>2011-09-11T12:30:12.972Z</time>
		<geoidheight>347</geoidheight>
	</trkpt>
	<trkpt lat="50.654787" lon="6.197824">
		<ele>393</ele>
		<time>2011-09-11T12:30:13.970Z</time>
		<geoidheight>347</geoidheight>
	</trkpt>
	<trkpt lat="50.654775" lon="6.197827">
		<ele>393</ele>
		<time>2011-09-11T12:30:14.972Z</time>
		<geoidheight>347</geoidheight>
	</trkpt>
	<trkpt lat="50.654763" lon="6.197833">
		<ele>393</ele>
		<time>2011-09-11T12:30:15.970Z</time>
		<geoidheight>347</geoidheight>
	</trkpt>
	<trkpt lat="50.654751" lon="6.197836">
		<ele>393</ele>
		<time>2011-09-11T12:30:16.971Z</time>
		<geoidheight>347</geoidheight>
	</trkpt>
	<trkpt lat="50.654740" lon="6.197840">
		<ele>393</ele>
		<time>2011-09-11T12:30:17.972Z</time>
		<geoidheight>347</geoidheight>
	</trkpt>
	<trkpt lat="50.654731" lon="6.197847">
		<ele>393</ele>
		<time>2011-09-11T12:30:18.970Z</time>
		<geoidheight>347</geoidheight>
	</trkpt>
	<trkpt lat="50.654721" lon="6.197852">
		<ele>392</ele>
		<time>2011-09-11T12:30:19.970Z</time>
		<geoidheight>346</geoidheight>
	</trkpt>
	<trkpt lat="50.654710" lon="6.197866">
		<ele>392</ele>
		<time>2011-09-11T12:30:20.969Z</time>
		<geoidheight>346</geoidheight>
	</trkpt>
	<trkpt lat="50.654699" lon="6.197885">
		<ele>392</ele>
		<time>2011-09-11T12:30:21.970Z</time>
		<geoidheight>346</geoidheight>
	</trkpt>
	<trkpt lat="50.654688" lon="6.197906">
		<ele>392</ele>
		<time>2011-09-11T12:30:22.973Z</time>
		<geoidheight>346</geoidheight>
	</trkpt>
	<trkpt lat="50.654674" lon="6.197920">
		<ele>392</ele>
		<time>2011-09-11T12:30:23.970Z</time>
		<geoidheight>346</geoidheight>
	</trkpt>
	<trkpt lat="50.654661" lon="6.197931">
		<ele>392</ele>
		<time>2011-09-11T12:30:24.970Z</time>
		<geoidheight>346</geoidheight>
	</trkpt>
	<trkpt lat="50.654649" lon="6.197940">
		<ele>392</ele>
		<time>2011-09-11T12:30:25.969Z</time>
		<geoidheight>346</geoidheight>
	</trkpt>
	<trkpt lat="50.654636" lon="6.197945">
		<ele>392</ele>
		<time>2011-09-11T12:30:26.970Z</time>
		<geoidheight>346</geoidheight>
	</trkpt>
	<trkpt lat="50.654623" lon="6.197950">
		<ele>392</ele>
		<time>2011-09-11T12:30:27.972Z</time>
		<geoidheight>346</geoidheight>
	</trkpt>
	<trkpt lat="50.654610" lon="6.197952">
		<ele>392</ele>
		<time>2011-09-11T12:30:28.971Z</time>
		<geoidheight>346</geoidheight>
	</trkpt>
	<trkpt lat="50.654597" lon="6.197955">
		<ele>392</ele>
		<time>2011-09-11T12:30:29.969Z</time>
		<geoidheight>346</geoidheight>
	</trkpt>
	<trkpt lat="50.654585" lon="6.197957">
		<ele>392</ele>
		<time>2011-09-11T12:30:30.972Z</time>
		<geoidheight>346</geoidheight>
	</trkpt>
	<trkpt lat="50.654572" lon="6.197958">
		<ele>392</ele>
		<time>2011-09-11T12:30:31.970Z</time>
		<geoidheight>346</geoidheight>
	</trkpt>
	<trkpt lat="50.654559" lon="6.197958">
		<ele>392</ele>
		<time>2011-09-11T12:30:32.970Z</time>
		<geoidheight>346</geoidheight>
	</trkpt>
	<trkpt lat="50.654545" lon="6.197958">
		<ele>392</ele>
		<time>2011-09-11T12:30:33.972Z</time>
		<geoidheight>346</geoidheight>
	</trkpt>
	<trkpt lat="50.654531" lon="6.197958">
		<ele>391</ele>
		<time>2011-09-11T12:30:34.970Z</time>
		<geoidheight>345</geoidheight>
	</trkpt>
	<trkpt lat="50.654516" lon="6.197955">
		<ele>391</ele>
		<time>2011-09-11T12:30:35.969Z</time>
		<geoidheight>345</geoidheight>
	</trkpt>
	<trkpt lat="50.654503" lon="6.197953">
		<ele>391</ele>
		<time>2011-09-11T12:30:36.972Z</time>
		<geoidheight>345</geoidheight>
	</trkpt>
	<trkpt lat="50.654489" lon="6.197949">
		<ele>391</ele>
		<time>2011-09-11T12:30:37.969Z</time>
		<geoidheight>345</geoidheight>
	</trkpt>
	<trkpt lat="50.654477" lon="6.197942">
		<ele>391</ele>
		<time>2011-09-11T12:30:38.970Z</time>
		<geoidheight>345</geoidheight>
	</trkpt>
	<trkpt lat="50.654464" lon="6.197940">
		<ele>391</ele>
		<time>2011-09-11T12:30:39.969Z</time>
		<geoidheight>345</geoidheight>
	</trkpt>
	<trkpt lat="50.654451" lon="6.197939">
		<ele>391</ele>
		<time>2011-09-11T12:30:40.971Z</time>
		<geoidheight>345</geoidheight>
	</trkpt>
	<trkpt lat="50.654437" lon="6.197935">
		<ele>391</ele>
		<time>2011-09-11T12:30:41.969Z</time>
		<geoidheight>345</geoidheight>
	</trkpt>
	<trkpt lat="50.654424" lon="6.197932">
		<ele>391</ele>
		<time>2011-09-11T12:30:42.971Z</time>
		<geoidheight>345</geoidheight>
	</trkpt>
	<trkpt lat="50.654412" lon="6.197925">
		<ele>391</ele>
		<time>2011-09-11T12:30:43.972Z</time>
		<geoidheight>345</geoidheight>
	</trkpt>
	<trkpt lat="50.654399" lon="6.197917">
		<ele>391</ele>
		<time>2011-09-11T12:30:44.971Z</time>
		<geoidheight>345</geoidheight>
	</trkpt>
	<trkpt lat="50.654386" lon="6.197911">
		<ele>391</ele>
		<time>2011-09-11T12:30:45.969Z</time>
		<geoidheight>345</geoidheight>
	</trkpt>
	<trkpt lat="50.654372" lon="6.197909">
		<ele>391</ele>
		<time>2011-09-11T12:30:46.972Z</time>
		<geoidheight>345</geoidheight>
	</trkpt>
	<trkpt lat="50.654357" lon="6.197909">
		<ele>391</ele>
		<time>2011-09-11T12:30:47.969Z</time>
		<geoidheight>345</geoidheight>
	</trkpt>
	<trkpt lat="50.654341" lon="6.197904">
		<ele>391</ele>
		<time>2011-09-11T12:30:48.971Z</time>
		<geoidheight>345</geoidheight>
	</trkpt>
	<trkpt lat="50.654326" lon="6.197901">
		<ele>391</ele>
		<time>2011-09-11T12:30:49.970Z</time>
		<geoidheight>345</geoidheight>
	</trkpt>
	<trkpt lat="50.654313" lon="6.197898">
		<ele>391</ele>
		<time>2011-09-11T12:30:50.969Z</time>
		<geoidheight>345</geoidheight>
	</trkpt>
	<trkpt lat="50.654300" lon="6.197893">
		<ele>391</ele>
		<time>2011-09-11T12:30:51.969Z</time>
		<geoidheight>345</geoidheight>
	</trkpt>
	<trkpt lat="50.654286" lon="6.197887">
		<ele>391</ele>
		<time>2011-09-11T12:30:52.971Z</time>
		<geoidheight>345</geoidheight>
	</trkpt>
	<trkpt lat="50.654273" lon="6.197879">
		<ele>391</ele>
		<time>2011-09-11T12:30:53.971Z</time>
		<geoidheight>345</geoidheight>
	</trkpt>
	<trkpt lat="50.654258" lon="6.197871">
		<ele>391</ele>
		<time>2011-09-11T12:30:54.970Z</time>
		<geoidheight>345</geoidheight>
	</trkpt>
	<trkpt lat="50.654244" lon="6.197867">
		<ele>391</ele>
		<time>2011-09-11T12:30:55.969Z</time>
		<geoidheight>345</geoidheight>
	</trkpt>
	<trkpt lat="50.654229" lon="6.197860">
		<ele>391</ele>
		<time>2011-09-11T12:30:56.971Z</time>
		<geoidheight>345</geoidheight>
	</trkpt>
	<trkpt lat="50.654215" lon="6.197855">
		<ele>391</ele>
		<time>2011-09-11T12:30:57.970Z</time>
		<geoidheight>345</geoidheight>
	</trkpt>
	<trkpt lat="50.654201" lon="6.197848">
		<ele>391</ele>
		<time>2011-09-11T12:30:58.970Z</time>
		<geoidheight>345</geoidheight>
	</trkpt>
	<trkpt lat="50.654188" lon="6.197841">
		<ele>391</ele>
		<time>2011-09-11T12:30:59.972Z</time>
		<geoidheight>345</geoidheight>
	</trkpt>
	<trkpt lat="50.654175" lon="6.197835">
		<ele>391</ele>
		<time>2011-09-11T12:31:00.969Z</time>
		<geoidheight>345</geoidheight>
	</trkpt>
	<trkpt lat="50.654161" lon="6.197825">
		<ele>391</ele>
		<time>2011-09-11T12:31:01.970Z</time>
		<geoidheight>345</geoidheight>
	</trkpt>
	<trkpt lat="50.654147" lon="6.197814">
		<ele>391</ele>
		<time>2011-09-11T12:31:02.971Z</time>
		<geoidheight>345</geoidheight>
	</trkpt>
	<trkpt lat="50.654132" lon="6.197804">
		<ele>391</ele>
		<time>2011-09-11T12:31:03.970Z</time>
		<geoidheight>345</geoidheight>
	</trkpt>
	<trkpt lat="50.654116" lon="6.197796">
		<ele>391</ele>
		<time>2011-09-11T12:31:04.969Z</time>
		<geoidheight>345</geoidheight>
	</trkpt>
	<trkpt lat="50.654099" lon="6.197788">
		<ele>391</ele>
		<time>2011-09-11T12:31:05.971Z</time>
		<geoidheight>345</geoidheight>
	</trkpt>
	<trkpt lat="50.654080" lon="6.197781">
		<ele>391</ele>
		<time>2011-09-11T12:31:06.969Z</time>
		<geoidheight>345</geoidheight>
	</trkpt>
	<trkpt lat="50.654064" lon="6.197767">
		<ele>391</ele>
		<time>2011-09-11T12:31:07.969Z</time>
		<geoidheight>345</geoidheight>
	</trkpt>
	<trkpt lat="50.654051" lon="6.197753">
		<ele>391</ele>
		<time>2011-09-11T12:31:08.972Z</time>
		<geoidheight>345</geoidheight>
	</trkpt>
	<trkpt lat="50.654038" lon="6.197742">
		<ele>391</ele>
		<time>2011-09-11T12:31:09.971Z</time>
		<geoidheight>345</geoidheight>
	</trkpt>
	<trkpt lat="50.654029" lon="6.197727">
		<ele>391</ele>
		<time>2011-09-11T12:31:10.974Z</time>
		<geoidheight>345</geoidheight>
	</trkpt>
	<trkpt lat="50.654022" lon="6.197713">
		<ele>391</ele>
		<time>2011-09-11T12:31:11.970Z</time>
		<geoidheight>345</geoidheight>
	</trkpt>
	<trkpt lat="50.654014" lon="6.197700">
		<ele>391</ele>
		<time>2011-09-11T12:31:12.981Z</time>
		<geoidheight>345</geoidheight>
	</trkpt>
	<trkpt lat="50.654006" lon="6.197688">
		<ele>391</ele>
		<time>2011-09-11T12:31:13.981Z</time>
		<geoidheight>345</geoidheight>
	</trkpt>
	<trkpt lat="50.654001" lon="6.197673">
		<ele>391</ele>
		<time>2011-09-11T12:31:14.978Z</time>
		<geoidheight>345</geoidheight>
	</trkpt>
	<trkpt lat="50.653997" lon="6.197659">
		<ele>390</ele>
		<time>2011-09-11T12:31:15.994Z</time>
		<geoidheight>344</geoidheight>
	</trkpt>
	<trkpt lat="50.653993" lon="6.197646">
		<ele>390</ele>
		<time>2011-09-11T12:31:16.992Z</time>
		<geoidheight>344</geoidheight>
	</trkpt>
	<trkpt lat="50.653987" lon="6.197634">
		<ele>390</ele>
		<time>2011-09-11T12:31:17.986Z</time>
		<geoidheight>344</geoidheight>
	</trkpt>
	<trkpt lat="50.653982" lon="6.197621">
		<ele>390</ele>
		<time>2011-09-11T12:31:18.982Z</time>
		<geoidheight>344</geoidheight>
	</trkpt>
	<trkpt lat="50.653972" lon="6.197610">
		<ele>390</ele>
		<time>2011-09-11T12:31:19.986Z</time>
		<geoidheight>344</geoidheight>
	</trkpt>
	<trkpt lat="50.653963" lon="6.197602">
		<ele>390</ele>
		<time>2011-09-11T12:31:20.991Z</time>
		<geoidheight>344</geoidheight>
	</trkpt>
	<trkpt lat="50.653953" lon="6.197602">
		<ele>390</ele>
		<time>2011-09-11T12:31:21.982Z</time>
		<geoidheight>344</geoidheight>
	</trkpt>
	<trkpt lat="50.653945" lon="6.197598">
		<ele>390</ele>
		<time>2011-09-11T12:31:22.972Z</time>
		<geoidheight>344</geoidheight>
	</trkpt>
	<trkpt lat="50.653938" lon="6.197596">
		<ele>390</ele>
		<time>2011-09-11T12:31:23.979Z</time>
		<geoidheight>344</geoidheight>
	</trkpt>
	<trkpt lat="50.653934" lon="6.197584">
		<ele>390</ele>
		<time>2011-09-11T12:31:24.972Z</time>
		<geoidheight>344</geoidheight>
	</trkpt>
	<trkpt lat="50.653929" lon="6.197577">
		<ele>390</ele>
		<time>2011-09-11T12:31:25.970Z</time>
		<geoidheight>344</geoidheight>
	</trkpt>
	<trkpt lat="50.653925" lon="6.197570">
		<ele>390</ele>
		<time>2011-09-11T12:31:26.970Z</time>
		<geoidheight>344</geoidheight>
	</trkpt>
	<trkpt lat="50.653919" lon="6.197563">
		<ele>390</ele>
		<time>2011-09-11T12:31:27.973Z</time>
		<geoidheight>344</geoidheight>
	</trkpt>
	<trkpt lat="50.653913" lon="6.197554">
		<ele>390</ele>
		<time>2011-09-11T12:31:28.971Z</time>
		<geoidheight>344</geoidheight>
	</trkpt>
	<trkpt lat="50.653906" lon="6.197546">
		<ele>390</ele>
		<time>2011-09-11T12:31:29.972Z</time>
		<geoidheight>344</geoidheight>
	</trkpt>
	<trkpt lat="50.653898" lon="6.197530">
		<ele>390</ele>
		<time>2011-09-11T12:31:30.969Z</time>
		<geoidheight>344</geoidheight>
	</trkpt>
	<trkpt lat="50.653898" lon="6.197530">
		<ele>390</ele>
		<time>2011-09-11T12:31:33.970Z</time>
		<geoidheight>344</geoidheight>
	</trkpt>
	<trkpt lat="50.653868" lon="6.197473">
		<ele>390</ele>
		<time>2011-09-11T12:31:34.973Z</time>
		<geoidheight>344</geoidheight>
	</trkpt>
	<trkpt lat="50.653857" lon="6.197457">
		<ele>390</ele>
		<time>2011-09-11T12:31:35.969Z</time>
		<geoidheight>344</geoidheight>
	</trkpt>
	<trkpt lat="50.653846" lon="6.197440">
		<ele>390</ele>
		<time>2011-09-11T12:31:36.971Z</time>
		<geoidheight>344</geoidheight>
	</trkpt>
	<trkpt lat="50.653835" lon="6.197421">
		<ele>390</ele>
		<time>2011-09-11T12:31:37.972Z</time>
		<geoidheight>344</geoidheight>
	</trkpt>
	<trkpt lat="50.653824" lon="6.197403">
		<ele>390</ele>
		<time>2011-09-11T12:31:38.971Z</time>
		<geoidheight>344</geoidheight>
	</trkpt>
	<trkpt lat="50.653812" lon="6.197387">
		<ele>390</ele>
		<time>2011-09-11T12:31:39.971Z</time>
		<geoidheight>344</geoidheight>
	</trkpt>
	<trkpt lat="50.653800" lon="6.197373">
		<ele>390</ele>
		<time>2011-09-11T12:31:40.972Z</time>
		<geoidheight>344</geoidheight>
	</trkpt>
	<trkpt lat="50.653800" lon="6.197373">
		<ele>390</ele>
		<time>2011-09-11T12:31:42.970Z</time>
		<geoidheight>344</geoidheight>
	</trkpt>
	<trkpt lat="50.653780" lon="6.197340">
		<ele>390</ele>
		<time>2011-09-11T12:31:43.970Z</time>
		<geoidheight>344</geoidheight>
	</trkpt>
	<trkpt lat="50.653770" lon="6.197322">
		<ele>390</ele>
		<time>2011-09-11T12:31:44.971Z</time>
		<geoidheight>344</geoidheight>
	</trkpt>
	<trkpt lat="50.653762" lon="6.197305">
		<ele>390</ele>
		<time>2011-09-11T12:31:45.970Z</time>
		<geoidheight>344</geoidheight>
	</trkpt>
	<trkpt lat="50.653754" lon="6.197286">
		<ele>390</ele>
		<time>2011-09-11T12:31:46.976Z</time>
		<geoidheight>344</geoidheight>
	</trkpt>
	<trkpt lat="50.653748" lon="6.197268">
		<ele>390</ele>
		<time>2011-09-11T12:31:47.975Z</time>
		<geoidheight>344</geoidheight>
	</trkpt>
	<trkpt lat="50.653742" lon="6.197253">
		<ele>390</ele>
		<time>2011-09-11T12:31:48.985Z</time>
		<geoidheight>344</geoidheight>
	</trkpt>
	<trkpt lat="50.653735" lon="6.197236">
		<ele>390</ele>
		<time>2011-09-11T12:31:49.996Z</time>
		<geoidheight>344</geoidheight>
	</trkpt>
	<trkpt lat="50.653729" lon="6.197219">
		<ele>390</ele>
		<time>2011-09-11T12:31:50.976Z</time>
		<geoidheight>344</geoidheight>
	</trkpt>
	<trkpt lat="50.653722" lon="6.197201">
		<ele>390</ele>
		<time>2011-09-11T12:31:51.984Z</time>
		<geoidheight>344</geoidheight>
	</trkpt>
	<trkpt lat="50.653716" lon="6.197183">
		<ele>390</ele>
		<time>2011-09-11T12:31:52.990Z</time>
		<geoidheight>344</geoidheight>
	</trkpt>
	<trkpt lat="50.653710" lon="6.197163">
		<ele>390</ele>
		<time>2011-09-11T12:31:53.974Z</time>
		<geoidheight>344</geoidheight>
	</trkpt>
	<trkpt lat="50.653703" lon="6.197139">
		<ele>390</ele>
		<time>2011-09-11T12:31:54.970Z</time>
		<geoidheight>344</geoidheight>
	</trkpt>
	<trkpt lat="50.653693" lon="6.197114">
		<ele>390</ele>
		<time>2011-09-11T12:31:55.970Z</time>
		<geoidheight>344</geoidheight>
	</trkpt>
	<trkpt lat="50.653683" lon="6.197082">
		<ele>390</ele>
		<time>2011-09-11T12:31:56.971Z</time>
		<geoidheight>344</geoidheight>
	</trkpt>
	<trkpt lat="50.653672" lon="6.197049">
		<ele>389</ele>
		<time>2011-09-11T12:31:57.969Z</time>
		<geoidheight>343</geoidheight>
	</trkpt>
	<trkpt lat="50.653662" lon="6.197021">
		<ele>389</ele>
		<time>2011-09-11T12:31:58.971Z</time>
		<geoidheight>343</geoidheight>
	</trkpt>
	<trkpt lat="50.653650" lon="6.196997">
		<ele>389</ele>
		<time>2011-09-11T12:31:59.973Z</time>
		<geoidheight>343</geoidheight>
	</trkpt>
	<trkpt lat="50.653639" lon="6.196967">
		<ele>389</ele>
		<time>2011-09-11T12:32:00.969Z</time>
		<geoidheight>343</geoidheight>
	</trkpt>
	<trkpt lat="50.653628" lon="6.196939">
		<ele>389</ele>
		<time>2011-09-11T12:32:01.970Z</time>
		<geoidheight>343</geoidheight>
	</trkpt>
	<trkpt lat="50.653617" lon="6.196914">
		<ele>389</ele>
		<time>2011-09-11T12:32:02.970Z</time>
		<geoidheight>343</geoidheight>
	</trkpt>
	<trkpt lat="50.653605" lon="6.196888">
		<ele>389</ele>
		<time>2011-09-11T12:32:03.969Z</time>
		<geoidheight>343</geoidheight>
	</trkpt>
	<trkpt lat="50.653593" lon="6.196863">
		<ele>389</ele>
		<time>2011-09-11T12:32:04.970Z</time>
		<geoidheight>343</geoidheight>
	</trkpt>
	<trkpt lat="50.653583" lon="6.196840">
		<ele>389</ele>
		<time>2011-09-11T12:32:05.971Z</time>
		<geoidheight>343</geoidheight>
	</trkpt>
	<trkpt lat="50.653571" lon="6.196815">
		<ele>389</ele>
		<time>2011-09-11T12:32:06.971Z</time>
		<geoidheight>343</geoidheight>
	</trkpt>
	<trkpt lat="50.653560" lon="6.196793">
		<ele>389</ele>
		<time>2011-09-11T12:32:07.969Z</time>
		<geoidheight>343</geoidheight>
	</trkpt>
	<trkpt lat="50.653551" lon="6.196773">
		<ele>389</ele>
		<time>2011-09-11T12:32:08.970Z</time>
		<geoidheight>343</geoidheight>
	</trkpt>
	<trkpt lat="50.653544" lon="6.196754">
		<ele>389</ele>
		<time>2011-09-11T12:32:09.971Z</time>
		<geoidheight>343</geoidheight>
	</trkpt>
	<trkpt lat="50.653536" lon="6.196735">
		<ele>389</ele>
		<time>2011-09-11T12:32:10.974Z</time>
		<geoidheight>343</geoidheight>
	</trkpt>
	<trkpt lat="50.653528" lon="6.196714">
		<ele>389</ele>
		<time>2011-09-11T12:32:11.978Z</time>
		<geoidheight>343</geoidheight>
	</trkpt>
	<trkpt lat="50.653518" lon="6.196694">
		<ele>389</ele>
		<time>2011-09-11T12:32:12.993Z</time>
		<geoidheight>343</geoidheight>
	</trkpt>
	<trkpt lat="50.653507" lon="6.196676">
		<ele>389</ele>
		<time>2011-09-11T12:32:13.975Z</time>
		<geoidheight>343</geoidheight>
	</trkpt>
	<trkpt lat="50.653495" lon="6.196655">
		<ele>389</ele>
		<time>2011-09-11T12:32:14.970Z</time>
		<geoidheight>343</geoidheight>
	</trkpt>
	<trkpt lat="50.653483" lon="6.196632">
		<ele>389</ele>
		<time>2011-09-11T12:32:15.972Z</time>
		<geoidheight>343</geoidheight>
	</trkpt>
	<trkpt lat="50.653473" lon="6.196609">
		<ele>389</ele>
		<time>2011-09-11T12:32:16.971Z</time>
		<geoidheight>343</geoidheight>
	</trkpt>
	<trkpt lat="50.653461" lon="6.196593">
		<ele>389</ele>
		<time>2011-09-11T12:32:17.971Z</time>
		<geoidheight>343</geoidheight>
	</trkpt>
	<trkpt lat="50.653451" lon="6.196575">
		<ele>389</ele>
		<time>2011-09-11T12:32:18.970Z</time>
		<geoidheight>343</geoidheight>
	</trkpt>
	<trkpt lat="50.653440" lon="6.196556">
		<ele>389</ele>
		<time>2011-09-11T12:32:19.972Z</time>
		<geoidheight>343</geoidheight>
	</trkpt>
	<trkpt lat="50.653432" lon="6.196533">
		<ele>389</ele>
		<time>2011-09-11T12:32:20.972Z</time>
		<geoidheight>343</geoidheight>
	</trkpt>
	<trkpt lat="50.653423" lon="6.196513">
		<ele>389</ele>
		<time>2011-09-11T12:32:21.981Z</time>
		<geoidheight>343</geoidheight>
	</trkpt>
	<trkpt lat="50.653415" lon="6.196494">
		<ele>389</ele>
		<time>2011-09-11T12:32:22.976Z</time>
		<geoidheight>343</geoidheight>
	</trkpt>
	<trkpt lat="50.653401" lon="6.196474">
		<ele>389</ele>
		<time>2011-09-11T12:32:23.974Z</time>
		<geoidheight>343</geoidheight>
	</trkpt>
	<trkpt lat="50.653388" lon="6.196455">
		<ele>389</ele>
		<time>2011-09-11T12:32:24.970Z</time>
		<geoidheight>343</geoidheight>
	</trkpt>
	<trkpt lat="50.653376" lon="6.196436">
		<ele>389</ele>
		<time>2011-09-11T12:32:25.973Z</time>
		<geoidheight>343</geoidheight>
	</trkpt>
	<trkpt lat="50.653368" lon="6.196422">
		<ele>389</ele>
		<time>2011-09-11T12:32:26.971Z</time>
		<geoidheight>343</geoidheight>
	</trkpt>
	<trkpt lat="50.653360" lon="6.196410">
		<ele>389</ele>
		<time>2011-09-11T12:32:27.974Z</time>
		<geoidheight>343</geoidheight>
	</trkpt>
	<trkpt lat="50.653352" lon="6.196397">
		<ele>389</ele>
		<time>2011-09-11T12:32:28.983Z</time>
		<geoidheight>343</geoidheight>
	</trkpt>
	<trkpt lat="50.653344" lon="6.196386">
		<ele>389</ele>
		<time>2011-09-11T12:32:29.992Z</time>
		<geoidheight>343</geoidheight>
	</trkpt>
	<trkpt lat="50.653335" lon="6.196377">
		<ele>389</ele>
		<time>2011-09-11T12:32:30.990Z</time>
		<geoidheight>343</geoidheight>
	</trkpt>
	<trkpt lat="50.653328" lon="6.196365">
		<ele>389</ele>
		<time>2011-09-11T12:32:31.973Z</time>
		<geoidheight>343</geoidheight>
	</trkpt>
	<trkpt lat="50.653323" lon="6.196350">
		<ele>389</ele>
		<time>2011-09-11T12:32:32.977Z</time>
		<geoidheight>343</geoidheight>
	</trkpt>
	<trkpt lat="50.653317" lon="6.196337">
		<ele>389</ele>
		<time>2011-09-11T12:32:33.972Z</time>
		<geoidheight>343</geoidheight>
	</trkpt>
	<trkpt lat="50.653310" lon="6.196326">
		<ele>389</ele>
		<time>2011-09-11T12:32:34.971Z</time>
		<geoidheight>343</geoidheight>
	</trkpt>
	<trkpt lat="50.653303" lon="6.196317">
		<ele>389</ele>
		<time>2011-09-11T12:32:35.973Z</time>
		<geoidheight>343</geoidheight>
	</trkpt>
	<trkpt lat="50.653296" lon="6.196308">
		<ele>389</ele>
		<time>2011-09-11T12:32:36.970Z</time>
		<geoidheight>343</geoidheight>
	</trkpt>
	<trkpt lat="50.653288" lon="6.196301">
		<ele>389</ele>
		<time>2011-09-11T12:32:37.972Z</time>
		<geoidheight>343</geoidheight>
	</trkpt>
	<trkpt lat="50.653280" lon="6.196293">
		<ele>389</ele>
		<time>2011-09-11T12:32:38.973Z</time>
		<geoidheight>343</geoidheight>
	</trkpt>
	<trkpt lat="50.653271" lon="6.196284">
		<ele>389</ele>
		<time>2011-09-11T12:32:39.970Z</time>
		<geoidheight>343</geoidheight>
	</trkpt>
	<trkpt lat="50.653262" lon="6.196271">
		<ele>389</ele>
		<time>2011-09-11T12:32:40.977Z</time>
		<geoidheight>343</geoidheight>
	</trkpt>
	<trkpt lat="50.653254" lon="6.196256">
		<ele>389</ele>
		<time>2011-09-11T12:32:41.974Z</time>
		<geoidheight>343</geoidheight>
	</trkpt>
	<trkpt lat="50.653244" lon="6.196242">
		<ele>389</ele>
		<time>2011-09-11T12:32:42.973Z</time>
		<geoidheight>343</geoidheight>
	</trkpt>
	<trkpt lat="50.653234" lon="6.196228">
		<ele>389</ele>
		<time>2011-09-11T12:32:43.977Z</time>
		<geoidheight>343</geoidheight>
	</trkpt>
	<trkpt lat="50.653224" lon="6.196216">
		<ele>389</ele>
		<time>2011-09-11T12:32:44.973Z</time>
		<geoidheight>343</geoidheight>
	</trkpt>
	<trkpt lat="50.653215" lon="6.196204">
		<ele>389</ele>
		<time>2011-09-11T12:32:45.976Z</time>
		<geoidheight>343</geoidheight>
	</trkpt>
	<trkpt lat="50.653204" lon="6.196194">
		<ele>389</ele>
		<time>2011-09-11T12:32:46.971Z</time>
		<geoidheight>343</geoidheight>
	</trkpt>
	<trkpt lat="50.653194" lon="6.196183">
		<ele>389</ele>
		<time>2011-09-11T12:32:47.972Z</time>
		<geoidheight>343</geoidheight>
	</trkpt>
	<trkpt lat="50.653186" lon="6.196169">
		<ele>389</ele>
		<time>2011-09-11T12:32:48.971Z</time>
		<geoidheight>343</geoidheight>
	</trkpt>
	<trkpt lat="50.653176" lon="6.196156">
		<ele>389</ele>
		<time>2011-09-11T12:32:49.975Z</time>
		<geoidheight>343</geoidheight>
	</trkpt>
	<trkpt lat="50.653165" lon="6.196142">
		<ele>389</ele>
		<time>2011-09-11T12:32:50.969Z</time>
		<geoidheight>343</geoidheight>
	</trkpt>
	<trkpt lat="50.653155" lon="6.196124">
		<ele>389</ele>
		<time>2011-09-11T12:32:51.976Z</time>
		<geoidheight>343</geoidheight>
	</trkpt>
	<trkpt lat="50.653147" lon="6.196105">
		<ele>389</ele>
		<time>2011-09-11T12:32:52.973Z</time>
		<geoidheight>343</geoidheight>
	</trkpt>
	<trkpt lat="50.653139" lon="6.196084">
		<ele>389</ele>
		<time>2011-09-11T12:32:53.974Z</time>
		<geoidheight>343</geoidheight>
	</trkpt>
	<trkpt lat="50.653130" lon="6.196067">
		<ele>389</ele>
		<time>2011-09-11T12:32:54.978Z</time>
		<geoidheight>343</geoidheight>
	</trkpt>
	<trkpt lat="50.653121" lon="6.196050">
		<ele>389</ele>
		<time>2011-09-11T12:32:55.972Z</time>
		<geoidheight>343</geoidheight>
	</trkpt>
	<trkpt lat="50.653112" lon="6.196031">
		<ele>389</ele>
		<time>2011-09-11T12:32:56.977Z</time>
		<geoidheight>343</geoidheight>
	</trkpt>
	<trkpt lat="50.653103" lon="6.196016">
		<ele>389</ele>
		<time>2011-09-11T12:32:57.991Z</time>
		<geoidheight>343</geoidheight>
	</trkpt>
	<trkpt lat="50.653096" lon="6.196003">
		<ele>389</ele>
		<time>2011-09-11T12:32:58.980Z</time>
		<geoidheight>343</geoidheight>
	</trkpt>
	<trkpt lat="50.653089" lon="6.195988">
		<ele>389</ele>
		<time>2011-09-11T12:32:59.980Z</time>
		<geoidheight>343</geoidheight>
	</trkpt>
	<trkpt lat="50.653082" lon="6.195973">
		<ele>389</ele>
		<time>2011-09-11T12:33:00.980Z</time>
		<geoidheight>343</geoidheight>
	</trkpt>
	<trkpt lat="50.653072" lon="6.195957">
		<ele>389</ele>
		<time>2011-09-11T12:33:01.985Z</time>
		<geoidheight>343</geoidheight>
	</trkpt>
	<trkpt lat="50.653063" lon="6.195940">
		<ele>389</ele>
		<time>2011-09-11T12:33:02.985Z</time>
		<geoidheight>343</geoidheight>
	</trkpt>
	<trkpt lat="50.653054" lon="6.195922">
		<ele>389</ele>
		<time>2011-09-11T12:33:03.976Z</time>
		<geoidheight>343</geoidheight>
	</trkpt>
	<trkpt lat="50.653046" lon="6.195906">
		<ele>389</ele>
		<time>2011-09-11T12:33:04.976Z</time>
		<geoidheight>343</geoidheight>
	</trkpt>
	<trkpt lat="50.653038" lon="6.195891">
		<ele>389</ele>
		<time>2011-09-11T12:33:05.975Z</time>
		<geoidheight>343</geoidheight>
	</trkpt>
	<trkpt lat="50.653031" lon="6.195879">
		<ele>389</ele>
		<time>2011-09-11T12:33:06.981Z</time>
		<geoidheight>343</geoidheight>
	</trkpt>
	<trkpt lat="50.653024" lon="6.195866">
		<ele>389</ele>
		<time>2011-09-11T12:33:07.995Z</time>
		<geoidheight>343</geoidheight>
	</trkpt>
	<trkpt lat="50.653015" lon="6.195855">
		<ele>389</ele>
		<time>2011-09-11T12:33:08.992Z</time>
		<geoidheight>343</geoidheight>
	</trkpt>
	<trkpt lat="50.653007" lon="6.195845">
		<ele>389</ele>
		<time>2011-09-11T12:33:09.991Z</time>
		<geoidheight>343</geoidheight>
	</trkpt>
	<trkpt lat="50.653000" lon="6.195835">
		<ele>389</ele>
		<time>2011-09-11T12:33:10.985Z</time>
		<geoidheight>343</geoidheight>
	</trkpt>
	<trkpt lat="50.652993" lon="6.195824">
		<ele>389</ele>
		<time>2011-09-11T12:33:11.970Z</time>
		<geoidheight>343</geoidheight>
	</trkpt>
	<trkpt lat="50.652988" lon="6.195813">
		<ele>389</ele>
		<time>2011-09-11T12:33:12.976Z</time>
		<geoidheight>343</geoidheight>
	</trkpt>
	<trkpt lat="50.652981" lon="6.195806">
		<ele>389</ele>
		<time>2011-09-11T12:33:13.972Z</time>
		<geoidheight>343</geoidheight>
	</trkpt>
	<trkpt lat="50.652975" lon="6.195797">
		<ele>389</ele>
		<time>2011-09-11T12:33:14.974Z</time>
		<geoidheight>343</geoidheight>
	</trkpt>
	<trkpt lat="50.652967" lon="6.195786">
		<ele>388</ele>
		<time>2011-09-11T12:33:15.976Z</time>
		<geoidheight>342</geoidheight>
	</trkpt>
	<trkpt lat="50.652960" lon="6.195775">
		<ele>388</ele>
		<time>2011-09-11T12:33:16.973Z</time>
		<geoidheight>342</geoidheight>
	</trkpt>
	<trkpt lat="50.652953" lon="6.195765">
		<ele>388</ele>
		<time>2011-09-11T12:33:17.970Z</time>
		<geoidheight>342</geoidheight>
	</trkpt>
	<trkpt lat="50.652952" lon="6.195752">
		<ele>388</ele>
		<time>2011-09-11T12:33:18.972Z</time>
		<geoidheight>342</geoidheight>
	</trkpt>
	<trkpt lat="50.652952" lon="6.195739">
		<ele>388</ele>
		<time>2011-09-11T12:33:19.974Z</time>
		<geoidheight>342</geoidheight>
	</trkpt>
	<trkpt lat="50.652954" lon="6.195729">
		<ele>388</ele>
		<time>2011-09-11T12:33:20.969Z</time>
		<geoidheight>342</geoidheight>
	</trkpt>
	<trkpt lat="50.652957" lon="6.195722">
		<ele>388</ele>
		<time>2011-09-11T12:33:21.982Z</time>
		<geoidheight>342</geoidheight>
	</trkpt>
	<trkpt lat="50.652962" lon="6.195721">
		<ele>388</ele>
		<time>2011-09-11T12:33:30.994Z</time>
		<geoidheight>342</geoidheight>
	</trkpt>
	<trkpt lat="50.652973" lon="6.195652">
		<ele>388</ele>
		<time>2011-09-11T12:33:31.997Z</time>
		<geoidheight>342</geoidheight>
	</trkpt>
	<trkpt lat="50.652977" lon="6.195637">
		<ele>388</ele>
		<time>2011-09-11T12:33:32.997Z</time>
		<geoidheight>342</geoidheight>
	</trkpt>
	<trkpt lat="50.652980" lon="6.195623">
		<ele>388</ele>
		<time>2011-09-11T12:33:33.995Z</time>
		<geoidheight>342</geoidheight>
	</trkpt>
	<trkpt lat="50.652983" lon="6.195610">
		<ele>388</ele>
		<time>2011-09-11T12:33:34.995Z</time>
		<geoidheight>342</geoidheight>
	</trkpt>
	<trkpt lat="50.652984" lon="6.195592">
		<ele>388</ele>
		<time>2011-09-11T12:33:35.995Z</time>
		<geoidheight>342</geoidheight>
	</trkpt>
	<trkpt lat="50.652981" lon="6.195578">
		<ele>388</ele>
		<time>2011-09-11T12:33:36.974Z</time>
		<geoidheight>342</geoidheight>
	</trkpt>
	<trkpt lat="50.652981" lon="6.195560">
		<ele>388</ele>
		<time>2011-09-11T12:33:37.983Z</time>
		<geoidheight>342</geoidheight>
	</trkpt>
	<trkpt lat="50.652980" lon="6.195544">
		<ele>387</ele>
		<time>2011-09-11T12:33:38.976Z</time>
		<geoidheight>341</geoidheight>
	</trkpt>
	<trkpt lat="50.652978" lon="6.195530">
		<ele>387</ele>
		<time>2011-09-11T12:33:39.981Z</time>
		<geoidheight>341</geoidheight>
	</trkpt>
	<trkpt lat="50.652978" lon="6.195516">
		<ele>387</ele>
		<time>2011-09-11T12:33:40.983Z</time>
		<geoidheight>341</geoidheight>
	</trkpt>
	<trkpt lat="50.652978" lon="6.195505">
		<ele>387</ele>
		<time>2011-09-11T12:33:41.978Z</time>
		<geoidheight>341</geoidheight>
	</trkpt>
	<trkpt lat="50.652978" lon="6.195492">
		<ele>387</ele>
		<time>2011-09-11T12:33:42.972Z</time>
		<geoidheight>341</geoidheight>
	</trkpt>
	<trkpt lat="50.652978" lon="6.195481">
		<ele>387</ele>
		<time>2011-09-11T12:33:43.982Z</time>
		<geoidheight>341</geoidheight>
	</trkpt>
	<trkpt lat="50.652980" lon="6.195470">
		<ele>387</ele>
		<time>2011-09-11T12:33:44.979Z</time>
		<geoidheight>341</geoidheight>
	</trkpt>
	<trkpt lat="50.652982" lon="6.195459">
		<ele>387</ele>
		<time>2011-09-11T12:33:45.979Z</time>
		<geoidheight>341</geoidheight>
	</trkpt>
	<trkpt lat="50.652985" lon="6.195450">
		<ele>387</ele>
		<time>2011-09-11T12:33:46.971Z</time>
		<geoidheight>341</geoidheight>
	</trkpt>
	<trkpt lat="50.652985" lon="6.195440">
		<ele>387</ele>
		<time>2011-09-11T12:33:47.981Z</time>
		<geoidheight>341</geoidheight>
	</trkpt>
	<trkpt lat="50.652986" lon="6.195429">
		<ele>387</ele>
		<time>2011-09-11T12:33:48.977Z</time>
		<geoidheight>341</geoidheight>
	</trkpt>
	<trkpt lat="50.652987" lon="6.195418">
		<ele>387</ele>
		<time>2011-09-11T12:33:49.975Z</time>
		<geoidheight>341</geoidheight>
	</trkpt>
	<trkpt lat="50.652988" lon="6.195408">
		<ele>387</ele>
		<time>2011-09-11T12:33:50.969Z</time>
		<geoidheight>341</geoidheight>
	</trkpt>
	<trkpt lat="50.652990" lon="6.195398">
		<ele>387</ele>
		<time>2011-09-11T12:33:51.983Z</time>
		<geoidheight>341</geoidheight>
	</trkpt>
	<trkpt lat="50.652992" lon="6.195388">
		<ele>387</ele>
		<time>2011-09-11T12:33:52.980Z</time>
		<geoidheight>341</geoidheight>
	</trkpt>
	<trkpt lat="50.652993" lon="6.195376">
		<ele>387</ele>
		<time>2011-09-11T12:33:53.975Z</time>
		<geoidheight>341</geoidheight>
	</trkpt>
	<trkpt lat="50.652994" lon="6.195364">
		<ele>387</ele>
		<time>2011-09-11T12:33:54.977Z</time>
		<geoidheight>341</geoidheight>
	</trkpt>
	<trkpt lat="50.652995" lon="6.195352">
		<ele>387</ele>
		<time>2011-09-11T12:33:55.975Z</time>
		<geoidheight>341</geoidheight>
	</trkpt>
	<trkpt lat="50.652995" lon="6.195339">
		<ele>387</ele>
		<time>2011-09-11T12:33:56.972Z</time>
		<geoidheight>341</geoidheight>
	</trkpt>
	<trkpt lat="50.652996" lon="6.195326">
		<ele>387</ele>
		<time>2011-09-11T12:33:57.981Z</time>
		<geoidheight>341</geoidheight>
	</trkpt>
	<trkpt lat="50.652995" lon="6.195313">
		<ele>387</ele>
		<time>2011-09-11T12:33:58.972Z</time>
		<geoidheight>341</geoidheight>
	</trkpt>
	<trkpt lat="50.652996" lon="6.195298">
		<ele>387</ele>
		<time>2011-09-11T12:33:59.971Z</time>
		<geoidheight>341</geoidheight>
	</trkpt>
	<trkpt lat="50.653000" lon="6.195280">
		<ele>387</ele>
		<time>2011-09-11T12:34:00.971Z</time>
		<geoidheight>341</geoidheight>
	</trkpt>
	<trkpt lat="50.652999" lon="6.195257">
		<ele>387</ele>
		<time>2011-09-11T12:34:01.972Z</time>
		<geoidheight>341</geoidheight>
	</trkpt>
	<trkpt lat="50.653001" lon="6.195235">
		<ele>387</ele>
		<time>2011-09-11T12:34:02.971Z</time>
		<geoidheight>341</geoidheight>
	</trkpt>
	<trkpt lat="50.653003" lon="6.195211">
		<ele>387</ele>
		<time>2011-09-11T12:34:03.972Z</time>
		<geoidheight>341</geoidheight>
	</trkpt>
	<trkpt lat="50.653002" lon="6.195185">
		<ele>387</ele>
		<time>2011-09-11T12:34:04.978Z</time>
		<geoidheight>341</geoidheight>
	</trkpt>
	<trkpt lat="50.653002" lon="6.195161">
		<ele>387</ele>
		<time>2011-09-11T12:34:05.974Z</time>
		<geoidheight>341</geoidheight>
	</trkpt>
	<trkpt lat="50.653004" lon="6.195143">
		<ele>387</ele>
		<time>2011-09-11T12:34:06.975Z</time>
		<geoidheight>341</geoidheight>
	</trkpt>
	<trkpt lat="50.653007" lon="6.195124">
		<ele>387</ele>
		<time>2011-09-11T12:34:07.977Z</time>
		<geoidheight>341</geoidheight>
	</trkpt>
	<trkpt lat="50.653010" lon="6.195108">
		<ele>387</ele>
		<time>2011-09-11T12:34:08.994Z</time>
		<geoidheight>341</geoidheight>
	</trkpt>
	<trkpt lat="50.653011" lon="6.195087">
		<ele>387</ele>
		<time>2011-09-11T12:34:09.995Z</time>
		<geoidheight>341</geoidheight>
	</trkpt>
	<trkpt lat="50.653012" lon="6.195067">
		<ele>387</ele>
		<time>2011-09-11T12:34:10.996Z</time>
		<geoidheight>341</geoidheight>
	</trkpt>
	<trkpt lat="50.653014" lon="6.195048">
		<ele>387</ele>
		<time>2011-09-11T12:34:11.997Z</time>
		<geoidheight>341</geoidheight>
	</trkpt>
	<trkpt lat="50.653015" lon="6.195031">
		<ele>387</ele>
		<time>2011-09-11T12:34:12.984Z</time>
		<geoidheight>341</geoidheight>
	</trkpt>
	<trkpt lat="50.653018" lon="6.195015">
		<ele>387</ele>
		<time>2011-09-11T12:34:13.996Z</time>
		<geoidheight>341</geoidheight>
	</trkpt>
	<trkpt lat="50.653019" lon="6.194997">
		<ele>387</ele>
		<time>2011-09-11T12:34:15.004Z</time>
		<geoidheight>341</geoidheight>
	</trkpt>
	<trkpt lat="50.653022" lon="6.194984">
		<ele>387</ele>
		<time>2011-09-11T12:34:15.996Z</time>
		<geoidheight>341</geoidheight>
	</trkpt>
	<trkpt lat="50.653022" lon="6.194984">
		<ele>387</ele>
		<time>2011-09-11T12:34:19.990Z</time>
		<geoidheight>341</geoidheight>
	</trkpt>
	<trkpt lat="50.653030" lon="6.194912">
		<ele>387</ele>
		<time>2011-09-11T12:34:20.974Z</time>
		<geoidheight>341</geoidheight>
	</trkpt>
	<trkpt lat="50.653031" lon="6.194895">
		<ele>387</ele>
		<time>2011-09-11T12:34:21.988Z</time>
		<geoidheight>341</geoidheight>
	</trkpt>
	<trkpt lat="50.653031" lon="6.194895">
		<ele>387</ele>
		<time>2011-09-11T12:34:25.980Z</time>
		<geoidheight>341</geoidheight>
	</trkpt>
	<trkpt lat="50.653037" lon="6.194844">
		<ele>387</ele>
		<time>2011-09-11T12:34:26.980Z</time>
		<geoidheight>341</geoidheight>
	</trkpt>
	<trkpt lat="50.653041" lon="6.194831">
		<ele>387</ele>
		<time>2011-09-11T12:34:27.981Z</time>
		<geoidheight>341</geoidheight>
	</trkpt>
	<trkpt lat="50.653045" lon="6.194821">
		<ele>387</ele>
		<time>2011-09-11T12:34:28.986Z</time>
		<geoidheight>341</geoidheight>
	</trkpt>
	<trkpt lat="50.653051" lon="6.194810">
		<ele>387</ele>
		<time>2011-09-11T12:34:29.979Z</time>
		<geoidheight>341</geoidheight>
	</trkpt>
	<trkpt lat="50.653055" lon="6.194795">
		<ele>387</ele>
		<time>2011-09-11T12:34:30.976Z</time>
		<geoidheight>341</geoidheight>
	</trkpt>
	<trkpt lat="50.653055" lon="6.194779">
		<ele>387</ele>
		<time>2011-09-11T12:34:31.983Z</time>
		<geoidheight>341</geoidheight>
	</trkpt>
	<trkpt lat="50.653056" lon="6.194766">
		<ele>387</ele>
		<time>2011-09-11T12:34:32.974Z</time>
		<geoidheight>341</geoidheight>
	</trkpt>
	<trkpt lat="50.653062" lon="6.194752">
		<ele>387</ele>
		<time>2011-09-11T12:34:33.980Z</time>
		<geoidheight>341</geoidheight>
	</trkpt>
	<trkpt lat="50.653062" lon="6.194752">
		<ele>387</ele>
		<time>2011-09-11T12:34:36.973Z</time>
		<geoidheight>341</geoidheight>
	</trkpt>
	<trkpt lat="50.653080" lon="6.194685">
		<ele>387</ele>
		<time>2011-09-11T12:34:37.975Z</time>
		<geoidheight>341</geoidheight>
	</trkpt>
	<trkpt lat="50.653080" lon="6.194685">
		<ele>386</ele>
		<time>2011-09-11T12:34:38.974Z</time>
		<geoidheight>340</geoidheight>
	</trkpt>
	<trkpt lat="50.653103" lon="6.194618">
		<ele>386</ele>
		<time>2011-09-11T12:34:39.992Z</time>
		<geoidheight>340</geoidheight>
	</trkpt>
	<trkpt lat="50.653113" lon="6.194580">
		<ele>386</ele>
		<time>2011-09-11T12:34:40.986Z</time>
		<geoidheight>340</geoidheight>
	</trkpt>
	<trkpt lat="50.653123" lon="6.194541">
		<ele>386</ele>
		<time>2011-09-11T12:34:41.980Z</time>
		<geoidheight>340</geoidheight>
	</trkpt>
	<trkpt lat="50.653135" lon="6.194510">
		<ele>386</ele>
		<time>2011-09-11T12:34:42.976Z</time>
		<geoidheight>340</geoidheight>
	</trkpt>
	<trkpt lat="50.653135" lon="6.194510">
		<ele>386</ele>
		<time>2011-09-11T12:34:45.985Z</time>
		<geoidheight>340</geoidheight>
	</trkpt>
	<trkpt lat="50.653163" lon="6.194445">
		<ele>386</ele>
		<time>2011-09-11T12:34:46.973Z</time>
		<geoidheight>340</geoidheight>
	</trkpt>
	<trkpt lat="50.653163" lon="6.194445">
		<ele>386</ele>
		<time>2011-09-11T12:34:51.974Z</time>
		<geoidheight>340</geoidheight>
	</trkpt>
	<trkpt lat="50.653195" lon="6.194390">
		<ele>386</ele>
		<time>2011-09-11T12:34:52.974Z</time>
		<geoidheight>340</geoidheight>
	</trkpt>
	<trkpt lat="50.653201" lon="6.194384">
		<ele>386</ele>
		<time>2011-09-11T12:35:00.976Z</time>
		<geoidheight>340</geoidheight>
	</trkpt>
	<trkpt lat="50.653219" lon="6.194322">
		<ele>386</ele>
		<time>2011-09-11T12:35:01.994Z</time>
		<geoidheight>340</geoidheight>
	</trkpt>
	<trkpt lat="50.653221" lon="6.194310">
		<ele>386</ele>
		<time>2011-09-11T12:35:02.987Z</time>
		<geoidheight>340</geoidheight>
	</trkpt>
	<trkpt lat="50.653223" lon="6.194299">
		<ele>386</ele>
		<time>2011-09-11T12:35:03.993Z</time>
		<geoidheight>340</geoidheight>
	</trkpt>
	<trkpt lat="50.653223" lon="6.194287">
		<ele>386</ele>
		<time>2011-09-11T12:35:04.995Z</time>
		<geoidheight>340</geoidheight>
	</trkpt>
	<trkpt lat="50.653224" lon="6.194277">
		<ele>386</ele>
		<time>2011-09-11T12:35:05.981Z</time>
		<geoidheight>340</geoidheight>
	</trkpt>
	<trkpt lat="50.653226" lon="6.194267">
		<ele>386</ele>
		<time>2011-09-11T12:35:06.979Z</time>
		<geoidheight>340</geoidheight>
	</trkpt>
	<trkpt lat="50.653228" lon="6.194259">
		<ele>386</ele>
		<time>2011-09-11T12:35:07.973Z</time>
		<geoidheight>340</geoidheight>
	</trkpt>
	<trkpt lat="50.653228" lon="6.194259">
		<ele>386</ele>
		<time>2011-09-11T12:35:09.971Z</time>
		<geoidheight>340</geoidheight>
	</trkpt>
	<trkpt lat="50.653235" lon="6.194241">
		<ele>386</ele>
		<time>2011-09-11T12:35:10.972Z</time>
		<geoidheight>340</geoidheight>
	</trkpt>
	<trkpt lat="50.653241" lon="6.194232">
		<ele>386</ele>
		<time>2011-09-11T12:35:11.974Z</time>
		<geoidheight>340</geoidheight>
	</trkpt>
	<trkpt lat="50.653246" lon="6.194222">
		<ele>386</ele>
		<time>2011-09-11T12:35:12.973Z</time>
		<geoidheight>340</geoidheight>
	</trkpt>
	<trkpt lat="50.653251" lon="6.194208">
		<ele>386</ele>
		<time>2011-09-11T12:35:13.973Z</time>
		<geoidheight>340</geoidheight>
	</trkpt>
	<trkpt lat="50.653256" lon="6.194193">
		<ele>386</ele>
		<time>2011-09-11T12:35:14.974Z</time>
		<geoidheight>340</geoidheight>
	</trkpt>
	<trkpt lat="50.653256" lon="6.194193">
		<ele>386</ele>
		<time>2011-09-11T12:35:19.982Z</time>
		<geoidheight>340</geoidheight>
	</trkpt>
	<trkpt lat="50.653265" lon="6.194120">
		<ele>386</ele>
		<time>2011-09-11T12:35:20.976Z</time>
		<geoidheight>340</geoidheight>
	</trkpt>
	<trkpt lat="50.653265" lon="6.194120">
		<ele>386</ele>
		<time>2011-09-11T12:35:24.001Z</time>
		<geoidheight>340</geoidheight>
	</trkpt>
	<trkpt lat="50.653296" lon="6.194055">
		<ele>386</ele>
		<time>2011-09-11T12:35:24.991Z</time>
		<geoidheight>340</geoidheight>
	</trkpt>
	<trkpt lat="50.653296" lon="6.194055">
		<ele>386</ele>
		<time>2011-09-11T12:35:28.989Z</time>
		<geoidheight>340</geoidheight>
	</trkpt>
	<trkpt lat="50.653327" lon="6.193991">
		<ele>386</ele>
		<time>2011-09-11T12:35:29.982Z</time>
		<geoidheight>340</geoidheight>
	</trkpt>
	<trkpt lat="50.653327" lon="6.193991">
		<ele>386</ele>
		<time>2011-09-11T12:35:33.989Z</time>
		<geoidheight>340</geoidheight>
	</trkpt>
	<trkpt lat="50.653348" lon="6.193953">
		<ele>387</ele>
		<time>2011-09-11T12:35:34.992Z</time>
		<geoidheight>341</geoidheight>
	</trkpt>
	<trkpt lat="50.653353" lon="6.193941">
		<ele>387</ele>
		<time>2011-09-11T12:35:35.994Z</time>
		<geoidheight>341</geoidheight>
	</trkpt>
	<trkpt lat="50.653360" lon="6.193929">
		<ele>387</ele>
		<time>2011-09-11T12:35:36.981Z</time>
		<geoidheight>341</geoidheight>
	</trkpt>
	<trkpt lat="50.653367" lon="6.193919">
		<ele>387</ele>
		<time>2011-09-11T12:35:37.996Z</time>
		<geoidheight>341</geoidheight>
	</trkpt>
	<trkpt lat="50.653374" lon="6.193910">
		<ele>388</ele>
		<time>2011-09-11T12:35:43.992Z</time>
		<geoidheight>342</geoidheight>
	</trkpt>
	<trkpt lat="50.653399" lon="6.193875">
		<ele>388</ele>
		<time>2011-09-11T12:35:44.984Z</time>
		<geoidheight>342</geoidheight>
	</trkpt>
	<trkpt lat="50.653399" lon="6.193875">
		<ele>388</ele>
		<time>2011-09-11T12:35:45.981Z</time>
		<geoidheight>342</geoidheight>
	</trkpt>
	<trkpt lat="50.653414" lon="6.193865">
		<ele>388</ele>
		<time>2011-09-11T12:35:46.976Z</time>
		<geoidheight>342</geoidheight>
	</trkpt>
	<trkpt lat="50.653419" lon="6.193863">
		<ele>389</ele>
		<time>2011-09-11T12:35:49.978Z</time>
		<geoidheight>343</geoidheight>
	</trkpt>
	<trkpt lat="50.653423" lon="6.193839">
		<ele>389</ele>
		<time>2011-09-11T12:35:50.972Z</time>
		<geoidheight>343</geoidheight>
	</trkpt>
	<trkpt lat="50.653424" lon="6.193831">
		<ele>389</ele>
		<time>2011-09-11T12:35:59.981Z</time>
		<geoidheight>343</geoidheight>
	</trkpt>
	<trkpt lat="50.653442" lon="6.193756">
		<ele>389</ele>
		<time>2011-09-11T12:36:00.980Z</time>
		<geoidheight>343</geoidheight>
	</trkpt>
	<trkpt lat="50.653442" lon="6.193756">
		<ele>389</ele>
		<time>2011-09-11T12:36:03.973Z</time>
		<geoidheight>343</geoidheight>
	</trkpt>
	<trkpt lat="50.653461" lon="6.193679">
		<ele>389</ele>
		<time>2011-09-11T12:36:04.972Z</time>
		<geoidheight>343</geoidheight>
	</trkpt>
	<trkpt lat="50.653461" lon="6.193679">
		<ele>389</ele>
		<time>2011-09-11T12:36:05.973Z</time>
		<geoidheight>343</geoidheight>
	</trkpt>
	<trkpt lat="50.653474" lon="6.193634">
		<ele>389</ele>
		<time>2011-09-11T12:36:06.972Z</time>
		<geoidheight>343</geoidheight>
	</trkpt>
	<trkpt lat="50.653474" lon="6.193634">
		<ele>389</ele>
		<time>2011-09-11T12:36:11.975Z</time>
		<geoidheight>343</geoidheight>
	</trkpt>
	<trkpt lat="50.653501" lon="6.193560">
		<ele>389</ele>
		<time>2011-09-11T12:36:12.973Z</time>
		<geoidheight>343</geoidheight>
	</trkpt>
	<trkpt lat="50.653501" lon="6.193560">
		<ele>389</ele>
		<time>2011-09-11T12:36:14.983Z</time>
		<geoidheight>343</geoidheight>
	</trkpt>
	<trkpt lat="50.653537" lon="6.193487">
		<ele>389</ele>
		<time>2011-09-11T12:36:15.978Z</time>
		<geoidheight>343</geoidheight>
	</trkpt>
	<trkpt lat="50.653548" lon="6.193466">
		<ele>389</ele>
		<time>2011-09-11T12:36:16.987Z</time>
		<geoidheight>343</geoidheight>
	</trkpt>
	<trkpt lat="50.653548" lon="6.193466">
		<ele>389</ele>
		<time>2011-09-11T12:36:17.981Z</time>
		<geoidheight>343</geoidheight>
	</trkpt>
	<trkpt lat="50.653582" lon="6.193398">
		<ele>389</ele>
		<time>2011-09-11T12:36:18.981Z</time>
		<geoidheight>343</geoidheight>
	</trkpt>
	<trkpt lat="50.653596" lon="6.193370">
		<ele>389</ele>
		<time>2011-09-11T12:36:19.979Z</time>
		<geoidheight>343</geoidheight>
	</trkpt>
	<trkpt lat="50.653596" lon="6.193370">
		<ele>389</ele>
		<time>2011-09-11T12:36:20.982Z</time>
		<geoidheight>343</geoidheight>
	</trkpt>
	<trkpt lat="50.653617" lon="6.193323">
		<ele>389</ele>
		<time>2011-09-11T12:36:22.006Z</time>
		<geoidheight>343</geoidheight>
	</trkpt>
	<trkpt lat="50.653623" lon="6.193306">
		<ele>389</ele>
		<time>2011-09-11T12:36:22.993Z</time>
		<geoidheight>343</geoidheight>
	</trkpt>
	<trkpt lat="50.653628" lon="6.193291">
		<ele>389</ele>
		<time>2011-09-11T12:36:23.994Z</time>
		<geoidheight>343</geoidheight>
	</trkpt>
	<trkpt lat="50.653631" lon="6.193283">
		<ele>389</ele>
		<time>2011-09-11T12:36:24.991Z</time>
		<geoidheight>343</geoidheight>
	</trkpt>
	<trkpt lat="50.653633" lon="6.193277">
		<ele>389</ele>
		<time>2011-09-11T12:36:25.997Z</time>
		<geoidheight>343</geoidheight>
	</trkpt>
	<trkpt lat="50.653636" lon="6.193267">
		<ele>389</ele>
		<time>2011-09-11T12:36:27.985Z</time>
		<geoidheight>343</geoidheight>
	</trkpt>
	<trkpt lat="50.653638" lon="6.193264">
		<ele>389</ele>
		<time>2011-09-11T12:36:28.980Z</time>
		<geoidheight>343</geoidheight>
	</trkpt>
	<trkpt lat="50.653641" lon="6.193261">
		<ele>389</ele>
		<time>2011-09-11T12:36:34.991Z</time>
		<geoidheight>343</geoidheight>
	</trkpt>
	<trkpt lat="50.653683" lon="6.193212">
		<ele>389</ele>
		<time>2011-09-11T12:36:35.986Z</time>
		<geoidheight>343</geoidheight>
	</trkpt>
	<trkpt lat="50.653683" lon="6.193212">
		<ele>389</ele>
		<time>2011-09-11T12:36:38.979Z</time>
		<geoidheight>343</geoidheight>
	</trkpt>
	<trkpt lat="50.653715" lon="6.193156">
		<ele>389</ele>
		<time>2011-09-11T12:36:39.984Z</time>
		<geoidheight>343</geoidheight>
	</trkpt>
	<trkpt lat="50.653722" lon="6.193137">
		<ele>389</ele>
		<time>2011-09-11T12:36:40.984Z</time>
		<geoidheight>343</geoidheight>
	</trkpt>
	<trkpt lat="50.653731" lon="6.193120">
		<ele>389</ele>
		<time>2011-09-11T12:36:41.974Z</time>
		<geoidheight>343</geoidheight>
	</trkpt>
	<trkpt lat="50.653739" lon="6.193103">
		<ele>389</ele>
		<time>2011-09-11T12:36:42.993Z</time>
		<geoidheight>343</geoidheight>
	</trkpt>
	<trkpt lat="50.653748" lon="6.193086">
		<ele>389</ele>
		<time>2011-09-11T12:36:43.999Z</time>
		<geoidheight>343</geoidheight>
	</trkpt>
	<trkpt lat="50.653756" lon="6.193068">
		<ele>389</ele>
		<time>2011-09-11T12:36:44.997Z</time>
		<geoidheight>343</geoidheight>
	</trkpt>
	<trkpt lat="50.653765" lon="6.193054">
		<ele>389</ele>
		<time>2011-09-11T12:36:45.990Z</time>
		<geoidheight>343</geoidheight>
	</trkpt>
	<trkpt lat="50.653773" lon="6.193039">
		<ele>389</ele>
		<time>2011-09-11T12:36:46.997Z</time>
		<geoidheight>343</geoidheight>
	</trkpt>
	<trkpt lat="50.653778" lon="6.193022">
		<ele>390</ele>
		<time>2011-09-11T12:36:47.990Z</time>
		<geoidheight>344</geoidheight>
	</trkpt>
	<trkpt lat="50.653784" lon="6.193002">
		<ele>390</ele>
		<time>2011-09-11T12:36:48.996Z</time>
		<geoidheight>344</geoidheight>
	</trkpt>
	<trkpt lat="50.653790" lon="6.192983">
		<ele>390</ele>
		<time>2011-09-11T12:36:49.987Z</time>
		<geoidheight>344</geoidheight>
	</trkpt>
	<trkpt lat="50.653796" lon="6.192964">
		<ele>390</ele>
		<time>2011-09-11T12:36:50.979Z</time>
		<geoidheight>344</geoidheight>
	</trkpt>
	<trkpt lat="50.653803" lon="6.192943">
		<ele>390</ele>
		<time>2011-09-11T12:36:51.980Z</time>
		<geoidheight>344</geoidheight>
	</trkpt>
	<trkpt lat="50.653809" lon="6.192924">
		<ele>390</ele>
		<time>2011-09-11T12:36:52.981Z</time>
		<geoidheight>344</geoidheight>
	</trkpt>
	<trkpt lat="50.653812" lon="6.192902">
		<ele>390</ele>
		<time>2011-09-11T12:36:53.979Z</time>
		<geoidheight>344</geoidheight>
	</trkpt>
	<trkpt lat="50.653813" lon="6.192882">
		<ele>390</ele>
		<time>2011-09-11T12:36:54.980Z</time>
		<geoidheight>344</geoidheight>
	</trkpt>
	<trkpt lat="50.653813" lon="6.192862">
		<ele>390</ele>
		<time>2011-09-11T12:36:55.979Z</time>
		<geoidheight>344</geoidheight>
	</trkpt>
	<trkpt lat="50.653814" lon="6.192842">
		<ele>390</ele>
		<time>2011-09-11T12:36:56.980Z</time>
		<geoidheight>344</geoidheight>
	</trkpt>
	<trkpt lat="50.653816" lon="6.192822">
		<ele>390</ele>
		<time>2011-09-11T12:36:57.983Z</time>
		<geoidheight>344</geoidheight>
	</trkpt>
	<trkpt lat="50.653818" lon="6.192803">
		<ele>390</ele>
		<time>2011-09-11T12:36:58.982Z</time>
		<geoidheight>344</geoidheight>
	</trkpt>
	<trkpt lat="50.653820" lon="6.192785">
		<ele>390</ele>
		<time>2011-09-11T12:36:59.984Z</time>
		<geoidheight>344</geoidheight>
	</trkpt>
	<trkpt lat="50.653823" lon="6.192764">
		<ele>390</ele>
		<time>2011-09-11T12:37:00.980Z</time>
		<geoidheight>344</geoidheight>
	</trkpt>
	<trkpt lat="50.653826" lon="6.192746">
		<ele>390</ele>
		<time>2011-09-11T12:37:01.982Z</time>
		<geoidheight>344</geoidheight>
	</trkpt>
	<trkpt lat="50.653829" lon="6.192728">
		<ele>390</ele>
		<time>2011-09-11T12:37:02.985Z</time>
		<geoidheight>344</geoidheight>
	</trkpt>
	<trkpt lat="50.653832" lon="6.192713">
		<ele>390</ele>
		<time>2011-09-11T12:37:03.978Z</time>
		<geoidheight>344</geoidheight>
	</trkpt>
	<trkpt lat="50.653837" lon="6.192700">
		<ele>390</ele>
		<time>2011-09-11T12:37:04.979Z</time>
		<geoidheight>344</geoidheight>
	</trkpt>
	<trkpt lat="50.653841" lon="6.192686">
		<ele>390</ele>
		<time>2011-09-11T12:37:05.982Z</time>
		<geoidheight>344</geoidheight>
	</trkpt>
	<trkpt lat="50.653844" lon="6.192672">
		<ele>391</ele>
		<time>2011-09-11T12:37:06.984Z</time>
		<geoidheight>345</geoidheight>
	</trkpt>
	<trkpt lat="50.653848" lon="6.192655">
		<ele>391</ele>
		<time>2011-09-11T12:37:07.972Z</time>
		<geoidheight>345</geoidheight>
	</trkpt>
	<trkpt lat="50.653851" lon="6.192633">
		<ele>391</ele>
		<time>2011-09-11T12:37:08.974Z</time>
		<geoidheight>345</geoidheight>
	</trkpt>
	<trkpt lat="50.653856" lon="6.192612">
		<ele>391</ele>
		<time>2011-09-11T12:37:09.974Z</time>
		<geoidheight>345</geoidheight>
	</trkpt>
	<trkpt lat="50.653862" lon="6.192594">
		<ele>391</ele>
		<time>2011-09-11T12:37:10.973Z</time>
		<geoidheight>345</geoidheight>
	</trkpt>
	<trkpt lat="50.653868" lon="6.192571">
		<ele>391</ele>
		<time>2011-09-11T12:37:11.973Z</time>
		<geoidheight>345</geoidheight>
	</trkpt>
	<trkpt lat="50.653878" lon="6.192539">
		<ele>391</ele>
		<time>2011-09-11T12:37:12.979Z</time>
		<geoidheight>345</geoidheight>
	</trkpt>
	<trkpt lat="50.653886" lon="6.192513">
		<ele>391</ele>
		<time>2011-09-11T12:37:13.979Z</time>
		<geoidheight>345</geoidheight>
	</trkpt>
	<trkpt lat="50.653891" lon="6.192486">
		<ele>391</ele>
		<time>2011-09-11T12:37:14.983Z</time>
		<geoidheight>345</geoidheight>
	</trkpt>
	<trkpt lat="50.653895" lon="6.192458">
		<ele>391</ele>
		<time>2011-09-11T12:37:15.986Z</time>
		<geoidheight>345</geoidheight>
	</trkpt>
	<trkpt lat="50.653898" lon="6.192433">
		<ele>391</ele>
		<time>2011-09-11T12:37:16.992Z</time>
		<geoidheight>345</geoidheight>
	</trkpt>
	<trkpt lat="50.653907" lon="6.192417">
		<ele>391</ele>
		<time>2011-09-11T12:37:17.990Z</time>
		<geoidheight>345</geoidheight>
	</trkpt>
	<trkpt lat="50.653915" lon="6.192401">
		<ele>391</ele>
		<time>2011-09-11T12:37:18.982Z</time>
		<geoidheight>345</geoidheight>
	</trkpt>
	<trkpt lat="50.653920" lon="6.192380">
		<ele>391</ele>
		<time>2011-09-11T12:37:19.995Z</time>
		<geoidheight>345</geoidheight>
	</trkpt>
	<trkpt lat="50.653922" lon="6.192354">
		<ele>391</ele>
		<time>2011-09-11T12:37:20.978Z</time>
		<geoidheight>345</geoidheight>
	</trkpt>
	<trkpt lat="50.653927" lon="6.192329">
		<ele>391</ele>
		<time>2011-09-11T12:37:21.991Z</time>
		<geoidheight>345</geoidheight>
	</trkpt>
	<trkpt lat="50.653932" lon="6.192309">
		<ele>391</ele>
		<time>2011-09-11T12:37:22.999Z</time>
		<geoidheight>345</geoidheight>
	</trkpt>
	<trkpt lat="50.653938" lon="6.192294">
		<ele>391</ele>
		<time>2011-09-11T12:37:23.993Z</time>
		<geoidheight>345</geoidheight>
	</trkpt>
	<trkpt lat="50.653941" lon="6.192279">
		<ele>391</ele>
		<time>2011-09-11T12:37:24.987Z</time>
		<geoidheight>345</geoidheight>
	</trkpt>
	<trkpt lat="50.653944" lon="6.192265">
		<ele>392</ele>
		<time>2011-09-11T12:37:25.992Z</time>
		<geoidheight>346</geoidheight>
	</trkpt>
	<trkpt lat="50.653948" lon="6.192251">
		<ele>392</ele>
		<time>2011-09-11T12:37:26.995Z</time>
		<geoidheight>346</geoidheight>
	</trkpt>
	<trkpt lat="50.653948" lon="6.192237">
		<ele>392</ele>
		<time>2011-09-11T12:37:28.001Z</time>
		<geoidheight>346</geoidheight>
	</trkpt>
	<trkpt lat="50.653949" lon="6.192223">
		<ele>392</ele>
		<time>2011-09-11T12:37:28.993Z</time>
		<geoidheight>346</geoidheight>
	</trkpt>
	<trkpt lat="50.653949" lon="6.192212">
		<ele>392</ele>
		<time>2011-09-11T12:37:29.997Z</time>
		<geoidheight>346</geoidheight>
	</trkpt>
	<trkpt lat="50.653956" lon="6.192214">
		<ele>392</ele>
		<time>2011-09-11T12:37:30.978Z</time>
		<geoidheight>346</geoidheight>
	</trkpt>
	<trkpt lat="50.653962" lon="6.192212">
		<ele>392</ele>
		<time>2011-09-11T12:37:31.977Z</time>
		<geoidheight>346</geoidheight>
	</trkpt>
	<trkpt lat="50.653963" lon="6.192197">
		<ele>392</ele>
		<time>2011-09-11T12:37:32.973Z</time>
		<geoidheight>346</geoidheight>
	</trkpt>
	<trkpt lat="50.653962" lon="6.192174">
		<ele>392</ele>
		<time>2011-09-11T12:37:33.972Z</time>
		<geoidheight>346</geoidheight>
	</trkpt>
	<trkpt lat="50.653961" lon="6.192152">
		<ele>392</ele>
		<time>2011-09-11T12:37:34.974Z</time>
		<geoidheight>346</geoidheight>
	</trkpt>
	<trkpt lat="50.653963" lon="6.192130">
		<ele>392</ele>
		<time>2011-09-11T12:37:35.984Z</time>
		<geoidheight>346</geoidheight>
	</trkpt>
	<trkpt lat="50.653966" lon="6.192107">
		<ele>392</ele>
		<time>2011-09-11T12:37:36.980Z</time>
		<geoidheight>346</geoidheight>
	</trkpt>
	<trkpt lat="50.653968" lon="6.192085">
		<ele>392</ele>
		<time>2011-09-11T12:37:37.990Z</time>
		<geoidheight>346</geoidheight>
	</trkpt>
	<trkpt lat="50.653971" lon="6.192065">
		<ele>392</ele>
		<time>2011-09-11T12:37:38.977Z</time>
		<geoidheight>346</geoidheight>
	</trkpt>
	<trkpt lat="50.653973" lon="6.192045">
		<ele>392</ele>
		<time>2011-09-11T12:37:39.974Z</time>
		<geoidheight>346</geoidheight>
	</trkpt>
	<trkpt lat="50.653975" lon="6.192024">
		<ele>392</ele>
		<time>2011-09-11T12:37:40.992Z</time>
		<geoidheight>346</geoidheight>
	</trkpt>
	<trkpt lat="50.653976" lon="6.192005">
		<ele>392</ele>
		<time>2011-09-11T12:37:41.994Z</time>
		<geoidheight>346</geoidheight>
	</trkpt>
	<trkpt lat="50.653981" lon="6.191988">
		<ele>392</ele>
		<time>2011-09-11T12:37:43.000Z</time>
		<geoidheight>346</geoidheight>
	</trkpt>
	<trkpt lat="50.653988" lon="6.191973">
		<ele>392</ele>
		<time>2011-09-11T12:37:43.995Z</time>
		<geoidheight>346</geoidheight>
	</trkpt>
	<trkpt lat="50.653993" lon="6.191956">
		<ele>392</ele>
		<time>2011-09-11T12:37:44.979Z</time>
		<geoidheight>346</geoidheight>
	</trkpt>
	<trkpt lat="50.653998" lon="6.191937">
		<ele>392</ele>
		<time>2011-09-11T12:37:45.983Z</time>
		<geoidheight>346</geoidheight>
	</trkpt>
	<trkpt lat="50.654002" lon="6.191920">
		<ele>392</ele>
		<time>2011-09-11T12:37:46.990Z</time>
		<geoidheight>346</geoidheight>
	</trkpt>
	<trkpt lat="50.654004" lon="6.191902">
		<ele>392</ele>
		<time>2011-09-11T12:37:47.975Z</time>
		<geoidheight>346</geoidheight>
	</trkpt>
	<trkpt lat="50.654005" lon="6.191885">
		<ele>392</ele>
		<time>2011-09-11T12:37:48.974Z</time>
		<geoidheight>346</geoidheight>
	</trkpt>
	<trkpt lat="50.654005" lon="6.191869">
		<ele>392</ele>
		<time>2011-09-11T12:37:49.974Z</time>
		<geoidheight>346</geoidheight>
	</trkpt>
	<trkpt lat="50.654005" lon="6.191869">
		<ele>393</ele>
		<time>2011-09-11T12:37:54.985Z</time>
		<geoidheight>347</geoidheight>
	</trkpt>
	<trkpt lat="50.654026" lon="6.191800">
		<ele>393</ele>
		<time>2011-09-11T12:37:55.998Z</time>
		<geoidheight>347</geoidheight>
	</trkpt>
	<trkpt lat="50.654026" lon="6.191800">
		<ele>393</ele>
		<time>2011-09-11T12:37:57.995Z</time>
		<geoidheight>347</geoidheight>
	</trkpt>
	<trkpt lat="50.654044" lon="6.191750">
		<ele>393</ele>
		<time>2011-09-11T12:37:58.995Z</time>
		<geoidheight>347</geoidheight>
	</trkpt>
	<trkpt lat="50.654052" lon="6.191730">
		<ele>393</ele>
		<time>2011-09-11T12:37:59.995Z</time>
		<geoidheight>347</geoidheight>
	</trkpt>
	<trkpt lat="50.654052" lon="6.191730">
		<ele>393</ele>
		<time>2011-09-11T12:38:00.996Z</time>
		<geoidheight>347</geoidheight>
	</trkpt>
	<trkpt lat="50.654066" lon="6.191689">
		<ele>393</ele>
		<time>2011-09-11T12:38:01.991Z</time>
		<geoidheight>347</geoidheight>
	</trkpt>
	<trkpt lat="50.654073" lon="6.191670">
		<ele>394</ele>
		<time>2011-09-11T12:38:02.994Z</time>
		<geoidheight>348</geoidheight>
	</trkpt>
	<trkpt lat="50.654080" lon="6.191652">
		<ele>394</ele>
		<time>2011-09-11T12:38:03.997Z</time>
		<geoidheight>348</geoidheight>
	</trkpt>
	<trkpt lat="50.654087" lon="6.191632">
		<ele>394</ele>
		<time>2011-09-11T12:38:04.994Z</time>
		<geoidheight>348</geoidheight>
	</trkpt>
	<trkpt lat="50.654092" lon="6.191614">
		<ele>394</ele>
		<time>2011-09-11T12:38:05.983Z</time>
		<geoidheight>348</geoidheight>
	</trkpt>
	<trkpt lat="50.654094" lon="6.191594">
		<ele>394</ele>
		<time>2011-09-11T12:38:06.996Z</time>
		<geoidheight>348</geoidheight>
	</trkpt>
	<trkpt lat="50.654094" lon="6.191594">
		<ele>395</ele>
		<time>2011-09-11T12:38:09.981Z</time>
		<geoidheight>349</geoidheight>
	</trkpt>
	<trkpt lat="50.654103" lon="6.191522">
		<ele>395</ele>
		<time>2011-09-11T12:38:10.981Z</time>
		<geoidheight>349</geoidheight>
	</trkpt>
	<trkpt lat="50.654103" lon="6.191522">
		<ele>395</ele>
		<time>2011-09-11T12:38:12.995Z</time>
		<geoidheight>349</geoidheight>
	</trkpt>
	<trkpt lat="50.654113" lon="6.191446">
		<ele>395</ele>
		<time>2011-09-11T12:38:13.996Z</time>
		<geoidheight>349</geoidheight>
	</trkpt>
	<trkpt lat="50.654113" lon="6.191446">
		<ele>395</ele>
		<time>2011-09-11T12:38:15.990Z</time>
		<geoidheight>349</geoidheight>
	</trkpt>
	<trkpt lat="50.654125" lon="6.191372">
		<ele>396</ele>
		<time>2011-09-11T12:38:16.996Z</time>
		<geoidheight>350</geoidheight>
	</trkpt>
	<trkpt lat="50.654125" lon="6.191372">
		<ele>396</ele>
		<time>2011-09-11T12:38:19.991Z</time>
		<geoidheight>350</geoidheight>
	</trkpt>
	<trkpt lat="50.654132" lon="6.191295">
		<ele>396</ele>
		<time>2011-09-11T12:38:20.992Z</time>
		<geoidheight>350</geoidheight>
	</trkpt>
	<trkpt lat="50.654132" lon="6.191295">
		<ele>396</ele>
		<time>2011-09-11T12:38:23.991Z</time>
		<geoidheight>350</geoidheight>
	</trkpt>
	<trkpt lat="50.654117" lon="6.191209">
		<ele>396</ele>
		<time>2011-09-11T12:38:24.990Z</time>
		<geoidheight>350</geoidheight>
	</trkpt>
	<trkpt lat="50.654117" lon="6.191209">
		<ele>396</ele>
		<time>2011-09-11T12:38:26.979Z</time>
		<geoidheight>350</geoidheight>
	</trkpt>
	<trkpt lat="50.654103" lon="6.191123">
		<ele>396</ele>
		<time>2011-09-11T12:38:27.974Z</time>
		<geoidheight>350</geoidheight>
	</trkpt>
	<trkpt lat="50.654103" lon="6.191123">
		<ele>396</ele>
		<time>2011-09-11T12:38:28.981Z</time>
		<geoidheight>350</geoidheight>
	</trkpt>
	<trkpt lat="50.654090" lon="6.191054">
		<ele>396</ele>
		<time>2011-09-11T12:38:29.990Z</time>
		<geoidheight>350</geoidheight>
	</trkpt>
	<trkpt lat="50.654083" lon="6.191016">
		<ele>396</ele>
		<time>2011-09-11T12:38:30.995Z</time>
		<geoidheight>350</geoidheight>
	</trkpt>
	<trkpt lat="50.654075" lon="6.190974">
		<ele>396</ele>
		<time>2011-09-11T12:38:31.983Z</time>
		<geoidheight>350</geoidheight>
	</trkpt>
	<trkpt lat="50.654065" lon="6.190934">
		<ele>396</ele>
		<time>2011-09-11T12:38:32.984Z</time>
		<geoidheight>350</geoidheight>
	</trkpt>
	<trkpt lat="50.654054" lon="6.190896">
		<ele>396</ele>
		<time>2011-09-11T12:38:33.982Z</time>
		<geoidheight>350</geoidheight>
	</trkpt>
	<trkpt lat="50.654044" lon="6.190862">
		<ele>396</ele>
		<time>2011-09-11T12:38:34.977Z</time>
		<geoidheight>350</geoidheight>
	</trkpt>
	<trkpt lat="50.654036" lon="6.190832">
		<ele>396</ele>
		<time>2011-09-11T12:38:35.985Z</time>
		<geoidheight>350</geoidheight>
	</trkpt>
	<trkpt lat="50.654030" lon="6.190806">
		<ele>396</ele>
		<time>2011-09-11T12:38:36.976Z</time>
		<geoidheight>350</geoidheight>
	</trkpt>
	<trkpt lat="50.654025" lon="6.190785">
		<ele>396</ele>
		<time>2011-09-11T12:38:37.973Z</time>
		<geoidheight>350</geoidheight>
	</trkpt>
	<trkpt lat="50.654020" lon="6.190766">
		<ele>396</ele>
		<time>2011-09-11T12:38:38.975Z</time>
		<geoidheight>350</geoidheight>
	</trkpt>
	<trkpt lat="50.654016" lon="6.190748">
		<ele>395</ele>
		<time>2011-09-11T12:38:39.973Z</time>
		<geoidheight>349</geoidheight>
	</trkpt>
	<trkpt lat="50.654013" lon="6.190730">
		<ele>395</ele>
		<time>2011-09-11T12:38:40.973Z</time>
		<geoidheight>349</geoidheight>
	</trkpt>
	<trkpt lat="50.654010" lon="6.190712">
		<ele>395</ele>
		<time>2011-09-11T12:38:41.976Z</time>
		<geoidheight>349</geoidheight>
	</trkpt>
	<trkpt lat="50.654006" lon="6.190695">
		<ele>395</ele>
		<time>2011-09-11T12:38:42.975Z</time>
		<geoidheight>349</geoidheight>
	</trkpt>
	<trkpt lat="50.654003" lon="6.190677">
		<ele>395</ele>
		<time>2011-09-11T12:38:43.974Z</time>
		<geoidheight>349</geoidheight>
	</trkpt>
	<trkpt lat="50.654000" lon="6.190658">
		<ele>395</ele>
		<time>2011-09-11T12:38:44.980Z</time>
		<geoidheight>349</geoidheight>
	</trkpt>
	<trkpt lat="50.653998" lon="6.190642">
		<ele>395</ele>
		<time>2011-09-11T12:38:45.981Z</time>
		<geoidheight>349</geoidheight>
	</trkpt>
	<trkpt lat="50.653994" lon="6.190626">
		<ele>395</ele>
		<time>2011-09-11T12:38:46.973Z</time>
		<geoidheight>349</geoidheight>
	</trkpt>
	<trkpt lat="50.653991" lon="6.190611">
		<ele>395</ele>
		<time>2011-09-11T12:38:47.983Z</time>
		<geoidheight>349</geoidheight>
	</trkpt>
	<trkpt lat="50.653991" lon="6.190611">
		<ele>395</ele>
		<time>2011-09-11T12:38:51.993Z</time>
		<geoidheight>349</geoidheight>
	</trkpt>
	<trkpt lat="50.653978" lon="6.190534">
		<ele>395</ele>
		<time>2011-09-11T12:38:52.992Z</time>
		<geoidheight>349</geoidheight>
	</trkpt>
	<trkpt lat="50.653978" lon="6.190534">
		<ele>395</ele>
		<time>2011-09-11T12:38:57.006Z</time>
		<geoidheight>349</geoidheight>
	</trkpt>
	<trkpt lat="50.653960" lon="6.190452">
		<ele>395</ele>
		<time>2011-09-11T12:38:57.989Z</time>
		<geoidheight>349</geoidheight>
	</trkpt>
	<trkpt lat="50.653960" lon="6.190452">
		<ele>395</ele>
		<time>2011-09-11T12:39:00.985Z</time>
		<geoidheight>349</geoidheight>
	</trkpt>
	<trkpt lat="50.653935" lon="6.190382">
		<ele>395</ele>
		<time>2011-09-11T12:39:01.980Z</time>
		<geoidheight>349</geoidheight>
	</trkpt>
	<trkpt lat="50.653935" lon="6.190382">
		<ele>395</ele>
		<time>2011-09-11T12:39:03.980Z</time>
		<geoidheight>349</geoidheight>
	</trkpt>
	<trkpt lat="50.653907" lon="6.190333">
		<ele>395</ele>
		<time>2011-09-11T12:39:04.978Z</time>
		<geoidheight>349</geoidheight>
	</trkpt>
	<trkpt lat="50.653896" lon="6.190319">
		<ele>395</ele>
		<time>2011-09-11T12:39:05.983Z</time>
		<geoidheight>349</geoidheight>
	</trkpt>
	<trkpt lat="50.653887" lon="6.190308">
		<ele>395</ele>
		<time>2011-09-11T12:39:06.985Z</time>
		<geoidheight>349</geoidheight>
	</trkpt>
	<trkpt lat="50.653879" lon="6.190298">
		<ele>395</ele>
		<time>2011-09-11T12:39:07.981Z</time>
		<geoidheight>349</geoidheight>
	</trkpt>
	<trkpt lat="50.653871" lon="6.190285">
		<ele>395</ele>
		<time>2011-09-11T12:39:08.974Z</time>
		<geoidheight>349</geoidheight>
	</trkpt>
	<trkpt lat="50.653863" lon="6.190270">
		<ele>395</ele>
		<time>2011-09-11T12:39:09.974Z</time>
		<geoidheight>349</geoidheight>
	</trkpt>
	<trkpt lat="50.653856" lon="6.190253">
		<ele>395</ele>
		<time>2011-09-11T12:39:10.976Z</time>
		<geoidheight>349</geoidheight>
	</trkpt>
	<trkpt lat="50.653847" lon="6.190233">
		<ele>394</ele>
		<time>2011-09-11T12:39:11.974Z</time>
		<geoidheight>348</geoidheight>
	</trkpt>
	<trkpt lat="50.653847" lon="6.190233">
		<ele>394</ele>
		<time>2011-09-11T12:39:12.978Z</time>
		<geoidheight>348</geoidheight>
	</trkpt>
	<trkpt lat="50.653847" lon="6.190233">
		<ele>394</ele>
		<time>2011-09-11T12:39:14.978Z</time>
		<geoidheight>348</geoidheight>
	</trkpt>
	<trkpt lat="50.653826" lon="6.190166">
		<ele>394</ele>
		<time>2011-09-11T12:39:15.984Z</time>
		<geoidheight>348</geoidheight>
	</trkpt>
	<trkpt lat="50.653826" lon="6.190166">
		<ele>394</ele>
		<time>2011-09-11T12:39:18.972Z</time>
		<geoidheight>348</geoidheight>
	</trkpt>
	<trkpt lat="50.653798" lon="6.190089">
		<ele>394</ele>
		<time>2011-09-11T12:39:19.974Z</time>
		<geoidheight>348</geoidheight>
	</trkpt>
	<trkpt lat="50.653798" lon="6.190089">
		<ele>394</ele>
		<time>2011-09-11T12:39:20.975Z</time>
		<geoidheight>348</geoidheight>
	</trkpt>
	<trkpt lat="50.653784" lon="6.190057">
		<ele>394</ele>
		<time>2011-09-11T12:39:21.975Z</time>
		<geoidheight>348</geoidheight>
	</trkpt>
	<trkpt lat="50.653776" lon="6.190042">
		<ele>394</ele>
		<time>2011-09-11T12:39:22.975Z</time>
		<geoidheight>348</geoidheight>
	</trkpt>
	<trkpt lat="50.653767" lon="6.190026">
		<ele>394</ele>
		<time>2011-09-11T12:39:23.975Z</time>
		<geoidheight>348</geoidheight>
	</trkpt>
	<trkpt lat="50.653757" lon="6.190011">
		<ele>394</ele>
		<time>2011-09-11T12:39:24.974Z</time>
		<geoidheight>348</geoidheight>
	</trkpt>
	<trkpt lat="50.653745" lon="6.189997">
		<ele>394</ele>
		<time>2011-09-11T12:39:25.973Z</time>
		<geoidheight>348</geoidheight>
	</trkpt>
	<trkpt lat="50.653733" lon="6.189981">
		<ele>394</ele>
		<time>2011-09-11T12:39:26.979Z</time>
		<geoidheight>348</geoidheight>
	</trkpt>
	<trkpt lat="50.653719" lon="6.189965">
		<ele>394</ele>
		<time>2011-09-11T12:39:27.980Z</time>
		<geoidheight>348</geoidheight>
	</trkpt>
	<trkpt lat="50.653706" lon="6.189948">
		<ele>394</ele>
		<time>2011-09-11T12:39:28.977Z</time>
		<geoidheight>348</geoidheight>
	</trkpt>
	<trkpt lat="50.653692" lon="6.189928">
		<ele>394</ele>
		<time>2011-09-11T12:39:29.976Z</time>
		<geoidheight>348</geoidheight>
	</trkpt>
	<trkpt lat="50.653679" lon="6.189907">
		<ele>394</ele>
		<time>2011-09-11T12:39:30.979Z</time>
		<geoidheight>348</geoidheight>
	</trkpt>
	<trkpt lat="50.653664" lon="6.189883">
		<ele>394</ele>
		<time>2011-09-11T12:39:31.979Z</time>
		<geoidheight>348</geoidheight>
	</trkpt>
	<trkpt lat="50.653650" lon="6.189862">
		<ele>394</ele>
		<time>2011-09-11T12:39:32.978Z</time>
		<geoidheight>348</geoidheight>
	</trkpt>
	<trkpt lat="50.653637" lon="6.189843">
		<ele>394</ele>
		<time>2011-09-11T12:39:33.979Z</time>
		<geoidheight>348</geoidheight>
	</trkpt>
	<trkpt lat="50.653624" lon="6.189823">
		<ele>394</ele>
		<time>2011-09-11T12:39:34.977Z</time>
		<geoidheight>348</geoidheight>
	</trkpt>
	<trkpt lat="50.653611" lon="6.189801">
		<ele>394</ele>
		<time>2011-09-11T12:39:35.978Z</time>
		<geoidheight>348</geoidheight>
	</trkpt>
	<trkpt lat="50.653598" lon="6.189778">
		<ele>394</ele>
		<time>2011-09-11T12:39:36.975Z</time>
		<geoidheight>348</geoidheight>
	</trkpt>
	<trkpt lat="50.653586" lon="6.189754">
		<ele>394</ele>
		<time>2011-09-11T12:39:37.974Z</time>
		<geoidheight>348</geoidheight>
	</trkpt>
	<trkpt lat="50.653574" lon="6.189732">
		<ele>394</ele>
		<time>2011-09-11T12:39:38.974Z</time>
		<geoidheight>348</geoidheight>
	</trkpt>
	<trkpt lat="50.653563" lon="6.189711">
		<ele>394</ele>
		<time>2011-09-11T12:39:39.980Z</time>
		<geoidheight>348</geoidheight>
	</trkpt>
	<trkpt lat="50.653552" lon="6.189690">
		<ele>394</ele>
		<time>2011-09-11T12:39:40.993Z</time>
		<geoidheight>348</geoidheight>
	</trkpt>
	<trkpt lat="50.653542" lon="6.189669">
		<ele>394</ele>
		<time>2011-09-11T12:39:41.993Z</time>
		<geoidheight>348</geoidheight>
	</trkpt>
	<trkpt lat="50.653532" lon="6.189648">
		<ele>394</ele>
		<time>2011-09-11T12:39:42.986Z</time>
		<geoidheight>348</geoidheight>
	</trkpt>
	<trkpt lat="50.653522" lon="6.189629">
		<ele>394</ele>
		<time>2011-09-11T12:39:43.991Z</time>
		<geoidheight>348</geoidheight>
	</trkpt>
	<trkpt lat="50.653511" lon="6.189610">
		<ele>394</ele>
		<time>2011-09-11T12:39:44.995Z</time>
		<geoidheight>348</geoidheight>
	</trkpt>
	<trkpt lat="50.653501" lon="6.189592">
		<ele>394</ele>
		<time>2011-09-11T12:39:45.991Z</time>
		<geoidheight>348</geoidheight>
	</trkpt>
	<trkpt lat="50.653491" lon="6.189575">
		<ele>394</ele>
		<time>2011-09-11T12:39:46.992Z</time>
		<geoidheight>348</geoidheight>
	</trkpt>
	<trkpt lat="50.653482" lon="6.189559">
		<ele>394</ele>
		<time>2011-09-11T12:39:47.991Z</time>
		<geoidheight>348</geoidheight>
	</trkpt>
	<trkpt lat="50.653474" lon="6.189543">
		<ele>394</ele>
		<time>2011-09-11T12:39:48.979Z</time>
		<geoidheight>348</geoidheight>
	</trkpt>
	<trkpt lat="50.653466" lon="6.189527">
		<ele>394</ele>
		<time>2011-09-11T12:39:49.976Z</time>
		<geoidheight>348</geoidheight>
	</trkpt>
	<trkpt lat="50.653459" lon="6.189511">
		<ele>394</ele>
		<time>2011-09-11T12:39:50.975Z</time>
		<geoidheight>348</geoidheight>
	</trkpt>
	<trkpt lat="50.653451" lon="6.189496">
		<ele>394</ele>
		<time>2011-09-11T12:39:51.979Z</time>
		<geoidheight>348</geoidheight>
	</trkpt>
	<trkpt lat="50.653442" lon="6.189481">
		<ele>394</ele>
		<time>2011-09-11T12:39:52.983Z</time>
		<geoidheight>348</geoidheight>
	</trkpt>
	<trkpt lat="50.653433" lon="6.189466">
		<ele>394</ele>
		<time>2011-09-11T12:39:53.973Z</time>
		<geoidheight>348</geoidheight>
	</trkpt>
	<trkpt lat="50.653423" lon="6.189449">
		<ele>394</ele>
		<time>2011-09-11T12:39:54.994Z</time>
		<geoidheight>348</geoidheight>
	</trkpt>
	<trkpt lat="50.653413" lon="6.189432">
		<ele>394</ele>
		<time>2011-09-11T12:39:55.978Z</time>
		<geoidheight>348</geoidheight>
	</trkpt>
	<trkpt lat="50.653403" lon="6.189416">
		<ele>394</ele>
		<time>2011-09-11T12:39:56.993Z</time>
		<geoidheight>348</geoidheight>
	</trkpt>
	<trkpt lat="50.653394" lon="6.189400">
		<ele>394</ele>
		<time>2011-09-11T12:39:57.976Z</time>
		<geoidheight>348</geoidheight>
	</trkpt>
	<trkpt lat="50.653384" lon="6.189384">
		<ele>394</ele>
		<time>2011-09-11T12:39:58.990Z</time>
		<geoidheight>348</geoidheight>
	</trkpt>
	<trkpt lat="50.653375" lon="6.189368">
		<ele>394</ele>
		<time>2011-09-11T12:39:59.997Z</time>
		<geoidheight>348</geoidheight>
	</trkpt>
	<trkpt lat="50.653366" lon="6.189353">
		<ele>394</ele>
		<time>2011-09-11T12:40:00.975Z</time>
		<geoidheight>348</geoidheight>
	</trkpt>
	<trkpt lat="50.653358" lon="6.189338">
		<ele>394</ele>
		<time>2011-09-11T12:40:01.997Z</time>
		<geoidheight>348</geoidheight>
	</trkpt>
	<trkpt lat="50.653349" lon="6.189324">
		<ele>394</ele>
		<time>2011-09-11T12:40:02.975Z</time>
		<geoidheight>348</geoidheight>
	</trkpt>
	<trkpt lat="50.653340" lon="6.189310">
		<ele>394</ele>
		<time>2011-09-11T12:40:03.993Z</time>
		<geoidheight>348</geoidheight>
	</trkpt>
	<trkpt lat="50.653331" lon="6.189296">
		<ele>394</ele>
		<time>2011-09-11T12:40:04.978Z</time>
		<geoidheight>348</geoidheight>
	</trkpt>
	<trkpt lat="50.653322" lon="6.189283">
		<ele>394</ele>
		<time>2011-09-11T12:40:05.979Z</time>
		<geoidheight>348</geoidheight>
	</trkpt>
	<trkpt lat="50.653315" lon="6.189270">
		<ele>394</ele>
		<time>2011-09-11T12:40:06.976Z</time>
		<geoidheight>348</geoidheight>
	</trkpt>
	<trkpt lat="50.653315" lon="6.189270">
		<ele>394</ele>
		<time>2011-09-11T12:40:20.003Z</time>
		<geoidheight>348</geoidheight>
	</trkpt>
	<trkpt lat="50.653288" lon="6.189207">
		<ele>394</ele>
		<time>2011-09-11T12:40:20.999Z</time>
		<geoidheight>348</geoidheight>
	</trkpt>
	<trkpt lat="50.653284" lon="6.189193">
		<ele>394</ele>
		<time>2011-09-11T12:40:21.996Z</time>
		<geoidheight>348</geoidheight>
	</trkpt>
	<trkpt lat="50.653280" lon="6.189179">
		<ele>394</ele>
		<time>2011-09-11T12:40:23.002Z</time>
		<geoidheight>348</geoidheight>
	</trkpt>
	<trkpt lat="50.653277" lon="6.189165">
		<ele>394</ele>
		<time>2011-09-11T12:40:24.003Z</time>
		<geoidheight>348</geoidheight>
	</trkpt>
	<trkpt lat="50.653275" lon="6.189151">
		<ele>394</ele>
		<time>2011-09-11T12:40:24.992Z</time>
		<geoidheight>348</geoidheight>
	</trkpt>
	<trkpt lat="50.653274" lon="6.189140">
		<ele>394</ele>
		<time>2011-09-11T12:40:25.990Z</time>
		<geoidheight>348</geoidheight>
	</trkpt>
	<trkpt lat="50.653274" lon="6.189140">
		<ele>394</ele>
		<time>2011-09-11T12:40:32.991Z</time>
		<geoidheight>348</geoidheight>
	</trkpt>
	<trkpt lat="50.653264" lon="6.189143">
		<ele>394</ele>
		<time>2011-09-11T12:40:33.986Z</time>
		<geoidheight>348</geoidheight>
	</trkpt>
	<trkpt lat="50.653258" lon="6.189150">
		<ele>394</ele>
		<time>2011-09-11T12:40:34.984Z</time>
		<geoidheight>348</geoidheight>
	</trkpt>
	<trkpt lat="50.653250" lon="6.189158">
		<ele>394</ele>
		<time>2011-09-11T12:40:35.992Z</time>
		<geoidheight>348</geoidheight>
	</trkpt>
	<trkpt lat="50.653250" lon="6.189158">
		<ele>394</ele>
		<time>2011-09-11T12:40:36.993Z</time>
		<geoidheight>348</geoidheight>
	</trkpt>
	<trkpt lat="50.653250" lon="6.189158">
		<ele>395</ele>
		<time>2011-09-11T12:40:51.990Z</time>
		<geoidheight>349</geoidheight>
	</trkpt>
	<trkpt lat="50.653214" lon="6.189121">
		<ele>395</ele>
		<time>2011-09-11T12:40:52.990Z</time>
		<geoidheight>349</geoidheight>
	</trkpt>
	<trkpt lat="50.653207" lon="6.189109">
		<ele>395</ele>
		<time>2011-09-11T12:40:53.996Z</time>
		<geoidheight>349</geoidheight>
	</trkpt>
	<trkpt lat="50.653203" lon="6.189093">
		<ele>395</ele>
		<time>2011-09-11T12:40:54.990Z</time>
		<geoidheight>349</geoidheight>
	</trkpt>
	<trkpt lat="50.653200" lon="6.189076">
		<ele>395</ele>
		<time>2011-09-11T12:40:55.991Z</time>
		<geoidheight>349</geoidheight>
	</trkpt>
	<trkpt lat="50.653194" lon="6.189059">
		<ele>395</ele>
		<time>2011-09-11T12:40:56.993Z</time>
		<geoidheight>349</geoidheight>
	</trkpt>
	<trkpt lat="50.653188" lon="6.189043">
		<ele>395</ele>
		<time>2011-09-11T12:40:57.993Z</time>
		<geoidheight>349</geoidheight>
	</trkpt>
	<trkpt lat="50.653182" lon="6.189027">
		<ele>395</ele>
		<time>2011-09-11T12:40:58.991Z</time>
		<geoidheight>349</geoidheight>
	</trkpt>
	<trkpt lat="50.653174" lon="6.189013">
		<ele>395</ele>
		<time>2011-09-11T12:40:59.994Z</time>
		<geoidheight>349</geoidheight>
	</trkpt>
	<trkpt lat="50.653166" lon="6.189000">
		<ele>395</ele>
		<time>2011-09-11T12:41:00.995Z</time>
		<geoidheight>349</geoidheight>
	</trkpt>
	<trkpt lat="50.653158" lon="6.188986">
		<ele>395</ele>
		<time>2011-09-11T12:41:01.992Z</time>
		<geoidheight>349</geoidheight>
	</trkpt>
	<trkpt lat="50.653152" lon="6.188972">
		<ele>395</ele>
		<time>2011-09-11T12:41:02.986Z</time>
		<geoidheight>349</geoidheight>
	</trkpt>
	<trkpt lat="50.653146" lon="6.188958">
		<ele>395</ele>
		<time>2011-09-11T12:41:03.990Z</time>
		<geoidheight>349</geoidheight>
	</trkpt>
	<trkpt lat="50.653140" lon="6.188944">
		<ele>395</ele>
		<time>2011-09-11T12:41:04.991Z</time>
		<geoidheight>349</geoidheight>
	</trkpt>
	<trkpt lat="50.653134" lon="6.188930">
		<ele>396</ele>
		<time>2011-09-11T12:41:05.992Z</time>
		<geoidheight>350</geoidheight>
	</trkpt>
	<trkpt lat="50.653128" lon="6.188917">
		<ele>396</ele>
		<time>2011-09-11T12:41:06.996Z</time>
		<geoidheight>350</geoidheight>
	</trkpt>
	<trkpt lat="50.653121" lon="6.188904">
		<ele>396</ele>
		<time>2011-09-11T12:41:07.996Z</time>
		<geoidheight>350</geoidheight>
	</trkpt>
	<trkpt lat="50.653113" lon="6.188894">
		<ele>396</ele>
		<time>2011-09-11T12:41:08.991Z</time>
		<geoidheight>350</geoidheight>
	</trkpt>
	<trkpt lat="50.653105" lon="6.188884">
		<ele>396</ele>
		<time>2011-09-11T12:41:09.993Z</time>
		<geoidheight>350</geoidheight>
	</trkpt>
	<trkpt lat="50.653096" lon="6.188876">
		<ele>396</ele>
		<time>2011-09-11T12:41:10.993Z</time>
		<geoidheight>350</geoidheight>
	</trkpt>
	<trkpt lat="50.653087" lon="6.188867">
		<ele>396</ele>
		<time>2011-09-11T12:41:11.997Z</time>
		<geoidheight>350</geoidheight>
	</trkpt>
	<trkpt lat="50.653079" lon="6.188859">
		<ele>396</ele>
		<time>2011-09-11T12:41:12.997Z</time>
		<geoidheight>350</geoidheight>
	</trkpt>
	<trkpt lat="50.653070" lon="6.188850">
		<ele>396</ele>
		<time>2011-09-11T12:41:13.998Z</time>
		<geoidheight>350</geoidheight>
	</trkpt>
	<trkpt lat="50.653061" lon="6.188841">
		<ele>396</ele>
		<time>2011-09-11T12:41:15.002Z</time>
		<geoidheight>350</geoidheight>
	</trkpt>
	<trkpt lat="50.653054" lon="6.188832">
		<ele>396</ele>
		<time>2011-09-11T12:41:16.003Z</time>
		<geoidheight>350</geoidheight>
	</trkpt>
	<trkpt lat="50.653047" lon="6.188822">
		<ele>396</ele>
		<time>2011-09-11T12:41:17.005Z</time>
		<geoidheight>350</geoidheight>
	</trkpt>
	<trkpt lat="50.653039" lon="6.188810">
		<ele>396</ele>
		<time>2011-09-11T12:41:17.997Z</time>
		<geoidheight>350</geoidheight>
	</trkpt>
	<trkpt lat="50.653032" lon="6.188796">
		<ele>396</ele>
		<time>2011-09-11T12:41:18.999Z</time>
		<geoidheight>350</geoidheight>
	</trkpt>
	<trkpt lat="50.653025" lon="6.188780">
		<ele>396</ele>
		<time>2011-09-11T12:41:19.992Z</time>
		<geoidheight>350</geoidheight>
	</trkpt>
	<trkpt lat="50.653017" lon="6.188764">
		<ele>396</ele>
		<time>2011-09-11T12:41:20.986Z</time>
		<geoidheight>350</geoidheight>
	</trkpt>
	<trkpt lat="50.653011" lon="6.188748">
		<ele>396</ele>
		<time>2011-09-11T12:41:21.995Z</time>
		<geoidheight>350</geoidheight>
	</trkpt>
	<trkpt lat="50.653004" lon="6.188731">
		<ele>396</ele>
		<time>2011-09-11T12:41:23.007Z</time>
		<geoidheight>350</geoidheight>
	</trkpt>
	<trkpt lat="50.652997" lon="6.188716">
		<ele>397</ele>
		<time>2011-09-11T12:41:24.008Z</time>
		<geoidheight>351</geoidheight>
	</trkpt>
	<trkpt lat="50.652990" lon="6.188703">
		<ele>397</ele>
		<time>2011-09-11T12:41:25.002Z</time>
		<geoidheight>351</geoidheight>
	</trkpt>
	<trkpt lat="50.652990" lon="6.188703">
		<ele>397</ele>
		<time>2011-09-11T12:41:26.998Z</time>
		<geoidheight>351</geoidheight>
	</trkpt>
	<trkpt lat="50.652973" lon="6.188675">
		<ele>397</ele>
		<time>2011-09-11T12:41:28.002Z</time>
		<geoidheight>351</geoidheight>
	</trkpt>
	<trkpt lat="50.652966" lon="6.188669">
		<ele>397</ele>
		<time>2011-09-11T12:41:29.002Z</time>
		<geoidheight>351</geoidheight>
	</trkpt>
	<trkpt lat="50.652959" lon="6.188663">
		<ele>397</ele>
		<time>2011-09-11T12:41:29.997Z</time>
		<geoidheight>351</geoidheight>
	</trkpt>
	<trkpt lat="50.652950" lon="6.188659">
		<ele>397</ele>
		<time>2011-09-11T12:41:30.991Z</time>
		<geoidheight>351</geoidheight>
	</trkpt>
	<trkpt lat="50.652943" lon="6.188653">
		<ele>397</ele>
		<time>2011-09-11T12:41:32.001Z</time>
		<geoidheight>351</geoidheight>
	</trkpt>
	<trkpt lat="50.652937" lon="6.188644">
		<ele>397</ele>
		<time>2011-09-11T12:41:32.999Z</time>
		<geoidheight>351</geoidheight>
	</trkpt>
	<trkpt lat="50.652930" lon="6.188633">
		<ele>397</ele>
		<time>2011-09-11T12:41:33.994Z</time>
		<geoidheight>351</geoidheight>
	</trkpt>
	<trkpt lat="50.652925" lon="6.188620">
		<ele>397</ele>
		<time>2011-09-11T12:41:34.994Z</time>
		<geoidheight>351</geoidheight>
	</trkpt>
	<trkpt lat="50.652918" lon="6.188605">
		<ele>397</ele>
		<time>2011-09-11T12:41:35.991Z</time>
		<geoidheight>351</geoidheight>
	</trkpt>
	<trkpt lat="50.652907" lon="6.188590">
		<ele>397</ele>
		<time>2011-09-11T12:41:36.986Z</time>
		<geoidheight>351</geoidheight>
	</trkpt>
	<trkpt lat="50.652898" lon="6.188576">
		<ele>397</ele>
		<time>2011-09-11T12:41:37.994Z</time>
		<geoidheight>351</geoidheight>
	</trkpt>
	<trkpt lat="50.652893" lon="6.188561">
		<ele>397</ele>
		<time>2011-09-11T12:41:38.996Z</time>
		<geoidheight>351</geoidheight>
	</trkpt>
	<trkpt lat="50.652889" lon="6.188546">
		<ele>397</ele>
		<time>2011-09-11T12:41:39.980Z</time>
		<geoidheight>351</geoidheight>
	</trkpt>
	<trkpt lat="50.652884" lon="6.188533">
		<ele>397</ele>
		<time>2011-09-11T12:41:40.981Z</time>
		<geoidheight>351</geoidheight>
	</trkpt>
	<trkpt lat="50.652879" lon="6.188522">
		<ele>397</ele>
		<time>2011-09-11T12:41:41.980Z</time>
		<geoidheight>351</geoidheight>
	</trkpt>
	<trkpt lat="50.652873" lon="6.188512">
		<ele>397</ele>
		<time>2011-09-11T12:41:42.994Z</time>
		<geoidheight>351</geoidheight>
	</trkpt>
	<trkpt lat="50.652867" lon="6.188502">
		<ele>397</ele>
		<time>2011-09-11T12:41:43.982Z</time>
		<geoidheight>351</geoidheight>
	</trkpt>
	<trkpt lat="50.652859" lon="6.188492">
		<ele>397</ele>
		<time>2011-09-11T12:41:44.976Z</time>
		<geoidheight>351</geoidheight>
	</trkpt>
	<trkpt lat="50.652851" lon="6.188482">
		<ele>397</ele>
		<time>2011-09-11T12:41:45.976Z</time>
		<geoidheight>351</geoidheight>
	</trkpt>
	<trkpt lat="50.652842" lon="6.188473">
		<ele>397</ele>
		<time>2011-09-11T12:41:46.975Z</time>
		<geoidheight>351</geoidheight>
	</trkpt>
	<trkpt lat="50.652834" lon="6.188464">
		<ele>397</ele>
		<time>2011-09-11T12:41:47.995Z</time>
		<geoidheight>351</geoidheight>
	</trkpt>
	<trkpt lat="50.652825" lon="6.188458">
		<ele>397</ele>
		<time>2011-09-11T12:41:48.974Z</time>
		<geoidheight>351</geoidheight>
	</trkpt>
	<trkpt lat="50.652815" lon="6.188451">
		<ele>397</ele>
		<time>2011-09-11T12:41:49.990Z</time>
		<geoidheight>351</geoidheight>
	</trkpt>
	<trkpt lat="50.652804" lon="6.188442">
		<ele>397</ele>
		<time>2011-09-11T12:41:50.979Z</time>
		<geoidheight>351</geoidheight>
	</trkpt>
	<trkpt lat="50.652794" lon="6.188430">
		<ele>397</ele>
		<time>2011-09-11T12:41:51.975Z</time>
		<geoidheight>351</geoidheight>
	</trkpt>
	<trkpt lat="50.652784" lon="6.188416">
		<ele>397</ele>
		<time>2011-09-11T12:41:52.994Z</time>
		<geoidheight>351</geoidheight>
	</trkpt>
	<trkpt lat="50.652775" lon="6.188400">
		<ele>397</ele>
		<time>2011-09-11T12:41:53.977Z</time>
		<geoidheight>351</geoidheight>
	</trkpt>
	<trkpt lat="50.652764" lon="6.188384">
		<ele>397</ele>
		<time>2011-09-11T12:41:54.984Z</time>
		<geoidheight>351</geoidheight>
	</trkpt>
	<trkpt lat="50.652753" lon="6.188370">
		<ele>397</ele>
		<time>2011-09-11T12:41:55.976Z</time>
		<geoidheight>351</geoidheight>
	</trkpt>
	<trkpt lat="50.652741" lon="6.188356">
		<ele>397</ele>
		<time>2011-09-11T12:41:56.976Z</time>
		<geoidheight>351</geoidheight>
	</trkpt>
	<trkpt lat="50.652729" lon="6.188342">
		<ele>397</ele>
		<time>2011-09-11T12:41:57.977Z</time>
		<geoidheight>351</geoidheight>
	</trkpt>
	<trkpt lat="50.652717" lon="6.188328">
		<ele>397</ele>
		<time>2011-09-11T12:41:58.975Z</time>
		<geoidheight>351</geoidheight>
	</trkpt>
	<trkpt lat="50.652707" lon="6.188315">
		<ele>397</ele>
		<time>2011-09-11T12:41:59.975Z</time>
		<geoidheight>351</geoidheight>
	</trkpt>
	<trkpt lat="50.652696" lon="6.188301">
		<ele>397</ele>
		<time>2011-09-11T12:42:00.992Z</time>
		<geoidheight>351</geoidheight>
	</trkpt>
	<trkpt lat="50.652687" lon="6.188288">
		<ele>397</ele>
		<time>2011-09-11T12:42:01.978Z</time>
		<geoidheight>351</geoidheight>
	</trkpt>
	<trkpt lat="50.652677" lon="6.188275">
		<ele>396</ele>
		<time>2011-09-11T12:42:02.979Z</time>
		<geoidheight>350</geoidheight>
	</trkpt>
	<trkpt lat="50.652669" lon="6.188263">
		<ele>396</ele>
		<time>2011-09-11T12:42:03.979Z</time>
		<geoidheight>350</geoidheight>
	</trkpt>
	<trkpt lat="50.652660" lon="6.188251">
		<ele>396</ele>
		<time>2011-09-11T12:42:04.975Z</time>
		<geoidheight>350</geoidheight>
	</trkpt>
	<trkpt lat="50.652651" lon="6.188240">
		<ele>396</ele>
		<time>2011-09-11T12:42:05.981Z</time>
		<geoidheight>350</geoidheight>
	</trkpt>
	<trkpt lat="50.652642" lon="6.188229">
		<ele>396</ele>
		<time>2011-09-11T12:42:06.979Z</time>
		<geoidheight>350</geoidheight>
	</trkpt>
	<trkpt lat="50.652633" lon="6.188218">
		<ele>396</ele>
		<time>2011-09-11T12:42:07.995Z</time>
		<geoidheight>350</geoidheight>
	</trkpt>
	<trkpt lat="50.652623" lon="6.188207">
		<ele>396</ele>
		<time>2011-09-11T12:42:08.992Z</time>
		<geoidheight>350</geoidheight>
	</trkpt>
	<trkpt lat="50.652614" lon="6.188195">
		<ele>396</ele>
		<time>2011-09-11T12:42:09.989Z</time>
		<geoidheight>350</geoidheight>
	</trkpt>
	<trkpt lat="50.652604" lon="6.188182">
		<ele>396</ele>
		<time>2011-09-11T12:42:10.994Z</time>
		<geoidheight>350</geoidheight>
	</trkpt>
	<trkpt lat="50.652593" lon="6.188169">
		<ele>396</ele>
		<time>2011-09-11T12:42:11.994Z</time>
		<geoidheight>350</geoidheight>
	</trkpt>
	<trkpt lat="50.652583" lon="6.188155">
		<ele>396</ele>
		<time>2011-09-11T12:42:12.992Z</time>
		<geoidheight>350</geoidheight>
	</trkpt>
	<trkpt lat="50.652572" lon="6.188142">
		<ele>396</ele>
		<time>2011-09-11T12:42:13.996Z</time>
		<geoidheight>350</geoidheight>
	</trkpt>
	<trkpt lat="50.652561" lon="6.188128">
		<ele>396</ele>
		<time>2011-09-11T12:42:14.996Z</time>
		<geoidheight>350</geoidheight>
	</trkpt>
	<trkpt lat="50.652551" lon="6.188114">
		<ele>396</ele>
		<time>2011-09-11T12:42:15.982Z</time>
		<geoidheight>350</geoidheight>
	</trkpt>
	<trkpt lat="50.652539" lon="6.188100">
		<ele>396</ele>
		<time>2011-09-11T12:42:16.982Z</time>
		<geoidheight>350</geoidheight>
	</trkpt>
	<trkpt lat="50.652529" lon="6.188084">
		<ele>396</ele>
		<time>2011-09-11T12:42:17.979Z</time>
		<geoidheight>350</geoidheight>
	</trkpt>
	<trkpt lat="50.652519" lon="6.188068">
		<ele>396</ele>
		<time>2011-09-11T12:42:18.977Z</time>
		<geoidheight>350</geoidheight>
	</trkpt>
	<trkpt lat="50.652508" lon="6.188054">
		<ele>396</ele>
		<time>2011-09-11T12:42:19.977Z</time>
		<geoidheight>350</geoidheight>
	</trkpt>
	<trkpt lat="50.652498" lon="6.188039">
		<ele>396</ele>
		<time>2011-09-11T12:42:20.975Z</time>
		<geoidheight>350</geoidheight>
	</trkpt>
	<trkpt lat="50.652489" lon="6.188023">
		<ele>396</ele>
		<time>2011-09-11T12:42:21.976Z</time>
		<geoidheight>350</geoidheight>
	</trkpt>
	<trkpt lat="50.652479" lon="6.188008">
		<ele>396</ele>
		<time>2011-09-11T12:42:22.977Z</time>
		<geoidheight>350</geoidheight>
	</trkpt>
	<trkpt lat="50.652470" lon="6.187994">
		<ele>396</ele>
		<time>2011-09-11T12:42:23.976Z</time>
		<geoidheight>350</geoidheight>
	</trkpt>
	<trkpt lat="50.652461" lon="6.187981">
		<ele>396</ele>
		<time>2011-09-11T12:42:24.982Z</time>
		<geoidheight>350</geoidheight>
	</trkpt>
	<trkpt lat="50.652452" lon="6.187968">
		<ele>396</ele>
		<time>2011-09-11T12:42:25.982Z</time>
		<geoidheight>350</geoidheight>
	</trkpt>
	<trkpt lat="50.652443" lon="6.187954">
		<ele>396</ele>
		<time>2011-09-11T12:42:26.980Z</time>
		<geoidheight>350</geoidheight>
	</trkpt>
	<trkpt lat="50.652435" lon="6.187940">
		<ele>395</ele>
		<time>2011-09-11T12:42:27.976Z</time>
		<geoidheight>349</geoidheight>
	</trkpt>
	<trkpt lat="50.652427" lon="6.187926">
		<ele>395</ele>
		<time>2011-09-11T12:42:28.980Z</time>
		<geoidheight>349</geoidheight>
	</trkpt>
	<trkpt lat="50.652419" lon="6.187912">
		<ele>395</ele>
		<time>2011-09-11T12:42:29.986Z</time>
		<geoidheight>349</geoidheight>
	</trkpt>
	<trkpt lat="50.652411" lon="6.187899">
		<ele>395</ele>
		<time>2011-09-11T12:42:30.994Z</time>
		<geoidheight>349</geoidheight>
	</trkpt>
	<trkpt lat="50.652404" lon="6.187885">
		<ele>395</ele>
		<time>2011-09-11T12:42:31.990Z</time>
		<geoidheight>349</geoidheight>
	</trkpt>
	<trkpt lat="50.652396" lon="6.187872">
		<ele>395</ele>
		<time>2011-09-11T12:42:32.996Z</time>
		<geoidheight>349</geoidheight>
	</trkpt>
	<trkpt lat="50.652388" lon="6.187860">
		<ele>395</ele>
		<time>2011-09-11T12:42:33.995Z</time>
		<geoidheight>349</geoidheight>
	</trkpt>
	<trkpt lat="50.652380" lon="6.187849">
		<ele>395</ele>
		<time>2011-09-11T12:42:34.991Z</time>
		<geoidheight>349</geoidheight>
	</trkpt>
	<trkpt lat="50.652373" lon="6.187837">
		<ele>395</ele>
		<time>2011-09-11T12:42:35.996Z</time>
		<geoidheight>349</geoidheight>
	</trkpt>
	<trkpt lat="50.652365" lon="6.187824">
		<ele>395</ele>
		<time>2011-09-11T12:42:36.995Z</time>
		<geoidheight>349</geoidheight>
	</trkpt>
	<trkpt lat="50.652358" lon="6.187810">
		<ele>395</ele>
		<time>2011-09-11T12:42:37.981Z</time>
		<geoidheight>349</geoidheight>
	</trkpt>
	<trkpt lat="50.652349" lon="6.187796">
		<ele>395</ele>
		<time>2011-09-11T12:42:38.982Z</time>
		<geoidheight>349</geoidheight>
	</trkpt>
	<trkpt lat="50.652341" lon="6.187784">
		<ele>395</ele>
		<time>2011-09-11T12:42:39.980Z</time>
		<geoidheight>349</geoidheight>
	</trkpt>
	<trkpt lat="50.652332" lon="6.187772">
		<ele>395</ele>
		<time>2011-09-11T12:42:40.985Z</time>
		<geoidheight>349</geoidheight>
	</trkpt>
	<trkpt lat="50.652324" lon="6.187762">
		<ele>395</ele>
		<time>2011-09-11T12:42:41.990Z</time>
		<geoidheight>349</geoidheight>
	</trkpt>
	<trkpt lat="50.652315" lon="6.187753">
		<ele>395</ele>
		<time>2011-09-11T12:42:42.999Z</time>
		<geoidheight>349</geoidheight>
	</trkpt>
	<trkpt lat="50.652306" lon="6.187744">
		<ele>395</ele>
		<time>2011-09-11T12:42:43.990Z</time>
		<geoidheight>349</geoidheight>
	</trkpt>
	<trkpt lat="50.652296" lon="6.187732">
		<ele>395</ele>
		<time>2011-09-11T12:42:44.992Z</time>
		<geoidheight>349</geoidheight>
	</trkpt>
	<trkpt lat="50.652286" lon="6.187722">
		<ele>395</ele>
		<time>2011-09-11T12:42:46.000Z</time>
		<geoidheight>349</geoidheight>
	</trkpt>
	<trkpt lat="50.652276" lon="6.187711">
		<ele>395</ele>
		<time>2011-09-11T12:42:47.057Z</time>
		<geoidheight>349</geoidheight>
	</trkpt>
	<trkpt lat="50.652266" lon="6.187699">
		<ele>395</ele>
		<time>2011-09-11T12:42:47.998Z</time>
		<geoidheight>349</geoidheight>
	</trkpt>
	<trkpt lat="50.652258" lon="6.187685">
		<ele>395</ele>
		<time>2011-09-11T12:42:48.996Z</time>
		<geoidheight>349</geoidheight>
	</trkpt>
	<trkpt lat="50.652249" lon="6.187672">
		<ele>395</ele>
		<time>2011-09-11T12:42:49.992Z</time>
		<geoidheight>349</geoidheight>
	</trkpt>
	<trkpt lat="50.652240" lon="6.187661">
		<ele>395</ele>
		<time>2011-09-11T12:42:50.990Z</time>
		<geoidheight>349</geoidheight>
	</trkpt>
	<trkpt lat="50.652231" lon="6.187652">
		<ele>395</ele>
		<time>2011-09-11T12:42:51.997Z</time>
		<geoidheight>349</geoidheight>
	</trkpt>
	<trkpt lat="50.652222" lon="6.187645">
		<ele>395</ele>
		<time>2011-09-11T12:42:52.993Z</time>
		<geoidheight>349</geoidheight>
	</trkpt>
	<trkpt lat="50.652213" lon="6.187639">
		<ele>395</ele>
		<time>2011-09-11T12:42:53.996Z</time>
		<geoidheight>349</geoidheight>
	</trkpt>
	<trkpt lat="50.652204" lon="6.187633">
		<ele>395</ele>
		<time>2011-09-11T12:42:54.994Z</time>
		<geoidheight>349</geoidheight>
	</trkpt>
	<trkpt lat="50.652195" lon="6.187627">
		<ele>395</ele>
		<time>2011-09-11T12:42:55.993Z</time>
		<geoidheight>349</geoidheight>
	</trkpt>
	<trkpt lat="50.652187" lon="6.187619">
		<ele>395</ele>
		<time>2011-09-11T12:42:56.993Z</time>
		<geoidheight>349</geoidheight>
	</trkpt>
	<trkpt lat="50.652179" lon="6.187610">
		<ele>395</ele>
		<time>2011-09-11T12:42:57.998Z</time>
		<geoidheight>349</geoidheight>
	</trkpt>
	<trkpt lat="50.652172" lon="6.187600">
		<ele>394</ele>
		<time>2011-09-11T12:42:58.994Z</time>
		<geoidheight>348</geoidheight>
	</trkpt>
	<trkpt lat="50.652166" lon="6.187588">
		<ele>394</ele>
		<time>2011-09-11T12:42:59.994Z</time>
		<geoidheight>348</geoidheight>
	</trkpt>
	<trkpt lat="50.652161" lon="6.187573">
		<ele>394</ele>
		<time>2011-09-11T12:43:00.992Z</time>
		<geoidheight>348</geoidheight>
	</trkpt>
	<trkpt lat="50.652158" lon="6.187558">
		<ele>394</ele>
		<time>2011-09-11T12:43:01.992Z</time>
		<geoidheight>348</geoidheight>
	</trkpt>
	<trkpt lat="50.652155" lon="6.187543">
		<ele>394</ele>
		<time>2011-09-11T12:43:02.997Z</time>
		<geoidheight>348</geoidheight>
	</trkpt>
	<trkpt lat="50.652151" lon="6.187528">
		<ele>394</ele>
		<time>2011-09-11T12:43:03.991Z</time>
		<geoidheight>348</geoidheight>
	</trkpt>
	<trkpt lat="50.652145" lon="6.187515">
		<ele>394</ele>
		<time>2011-09-11T12:43:04.997Z</time>
		<geoidheight>348</geoidheight>
	</trkpt>
	<trkpt lat="50.652138" lon="6.187503">
		<ele>394</ele>
		<time>2011-09-11T12:43:05.987Z</time>
		<geoidheight>348</geoidheight>
	</trkpt>
	<trkpt lat="50.652130" lon="6.187490">
		<ele>394</ele>
		<time>2011-09-11T12:43:06.994Z</time>
		<geoidheight>348</geoidheight>
	</trkpt>
	<trkpt lat="50.652120" lon="6.187475">
		<ele>394</ele>
		<time>2011-09-11T12:43:07.990Z</time>
		<geoidheight>348</geoidheight>
	</trkpt>
	<trkpt lat="50.652111" lon="6.187460">
		<ele>394</ele>
		<time>2011-09-11T12:43:08.999Z</time>
		<geoidheight>348</geoidheight>
	</trkpt>
	<trkpt lat="50.652101" lon="6.187445">
		<ele>394</ele>
		<time>2011-09-11T12:43:10.002Z</time>
		<geoidheight>348</geoidheight>
	</trkpt>
	<trkpt lat="50.652090" lon="6.187431">
		<ele>394</ele>
		<time>2011-09-11T12:43:10.997Z</time>
		<geoidheight>348</geoidheight>
	</trkpt>
	<trkpt lat="50.652079" lon="6.187418">
		<ele>394</ele>
		<time>2011-09-11T12:43:11.980Z</time>
		<geoidheight>348</geoidheight>
	</trkpt>
	<trkpt lat="50.652068" lon="6.187405">
		<ele>394</ele>
		<time>2011-09-11T12:43:12.981Z</time>
		<geoidheight>348</geoidheight>
	</trkpt>
	<trkpt lat="50.652057" lon="6.187391">
		<ele>394</ele>
		<time>2011-09-11T12:43:13.979Z</time>
		<geoidheight>348</geoidheight>
	</trkpt>
	<trkpt lat="50.652048" lon="6.187376">
		<ele>394</ele>
		<time>2011-09-11T12:43:14.977Z</time>
		<geoidheight>348</geoidheight>
	</trkpt>
	<trkpt lat="50.652039" lon="6.187361">
		<ele>394</ele>
		<time>2011-09-11T12:43:15.977Z</time>
		<geoidheight>348</geoidheight>
	</trkpt>
	<trkpt lat="50.652030" lon="6.187345">
		<ele>394</ele>
		<time>2011-09-11T12:43:16.981Z</time>
		<geoidheight>348</geoidheight>
	</trkpt>
	<trkpt lat="50.652020" lon="6.187328">
		<ele>394</ele>
		<time>2011-09-11T12:43:17.975Z</time>
		<geoidheight>348</geoidheight>
	</trkpt>
	<trkpt lat="50.652011" lon="6.187310">
		<ele>394</ele>
		<time>2011-09-11T12:43:18.979Z</time>
		<geoidheight>348</geoidheight>
	</trkpt>
	<trkpt lat="50.652001" lon="6.187292">
		<ele>394</ele>
		<time>2011-09-11T12:43:19.981Z</time>
		<geoidheight>348</geoidheight>
	</trkpt>
	<trkpt lat="50.651992" lon="6.187273">
		<ele>394</ele>
		<time>2011-09-11T12:43:20.979Z</time>
		<geoidheight>348</geoidheight>
	</trkpt>
	<trkpt lat="50.651982" lon="6.187256">
		<ele>394</ele>
		<time>2011-09-11T12:43:21.977Z</time>
		<geoidheight>348</geoidheight>
	</trkpt>
	<trkpt lat="50.651973" lon="6.187240">
		<ele>394</ele>
		<time>2011-09-11T12:43:22.984Z</time>
		<geoidheight>348</geoidheight>
	</trkpt>
	<trkpt lat="50.651964" lon="6.187225">
		<ele>394</ele>
		<time>2011-09-11T12:43:23.979Z</time>
		<geoidheight>348</geoidheight>
	</trkpt>
	<trkpt lat="50.651954" lon="6.187212">
		<ele>394</ele>
		<time>2011-09-11T12:43:24.977Z</time>
		<geoidheight>348</geoidheight>
	</trkpt>
	<trkpt lat="50.651944" lon="6.187200">
		<ele>394</ele>
		<time>2011-09-11T12:43:25.976Z</time>
		<geoidheight>348</geoidheight>
	</trkpt>
	<trkpt lat="50.651933" lon="6.187188">
		<ele>394</ele>
		<time>2011-09-11T12:43:26.981Z</time>
		<geoidheight>348</geoidheight>
	</trkpt>
	<trkpt lat="50.651921" lon="6.187176">
		<ele>394</ele>
		<time>2011-09-11T12:43:27.978Z</time>
		<geoidheight>348</geoidheight>
	</trkpt>
	<trkpt lat="50.651909" lon="6.187164">
		<ele>394</ele>
		<time>2011-09-11T12:43:28.976Z</time>
		<geoidheight>348</geoidheight>
	</trkpt>
	<trkpt lat="50.651898" lon="6.187151">
		<ele>394</ele>
		<time>2011-09-11T12:43:29.984Z</time>
		<geoidheight>348</geoidheight>
	</trkpt>
	<trkpt lat="50.651888" lon="6.187139">
		<ele>394</ele>
		<time>2011-09-11T12:43:30.976Z</time>
		<geoidheight>348</geoidheight>
	</trkpt>
	<trkpt lat="50.651879" lon="6.187127">
		<ele>394</ele>
		<time>2011-09-11T12:43:31.977Z</time>
		<geoidheight>348</geoidheight>
	</trkpt>
	<trkpt lat="50.651869" lon="6.187117">
		<ele>394</ele>
		<time>2011-09-11T12:43:32.981Z</time>
		<geoidheight>348</geoidheight>
	</trkpt>
	<trkpt lat="50.651860" lon="6.187108">
		<ele>394</ele>
		<time>2011-09-11T12:43:33.979Z</time>
		<geoidheight>348</geoidheight>
	</trkpt>
	<trkpt lat="50.651850" lon="6.187100">
		<ele>394</ele>
		<time>2011-09-11T12:43:34.985Z</time>
		<geoidheight>348</geoidheight>
	</trkpt>
	<trkpt lat="50.651840" lon="6.187090">
		<ele>394</ele>
		<time>2011-09-11T12:43:35.979Z</time>
		<geoidheight>348</geoidheight>
	</trkpt>
	<trkpt lat="50.651830" lon="6.187079">
		<ele>394</ele>
		<time>2011-09-11T12:43:36.977Z</time>
		<geoidheight>348</geoidheight>
	</trkpt>
	<trkpt lat="50.651820" lon="6.187066">
		<ele>394</ele>
		<time>2011-09-11T12:43:37.982Z</time>
		<geoidheight>348</geoidheight>
	</trkpt>
	<trkpt lat="50.651811" lon="6.187052">
		<ele>394</ele>
		<time>2011-09-11T12:43:38.980Z</time>
		<geoidheight>348</geoidheight>
	</trkpt>
	<trkpt lat="50.651802" lon="6.187037">
		<ele>394</ele>
		<time>2011-09-11T12:43:39.977Z</time>
		<geoidheight>348</geoidheight>
	</trkpt>
	<trkpt lat="50.651794" lon="6.187023">
		<ele>394</ele>
		<time>2011-09-11T12:43:40.977Z</time>
		<geoidheight>348</geoidheight>
	</trkpt>
	<trkpt lat="50.651786" lon="6.187009">
		<ele>394</ele>
		<time>2011-09-11T12:43:41.976Z</time>
		<geoidheight>348</geoidheight>
	</trkpt>
	<trkpt lat="50.651777" lon="6.186996">
		<ele>394</ele>
		<time>2011-09-11T12:43:42.979Z</time>
		<geoidheight>348</geoidheight>
	</trkpt>
	<trkpt lat="50.651767" lon="6.186986">
		<ele>394</ele>
		<time>2011-09-11T12:43:43.976Z</time>
		<geoidheight>348</geoidheight>
	</trkpt>
	<trkpt lat="50.651757" lon="6.186976">
		<ele>394</ele>
		<time>2011-09-11T12:43:44.977Z</time>
		<geoidheight>348</geoidheight>
	</trkpt>
	<trkpt lat="50.651747" lon="6.186965">
		<ele>394</ele>
		<time>2011-09-11T12:43:45.977Z</time>
		<geoidheight>348</geoidheight>
	</trkpt>
	<trkpt lat="50.651738" lon="6.186953">
		<ele>394</ele>
		<time>2011-09-11T12:43:46.977Z</time>
		<geoidheight>348</geoidheight>
	</trkpt>
	<trkpt lat="50.651731" lon="6.186941">
		<ele>394</ele>
		<time>2011-09-11T12:43:47.977Z</time>
		<geoidheight>348</geoidheight>
	</trkpt>
	<trkpt lat="50.651726" lon="6.186928">
		<ele>394</ele>
		<time>2011-09-11T12:43:48.978Z</time>
		<geoidheight>348</geoidheight>
	</trkpt>
	<trkpt lat="50.651721" lon="6.186916">
		<ele>394</ele>
		<time>2011-09-11T12:43:49.984Z</time>
		<geoidheight>348</geoidheight>
	</trkpt>
	<trkpt lat="50.651716" lon="6.186906">
		<ele>394</ele>
		<time>2011-09-11T12:43:51.006Z</time>
		<geoidheight>348</geoidheight>
	</trkpt>
	<trkpt lat="50.651711" lon="6.186895">
		<ele>394</ele>
		<time>2011-09-11T12:43:51.991Z</time>
		<geoidheight>348</geoidheight>
	</trkpt>
	<trkpt lat="50.651705" lon="6.186885">
		<ele>394</ele>
		<time>2011-09-11T12:43:52.996Z</time>
		<geoidheight>348</geoidheight>
	</trkpt>
	<trkpt lat="50.651700" lon="6.186873">
		<ele>394</ele>
		<time>2011-09-11T12:43:53.996Z</time>
		<geoidheight>348</geoidheight>
	</trkpt>
	<trkpt lat="50.651695" lon="6.186860">
		<ele>394</ele>
		<time>2011-09-11T12:43:54.992Z</time>
		<geoidheight>348</geoidheight>
	</trkpt>
	<trkpt lat="50.651692" lon="6.186848">
		<ele>394</ele>
		<time>2011-09-11T12:43:55.997Z</time>
		<geoidheight>348</geoidheight>
	</trkpt>
	<trkpt lat="50.651688" lon="6.186836">
		<ele>394</ele>
		<time>2011-09-11T12:43:56.982Z</time>
		<geoidheight>348</geoidheight>
	</trkpt>
	<trkpt lat="50.651684" lon="6.186826">
		<ele>394</ele>
		<time>2011-09-11T12:43:57.982Z</time>
		<geoidheight>348</geoidheight>
	</trkpt>
	<trkpt lat="50.651679" lon="6.186816">
		<ele>394</ele>
		<time>2011-09-11T12:43:58.982Z</time>
		<geoidheight>348</geoidheight>
	</trkpt>
	<trkpt lat="50.651679" lon="6.186816">
		<ele>394</ele>
		<time>2011-09-11T12:44:03.980Z</time>
		<geoidheight>348</geoidheight>
	</trkpt>
	<trkpt lat="50.651646" lon="6.186775">
		<ele>394</ele>
		<time>2011-09-11T12:44:04.981Z</time>
		<geoidheight>348</geoidheight>
	</trkpt>
	<trkpt lat="50.651646" lon="6.186775">
		<ele>394</ele>
		<time>2011-09-11T12:44:05.985Z</time>
		<geoidheight>348</geoidheight>
	</trkpt>
	<trkpt lat="50.651622" lon="6.186749">
		<ele>394</ele>
		<time>2011-09-11T12:44:06.981Z</time>
		<geoidheight>348</geoidheight>
	</trkpt>
	<trkpt lat="50.651610" lon="6.186734">
		<ele>394</ele>
		<time>2011-09-11T12:44:07.993Z</time>
		<geoidheight>348</geoidheight>
	</trkpt>
	<trkpt lat="50.651596" lon="6.186721">
		<ele>394</ele>
		<time>2011-09-11T12:44:08.990Z</time>
		<geoidheight>348</geoidheight>
	</trkpt>
	<trkpt lat="50.651583" lon="6.186708">
		<ele>394</ele>
		<time>2011-09-11T12:44:09.990Z</time>
		<geoidheight>348</geoidheight>
	</trkpt>
	<trkpt lat="50.651570" lon="6.186697">
		<ele>394</ele>
		<time>2011-09-11T12:44:10.990Z</time>
		<geoidheight>348</geoidheight>
	</trkpt>
	<trkpt lat="50.651570" lon="6.186697">
		<ele>394</ele>
		<time>2011-09-11T12:44:14.994Z</time>
		<geoidheight>348</geoidheight>
	</trkpt>
	<trkpt lat="50.651530" lon="6.186659">
		<ele>394</ele>
		<time>2011-09-11T12:44:15.991Z</time>
		<geoidheight>348</geoidheight>
	</trkpt>
	<trkpt lat="50.651530" lon="6.186659">
		<ele>394</ele>
		<time>2011-09-11T12:44:16.993Z</time>
		<geoidheight>348</geoidheight>
	</trkpt>
	<trkpt lat="50.651510" lon="6.186640">
		<ele>394</ele>
		<time>2011-09-11T12:44:17.992Z</time>
		<geoidheight>348</geoidheight>
	</trkpt>
	<trkpt lat="50.651510" lon="6.186640">
		<ele>394</ele>
		<time>2011-09-11T12:44:18.993Z</time>
		<geoidheight>348</geoidheight>
	</trkpt>
	<trkpt lat="50.651488" lon="6.186618">
		<ele>394</ele>
		<time>2011-09-11T12:44:19.980Z</time>
		<geoidheight>348</geoidheight>
	</trkpt>
	<trkpt lat="50.651488" lon="6.186618">
		<ele>394</ele>
		<time>2011-09-11T12:44:21.976Z</time>
		<geoidheight>348</geoidheight>
	</trkpt>
	<trkpt lat="50.651457" lon="6.186578">
		<ele>395</ele>
		<time>2011-09-11T12:44:22.976Z</time>
		<geoidheight>349</geoidheight>
	</trkpt>
	<trkpt lat="50.651446" lon="6.186564">
		<ele>395</ele>
		<time>2011-09-11T12:44:23.976Z</time>
		<geoidheight>349</geoidheight>
	</trkpt>
	<trkpt lat="50.651435" lon="6.186552">
		<ele>395</ele>
		<time>2011-09-11T12:44:24.976Z</time>
		<geoidheight>349</geoidheight>
	</trkpt>
	<trkpt lat="50.651425" lon="6.186540">
		<ele>395</ele>
		<time>2011-09-11T12:44:25.976Z</time>
		<geoidheight>349</geoidheight>
	</trkpt>
	<trkpt lat="50.651415" lon="6.186527">
		<ele>395</ele>
		<time>2011-09-11T12:44:26.976Z</time>
		<geoidheight>349</geoidheight>
	</trkpt>
	<trkpt lat="50.651405" lon="6.186515">
		<ele>395</ele>
		<time>2011-09-11T12:44:27.977Z</time>
		<geoidheight>349</geoidheight>
	</trkpt>
	<trkpt lat="50.651396" lon="6.186503">
		<ele>395</ele>
		<time>2011-09-11T12:44:28.979Z</time>
		<geoidheight>349</geoidheight>
	</trkpt>
	<trkpt lat="50.651387" lon="6.186492">
		<ele>395</ele>
		<time>2011-09-11T12:44:29.976Z</time>
		<geoidheight>349</geoidheight>
	</trkpt>
	<trkpt lat="50.651378" lon="6.186482">
		<ele>395</ele>
		<time>2011-09-11T12:44:30.977Z</time>
		<geoidheight>349</geoidheight>
	</trkpt>
	<trkpt lat="50.651370" lon="6.186473">
		<ele>395</ele>
		<time>2011-09-11T12:44:31.976Z</time>
		<geoidheight>349</geoidheight>
	</trkpt>
	<trkpt lat="50.651362" lon="6.186464">
		<ele>395</ele>
		<time>2011-09-11T12:44:32.984Z</time>
		<geoidheight>349</geoidheight>
	</trkpt>
	<trkpt lat="50.651362" lon="6.186464">
		<ele>395</ele>
		<time>2011-09-11T12:44:33.981Z</time>
		<geoidheight>349</geoidheight>
	</trkpt>
	<trkpt lat="50.651347" lon="6.186445">
		<ele>395</ele>
		<time>2011-09-11T12:44:34.981Z</time>
		<geoidheight>349</geoidheight>
	</trkpt>
	<trkpt lat="50.651347" lon="6.186445">
		<ele>395</ele>
		<time>2011-09-11T12:44:36.979Z</time>
		<geoidheight>349</geoidheight>
	</trkpt>
	<trkpt lat="50.651324" lon="6.186416">
		<ele>395</ele>
		<time>2011-09-11T12:44:37.980Z</time>
		<geoidheight>349</geoidheight>
	</trkpt>
	<trkpt lat="50.651316" lon="6.186408">
		<ele>395</ele>
		<time>2011-09-11T12:44:38.979Z</time>
		<geoidheight>349</geoidheight>
	</trkpt>
	<trkpt lat="50.651306" lon="6.186399">
		<ele>395</ele>
		<time>2011-09-11T12:44:39.976Z</time>
		<geoidheight>349</geoidheight>
	</trkpt>
	<trkpt lat="50.651306" lon="6.186399">
		<ele>395</ele>
		<time>2011-09-11T12:44:42.982Z</time>
		<geoidheight>349</geoidheight>
	</trkpt>
	<trkpt lat="50.651265" lon="6.186368">
		<ele>395</ele>
		<time>2011-09-11T12:44:43.985Z</time>
		<geoidheight>349</geoidheight>
	</trkpt>
	<trkpt lat="50.651265" lon="6.186368">
		<ele>395</ele>
		<time>2011-09-11T12:44:46.985Z</time>
		<geoidheight>349</geoidheight>
	</trkpt>
	<trkpt lat="50.651215" lon="6.186329">
		<ele>394</ele>
		<time>2011-09-11T12:44:47.976Z</time>
		<geoidheight>348</geoidheight>
	</trkpt>
	<trkpt lat="50.651198" lon="6.186322">
		<ele>394</ele>
		<time>2011-09-11T12:44:48.976Z</time>
		<geoidheight>348</geoidheight>
	</trkpt>
	<trkpt lat="50.651181" lon="6.186316">
		<ele>394</ele>
		<time>2011-09-11T12:44:49.979Z</time>
		<geoidheight>348</geoidheight>
	</trkpt>
	<trkpt lat="50.651164" lon="6.186311">
		<ele>394</ele>
		<time>2011-09-11T12:44:50.976Z</time>
		<geoidheight>348</geoidheight>
	</trkpt>
	<trkpt lat="50.651147" lon="6.186305">
		<ele>394</ele>
		<time>2011-09-11T12:44:51.976Z</time>
		<geoidheight>348</geoidheight>
	</trkpt>
	<trkpt lat="50.651130" lon="6.186295">
		<ele>394</ele>
		<time>2011-09-11T12:44:52.978Z</time>
		<geoidheight>348</geoidheight>
	</trkpt>
	<trkpt lat="50.651115" lon="6.186282">
		<ele>394</ele>
		<time>2011-09-11T12:44:53.976Z</time>
		<geoidheight>348</geoidheight>
	</trkpt>
	<trkpt lat="50.651101" lon="6.186268">
		<ele>394</ele>
		<time>2011-09-11T12:44:54.978Z</time>
		<geoidheight>348</geoidheight>
	</trkpt>
	<trkpt lat="50.651087" lon="6.186253">
		<ele>394</ele>
		<time>2011-09-11T12:44:55.979Z</time>
		<geoidheight>348</geoidheight>
	</trkpt>
	<trkpt lat="50.651074" lon="6.186238">
		<ele>394</ele>
		<time>2011-09-11T12:44:56.978Z</time>
		<geoidheight>348</geoidheight>
	</trkpt>
	<trkpt lat="50.651064" lon="6.186223">
		<ele>394</ele>
		<time>2011-09-11T12:44:57.976Z</time>
		<geoidheight>348</geoidheight>
	</trkpt>
	<trkpt lat="50.651055" lon="6.186209">
		<ele>394</ele>
		<time>2011-09-11T12:44:58.976Z</time>
		<geoidheight>348</geoidheight>
	</trkpt>
	<trkpt lat="50.651048" lon="6.186194">
		<ele>394</ele>
		<time>2011-09-11T12:44:59.979Z</time>
		<geoidheight>348</geoidheight>
	</trkpt>
	<trkpt lat="50.651040" lon="6.186181">
		<ele>394</ele>
		<time>2011-09-11T12:45:00.976Z</time>
		<geoidheight>348</geoidheight>
	</trkpt>
	<trkpt lat="50.651032" lon="6.186168">
		<ele>394</ele>
		<time>2011-09-11T12:45:01.990Z</time>
		<geoidheight>348</geoidheight>
	</trkpt>
	<trkpt lat="50.651024" lon="6.186155">
		<ele>394</ele>
		<time>2011-09-11T12:45:02.997Z</time>
		<geoidheight>348</geoidheight>
	</trkpt>
	<trkpt lat="50.651016" lon="6.186142">
		<ele>394</ele>
		<time>2011-09-11T12:45:03.995Z</time>
		<geoidheight>348</geoidheight>
	</trkpt>
	<trkpt lat="50.651006" lon="6.186128">
		<ele>394</ele>
		<time>2011-09-11T12:45:04.977Z</time>
		<geoidheight>348</geoidheight>
	</trkpt>
	<trkpt lat="50.650996" lon="6.186115">
		<ele>394</ele>
		<time>2011-09-11T12:45:05.980Z</time>
		<geoidheight>348</geoidheight>
	</trkpt>
	<trkpt lat="50.650985" lon="6.186101">
		<ele>394</ele>
		<time>2011-09-11T12:45:06.981Z</time>
		<geoidheight>348</geoidheight>
	</trkpt>
	<trkpt lat="50.650974" lon="6.186089">
		<ele>394</ele>
		<time>2011-09-11T12:45:07.995Z</time>
		<geoidheight>348</geoidheight>
	</trkpt>
	<trkpt lat="50.650963" lon="6.186077">
		<ele>394</ele>
		<time>2011-09-11T12:45:08.982Z</time>
		<geoidheight>348</geoidheight>
	</trkpt>
	<trkpt lat="50.650953" lon="6.186064">
		<ele>394</ele>
		<time>2011-09-11T12:45:09.978Z</time>
		<geoidheight>348</geoidheight>
	</trkpt>
	<trkpt lat="50.650942" lon="6.186053">
		<ele>394</ele>
		<time>2011-09-11T12:45:10.977Z</time>
		<geoidheight>348</geoidheight>
	</trkpt>
	<trkpt lat="50.650933" lon="6.186042">
		<ele>394</ele>
		<time>2011-09-11T12:45:11.977Z</time>
		<geoidheight>348</geoidheight>
	</trkpt>
	<trkpt lat="50.650925" lon="6.186029">
		<ele>394</ele>
		<time>2011-09-11T12:45:12.977Z</time>
		<geoidheight>348</geoidheight>
	</trkpt>
	<trkpt lat="50.650918" lon="6.186016">
		<ele>394</ele>
		<time>2011-09-11T12:45:13.977Z</time>
		<geoidheight>348</geoidheight>
	</trkpt>
	<trkpt lat="50.650909" lon="6.186007">
		<ele>394</ele>
		<time>2011-09-11T12:45:14.981Z</time>
		<geoidheight>348</geoidheight>
	</trkpt>
	<trkpt lat="50.650898" lon="6.186000">
		<ele>394</ele>
		<time>2011-09-11T12:45:16.005Z</time>
		<geoidheight>348</geoidheight>
	</trkpt>
	<trkpt lat="50.650887" lon="6.185995">
		<ele>394</ele>
		<time>2011-09-11T12:45:17.008Z</time>
		<geoidheight>348</geoidheight>
	</trkpt>
	<trkpt lat="50.650876" lon="6.185988">
		<ele>394</ele>
		<time>2011-09-11T12:45:18.005Z</time>
		<geoidheight>348</geoidheight>
	</trkpt>
	<trkpt lat="50.650863" lon="6.185982">
		<ele>394</ele>
		<time>2011-09-11T12:45:18.999Z</time>
		<geoidheight>348</geoidheight>
	</trkpt>
	<trkpt lat="50.650851" lon="6.185973">
		<ele>394</ele>
		<time>2011-09-11T12:45:20.000Z</time>
		<geoidheight>348</geoidheight>
	</trkpt>
	<trkpt lat="50.650837" lon="6.185963">
		<ele>394</ele>
		<time>2011-09-11T12:45:21.006Z</time>
		<geoidheight>348</geoidheight>
	</trkpt>
	<trkpt lat="50.650822" lon="6.185954">
		<ele>394</ele>
		<time>2011-09-11T12:45:22.002Z</time>
		<geoidheight>348</geoidheight>
	</trkpt>
	<trkpt lat="50.650808" lon="6.185944">
		<ele>394</ele>
		<time>2011-09-11T12:45:22.993Z</time>
		<geoidheight>348</geoidheight>
	</trkpt>
	<trkpt lat="50.650793" lon="6.185936">
		<ele>394</ele>
		<time>2011-09-11T12:45:23.979Z</time>
		<geoidheight>348</geoidheight>
	</trkpt>
	<trkpt lat="50.650779" lon="6.185928">
		<ele>394</ele>
		<time>2011-09-11T12:45:24.980Z</time>
		<geoidheight>348</geoidheight>
	</trkpt>
	<trkpt lat="50.650765" lon="6.185920">
		<ele>394</ele>
		<time>2011-09-11T12:45:25.981Z</time>
		<geoidheight>348</geoidheight>
	</trkpt>
	<trkpt lat="50.650751" lon="6.185911">
		<ele>394</ele>
		<time>2011-09-11T12:45:26.984Z</time>
		<geoidheight>348</geoidheight>
	</trkpt>
	<trkpt lat="50.650738" lon="6.185900">
		<ele>394</ele>
		<time>2011-09-11T12:45:27.982Z</time>
		<geoidheight>348</geoidheight>
	</trkpt>
	<trkpt lat="50.650725" lon="6.185888">
		<ele>394</ele>
		<time>2011-09-11T12:45:28.984Z</time>
		<geoidheight>348</geoidheight>
	</trkpt>
	<trkpt lat="50.650712" lon="6.185877">
		<ele>394</ele>
		<time>2011-09-11T12:45:29.990Z</time>
		<geoidheight>348</geoidheight>
	</trkpt>
	<trkpt lat="50.650699" lon="6.185867">
		<ele>394</ele>
		<time>2011-09-11T12:45:30.978Z</time>
		<geoidheight>348</geoidheight>
	</trkpt>
	<trkpt lat="50.650685" lon="6.185858">
		<ele>394</ele>
		<time>2011-09-11T12:45:31.978Z</time>
		<geoidheight>348</geoidheight>
	</trkpt>
	<trkpt lat="50.650670" lon="6.185851">
		<ele>394</ele>
		<time>2011-09-11T12:45:32.976Z</time>
		<geoidheight>348</geoidheight>
	</trkpt>
	<trkpt lat="50.650655" lon="6.185844">
		<ele>394</ele>
		<time>2011-09-11T12:45:33.978Z</time>
		<geoidheight>348</geoidheight>
	</trkpt>
	<trkpt lat="50.650639" lon="6.185837">
		<ele>394</ele>
		<time>2011-09-11T12:45:34.979Z</time>
		<geoidheight>348</geoidheight>
	</trkpt>
	<trkpt lat="50.650624" lon="6.185829">
		<ele>394</ele>
		<time>2011-09-11T12:45:35.978Z</time>
		<geoidheight>348</geoidheight>
	</trkpt>
	<trkpt lat="50.650609" lon="6.185822">
		<ele>394</ele>
		<time>2011-09-11T12:45:36.976Z</time>
		<geoidheight>348</geoidheight>
	</trkpt>
	<trkpt lat="50.650594" lon="6.185814">
		<ele>394</ele>
		<time>2011-09-11T12:45:37.979Z</time>
		<geoidheight>348</geoidheight>
	</trkpt>
	<trkpt lat="50.650579" lon="6.185807">
		<ele>394</ele>
		<time>2011-09-11T12:45:38.977Z</time>
		<geoidheight>348</geoidheight>
	</trkpt>
	<trkpt lat="50.650565" lon="6.185799">
		<ele>394</ele>
		<time>2011-09-11T12:45:39.980Z</time>
		<geoidheight>348</geoidheight>
	</trkpt>
	<trkpt lat="50.650552" lon="6.185790">
		<ele>394</ele>
		<time>2011-09-11T12:45:40.994Z</time>
		<geoidheight>348</geoidheight>
	</trkpt>
	<trkpt lat="50.650539" lon="6.185783">
		<ele>394</ele>
		<time>2011-09-11T12:45:41.992Z</time>
		<geoidheight>348</geoidheight>
	</trkpt>
	<trkpt lat="50.650526" lon="6.185776">
		<ele>394</ele>
		<time>2011-09-11T12:45:42.992Z</time>
		<geoidheight>348</geoidheight>
	</trkpt>
	<trkpt lat="50.650516" lon="6.185770">
		<ele>394</ele>
		<time>2011-09-11T12:45:44.007Z</time>
		<geoidheight>348</geoidheight>
	</trkpt>
	<trkpt lat="50.650506" lon="6.185765">
		<ele>394</ele>
		<time>2011-09-11T12:45:44.993Z</time>
		<geoidheight>348</geoidheight>
	</trkpt>
	<trkpt lat="50.650496" lon="6.185760">
		<ele>394</ele>
		<time>2011-09-11T12:45:45.989Z</time>
		<geoidheight>348</geoidheight>
	</trkpt>
	<trkpt lat="50.650485" lon="6.185755">
		<ele>394</ele>
		<time>2011-09-11T12:45:46.980Z</time>
		<geoidheight>348</geoidheight>
	</trkpt>
	<trkpt lat="50.650473" lon="6.185750">
		<ele>394</ele>
		<time>2011-09-11T12:45:47.986Z</time>
		<geoidheight>348</geoidheight>
	</trkpt>
	<trkpt lat="50.650460" lon="6.185746">
		<ele>394</ele>
		<time>2011-09-11T12:45:48.977Z</time>
		<geoidheight>348</geoidheight>
	</trkpt>
	<trkpt lat="50.650447" lon="6.185740">
		<ele>394</ele>
		<time>2011-09-11T12:45:49.977Z</time>
		<geoidheight>348</geoidheight>
	</trkpt>
	<trkpt lat="50.650434" lon="6.185733">
		<ele>394</ele>
		<time>2011-09-11T12:45:50.997Z</time>
		<geoidheight>348</geoidheight>
	</trkpt>
	<trkpt lat="50.650421" lon="6.185724">
		<ele>394</ele>
		<time>2011-09-11T12:45:51.994Z</time>
		<geoidheight>348</geoidheight>
	</trkpt>
	<trkpt lat="50.650408" lon="6.185714">
		<ele>394</ele>
		<time>2011-09-11T12:45:52.993Z</time>
		<geoidheight>348</geoidheight>
	</trkpt>
	<trkpt lat="50.650396" lon="6.185704">
		<ele>394</ele>
		<time>2011-09-11T12:45:53.996Z</time>
		<geoidheight>348</geoidheight>
	</trkpt>
	<trkpt lat="50.650383" lon="6.185695">
		<ele>394</ele>
		<time>2011-09-11T12:45:54.976Z</time>
		<geoidheight>348</geoidheight>
	</trkpt>
	<trkpt lat="50.650370" lon="6.185688">
		<ele>394</ele>
		<time>2011-09-11T12:45:55.976Z</time>
		<geoidheight>348</geoidheight>
	</trkpt>
	<trkpt lat="50.650359" lon="6.185679">
		<ele>394</ele>
		<time>2011-09-11T12:45:56.979Z</time>
		<geoidheight>348</geoidheight>
	</trkpt>
	<trkpt lat="50.650349" lon="6.185670">
		<ele>394</ele>
		<time>2011-09-11T12:45:57.977Z</time>
		<geoidheight>348</geoidheight>
	</trkpt>
	<trkpt lat="50.650338" lon="6.185661">
		<ele>394</ele>
		<time>2011-09-11T12:45:58.979Z</time>
		<geoidheight>348</geoidheight>
	</trkpt>
	<trkpt lat="50.650328" lon="6.185656">
		<ele>394</ele>
		<time>2011-09-11T12:45:59.981Z</time>
		<geoidheight>348</geoidheight>
	</trkpt>
	<trkpt lat="50.650317" lon="6.185650">
		<ele>394</ele>
		<time>2011-09-11T12:46:00.995Z</time>
		<geoidheight>348</geoidheight>
	</trkpt>
	<trkpt lat="50.650307" lon="6.185645">
		<ele>394</ele>
		<time>2011-09-11T12:46:01.980Z</time>
		<geoidheight>348</geoidheight>
	</trkpt>
	<trkpt lat="50.650296" lon="6.185640">
		<ele>394</ele>
		<time>2011-09-11T12:46:02.993Z</time>
		<geoidheight>348</geoidheight>
	</trkpt>
	<trkpt lat="50.650274" lon="6.185631">
		<ele>394</ele>
		<time>2011-09-11T12:46:03.989Z</time>
		<geoidheight>348</geoidheight>
	</trkpt>
	<trkpt lat="50.650261" lon="6.185628">
		<ele>394</ele>
		<time>2011-09-11T12:46:04.995Z</time>
		<geoidheight>348</geoidheight>
	</trkpt>
	<trkpt lat="50.650249" lon="6.185624">
		<ele>394</ele>
		<time>2011-09-11T12:46:06.006Z</time>
		<geoidheight>348</geoidheight>
	</trkpt>
	<trkpt lat="50.650237" lon="6.185618">
		<ele>394</ele>
		<time>2011-09-11T12:46:06.990Z</time>
		<geoidheight>348</geoidheight>
	</trkpt>
	<trkpt lat="50.650225" lon="6.185614">
		<ele>394</ele>
		<time>2011-09-11T12:46:08.009Z</time>
		<geoidheight>348</geoidheight>
	</trkpt>
	<trkpt lat="50.650213" lon="6.185609">
		<ele>394</ele>
		<time>2011-09-11T12:46:08.991Z</time>
		<geoidheight>348</geoidheight>
	</trkpt>
	<trkpt lat="50.650201" lon="6.185603">
		<ele>394</ele>
		<time>2011-09-11T12:46:10.001Z</time>
		<geoidheight>348</geoidheight>
	</trkpt>
	<trkpt lat="50.650189" lon="6.185598">
		<ele>394</ele>
		<time>2011-09-11T12:46:10.986Z</time>
		<geoidheight>348</geoidheight>
	</trkpt>
	<trkpt lat="50.650175" lon="6.185592">
		<ele>394</ele>
		<time>2011-09-11T12:46:11.978Z</time>
		<geoidheight>348</geoidheight>
	</trkpt>
	<trkpt lat="50.650161" lon="6.185588">
		<ele>394</ele>
		<time>2011-09-11T12:46:12.982Z</time>
		<geoidheight>348</geoidheight>
	</trkpt>
	<trkpt lat="50.650146" lon="6.185584">
		<ele>394</ele>
		<time>2011-09-11T12:46:13.994Z</time>
		<geoidheight>348</geoidheight>
	</trkpt>
	<trkpt lat="50.650132" lon="6.185579">
		<ele>394</ele>
		<time>2011-09-11T12:46:14.979Z</time>
		<geoidheight>348</geoidheight>
	</trkpt>
	<trkpt lat="50.650118" lon="6.185577">
		<ele>394</ele>
		<time>2011-09-11T12:46:15.979Z</time>
		<geoidheight>348</geoidheight>
	</trkpt>
	<trkpt lat="50.650105" lon="6.185576">
		<ele>394</ele>
		<time>2011-09-11T12:46:16.996Z</time>
		<geoidheight>348</geoidheight>
	</trkpt>
	<trkpt lat="50.650092" lon="6.185575">
		<ele>394</ele>
		<time>2011-09-11T12:46:17.984Z</time>
		<geoidheight>348</geoidheight>
	</trkpt>
	<trkpt lat="50.650080" lon="6.185574">
		<ele>394</ele>
		<time>2011-09-11T12:46:18.983Z</time>
		<geoidheight>348</geoidheight>
	</trkpt>
	<trkpt lat="50.650071" lon="6.185572">
		<ele>394</ele>
		<time>2011-09-11T12:46:19.978Z</time>
		<geoidheight>348</geoidheight>
	</trkpt>
	<trkpt lat="50.650065" lon="6.185573">
		<ele>394</ele>
		<time>2011-09-11T12:46:20.977Z</time>
		<geoidheight>348</geoidheight>
	</trkpt>
	<trkpt lat="50.650061" lon="6.185575">
		<ele>394</ele>
		<time>2011-09-11T12:46:21.976Z</time>
		<geoidheight>348</geoidheight>
	</trkpt>
	<trkpt lat="50.650058" lon="6.185578">
		<ele>394</ele>
		<time>2011-09-11T12:46:28.986Z</time>
		<geoidheight>348</geoidheight>
	</trkpt>
	<trkpt lat="50.650052" lon="6.185579">
		<ele>394</ele>
		<time>2011-09-11T12:46:29.978Z</time>
		<geoidheight>348</geoidheight>
	</trkpt>
	<trkpt lat="50.650045" lon="6.185578">
		<ele>394</ele>
		<time>2011-09-11T12:46:30.998Z</time>
		<geoidheight>348</geoidheight>
	</trkpt>
	<trkpt lat="50.650039" lon="6.185575">
		<ele>394</ele>
		<time>2011-09-11T12:46:31.994Z</time>
		<geoidheight>348</geoidheight>
	</trkpt>
	<trkpt lat="50.650031" lon="6.185570">
		<ele>394</ele>
		<time>2011-09-11T12:46:32.995Z</time>
		<geoidheight>348</geoidheight>
	</trkpt>
	<trkpt lat="50.650021" lon="6.185565">
		<ele>394</ele>
		<time>2011-09-11T12:46:33.996Z</time>
		<geoidheight>348</geoidheight>
	</trkpt>
	<trkpt lat="50.650009" lon="6.185558">
		<ele>394</ele>
		<time>2011-09-11T12:46:35.003Z</time>
		<geoidheight>348</geoidheight>
	</trkpt>
	<trkpt lat="50.649997" lon="6.185551">
		<ele>394</ele>
		<time>2011-09-11T12:46:36.002Z</time>
		<geoidheight>348</geoidheight>
	</trkpt>
	<trkpt lat="50.649983" lon="6.185546">
		<ele>394</ele>
		<time>2011-09-11T12:46:36.991Z</time>
		<geoidheight>348</geoidheight>
	</trkpt>
	<trkpt lat="50.649970" lon="6.185538">
		<ele>394</ele>
		<time>2011-09-11T12:46:37.978Z</time>
		<geoidheight>348</geoidheight>
	</trkpt>
	<trkpt lat="50.649959" lon="6.185525">
		<ele>394</ele>
		<time>2011-09-11T12:46:38.990Z</time>
		<geoidheight>348</geoidheight>
	</trkpt>
	<trkpt lat="50.649948" lon="6.185510">
		<ele>394</ele>
		<time>2011-09-11T12:46:39.977Z</time>
		<geoidheight>348</geoidheight>
	</trkpt>
	<trkpt lat="50.649937" lon="6.185497">
		<ele>394</ele>
		<time>2011-09-11T12:46:40.977Z</time>
		<geoidheight>348</geoidheight>
	</trkpt>
	<trkpt lat="50.649926" lon="6.185484">
		<ele>394</ele>
		<time>2011-09-11T12:46:41.984Z</time>
		<geoidheight>348</geoidheight>
	</trkpt>
	<trkpt lat="50.649916" lon="6.185472">
		<ele>394</ele>
		<time>2011-09-11T12:46:42.979Z</time>
		<geoidheight>348</geoidheight>
	</trkpt>
	<trkpt lat="50.649902" lon="6.185463">
		<ele>394</ele>
		<time>2011-09-11T12:46:43.977Z</time>
		<geoidheight>348</geoidheight>
	</trkpt>
	<trkpt lat="50.649888" lon="6.185454">
		<ele>394</ele>
		<time>2011-09-11T12:46:44.981Z</time>
		<geoidheight>348</geoidheight>
	</trkpt>
	<trkpt lat="50.649874" lon="6.185446">
		<ele>394</ele>
		<time>2011-09-11T12:46:45.979Z</time>
		<geoidheight>348</geoidheight>
	</trkpt>
	<trkpt lat="50.649860" lon="6.185440">
		<ele>394</ele>
		<time>2011-09-11T12:46:46.985Z</time>
		<geoidheight>348</geoidheight>
	</trkpt>
	<trkpt lat="50.649846" lon="6.185431">
		<ele>394</ele>
		<time>2011-09-11T12:46:47.980Z</time>
		<geoidheight>348</geoidheight>
	</trkpt>
	<trkpt lat="50.649832" lon="6.185425">
		<ele>394</ele>
		<time>2011-09-11T12:46:48.982Z</time>
		<geoidheight>348</geoidheight>
	</trkpt>
	<trkpt lat="50.649819" lon="6.185417">
		<ele>394</ele>
		<time>2011-09-11T12:46:49.995Z</time>
		<geoidheight>348</geoidheight>
	</trkpt>
	<trkpt lat="50.649809" lon="6.185409">
		<ele>394</ele>
		<time>2011-09-11T12:46:50.978Z</time>
		<geoidheight>348</geoidheight>
	</trkpt>
	<trkpt lat="50.649796" lon="6.185402">
		<ele>394</ele>
		<time>2011-09-11T12:46:51.979Z</time>
		<geoidheight>348</geoidheight>
	</trkpt>
	<trkpt lat="50.649784" lon="6.185395">
		<ele>394</ele>
		<time>2011-09-11T12:46:52.995Z</time>
		<geoidheight>348</geoidheight>
	</trkpt>
	<trkpt lat="50.649772" lon="6.185388">
		<ele>394</ele>
		<time>2011-09-11T12:46:53.986Z</time>
		<geoidheight>348</geoidheight>
	</trkpt>
	<trkpt lat="50.649760" lon="6.185380">
		<ele>394</ele>
		<time>2011-09-11T12:46:54.979Z</time>
		<geoidheight>348</geoidheight>
	</trkpt>
	<trkpt lat="50.649746" lon="6.185375">
		<ele>394</ele>
		<time>2011-09-11T12:46:55.991Z</time>
		<geoidheight>348</geoidheight>
	</trkpt>
	<trkpt lat="50.649733" lon="6.185371">
		<ele>394</ele>
		<time>2011-09-11T12:46:56.990Z</time>
		<geoidheight>348</geoidheight>
	</trkpt>
	<trkpt lat="50.649719" lon="6.185367">
		<ele>394</ele>
		<time>2011-09-11T12:46:57.993Z</time>
		<geoidheight>348</geoidheight>
	</trkpt>
	<trkpt lat="50.649704" lon="6.185366">
		<ele>394</ele>
		<time>2011-09-11T12:46:58.993Z</time>
		<geoidheight>348</geoidheight>
	</trkpt>
	<trkpt lat="50.649689" lon="6.185362">
		<ele>394</ele>
		<time>2011-09-11T12:46:59.994Z</time>
		<geoidheight>348</geoidheight>
	</trkpt>
	<trkpt lat="50.649675" lon="6.185354">
		<ele>394</ele>
		<time>2011-09-11T12:47:01.003Z</time>
		<geoidheight>348</geoidheight>
	</trkpt>
	<trkpt lat="50.649662" lon="6.185348">
		<ele>394</ele>
		<time>2011-09-11T12:47:02.007Z</time>
		<geoidheight>348</geoidheight>
	</trkpt>
	<trkpt lat="50.649649" lon="6.185344">
		<ele>394</ele>
		<time>2011-09-11T12:47:02.992Z</time>
		<geoidheight>348</geoidheight>
	</trkpt>
	<trkpt lat="50.649636" lon="6.185339">
		<ele>394</ele>
		<time>2011-09-11T12:47:03.994Z</time>
		<geoidheight>348</geoidheight>
	</trkpt>
	<trkpt lat="50.649624" lon="6.185333">
		<ele>394</ele>
		<time>2011-09-11T12:47:04.994Z</time>
		<geoidheight>348</geoidheight>
	</trkpt>
	<trkpt lat="50.649611" lon="6.185328">
		<ele>394</ele>
		<time>2011-09-11T12:47:05.988Z</time>
		<geoidheight>348</geoidheight>
	</trkpt>
	<trkpt lat="50.649598" lon="6.185322">
		<ele>394</ele>
		<time>2011-09-11T12:47:06.995Z</time>
		<geoidheight>348</geoidheight>
	</trkpt>
	<trkpt lat="50.649585" lon="6.185319">
		<ele>394</ele>
		<time>2011-09-11T12:47:07.995Z</time>
		<geoidheight>348</geoidheight>
	</trkpt>
	<trkpt lat="50.649572" lon="6.185317">
		<ele>394</ele>
		<time>2011-09-11T12:47:09.008Z</time>
		<geoidheight>348</geoidheight>
	</trkpt>
	<trkpt lat="50.649559" lon="6.185312">
		<ele>394</ele>
		<time>2011-09-11T12:47:10.007Z</time>
		<geoidheight>348</geoidheight>
	</trkpt>
	<trkpt lat="50.649545" lon="6.185307">
		<ele>395</ele>
		<time>2011-09-11T12:47:11.000Z</time>
		<geoidheight>349</geoidheight>
	</trkpt>
	<trkpt lat="50.649532" lon="6.185302">
		<ele>395</ele>
		<time>2011-09-11T12:47:12.008Z</time>
		<geoidheight>349</geoidheight>
	</trkpt>
	<trkpt lat="50.649518" lon="6.185297">
		<ele>395</ele>
		<time>2011-09-11T12:47:13.005Z</time>
		<geoidheight>349</geoidheight>
	</trkpt>
	<trkpt lat="50.649504" lon="6.185292">
		<ele>395</ele>
		<time>2011-09-11T12:47:14.001Z</time>
		<geoidheight>349</geoidheight>
	</trkpt>
	<trkpt lat="50.649491" lon="6.185287">
		<ele>395</ele>
		<time>2011-09-11T12:47:15.000Z</time>
		<geoidheight>349</geoidheight>
	</trkpt>
	<trkpt lat="50.649478" lon="6.185279">
		<ele>395</ele>
		<time>2011-09-11T12:47:16.005Z</time>
		<geoidheight>349</geoidheight>
	</trkpt>
	<trkpt lat="50.649464" lon="6.185269">
		<ele>395</ele>
		<time>2011-09-11T12:47:16.997Z</time>
		<geoidheight>349</geoidheight>
	</trkpt>
	<trkpt lat="50.649451" lon="6.185257">
		<ele>395</ele>
		<time>2011-09-11T12:47:17.996Z</time>
		<geoidheight>349</geoidheight>
	</trkpt>
	<trkpt lat="50.649437" lon="6.185247">
		<ele>395</ele>
		<time>2011-09-11T12:47:18.998Z</time>
		<geoidheight>349</geoidheight>
	</trkpt>
	<trkpt lat="50.649424" lon="6.185236">
		<ele>395</ele>
		<time>2011-09-11T12:47:20.001Z</time>
		<geoidheight>349</geoidheight>
	</trkpt>
	<trkpt lat="50.649410" lon="6.185224">
		<ele>395</ele>
		<time>2011-09-11T12:47:21.008Z</time>
		<geoidheight>349</geoidheight>
	</trkpt>
	<trkpt lat="50.649397" lon="6.185213">
		<ele>395</ele>
		<time>2011-09-11T12:47:21.997Z</time>
		<geoidheight>349</geoidheight>
	</trkpt>
	<trkpt lat="50.649382" lon="6.185202">
		<ele>395</ele>
		<time>2011-09-11T12:47:23.007Z</time>
		<geoidheight>349</geoidheight>
	</trkpt>
	<trkpt lat="50.649368" lon="6.185191">
		<ele>395</ele>
		<time>2011-09-11T12:47:23.996Z</time>
		<geoidheight>349</geoidheight>
	</trkpt>
	<trkpt lat="50.649354" lon="6.185178">
		<ele>395</ele>
		<time>2011-09-11T12:47:24.991Z</time>
		<geoidheight>349</geoidheight>
	</trkpt>
	<trkpt lat="50.649341" lon="6.185166">
		<ele>395</ele>
		<time>2011-09-11T12:47:25.993Z</time>
		<geoidheight>349</geoidheight>
	</trkpt>
	<trkpt lat="50.649328" lon="6.185163">
		<ele>395</ele>
		<time>2011-09-11T12:47:26.993Z</time>
		<geoidheight>349</geoidheight>
	</trkpt>
	<trkpt lat="50.649315" lon="6.185160">
		<ele>395</ele>
		<time>2011-09-11T12:47:27.999Z</time>
		<geoidheight>349</geoidheight>
	</trkpt>
	<trkpt lat="50.649315" lon="6.185160">
		<ele>395</ele>
		<time>2011-09-11T12:47:28.995Z</time>
		<geoidheight>349</geoidheight>
	</trkpt>
	<trkpt lat="50.649318" lon="6.185150">
		<ele>395</ele>
		<time>2011-09-11T12:47:31.996Z</time>
		<geoidheight>349</geoidheight>
	</trkpt>
	<trkpt lat="50.649313" lon="6.185142">
		<ele>395</ele>
		<time>2011-09-11T12:47:32.988Z</time>
		<geoidheight>349</geoidheight>
	</trkpt>
	<trkpt lat="50.649304" lon="6.185134">
		<ele>395</ele>
		<time>2011-09-11T12:47:33.993Z</time>
		<geoidheight>349</geoidheight>
	</trkpt>
	<trkpt lat="50.649295" lon="6.185125">
		<ele>395</ele>
		<time>2011-09-11T12:47:35.001Z</time>
		<geoidheight>349</geoidheight>
	</trkpt>
	<trkpt lat="50.649286" lon="6.185114">
		<ele>395</ele>
		<time>2011-09-11T12:47:35.998Z</time>
		<geoidheight>349</geoidheight>
	</trkpt>
	<trkpt lat="50.649276" lon="6.185105">
		<ele>395</ele>
		<time>2011-09-11T12:47:36.982Z</time>
		<geoidheight>349</geoidheight>
	</trkpt>
	<trkpt lat="50.649266" lon="6.185096">
		<ele>395</ele>
		<time>2011-09-11T12:47:37.983Z</time>
		<geoidheight>349</geoidheight>
	</trkpt>
	<trkpt lat="50.649256" lon="6.185087">
		<ele>395</ele>
		<time>2011-09-11T12:47:38.984Z</time>
		<geoidheight>349</geoidheight>
	</trkpt>
	<trkpt lat="50.649247" lon="6.185077">
		<ele>395</ele>
		<time>2011-09-11T12:47:39.980Z</time>
		<geoidheight>349</geoidheight>
	</trkpt>
	<trkpt lat="50.649236" lon="6.185069">
		<ele>395</ele>
		<time>2011-09-11T12:47:40.979Z</time>
		<geoidheight>349</geoidheight>
	</trkpt>
	<trkpt lat="50.649226" lon="6.185060">
		<ele>395</ele>
		<time>2011-09-11T12:47:41.978Z</time>
		<geoidheight>349</geoidheight>
	</trkpt>
	<trkpt lat="50.649215" lon="6.185051">
		<ele>395</ele>
		<time>2011-09-11T12:47:42.982Z</time>
		<geoidheight>349</geoidheight>
	</trkpt>
	<trkpt lat="50.649207" lon="6.185050">
		<ele>395</ele>
		<time>2011-09-11T12:47:43.980Z</time>
		<geoidheight>349</geoidheight>
	</trkpt>
	<trkpt lat="50.649200" lon="6.185048">
		<ele>395</ele>
		<time>2011-09-11T12:47:44.979Z</time>
		<geoidheight>349</geoidheight>
	</trkpt>
	<trkpt lat="50.649190" lon="6.185037">
		<ele>395</ele>
		<time>2011-09-11T12:47:45.985Z</time>
		<geoidheight>349</geoidheight>
	</trkpt>
	<trkpt lat="50.649181" lon="6.185026">
		<ele>395</ele>
		<time>2011-09-11T12:47:46.979Z</time>
		<geoidheight>349</geoidheight>
	</trkpt>
	<trkpt lat="50.649172" lon="6.185013">
		<ele>395</ele>
		<time>2011-09-11T12:47:47.977Z</time>
		<geoidheight>349</geoidheight>
	</trkpt>
	<trkpt lat="50.649162" lon="6.185001">
		<ele>395</ele>
		<time>2011-09-11T12:47:48.984Z</time>
		<geoidheight>349</geoidheight>
	</trkpt>
	<trkpt lat="50.649152" lon="6.184997">
		<ele>395</ele>
		<time>2011-09-11T12:47:49.977Z</time>
		<geoidheight>349</geoidheight>
	</trkpt>
	<trkpt lat="50.649143" lon="6.184990">
		<ele>395</ele>
		<time>2011-09-11T12:47:50.982Z</time>
		<geoidheight>349</geoidheight>
	</trkpt>
	<trkpt lat="50.649133" lon="6.184985">
		<ele>395</ele>
		<time>2011-09-11T12:47:51.982Z</time>
		<geoidheight>349</geoidheight>
	</trkpt>
	<trkpt lat="50.649122" lon="6.184978">
		<ele>395</ele>
		<time>2011-09-11T12:47:52.996Z</time>
		<geoidheight>349</geoidheight>
	</trkpt>
	<trkpt lat="50.649110" lon="6.184970">
		<ele>395</ele>
		<time>2011-09-11T12:47:53.979Z</time>
		<geoidheight>349</geoidheight>
	</trkpt>
	<trkpt lat="50.649098" lon="6.184966">
		<ele>395</ele>
		<time>2011-09-11T12:47:54.991Z</time>
		<geoidheight>349</geoidheight>
	</trkpt>
	<trkpt lat="50.649088" lon="6.184961">
		<ele>395</ele>
		<time>2011-09-11T12:47:56.010Z</time>
		<geoidheight>349</geoidheight>
	</trkpt>
	<trkpt lat="50.649079" lon="6.184956">
		<ele>395</ele>
		<time>2011-09-11T12:47:56.996Z</time>
		<geoidheight>349</geoidheight>
	</trkpt>
	<trkpt lat="50.649071" lon="6.184952">
		<ele>395</ele>
		<time>2011-09-11T12:47:57.986Z</time>
		<geoidheight>349</geoidheight>
	</trkpt>
	<trkpt lat="50.649063" lon="6.184949">
		<ele>395</ele>
		<time>2011-09-11T12:47:58.986Z</time>
		<geoidheight>349</geoidheight>
	</trkpt>
	<trkpt lat="50.649053" lon="6.184948">
		<ele>395</ele>
		<time>2011-09-11T12:47:59.996Z</time>
		<geoidheight>349</geoidheight>
	</trkpt>
	<trkpt lat="50.649043" lon="6.184944">
		<ele>395</ele>
		<time>2011-09-11T12:48:00.992Z</time>
		<geoidheight>349</geoidheight>
	</trkpt>
	<trkpt lat="50.649033" lon="6.184940">
		<ele>395</ele>
		<time>2011-09-11T12:48:02.002Z</time>
		<geoidheight>349</geoidheight>
	</trkpt>
	<trkpt lat="50.649021" lon="6.184937">
		<ele>395</ele>
		<time>2011-09-11T12:48:02.978Z</time>
		<geoidheight>349</geoidheight>
	</trkpt>
	<trkpt lat="50.649009" lon="6.184935">
		<ele>395</ele>
		<time>2011-09-11T12:48:03.979Z</time>
		<geoidheight>349</geoidheight>
	</trkpt>
	<trkpt lat="50.648997" lon="6.184930">
		<ele>395</ele>
		<time>2011-09-11T12:48:04.994Z</time>
		<geoidheight>349</geoidheight>
	</trkpt>
	<trkpt lat="50.648985" lon="6.184929">
		<ele>395</ele>
		<time>2011-09-11T12:48:05.981Z</time>
		<geoidheight>349</geoidheight>
	</trkpt>
	<trkpt lat="50.648973" lon="6.184927">
		<ele>395</ele>
		<time>2011-09-11T12:48:06.978Z</time>
		<geoidheight>349</geoidheight>
	</trkpt>
	<trkpt lat="50.648961" lon="6.184921">
		<ele>395</ele>
		<time>2011-09-11T12:48:07.979Z</time>
		<geoidheight>349</geoidheight>
	</trkpt>
	<trkpt lat="50.648949" lon="6.184913">
		<ele>395</ele>
		<time>2011-09-11T12:48:08.978Z</time>
		<geoidheight>349</geoidheight>
	</trkpt>
	<trkpt lat="50.648936" lon="6.184903">
		<ele>395</ele>
		<time>2011-09-11T12:48:09.978Z</time>
		<geoidheight>349</geoidheight>
	</trkpt>
	<trkpt lat="50.648924" lon="6.184890">
		<ele>395</ele>
		<time>2011-09-11T12:48:10.978Z</time>
		<geoidheight>349</geoidheight>
	</trkpt>
	<trkpt lat="50.648913" lon="6.184879">
		<ele>395</ele>
		<time>2011-09-11T12:48:11.978Z</time>
		<geoidheight>349</geoidheight>
	</trkpt>
	<trkpt lat="50.648900" lon="6.184871">
		<ele>395</ele>
		<time>2011-09-11T12:48:12.984Z</time>
		<geoidheight>349</geoidheight>
	</trkpt>
	<trkpt lat="50.648886" lon="6.184864">
		<ele>395</ele>
		<time>2011-09-11T12:48:13.983Z</time>
		<geoidheight>349</geoidheight>
	</trkpt>
	<trkpt lat="50.648875" lon="6.184855">
		<ele>395</ele>
		<time>2011-09-11T12:48:14.990Z</time>
		<geoidheight>349</geoidheight>
	</trkpt>
	<trkpt lat="50.648864" lon="6.184848">
		<ele>395</ele>
		<time>2011-09-11T12:48:15.993Z</time>
		<geoidheight>349</geoidheight>
	</trkpt>
	<trkpt lat="50.648852" lon="6.184842">
		<ele>395</ele>
		<time>2011-09-11T12:48:17.008Z</time>
		<geoidheight>349</geoidheight>
	</trkpt>
	<trkpt lat="50.648840" lon="6.184836">
		<ele>395</ele>
		<time>2011-09-11T12:48:17.989Z</time>
		<geoidheight>349</geoidheight>
	</trkpt>
	<trkpt lat="50.648829" lon="6.184830">
		<ele>395</ele>
		<time>2011-09-11T12:48:18.994Z</time>
		<geoidheight>349</geoidheight>
	</trkpt>
	<trkpt lat="50.648818" lon="6.184823">
		<ele>395</ele>
		<time>2011-09-11T12:48:20.004Z</time>
		<geoidheight>349</geoidheight>
	</trkpt>
	<trkpt lat="50.648806" lon="6.184817">
		<ele>395</ele>
		<time>2011-09-11T12:48:20.998Z</time>
		<geoidheight>349</geoidheight>
	</trkpt>
	<trkpt lat="50.648794" lon="6.184815">
		<ele>395</ele>
		<time>2011-09-11T12:48:21.994Z</time>
		<geoidheight>349</geoidheight>
	</trkpt>
	<trkpt lat="50.648783" lon="6.184811">
		<ele>395</ele>
		<time>2011-09-11T12:48:22.979Z</time>
		<geoidheight>349</geoidheight>
	</trkpt>
	<trkpt lat="50.648772" lon="6.184805">
		<ele>395</ele>
		<time>2011-09-11T12:48:23.978Z</time>
		<geoidheight>349</geoidheight>
	</trkpt>
	<trkpt lat="50.648761" lon="6.184796">
		<ele>395</ele>
		<time>2011-09-11T12:48:24.979Z</time>
		<geoidheight>349</geoidheight>
	</trkpt>
	<trkpt lat="50.648749" lon="6.184783">
		<ele>395</ele>
		<time>2011-09-11T12:48:25.980Z</time>
		<geoidheight>349</geoidheight>
	</trkpt>
	<trkpt lat="50.648737" lon="6.184769">
		<ele>395</ele>
		<time>2011-09-11T12:48:26.978Z</time>
		<geoidheight>349</geoidheight>
	</trkpt>
	<trkpt lat="50.648725" lon="6.184756">
		<ele>395</ele>
		<time>2011-09-11T12:48:27.979Z</time>
		<geoidheight>349</geoidheight>
	</trkpt>
	<trkpt lat="50.648713" lon="6.184745">
		<ele>395</ele>
		<time>2011-09-11T12:48:28.980Z</time>
		<geoidheight>349</geoidheight>
	</trkpt>
	<trkpt lat="50.648700" lon="6.184739">
		<ele>395</ele>
		<time>2011-09-11T12:48:29.978Z</time>
		<geoidheight>349</geoidheight>
	</trkpt>
	<trkpt lat="50.648688" lon="6.184734">
		<ele>395</ele>
		<time>2011-09-11T12:48:30.979Z</time>
		<geoidheight>349</geoidheight>
	</trkpt>
	<trkpt lat="50.648676" lon="6.184730">
		<ele>395</ele>
		<time>2011-09-11T12:48:31.980Z</time>
		<geoidheight>349</geoidheight>
	</trkpt>
	<trkpt lat="50.648664" lon="6.184725">
		<ele>395</ele>
		<time>2011-09-11T12:48:32.981Z</time>
		<geoidheight>349</geoidheight>
	</trkpt>
	<trkpt lat="50.648652" lon="6.184722">
		<ele>395</ele>
		<time>2011-09-11T12:48:33.978Z</time>
		<geoidheight>349</geoidheight>
	</trkpt>
	<trkpt lat="50.648640" lon="6.184719">
		<ele>395</ele>
		<time>2011-09-11T12:48:34.978Z</time>
		<geoidheight>349</geoidheight>
	</trkpt>
	<trkpt lat="50.648628" lon="6.184714">
		<ele>395</ele>
		<time>2011-09-11T12:48:35.982Z</time>
		<geoidheight>349</geoidheight>
	</trkpt>
	<trkpt lat="50.648616" lon="6.184712">
		<ele>395</ele>
		<time>2011-09-11T12:48:36.980Z</time>
		<geoidheight>349</geoidheight>
	</trkpt>
	<trkpt lat="50.648605" lon="6.184708">
		<ele>395</ele>
		<time>2011-09-11T12:48:37.992Z</time>
		<geoidheight>349</geoidheight>
	</trkpt>
	<trkpt lat="50.648602" lon="6.184694">
		<ele>395</ele>
		<time>2011-09-11T12:48:38.985Z</time>
		<geoidheight>349</geoidheight>
	</trkpt>
	<trkpt lat="50.648599" lon="6.184677">
		<ele>395</ele>
		<time>2011-09-11T12:48:40.004Z</time>
		<geoidheight>349</geoidheight>
	</trkpt>
	<trkpt lat="50.648600" lon="6.184655">
		<ele>395</ele>
		<time>2011-09-11T12:48:41.007Z</time>
		<geoidheight>349</geoidheight>
	</trkpt>
	<trkpt lat="50.648603" lon="6.184633">
		<ele>395</ele>
		<time>2011-09-11T12:48:42.003Z</time>
		<geoidheight>349</geoidheight>
	</trkpt>
	<trkpt lat="50.648607" lon="6.184615">
		<ele>395</ele>
		<time>2011-09-11T12:48:43.002Z</time>
		<geoidheight>349</geoidheight>
	</trkpt>
	<trkpt lat="50.648611" lon="6.184598">
		<ele>395</ele>
		<time>2011-09-11T12:48:44.014Z</time>
		<geoidheight>349</geoidheight>
	</trkpt>
	<trkpt lat="50.648616" lon="6.184583">
		<ele>395</ele>
		<time>2011-09-11T12:48:45.000Z</time>
		<geoidheight>349</geoidheight>
	</trkpt>
	<trkpt lat="50.648620" lon="6.184569">
		<ele>395</ele>
		<time>2011-09-11T12:48:46.017Z</time>
		<geoidheight>349</geoidheight>
	</trkpt>
	<trkpt lat="50.648622" lon="6.184556">
		<ele>395</ele>
		<time>2011-09-11T12:48:47.011Z</time>
		<geoidheight>349</geoidheight>
	</trkpt>
	<trkpt lat="50.648627" lon="6.184546">
		<ele>395</ele>
		<time>2011-09-11T12:48:48.002Z</time>
		<geoidheight>349</geoidheight>
	</trkpt>
	<trkpt lat="50.648621" lon="6.184535">
		<ele>395</ele>
		<time>2011-09-11T12:48:54.008Z</time>
		<geoidheight>349</geoidheight>
	</trkpt>
	<trkpt lat="50.648613" lon="6.184532">
		<ele>395</ele>
		<time>2011-09-11T12:48:54.997Z</time>
		<geoidheight>349</geoidheight>
	</trkpt>
	<trkpt lat="50.648604" lon="6.184525">
		<ele>395</ele>
		<time>2011-09-11T12:48:55.995Z</time>
		<geoidheight>349</geoidheight>
	</trkpt>
	<trkpt lat="50.648593" lon="6.184518">
		<ele>395</ele>
		<time>2011-09-11T12:48:56.996Z</time>
		<geoidheight>349</geoidheight>
	</trkpt>
	<trkpt lat="50.648580" lon="6.184512">
		<ele>395</ele>
		<time>2011-09-11T12:48:57.994Z</time>
		<geoidheight>349</geoidheight>
	</trkpt>
	<trkpt lat="50.648568" lon="6.184506">
		<ele>395</ele>
		<time>2011-09-11T12:48:58.993Z</time>
		<geoidheight>349</geoidheight>
	</trkpt>
	<trkpt lat="50.648557" lon="6.184503">
		<ele>395</ele>
		<time>2011-09-11T12:48:59.995Z</time>
		<geoidheight>349</geoidheight>
	</trkpt>
	<trkpt lat="50.648546" lon="6.184499">
		<ele>395</ele>
		<time>2011-09-11T12:49:00.993Z</time>
		<geoidheight>349</geoidheight>
	</trkpt>
	<trkpt lat="50.648536" lon="6.184509">
		<ele>395</ele>
		<time>2011-09-11T12:49:01.996Z</time>
		<geoidheight>349</geoidheight>
	</trkpt>
	<trkpt lat="50.648527" lon="6.184524">
		<ele>395</ele>
		<time>2011-09-11T12:49:02.991Z</time>
		<geoidheight>349</geoidheight>
	</trkpt>
	<trkpt lat="50.648522" lon="6.184535">
		<ele>395</ele>
		<time>2011-09-11T12:49:03.996Z</time>
		<geoidheight>349</geoidheight>
	</trkpt>
	<trkpt lat="50.648513" lon="6.184541">
		<ele>395</ele>
		<time>2011-09-11T12:49:04.992Z</time>
		<geoidheight>349</geoidheight>
	</trkpt>
	<trkpt lat="50.648505" lon="6.184546">
		<ele>395</ele>
		<time>2011-09-11T12:49:05.994Z</time>
		<geoidheight>349</geoidheight>
	</trkpt>
	<trkpt lat="50.648496" lon="6.184549">
		<ele>395</ele>
		<time>2011-09-11T12:49:06.986Z</time>
		<geoidheight>349</geoidheight>
	</trkpt>
	<trkpt lat="50.648488" lon="6.184553">
		<ele>395</ele>
		<time>2011-09-11T12:49:07.984Z</time>
		<geoidheight>349</geoidheight>
	</trkpt>
	<trkpt lat="50.648479" lon="6.184555">
		<ele>395</ele>
		<time>2011-09-11T12:49:08.978Z</time>
		<geoidheight>349</geoidheight>
	</trkpt>
	<trkpt lat="50.648469" lon="6.184556">
		<ele>395</ele>
		<time>2011-09-11T12:49:09.978Z</time>
		<geoidheight>349</geoidheight>
	</trkpt>
	<trkpt lat="50.648459" lon="6.184556">
		<ele>395</ele>
		<time>2011-09-11T12:49:10.980Z</time>
		<geoidheight>349</geoidheight>
	</trkpt>
	<trkpt lat="50.648448" lon="6.184554">
		<ele>395</ele>
		<time>2011-09-11T12:49:11.979Z</time>
		<geoidheight>349</geoidheight>
	</trkpt>
	<trkpt lat="50.648436" lon="6.184553">
		<ele>395</ele>
		<time>2011-09-11T12:49:12.982Z</time>
		<geoidheight>349</geoidheight>
	</trkpt>
	<trkpt lat="50.648424" lon="6.184550">
		<ele>395</ele>
		<time>2011-09-11T12:49:13.991Z</time>
		<geoidheight>349</geoidheight>
	</trkpt>
	<trkpt lat="50.648413" lon="6.184549">
		<ele>395</ele>
		<time>2011-09-11T12:49:14.991Z</time>
		<geoidheight>349</geoidheight>
	</trkpt>
	<trkpt lat="50.648399" lon="6.184548">
		<ele>395</ele>
		<time>2011-09-11T12:49:15.991Z</time>
		<geoidheight>349</geoidheight>
	</trkpt>
	<trkpt lat="50.648385" lon="6.184548">
		<ele>395</ele>
		<time>2011-09-11T12:49:16.995Z</time>
		<geoidheight>349</geoidheight>
	</trkpt>
	<trkpt lat="50.648368" lon="6.184546">
		<ele>396</ele>
		<time>2011-09-11T12:49:17.993Z</time>
		<geoidheight>350</geoidheight>
	</trkpt>
	<trkpt lat="50.648353" lon="6.184546">
		<ele>396</ele>
		<time>2011-09-11T12:49:18.997Z</time>
		<geoidheight>350</geoidheight>
	</trkpt>
	<trkpt lat="50.648340" lon="6.184544">
		<ele>396</ele>
		<time>2011-09-11T12:49:19.997Z</time>
		<geoidheight>350</geoidheight>
	</trkpt>
	<trkpt lat="50.648327" lon="6.184540">
		<ele>396</ele>
		<time>2011-09-11T12:49:20.983Z</time>
		<geoidheight>350</geoidheight>
	</trkpt>
	<trkpt lat="50.648316" lon="6.184540">
		<ele>396</ele>
		<time>2011-09-11T12:49:21.978Z</time>
		<geoidheight>350</geoidheight>
	</trkpt>
	<trkpt lat="50.648306" lon="6.184544">
		<ele>396</ele>
		<time>2011-09-11T12:49:23.000Z</time>
		<geoidheight>350</geoidheight>
	</trkpt>
	<trkpt lat="50.648311" lon="6.184555">
		<ele>397</ele>
		<time>2011-09-11T12:49:35.989Z</time>
		<geoidheight>351</geoidheight>
	</trkpt>
	<trkpt lat="50.648313" lon="6.184554">
		<ele>397</ele>
		<time>2011-09-11T12:49:36.993Z</time>
		<geoidheight>351</geoidheight>
	</trkpt>
	<trkpt lat="50.648313" lon="6.184554">
		<ele>397</ele>
		<time>2011-09-11T12:49:38.002Z</time>
		<geoidheight>351</geoidheight>
	</trkpt>
	<trkpt lat="50.648318" lon="6.184536">
		<ele>397</ele>
		<time>2011-09-11T12:49:39.007Z</time>
		<geoidheight>351</geoidheight>
	</trkpt>
	<trkpt lat="50.648321" lon="6.184526">
		<ele>398</ele>
		<time>2011-09-11T12:49:40.001Z</time>
		<geoidheight>352</geoidheight>
	</trkpt>
	<trkpt lat="50.648324" lon="6.184517">
		<ele>398</ele>
		<time>2011-09-11T12:49:41.000Z</time>
		<geoidheight>352</geoidheight>
	</trkpt>
	<trkpt lat="50.648326" lon="6.184505">
		<ele>398</ele>
		<time>2011-09-11T12:49:42.005Z</time>
		<geoidheight>352</geoidheight>
	</trkpt>
	<trkpt lat="50.648328" lon="6.184493">
		<ele>398</ele>
		<time>2011-09-11T12:49:42.997Z</time>
		<geoidheight>352</geoidheight>
	</trkpt>
	<trkpt lat="50.648331" lon="6.184481">
		<ele>398</ele>
		<time>2011-09-11T12:49:43.997Z</time>
		<geoidheight>352</geoidheight>
	</trkpt>
	<trkpt lat="50.648336" lon="6.184467">
		<ele>398</ele>
		<time>2011-09-11T12:49:44.998Z</time>
		<geoidheight>352</geoidheight>
	</trkpt>
	<trkpt lat="50.648338" lon="6.184447">
		<ele>398</ele>
		<time>2011-09-11T12:49:45.997Z</time>
		<geoidheight>352</geoidheight>
	</trkpt>
	<trkpt lat="50.648337" lon="6.184421">
		<ele>399</ele>
		<time>2011-09-11T12:49:46.994Z</time>
		<geoidheight>353</geoidheight>
	</trkpt>
	<trkpt lat="50.648335" lon="6.184401">
		<ele>399</ele>
		<time>2011-09-11T12:49:47.990Z</time>
		<geoidheight>353</geoidheight>
	</trkpt>
	<trkpt lat="50.648331" lon="6.184379">
		<ele>399</ele>
		<time>2011-09-11T12:49:48.997Z</time>
		<geoidheight>353</geoidheight>
	</trkpt>
	<trkpt lat="50.648320" lon="6.184357">
		<ele>399</ele>
		<time>2011-09-11T12:49:49.993Z</time>
		<geoidheight>353</geoidheight>
	</trkpt>
	<trkpt lat="50.648309" lon="6.184336">
		<ele>399</ele>
		<time>2011-09-11T12:49:50.996Z</time>
		<geoidheight>353</geoidheight>
	</trkpt>
	<trkpt lat="50.648302" lon="6.184315">
		<ele>399</ele>
		<time>2011-09-11T12:49:51.996Z</time>
		<geoidheight>353</geoidheight>
	</trkpt>
	<trkpt lat="50.648299" lon="6.184296">
		<ele>399</ele>
		<time>2011-09-11T12:49:52.998Z</time>
		<geoidheight>353</geoidheight>
	</trkpt>
	<trkpt lat="50.648299" lon="6.184281">
		<ele>399</ele>
		<time>2011-09-11T12:49:53.996Z</time>
		<geoidheight>353</geoidheight>
	</trkpt>
	<trkpt lat="50.648297" lon="6.184267">
		<ele>399</ele>
		<time>2011-09-11T12:49:54.996Z</time>
		<geoidheight>353</geoidheight>
	</trkpt>
	<trkpt lat="50.648291" lon="6.184254">
		<ele>399</ele>
		<time>2011-09-11T12:49:55.991Z</time>
		<geoidheight>353</geoidheight>
	</trkpt>
	<trkpt lat="50.648282" lon="6.184242">
		<ele>399</ele>
		<time>2011-09-11T12:49:56.991Z</time>
		<geoidheight>353</geoidheight>
	</trkpt>
	<trkpt lat="50.648271" lon="6.184229">
		<ele>399</ele>
		<time>2011-09-11T12:49:57.996Z</time>
		<geoidheight>353</geoidheight>
	</trkpt>
	<trkpt lat="50.648260" lon="6.184214">
		<ele>399</ele>
		<time>2011-09-11T12:49:58.997Z</time>
		<geoidheight>353</geoidheight>
	</trkpt>
	<trkpt lat="50.648247" lon="6.184202">
		<ele>399</ele>
		<time>2011-09-11T12:49:59.999Z</time>
		<geoidheight>353</geoidheight>
	</trkpt>
	<trkpt lat="50.648234" lon="6.184191">
		<ele>400</ele>
		<time>2011-09-11T12:50:00.997Z</time>
		<geoidheight>354</geoidheight>
	</trkpt>
	<trkpt lat="50.648221" lon="6.184182">
		<ele>400</ele>
		<time>2011-09-11T12:50:01.996Z</time>
		<geoidheight>354</geoidheight>
	</trkpt>
	<trkpt lat="50.648207" lon="6.184172">
		<ele>400</ele>
		<time>2011-09-11T12:50:02.995Z</time>
		<geoidheight>354</geoidheight>
	</trkpt>
	<trkpt lat="50.648194" lon="6.184164">
		<ele>400</ele>
		<time>2011-09-11T12:50:03.992Z</time>
		<geoidheight>354</geoidheight>
	</trkpt>
	<trkpt lat="50.648181" lon="6.184156">
		<ele>400</ele>
		<time>2011-09-11T12:50:04.997Z</time>
		<geoidheight>354</geoidheight>
	</trkpt>
	<trkpt lat="50.648169" lon="6.184145">
		<ele>400</ele>
		<time>2011-09-11T12:50:05.994Z</time>
		<geoidheight>354</geoidheight>
	</trkpt>
	<trkpt lat="50.648157" lon="6.184135">
		<ele>400</ele>
		<time>2011-09-11T12:50:06.993Z</time>
		<geoidheight>354</geoidheight>
	</trkpt>
	<trkpt lat="50.648143" lon="6.184124">
		<ele>400</ele>
		<time>2011-09-11T12:50:07.997Z</time>
		<geoidheight>354</geoidheight>
	</trkpt>
	<trkpt lat="50.648130" lon="6.184113">
		<ele>400</ele>
		<time>2011-09-11T12:50:08.996Z</time>
		<geoidheight>354</geoidheight>
	</trkpt>
	<trkpt lat="50.648117" lon="6.184102">
		<ele>400</ele>
		<time>2011-09-11T12:50:09.998Z</time>
		<geoidheight>354</geoidheight>
	</trkpt>
	<trkpt lat="50.648103" lon="6.184090">
		<ele>400</ele>
		<time>2011-09-11T12:50:11.007Z</time>
		<geoidheight>354</geoidheight>
	</trkpt>
	<trkpt lat="50.648097" lon="6.184085">
		<ele>400</ele>
		<time>2011-09-11T12:50:12.010Z</time>
		<geoidheight>354</geoidheight>
	</trkpt>
	<trkpt lat="50.648088" lon="6.184077">
		<ele>400</ele>
		<time>2011-09-11T12:50:12.996Z</time>
		<geoidheight>354</geoidheight>
	</trkpt>
	<trkpt lat="50.648078" lon="6.184068">
		<ele>400</ele>
		<time>2011-09-11T12:50:13.986Z</time>
		<geoidheight>354</geoidheight>
	</trkpt>
	<trkpt lat="50.648067" lon="6.184060">
		<ele>400</ele>
		<time>2011-09-11T12:50:15.000Z</time>
		<geoidheight>354</geoidheight>
	</trkpt>
	<trkpt lat="50.648056" lon="6.184053">
		<ele>400</ele>
		<time>2011-09-11T12:50:16.006Z</time>
		<geoidheight>354</geoidheight>
	</trkpt>
	<trkpt lat="50.648045" lon="6.184045">
		<ele>400</ele>
		<time>2011-09-11T12:50:16.989Z</time>
		<geoidheight>354</geoidheight>
	</trkpt>
	<trkpt lat="50.648035" lon="6.184036">
		<ele>400</ele>
		<time>2011-09-11T12:50:17.997Z</time>
		<geoidheight>354</geoidheight>
	</trkpt>
	<trkpt lat="50.648025" lon="6.184026">
		<ele>400</ele>
		<time>2011-09-11T12:50:18.980Z</time>
		<geoidheight>354</geoidheight>
	</trkpt>
	<trkpt lat="50.648015" lon="6.184017">
		<ele>400</ele>
		<time>2011-09-11T12:50:19.979Z</time>
		<geoidheight>354</geoidheight>
	</trkpt>
	<trkpt lat="50.648007" lon="6.184009">
		<ele>400</ele>
		<time>2011-09-11T12:50:20.981Z</time>
		<geoidheight>354</geoidheight>
	</trkpt>
	<trkpt lat="50.647999" lon="6.184001">
		<ele>400</ele>
		<time>2011-09-11T12:50:21.983Z</time>
		<geoidheight>354</geoidheight>
	</trkpt>
	<trkpt lat="50.647999" lon="6.184001">
		<ele>400</ele>
		<time>2011-09-11T12:50:22.979Z</time>
		<geoidheight>354</geoidheight>
	</trkpt>
	<trkpt lat="50.647999" lon="6.184001">
		<ele>400</ele>
		<time>2011-09-11T12:50:31.015Z</time>
		<geoidheight>354</geoidheight>
	</trkpt>
	<trkpt lat="50.647979" lon="6.183944">
		<ele>400</ele>
		<time>2011-09-11T12:50:31.979Z</time>
		<geoidheight>354</geoidheight>
	</trkpt>
	<trkpt lat="50.647975" lon="6.183929">
		<ele>400</ele>
		<time>2011-09-11T12:50:32.995Z</time>
		<geoidheight>354</geoidheight>
	</trkpt>
	<trkpt lat="50.647972" lon="6.183912">
		<ele>400</ele>
		<time>2011-09-11T12:50:33.998Z</time>
		<geoidheight>354</geoidheight>
	</trkpt>
	<trkpt lat="50.647970" lon="6.183895">
		<ele>400</ele>
		<time>2011-09-11T12:50:34.993Z</time>
		<geoidheight>354</geoidheight>
	</trkpt>
	<trkpt lat="50.647971" lon="6.183878">
		<ele>400</ele>
		<time>2011-09-11T12:50:35.993Z</time>
		<geoidheight>354</geoidheight>
	</trkpt>
	<trkpt lat="50.647972" lon="6.183861">
		<ele>400</ele>
		<time>2011-09-11T12:50:36.999Z</time>
		<geoidheight>354</geoidheight>
	</trkpt>
	<trkpt lat="50.647973" lon="6.183845">
		<ele>400</ele>
		<time>2011-09-11T12:50:37.996Z</time>
		<geoidheight>354</geoidheight>
	</trkpt>
	<trkpt lat="50.647978" lon="6.183817">
		<ele>400</ele>
		<time>2011-09-11T12:50:38.986Z</time>
		<geoidheight>354</geoidheight>
	</trkpt>
	<trkpt lat="50.647985" lon="6.183809">
		<ele>400</ele>
		<time>2011-09-11T12:50:39.981Z</time>
		<geoidheight>354</geoidheight>
	</trkpt>
	<trkpt lat="50.647989" lon="6.183804">
		<ele>400</ele>
		<time>2011-09-11T12:50:40.983Z</time>
		<geoidheight>354</geoidheight>
	</trkpt>
	<trkpt lat="50.647989" lon="6.183804">
		<ele>400</ele>
		<time>2011-09-11T12:50:42.980Z</time>
		<geoidheight>354</geoidheight>
	</trkpt>
	<trkpt lat="50.647999" lon="6.183793">
		<ele>400</ele>
		<time>2011-09-11T12:50:43.980Z</time>
		<geoidheight>354</geoidheight>
	</trkpt>
	<trkpt lat="50.648008" lon="6.183787">
		<ele>400</ele>
		<time>2011-09-11T12:50:44.979Z</time>
		<geoidheight>354</geoidheight>
	</trkpt>
	<trkpt lat="50.648016" lon="6.183781">
		<ele>400</ele>
		<time>2011-09-11T12:50:45.980Z</time>
		<geoidheight>354</geoidheight>
	</trkpt>
	<trkpt lat="50.648025" lon="6.183774">
		<ele>400</ele>
		<time>2011-09-11T12:50:46.978Z</time>
		<geoidheight>354</geoidheight>
	</trkpt>
	<trkpt lat="50.648031" lon="6.183767">
		<ele>400</ele>
		<time>2011-09-11T12:50:47.980Z</time>
		<geoidheight>354</geoidheight>
	</trkpt>
	<trkpt lat="50.648038" lon="6.183764">
		<ele>400</ele>
		<time>2011-09-11T12:50:48.979Z</time>
		<geoidheight>354</geoidheight>
	</trkpt>
	<trkpt lat="50.648044" lon="6.183759">
		<ele>400</ele>
		<time>2011-09-11T12:50:49.980Z</time>
		<geoidheight>354</geoidheight>
	</trkpt>
	<trkpt lat="50.648056" lon="6.183727">
		<ele>400</ele>
		<time>2011-09-11T12:50:50.979Z</time>
		<geoidheight>354</geoidheight>
	</trkpt>
	<trkpt lat="50.648065" lon="6.183698">
		<ele>400</ele>
		<time>2011-09-11T12:50:51.980Z</time>
		<geoidheight>354</geoidheight>
	</trkpt>
	<trkpt lat="50.648080" lon="6.183681">
		<ele>400</ele>
		<time>2011-09-11T12:50:52.984Z</time>
		<geoidheight>354</geoidheight>
	</trkpt>
	<trkpt lat="50.648092" lon="6.183663">
		<ele>400</ele>
		<time>2011-09-11T12:50:53.981Z</time>
		<geoidheight>354</geoidheight>
	</trkpt>
	<trkpt lat="50.648100" lon="6.183647">
		<ele>400</ele>
		<time>2011-09-11T12:50:54.993Z</time>
		<geoidheight>354</geoidheight>
	</trkpt>
	<trkpt lat="50.648102" lon="6.183631">
		<ele>400</ele>
		<time>2011-09-11T12:50:55.986Z</time>
		<geoidheight>354</geoidheight>
	</trkpt>
	<trkpt lat="50.648104" lon="6.183621">
		<ele>401</ele>
		<time>2011-09-11T12:50:56.984Z</time>
		<geoidheight>355</geoidheight>
	</trkpt>
	<trkpt lat="50.648104" lon="6.183610">
		<ele>401</ele>
		<time>2011-09-11T12:50:57.992Z</time>
		<geoidheight>355</geoidheight>
	</trkpt>
	<trkpt lat="50.648105" lon="6.183599">
		<ele>401</ele>
		<time>2011-09-11T12:50:59.003Z</time>
		<geoidheight>355</geoidheight>
	</trkpt>
	<trkpt lat="50.648100" lon="6.183589">
		<ele>401</ele>
		<time>2011-09-11T12:51:00.016Z</time>
		<geoidheight>355</geoidheight>
	</trkpt>
	<trkpt lat="50.648096" lon="6.183579">
		<ele>401</ele>
		<time>2011-09-11T12:51:00.996Z</time>
		<geoidheight>355</geoidheight>
	</trkpt>
	<trkpt lat="50.648092" lon="6.183572">
		<ele>401</ele>
		<time>2011-09-11T12:51:01.999Z</time>
		<geoidheight>355</geoidheight>
	</trkpt>
	<trkpt lat="50.648089" lon="6.183559">
		<ele>401</ele>
		<time>2011-09-11T12:51:04.003Z</time>
		<geoidheight>355</geoidheight>
	</trkpt>
	<trkpt lat="50.648089" lon="6.183552">
		<ele>401</ele>
		<time>2011-09-11T12:51:04.994Z</time>
		<geoidheight>355</geoidheight>
	</trkpt>
	<trkpt lat="50.648087" lon="6.183547">
		<ele>401</ele>
		<time>2011-09-11T12:51:42.991Z</time>
		<geoidheight>355</geoidheight>
	</trkpt>
	<trkpt lat="50.647285" lon="6.184471">
		<ele>409</ele>
		<time>2011-09-11T13:45:45.003Z</time>
		<geoidheight>363</geoidheight>
	</trkpt>
	<trkpt lat="50.647285" lon="6.184471">
		<ele>409</ele>
		<time>2011-09-11T13:45:54.005Z</time>
		<geoidheight>363</geoidheight>
	</trkpt>
	<trkpt lat="50.647295" lon="6.184544">
		<ele>409</ele>
		<time>2011-09-11T13:45:55.013Z</time>
		<geoidheight>363</geoidheight>
	</trkpt>
	<trkpt lat="50.647295" lon="6.184544">
		<ele>409</ele>
		<time>2011-09-11T13:46:25.018Z</time>
		<geoidheight>363</geoidheight>
	</trkpt>
	<trkpt lat="50.647336" lon="6.184576">
		<ele>409</ele>
		<time>2011-09-11T13:46:26.013Z</time>
		<geoidheight>363</geoidheight>
	</trkpt>
	<trkpt lat="50.647336" lon="6.184576">
		<ele>413</ele>
		<time>2011-09-11T13:48:16.015Z</time>
		<geoidheight>367</geoidheight>
	</trkpt>
	<trkpt lat="50.647362" lon="6.184635">
		<ele>413</ele>
		<time>2011-09-11T13:48:17.017Z</time>
		<geoidheight>367</geoidheight>
	</trkpt>
	<trkpt lat="50.647362" lon="6.184635">
		<ele>413</ele>
		<time>2011-09-11T13:48:28.012Z</time>
		<geoidheight>367</geoidheight>
	</trkpt>
	<trkpt lat="50.647355" lon="6.184706">
		<ele>413</ele>
		<time>2011-09-11T13:48:29.015Z</time>
		<geoidheight>367</geoidheight>
	</trkpt>
	<trkpt lat="50.647355" lon="6.184706">
		<ele>413</ele>
		<time>2011-09-11T13:48:58.008Z</time>
		<geoidheight>367</geoidheight>
	</trkpt>
	<trkpt lat="50.647369" lon="6.184636">
		<ele>413</ele>
		<time>2011-09-11T13:48:59.006Z</time>
		<geoidheight>367</geoidheight>
	</trkpt>
	<trkpt lat="50.647369" lon="6.184636">
		<ele>414</ele>
		<time>2011-09-11T13:49:28.007Z</time>
		<geoidheight>368</geoidheight>
	</trkpt>
	<trkpt lat="50.647326" lon="6.184614">
		<ele>414</ele>
		<time>2011-09-11T13:49:29.006Z</time>
		<geoidheight>368</geoidheight>
	</trkpt>
	<trkpt lat="50.647326" lon="6.184614">
		<ele>413</ele>
		<time>2011-09-11T13:50:13.005Z</time>
		<geoidheight>367</geoidheight>
	</trkpt>
	<trkpt lat="50.647296" lon="6.184560">
		<ele>413</ele>
		<time>2011-09-11T13:50:14.005Z</time>
		<geoidheight>367</geoidheight>
	</trkpt>
	<trkpt lat="50.647296" lon="6.184560">
		<ele>413</ele>
		<time>2011-09-11T13:50:27.007Z</time>
		<geoidheight>367</geoidheight>
	</trkpt>
	<trkpt lat="50.647331" lon="6.184611">
		<ele>413</ele>
		<time>2011-09-11T13:50:28.008Z</time>
		<geoidheight>367</geoidheight>
	</trkpt>
	<trkpt lat="50.647331" lon="6.184611">
		<ele>414</ele>
		<time>2011-09-11T13:51:31.006Z</time>
		<geoidheight>368</geoidheight>
	</trkpt>
	<trkpt lat="50.647342" lon="6.184542">
		<ele>414</ele>
		<time>2011-09-11T13:51:32.006Z</time>
		<geoidheight>368</geoidheight>
	</trkpt>
	<trkpt lat="50.647342" lon="6.184542">
		<ele>414</ele>
		<time>2011-09-11T13:51:41.007Z</time>
		<geoidheight>368</geoidheight>
	</trkpt>
	<trkpt lat="50.647333" lon="6.184466">
		<ele>414</ele>
		<time>2011-09-11T13:51:42.008Z</time>
		<geoidheight>368</geoidheight>
	</trkpt>
	<trkpt lat="50.647333" lon="6.184466">
		<ele>414</ele>
		<time>2011-09-11T13:51:57.007Z</time>
		<geoidheight>368</geoidheight>
	</trkpt>
	<trkpt lat="50.647298" lon="6.184516">
		<ele>414</ele>
		<time>2011-09-11T13:51:58.009Z</time>
		<geoidheight>368</geoidheight>
	</trkpt>
	<trkpt lat="50.647298" lon="6.184516">
		<ele>417</ele>
		<time>2011-09-11T13:53:15.029Z</time>
		<geoidheight>371</geoidheight>
	</trkpt>
	<trkpt lat="50.647318" lon="6.184567">
		<ele>417</ele>
		<time>2011-09-11T13:53:16.032Z</time>
		<geoidheight>371</geoidheight>
	</trkpt>
	<trkpt lat="50.647318" lon="6.184567">
		<ele>417</ele>
		<time>2011-09-11T13:53:17.030Z</time>
		<geoidheight>371</geoidheight>
	</trkpt>
	<trkpt lat="50.647318" lon="6.184567">
		<ele>417</ele>
		<time>2011-09-11T13:53:50.008Z</time>
		<geoidheight>371</geoidheight>
	</trkpt>
	<trkpt lat="50.647352" lon="6.184618">
		<ele>417</ele>
		<time>2011-09-11T13:53:51.007Z</time>
		<geoidheight>371</geoidheight>
	</trkpt>
	<trkpt lat="50.647352" lon="6.184618">
		<ele>416</ele>
		<time>2011-09-11T13:54:37.043Z</time>
		<geoidheight>370</geoidheight>
	</trkpt>
	<trkpt lat="50.647337" lon="6.184551">
		<ele>416</ele>
		<time>2011-09-11T13:54:38.043Z</time>
		<geoidheight>370</geoidheight>
	</trkpt>
	<trkpt lat="50.647337" lon="6.184551">
		<ele>416</ele>
		<time>2011-09-11T13:55:03.007Z</time>
		<geoidheight>370</geoidheight>
	</trkpt>
	<trkpt lat="50.647362" lon="6.184485">
		<ele>416</ele>
		<time>2011-09-11T13:55:04.006Z</time>
		<geoidheight>370</geoidheight>
	</trkpt>
	<trkpt lat="50.647370" lon="6.184452">
		<ele>416</ele>
		<time>2011-09-11T13:55:05.007Z</time>
		<geoidheight>370</geoidheight>
	</trkpt>
	<trkpt lat="50.647379" lon="6.184415">
		<ele>416</ele>
		<time>2011-09-11T13:55:06.008Z</time>
		<geoidheight>370</geoidheight>
	</trkpt>
	<trkpt lat="50.647431" lon="6.184405">
		<ele>416</ele>
		<time>2011-09-11T13:55:09.008Z</time>
		<geoidheight>370</geoidheight>
	</trkpt>
	<trkpt lat="50.647468" lon="6.184402">
		<ele>416</ele>
		<time>2011-09-11T13:55:10.007Z</time>
		<geoidheight>370</geoidheight>
	</trkpt>
	<trkpt lat="50.647516" lon="6.184401">
		<ele>415</ele>
		<time>2011-09-11T13:55:11.009Z</time>
		<geoidheight>369</geoidheight>
	</trkpt>
	<trkpt lat="50.647566" lon="6.184397">
		<ele>415</ele>
		<time>2011-09-11T13:55:12.007Z</time>
		<geoidheight>369</geoidheight>
	</trkpt>
	<trkpt lat="50.647621" lon="6.184401">
		<ele>415</ele>
		<time>2011-09-11T13:55:13.007Z</time>
		<geoidheight>369</geoidheight>
	</trkpt>
	<trkpt lat="50.647675" lon="6.184405">
		<ele>415</ele>
		<time>2011-09-11T13:55:14.009Z</time>
		<geoidheight>369</geoidheight>
	</trkpt>
	<trkpt lat="50.647728" lon="6.184406">
		<ele>415</ele>
		<time>2011-09-11T13:55:15.009Z</time>
		<geoidheight>369</geoidheight>
	</trkpt>
	<trkpt lat="50.647799" lon="6.184404">
		<ele>415</ele>
		<time>2011-09-11T13:55:17.010Z</time>
		<geoidheight>369</geoidheight>
	</trkpt>
	<trkpt lat="50.647853" lon="6.184398">
		<ele>415</ele>
		<time>2011-09-11T13:55:18.010Z</time>
		<geoidheight>369</geoidheight>
	</trkpt>
	<trkpt lat="50.647907" lon="6.184389">
		<ele>415</ele>
		<time>2011-09-11T13:55:19.008Z</time>
		<geoidheight>369</geoidheight>
	</trkpt>
	<trkpt lat="50.647925" lon="6.184387">
		<ele>415</ele>
		<time>2011-09-11T13:55:20.006Z</time>
		<geoidheight>369</geoidheight>
	</trkpt>
	<trkpt lat="50.647943" lon="6.184385">
		<ele>415</ele>
		<time>2011-09-11T13:55:21.008Z</time>
		<geoidheight>369</geoidheight>
	</trkpt>
	<trkpt lat="50.647961" lon="6.184383">
		<ele>415</ele>
		<time>2011-09-11T13:55:22.006Z</time>
		<geoidheight>369</geoidheight>
	</trkpt>
	<trkpt lat="50.647978" lon="6.184381">
		<ele>415</ele>
		<time>2011-09-11T13:55:23.015Z</time>
		<geoidheight>369</geoidheight>
	</trkpt>
	<trkpt lat="50.648040" lon="6.184357">
		<ele>415</ele>
		<time>2011-09-11T13:55:24.009Z</time>
		<geoidheight>369</geoidheight>
	</trkpt>
	<trkpt lat="50.648097" lon="6.184339">
		<ele>415</ele>
		<time>2011-09-11T13:55:25.015Z</time>
		<geoidheight>369</geoidheight>
	</trkpt>
	<trkpt lat="50.648152" lon="6.184321">
		<ele>415</ele>
		<time>2011-09-11T13:55:26.008Z</time>
		<geoidheight>369</geoidheight>
	</trkpt>
	<trkpt lat="50.648204" lon="6.184306">
		<ele>415</ele>
		<time>2011-09-11T13:55:27.009Z</time>
		<geoidheight>369</geoidheight>
	</trkpt>
	<trkpt lat="50.648223" lon="6.184302">
		<ele>415</ele>
		<time>2011-09-11T13:55:28.009Z</time>
		<geoidheight>369</geoidheight>
	</trkpt>
	<trkpt lat="50.648349" lon="6.184386">
		<ele>414</ele>
		<time>2011-09-11T13:55:29.008Z</time>
		<geoidheight>368</geoidheight>
	</trkpt>
	<trkpt lat="50.648428" lon="6.184440">
		<ele>414</ele>
		<time>2011-09-11T13:55:30.007Z</time>
		<geoidheight>368</geoidheight>
	</trkpt>
	<trkpt lat="50.648506" lon="6.184487">
		<ele>414</ele>
		<time>2011-09-11T13:55:31.007Z</time>
		<geoidheight>368</geoidheight>
	</trkpt>
	<trkpt lat="50.648582" lon="6.184529">
		<ele>414</ele>
		<time>2011-09-11T13:55:32.007Z</time>
		<geoidheight>368</geoidheight>
	</trkpt>
	<trkpt lat="50.648656" lon="6.184564">
		<ele>414</ele>
		<time>2011-09-11T13:55:33.007Z</time>
		<geoidheight>368</geoidheight>
	</trkpt>
	<trkpt lat="50.648729" lon="6.184596">
		<ele>414</ele>
		<time>2011-09-11T13:55:34.008Z</time>
		<geoidheight>368</geoidheight>
	</trkpt>
	<trkpt lat="50.648800" lon="6.184625">
		<ele>414</ele>
		<time>2011-09-11T13:55:35.008Z</time>
		<geoidheight>368</geoidheight>
	</trkpt>
	<trkpt lat="50.648869" lon="6.184649">
		<ele>414</ele>
		<time>2011-09-11T13:55:36.007Z</time>
		<geoidheight>368</geoidheight>
	</trkpt>
	<trkpt lat="50.648902" lon="6.184659">
		<ele>414</ele>
		<time>2011-09-11T13:55:37.008Z</time>
		<geoidheight>368</geoidheight>
	</trkpt>
	<trkpt lat="50.648935" lon="6.184668">
		<ele>414</ele>
		<time>2011-09-11T13:55:38.007Z</time>
		<geoidheight>368</geoidheight>
	</trkpt>
	<trkpt lat="50.648968" lon="6.184677">
		<ele>414</ele>
		<time>2011-09-11T13:55:39.007Z</time>
		<geoidheight>368</geoidheight>
	</trkpt>
	<trkpt lat="50.649048" lon="6.184686">
		<ele>414</ele>
		<time>2011-09-11T13:55:40.008Z</time>
		<geoidheight>368</geoidheight>
	</trkpt>
	<trkpt lat="50.649128" lon="6.184686">
		<ele>414</ele>
		<time>2011-09-11T13:55:41.008Z</time>
		<geoidheight>368</geoidheight>
	</trkpt>
	<trkpt lat="50.649207" lon="6.184684">
		<ele>414</ele>
		<time>2011-09-11T13:55:42.007Z</time>
		<geoidheight>368</geoidheight>
	</trkpt>
	<trkpt lat="50.649283" lon="6.184684">
		<ele>414</ele>
		<time>2011-09-11T13:55:43.011Z</time>
		<geoidheight>368</geoidheight>
	</trkpt>
	<trkpt lat="50.649360" lon="6.184678">
		<ele>413</ele>
		<time>2011-09-11T13:55:44.009Z</time>
		<geoidheight>367</geoidheight>
	</trkpt>
	<trkpt lat="50.649434" lon="6.184674">
		<ele>413</ele>
		<time>2011-09-11T13:55:45.007Z</time>
		<geoidheight>367</geoidheight>
	</trkpt>
	<trkpt lat="50.649508" lon="6.184669">
		<ele>412</ele>
		<time>2011-09-11T13:55:46.007Z</time>
		<geoidheight>366</geoidheight>
	</trkpt>
	<trkpt lat="50.649579" lon="6.184665">
		<ele>412</ele>
		<time>2011-09-11T13:55:47.010Z</time>
		<geoidheight>366</geoidheight>
	</trkpt>
	<trkpt lat="50.649649" lon="6.184664">
		<ele>412</ele>
		<time>2011-09-11T13:55:48.007Z</time>
		<geoidheight>366</geoidheight>
	</trkpt>
	<trkpt lat="50.649688" lon="6.184668">
		<ele>412</ele>
		<time>2011-09-11T13:55:49.007Z</time>
		<geoidheight>366</geoidheight>
	</trkpt>
	<trkpt lat="50.649757" lon="6.184665">
		<ele>412</ele>
		<time>2011-09-11T13:55:50.009Z</time>
		<geoidheight>366</geoidheight>
	</trkpt>
	<trkpt lat="50.649824" lon="6.184667">
		<ele>412</ele>
		<time>2011-09-11T13:55:51.008Z</time>
		<geoidheight>366</geoidheight>
	</trkpt>
	<trkpt lat="50.649890" lon="6.184673">
		<ele>412</ele>
		<time>2011-09-11T13:55:52.009Z</time>
		<geoidheight>366</geoidheight>
	</trkpt>
	<trkpt lat="50.649963" lon="6.184659">
		<ele>412</ele>
		<time>2011-09-11T13:55:53.011Z</time>
		<geoidheight>366</geoidheight>
	</trkpt>
	<trkpt lat="50.650039" lon="6.184645">
		<ele>412</ele>
		<time>2011-09-11T13:55:54.007Z</time>
		<geoidheight>366</geoidheight>
	</trkpt>
	<trkpt lat="50.650122" lon="6.184616">
		<ele>413</ele>
		<time>2011-09-11T13:55:55.009Z</time>
		<geoidheight>367</geoidheight>
	</trkpt>
	<trkpt lat="50.650210" lon="6.184588">
		<ele>413</ele>
		<time>2011-09-11T13:55:56.010Z</time>
		<geoidheight>367</geoidheight>
	</trkpt>
	<trkpt lat="50.650299" lon="6.184559">
		<ele>413</ele>
		<time>2011-09-11T13:55:57.008Z</time>
		<geoidheight>367</geoidheight>
	</trkpt>
	<trkpt lat="50.650389" lon="6.184535">
		<ele>414</ele>
		<time>2011-09-11T13:55:58.007Z</time>
		<geoidheight>368</geoidheight>
	</trkpt>
	<trkpt lat="50.650479" lon="6.184514">
		<ele>414</ele>
		<time>2011-09-11T13:55:59.009Z</time>
		<geoidheight>368</geoidheight>
	</trkpt>
	<trkpt lat="50.650568" lon="6.184494">
		<ele>414</ele>
		<time>2011-09-11T13:56:00.008Z</time>
		<geoidheight>368</geoidheight>
	</trkpt>
	<trkpt lat="50.650656" lon="6.184478">
		<ele>415</ele>
		<time>2011-09-11T13:56:01.008Z</time>
		<geoidheight>369</geoidheight>
	</trkpt>
	<trkpt lat="50.650745" lon="6.184462">
		<ele>415</ele>
		<time>2011-09-11T13:56:02.008Z</time>
		<geoidheight>369</geoidheight>
	</trkpt>
	<trkpt lat="50.650834" lon="6.184454">
		<ele>415</ele>
		<time>2011-09-11T13:56:03.010Z</time>
		<geoidheight>369</geoidheight>
	</trkpt>
	<trkpt lat="50.650922" lon="6.184454">
		<ele>416</ele>
		<time>2011-09-11T13:56:04.008Z</time>
		<geoidheight>370</geoidheight>
	</trkpt>
	<trkpt lat="50.651012" lon="6.184457">
		<ele>416</ele>
		<time>2011-09-11T13:56:05.008Z</time>
		<geoidheight>370</geoidheight>
	</trkpt>
	<trkpt lat="50.651110" lon="6.184458">
		<ele>417</ele>
		<time>2011-09-11T13:56:06.009Z</time>
		<geoidheight>371</geoidheight>
	</trkpt>
	<trkpt lat="50.651209" lon="6.184459">
		<ele>417</ele>
		<time>2011-09-11T13:56:07.010Z</time>
		<geoidheight>371</geoidheight>
	</trkpt>
	<trkpt lat="50.651310" lon="6.184461">
		<ele>417</ele>
		<time>2011-09-11T13:56:08.019Z</time>
		<geoidheight>371</geoidheight>
	</trkpt>
	<trkpt lat="50.651413" lon="6.184465">
		<ele>418</ele>
		<time>2011-09-11T13:56:09.019Z</time>
		<geoidheight>372</geoidheight>
	</trkpt>
	<trkpt lat="50.651519" lon="6.184469">
		<ele>418</ele>
		<time>2011-09-11T13:56:10.019Z</time>
		<geoidheight>372</geoidheight>
	</trkpt>
	<trkpt lat="50.651594" lon="6.184469">
		<ele>418</ele>
		<time>2011-09-11T13:56:11.019Z</time>
		<geoidheight>372</geoidheight>
	</trkpt>
	<trkpt lat="50.651885" lon="6.184549">
		<ele>418</ele>
		<time>2011-09-11T13:56:12.012Z</time>
		<geoidheight>372</geoidheight>
	</trkpt>
	<trkpt lat="50.652148" lon="6.184628">
		<ele>418</ele>
		<time>2011-09-11T13:56:13.012Z</time>
		<geoidheight>372</geoidheight>
	</trkpt>
	<trkpt lat="50.652434" lon="6.184715">
		<ele>417</ele>
		<time>2011-09-11T13:56:14.009Z</time>
		<geoidheight>371</geoidheight>
	</trkpt>
	<trkpt lat="50.652775" lon="6.184803">
		<ele>418</ele>
		<time>2011-09-11T13:56:15.009Z</time>
		<geoidheight>372</geoidheight>
	</trkpt>
	<trkpt lat="50.653127" lon="6.184909">
		<ele>418</ele>
		<time>2011-09-11T13:56:16.009Z</time>
		<geoidheight>372</geoidheight>
	</trkpt>
	<trkpt lat="50.653488" lon="6.185031">
		<ele>418</ele>
		<time>2011-09-11T13:56:17.008Z</time>
		<geoidheight>372</geoidheight>
	</trkpt>
	<trkpt lat="50.653886" lon="6.185164">
		<ele>418</ele>
		<time>2011-09-11T13:56:18.008Z</time>
		<geoidheight>372</geoidheight>
	</trkpt>
	<trkpt lat="50.654282" lon="6.185313">
		<ele>419</ele>
		<time>2011-09-11T13:56:19.011Z</time>
		<geoidheight>373</geoidheight>
	</trkpt>
	<trkpt lat="50.654659" lon="6.185477">
		<ele>419</ele>
		<time>2011-09-11T13:56:20.007Z</time>
		<geoidheight>373</geoidheight>
	</trkpt>
	<trkpt lat="50.655015" lon="6.185645">
		<ele>420</ele>
		<time>2011-09-11T13:56:21.009Z</time>
		<geoidheight>374</geoidheight>
	</trkpt>
	<trkpt lat="50.655475" lon="6.185960">
		<ele>421</ele>
		<time>2011-09-11T13:56:22.009Z</time>
		<geoidheight>375</geoidheight>
	</trkpt>
	<trkpt lat="50.655907" lon="6.186236">
		<ele>421</ele>
		<time>2011-09-11T13:56:23.008Z</time>
		<geoidheight>375</geoidheight>
	</trkpt>
	<trkpt lat="50.656397" lon="6.186602">
		<ele>422</ele>
		<time>2011-09-11T13:56:24.008Z</time>
		<geoidheight>376</geoidheight>
	</trkpt>
	<trkpt lat="50.656853" lon="6.186936">
		<ele>423</ele>
		<time>2011-09-11T13:56:25.009Z</time>
		<geoidheight>377</geoidheight>
	</trkpt>
	<trkpt lat="50.657287" lon="6.187242">
		<ele>424</ele>
		<time>2011-09-11T13:56:26.009Z</time>
		<geoidheight>378</geoidheight>
	</trkpt>
	<trkpt lat="50.657722" lon="6.187531">
		<ele>425</ele>
		<time>2011-09-11T13:56:27.009Z</time>
		<geoidheight>379</geoidheight>
	</trkpt>
	<trkpt lat="50.657906" lon="6.187590">
		<ele>425</ele>
		<time>2011-09-11T13:56:28.007Z</time>
		<geoidheight>379</geoidheight>
	</trkpt>
	<trkpt lat="50.658329" lon="6.187868">
		<ele>426</ele>
		<time>2011-09-11T13:56:29.011Z</time>
		<geoidheight>380</geoidheight>
	</trkpt>
	<trkpt lat="50.658716" lon="6.188112">
		<ele>427</ele>
		<time>2011-09-11T13:56:30.007Z</time>
		<geoidheight>381</geoidheight>
	</trkpt>
	<trkpt lat="50.659075" lon="6.188322">
		<ele>428</ele>
		<time>2011-09-11T13:56:31.007Z</time>
		<geoidheight>382</geoidheight>
	</trkpt>
	<trkpt lat="50.659413" lon="6.188508">
		<ele>429</ele>
		<time>2011-09-11T13:56:32.009Z</time>
		<geoidheight>383</geoidheight>
	</trkpt>
	<trkpt lat="50.659747" lon="6.188695">
		<ele>429</ele>
		<time>2011-09-11T13:56:33.009Z</time>
		<geoidheight>383</geoidheight>
	</trkpt>
	<trkpt lat="50.659937" lon="6.188734">
		<ele>429</ele>
		<time>2011-09-11T13:56:34.007Z</time>
		<geoidheight>383</geoidheight>
	</trkpt>
	<trkpt lat="50.660126" lon="6.188773">
		<ele>429</ele>
		<time>2011-09-11T13:56:35.007Z</time>
		<geoidheight>383</geoidheight>
	</trkpt>
	<trkpt lat="50.660316" lon="6.188812">
		<ele>429</ele>
		<time>2011-09-11T13:56:36.007Z</time>
		<geoidheight>383</geoidheight>
	</trkpt>
	<trkpt lat="50.660506" lon="6.188852">
		<ele>429</ele>
		<time>2011-09-11T13:56:37.007Z</time>
		<geoidheight>383</geoidheight>
	</trkpt>
	<trkpt lat="50.660696" lon="6.188891">
		<ele>429</ele>
		<time>2011-09-11T13:56:38.007Z</time>
		<geoidheight>383</geoidheight>
	</trkpt>
	<trkpt lat="50.660886" lon="6.188930">
		<ele>429</ele>
		<time>2011-09-11T13:56:39.008Z</time>
		<geoidheight>383</geoidheight>
	</trkpt>
	<trkpt lat="50.710087" lon="6.138493">
		<ele>395</ele>
		<time>2011-09-11T14:03:34.012Z</time>
		<geoidheight>349</geoidheight>
	</trkpt>
	<trkpt lat="50.710260" lon="6.138401">
		<ele>375</ele>
		<time>2011-09-11T14:03:35.012Z</time>
		<geoidheight>329</geoidheight>
	</trkpt>
	<trkpt lat="50.710339" lon="6.138312">
		<ele>361</ele>
		<time>2011-09-11T14:03:36.012Z</time>
		<geoidheight>315</geoidheight>
	</trkpt>
	<trkpt lat="50.710385" lon="6.138291">
		<ele>352</ele>
		<time>2011-09-11T14:03:37.011Z</time>
		<geoidheight>306</geoidheight>
	</trkpt>
	<trkpt lat="50.710385" lon="6.138291">
		<ele>352</ele>
		<time>2011-09-11T14:03:38.013Z</time>
		<geoidheight>306</geoidheight>
	</trkpt>
	<trkpt lat="50.710385" lon="6.138291">
		<ele>352</ele>
		<time>2011-09-11T14:03:39.013Z</time>
		<geoidheight>306</geoidheight>
	</trkpt>
	<trkpt lat="50.710479" lon="6.138209">
		<ele>351</ele>
		<time>2011-09-11T14:03:40.012Z</time>
		<geoidheight>305</geoidheight>
	</trkpt>
	<trkpt lat="50.710479" lon="6.138209">
		<ele>351</ele>
		<time>2011-09-11T14:03:42.016Z</time>
		<geoidheight>305</geoidheight>
	</trkpt>
	<trkpt lat="50.710588" lon="6.138131">
		<ele>350</ele>
		<time>2011-09-11T14:03:43.020Z</time>
		<geoidheight>304</geoidheight>
	</trkpt>
	<trkpt lat="50.710630" lon="6.138097">
		<ele>349</ele>
		<time>2011-09-11T14:03:44.029Z</time>
		<geoidheight>303</geoidheight>
	</trkpt>
	<trkpt lat="50.710655" lon="6.138084">
		<ele>349</ele>
		<time>2011-09-11T14:03:45.014Z</time>
		<geoidheight>303</geoidheight>
	</trkpt>
	<trkpt lat="50.710675" lon="6.138072">
		<ele>349</ele>
		<time>2011-09-11T14:03:46.012Z</time>
		<geoidheight>303</geoidheight>
	</trkpt>
	<trkpt lat="50.710675" lon="6.138072">
		<ele>349</ele>
		<time>2011-09-11T14:03:47.013Z</time>
		<geoidheight>303</geoidheight>
	</trkpt>
	<trkpt lat="50.710675" lon="6.138072">
		<ele>349</ele>
		<time>2011-09-11T14:04:04.012Z</time>
		<geoidheight>303</geoidheight>
	</trkpt>
	<trkpt lat="50.710768" lon="6.137951">
		<ele>347</ele>
		<time>2011-09-11T14:04:05.016Z</time>
		<geoidheight>301</geoidheight>
	</trkpt>
	<trkpt lat="50.710801" lon="6.137879">
		<ele>346</ele>
		<time>2011-09-11T14:04:06.017Z</time>
		<geoidheight>300</geoidheight>
	</trkpt>
	<trkpt lat="50.710847" lon="6.137793">
		<ele>345</ele>
		<time>2011-09-11T14:04:07.011Z</time>
		<geoidheight>299</geoidheight>
	</trkpt>
	<trkpt lat="50.710895" lon="6.137708">
		<ele>344</ele>
		<time>2011-09-11T14:04:08.016Z</time>
		<geoidheight>298</geoidheight>
	</trkpt>
	<trkpt lat="50.710946" lon="6.137628">
		<ele>343</ele>
		<time>2011-09-11T14:04:09.012Z</time>
		<geoidheight>297</geoidheight>
	</trkpt>
	<trkpt lat="50.711010" lon="6.137541">
		<ele>342</ele>
		<time>2011-09-11T14:04:10.012Z</time>
		<geoidheight>296</geoidheight>
	</trkpt>
	<trkpt lat="50.711075" lon="6.137455">
		<ele>341</ele>
		<time>2011-09-11T14:04:11.013Z</time>
		<geoidheight>295</geoidheight>
	</trkpt>
	<trkpt lat="50.711144" lon="6.137364">
		<ele>341</ele>
		<time>2011-09-11T14:04:12.014Z</time>
		<geoidheight>295</geoidheight>
	</trkpt>
	<trkpt lat="50.711225" lon="6.137268">
		<ele>341</ele>
		<time>2011-09-11T14:04:13.012Z</time>
		<geoidheight>295</geoidheight>
	</trkpt>
	<trkpt lat="50.711307" lon="6.137176">
		<ele>341</ele>
		<time>2011-09-11T14:04:14.021Z</time>
		<geoidheight>295</geoidheight>
	</trkpt>
	<trkpt lat="50.711399" lon="6.137071">
		<ele>341</ele>
		<time>2011-09-11T14:04:15.019Z</time>
		<geoidheight>295</geoidheight>
	</trkpt>
	<trkpt lat="50.711491" lon="6.136968">
		<ele>341</ele>
		<time>2011-09-11T14:04:16.012Z</time>
		<geoidheight>295</geoidheight>
	</trkpt>
	<trkpt lat="50.711612" lon="6.136820">
		<ele>341</ele>
		<time>2011-09-11T14:04:17.015Z</time>
		<geoidheight>295</geoidheight>
	</trkpt>
	<trkpt lat="50.711738" lon="6.136656">
		<ele>341</ele>
		<time>2011-09-11T14:04:18.025Z</time>
		<geoidheight>295</geoidheight>
	</trkpt>
	<trkpt lat="50.711882" lon="6.136479">
		<ele>342</ele>
		<time>2011-09-11T14:04:19.029Z</time>
		<geoidheight>296</geoidheight>
	</trkpt>
	<trkpt lat="50.712030" lon="6.136301">
		<ele>342</ele>
		<time>2011-09-11T14:04:20.022Z</time>
		<geoidheight>296</geoidheight>
	</trkpt>
	<trkpt lat="50.712181" lon="6.136123">
		<ele>341</ele>
		<time>2011-09-11T14:04:21.014Z</time>
		<geoidheight>295</geoidheight>
	</trkpt>
	<trkpt lat="50.712330" lon="6.135948">
		<ele>341</ele>
		<time>2011-09-11T14:04:22.012Z</time>
		<geoidheight>295</geoidheight>
	</trkpt>
	<trkpt lat="50.712484" lon="6.135772">
		<ele>341</ele>
		<time>2011-09-11T14:04:23.013Z</time>
		<geoidheight>295</geoidheight>
	</trkpt>
	<trkpt lat="50.712634" lon="6.135597">
		<ele>340</ele>
		<time>2011-09-11T14:04:24.012Z</time>
		<geoidheight>294</geoidheight>
	</trkpt>
	<trkpt lat="50.712780" lon="6.135426">
		<ele>339</ele>
		<time>2011-09-11T14:04:25.019Z</time>
		<geoidheight>293</geoidheight>
	</trkpt>
	<trkpt lat="50.712922" lon="6.135258">
		<ele>339</ele>
		<time>2011-09-11T14:04:26.010Z</time>
		<geoidheight>293</geoidheight>
	</trkpt>
	<trkpt lat="50.713069" lon="6.135089">
		<ele>338</ele>
		<time>2011-09-11T14:04:27.013Z</time>
		<geoidheight>292</geoidheight>
	</trkpt>
	<trkpt lat="50.713214" lon="6.134919">
		<ele>338</ele>
		<time>2011-09-11T14:04:28.014Z</time>
		<geoidheight>292</geoidheight>
	</trkpt>
	<trkpt lat="50.713357" lon="6.134750">
		<ele>338</ele>
		<time>2011-09-11T14:04:29.014Z</time>
		<geoidheight>292</geoidheight>
	</trkpt>
	<trkpt lat="50.713501" lon="6.134580">
		<ele>337</ele>
		<time>2011-09-11T14:04:30.012Z</time>
		<geoidheight>291</geoidheight>
	</trkpt>
	<trkpt lat="50.713643" lon="6.134412">
		<ele>337</ele>
		<time>2011-09-11T14:04:31.015Z</time>
		<geoidheight>291</geoidheight>
	</trkpt>
	<trkpt lat="50.713779" lon="6.134243">
		<ele>337</ele>
		<time>2011-09-11T14:04:32.012Z</time>
		<geoidheight>291</geoidheight>
	</trkpt>
	<trkpt lat="50.713913" lon="6.134078">
		<ele>336</ele>
		<time>2011-09-11T14:04:33.012Z</time>
		<geoidheight>290</geoidheight>
	</trkpt>
	<trkpt lat="50.714045" lon="6.133916">
		<ele>336</ele>
		<time>2011-09-11T14:04:34.012Z</time>
		<geoidheight>290</geoidheight>
	</trkpt>
	<trkpt lat="50.714178" lon="6.133753">
		<ele>335</ele>
		<time>2011-09-11T14:04:35.014Z</time>
		<geoidheight>289</geoidheight>
	</trkpt>
	<trkpt lat="50.714311" lon="6.133593">
		<ele>334</ele>
		<time>2011-09-11T14:04:36.012Z</time>
		<geoidheight>288</geoidheight>
	</trkpt>
	<trkpt lat="50.714442" lon="6.133435">
		<ele>334</ele>
		<time>2011-09-11T14:04:37.012Z</time>
		<geoidheight>288</geoidheight>
	</trkpt>
	<trkpt lat="50.714570" lon="6.133281">
		<ele>333</ele>
		<time>2011-09-11T14:04:38.012Z</time>
		<geoidheight>287</geoidheight>
	</trkpt>
	<trkpt lat="50.714694" lon="6.133130">
		<ele>333</ele>
		<time>2011-09-11T14:04:39.012Z</time>
		<geoidheight>287</geoidheight>
	</trkpt>
	<trkpt lat="50.714820" lon="6.132979">
		<ele>332</ele>
		<time>2011-09-11T14:04:40.011Z</time>
		<geoidheight>286</geoidheight>
	</trkpt>
	<trkpt lat="50.714944" lon="6.132830">
		<ele>332</ele>
		<time>2011-09-11T14:04:41.015Z</time>
		<geoidheight>286</geoidheight>
	</trkpt>
	<trkpt lat="50.715068" lon="6.132684">
		<ele>331</ele>
		<time>2011-09-11T14:04:42.014Z</time>
		<geoidheight>285</geoidheight>
	</trkpt>
	<trkpt lat="50.715192" lon="6.132540">
		<ele>331</ele>
		<time>2011-09-11T14:04:43.011Z</time>
		<geoidheight>285</geoidheight>
	</trkpt>
	<trkpt lat="50.715314" lon="6.132398">
		<ele>331</ele>
		<time>2011-09-11T14:04:44.011Z</time>
		<geoidheight>285</geoidheight>
	</trkpt>
	<trkpt lat="50.715387" lon="6.132377">
		<ele>330</ele>
		<time>2011-09-11T14:04:45.012Z</time>
		<geoidheight>284</geoidheight>
	</trkpt>
	<trkpt lat="50.715433" lon="6.132373">
		<ele>330</ele>
		<time>2011-09-11T14:04:46.028Z</time>
		<geoidheight>284</geoidheight>
	</trkpt>
	<trkpt lat="50.715469" lon="6.132362">
		<ele>329</ele>
		<time>2011-09-11T14:04:47.028Z</time>
		<geoidheight>283</geoidheight>
	</trkpt>
	<trkpt lat="50.715501" lon="6.132349">
		<ele>329</ele>
		<time>2011-09-11T14:04:48.027Z</time>
		<geoidheight>283</geoidheight>
	</trkpt>
	<trkpt lat="50.715513" lon="6.132338">
		<ele>329</ele>
		<time>2011-09-11T14:04:49.027Z</time>
		<geoidheight>283</geoidheight>
	</trkpt>
	<trkpt lat="50.715490" lon="6.132363">
		<ele>329</ele>
		<time>2011-09-11T14:04:50.024Z</time>
		<geoidheight>283</geoidheight>
	</trkpt>
	<trkpt lat="50.715490" lon="6.132363">
		<ele>329</ele>
		<time>2011-09-11T14:04:51.014Z</time>
		<geoidheight>283</geoidheight>
	</trkpt>
	<trkpt lat="50.715490" lon="6.132363">
		<ele>329</ele>
		<time>2011-09-11T14:04:59.036Z</time>
		<geoidheight>283</geoidheight>
	</trkpt>
	<trkpt lat="50.715409" lon="6.132489">
		<ele>328</ele>
		<time>2011-09-11T14:05:00.041Z</time>
		<geoidheight>282</geoidheight>
	</trkpt>
	<trkpt lat="50.715409" lon="6.132489">
		<ele>328</ele>
		<time>2011-09-11T14:05:42.015Z</time>
		<geoidheight>282</geoidheight>
	</trkpt>
	<trkpt lat="50.715310" lon="6.132490">
		<ele>327</ele>
		<time>2011-09-11T14:05:43.018Z</time>
		<geoidheight>281</geoidheight>
	</trkpt>
	<trkpt lat="50.715310" lon="6.132490">
		<ele>327</ele>
		<time>2011-09-11T14:05:47.022Z</time>
		<geoidheight>281</geoidheight>
	</trkpt>
	<trkpt lat="50.715288" lon="6.132468">
		<ele>327</ele>
		<time>2011-09-11T14:05:48.017Z</time>
		<geoidheight>281</geoidheight>
	</trkpt>
	<trkpt lat="50.715288" lon="6.132448">
		<ele>326</ele>
		<time>2011-09-11T14:05:49.015Z</time>
		<geoidheight>280</geoidheight>
	</trkpt>
	<trkpt lat="50.715288" lon="6.132427">
		<ele>326</ele>
		<time>2011-09-11T14:05:50.014Z</time>
		<geoidheight>280</geoidheight>
	</trkpt>
	<trkpt lat="50.715290" lon="6.132407">
		<ele>326</ele>
		<time>2011-09-11T14:05:51.019Z</time>
		<geoidheight>280</geoidheight>
	</trkpt>
	<trkpt lat="50.715293" lon="6.132387">
		<ele>326</ele>
		<time>2011-09-11T14:05:52.019Z</time>
		<geoidheight>280</geoidheight>
	</trkpt>
	<trkpt lat="50.715297" lon="6.132372">
		<ele>325</ele>
		<time>2011-09-11T14:05:53.014Z</time>
		<geoidheight>279</geoidheight>
	</trkpt>
	<trkpt lat="50.715305" lon="6.132360">
		<ele>325</ele>
		<time>2011-09-11T14:05:54.016Z</time>
		<geoidheight>279</geoidheight>
	</trkpt>
	<trkpt lat="50.715313" lon="6.132346">
		<ele>325</ele>
		<time>2011-09-11T14:05:55.018Z</time>
		<geoidheight>279</geoidheight>
	</trkpt>
	<trkpt lat="50.715321" lon="6.132332">
		<ele>324</ele>
		<time>2011-09-11T14:05:56.027Z</time>
		<geoidheight>278</geoidheight>
	</trkpt>
	<trkpt lat="50.715330" lon="6.132318">
		<ele>324</ele>
		<time>2011-09-11T14:05:57.025Z</time>
		<geoidheight>278</geoidheight>
	</trkpt>
	<trkpt lat="50.715339" lon="6.132306">
		<ele>324</ele>
		<time>2011-09-11T14:05:58.022Z</time>
		<geoidheight>278</geoidheight>
	</trkpt>
	<trkpt lat="50.715339" lon="6.132306">
		<ele>324</ele>
		<time>2011-09-11T14:05:59.028Z</time>
		<geoidheight>278</geoidheight>
	</trkpt>
	<trkpt lat="50.715357" lon="6.132285">
		<ele>323</ele>
		<time>2011-09-11T14:06:00.029Z</time>
		<geoidheight>277</geoidheight>
	</trkpt>
	<trkpt lat="50.715367" lon="6.132277">
		<ele>323</ele>
		<time>2011-09-11T14:06:01.022Z</time>
		<geoidheight>277</geoidheight>
	</trkpt>
	<trkpt lat="50.715377" lon="6.132268">
		<ele>323</ele>
		<time>2011-09-11T14:06:02.016Z</time>
		<geoidheight>277</geoidheight>
	</trkpt>
	<trkpt lat="50.715387" lon="6.132260">
		<ele>322</ele>
		<time>2011-09-11T14:06:03.018Z</time>
		<geoidheight>276</geoidheight>
	</trkpt>
	<trkpt lat="50.715397" lon="6.132250">
		<ele>322</ele>
		<time>2011-09-11T14:06:04.020Z</time>
		<geoidheight>276</geoidheight>
	</trkpt>
	<trkpt lat="50.715409" lon="6.132238">
		<ele>321</ele>
		<time>2011-09-11T14:06:05.027Z</time>
		<geoidheight>275</geoidheight>
	</trkpt>
	<trkpt lat="50.715422" lon="6.132226">
		<ele>321</ele>
		<time>2011-09-11T14:06:06.027Z</time>
		<geoidheight>275</geoidheight>
	</trkpt>
	<trkpt lat="50.715434" lon="6.132214">
		<ele>321</ele>
		<time>2011-09-11T14:06:07.026Z</time>
		<geoidheight>275</geoidheight>
	</trkpt>
	<trkpt lat="50.715447" lon="6.132202">
		<ele>320</ele>
		<time>2011-09-11T14:06:08.033Z</time>
		<geoidheight>274</geoidheight>
	</trkpt>
	<trkpt lat="50.715458" lon="6.132189">
		<ele>320</ele>
		<time>2011-09-11T14:06:09.032Z</time>
		<geoidheight>274</geoidheight>
	</trkpt>
	<trkpt lat="50.715470" lon="6.132176">
		<ele>320</ele>
		<time>2011-09-11T14:06:10.029Z</time>
		<geoidheight>274</geoidheight>
	</trkpt>
	<trkpt lat="50.715481" lon="6.132165">
		<ele>319</ele>
		<time>2011-09-11T14:06:11.029Z</time>
		<geoidheight>273</geoidheight>
	</trkpt>
	<trkpt lat="50.715493" lon="6.132152">
		<ele>319</ele>
		<time>2011-09-11T14:06:12.015Z</time>
		<geoidheight>273</geoidheight>
	</trkpt>
	<trkpt lat="50.715505" lon="6.132140">
		<ele>319</ele>
		<time>2011-09-11T14:06:13.015Z</time>
		<geoidheight>273</geoidheight>
	</trkpt>
	<trkpt lat="50.715517" lon="6.132129">
		<ele>318</ele>
		<time>2011-09-11T14:06:14.017Z</time>
		<geoidheight>272</geoidheight>
	</trkpt>
	<trkpt lat="50.715530" lon="6.132116">
		<ele>318</ele>
		<time>2011-09-11T14:06:15.031Z</time>
		<geoidheight>272</geoidheight>
	</trkpt>
	<trkpt lat="50.715545" lon="6.132104">
		<ele>317</ele>
		<time>2011-09-11T14:06:16.026Z</time>
		<geoidheight>271</geoidheight>
	</trkpt>
	<trkpt lat="50.715558" lon="6.132093">
		<ele>317</ele>
		<time>2011-09-11T14:06:17.028Z</time>
		<geoidheight>271</geoidheight>
	</trkpt>
	<trkpt lat="50.715574" lon="6.132080">
		<ele>317</ele>
		<time>2011-09-11T14:06:18.040Z</time>
		<geoidheight>271</geoidheight>
	</trkpt>
	<trkpt lat="50.715591" lon="6.132068">
		<ele>316</ele>
		<time>2011-09-11T14:06:19.032Z</time>
		<geoidheight>270</geoidheight>
	</trkpt>
	<trkpt lat="50.715604" lon="6.132057">
		<ele>316</ele>
		<time>2011-09-11T14:06:20.029Z</time>
		<geoidheight>270</geoidheight>
	</trkpt>
	<trkpt lat="50.715619" lon="6.132044">
		<ele>316</ele>
		<time>2011-09-11T14:06:21.035Z</time>
		<geoidheight>270</geoidheight>
	</trkpt>
	<trkpt lat="50.715619" lon="6.132044">
		<ele>316</ele>
		<time>2011-09-11T14:06:22.031Z</time>
		<geoidheight>270</geoidheight>
	</trkpt>
	<trkpt lat="50.715619" lon="6.132044">
		<ele>316</ele>
		<time>2011-09-11T14:06:23.027Z</time>
		<geoidheight>270</geoidheight>
	</trkpt>
	<trkpt lat="50.715660" lon="6.132007">
		<ele>315</ele>
		<time>2011-09-11T14:06:24.026Z</time>
		<geoidheight>269</geoidheight>
	</trkpt>
	<trkpt lat="50.715660" lon="6.132007">
		<ele>315</ele>
		<time>2011-09-11T14:06:25.025Z</time>
		<geoidheight>269</geoidheight>
	</trkpt>
	<trkpt lat="50.715682" lon="6.131985">
		<ele>314</ele>
		<time>2011-09-11T14:06:26.028Z</time>
		<geoidheight>268</geoidheight>
	</trkpt>
	<trkpt lat="50.715690" lon="6.131970">
		<ele>314</ele>
		<time>2011-09-11T14:06:27.031Z</time>
		<geoidheight>268</geoidheight>
	</trkpt>
	<trkpt lat="50.715694" lon="6.131952">
		<ele>314</ele>
		<time>2011-09-11T14:06:28.020Z</time>
		<geoidheight>268</geoidheight>
	</trkpt>
	<trkpt lat="50.715697" lon="6.131935">
		<ele>313</ele>
		<time>2011-09-11T14:06:29.019Z</time>
		<geoidheight>267</geoidheight>
	</trkpt>
	<trkpt lat="50.715699" lon="6.131917">
		<ele>313</ele>
		<time>2011-09-11T14:06:30.023Z</time>
		<geoidheight>267</geoidheight>
	</trkpt>
	<trkpt lat="50.715699" lon="6.131917">
		<ele>313</ele>
		<time>2011-09-11T14:06:31.022Z</time>
		<geoidheight>267</geoidheight>
	</trkpt>
	<trkpt lat="50.715692" lon="6.131880">
		<ele>312</ele>
		<time>2011-09-11T14:06:32.049Z</time>
		<geoidheight>266</geoidheight>
	</trkpt>
	<trkpt lat="50.715683" lon="6.131863">
		<ele>312</ele>
		<time>2011-09-11T14:06:33.037Z</time>
		<geoidheight>266</geoidheight>
	</trkpt>
	<trkpt lat="50.715672" lon="6.131846">
		<ele>312</ele>
		<time>2011-09-11T14:06:34.022Z</time>
		<geoidheight>266</geoidheight>
	</trkpt>
	<trkpt lat="50.715660" lon="6.131831">
		<ele>312</ele>
		<time>2011-09-11T14:06:35.016Z</time>
		<geoidheight>266</geoidheight>
	</trkpt>
	<trkpt lat="50.715651" lon="6.131815">
		<ele>311</ele>
		<time>2011-09-11T14:06:36.017Z</time>
		<geoidheight>265</geoidheight>
	</trkpt>
	<trkpt lat="50.715643" lon="6.131796">
		<ele>311</ele>
		<time>2011-09-11T14:06:37.025Z</time>
		<geoidheight>265</geoidheight>
	</trkpt>
	<trkpt lat="50.715637" lon="6.131782">
		<ele>311</ele>
		<time>2011-09-11T14:06:38.017Z</time>
		<geoidheight>265</geoidheight>
	</trkpt>
	<trkpt lat="50.715633" lon="6.131767">
		<ele>310</ele>
		<time>2011-09-11T14:06:39.019Z</time>
		<geoidheight>264</geoidheight>
	</trkpt>
	<trkpt lat="50.715633" lon="6.131767">
		<ele>310</ele>
		<time>2011-09-11T14:06:40.017Z</time>
		<geoidheight>264</geoidheight>
	</trkpt>
	<trkpt lat="50.715628" lon="6.131743">
		<ele>310</ele>
		<time>2011-09-11T14:06:41.017Z</time>
		<geoidheight>264</geoidheight>
	</trkpt>
	<trkpt lat="50.715628" lon="6.131743">
		<ele>310</ele>
		<time>2011-09-11T14:06:42.015Z</time>
		<geoidheight>264</geoidheight>
	</trkpt>
	<trkpt lat="50.715628" lon="6.131743">
		<ele>310</ele>
		<time>2011-09-11T14:06:43.023Z</time>
		<geoidheight>264</geoidheight>
	</trkpt>
	<trkpt lat="50.715636" lon="6.131706">
		<ele>309</ele>
		<time>2011-09-11T14:06:44.020Z</time>
		<geoidheight>263</geoidheight>
	</trkpt>
	<trkpt lat="50.715636" lon="6.131706">
		<ele>309</ele>
		<time>2011-09-11T14:06:45.032Z</time>
		<geoidheight>263</geoidheight>
	</trkpt>
	<trkpt lat="50.715635" lon="6.131677">
		<ele>308</ele>
		<time>2011-09-11T14:06:46.032Z</time>
		<geoidheight>262</geoidheight>
	</trkpt>
	<trkpt lat="50.715635" lon="6.131677">
		<ele>308</ele>
		<time>2011-09-11T14:06:47.030Z</time>
		<geoidheight>262</geoidheight>
	</trkpt>
	<trkpt lat="50.715635" lon="6.131677">
		<ele>308</ele>
		<time>2011-09-11T14:06:48.034Z</time>
		<geoidheight>262</geoidheight>
	</trkpt>
	<trkpt lat="50.715620" lon="6.131610">
		<ele>308</ele>
		<time>2011-09-11T14:06:49.033Z</time>
		<geoidheight>262</geoidheight>
	</trkpt>
	<trkpt lat="50.715613" lon="6.131584">
		<ele>307</ele>
		<time>2011-09-11T14:06:50.038Z</time>
		<geoidheight>261</geoidheight>
	</trkpt>
	<trkpt lat="50.715613" lon="6.131584">
		<ele>307</ele>
		<time>2011-09-11T14:06:51.018Z</time>
		<geoidheight>261</geoidheight>
	</trkpt>
	<trkpt lat="50.715597" lon="6.131535">
		<ele>307</ele>
		<time>2011-09-11T14:06:52.025Z</time>
		<geoidheight>261</geoidheight>
	</trkpt>
	<trkpt lat="50.715588" lon="6.131511">
		<ele>306</ele>
		<time>2011-09-11T14:06:53.014Z</time>
		<geoidheight>260</geoidheight>
	</trkpt>
	<trkpt lat="50.715578" lon="6.131489">
		<ele>306</ele>
		<time>2011-09-11T14:06:54.018Z</time>
		<geoidheight>260</geoidheight>
	</trkpt>
	<trkpt lat="50.715569" lon="6.131468">
		<ele>306</ele>
		<time>2011-09-11T14:06:55.014Z</time>
		<geoidheight>260</geoidheight>
	</trkpt>
	<trkpt lat="50.715557" lon="6.131447">
		<ele>306</ele>
		<time>2011-09-11T14:06:56.014Z</time>
		<geoidheight>260</geoidheight>
	</trkpt>
	<trkpt lat="50.715544" lon="6.131428">
		<ele>305</ele>
		<time>2011-09-11T14:06:57.016Z</time>
		<geoidheight>259</geoidheight>
	</trkpt>
	<trkpt lat="50.715531" lon="6.131412">
		<ele>305</ele>
		<time>2011-09-11T14:06:58.015Z</time>
		<geoidheight>259</geoidheight>
	</trkpt>
	<trkpt lat="50.715518" lon="6.131394">
		<ele>305</ele>
		<time>2011-09-11T14:06:59.015Z</time>
		<geoidheight>259</geoidheight>
	</trkpt>
	<trkpt lat="50.715505" lon="6.131376">
		<ele>304</ele>
		<time>2011-09-11T14:07:00.017Z</time>
		<geoidheight>258</geoidheight>
	</trkpt>
	<trkpt lat="50.715492" lon="6.131356">
		<ele>304</ele>
		<time>2011-09-11T14:07:01.018Z</time>
		<geoidheight>258</geoidheight>
	</trkpt>
	<trkpt lat="50.715492" lon="6.131356">
		<ele>304</ele>
		<time>2011-09-11T14:07:02.014Z</time>
		<geoidheight>258</geoidheight>
	</trkpt>
	<trkpt lat="50.715468" lon="6.131318">
		<ele>304</ele>
		<time>2011-09-11T14:07:03.014Z</time>
		<geoidheight>258</geoidheight>
	</trkpt>
	<trkpt lat="50.715460" lon="6.131300">
		<ele>303</ele>
		<time>2011-09-11T14:07:04.019Z</time>
		<geoidheight>257</geoidheight>
	</trkpt>
	<trkpt lat="50.715453" lon="6.131282">
		<ele>303</ele>
		<time>2011-09-11T14:07:05.014Z</time>
		<geoidheight>257</geoidheight>
	</trkpt>
	<trkpt lat="50.715447" lon="6.131266">
		<ele>303</ele>
		<time>2011-09-11T14:07:06.016Z</time>
		<geoidheight>257</geoidheight>
	</trkpt>
	<trkpt lat="50.715441" lon="6.131248">
		<ele>303</ele>
		<time>2011-09-11T14:07:07.015Z</time>
		<geoidheight>257</geoidheight>
	</trkpt>
	<trkpt lat="50.715434" lon="6.131230">
		<ele>302</ele>
		<time>2011-09-11T14:07:08.016Z</time>
		<geoidheight>256</geoidheight>
	</trkpt>
	<trkpt lat="50.715427" lon="6.131212">
		<ele>302</ele>
		<time>2011-09-11T14:07:09.013Z</time>
		<geoidheight>256</geoidheight>
	</trkpt>
	<trkpt lat="50.715427" lon="6.131212">
		<ele>302</ele>
		<time>2011-09-11T14:07:10.018Z</time>
		<geoidheight>256</geoidheight>
	</trkpt>
	<trkpt lat="50.715414" lon="6.131172">
		<ele>302</ele>
		<time>2011-09-11T14:07:11.014Z</time>
		<geoidheight>256</geoidheight>
	</trkpt>
	<trkpt lat="50.715408" lon="6.131150">
		<ele>301</ele>
		<time>2011-09-11T14:07:12.014Z</time>
		<geoidheight>255</geoidheight>
	</trkpt>
	<trkpt lat="50.715401" lon="6.131129">
		<ele>301</ele>
		<time>2011-09-11T14:07:13.016Z</time>
		<geoidheight>255</geoidheight>
	</trkpt>
	<trkpt lat="50.715395" lon="6.131108">
		<ele>301</ele>
		<time>2011-09-11T14:07:14.016Z</time>
		<geoidheight>255</geoidheight>
	</trkpt>
	<trkpt lat="50.715387" lon="6.131088">
		<ele>301</ele>
		<time>2011-09-11T14:07:15.016Z</time>
		<geoidheight>255</geoidheight>
	</trkpt>
	<trkpt lat="50.715379" lon="6.131071">
		<ele>300</ele>
		<time>2011-09-11T14:07:16.014Z</time>
		<geoidheight>254</geoidheight>
	</trkpt>
	<trkpt lat="50.715372" lon="6.131052">
		<ele>300</ele>
		<time>2011-09-11T14:07:17.016Z</time>
		<geoidheight>254</geoidheight>
	</trkpt>
	<trkpt lat="50.715365" lon="6.131034">
		<ele>300</ele>
		<time>2011-09-11T14:07:18.017Z</time>
		<geoidheight>254</geoidheight>
	</trkpt>
	<trkpt lat="50.715358" lon="6.131014">
		<ele>300</ele>
		<time>2011-09-11T14:07:19.019Z</time>
		<geoidheight>254</geoidheight>
	</trkpt>
	<trkpt lat="50.715351" lon="6.130993">
		<ele>300</ele>
		<time>2011-09-11T14:07:20.020Z</time>
		<geoidheight>254</geoidheight>
	</trkpt>
	<trkpt lat="50.715344" lon="6.130972">
		<ele>299</ele>
		<time>2011-09-11T14:07:21.021Z</time>
		<geoidheight>253</geoidheight>
	</trkpt>
	<trkpt lat="50.715337" lon="6.130954">
		<ele>299</ele>
		<time>2011-09-11T14:07:22.017Z</time>
		<geoidheight>253</geoidheight>
	</trkpt>
	<trkpt lat="50.715330" lon="6.130935">
		<ele>299</ele>
		<time>2011-09-11T14:07:23.017Z</time>
		<geoidheight>253</geoidheight>
	</trkpt>
	<trkpt lat="50.715330" lon="6.130935">
		<ele>299</ele>
		<time>2011-09-11T14:07:24.014Z</time>
		<geoidheight>253</geoidheight>
	</trkpt>
	<trkpt lat="50.715330" lon="6.130935">
		<ele>299</ele>
		<time>2011-09-11T14:07:27.015Z</time>
		<geoidheight>253</geoidheight>
	</trkpt>
	<trkpt lat="50.715305" lon="6.130864">
		<ele>298</ele>
		<time>2011-09-11T14:07:28.015Z</time>
		<geoidheight>252</geoidheight>
	</trkpt>
	<trkpt lat="50.715305" lon="6.130864">
		<ele>298</ele>
		<time>2011-09-11T14:07:30.015Z</time>
		<geoidheight>252</geoidheight>
	</trkpt>
	<trkpt lat="50.715287" lon="6.130811">
		<ele>297</ele>
		<time>2011-09-11T14:07:31.014Z</time>
		<geoidheight>251</geoidheight>
	</trkpt>
	<trkpt lat="50.715287" lon="6.130811">
		<ele>297</ele>
		<time>2011-09-11T14:07:32.013Z</time>
		<geoidheight>251</geoidheight>
	</trkpt>
	<trkpt lat="50.715287" lon="6.130811">
		<ele>297</ele>
		<time>2011-09-11T14:07:33.018Z</time>
		<geoidheight>251</geoidheight>
	</trkpt>
	<trkpt lat="50.715267" lon="6.130757">
		<ele>297</ele>
		<time>2011-09-11T14:07:34.014Z</time>
		<geoidheight>251</geoidheight>
	</trkpt>
	<trkpt lat="50.715259" lon="6.130739">
		<ele>297</ele>
		<time>2011-09-11T14:07:35.027Z</time>
		<geoidheight>251</geoidheight>
	</trkpt>
	<trkpt lat="50.715251" lon="6.130723">
		<ele>296</ele>
		<time>2011-09-11T14:07:36.022Z</time>
		<geoidheight>250</geoidheight>
	</trkpt>
	<trkpt lat="50.715251" lon="6.130723">
		<ele>296</ele>
		<time>2011-09-11T14:07:37.018Z</time>
		<geoidheight>250</geoidheight>
	</trkpt>
	<trkpt lat="50.715251" lon="6.130723">
		<ele>296</ele>
		<time>2011-09-11T14:07:39.023Z</time>
		<geoidheight>250</geoidheight>
	</trkpt>
	<trkpt lat="50.715223" lon="6.130657">
		<ele>296</ele>
		<time>2011-09-11T14:07:40.024Z</time>
		<geoidheight>250</geoidheight>
	</trkpt>
	<trkpt lat="50.715223" lon="6.130657">
		<ele>296</ele>
		<time>2011-09-11T14:07:42.022Z</time>
		<geoidheight>250</geoidheight>
	</trkpt>
	<trkpt lat="50.715201" lon="6.130600">
		<ele>295</ele>
		<time>2011-09-11T14:07:43.034Z</time>
		<geoidheight>249</geoidheight>
	</trkpt>
	<trkpt lat="50.715196" lon="6.130581">
		<ele>295</ele>
		<time>2011-09-11T14:07:44.035Z</time>
		<geoidheight>249</geoidheight>
	</trkpt>
	<trkpt lat="50.715196" lon="6.130581">
		<ele>295</ele>
		<time>2011-09-11T14:07:45.024Z</time>
		<geoidheight>249</geoidheight>
	</trkpt>
	<trkpt lat="50.715184" lon="6.130554">
		<ele>295</ele>
		<time>2011-09-11T14:07:46.016Z</time>
		<geoidheight>249</geoidheight>
	</trkpt>
	<trkpt lat="50.715177" lon="6.130541">
		<ele>295</ele>
		<time>2011-09-11T14:07:47.015Z</time>
		<geoidheight>249</geoidheight>
	</trkpt>
	<trkpt lat="50.715171" lon="6.130527">
		<ele>294</ele>
		<time>2011-09-11T14:07:48.014Z</time>
		<geoidheight>248</geoidheight>
	</trkpt>
	<trkpt lat="50.715165" lon="6.130512">
		<ele>294</ele>
		<time>2011-09-11T14:07:49.015Z</time>
		<geoidheight>248</geoidheight>
	</trkpt>
	<trkpt lat="50.715159" lon="6.130497">
		<ele>294</ele>
		<time>2011-09-11T14:07:50.013Z</time>
		<geoidheight>248</geoidheight>
	</trkpt>
	<trkpt lat="50.715151" lon="6.130482">
		<ele>294</ele>
		<time>2011-09-11T14:07:51.014Z</time>
		<geoidheight>248</geoidheight>
	</trkpt>
	<trkpt lat="50.715143" lon="6.130466">
		<ele>294</ele>
		<time>2011-09-11T14:07:52.014Z</time>
		<geoidheight>248</geoidheight>
	</trkpt>
	<trkpt lat="50.715133" lon="6.130449">
		<ele>294</ele>
		<time>2011-09-11T14:07:53.016Z</time>
		<geoidheight>248</geoidheight>
	</trkpt>
	<trkpt lat="50.715123" lon="6.130432">
		<ele>294</ele>
		<time>2011-09-11T14:07:54.014Z</time>
		<geoidheight>248</geoidheight>
	</trkpt>
	<trkpt lat="50.715117" lon="6.130420">
		<ele>293</ele>
		<time>2011-09-11T14:07:55.021Z</time>
		<geoidheight>247</geoidheight>
	</trkpt>
	<trkpt lat="50.715117" lon="6.130420">
		<ele>293</ele>
		<time>2011-09-11T14:08:06.035Z</time>
		<geoidheight>247</geoidheight>
	</trkpt>
	<trkpt lat="50.715082" lon="6.130378">
		<ele>293</ele>
		<time>2011-09-11T14:08:07.036Z</time>
		<geoidheight>247</geoidheight>
	</trkpt>
	<trkpt lat="50.715077" lon="6.130373">
		<ele>293</ele>
		<time>2011-09-11T14:08:08.037Z</time>
		<geoidheight>247</geoidheight>
	</trkpt>
	<trkpt lat="50.715074" lon="6.130364">
		<ele>293</ele>
		<time>2011-09-11T14:08:09.035Z</time>
		<geoidheight>247</geoidheight>
	</trkpt>
	<trkpt lat="50.715074" lon="6.130364">
		<ele>293</ele>
		<time>2011-09-11T14:08:20.038Z</time>
		<geoidheight>247</geoidheight>
	</trkpt>
	<trkpt lat="50.715081" lon="6.130343">
		<ele>292</ele>
		<time>2011-09-11T14:08:21.030Z</time>
		<geoidheight>246</geoidheight>
	</trkpt>
	<trkpt lat="50.715080" lon="6.130333">
		<ele>292</ele>
		<time>2011-09-11T14:08:22.034Z</time>
		<geoidheight>246</geoidheight>
	</trkpt>
	<trkpt lat="50.715075" lon="6.130318">
		<ele>292</ele>
		<time>2011-09-11T14:08:23.035Z</time>
		<geoidheight>246</geoidheight>
	</trkpt>
	<trkpt lat="50.715071" lon="6.130301">
		<ele>292</ele>
		<time>2011-09-11T14:08:24.033Z</time>
		<geoidheight>246</geoidheight>
	</trkpt>
	<trkpt lat="50.715066" lon="6.130285">
		<ele>292</ele>
		<time>2011-09-11T14:08:25.037Z</time>
		<geoidheight>246</geoidheight>
	</trkpt>
	<trkpt lat="50.715059" lon="6.130268">
		<ele>292</ele>
		<time>2011-09-11T14:08:26.034Z</time>
		<geoidheight>246</geoidheight>
	</trkpt>
	<trkpt lat="50.715053" lon="6.130250">
		<ele>292</ele>
		<time>2011-09-11T14:08:27.035Z</time>
		<geoidheight>246</geoidheight>
	</trkpt>
	<trkpt lat="50.715046" lon="6.130231">
		<ele>292</ele>
		<time>2011-09-11T14:08:28.049Z</time>
		<geoidheight>246</geoidheight>
	</trkpt>
	<trkpt lat="50.715038" lon="6.130214">
		<ele>292</ele>
		<time>2011-09-11T14:08:29.030Z</time>
		<geoidheight>246</geoidheight>
	</trkpt>
	<trkpt lat="50.715029" lon="6.130196">
		<ele>292</ele>
		<time>2011-09-11T14:08:30.018Z</time>
		<geoidheight>246</geoidheight>
	</trkpt>
	<trkpt lat="50.715021" lon="6.130177">
		<ele>291</ele>
		<time>2011-09-11T14:08:31.015Z</time>
		<geoidheight>245</geoidheight>
	</trkpt>
	<trkpt lat="50.715014" lon="6.130157">
		<ele>291</ele>
		<time>2011-09-11T14:08:32.025Z</time>
		<geoidheight>245</geoidheight>
	</trkpt>
	<trkpt lat="50.715005" lon="6.130142">
		<ele>291</ele>
		<time>2011-09-11T14:08:33.023Z</time>
		<geoidheight>245</geoidheight>
	</trkpt>
	<trkpt lat="50.715000" lon="6.130122">
		<ele>291</ele>
		<time>2011-09-11T14:08:34.014Z</time>
		<geoidheight>245</geoidheight>
	</trkpt>
	<trkpt lat="50.714994" lon="6.130102">
		<ele>291</ele>
		<time>2011-09-11T14:08:35.018Z</time>
		<geoidheight>245</geoidheight>
	</trkpt>
	<trkpt lat="50.714986" lon="6.130083">
		<ele>291</ele>
		<time>2011-09-11T14:08:36.013Z</time>
		<geoidheight>245</geoidheight>
	</trkpt>
	<trkpt lat="50.714978" lon="6.130062">
		<ele>291</ele>
		<time>2011-09-11T14:08:37.016Z</time>
		<geoidheight>245</geoidheight>
	</trkpt>
	<trkpt lat="50.714970" lon="6.130042">
		<ele>291</ele>
		<time>2011-09-11T14:08:38.016Z</time>
		<geoidheight>245</geoidheight>
	</trkpt>
	<trkpt lat="50.714962" lon="6.130022">
		<ele>291</ele>
		<time>2011-09-11T14:08:39.016Z</time>
		<geoidheight>245</geoidheight>
	</trkpt>
	<trkpt lat="50.714955" lon="6.130004">
		<ele>291</ele>
		<time>2011-09-11T14:08:40.023Z</time>
		<geoidheight>245</geoidheight>
	</trkpt>
	<trkpt lat="50.714946" lon="6.129989">
		<ele>291</ele>
		<time>2011-09-11T14:08:41.028Z</time>
		<geoidheight>245</geoidheight>
	</trkpt>
	<trkpt lat="50.714938" lon="6.129974">
		<ele>291</ele>
		<time>2011-09-11T14:08:42.023Z</time>
		<geoidheight>245</geoidheight>
	</trkpt>
	<trkpt lat="50.714931" lon="6.129962">
		<ele>291</ele>
		<time>2011-09-11T14:08:43.024Z</time>
		<geoidheight>245</geoidheight>
	</trkpt>
	<trkpt lat="50.714925" lon="6.129947">
		<ele>291</ele>
		<time>2011-09-11T14:08:44.023Z</time>
		<geoidheight>245</geoidheight>
	</trkpt>
	<trkpt lat="50.714918" lon="6.129930">
		<ele>291</ele>
		<time>2011-09-11T14:08:45.021Z</time>
		<geoidheight>245</geoidheight>
	</trkpt>
	<trkpt lat="50.714913" lon="6.129915">
		<ele>291</ele>
		<time>2011-09-11T14:08:46.020Z</time>
		<geoidheight>245</geoidheight>
	</trkpt>
	<trkpt lat="50.714909" lon="6.129897">
		<ele>290</ele>
		<time>2011-09-11T14:08:47.020Z</time>
		<geoidheight>244</geoidheight>
	</trkpt>
	<trkpt lat="50.714902" lon="6.129880">
		<ele>290</ele>
		<time>2011-09-11T14:08:48.017Z</time>
		<geoidheight>244</geoidheight>
	</trkpt>
	<trkpt lat="50.714897" lon="6.129864">
		<ele>290</ele>
		<time>2011-09-11T14:08:49.028Z</time>
		<geoidheight>244</geoidheight>
	</trkpt>
	<trkpt lat="50.714892" lon="6.129844">
		<ele>290</ele>
		<time>2011-09-11T14:08:50.018Z</time>
		<geoidheight>244</geoidheight>
	</trkpt>
	<trkpt lat="50.714886" lon="6.129825">
		<ele>290</ele>
		<time>2011-09-11T14:08:51.016Z</time>
		<geoidheight>244</geoidheight>
	</trkpt>
	<trkpt lat="50.714879" lon="6.129808">
		<ele>290</ele>
		<time>2011-09-11T14:08:52.014Z</time>
		<geoidheight>244</geoidheight>
	</trkpt>
	<trkpt lat="50.714871" lon="6.129793">
		<ele>290</ele>
		<time>2011-09-11T14:08:53.015Z</time>
		<geoidheight>244</geoidheight>
	</trkpt>
	<trkpt lat="50.714865" lon="6.129777">
		<ele>290</ele>
		<time>2011-09-11T14:08:54.017Z</time>
		<geoidheight>244</geoidheight>
	</trkpt>
	<trkpt lat="50.714858" lon="6.129760">
		<ele>290</ele>
		<time>2011-09-11T14:08:55.014Z</time>
		<geoidheight>244</geoidheight>
	</trkpt>
	<trkpt lat="50.714849" lon="6.129742">
		<ele>290</ele>
		<time>2011-09-11T14:08:56.014Z</time>
		<geoidheight>244</geoidheight>
	</trkpt>
	<trkpt lat="50.714840" lon="6.129723">
		<ele>290</ele>
		<time>2011-09-11T14:08:57.014Z</time>
		<geoidheight>244</geoidheight>
	</trkpt>
	<trkpt lat="50.714828" lon="6.129708">
		<ele>289</ele>
		<time>2011-09-11T14:08:58.016Z</time>
		<geoidheight>243</geoidheight>
	</trkpt>
	<trkpt lat="50.714819" lon="6.129690">
		<ele>289</ele>
		<time>2011-09-11T14:08:59.015Z</time>
		<geoidheight>243</geoidheight>
	</trkpt>
	<trkpt lat="50.714809" lon="6.129671">
		<ele>289</ele>
		<time>2011-09-11T14:09:00.020Z</time>
		<geoidheight>243</geoidheight>
	</trkpt>
	<trkpt lat="50.714799" lon="6.129651">
		<ele>289</ele>
		<time>2011-09-11T14:09:01.014Z</time>
		<geoidheight>243</geoidheight>
	</trkpt>
	<trkpt lat="50.714790" lon="6.129631">
		<ele>289</ele>
		<time>2011-09-11T14:09:02.015Z</time>
		<geoidheight>243</geoidheight>
	</trkpt>
	<trkpt lat="50.714781" lon="6.129611">
		<ele>289</ele>
		<time>2011-09-11T14:09:03.015Z</time>
		<geoidheight>243</geoidheight>
	</trkpt>
	<trkpt lat="50.714772" lon="6.129590">
		<ele>289</ele>
		<time>2011-09-11T14:09:04.016Z</time>
		<geoidheight>243</geoidheight>
	</trkpt>
	<trkpt lat="50.714763" lon="6.129570">
		<ele>289</ele>
		<time>2011-09-11T14:09:05.015Z</time>
		<geoidheight>243</geoidheight>
	</trkpt>
	<trkpt lat="50.714755" lon="6.129551">
		<ele>289</ele>
		<time>2011-09-11T14:09:06.014Z</time>
		<geoidheight>243</geoidheight>
	</trkpt>
	<trkpt lat="50.714748" lon="6.129532">
		<ele>289</ele>
		<time>2011-09-11T14:09:07.015Z</time>
		<geoidheight>243</geoidheight>
	</trkpt>
	<trkpt lat="50.714739" lon="6.129516">
		<ele>289</ele>
		<time>2011-09-11T14:09:08.016Z</time>
		<geoidheight>243</geoidheight>
	</trkpt>
	<trkpt lat="50.714731" lon="6.129499">
		<ele>289</ele>
		<time>2011-09-11T14:09:09.014Z</time>
		<geoidheight>243</geoidheight>
	</trkpt>
	<trkpt lat="50.714723" lon="6.129483">
		<ele>289</ele>
		<time>2011-09-11T14:09:10.023Z</time>
		<geoidheight>243</geoidheight>
	</trkpt>
	<trkpt lat="50.714715" lon="6.129464">
		<ele>288</ele>
		<time>2011-09-11T14:09:11.016Z</time>
		<geoidheight>242</geoidheight>
	</trkpt>
	<trkpt lat="50.714707" lon="6.129446">
		<ele>288</ele>
		<time>2011-09-11T14:09:12.014Z</time>
		<geoidheight>242</geoidheight>
	</trkpt>
	<trkpt lat="50.714700" lon="6.129427">
		<ele>288</ele>
		<time>2011-09-11T14:09:13.016Z</time>
		<geoidheight>242</geoidheight>
	</trkpt>
	<trkpt lat="50.714693" lon="6.129409">
		<ele>288</ele>
		<time>2011-09-11T14:09:14.019Z</time>
		<geoidheight>242</geoidheight>
	</trkpt>
	<trkpt lat="50.714687" lon="6.129390">
		<ele>288</ele>
		<time>2011-09-11T14:09:15.016Z</time>
		<geoidheight>242</geoidheight>
	</trkpt>
	<trkpt lat="50.714679" lon="6.129373">
		<ele>288</ele>
		<time>2011-09-11T14:09:16.016Z</time>
		<geoidheight>242</geoidheight>
	</trkpt>
	<trkpt lat="50.714673" lon="6.129356">
		<ele>288</ele>
		<time>2011-09-11T14:09:17.016Z</time>
		<geoidheight>242</geoidheight>
	</trkpt>
	<trkpt lat="50.714666" lon="6.129338">
		<ele>288</ele>
		<time>2011-09-11T14:09:18.016Z</time>
		<geoidheight>242</geoidheight>
	</trkpt>
	<trkpt lat="50.714661" lon="6.129320">
		<ele>288</ele>
		<time>2011-09-11T14:09:19.014Z</time>
		<geoidheight>242</geoidheight>
	</trkpt>
	<trkpt lat="50.714654" lon="6.129301">
		<ele>288</ele>
		<time>2011-09-11T14:09:20.017Z</time>
		<geoidheight>242</geoidheight>
	</trkpt>
	<trkpt lat="50.714646" lon="6.129284">
		<ele>288</ele>
		<time>2011-09-11T14:09:21.016Z</time>
		<geoidheight>242</geoidheight>
	</trkpt>
	<trkpt lat="50.714639" lon="6.129267">
		<ele>288</ele>
		<time>2011-09-11T14:09:22.017Z</time>
		<geoidheight>242</geoidheight>
	</trkpt>
	<trkpt lat="50.714631" lon="6.129251">
		<ele>288</ele>
		<time>2011-09-11T14:09:23.014Z</time>
		<geoidheight>242</geoidheight>
	</trkpt>
	<trkpt lat="50.714624" lon="6.129235">
		<ele>288</ele>
		<time>2011-09-11T14:09:24.016Z</time>
		<geoidheight>242</geoidheight>
	</trkpt>
	<trkpt lat="50.714616" lon="6.129217">
		<ele>288</ele>
		<time>2011-09-11T14:09:25.014Z</time>
		<geoidheight>242</geoidheight>
	</trkpt>
	<trkpt lat="50.714608" lon="6.129199">
		<ele>288</ele>
		<time>2011-09-11T14:09:26.015Z</time>
		<geoidheight>242</geoidheight>
	</trkpt>
	<trkpt lat="50.714598" lon="6.129185">
		<ele>288</ele>
		<time>2011-09-11T14:09:27.016Z</time>
		<geoidheight>242</geoidheight>
	</trkpt>
	<trkpt lat="50.714592" lon="6.129165">
		<ele>287</ele>
		<time>2011-09-11T14:09:28.015Z</time>
		<geoidheight>241</geoidheight>
	</trkpt>
	<trkpt lat="50.714583" lon="6.129151">
		<ele>287</ele>
		<time>2011-09-11T14:09:29.015Z</time>
		<geoidheight>241</geoidheight>
	</trkpt>
	<trkpt lat="50.714574" lon="6.129135">
		<ele>287</ele>
		<time>2011-09-11T14:09:30.016Z</time>
		<geoidheight>241</geoidheight>
	</trkpt>
	<trkpt lat="50.714568" lon="6.129119">
		<ele>287</ele>
		<time>2011-09-11T14:09:31.016Z</time>
		<geoidheight>241</geoidheight>
	</trkpt>
	<trkpt lat="50.714560" lon="6.129103">
		<ele>287</ele>
		<time>2011-09-11T14:09:32.015Z</time>
		<geoidheight>241</geoidheight>
	</trkpt>
	<trkpt lat="50.714552" lon="6.129087">
		<ele>287</ele>
		<time>2011-09-11T14:09:33.018Z</time>
		<geoidheight>241</geoidheight>
	</trkpt>
	<trkpt lat="50.714544" lon="6.129069">
		<ele>287</ele>
		<time>2011-09-11T14:09:34.016Z</time>
		<geoidheight>241</geoidheight>
	</trkpt>
	<trkpt lat="50.714535" lon="6.129053">
		<ele>287</ele>
		<time>2011-09-11T14:09:35.025Z</time>
		<geoidheight>241</geoidheight>
	</trkpt>
	<trkpt lat="50.714527" lon="6.129035">
		<ele>287</ele>
		<time>2011-09-11T14:09:36.016Z</time>
		<geoidheight>241</geoidheight>
	</trkpt>
	<trkpt lat="50.714518" lon="6.129021">
		<ele>287</ele>
		<time>2011-09-11T14:09:37.016Z</time>
		<geoidheight>241</geoidheight>
	</trkpt>
	<trkpt lat="50.714510" lon="6.129004">
		<ele>287</ele>
		<time>2011-09-11T14:09:38.013Z</time>
		<geoidheight>241</geoidheight>
	</trkpt>
	<trkpt lat="50.714502" lon="6.128985">
		<ele>287</ele>
		<time>2011-09-11T14:09:39.023Z</time>
		<geoidheight>241</geoidheight>
	</trkpt>
	<trkpt lat="50.714494" lon="6.128967">
		<ele>287</ele>
		<time>2011-09-11T14:09:40.026Z</time>
		<geoidheight>241</geoidheight>
	</trkpt>
	<trkpt lat="50.714485" lon="6.128951">
		<ele>287</ele>
		<time>2011-09-11T14:09:41.021Z</time>
		<geoidheight>241</geoidheight>
	</trkpt>
	<trkpt lat="50.714478" lon="6.128935">
		<ele>287</ele>
		<time>2011-09-11T14:09:42.018Z</time>
		<geoidheight>241</geoidheight>
	</trkpt>
	<trkpt lat="50.714470" lon="6.128917">
		<ele>287</ele>
		<time>2011-09-11T14:09:43.017Z</time>
		<geoidheight>241</geoidheight>
	</trkpt>
	<trkpt lat="50.714462" lon="6.128902">
		<ele>287</ele>
		<time>2011-09-11T14:09:44.023Z</time>
		<geoidheight>241</geoidheight>
	</trkpt>
	<trkpt lat="50.714455" lon="6.128887">
		<ele>287</ele>
		<time>2011-09-11T14:09:45.017Z</time>
		<geoidheight>241</geoidheight>
	</trkpt>
	<trkpt lat="50.714447" lon="6.128872">
		<ele>286</ele>
		<time>2011-09-11T14:09:46.017Z</time>
		<geoidheight>240</geoidheight>
	</trkpt>
	<trkpt lat="50.714439" lon="6.128854">
		<ele>286</ele>
		<time>2011-09-11T14:09:47.016Z</time>
		<geoidheight>240</geoidheight>
	</trkpt>
	<trkpt lat="50.714431" lon="6.128835">
		<ele>286</ele>
		<time>2011-09-11T14:09:48.016Z</time>
		<geoidheight>240</geoidheight>
	</trkpt>
	<trkpt lat="50.714424" lon="6.128816">
		<ele>286</ele>
		<time>2011-09-11T14:09:49.015Z</time>
		<geoidheight>240</geoidheight>
	</trkpt>
	<trkpt lat="50.714417" lon="6.128798">
		<ele>286</ele>
		<time>2011-09-11T14:09:50.015Z</time>
		<geoidheight>240</geoidheight>
	</trkpt>
	<trkpt lat="50.714410" lon="6.128784">
		<ele>286</ele>
		<time>2011-09-11T14:09:51.014Z</time>
		<geoidheight>240</geoidheight>
	</trkpt>
	<trkpt lat="50.714404" lon="6.128773">
		<ele>286</ele>
		<time>2011-09-11T14:09:52.015Z</time>
		<geoidheight>240</geoidheight>
	</trkpt>
	<trkpt lat="50.714399" lon="6.128761">
		<ele>286</ele>
		<time>2011-09-11T14:09:53.022Z</time>
		<geoidheight>240</geoidheight>
	</trkpt>
	<trkpt lat="50.714393" lon="6.128749">
		<ele>286</ele>
		<time>2011-09-11T14:09:54.015Z</time>
		<geoidheight>240</geoidheight>
	</trkpt>
	<trkpt lat="50.714388" lon="6.128733">
		<ele>286</ele>
		<time>2011-09-11T14:09:55.017Z</time>
		<geoidheight>240</geoidheight>
	</trkpt>
	<trkpt lat="50.714380" lon="6.128716">
		<ele>286</ele>
		<time>2011-09-11T14:09:56.017Z</time>
		<geoidheight>240</geoidheight>
	</trkpt>
	<trkpt lat="50.714371" lon="6.128700">
		<ele>286</ele>
		<time>2011-09-11T14:09:57.015Z</time>
		<geoidheight>240</geoidheight>
	</trkpt>
	<trkpt lat="50.714364" lon="6.128682">
		<ele>286</ele>
		<time>2011-09-11T14:09:58.016Z</time>
		<geoidheight>240</geoidheight>
	</trkpt>
	<trkpt lat="50.714357" lon="6.128665">
		<ele>286</ele>
		<time>2011-09-11T14:09:59.016Z</time>
		<geoidheight>240</geoidheight>
	</trkpt>
	<trkpt lat="50.714350" lon="6.128650">
		<ele>286</ele>
		<time>2011-09-11T14:10:00.018Z</time>
		<geoidheight>240</geoidheight>
	</trkpt>
	<trkpt lat="50.714344" lon="6.128633">
		<ele>286</ele>
		<time>2011-09-11T14:10:01.021Z</time>
		<geoidheight>240</geoidheight>
	</trkpt>
	<trkpt lat="50.714338" lon="6.128616">
		<ele>286</ele>
		<time>2011-09-11T14:10:02.017Z</time>
		<geoidheight>240</geoidheight>
	</trkpt>
	<trkpt lat="50.714332" lon="6.128598">
		<ele>286</ele>
		<time>2011-09-11T14:10:03.017Z</time>
		<geoidheight>240</geoidheight>
	</trkpt>
	<trkpt lat="50.714325" lon="6.128580">
		<ele>286</ele>
		<time>2011-09-11T14:10:04.014Z</time>
		<geoidheight>240</geoidheight>
	</trkpt>
	<trkpt lat="50.714317" lon="6.128563">
		<ele>285</ele>
		<time>2011-09-11T14:10:05.015Z</time>
		<geoidheight>239</geoidheight>
	</trkpt>
	<trkpt lat="50.714311" lon="6.128553">
		<ele>285</ele>
		<time>2011-09-11T14:10:06.016Z</time>
		<geoidheight>239</geoidheight>
	</trkpt>
	<trkpt lat="50.714305" lon="6.128543">
		<ele>285</ele>
		<time>2011-09-11T14:10:07.014Z</time>
		<geoidheight>239</geoidheight>
	</trkpt>
	<trkpt lat="50.714299" lon="6.128534">
		<ele>285</ele>
		<time>2011-09-11T14:10:08.014Z</time>
		<geoidheight>239</geoidheight>
	</trkpt>
	<trkpt lat="50.714293" lon="6.128525">
		<ele>285</ele>
		<time>2011-09-11T14:10:09.016Z</time>
		<geoidheight>239</geoidheight>
	</trkpt>
	<trkpt lat="50.714285" lon="6.128512">
		<ele>285</ele>
		<time>2011-09-11T14:10:10.017Z</time>
		<geoidheight>239</geoidheight>
	</trkpt>
	<trkpt lat="50.714278" lon="6.128498">
		<ele>285</ele>
		<time>2011-09-11T14:10:11.015Z</time>
		<geoidheight>239</geoidheight>
	</trkpt>
	<trkpt lat="50.714270" lon="6.128484">
		<ele>285</ele>
		<time>2011-09-11T14:10:12.018Z</time>
		<geoidheight>239</geoidheight>
	</trkpt>
	<trkpt lat="50.714264" lon="6.128470">
		<ele>285</ele>
		<time>2011-09-11T14:10:13.016Z</time>
		<geoidheight>239</geoidheight>
	</trkpt>
	<trkpt lat="50.714257" lon="6.128454">
		<ele>285</ele>
		<time>2011-09-11T14:10:14.016Z</time>
		<geoidheight>239</geoidheight>
	</trkpt>
	<trkpt lat="50.714252" lon="6.128437">
		<ele>285</ele>
		<time>2011-09-11T14:10:15.016Z</time>
		<geoidheight>239</geoidheight>
	</trkpt>
	<trkpt lat="50.714246" lon="6.128423">
		<ele>285</ele>
		<time>2011-09-11T14:10:16.017Z</time>
		<geoidheight>239</geoidheight>
	</trkpt>
	<trkpt lat="50.714241" lon="6.128407">
		<ele>285</ele>
		<time>2011-09-11T14:10:17.016Z</time>
		<geoidheight>239</geoidheight>
	</trkpt>
	<trkpt lat="50.714233" lon="6.128394">
		<ele>285</ele>
		<time>2011-09-11T14:10:18.016Z</time>
		<geoidheight>239</geoidheight>
	</trkpt>
	<trkpt lat="50.714226" lon="6.128375">
		<ele>285</ele>
		<time>2011-09-11T14:10:19.017Z</time>
		<geoidheight>239</geoidheight>
	</trkpt>
	<trkpt lat="50.714216" lon="6.128354">
		<ele>285</ele>
		<time>2011-09-11T14:10:20.016Z</time>
		<geoidheight>239</geoidheight>
	</trkpt>
	<trkpt lat="50.714206" lon="6.128332">
		<ele>285</ele>
		<time>2011-09-11T14:10:21.015Z</time>
		<geoidheight>239</geoidheight>
	</trkpt>
	<trkpt lat="50.714196" lon="6.128312">
		<ele>285</ele>
		<time>2011-09-11T14:10:22.017Z</time>
		<geoidheight>239</geoidheight>
	</trkpt>
	<trkpt lat="50.714186" lon="6.128292">
		<ele>285</ele>
		<time>2011-09-11T14:10:23.015Z</time>
		<geoidheight>239</geoidheight>
	</trkpt>
	<trkpt lat="50.714178" lon="6.128269">
		<ele>285</ele>
		<time>2011-09-11T14:10:24.024Z</time>
		<geoidheight>239</geoidheight>
	</trkpt>
	<trkpt lat="50.714170" lon="6.128251">
		<ele>284</ele>
		<time>2011-09-11T14:10:25.023Z</time>
		<geoidheight>238</geoidheight>
	</trkpt>
	<trkpt lat="50.714162" lon="6.128231">
		<ele>284</ele>
		<time>2011-09-11T14:10:26.020Z</time>
		<geoidheight>238</geoidheight>
	</trkpt>
	<trkpt lat="50.714155" lon="6.128213">
		<ele>284</ele>
		<time>2011-09-11T14:10:27.022Z</time>
		<geoidheight>238</geoidheight>
	</trkpt>
	<trkpt lat="50.714147" lon="6.128195">
		<ele>284</ele>
		<time>2011-09-11T14:10:28.024Z</time>
		<geoidheight>238</geoidheight>
	</trkpt>
	<trkpt lat="50.714141" lon="6.128177">
		<ele>284</ele>
		<time>2011-09-11T14:10:29.018Z</time>
		<geoidheight>238</geoidheight>
	</trkpt>
	<trkpt lat="50.714134" lon="6.128159">
		<ele>284</ele>
		<time>2011-09-11T14:10:30.019Z</time>
		<geoidheight>238</geoidheight>
	</trkpt>
	<trkpt lat="50.714128" lon="6.128141">
		<ele>284</ele>
		<time>2011-09-11T14:10:31.014Z</time>
		<geoidheight>238</geoidheight>
	</trkpt>
	<trkpt lat="50.714122" lon="6.128121">
		<ele>284</ele>
		<time>2011-09-11T14:10:32.017Z</time>
		<geoidheight>238</geoidheight>
	</trkpt>
	<trkpt lat="50.714114" lon="6.128105">
		<ele>284</ele>
		<time>2011-09-11T14:10:33.028Z</time>
		<geoidheight>238</geoidheight>
	</trkpt>
	<trkpt lat="50.714107" lon="6.128087">
		<ele>284</ele>
		<time>2011-09-11T14:10:34.024Z</time>
		<geoidheight>238</geoidheight>
	</trkpt>
	<trkpt lat="50.714099" lon="6.128074">
		<ele>284</ele>
		<time>2011-09-11T14:10:35.047Z</time>
		<geoidheight>238</geoidheight>
	</trkpt>
	<trkpt lat="50.714092" lon="6.128058">
		<ele>284</ele>
		<time>2011-09-11T14:10:36.034Z</time>
		<geoidheight>238</geoidheight>
	</trkpt>
	<trkpt lat="50.714085" lon="6.128042">
		<ele>284</ele>
		<time>2011-09-11T14:10:37.035Z</time>
		<geoidheight>238</geoidheight>
	</trkpt>
	<trkpt lat="50.714078" lon="6.128026">
		<ele>284</ele>
		<time>2011-09-11T14:10:38.023Z</time>
		<geoidheight>238</geoidheight>
	</trkpt>
	<trkpt lat="50.714070" lon="6.128012">
		<ele>284</ele>
		<time>2011-09-11T14:10:39.021Z</time>
		<geoidheight>238</geoidheight>
	</trkpt>
	<trkpt lat="50.714061" lon="6.127998">
		<ele>284</ele>
		<time>2011-09-11T14:10:40.022Z</time>
		<geoidheight>238</geoidheight>
	</trkpt>
	<trkpt lat="50.714050" lon="6.127984">
		<ele>283</ele>
		<time>2011-09-11T14:10:41.022Z</time>
		<geoidheight>237</geoidheight>
	</trkpt>
	<trkpt lat="50.714039" lon="6.127967">
		<ele>283</ele>
		<time>2011-09-11T14:10:42.027Z</time>
		<geoidheight>237</geoidheight>
	</trkpt>
	<trkpt lat="50.714030" lon="6.127951">
		<ele>283</ele>
		<time>2011-09-11T14:10:43.023Z</time>
		<geoidheight>237</geoidheight>
	</trkpt>
	<trkpt lat="50.714024" lon="6.127939">
		<ele>283</ele>
		<time>2011-09-11T14:10:44.018Z</time>
		<geoidheight>237</geoidheight>
	</trkpt>
	<trkpt lat="50.714017" lon="6.127929">
		<ele>283</ele>
		<time>2011-09-11T14:10:45.019Z</time>
		<geoidheight>237</geoidheight>
	</trkpt>
	<trkpt lat="50.714012" lon="6.127918">
		<ele>283</ele>
		<time>2011-09-11T14:10:46.024Z</time>
		<geoidheight>237</geoidheight>
	</trkpt>
	<trkpt lat="50.714005" lon="6.127911">
		<ele>283</ele>
		<time>2011-09-11T14:10:47.023Z</time>
		<geoidheight>237</geoidheight>
	</trkpt>
	<trkpt lat="50.713996" lon="6.127895">
		<ele>283</ele>
		<time>2011-09-11T14:10:48.023Z</time>
		<geoidheight>237</geoidheight>
	</trkpt>
	<trkpt lat="50.713989" lon="6.127880">
		<ele>283</ele>
		<time>2011-09-11T14:10:49.025Z</time>
		<geoidheight>237</geoidheight>
	</trkpt>
	<trkpt lat="50.713981" lon="6.127864">
		<ele>283</ele>
		<time>2011-09-11T14:10:50.015Z</time>
		<geoidheight>237</geoidheight>
	</trkpt>
	<trkpt lat="50.713975" lon="6.127848">
		<ele>283</ele>
		<time>2011-09-11T14:10:51.015Z</time>
		<geoidheight>237</geoidheight>
	</trkpt>
	<trkpt lat="50.713971" lon="6.127831">
		<ele>283</ele>
		<time>2011-09-11T14:10:52.015Z</time>
		<geoidheight>237</geoidheight>
	</trkpt>
	<trkpt lat="50.713968" lon="6.127814">
		<ele>283</ele>
		<time>2011-09-11T14:10:53.016Z</time>
		<geoidheight>237</geoidheight>
	</trkpt>
	<trkpt lat="50.713965" lon="6.127795">
		<ele>283</ele>
		<time>2011-09-11T14:10:54.015Z</time>
		<geoidheight>237</geoidheight>
	</trkpt>
	<trkpt lat="50.713963" lon="6.127777">
		<ele>283</ele>
		<time>2011-09-11T14:10:55.016Z</time>
		<geoidheight>237</geoidheight>
	</trkpt>
	<trkpt lat="50.713958" lon="6.127763">
		<ele>283</ele>
		<time>2011-09-11T14:10:56.015Z</time>
		<geoidheight>237</geoidheight>
	</trkpt>
	<trkpt lat="50.713955" lon="6.127749">
		<ele>283</ele>
		<time>2011-09-11T14:10:57.023Z</time>
		<geoidheight>237</geoidheight>
	</trkpt>
	<trkpt lat="50.713951" lon="6.127736">
		<ele>283</ele>
		<time>2011-09-11T14:10:58.019Z</time>
		<geoidheight>237</geoidheight>
	</trkpt>
	<trkpt lat="50.713946" lon="6.127722">
		<ele>283</ele>
		<time>2011-09-11T14:10:59.028Z</time>
		<geoidheight>237</geoidheight>
	</trkpt>
	<trkpt lat="50.713943" lon="6.127709">
		<ele>283</ele>
		<time>2011-09-11T14:11:00.022Z</time>
		<geoidheight>237</geoidheight>
	</trkpt>
	<trkpt lat="50.713937" lon="6.127698">
		<ele>283</ele>
		<time>2011-09-11T14:11:01.023Z</time>
		<geoidheight>237</geoidheight>
	</trkpt>
	<trkpt lat="50.713932" lon="6.127686">
		<ele>283</ele>
		<time>2011-09-11T14:11:02.022Z</time>
		<geoidheight>237</geoidheight>
	</trkpt>
	<trkpt lat="50.713929" lon="6.127671">
		<ele>283</ele>
		<time>2011-09-11T14:11:03.034Z</time>
		<geoidheight>237</geoidheight>
	</trkpt>
	<trkpt lat="50.713921" lon="6.127654">
		<ele>283</ele>
		<time>2011-09-11T14:11:04.015Z</time>
		<geoidheight>237</geoidheight>
	</trkpt>
	<trkpt lat="50.713914" lon="6.127635">
		<ele>283</ele>
		<time>2011-09-11T14:11:05.021Z</time>
		<geoidheight>237</geoidheight>
	</trkpt>
	<trkpt lat="50.713906" lon="6.127621">
		<ele>283</ele>
		<time>2011-09-11T14:11:06.017Z</time>
		<geoidheight>237</geoidheight>
	</trkpt>
	<trkpt lat="50.713900" lon="6.127605">
		<ele>283</ele>
		<time>2011-09-11T14:11:07.015Z</time>
		<geoidheight>237</geoidheight>
	</trkpt>
	<trkpt lat="50.713893" lon="6.127590">
		<ele>283</ele>
		<time>2011-09-11T14:11:08.017Z</time>
		<geoidheight>237</geoidheight>
	</trkpt>
	<trkpt lat="50.713887" lon="6.127572">
		<ele>283</ele>
		<time>2011-09-11T14:11:09.015Z</time>
		<geoidheight>237</geoidheight>
	</trkpt>
	<trkpt lat="50.713880" lon="6.127556">
		<ele>283</ele>
		<time>2011-09-11T14:11:10.016Z</time>
		<geoidheight>237</geoidheight>
	</trkpt>
	<trkpt lat="50.713872" lon="6.127544">
		<ele>283</ele>
		<time>2011-09-11T14:11:11.018Z</time>
		<geoidheight>237</geoidheight>
	</trkpt>
	<trkpt lat="50.713864" lon="6.127531">
		<ele>283</ele>
		<time>2011-09-11T14:11:12.016Z</time>
		<geoidheight>237</geoidheight>
	</trkpt>
	<trkpt lat="50.713855" lon="6.127517">
		<ele>283</ele>
		<time>2011-09-11T14:11:13.017Z</time>
		<geoidheight>237</geoidheight>
	</trkpt>
	<trkpt lat="50.713847" lon="6.127500">
		<ele>283</ele>
		<time>2011-09-11T14:11:14.019Z</time>
		<geoidheight>237</geoidheight>
	</trkpt>
	<trkpt lat="50.713839" lon="6.127485">
		<ele>283</ele>
		<time>2011-09-11T14:11:15.018Z</time>
		<geoidheight>237</geoidheight>
	</trkpt>
	<trkpt lat="50.713830" lon="6.127468">
		<ele>283</ele>
		<time>2011-09-11T14:11:16.016Z</time>
		<geoidheight>237</geoidheight>
	</trkpt>
	<trkpt lat="50.713821" lon="6.127452">
		<ele>283</ele>
		<time>2011-09-11T14:11:17.017Z</time>
		<geoidheight>237</geoidheight>
	</trkpt>
	<trkpt lat="50.713811" lon="6.127439">
		<ele>283</ele>
		<time>2011-09-11T14:11:18.015Z</time>
		<geoidheight>237</geoidheight>
	</trkpt>
	<trkpt lat="50.713802" lon="6.127425">
		<ele>283</ele>
		<time>2011-09-11T14:11:19.015Z</time>
		<geoidheight>237</geoidheight>
	</trkpt>
	<trkpt lat="50.713794" lon="6.127409">
		<ele>283</ele>
		<time>2011-09-11T14:11:20.015Z</time>
		<geoidheight>237</geoidheight>
	</trkpt>
	<trkpt lat="50.713785" lon="6.127390">
		<ele>283</ele>
		<time>2011-09-11T14:11:21.017Z</time>
		<geoidheight>237</geoidheight>
	</trkpt>
	<trkpt lat="50.713775" lon="6.127368">
		<ele>283</ele>
		<time>2011-09-11T14:11:22.014Z</time>
		<geoidheight>237</geoidheight>
	</trkpt>
	<trkpt lat="50.713765" lon="6.127346">
		<ele>283</ele>
		<time>2011-09-11T14:11:23.016Z</time>
		<geoidheight>237</geoidheight>
	</trkpt>
	<trkpt lat="50.713755" lon="6.127325">
		<ele>283</ele>
		<time>2011-09-11T14:11:24.019Z</time>
		<geoidheight>237</geoidheight>
	</trkpt>
	<trkpt lat="50.713746" lon="6.127304">
		<ele>283</ele>
		<time>2011-09-11T14:11:25.022Z</time>
		<geoidheight>237</geoidheight>
	</trkpt>
	<trkpt lat="50.713736" lon="6.127285">
		<ele>283</ele>
		<time>2011-09-11T14:11:26.025Z</time>
		<geoidheight>237</geoidheight>
	</trkpt>
	<trkpt lat="50.713727" lon="6.127265">
		<ele>283</ele>
		<time>2011-09-11T14:11:27.046Z</time>
		<geoidheight>237</geoidheight>
	</trkpt>
	<trkpt lat="50.713719" lon="6.127245">
		<ele>283</ele>
		<time>2011-09-11T14:11:28.024Z</time>
		<geoidheight>237</geoidheight>
	</trkpt>
	<trkpt lat="50.713710" lon="6.127227">
		<ele>283</ele>
		<time>2011-09-11T14:11:29.035Z</time>
		<geoidheight>237</geoidheight>
	</trkpt>
	<trkpt lat="50.713703" lon="6.127207">
		<ele>283</ele>
		<time>2011-09-11T14:11:30.032Z</time>
		<geoidheight>237</geoidheight>
	</trkpt>
	<trkpt lat="50.713696" lon="6.127186">
		<ele>283</ele>
		<time>2011-09-11T14:11:31.036Z</time>
		<geoidheight>237</geoidheight>
	</trkpt>
	<trkpt lat="50.713688" lon="6.127165">
		<ele>283</ele>
		<time>2011-09-11T14:11:32.034Z</time>
		<geoidheight>237</geoidheight>
	</trkpt>
	<trkpt lat="50.713682" lon="6.127141">
		<ele>283</ele>
		<time>2011-09-11T14:11:33.043Z</time>
		<geoidheight>237</geoidheight>
	</trkpt>
	<trkpt lat="50.713677" lon="6.127119">
		<ele>283</ele>
		<time>2011-09-11T14:11:34.023Z</time>
		<geoidheight>237</geoidheight>
	</trkpt>
	<trkpt lat="50.713671" lon="6.127097">
		<ele>283</ele>
		<time>2011-09-11T14:11:35.029Z</time>
		<geoidheight>237</geoidheight>
	</trkpt>
	<trkpt lat="50.713664" lon="6.127078">
		<ele>283</ele>
		<time>2011-09-11T14:11:36.016Z</time>
		<geoidheight>237</geoidheight>
	</trkpt>
	<trkpt lat="50.713660" lon="6.127061">
		<ele>283</ele>
		<time>2011-09-11T14:11:37.017Z</time>
		<geoidheight>237</geoidheight>
	</trkpt>
	<trkpt lat="50.713653" lon="6.127047">
		<ele>283</ele>
		<time>2011-09-11T14:11:38.015Z</time>
		<geoidheight>237</geoidheight>
	</trkpt>
	<trkpt lat="50.713647" lon="6.127035">
		<ele>283</ele>
		<time>2011-09-11T14:11:39.015Z</time>
		<geoidheight>237</geoidheight>
	</trkpt>
	<trkpt lat="50.713641" lon="6.127022">
		<ele>283</ele>
		<time>2011-09-11T14:11:40.018Z</time>
		<geoidheight>237</geoidheight>
	</trkpt>
	<trkpt lat="50.713635" lon="6.127007">
		<ele>283</ele>
		<time>2011-09-11T14:11:41.014Z</time>
		<geoidheight>237</geoidheight>
	</trkpt>
	<trkpt lat="50.713630" lon="6.126987">
		<ele>283</ele>
		<time>2011-09-11T14:11:42.016Z</time>
		<geoidheight>237</geoidheight>
	</trkpt>
	<trkpt lat="50.713626" lon="6.126969">
		<ele>283</ele>
		<time>2011-09-11T14:11:43.019Z</time>
		<geoidheight>237</geoidheight>
	</trkpt>
	<trkpt lat="50.713621" lon="6.126954">
		<ele>283</ele>
		<time>2011-09-11T14:11:44.016Z</time>
		<geoidheight>237</geoidheight>
	</trkpt>
	<trkpt lat="50.713617" lon="6.126939">
		<ele>283</ele>
		<time>2011-09-11T14:11:45.017Z</time>
		<geoidheight>237</geoidheight>
	</trkpt>
	<trkpt lat="50.713612" lon="6.126926">
		<ele>283</ele>
		<time>2011-09-11T14:11:46.028Z</time>
		<geoidheight>237</geoidheight>
	</trkpt>
	<trkpt lat="50.713608" lon="6.126911">
		<ele>283</ele>
		<time>2011-09-11T14:11:47.018Z</time>
		<geoidheight>237</geoidheight>
	</trkpt>
	<trkpt lat="50.713604" lon="6.126893">
		<ele>283</ele>
		<time>2011-09-11T14:11:48.021Z</time>
		<geoidheight>237</geoidheight>
	</trkpt>
	<trkpt lat="50.713600" lon="6.126871">
		<ele>283</ele>
		<time>2011-09-11T14:11:49.019Z</time>
		<geoidheight>237</geoidheight>
	</trkpt>
	<trkpt lat="50.713598" lon="6.126849">
		<ele>283</ele>
		<time>2011-09-11T14:11:50.020Z</time>
		<geoidheight>237</geoidheight>
	</trkpt>
	<trkpt lat="50.713594" lon="6.126827">
		<ele>283</ele>
		<time>2011-09-11T14:11:51.022Z</time>
		<geoidheight>237</geoidheight>
	</trkpt>
	<trkpt lat="50.713587" lon="6.126811">
		<ele>283</ele>
		<time>2011-09-11T14:11:52.022Z</time>
		<geoidheight>237</geoidheight>
	</trkpt>
	<trkpt lat="50.713583" lon="6.126795">
		<ele>283</ele>
		<time>2011-09-11T14:11:53.027Z</time>
		<geoidheight>237</geoidheight>
	</trkpt>
	<trkpt lat="50.713579" lon="6.126787">
		<ele>283</ele>
		<time>2011-09-11T14:11:54.021Z</time>
		<geoidheight>237</geoidheight>
	</trkpt>
	<trkpt lat="50.713574" lon="6.126774">
		<ele>283</ele>
		<time>2011-09-11T14:11:55.016Z</time>
		<geoidheight>237</geoidheight>
	</trkpt>
	<trkpt lat="50.713569" lon="6.126759">
		<ele>283</ele>
		<time>2011-09-11T14:11:56.019Z</time>
		<geoidheight>237</geoidheight>
	</trkpt>
	<trkpt lat="50.713562" lon="6.126742">
		<ele>283</ele>
		<time>2011-09-11T14:11:57.014Z</time>
		<geoidheight>237</geoidheight>
	</trkpt>
	<trkpt lat="50.713555" lon="6.126724">
		<ele>283</ele>
		<time>2011-09-11T14:11:58.017Z</time>
		<geoidheight>237</geoidheight>
	</trkpt>
	<trkpt lat="50.713548" lon="6.126705">
		<ele>283</ele>
		<time>2011-09-11T14:11:59.017Z</time>
		<geoidheight>237</geoidheight>
	</trkpt>
	<trkpt lat="50.713540" lon="6.126687">
		<ele>283</ele>
		<time>2011-09-11T14:12:00.022Z</time>
		<geoidheight>237</geoidheight>
	</trkpt>
	<trkpt lat="50.713532" lon="6.126668">
		<ele>283</ele>
		<time>2011-09-11T14:12:01.020Z</time>
		<geoidheight>237</geoidheight>
	</trkpt>
	<trkpt lat="50.713525" lon="6.126650">
		<ele>283</ele>
		<time>2011-09-11T14:12:02.016Z</time>
		<geoidheight>237</geoidheight>
	</trkpt>
	<trkpt lat="50.713518" lon="6.126632">
		<ele>283</ele>
		<time>2011-09-11T14:12:03.016Z</time>
		<geoidheight>237</geoidheight>
	</trkpt>
	<trkpt lat="50.713511" lon="6.126615">
		<ele>283</ele>
		<time>2011-09-11T14:12:04.019Z</time>
		<geoidheight>237</geoidheight>
	</trkpt>
	<trkpt lat="50.713504" lon="6.126598">
		<ele>283</ele>
		<time>2011-09-11T14:12:05.016Z</time>
		<geoidheight>237</geoidheight>
	</trkpt>
	<trkpt lat="50.713497" lon="6.126579">
		<ele>284</ele>
		<time>2011-09-11T14:12:06.022Z</time>
		<geoidheight>238</geoidheight>
	</trkpt>
	<trkpt lat="50.713491" lon="6.126560">
		<ele>284</ele>
		<time>2011-09-11T14:12:07.016Z</time>
		<geoidheight>238</geoidheight>
	</trkpt>
	<trkpt lat="50.713486" lon="6.126537">
		<ele>284</ele>
		<time>2011-09-11T14:12:08.017Z</time>
		<geoidheight>238</geoidheight>
	</trkpt>
	<trkpt lat="50.713482" lon="6.126513">
		<ele>284</ele>
		<time>2011-09-11T14:12:09.016Z</time>
		<geoidheight>238</geoidheight>
	</trkpt>
	<trkpt lat="50.713478" lon="6.126490">
		<ele>284</ele>
		<time>2011-09-11T14:12:10.022Z</time>
		<geoidheight>238</geoidheight>
	</trkpt>
	<trkpt lat="50.713478" lon="6.126490">
		<ele>284</ele>
		<time>2011-09-11T14:12:11.019Z</time>
		<geoidheight>238</geoidheight>
	</trkpt>
	<trkpt lat="50.713478" lon="6.126490">
		<ele>284</ele>
		<time>2011-09-11T14:12:14.022Z</time>
		<geoidheight>238</geoidheight>
	</trkpt>
	<trkpt lat="50.713465" lon="6.126406">
		<ele>284</ele>
		<time>2011-09-11T14:12:15.015Z</time>
		<geoidheight>238</geoidheight>
	</trkpt>
	<trkpt lat="50.713461" lon="6.126386">
		<ele>284</ele>
		<time>2011-09-11T14:12:16.024Z</time>
		<geoidheight>238</geoidheight>
	</trkpt>
	<trkpt lat="50.713457" lon="6.126362">
		<ele>284</ele>
		<time>2011-09-11T14:12:17.018Z</time>
		<geoidheight>238</geoidheight>
	</trkpt>
	<trkpt lat="50.713450" lon="6.126339">
		<ele>284</ele>
		<time>2011-09-11T14:12:18.016Z</time>
		<geoidheight>238</geoidheight>
	</trkpt>
	<trkpt lat="50.713442" lon="6.126314">
		<ele>284</ele>
		<time>2011-09-11T14:12:19.015Z</time>
		<geoidheight>238</geoidheight>
	</trkpt>
	<trkpt lat="50.713435" lon="6.126290">
		<ele>284</ele>
		<time>2011-09-11T14:12:20.017Z</time>
		<geoidheight>238</geoidheight>
	</trkpt>
	<trkpt lat="50.713428" lon="6.126266">
		<ele>284</ele>
		<time>2011-09-11T14:12:21.017Z</time>
		<geoidheight>238</geoidheight>
	</trkpt>
	<trkpt lat="50.713422" lon="6.126242">
		<ele>284</ele>
		<time>2011-09-11T14:12:22.022Z</time>
		<geoidheight>238</geoidheight>
	</trkpt>
	<trkpt lat="50.713417" lon="6.126219">
		<ele>284</ele>
		<time>2011-09-11T14:12:23.017Z</time>
		<geoidheight>238</geoidheight>
	</trkpt>
	<trkpt lat="50.713413" lon="6.126197">
		<ele>284</ele>
		<time>2011-09-11T14:12:24.023Z</time>
		<geoidheight>238</geoidheight>
	</trkpt>
	<trkpt lat="50.713411" lon="6.126175">
		<ele>284</ele>
		<time>2011-09-11T14:12:25.018Z</time>
		<geoidheight>238</geoidheight>
	</trkpt>
	<trkpt lat="50.713408" lon="6.126154">
		<ele>284</ele>
		<time>2011-09-11T14:12:26.031Z</time>
		<geoidheight>238</geoidheight>
	</trkpt>
	<trkpt lat="50.713405" lon="6.126133">
		<ele>284</ele>
		<time>2011-09-11T14:12:27.028Z</time>
		<geoidheight>238</geoidheight>
	</trkpt>
	<trkpt lat="50.713401" lon="6.126112">
		<ele>284</ele>
		<time>2011-09-11T14:12:28.017Z</time>
		<geoidheight>238</geoidheight>
	</trkpt>
	<trkpt lat="50.713398" lon="6.126091">
		<ele>284</ele>
		<time>2011-09-11T14:12:29.017Z</time>
		<geoidheight>238</geoidheight>
	</trkpt>
	<trkpt lat="50.713392" lon="6.126071">
		<ele>284</ele>
		<time>2011-09-11T14:12:30.038Z</time>
		<geoidheight>238</geoidheight>
	</trkpt>
	<trkpt lat="50.713388" lon="6.126048">
		<ele>284</ele>
		<time>2011-09-11T14:12:31.016Z</time>
		<geoidheight>238</geoidheight>
	</trkpt>
	<trkpt lat="50.713384" lon="6.126022">
		<ele>284</ele>
		<time>2011-09-11T14:12:32.017Z</time>
		<geoidheight>238</geoidheight>
	</trkpt>
	<trkpt lat="50.713380" lon="6.125994">
		<ele>284</ele>
		<time>2011-09-11T14:12:33.018Z</time>
		<geoidheight>238</geoidheight>
	</trkpt>
	<trkpt lat="50.713375" lon="6.125968">
		<ele>284</ele>
		<time>2011-09-11T14:12:34.016Z</time>
		<geoidheight>238</geoidheight>
	</trkpt>
	<trkpt lat="50.713375" lon="6.125968">
		<ele>284</ele>
		<time>2011-09-11T14:12:35.017Z</time>
		<geoidheight>238</geoidheight>
	</trkpt>
	<trkpt lat="50.713375" lon="6.125968">
		<ele>284</ele>
		<time>2011-09-11T14:12:37.017Z</time>
		<geoidheight>238</geoidheight>
	</trkpt>
	<trkpt lat="50.713357" lon="6.125888">
		<ele>284</ele>
		<time>2011-09-11T14:12:38.019Z</time>
		<geoidheight>238</geoidheight>
	</trkpt>
	<trkpt lat="50.713351" lon="6.125871">
		<ele>284</ele>
		<time>2011-09-11T14:12:39.017Z</time>
		<geoidheight>238</geoidheight>
	</trkpt>
	<trkpt lat="50.713345" lon="6.125851">
		<ele>284</ele>
		<time>2011-09-11T14:12:40.024Z</time>
		<geoidheight>238</geoidheight>
	</trkpt>
	<trkpt lat="50.713338" lon="6.125831">
		<ele>284</ele>
		<time>2011-09-11T14:12:41.022Z</time>
		<geoidheight>238</geoidheight>
	</trkpt>
	<trkpt lat="50.713331" lon="6.125809">
		<ele>284</ele>
		<time>2011-09-11T14:12:42.022Z</time>
		<geoidheight>238</geoidheight>
	</trkpt>
	<trkpt lat="50.713325" lon="6.125787">
		<ele>284</ele>
		<time>2011-09-11T14:12:43.031Z</time>
		<geoidheight>238</geoidheight>
	</trkpt>
	<trkpt lat="50.713319" lon="6.125765">
		<ele>284</ele>
		<time>2011-09-11T14:12:44.022Z</time>
		<geoidheight>238</geoidheight>
	</trkpt>
	<trkpt lat="50.713312" lon="6.125744">
		<ele>284</ele>
		<time>2011-09-11T14:12:45.033Z</time>
		<geoidheight>238</geoidheight>
	</trkpt>
	<trkpt lat="50.713307" lon="6.125723">
		<ele>284</ele>
		<time>2011-09-11T14:12:46.027Z</time>
		<geoidheight>238</geoidheight>
	</trkpt>
	<trkpt lat="50.713301" lon="6.125700">
		<ele>284</ele>
		<time>2011-09-11T14:12:47.037Z</time>
		<geoidheight>238</geoidheight>
	</trkpt>
	<trkpt lat="50.713296" lon="6.125676">
		<ele>284</ele>
		<time>2011-09-11T14:12:48.031Z</time>
		<geoidheight>238</geoidheight>
	</trkpt>
	<trkpt lat="50.713291" lon="6.125652">
		<ele>284</ele>
		<time>2011-09-11T14:12:49.025Z</time>
		<geoidheight>238</geoidheight>
	</trkpt>
	<trkpt lat="50.713287" lon="6.125626">
		<ele>284</ele>
		<time>2011-09-11T14:12:50.024Z</time>
		<geoidheight>238</geoidheight>
	</trkpt>
	<trkpt lat="50.713282" lon="6.125603">
		<ele>284</ele>
		<time>2011-09-11T14:12:51.020Z</time>
		<geoidheight>238</geoidheight>
	</trkpt>
	<trkpt lat="50.713278" lon="6.125582">
		<ele>284</ele>
		<time>2011-09-11T14:12:52.042Z</time>
		<geoidheight>238</geoidheight>
	</trkpt>
	<trkpt lat="50.713275" lon="6.125564">
		<ele>284</ele>
		<time>2011-09-11T14:12:53.021Z</time>
		<geoidheight>238</geoidheight>
	</trkpt>
	<trkpt lat="50.713271" lon="6.125547">
		<ele>284</ele>
		<time>2011-09-11T14:12:54.016Z</time>
		<geoidheight>238</geoidheight>
	</trkpt>
	<trkpt lat="50.713268" lon="6.125529">
		<ele>284</ele>
		<time>2011-09-11T14:12:55.016Z</time>
		<geoidheight>238</geoidheight>
	</trkpt>
	<trkpt lat="50.713264" lon="6.125513">
		<ele>284</ele>
		<time>2011-09-11T14:12:56.017Z</time>
		<geoidheight>238</geoidheight>
	</trkpt>
	<trkpt lat="50.713259" lon="6.125494">
		<ele>284</ele>
		<time>2011-09-11T14:12:57.017Z</time>
		<geoidheight>238</geoidheight>
	</trkpt>
	<trkpt lat="50.713254" lon="6.125473">
		<ele>284</ele>
		<time>2011-09-11T14:12:58.018Z</time>
		<geoidheight>238</geoidheight>
	</trkpt>
	<trkpt lat="50.713249" lon="6.125453">
		<ele>284</ele>
		<time>2011-09-11T14:12:59.018Z</time>
		<geoidheight>238</geoidheight>
	</trkpt>
	<trkpt lat="50.713244" lon="6.125433">
		<ele>284</ele>
		<time>2011-09-11T14:13:00.018Z</time>
		<geoidheight>238</geoidheight>
	</trkpt>
	<trkpt lat="50.713239" lon="6.125413">
		<ele>284</ele>
		<time>2011-09-11T14:13:01.018Z</time>
		<geoidheight>238</geoidheight>
	</trkpt>
	<trkpt lat="50.713236" lon="6.125394">
		<ele>285</ele>
		<time>2011-09-11T14:13:02.020Z</time>
		<geoidheight>239</geoidheight>
	</trkpt>
	<trkpt lat="50.713232" lon="6.125374">
		<ele>285</ele>
		<time>2011-09-11T14:13:03.016Z</time>
		<geoidheight>239</geoidheight>
	</trkpt>
	<trkpt lat="50.713229" lon="6.125353">
		<ele>285</ele>
		<time>2011-09-11T14:13:04.017Z</time>
		<geoidheight>239</geoidheight>
	</trkpt>
	<trkpt lat="50.713226" lon="6.125331">
		<ele>285</ele>
		<time>2011-09-11T14:13:05.016Z</time>
		<geoidheight>239</geoidheight>
	</trkpt>
	<trkpt lat="50.713223" lon="6.125308">
		<ele>285</ele>
		<time>2011-09-11T14:13:06.017Z</time>
		<geoidheight>239</geoidheight>
	</trkpt>
	<trkpt lat="50.713219" lon="6.125285">
		<ele>285</ele>
		<time>2011-09-11T14:13:07.015Z</time>
		<geoidheight>239</geoidheight>
	</trkpt>
	<trkpt lat="50.713215" lon="6.125262">
		<ele>285</ele>
		<time>2011-09-11T14:13:08.023Z</time>
		<geoidheight>239</geoidheight>
	</trkpt>
	<trkpt lat="50.713211" lon="6.125240">
		<ele>285</ele>
		<time>2011-09-11T14:13:09.023Z</time>
		<geoidheight>239</geoidheight>
	</trkpt>
	<trkpt lat="50.713207" lon="6.125219">
		<ele>285</ele>
		<time>2011-09-11T14:13:10.017Z</time>
		<geoidheight>239</geoidheight>
	</trkpt>
	<trkpt lat="50.713203" lon="6.125198">
		<ele>285</ele>
		<time>2011-09-11T14:13:11.017Z</time>
		<geoidheight>239</geoidheight>
	</trkpt>
	<trkpt lat="50.713200" lon="6.125179">
		<ele>285</ele>
		<time>2011-09-11T14:13:12.018Z</time>
		<geoidheight>239</geoidheight>
	</trkpt>
	<trkpt lat="50.713196" lon="6.125160">
		<ele>285</ele>
		<time>2011-09-11T14:13:13.020Z</time>
		<geoidheight>239</geoidheight>
	</trkpt>
	<trkpt lat="50.713191" lon="6.125142">
		<ele>285</ele>
		<time>2011-09-11T14:13:14.016Z</time>
		<geoidheight>239</geoidheight>
	</trkpt>
	<trkpt lat="50.713186" lon="6.125125">
		<ele>285</ele>
		<time>2011-09-11T14:13:15.024Z</time>
		<geoidheight>239</geoidheight>
	</trkpt>
	<trkpt lat="50.713183" lon="6.125106">
		<ele>285</ele>
		<time>2011-09-11T14:13:16.016Z</time>
		<geoidheight>239</geoidheight>
	</trkpt>
	<trkpt lat="50.713180" lon="6.125086">
		<ele>285</ele>
		<time>2011-09-11T14:13:17.017Z</time>
		<geoidheight>239</geoidheight>
	</trkpt>
	<trkpt lat="50.713175" lon="6.125066">
		<ele>285</ele>
		<time>2011-09-11T14:13:18.021Z</time>
		<geoidheight>239</geoidheight>
	</trkpt>
	<trkpt lat="50.713170" lon="6.125045">
		<ele>285</ele>
		<time>2011-09-11T14:13:19.017Z</time>
		<geoidheight>239</geoidheight>
	</trkpt>
	<trkpt lat="50.713166" lon="6.125024">
		<ele>285</ele>
		<time>2011-09-11T14:13:20.016Z</time>
		<geoidheight>239</geoidheight>
	</trkpt>
	<trkpt lat="50.713161" lon="6.125004">
		<ele>285</ele>
		<time>2011-09-11T14:13:21.016Z</time>
		<geoidheight>239</geoidheight>
	</trkpt>
	<trkpt lat="50.713157" lon="6.124983">
		<ele>285</ele>
		<time>2011-09-11T14:13:22.018Z</time>
		<geoidheight>239</geoidheight>
	</trkpt>
	<trkpt lat="50.713150" lon="6.124963">
		<ele>285</ele>
		<time>2011-09-11T14:13:23.016Z</time>
		<geoidheight>239</geoidheight>
	</trkpt>
	<trkpt lat="50.713143" lon="6.124940">
		<ele>285</ele>
		<time>2011-09-11T14:13:24.016Z</time>
		<geoidheight>239</geoidheight>
	</trkpt>
	<trkpt lat="50.713135" lon="6.124916">
		<ele>285</ele>
		<time>2011-09-11T14:13:25.021Z</time>
		<geoidheight>239</geoidheight>
	</trkpt>
	<trkpt lat="50.713127" lon="6.124893">
		<ele>285</ele>
		<time>2011-09-11T14:13:26.040Z</time>
		<geoidheight>239</geoidheight>
	</trkpt>
	<trkpt lat="50.713120" lon="6.124869">
		<ele>285</ele>
		<time>2011-09-11T14:13:27.027Z</time>
		<geoidheight>239</geoidheight>
	</trkpt>
	<trkpt lat="50.713115" lon="6.124845">
		<ele>285</ele>
		<time>2011-09-11T14:13:28.024Z</time>
		<geoidheight>239</geoidheight>
	</trkpt>
	<trkpt lat="50.713108" lon="6.124823">
		<ele>285</ele>
		<time>2011-09-11T14:13:29.019Z</time>
		<geoidheight>239</geoidheight>
	</trkpt>
	<trkpt lat="50.713101" lon="6.124801">
		<ele>285</ele>
		<time>2011-09-11T14:13:30.018Z</time>
		<geoidheight>239</geoidheight>
	</trkpt>
	<trkpt lat="50.713094" lon="6.124780">
		<ele>285</ele>
		<time>2011-09-11T14:13:31.025Z</time>
		<geoidheight>239</geoidheight>
	</trkpt>
	<trkpt lat="50.713087" lon="6.124759">
		<ele>285</ele>
		<time>2011-09-11T14:13:32.019Z</time>
		<geoidheight>239</geoidheight>
	</trkpt>
	<trkpt lat="50.713081" lon="6.124739">
		<ele>285</ele>
		<time>2011-09-11T14:13:33.023Z</time>
		<geoidheight>239</geoidheight>
	</trkpt>
	<trkpt lat="50.713076" lon="6.124719">
		<ele>285</ele>
		<time>2011-09-11T14:13:34.034Z</time>
		<geoidheight>239</geoidheight>
	</trkpt>
	<trkpt lat="50.713072" lon="6.124700">
		<ele>285</ele>
		<time>2011-09-11T14:13:35.022Z</time>
		<geoidheight>239</geoidheight>
	</trkpt>
	<trkpt lat="50.713069" lon="6.124680">
		<ele>285</ele>
		<time>2011-09-11T14:13:36.035Z</time>
		<geoidheight>239</geoidheight>
	</trkpt>
	<trkpt lat="50.713067" lon="6.124659">
		<ele>285</ele>
		<time>2011-09-11T14:13:37.024Z</time>
		<geoidheight>239</geoidheight>
	</trkpt>
	<trkpt lat="50.713065" lon="6.124639">
		<ele>285</ele>
		<time>2011-09-11T14:13:38.022Z</time>
		<geoidheight>239</geoidheight>
	</trkpt>
	<trkpt lat="50.713064" lon="6.124619">
		<ele>285</ele>
		<time>2011-09-11T14:13:39.024Z</time>
		<geoidheight>239</geoidheight>
	</trkpt>
	<trkpt lat="50.713063" lon="6.124599">
		<ele>285</ele>
		<time>2011-09-11T14:13:40.020Z</time>
		<geoidheight>239</geoidheight>
	</trkpt>
	<trkpt lat="50.713063" lon="6.124580">
		<ele>286</ele>
		<time>2011-09-11T14:13:41.023Z</time>
		<geoidheight>240</geoidheight>
	</trkpt>
	<trkpt lat="50.713062" lon="6.124563">
		<ele>286</ele>
		<time>2011-09-11T14:13:42.028Z</time>
		<geoidheight>240</geoidheight>
	</trkpt>
	<trkpt lat="50.713059" lon="6.124547">
		<ele>286</ele>
		<time>2011-09-11T14:13:43.028Z</time>
		<geoidheight>240</geoidheight>
	</trkpt>
	<trkpt lat="50.713056" lon="6.124529">
		<ele>286</ele>
		<time>2011-09-11T14:13:44.019Z</time>
		<geoidheight>240</geoidheight>
	</trkpt>
	<trkpt lat="50.713053" lon="6.124510">
		<ele>286</ele>
		<time>2011-09-11T14:13:45.018Z</time>
		<geoidheight>240</geoidheight>
	</trkpt>
	<trkpt lat="50.713049" lon="6.124493">
		<ele>286</ele>
		<time>2011-09-11T14:13:46.017Z</time>
		<geoidheight>240</geoidheight>
	</trkpt>
	<trkpt lat="50.713045" lon="6.124473">
		<ele>286</ele>
		<time>2011-09-11T14:13:47.017Z</time>
		<geoidheight>240</geoidheight>
	</trkpt>
	<trkpt lat="50.713042" lon="6.124454">
		<ele>286</ele>
		<time>2011-09-11T14:13:48.018Z</time>
		<geoidheight>240</geoidheight>
	</trkpt>
	<trkpt lat="50.713038" lon="6.124436">
		<ele>286</ele>
		<time>2011-09-11T14:13:49.017Z</time>
		<geoidheight>240</geoidheight>
	</trkpt>
	<trkpt lat="50.713034" lon="6.124418">
		<ele>286</ele>
		<time>2011-09-11T14:13:50.031Z</time>
		<geoidheight>240</geoidheight>
	</trkpt>
	<trkpt lat="50.713031" lon="6.124396">
		<ele>286</ele>
		<time>2011-09-11T14:13:51.018Z</time>
		<geoidheight>240</geoidheight>
	</trkpt>
	<trkpt lat="50.713027" lon="6.124371">
		<ele>286</ele>
		<time>2011-09-11T14:13:52.017Z</time>
		<geoidheight>240</geoidheight>
	</trkpt>
	<trkpt lat="50.713023" lon="6.124345">
		<ele>286</ele>
		<time>2011-09-11T14:13:53.018Z</time>
		<geoidheight>240</geoidheight>
	</trkpt>
	<trkpt lat="50.713019" lon="6.124317">
		<ele>286</ele>
		<time>2011-09-11T14:13:54.018Z</time>
		<geoidheight>240</geoidheight>
	</trkpt>
	<trkpt lat="50.713016" lon="6.124294">
		<ele>286</ele>
		<time>2011-09-11T14:13:55.024Z</time>
		<geoidheight>240</geoidheight>
	</trkpt>
	<trkpt lat="50.713011" lon="6.124275">
		<ele>286</ele>
		<time>2011-09-11T14:13:56.036Z</time>
		<geoidheight>240</geoidheight>
	</trkpt>
	<trkpt lat="50.713006" lon="6.124257">
		<ele>286</ele>
		<time>2011-09-11T14:13:57.024Z</time>
		<geoidheight>240</geoidheight>
	</trkpt>
	<trkpt lat="50.713001" lon="6.124240">
		<ele>286</ele>
		<time>2011-09-11T14:13:58.023Z</time>
		<geoidheight>240</geoidheight>
	</trkpt>
	<trkpt lat="50.712997" lon="6.124224">
		<ele>286</ele>
		<time>2011-09-11T14:13:59.022Z</time>
		<geoidheight>240</geoidheight>
	</trkpt>
	<trkpt lat="50.712995" lon="6.124207">
		<ele>286</ele>
		<time>2011-09-11T14:14:00.017Z</time>
		<geoidheight>240</geoidheight>
	</trkpt>
	<trkpt lat="50.712994" lon="6.124190">
		<ele>286</ele>
		<time>2011-09-11T14:14:01.017Z</time>
		<geoidheight>240</geoidheight>
	</trkpt>
	<trkpt lat="50.712993" lon="6.124171">
		<ele>286</ele>
		<time>2011-09-11T14:14:02.018Z</time>
		<geoidheight>240</geoidheight>
	</trkpt>
	<trkpt lat="50.712991" lon="6.124149">
		<ele>286</ele>
		<time>2011-09-11T14:14:03.016Z</time>
		<geoidheight>240</geoidheight>
	</trkpt>
	<trkpt lat="50.712989" lon="6.124126">
		<ele>286</ele>
		<time>2011-09-11T14:14:04.017Z</time>
		<geoidheight>240</geoidheight>
	</trkpt>
	<trkpt lat="50.712987" lon="6.124100">
		<ele>286</ele>
		<time>2011-09-11T14:14:05.017Z</time>
		<geoidheight>240</geoidheight>
	</trkpt>
	<trkpt lat="50.712982" lon="6.124074">
		<ele>286</ele>
		<time>2011-09-11T14:14:06.023Z</time>
		<geoidheight>240</geoidheight>
	</trkpt>
	<trkpt lat="50.712975" lon="6.124048">
		<ele>286</ele>
		<time>2011-09-11T14:14:07.018Z</time>
		<geoidheight>240</geoidheight>
	</trkpt>
	<trkpt lat="50.712969" lon="6.124023">
		<ele>286</ele>
		<time>2011-09-11T14:14:08.018Z</time>
		<geoidheight>240</geoidheight>
	</trkpt>
	<trkpt lat="50.712961" lon="6.124000">
		<ele>286</ele>
		<time>2011-09-11T14:14:09.016Z</time>
		<geoidheight>240</geoidheight>
	</trkpt>
	<trkpt lat="50.712954" lon="6.123979">
		<ele>286</ele>
		<time>2011-09-11T14:14:10.019Z</time>
		<geoidheight>240</geoidheight>
	</trkpt>
	<trkpt lat="50.712946" lon="6.123958">
		<ele>286</ele>
		<time>2011-09-11T14:14:11.032Z</time>
		<geoidheight>240</geoidheight>
	</trkpt>
	<trkpt lat="50.712938" lon="6.123939">
		<ele>286</ele>
		<time>2011-09-11T14:14:12.033Z</time>
		<geoidheight>240</geoidheight>
	</trkpt>
	<trkpt lat="50.712930" lon="6.123920">
		<ele>286</ele>
		<time>2011-09-11T14:14:13.025Z</time>
		<geoidheight>240</geoidheight>
	</trkpt>
	<trkpt lat="50.712923" lon="6.123901">
		<ele>286</ele>
		<time>2011-09-11T14:14:14.017Z</time>
		<geoidheight>240</geoidheight>
	</trkpt>
	<trkpt lat="50.712917" lon="6.123883">
		<ele>286</ele>
		<time>2011-09-11T14:14:15.017Z</time>
		<geoidheight>240</geoidheight>
	</trkpt>
	<trkpt lat="50.712910" lon="6.123865">
		<ele>286</ele>
		<time>2011-09-11T14:14:16.017Z</time>
		<geoidheight>240</geoidheight>
	</trkpt>
	<trkpt lat="50.712904" lon="6.123849">
		<ele>286</ele>
		<time>2011-09-11T14:14:17.017Z</time>
		<geoidheight>240</geoidheight>
	</trkpt>
	<trkpt lat="50.712898" lon="6.123832">
		<ele>286</ele>
		<time>2011-09-11T14:14:18.017Z</time>
		<geoidheight>240</geoidheight>
	</trkpt>
	<trkpt lat="50.712893" lon="6.123815">
		<ele>286</ele>
		<time>2011-09-11T14:14:19.016Z</time>
		<geoidheight>240</geoidheight>
	</trkpt>
	<trkpt lat="50.712887" lon="6.123798">
		<ele>286</ele>
		<time>2011-09-11T14:14:20.019Z</time>
		<geoidheight>240</geoidheight>
	</trkpt>
	<trkpt lat="50.712881" lon="6.123780">
		<ele>286</ele>
		<time>2011-09-11T14:14:21.018Z</time>
		<geoidheight>240</geoidheight>
	</trkpt>
	<trkpt lat="50.712875" lon="6.123761">
		<ele>286</ele>
		<time>2011-09-11T14:14:22.017Z</time>
		<geoidheight>240</geoidheight>
	</trkpt>
	<trkpt lat="50.712868" lon="6.123741">
		<ele>286</ele>
		<time>2011-09-11T14:14:23.019Z</time>
		<geoidheight>240</geoidheight>
	</trkpt>
	<trkpt lat="50.712861" lon="6.123720">
		<ele>286</ele>
		<time>2011-09-11T14:14:24.024Z</time>
		<geoidheight>240</geoidheight>
	</trkpt>
	<trkpt lat="50.712854" lon="6.123700">
		<ele>286</ele>
		<time>2011-09-11T14:14:25.025Z</time>
		<geoidheight>240</geoidheight>
	</trkpt>
	<trkpt lat="50.712846" lon="6.123684">
		<ele>286</ele>
		<time>2011-09-11T14:14:26.026Z</time>
		<geoidheight>240</geoidheight>
	</trkpt>
	<trkpt lat="50.712837" lon="6.123669">
		<ele>286</ele>
		<time>2011-09-11T14:14:27.025Z</time>
		<geoidheight>240</geoidheight>
	</trkpt>
	<trkpt lat="50.712825" lon="6.123655">
		<ele>286</ele>
		<time>2011-09-11T14:14:28.019Z</time>
		<geoidheight>240</geoidheight>
	</trkpt>
	<trkpt lat="50.712813" lon="6.123641">
		<ele>286</ele>
		<time>2011-09-11T14:14:29.024Z</time>
		<geoidheight>240</geoidheight>
	</trkpt>
	<trkpt lat="50.712799" lon="6.123628">
		<ele>286</ele>
		<time>2011-09-11T14:14:30.037Z</time>
		<geoidheight>240</geoidheight>
	</trkpt>
	<trkpt lat="50.712786" lon="6.123620">
		<ele>286</ele>
		<time>2011-09-11T14:14:31.037Z</time>
		<geoidheight>240</geoidheight>
	</trkpt>
	<trkpt lat="50.712773" lon="6.123617">
		<ele>286</ele>
		<time>2011-09-11T14:14:32.036Z</time>
		<geoidheight>240</geoidheight>
	</trkpt>
	<trkpt lat="50.712760" lon="6.123618">
		<ele>286</ele>
		<time>2011-09-11T14:14:33.040Z</time>
		<geoidheight>240</geoidheight>
	</trkpt>
	<trkpt lat="50.712748" lon="6.123621">
		<ele>286</ele>
		<time>2011-09-11T14:14:34.048Z</time>
		<geoidheight>240</geoidheight>
	</trkpt>
	<trkpt lat="50.712736" lon="6.123626">
		<ele>286</ele>
		<time>2011-09-11T14:14:35.047Z</time>
		<geoidheight>240</geoidheight>
	</trkpt>
	<trkpt lat="50.712725" lon="6.123633">
		<ele>286</ele>
		<time>2011-09-11T14:14:36.042Z</time>
		<geoidheight>240</geoidheight>
	</trkpt>
	<trkpt lat="50.712714" lon="6.123643">
		<ele>286</ele>
		<time>2011-09-11T14:14:37.034Z</time>
		<geoidheight>240</geoidheight>
	</trkpt>
	<trkpt lat="50.712703" lon="6.123653">
		<ele>286</ele>
		<time>2011-09-11T14:14:38.016Z</time>
		<geoidheight>240</geoidheight>
	</trkpt>
	<trkpt lat="50.712692" lon="6.123663">
		<ele>286</ele>
		<time>2011-09-11T14:14:39.021Z</time>
		<geoidheight>240</geoidheight>
	</trkpt>
	<trkpt lat="50.712682" lon="6.123675">
		<ele>286</ele>
		<time>2011-09-11T14:14:40.021Z</time>
		<geoidheight>240</geoidheight>
	</trkpt>
	<trkpt lat="50.712671" lon="6.123688">
		<ele>286</ele>
		<time>2011-09-11T14:14:41.017Z</time>
		<geoidheight>240</geoidheight>
	</trkpt>
	<trkpt lat="50.712661" lon="6.123698">
		<ele>286</ele>
		<time>2011-09-11T14:14:42.019Z</time>
		<geoidheight>240</geoidheight>
	</trkpt>
	<trkpt lat="50.712651" lon="6.123708">
		<ele>286</ele>
		<time>2011-09-11T14:14:43.019Z</time>
		<geoidheight>240</geoidheight>
	</trkpt>
	<trkpt lat="50.712643" lon="6.123718">
		<ele>286</ele>
		<time>2011-09-11T14:14:44.027Z</time>
		<geoidheight>240</geoidheight>
	</trkpt>
	<trkpt lat="50.712635" lon="6.123727">
		<ele>286</ele>
		<time>2011-09-11T14:14:45.019Z</time>
		<geoidheight>240</geoidheight>
	</trkpt>
	<trkpt lat="50.712626" lon="6.123735">
		<ele>286</ele>
		<time>2011-09-11T14:14:46.015Z</time>
		<geoidheight>240</geoidheight>
	</trkpt>
	<trkpt lat="50.712618" lon="6.123741">
		<ele>286</ele>
		<time>2011-09-11T14:14:47.015Z</time>
		<geoidheight>240</geoidheight>
	</trkpt>
	<trkpt lat="50.712609" lon="6.123748">
		<ele>286</ele>
		<time>2011-09-11T14:14:48.034Z</time>
		<geoidheight>240</geoidheight>
	</trkpt>
	<trkpt lat="50.712600" lon="6.123756">
		<ele>287</ele>
		<time>2011-09-11T14:14:49.015Z</time>
		<geoidheight>241</geoidheight>
	</trkpt>
	<trkpt lat="50.712591" lon="6.123764">
		<ele>287</ele>
		<time>2011-09-11T14:14:50.022Z</time>
		<geoidheight>241</geoidheight>
	</trkpt>
	<trkpt lat="50.712582" lon="6.123771">
		<ele>287</ele>
		<time>2011-09-11T14:14:51.016Z</time>
		<geoidheight>241</geoidheight>
	</trkpt>
	<trkpt lat="50.712573" lon="6.123779">
		<ele>287</ele>
		<time>2011-09-11T14:14:52.015Z</time>
		<geoidheight>241</geoidheight>
	</trkpt>
	<trkpt lat="50.712563" lon="6.123784">
		<ele>287</ele>
		<time>2011-09-11T14:14:53.015Z</time>
		<geoidheight>241</geoidheight>
	</trkpt>
	<trkpt lat="50.712563" lon="6.123784">
		<ele>287</ele>
		<time>2011-09-11T14:14:55.019Z</time>
		<geoidheight>241</geoidheight>
	</trkpt>
</trkseg>
</trk>
</gpx>